<?xml version="1.0" encoding="UTF-8" standalone="no" ?>
<gpx xmlns="http://www.topografix.com/GPX/1/1" xmlns:xsi="http://www.w3.org/2001/XMLSchema-instance" xsi:schemaLocation="http://www.topografix.com/GPX/1/1 http://www.topografix.com/GPX/1/1/gpx.xsd" version="1.1" creator="VisuGPX - https://www.visugpx.com">
  <metadata>
    <name>Mandeure et ses descentes joueuses</name>
    <desc><![CDATA[terrain idéale et descentes superbes]]></desc>
  </metadata>
  <trk>
    <name><![CDATA[Rue Antoine Coysevox]]></name>
    <desc><![CDATA[]]></desc>
    <trkseg>
      <trkpt lat="47.51786" lon="6.77453">
        <ele>388</ele>
        <time>2015-03-15T08:08:01.079Z</time>
      </trkpt>
      <trkpt lat="47.51791" lon="6.77454">
        <ele>388</ele>
        <time>2015-03-15T08:08:02.090Z</time>
      </trkpt>
      <trkpt lat="47.5179" lon="6.77448">
        <ele>388</ele>
        <time>2015-03-15T08:08:03.094Z</time>
      </trkpt>
      <trkpt lat="47.51791" lon="6.77463">
        <ele>388</ele>
        <time>2015-03-15T08:08:04.087Z</time>
      </trkpt>
      <trkpt lat="47.51788" lon="6.77459">
        <ele>388</ele>
        <time>2015-03-15T08:08:05.082Z</time>
      </trkpt>
      <trkpt lat="47.51792" lon="6.77456">
        <ele>388</ele>
        <time>2015-03-15T08:08:06.082Z</time>
      </trkpt>
      <trkpt lat="47.51791" lon="6.77431">
        <ele>388</ele>
        <time>2015-03-15T08:08:07.082Z</time>
      </trkpt>
      <trkpt lat="47.51792" lon="6.77448">
        <ele>388</ele>
        <time>2015-03-15T08:08:08.077Z</time>
      </trkpt>
      <trkpt lat="47.51798" lon="6.77451">
        <ele>388</ele>
        <time>2015-03-15T08:08:09.071Z</time>
      </trkpt>
      <trkpt lat="47.5179" lon="6.77439">
        <ele>388</ele>
        <time>2015-03-15T08:08:10.086Z</time>
      </trkpt>
      <trkpt lat="47.51797" lon="6.77437">
        <ele>387</ele>
        <time>2015-03-15T08:08:11.076Z</time>
      </trkpt>
      <trkpt lat="47.51791" lon="6.77438">
        <ele>388</ele>
        <time>2015-03-15T08:08:12.067Z</time>
      </trkpt>
      <trkpt lat="47.51788" lon="6.7744">
        <ele>388</ele>
        <time>2015-03-15T08:08:14.085Z</time>
      </trkpt>
      <trkpt lat="47.51784" lon="6.77449">
        <ele>388</ele>
        <time>2015-03-15T08:08:15.111Z</time>
      </trkpt>
      <trkpt lat="47.51782" lon="6.77458">
        <ele>388</ele>
        <time>2015-03-15T08:08:16.085Z</time>
      </trkpt>
      <trkpt lat="47.5178" lon="6.7748">
        <ele>388</ele>
        <time>2015-03-15T08:08:17.087Z</time>
      </trkpt>
      <trkpt lat="47.51788" lon="6.77482">
        <ele>388</ele>
        <time>2015-03-15T08:08:18.100Z</time>
      </trkpt>
      <trkpt lat="47.5179" lon="6.77477">
        <ele>388</ele>
        <time>2015-03-15T08:08:19.110Z</time>
      </trkpt>
      <trkpt lat="47.51793" lon="6.77472">
        <ele>388</ele>
        <time>2015-03-15T08:08:20.081Z</time>
      </trkpt>
      <trkpt lat="47.51788" lon="6.77451">
        <ele>388</ele>
        <time>2015-03-15T08:08:21.081Z</time>
      </trkpt>
      <trkpt lat="47.51791" lon="6.7745">
        <ele>388</ele>
        <time>2015-03-15T08:08:40.000Z</time>
      </trkpt>
      <trkpt lat="47.51799" lon="6.77455">
        <ele>388</ele>
        <time>2015-03-15T08:08:41.000Z</time>
      </trkpt>
      <trkpt lat="47.51801" lon="6.77455">
        <ele>388</ele>
        <time>2015-03-15T08:08:44.000Z</time>
      </trkpt>
      <trkpt lat="47.51803" lon="6.77456">
        <ele>388</ele>
        <time>2015-03-15T08:08:45.000Z</time>
      </trkpt>
      <trkpt lat="47.51806" lon="6.77458">
        <ele>388</ele>
        <time>2015-03-15T08:10:48.000Z</time>
      </trkpt>
      <trkpt lat="47.51811" lon="6.77472">
        <ele>388</ele>
        <time>2015-03-15T08:10:49.084Z</time>
      </trkpt>
      <trkpt lat="47.51832" lon="6.77472">
        <ele>387</ele>
        <time>2015-03-15T08:10:50.084Z</time>
      </trkpt>
      <trkpt lat="47.51835" lon="6.77477">
        <ele>387</ele>
        <time>2015-03-15T08:10:51.000Z</time>
      </trkpt>
      <trkpt lat="47.51806" lon="6.77458">
        <ele>388</ele>
        <time>2015-03-15T08:10:52.000Z</time>
      </trkpt>
      <trkpt lat="47.51802" lon="6.77459">
        <ele>388</ele>
        <time>2015-03-15T08:15:39.000Z</time>
      </trkpt>
      <trkpt lat="47.51802" lon="6.77459">
        <ele>388</ele>
        <time>2015-03-15T08:15:40.000Z</time>
      </trkpt>
      <trkpt lat="47.51804" lon="6.77462">
        <ele>388</ele>
        <time>2015-03-15T08:15:54.000Z</time>
      </trkpt>
      <trkpt lat="47.51806" lon="6.77463">
        <ele>388</ele>
        <time>2015-03-15T08:15:55.000Z</time>
      </trkpt>
      <trkpt lat="47.51809" lon="6.77467">
        <ele>388</ele>
        <time>2015-03-15T08:15:57.000Z</time>
      </trkpt>
      <trkpt lat="47.51809" lon="6.77471">
        <ele>388</ele>
        <time>2015-03-15T08:15:58.000Z</time>
      </trkpt>
      <trkpt lat="47.51809" lon="6.77475">
        <ele>388</ele>
        <time>2015-03-15T08:15:59.000Z</time>
      </trkpt>
      <trkpt lat="47.51808" lon="6.77478">
        <ele>388</ele>
        <time>2015-03-15T08:16:00.000Z</time>
      </trkpt>
      <trkpt lat="47.51806" lon="6.77481">
        <ele>388</ele>
        <time>2015-03-15T08:16:01.000Z</time>
      </trkpt>
      <trkpt lat="47.51803" lon="6.77483">
        <ele>388</ele>
        <time>2015-03-15T08:16:02.000Z</time>
      </trkpt>
      <trkpt lat="47.518" lon="6.77485">
        <ele>388</ele>
        <time>2015-03-15T08:16:03.000Z</time>
      </trkpt>
      <trkpt lat="47.51797" lon="6.77485">
        <ele>388</ele>
        <time>2015-03-15T08:16:04.000Z</time>
      </trkpt>
      <trkpt lat="47.51793" lon="6.77484">
        <ele>388</ele>
        <time>2015-03-15T08:16:05.000Z</time>
      </trkpt>
      <trkpt lat="47.5179" lon="6.77483">
        <ele>388</ele>
        <time>2015-03-15T08:16:06.000Z</time>
      </trkpt>
      <trkpt lat="47.51787" lon="6.77482">
        <ele>388</ele>
        <time>2015-03-15T08:16:07.000Z</time>
      </trkpt>
      <trkpt lat="47.51785" lon="6.77482">
        <ele>388</ele>
        <time>2015-03-15T08:16:08.000Z</time>
      </trkpt>
      <trkpt lat="47.51781" lon="6.77483">
        <ele>388</ele>
        <time>2015-03-15T08:16:10.000Z</time>
      </trkpt>
      <trkpt lat="47.51779" lon="6.77482">
        <ele>388</ele>
        <time>2015-03-15T08:16:11.000Z</time>
      </trkpt>
      <trkpt lat="47.51777" lon="6.77482">
        <ele>388</ele>
        <time>2015-03-15T08:16:12.000Z</time>
      </trkpt>
      <trkpt lat="47.51774" lon="6.77481">
        <ele>388</ele>
        <time>2015-03-15T08:16:13.000Z</time>
      </trkpt>
      <trkpt lat="47.51771" lon="6.7748">
        <ele>388</ele>
        <time>2015-03-15T08:16:14.000Z</time>
      </trkpt>
      <trkpt lat="47.51768" lon="6.7748">
        <ele>388</ele>
        <time>2015-03-15T08:16:15.000Z</time>
      </trkpt>
      <trkpt lat="47.51764" lon="6.77479">
        <ele>389</ele>
        <time>2015-03-15T08:16:16.000Z</time>
      </trkpt>
      <trkpt lat="47.51761" lon="6.77478">
        <ele>389</ele>
        <time>2015-03-15T08:16:17.000Z</time>
      </trkpt>
      <trkpt lat="47.51758" lon="6.77478">
        <ele>389</ele>
        <time>2015-03-15T08:16:18.000Z</time>
      </trkpt>
      <trkpt lat="47.51755" lon="6.77477">
        <ele>389</ele>
        <time>2015-03-15T08:16:19.000Z</time>
      </trkpt>
      <trkpt lat="47.51752" lon="6.77476">
        <ele>389</ele>
        <time>2015-03-15T08:16:20.000Z</time>
      </trkpt>
      <trkpt lat="47.51748" lon="6.77475">
        <ele>389</ele>
        <time>2015-03-15T08:16:21.000Z</time>
      </trkpt>
      <trkpt lat="47.51745" lon="6.77475">
        <ele>389</ele>
        <time>2015-03-15T08:16:22.000Z</time>
      </trkpt>
      <trkpt lat="47.51741" lon="6.77474">
        <ele>389</ele>
        <time>2015-03-15T08:16:23.000Z</time>
      </trkpt>
      <trkpt lat="47.51738" lon="6.77474">
        <ele>389</ele>
        <time>2015-03-15T08:16:24.000Z</time>
      </trkpt>
      <trkpt lat="47.51734" lon="6.77474">
        <ele>389</ele>
        <time>2015-03-15T08:16:25.000Z</time>
      </trkpt>
      <trkpt lat="47.5173" lon="6.77476">
        <ele>389</ele>
        <time>2015-03-15T08:16:26.000Z</time>
      </trkpt>
      <trkpt lat="47.51726" lon="6.77478">
        <ele>389</ele>
        <time>2015-03-15T08:16:27.000Z</time>
      </trkpt>
      <trkpt lat="47.51723" lon="6.77483">
        <ele>389</ele>
        <time>2015-03-15T08:16:28.000Z</time>
      </trkpt>
      <trkpt lat="47.51721" lon="6.77488">
        <ele>389</ele>
        <time>2015-03-15T08:16:29.000Z</time>
      </trkpt>
      <trkpt lat="47.51719" lon="6.77494">
        <ele>389</ele>
        <time>2015-03-15T08:16:30.000Z</time>
      </trkpt>
      <trkpt lat="47.51718" lon="6.77499">
        <ele>389</ele>
        <time>2015-03-15T08:16:31.000Z</time>
      </trkpt>
      <trkpt lat="47.51717" lon="6.77505">
        <ele>390</ele>
        <time>2015-03-15T08:16:32.000Z</time>
      </trkpt>
      <trkpt lat="47.51717" lon="6.77511">
        <ele>390</ele>
        <time>2015-03-15T08:16:33.000Z</time>
      </trkpt>
      <trkpt lat="47.51716" lon="6.77517">
        <ele>390</ele>
        <time>2015-03-15T08:16:34.000Z</time>
      </trkpt>
      <trkpt lat="47.51716" lon="6.77522">
        <ele>390</ele>
        <time>2015-03-15T08:16:35.000Z</time>
      </trkpt>
      <trkpt lat="47.51714" lon="6.77527">
        <ele>390</ele>
        <time>2015-03-15T08:16:36.000Z</time>
      </trkpt>
      <trkpt lat="47.51713" lon="6.77532">
        <ele>390</ele>
        <time>2015-03-15T08:16:37.000Z</time>
      </trkpt>
      <trkpt lat="47.51712" lon="6.77537">
        <ele>390</ele>
        <time>2015-03-15T08:16:38.000Z</time>
      </trkpt>
      <trkpt lat="47.51711" lon="6.77541">
        <ele>390</ele>
        <time>2015-03-15T08:16:39.000Z</time>
      </trkpt>
      <trkpt lat="47.51709" lon="6.77545">
        <ele>390</ele>
        <time>2015-03-15T08:16:40.000Z</time>
      </trkpt>
      <trkpt lat="47.51707" lon="6.77548">
        <ele>390</ele>
        <time>2015-03-15T08:16:41.000Z</time>
      </trkpt>
      <trkpt lat="47.51704" lon="6.77549">
        <ele>390</ele>
        <time>2015-03-15T08:16:42.000Z</time>
      </trkpt>
      <trkpt lat="47.51701" lon="6.77548">
        <ele>390</ele>
        <time>2015-03-15T08:16:43.000Z</time>
      </trkpt>
      <trkpt lat="47.51697" lon="6.77545">
        <ele>390</ele>
        <time>2015-03-15T08:16:44.000Z</time>
      </trkpt>
      <trkpt lat="47.51694" lon="6.77542">
        <ele>390</ele>
        <time>2015-03-15T08:16:45.000Z</time>
      </trkpt>
      <trkpt lat="47.5169" lon="6.77538">
        <ele>390</ele>
        <time>2015-03-15T08:16:46.000Z</time>
      </trkpt>
      <trkpt lat="47.51687" lon="6.77534">
        <ele>390</ele>
        <time>2015-03-15T08:16:47.000Z</time>
      </trkpt>
      <trkpt lat="47.51684" lon="6.77529">
        <ele>390</ele>
        <time>2015-03-15T08:16:48.000Z</time>
      </trkpt>
      <trkpt lat="47.5168" lon="6.7752">
        <ele>390</ele>
        <time>2015-03-15T08:16:49.000Z</time>
      </trkpt>
      <trkpt lat="47.51675" lon="6.77515">
        <ele>389</ele>
        <time>2015-03-15T08:16:50.000Z</time>
      </trkpt>
      <trkpt lat="47.51671" lon="6.77509">
        <ele>389</ele>
        <time>2015-03-15T08:16:51.000Z</time>
      </trkpt>
      <trkpt lat="47.51666" lon="6.77503">
        <ele>389</ele>
        <time>2015-03-15T08:16:52.000Z</time>
      </trkpt>
      <trkpt lat="47.51662" lon="6.77497">
        <ele>388</ele>
        <time>2015-03-15T08:16:53.000Z</time>
      </trkpt>
      <trkpt lat="47.51657" lon="6.77491">
        <ele>388</ele>
        <time>2015-03-15T08:16:54.000Z</time>
      </trkpt>
      <trkpt lat="47.51652" lon="6.77486">
        <ele>387</ele>
        <time>2015-03-15T08:16:55.000Z</time>
      </trkpt>
      <trkpt lat="47.51647" lon="6.77481">
        <ele>387</ele>
        <time>2015-03-15T08:16:56.000Z</time>
      </trkpt>
      <trkpt lat="47.51642" lon="6.77475">
        <ele>386</ele>
        <time>2015-03-15T08:16:57.000Z</time>
      </trkpt>
      <trkpt lat="47.51637" lon="6.77469">
        <ele>386</ele>
        <time>2015-03-15T08:16:58.000Z</time>
      </trkpt>
      <trkpt lat="47.51632" lon="6.77463">
        <ele>386</ele>
        <time>2015-03-15T08:16:59.000Z</time>
      </trkpt>
      <trkpt lat="47.51627" lon="6.77457">
        <ele>386</ele>
        <time>2015-03-15T08:17:00.000Z</time>
      </trkpt>
      <trkpt lat="47.51621" lon="6.77451">
        <ele>386</ele>
        <time>2015-03-15T08:17:01.000Z</time>
      </trkpt>
      <trkpt lat="47.51616" lon="6.77444">
        <ele>385</ele>
        <time>2015-03-15T08:17:02.000Z</time>
      </trkpt>
      <trkpt lat="47.51611" lon="6.77438">
        <ele>385</ele>
        <time>2015-03-15T08:17:03.000Z</time>
      </trkpt>
      <trkpt lat="47.51605" lon="6.77431">
        <ele>385</ele>
        <time>2015-03-15T08:17:04.000Z</time>
      </trkpt>
      <trkpt lat="47.51599" lon="6.77423">
        <ele>384</ele>
        <time>2015-03-15T08:17:05.000Z</time>
      </trkpt>
      <trkpt lat="47.51594" lon="6.77416">
        <ele>383</ele>
        <time>2015-03-15T08:17:06.000Z</time>
      </trkpt>
      <trkpt lat="47.51587" lon="6.77408">
        <ele>383</ele>
        <time>2015-03-15T08:17:07.000Z</time>
      </trkpt>
      <trkpt lat="47.5158" lon="6.774">
        <ele>382</ele>
        <time>2015-03-15T08:17:08.000Z</time>
      </trkpt>
      <trkpt lat="47.51573" lon="6.77393">
        <ele>381</ele>
        <time>2015-03-15T08:17:09.000Z</time>
      </trkpt>
      <trkpt lat="47.51566" lon="6.77383">
        <ele>381</ele>
        <time>2015-03-15T08:17:10.000Z</time>
      </trkpt>
      <trkpt lat="47.51558" lon="6.77374">
        <ele>381</ele>
        <time>2015-03-15T08:17:11.000Z</time>
      </trkpt>
      <trkpt lat="47.51549" lon="6.77365">
        <ele>381</ele>
        <time>2015-03-15T08:17:12.000Z</time>
      </trkpt>
      <trkpt lat="47.51542" lon="6.77357">
        <ele>380</ele>
        <time>2015-03-15T08:17:13.000Z</time>
      </trkpt>
      <trkpt lat="47.51534" lon="6.77348">
        <ele>380</ele>
        <time>2015-03-15T08:17:14.000Z</time>
      </trkpt>
      <trkpt lat="47.51527" lon="6.77339">
        <ele>380</ele>
        <time>2015-03-15T08:17:15.000Z</time>
      </trkpt>
      <trkpt lat="47.51519" lon="6.7733">
        <ele>378</ele>
        <time>2015-03-15T08:17:16.000Z</time>
      </trkpt>
      <trkpt lat="47.51511" lon="6.7732">
        <ele>378</ele>
        <time>2015-03-15T08:17:17.000Z</time>
      </trkpt>
      <trkpt lat="47.51505" lon="6.77311">
        <ele>378</ele>
        <time>2015-03-15T08:17:18.000Z</time>
      </trkpt>
      <trkpt lat="47.51498" lon="6.77301">
        <ele>377</ele>
        <time>2015-03-15T08:17:19.000Z</time>
      </trkpt>
      <trkpt lat="47.51494" lon="6.77286">
        <ele>377</ele>
        <time>2015-03-15T08:17:20.000Z</time>
      </trkpt>
      <trkpt lat="47.51491" lon="6.77272">
        <ele>377</ele>
        <time>2015-03-15T08:17:21.000Z</time>
      </trkpt>
      <trkpt lat="47.51489" lon="6.77259">
        <ele>376</ele>
        <time>2015-03-15T08:17:22.000Z</time>
      </trkpt>
      <trkpt lat="47.51487" lon="6.77245">
        <ele>376</ele>
        <time>2015-03-15T08:17:23.000Z</time>
      </trkpt>
      <trkpt lat="47.51487" lon="6.77232">
        <ele>375</ele>
        <time>2015-03-15T08:17:24.000Z</time>
      </trkpt>
      <trkpt lat="47.51486" lon="6.7722">
        <ele>375</ele>
        <time>2015-03-15T08:17:25.000Z</time>
      </trkpt>
      <trkpt lat="47.51484" lon="6.7721">
        <ele>375</ele>
        <time>2015-03-15T08:17:26.000Z</time>
      </trkpt>
      <trkpt lat="47.5148" lon="6.77202">
        <ele>375</ele>
        <time>2015-03-15T08:17:27.000Z</time>
      </trkpt>
      <trkpt lat="47.51473" lon="6.77197">
        <ele>375</ele>
        <time>2015-03-15T08:17:28.000Z</time>
      </trkpt>
      <trkpt lat="47.51465" lon="6.77197">
        <ele>375</ele>
        <time>2015-03-15T08:17:29.000Z</time>
      </trkpt>
      <trkpt lat="47.51456" lon="6.77196">
        <ele>375</ele>
        <time>2015-03-15T08:17:30.000Z</time>
      </trkpt>
      <trkpt lat="47.51447" lon="6.77196">
        <ele>375</ele>
        <time>2015-03-15T08:17:31.000Z</time>
      </trkpt>
      <trkpt lat="47.51438" lon="6.77198">
        <ele>375</ele>
        <time>2015-03-15T08:17:32.000Z</time>
      </trkpt>
      <trkpt lat="47.5143" lon="6.77203">
        <ele>375</ele>
        <time>2015-03-15T08:17:33.000Z</time>
      </trkpt>
      <trkpt lat="47.51423" lon="6.77207">
        <ele>375</ele>
        <time>2015-03-15T08:17:34.000Z</time>
      </trkpt>
      <trkpt lat="47.51416" lon="6.7721">
        <ele>375</ele>
        <time>2015-03-15T08:17:35.000Z</time>
      </trkpt>
      <trkpt lat="47.5141" lon="6.77214">
        <ele>375</ele>
        <time>2015-03-15T08:17:36.000Z</time>
      </trkpt>
      <trkpt lat="47.51403" lon="6.77218">
        <ele>375</ele>
        <time>2015-03-15T08:17:37.000Z</time>
      </trkpt>
      <trkpt lat="47.51397" lon="6.77221">
        <ele>376</ele>
        <time>2015-03-15T08:17:38.000Z</time>
      </trkpt>
      <trkpt lat="47.51392" lon="6.77224">
        <ele>376</ele>
        <time>2015-03-15T08:17:39.000Z</time>
      </trkpt>
      <trkpt lat="47.51387" lon="6.77227">
        <ele>376</ele>
        <time>2015-03-15T08:17:40.000Z</time>
      </trkpt>
      <trkpt lat="47.51382" lon="6.77231">
        <ele>376</ele>
        <time>2015-03-15T08:17:41.000Z</time>
      </trkpt>
      <trkpt lat="47.51378" lon="6.77234">
        <ele>376</ele>
        <time>2015-03-15T08:17:42.000Z</time>
      </trkpt>
      <trkpt lat="47.51374" lon="6.77237">
        <ele>376</ele>
        <time>2015-03-15T08:17:43.000Z</time>
      </trkpt>
      <trkpt lat="47.5137" lon="6.77239">
        <ele>376</ele>
        <time>2015-03-15T08:17:44.000Z</time>
      </trkpt>
      <trkpt lat="47.51367" lon="6.77242">
        <ele>376</ele>
        <time>2015-03-15T08:17:45.000Z</time>
      </trkpt>
      <trkpt lat="47.51364" lon="6.77245">
        <ele>376</ele>
        <time>2015-03-15T08:17:46.000Z</time>
      </trkpt>
      <trkpt lat="47.5136" lon="6.77248">
        <ele>376</ele>
        <time>2015-03-15T08:17:47.000Z</time>
      </trkpt>
      <trkpt lat="47.51357" lon="6.7725">
        <ele>378</ele>
        <time>2015-03-15T08:17:48.000Z</time>
      </trkpt>
      <trkpt lat="47.51354" lon="6.77252">
        <ele>378</ele>
        <time>2015-03-15T08:17:49.000Z</time>
      </trkpt>
      <trkpt lat="47.51352" lon="6.77254">
        <ele>378</ele>
        <time>2015-03-15T08:17:50.000Z</time>
      </trkpt>
      <trkpt lat="47.51349" lon="6.77257">
        <ele>378</ele>
        <time>2015-03-15T08:17:51.000Z</time>
      </trkpt>
      <trkpt lat="47.51347" lon="6.77258">
        <ele>378</ele>
        <time>2015-03-15T08:17:52.000Z</time>
      </trkpt>
      <trkpt lat="47.51344" lon="6.77261">
        <ele>378</ele>
        <time>2015-03-15T08:17:53.000Z</time>
      </trkpt>
      <trkpt lat="47.51341" lon="6.77263">
        <ele>378</ele>
        <time>2015-03-15T08:17:54.000Z</time>
      </trkpt>
      <trkpt lat="47.51339" lon="6.77265">
        <ele>378</ele>
        <time>2015-03-15T08:17:55.000Z</time>
      </trkpt>
      <trkpt lat="47.51336" lon="6.77268">
        <ele>378</ele>
        <time>2015-03-15T08:17:56.000Z</time>
      </trkpt>
      <trkpt lat="47.51333" lon="6.7727">
        <ele>377</ele>
        <time>2015-03-15T08:17:57.000Z</time>
      </trkpt>
      <trkpt lat="47.5133" lon="6.77272">
        <ele>377</ele>
        <time>2015-03-15T08:17:58.000Z</time>
      </trkpt>
      <trkpt lat="47.51327" lon="6.77273">
        <ele>377</ele>
        <time>2015-03-15T08:17:59.000Z</time>
      </trkpt>
      <trkpt lat="47.51324" lon="6.77274">
        <ele>377</ele>
        <time>2015-03-15T08:18:00.000Z</time>
      </trkpt>
      <trkpt lat="47.51321" lon="6.77275">
        <ele>377</ele>
        <time>2015-03-15T08:18:01.000Z</time>
      </trkpt>
      <trkpt lat="47.51317" lon="6.77276">
        <ele>377</ele>
        <time>2015-03-15T08:18:02.000Z</time>
      </trkpt>
      <trkpt lat="47.51314" lon="6.77277">
        <ele>377</ele>
        <time>2015-03-15T08:18:03.000Z</time>
      </trkpt>
      <trkpt lat="47.5131" lon="6.77277">
        <ele>377</ele>
        <time>2015-03-15T08:18:04.000Z</time>
      </trkpt>
      <trkpt lat="47.51306" lon="6.77272">
        <ele>377</ele>
        <time>2015-03-15T08:18:05.000Z</time>
      </trkpt>
      <trkpt lat="47.51303" lon="6.77273">
        <ele>377</ele>
        <time>2015-03-15T08:18:06.000Z</time>
      </trkpt>
      <trkpt lat="47.513" lon="6.77272">
        <ele>377</ele>
        <time>2015-03-15T08:18:07.000Z</time>
      </trkpt>
      <trkpt lat="47.51298" lon="6.77272">
        <ele>377</ele>
        <time>2015-03-15T08:18:08.000Z</time>
      </trkpt>
      <trkpt lat="47.51295" lon="6.77271">
        <ele>377</ele>
        <time>2015-03-15T08:18:09.000Z</time>
      </trkpt>
      <trkpt lat="47.51292" lon="6.7727">
        <ele>377</ele>
        <time>2015-03-15T08:18:10.000Z</time>
      </trkpt>
      <trkpt lat="47.5129" lon="6.77269">
        <ele>377</ele>
        <time>2015-03-15T08:18:11.000Z</time>
      </trkpt>
      <trkpt lat="47.51285" lon="6.77267">
        <ele>377</ele>
        <time>2015-03-15T08:18:12.000Z</time>
      </trkpt>
      <trkpt lat="47.51281" lon="6.77264">
        <ele>377</ele>
        <time>2015-03-15T08:18:13.000Z</time>
      </trkpt>
      <trkpt lat="47.51277" lon="6.77264">
        <ele>377</ele>
        <time>2015-03-15T08:18:14.000Z</time>
      </trkpt>
      <trkpt lat="47.51274" lon="6.77263">
        <ele>377</ele>
        <time>2015-03-15T08:18:15.000Z</time>
      </trkpt>
      <trkpt lat="47.51273" lon="6.77258">
        <ele>377</ele>
        <time>2015-03-15T08:18:16.000Z</time>
      </trkpt>
      <trkpt lat="47.51269" lon="6.77255">
        <ele>378</ele>
        <time>2015-03-15T08:18:17.000Z</time>
      </trkpt>
      <trkpt lat="47.51266" lon="6.77252">
        <ele>378</ele>
        <time>2015-03-15T08:18:18.000Z</time>
      </trkpt>
      <trkpt lat="47.51263" lon="6.7725">
        <ele>378</ele>
        <time>2015-03-15T08:18:19.000Z</time>
      </trkpt>
      <trkpt lat="47.51261" lon="6.77247">
        <ele>378</ele>
        <time>2015-03-15T08:18:20.000Z</time>
      </trkpt>
      <trkpt lat="47.51258" lon="6.77243">
        <ele>379</ele>
        <time>2015-03-15T08:18:21.000Z</time>
      </trkpt>
      <trkpt lat="47.51255" lon="6.77239">
        <ele>378</ele>
        <time>2015-03-15T08:18:22.000Z</time>
      </trkpt>
      <trkpt lat="47.51252" lon="6.77234">
        <ele>378</ele>
        <time>2015-03-15T08:18:23.000Z</time>
      </trkpt>
      <trkpt lat="47.51249" lon="6.7723">
        <ele>377</ele>
        <time>2015-03-15T08:18:24.000Z</time>
      </trkpt>
      <trkpt lat="47.51246" lon="6.77223">
        <ele>376</ele>
        <time>2015-03-15T08:18:25.000Z</time>
      </trkpt>
      <trkpt lat="47.51243" lon="6.77217">
        <ele>376</ele>
        <time>2015-03-15T08:18:26.000Z</time>
      </trkpt>
      <trkpt lat="47.5124" lon="6.77211">
        <ele>376</ele>
        <time>2015-03-15T08:18:27.000Z</time>
      </trkpt>
      <trkpt lat="47.51238" lon="6.77206">
        <ele>376</ele>
        <time>2015-03-15T08:18:28.000Z</time>
      </trkpt>
      <trkpt lat="47.51235" lon="6.77201">
        <ele>376</ele>
        <time>2015-03-15T08:18:29.000Z</time>
      </trkpt>
      <trkpt lat="47.51233" lon="6.77196">
        <ele>376</ele>
        <time>2015-03-15T08:18:30.000Z</time>
      </trkpt>
      <trkpt lat="47.51234" lon="6.77193">
        <ele>376</ele>
        <time>2015-03-15T08:18:31.000Z</time>
      </trkpt>
      <trkpt lat="47.5123" lon="6.77186">
        <ele>377</ele>
        <time>2015-03-15T08:18:32.000Z</time>
      </trkpt>
      <trkpt lat="47.51228" lon="6.7718">
        <ele>377</ele>
        <time>2015-03-15T08:18:32.999Z</time>
      </trkpt>
      <trkpt lat="47.51224" lon="6.77171">
        <ele>377</ele>
        <time>2015-03-15T08:18:34.000Z</time>
      </trkpt>
      <trkpt lat="47.5122" lon="6.77164">
        <ele>378</ele>
        <time>2015-03-15T08:18:35.000Z</time>
      </trkpt>
      <trkpt lat="47.51215" lon="6.77156">
        <ele>378</ele>
        <time>2015-03-15T08:18:36.000Z</time>
      </trkpt>
      <trkpt lat="47.51211" lon="6.77148">
        <ele>378</ele>
        <time>2015-03-15T08:18:37.000Z</time>
      </trkpt>
      <trkpt lat="47.51205" lon="6.7714">
        <ele>378</ele>
        <time>2015-03-15T08:18:38.000Z</time>
      </trkpt>
      <trkpt lat="47.512" lon="6.77132">
        <ele>378</ele>
        <time>2015-03-15T08:18:39.000Z</time>
      </trkpt>
      <trkpt lat="47.51196" lon="6.77123">
        <ele>378</ele>
        <time>2015-03-15T08:18:40.000Z</time>
      </trkpt>
      <trkpt lat="47.51192" lon="6.77113">
        <ele>378</ele>
        <time>2015-03-15T08:18:41.000Z</time>
      </trkpt>
      <trkpt lat="47.51187" lon="6.77104">
        <ele>378</ele>
        <time>2015-03-15T08:18:41.999Z</time>
      </trkpt>
      <trkpt lat="47.51183" lon="6.77097">
        <ele>378</ele>
        <time>2015-03-15T08:18:43.000Z</time>
      </trkpt>
      <trkpt lat="47.51178" lon="6.7709">
        <ele>378</ele>
        <time>2015-03-15T08:18:44.000Z</time>
      </trkpt>
      <trkpt lat="47.51174" lon="6.77082">
        <ele>377</ele>
        <time>2015-03-15T08:18:45.000Z</time>
      </trkpt>
      <trkpt lat="47.51169" lon="6.77074">
        <ele>377</ele>
        <time>2015-03-15T08:18:46.000Z</time>
      </trkpt>
      <trkpt lat="47.51162" lon="6.77069">
        <ele>377</ele>
        <time>2015-03-15T08:18:47.000Z</time>
      </trkpt>
      <trkpt lat="47.51157" lon="6.77061">
        <ele>376</ele>
        <time>2015-03-15T08:18:48.000Z</time>
      </trkpt>
      <trkpt lat="47.51151" lon="6.77054">
        <ele>376</ele>
        <time>2015-03-15T08:18:49.000Z</time>
      </trkpt>
      <trkpt lat="47.51145" lon="6.77048">
        <ele>376</ele>
        <time>2015-03-15T08:18:50.000Z</time>
      </trkpt>
      <trkpt lat="47.5114" lon="6.77043">
        <ele>375</ele>
        <time>2015-03-15T08:18:51.000Z</time>
      </trkpt>
      <trkpt lat="47.51134" lon="6.77038">
        <ele>375</ele>
        <time>2015-03-15T08:18:52.000Z</time>
      </trkpt>
      <trkpt lat="47.51129" lon="6.77033">
        <ele>375</ele>
        <time>2015-03-15T08:18:52.999Z</time>
      </trkpt>
      <trkpt lat="47.51121" lon="6.77029">
        <ele>375</ele>
        <time>2015-03-15T08:18:54.000Z</time>
      </trkpt>
      <trkpt lat="47.51114" lon="6.77023">
        <ele>375</ele>
        <time>2015-03-15T08:18:55.000Z</time>
      </trkpt>
      <trkpt lat="47.51109" lon="6.77017">
        <ele>375</ele>
        <time>2015-03-15T08:18:56.000Z</time>
      </trkpt>
      <trkpt lat="47.51103" lon="6.77013">
        <ele>375</ele>
        <time>2015-03-15T08:18:57.000Z</time>
      </trkpt>
      <trkpt lat="47.51097" lon="6.77009">
        <ele>375</ele>
        <time>2015-03-15T08:18:58.000Z</time>
      </trkpt>
      <trkpt lat="47.51091" lon="6.77005">
        <ele>375</ele>
        <time>2015-03-15T08:18:58.999Z</time>
      </trkpt>
      <trkpt lat="47.51083" lon="6.76998">
        <ele>375</ele>
        <time>2015-03-15T08:19:00.000Z</time>
      </trkpt>
      <trkpt lat="47.51076" lon="6.76992">
        <ele>375</ele>
        <time>2015-03-15T08:19:01.000Z</time>
      </trkpt>
      <trkpt lat="47.51069" lon="6.76984">
        <ele>375</ele>
        <time>2015-03-15T08:19:02.000Z</time>
      </trkpt>
      <trkpt lat="47.51063" lon="6.76978">
        <ele>375</ele>
        <time>2015-03-15T08:19:03.000Z</time>
      </trkpt>
      <trkpt lat="47.51058" lon="6.76972">
        <ele>375</ele>
        <time>2015-03-15T08:19:04.000Z</time>
      </trkpt>
      <trkpt lat="47.51052" lon="6.76968">
        <ele>375</ele>
        <time>2015-03-15T08:19:05.000Z</time>
      </trkpt>
      <trkpt lat="47.51047" lon="6.76961">
        <ele>375</ele>
        <time>2015-03-15T08:19:06.000Z</time>
      </trkpt>
      <trkpt lat="47.51042" lon="6.76956">
        <ele>375</ele>
        <time>2015-03-15T08:19:07.000Z</time>
      </trkpt>
      <trkpt lat="47.51037" lon="6.76952">
        <ele>375</ele>
        <time>2015-03-15T08:19:08.000Z</time>
      </trkpt>
      <trkpt lat="47.51032" lon="6.76949">
        <ele>375</ele>
        <time>2015-03-15T08:19:09.000Z</time>
      </trkpt>
      <trkpt lat="47.51027" lon="6.76944">
        <ele>375</ele>
        <time>2015-03-15T08:19:10.000Z</time>
      </trkpt>
      <trkpt lat="47.51022" lon="6.76936">
        <ele>375</ele>
        <time>2015-03-15T08:19:11.000Z</time>
      </trkpt>
      <trkpt lat="47.51017" lon="6.76931">
        <ele>375</ele>
        <time>2015-03-15T08:19:12.000Z</time>
      </trkpt>
      <trkpt lat="47.51011" lon="6.76927">
        <ele>375</ele>
        <time>2015-03-15T08:19:13.000Z</time>
      </trkpt>
      <trkpt lat="47.51006" lon="6.76922">
        <ele>376</ele>
        <time>2015-03-15T08:19:14.000Z</time>
      </trkpt>
      <trkpt lat="47.51002" lon="6.76916">
        <ele>376</ele>
        <time>2015-03-15T08:19:15.000Z</time>
      </trkpt>
      <trkpt lat="47.50999" lon="6.76909">
        <ele>376</ele>
        <time>2015-03-15T08:19:16.000Z</time>
      </trkpt>
      <trkpt lat="47.50996" lon="6.76903">
        <ele>377</ele>
        <time>2015-03-15T08:19:17.000Z</time>
      </trkpt>
      <trkpt lat="47.50991" lon="6.76898">
        <ele>377</ele>
        <time>2015-03-15T08:19:18.000Z</time>
      </trkpt>
      <trkpt lat="47.50986" lon="6.76895">
        <ele>377</ele>
        <time>2015-03-15T08:19:19.000Z</time>
      </trkpt>
      <trkpt lat="47.50979" lon="6.76892">
        <ele>377</ele>
        <time>2015-03-15T08:19:20.000Z</time>
      </trkpt>
      <trkpt lat="47.50973" lon="6.76889">
        <ele>377</ele>
        <time>2015-03-15T08:19:21.000Z</time>
      </trkpt>
      <trkpt lat="47.50965" lon="6.76885">
        <ele>377</ele>
        <time>2015-03-15T08:19:22.000Z</time>
      </trkpt>
      <trkpt lat="47.5096" lon="6.76885">
        <ele>377</ele>
        <time>2015-03-15T08:19:23.000Z</time>
      </trkpt>
      <trkpt lat="47.50956" lon="6.76884">
        <ele>377</ele>
        <time>2015-03-15T08:19:24.000Z</time>
      </trkpt>
      <trkpt lat="47.50952" lon="6.7688">
        <ele>378</ele>
        <time>2015-03-15T08:19:25.000Z</time>
      </trkpt>
      <trkpt lat="47.50947" lon="6.76879">
        <ele>378</ele>
        <time>2015-03-15T08:19:26.000Z</time>
      </trkpt>
      <trkpt lat="47.50944" lon="6.76877">
        <ele>378</ele>
        <time>2015-03-15T08:19:27.000Z</time>
      </trkpt>
      <trkpt lat="47.50942" lon="6.76877">
        <ele>378</ele>
        <time>2015-03-15T08:19:28.000Z</time>
      </trkpt>
      <trkpt lat="47.5094" lon="6.76872">
        <ele>378</ele>
        <time>2015-03-15T08:19:29.000Z</time>
      </trkpt>
      <trkpt lat="47.50937" lon="6.76869">
        <ele>378</ele>
        <time>2015-03-15T08:19:29.998Z</time>
      </trkpt>
      <trkpt lat="47.50934" lon="6.76863">
        <ele>378</ele>
        <time>2015-03-15T08:19:31.001Z</time>
      </trkpt>
      <trkpt lat="47.50928" lon="6.76858">
        <ele>378</ele>
        <time>2015-03-15T08:19:32.000Z</time>
      </trkpt>
      <trkpt lat="47.50927" lon="6.76852">
        <ele>379</ele>
        <time>2015-03-15T08:19:33.000Z</time>
      </trkpt>
      <trkpt lat="47.50922" lon="6.76846">
        <ele>379</ele>
        <time>2015-03-15T08:19:34.000Z</time>
      </trkpt>
      <trkpt lat="47.50921" lon="6.7684">
        <ele>379</ele>
        <time>2015-03-15T08:19:35.000Z</time>
      </trkpt>
      <trkpt lat="47.50919" lon="6.76835">
        <ele>380</ele>
        <time>2015-03-15T08:19:36.000Z</time>
      </trkpt>
      <trkpt lat="47.50916" lon="6.76828">
        <ele>380</ele>
        <time>2015-03-15T08:19:37.000Z</time>
      </trkpt>
      <trkpt lat="47.50914" lon="6.76822">
        <ele>381</ele>
        <time>2015-03-15T08:19:38.000Z</time>
      </trkpt>
      <trkpt lat="47.50911" lon="6.76816">
        <ele>381</ele>
        <time>2015-03-15T08:19:39.000Z</time>
      </trkpt>
      <trkpt lat="47.50909" lon="6.7681">
        <ele>381</ele>
        <time>2015-03-15T08:19:40.000Z</time>
      </trkpt>
      <trkpt lat="47.50907" lon="6.76805">
        <ele>381</ele>
        <time>2015-03-15T08:19:41.000Z</time>
      </trkpt>
      <trkpt lat="47.50903" lon="6.76799">
        <ele>381</ele>
        <time>2015-03-15T08:19:42.000Z</time>
      </trkpt>
      <trkpt lat="47.50901" lon="6.76793">
        <ele>381</ele>
        <time>2015-03-15T08:19:43.000Z</time>
      </trkpt>
      <trkpt lat="47.50899" lon="6.76787">
        <ele>381</ele>
        <time>2015-03-15T08:19:44.000Z</time>
      </trkpt>
      <trkpt lat="47.50897" lon="6.7678">
        <ele>381</ele>
        <time>2015-03-15T08:19:45.000Z</time>
      </trkpt>
      <trkpt lat="47.50893" lon="6.76773">
        <ele>381</ele>
        <time>2015-03-15T08:19:46.000Z</time>
      </trkpt>
      <trkpt lat="47.5089" lon="6.76768">
        <ele>381</ele>
        <time>2015-03-15T08:19:47.000Z</time>
      </trkpt>
      <trkpt lat="47.50888" lon="6.76762">
        <ele>381</ele>
        <time>2015-03-15T08:19:48.000Z</time>
      </trkpt>
      <trkpt lat="47.50886" lon="6.76755">
        <ele>381</ele>
        <time>2015-03-15T08:19:49.000Z</time>
      </trkpt>
      <trkpt lat="47.50884" lon="6.76749">
        <ele>382</ele>
        <time>2015-03-15T08:19:50.000Z</time>
      </trkpt>
      <trkpt lat="47.50882" lon="6.76743">
        <ele>382</ele>
        <time>2015-03-15T08:19:51.000Z</time>
      </trkpt>
      <trkpt lat="47.5088" lon="6.76737">
        <ele>383</ele>
        <time>2015-03-15T08:19:52.000Z</time>
      </trkpt>
      <trkpt lat="47.50879" lon="6.76731">
        <ele>383</ele>
        <time>2015-03-15T08:19:53.000Z</time>
      </trkpt>
      <trkpt lat="47.50877" lon="6.76726">
        <ele>383</ele>
        <time>2015-03-15T08:19:54.000Z</time>
      </trkpt>
      <trkpt lat="47.50876" lon="6.7672">
        <ele>383</ele>
        <time>2015-03-15T08:19:55.000Z</time>
      </trkpt>
      <trkpt lat="47.50874" lon="6.76715">
        <ele>383</ele>
        <time>2015-03-15T08:19:56.000Z</time>
      </trkpt>
      <trkpt lat="47.50872" lon="6.76709">
        <ele>383</ele>
        <time>2015-03-15T08:19:57.000Z</time>
      </trkpt>
      <trkpt lat="47.5087" lon="6.76704">
        <ele>384</ele>
        <time>2015-03-15T08:19:58.000Z</time>
      </trkpt>
      <trkpt lat="47.50868" lon="6.76698">
        <ele>384</ele>
        <time>2015-03-15T08:19:59.000Z</time>
      </trkpt>
      <trkpt lat="47.50866" lon="6.76693">
        <ele>384</ele>
        <time>2015-03-15T08:20:00.000Z</time>
      </trkpt>
      <trkpt lat="47.50864" lon="6.76689">
        <ele>384</ele>
        <time>2015-03-15T08:20:01.000Z</time>
      </trkpt>
      <trkpt lat="47.50863" lon="6.76684">
        <ele>384</ele>
        <time>2015-03-15T08:20:02.000Z</time>
      </trkpt>
      <trkpt lat="47.50861" lon="6.7668">
        <ele>385</ele>
        <time>2015-03-15T08:20:03.000Z</time>
      </trkpt>
      <trkpt lat="47.5086" lon="6.76676">
        <ele>385</ele>
        <time>2015-03-15T08:20:04.000Z</time>
      </trkpt>
      <trkpt lat="47.50858" lon="6.76671">
        <ele>385</ele>
        <time>2015-03-15T08:20:05.000Z</time>
      </trkpt>
      <trkpt lat="47.50856" lon="6.76666">
        <ele>387</ele>
        <time>2015-03-15T08:20:06.000Z</time>
      </trkpt>
      <trkpt lat="47.50854" lon="6.76662">
        <ele>387</ele>
        <time>2015-03-15T08:20:07.000Z</time>
      </trkpt>
      <trkpt lat="47.50853" lon="6.76657">
        <ele>387</ele>
        <time>2015-03-15T08:20:08.000Z</time>
      </trkpt>
      <trkpt lat="47.50851" lon="6.76653">
        <ele>387</ele>
        <time>2015-03-15T08:20:09.000Z</time>
      </trkpt>
      <trkpt lat="47.50849" lon="6.76648">
        <ele>387</ele>
        <time>2015-03-15T08:20:10.000Z</time>
      </trkpt>
      <trkpt lat="47.50847" lon="6.76644">
        <ele>387</ele>
        <time>2015-03-15T08:20:11.000Z</time>
      </trkpt>
      <trkpt lat="47.50845" lon="6.7664">
        <ele>387</ele>
        <time>2015-03-15T08:20:12.000Z</time>
      </trkpt>
      <trkpt lat="47.50843" lon="6.76636">
        <ele>387</ele>
        <time>2015-03-15T08:20:13.000Z</time>
      </trkpt>
      <trkpt lat="47.50841" lon="6.76632">
        <ele>387</ele>
        <time>2015-03-15T08:20:14.000Z</time>
      </trkpt>
      <trkpt lat="47.50839" lon="6.76628">
        <ele>387</ele>
        <time>2015-03-15T08:20:15.000Z</time>
      </trkpt>
      <trkpt lat="47.50837" lon="6.76624">
        <ele>387</ele>
        <time>2015-03-15T08:20:16.000Z</time>
      </trkpt>
      <trkpt lat="47.50835" lon="6.7662">
        <ele>387</ele>
        <time>2015-03-15T08:20:17.000Z</time>
      </trkpt>
      <trkpt lat="47.50833" lon="6.76616">
        <ele>390</ele>
        <time>2015-03-15T08:20:18.000Z</time>
      </trkpt>
      <trkpt lat="47.50831" lon="6.76612">
        <ele>390</ele>
        <time>2015-03-15T08:20:19.000Z</time>
      </trkpt>
      <trkpt lat="47.5083" lon="6.76609">
        <ele>390</ele>
        <time>2015-03-15T08:20:20.000Z</time>
      </trkpt>
      <trkpt lat="47.50829" lon="6.76605">
        <ele>390</ele>
        <time>2015-03-15T08:20:21.000Z</time>
      </trkpt>
      <trkpt lat="47.50827" lon="6.76601">
        <ele>390</ele>
        <time>2015-03-15T08:20:22.000Z</time>
      </trkpt>
      <trkpt lat="47.50826" lon="6.76597">
        <ele>390</ele>
        <time>2015-03-15T08:20:23.000Z</time>
      </trkpt>
      <trkpt lat="47.50824" lon="6.76594">
        <ele>390</ele>
        <time>2015-03-15T08:20:24.000Z</time>
      </trkpt>
      <trkpt lat="47.50822" lon="6.76591">
        <ele>390</ele>
        <time>2015-03-15T08:20:25.000Z</time>
      </trkpt>
      <trkpt lat="47.5082" lon="6.76591">
        <ele>390</ele>
        <time>2015-03-15T08:20:26.000Z</time>
      </trkpt>
      <trkpt lat="47.50817" lon="6.76592">
        <ele>390</ele>
        <time>2015-03-15T08:20:27.000Z</time>
      </trkpt>
      <trkpt lat="47.50815" lon="6.76593">
        <ele>390</ele>
        <time>2015-03-15T08:20:28.000Z</time>
      </trkpt>
      <trkpt lat="47.50813" lon="6.76593">
        <ele>390</ele>
        <time>2015-03-15T08:20:29.000Z</time>
      </trkpt>
      <trkpt lat="47.50811" lon="6.76591">
        <ele>390</ele>
        <time>2015-03-15T08:20:30.000Z</time>
      </trkpt>
      <trkpt lat="47.5081" lon="6.76588">
        <ele>390</ele>
        <time>2015-03-15T08:20:31.000Z</time>
      </trkpt>
      <trkpt lat="47.50809" lon="6.76583">
        <ele>390</ele>
        <time>2015-03-15T08:20:32.000Z</time>
      </trkpt>
      <trkpt lat="47.50807" lon="6.7658">
        <ele>391</ele>
        <time>2015-03-15T08:20:33.000Z</time>
      </trkpt>
      <trkpt lat="47.50806" lon="6.76579">
        <ele>391</ele>
        <time>2015-03-15T08:20:34.000Z</time>
      </trkpt>
      <trkpt lat="47.50803" lon="6.76578">
        <ele>391</ele>
        <time>2015-03-15T08:20:35.000Z</time>
      </trkpt>
      <trkpt lat="47.508" lon="6.76579">
        <ele>391</ele>
        <time>2015-03-15T08:20:36.000Z</time>
      </trkpt>
      <trkpt lat="47.50798" lon="6.76581">
        <ele>392</ele>
        <time>2015-03-15T08:20:37.000Z</time>
      </trkpt>
      <trkpt lat="47.50795" lon="6.76582">
        <ele>392</ele>
        <time>2015-03-15T08:20:38.000Z</time>
      </trkpt>
      <trkpt lat="47.50792" lon="6.76583">
        <ele>392</ele>
        <time>2015-03-15T08:20:39.000Z</time>
      </trkpt>
      <trkpt lat="47.5079" lon="6.76584">
        <ele>391</ele>
        <time>2015-03-15T08:20:40.000Z</time>
      </trkpt>
      <trkpt lat="47.50786" lon="6.76585">
        <ele>391</ele>
        <time>2015-03-15T08:20:41.000Z</time>
      </trkpt>
      <trkpt lat="47.50783" lon="6.76586">
        <ele>391</ele>
        <time>2015-03-15T08:20:42.000Z</time>
      </trkpt>
      <trkpt lat="47.50779" lon="6.76587">
        <ele>392</ele>
        <time>2015-03-15T08:20:43.000Z</time>
      </trkpt>
      <trkpt lat="47.50775" lon="6.76588">
        <ele>392</ele>
        <time>2015-03-15T08:20:44.000Z</time>
      </trkpt>
      <trkpt lat="47.50772" lon="6.76589">
        <ele>392</ele>
        <time>2015-03-15T08:20:45.000Z</time>
      </trkpt>
      <trkpt lat="47.50768" lon="6.7659">
        <ele>392</ele>
        <time>2015-03-15T08:20:46.000Z</time>
      </trkpt>
      <trkpt lat="47.50764" lon="6.76591">
        <ele>392</ele>
        <time>2015-03-15T08:20:47.000Z</time>
      </trkpt>
      <trkpt lat="47.50761" lon="6.76592">
        <ele>393</ele>
        <time>2015-03-15T08:20:48.000Z</time>
      </trkpt>
      <trkpt lat="47.50757" lon="6.76592">
        <ele>393</ele>
        <time>2015-03-15T08:20:49.000Z</time>
      </trkpt>
      <trkpt lat="47.50753" lon="6.76592">
        <ele>393</ele>
        <time>2015-03-15T08:20:50.000Z</time>
      </trkpt>
      <trkpt lat="47.5075" lon="6.76592">
        <ele>394</ele>
        <time>2015-03-15T08:20:51.000Z</time>
      </trkpt>
      <trkpt lat="47.50746" lon="6.76592">
        <ele>394</ele>
        <time>2015-03-15T08:20:52.000Z</time>
      </trkpt>
      <trkpt lat="47.50742" lon="6.76593">
        <ele>394</ele>
        <time>2015-03-15T08:20:53.000Z</time>
      </trkpt>
      <trkpt lat="47.50739" lon="6.76593">
        <ele>394</ele>
        <time>2015-03-15T08:20:54.000Z</time>
      </trkpt>
      <trkpt lat="47.50735" lon="6.76592">
        <ele>394</ele>
        <time>2015-03-15T08:20:55.000Z</time>
      </trkpt>
      <trkpt lat="47.50732" lon="6.76591">
        <ele>394</ele>
        <time>2015-03-15T08:20:56.000Z</time>
      </trkpt>
      <trkpt lat="47.50728" lon="6.7659">
        <ele>394</ele>
        <time>2015-03-15T08:20:57.000Z</time>
      </trkpt>
      <trkpt lat="47.50724" lon="6.7659">
        <ele>394</ele>
        <time>2015-03-15T08:20:58.000Z</time>
      </trkpt>
      <trkpt lat="47.50721" lon="6.76589">
        <ele>394</ele>
        <time>2015-03-15T08:20:59.000Z</time>
      </trkpt>
      <trkpt lat="47.50717" lon="6.76588">
        <ele>394</ele>
        <time>2015-03-15T08:21:00.000Z</time>
      </trkpt>
      <trkpt lat="47.50714" lon="6.76587">
        <ele>395</ele>
        <time>2015-03-15T08:21:01.000Z</time>
      </trkpt>
      <trkpt lat="47.5071" lon="6.76587">
        <ele>395</ele>
        <time>2015-03-15T08:21:02.000Z</time>
      </trkpt>
      <trkpt lat="47.50706" lon="6.76586">
        <ele>395</ele>
        <time>2015-03-15T08:21:03.000Z</time>
      </trkpt>
      <trkpt lat="47.50702" lon="6.76586">
        <ele>395</ele>
        <time>2015-03-15T08:21:04.000Z</time>
      </trkpt>
      <trkpt lat="47.50699" lon="6.76586">
        <ele>395</ele>
        <time>2015-03-15T08:21:05.000Z</time>
      </trkpt>
      <trkpt lat="47.50695" lon="6.76586">
        <ele>395</ele>
        <time>2015-03-15T08:21:06.000Z</time>
      </trkpt>
      <trkpt lat="47.50692" lon="6.76586">
        <ele>395</ele>
        <time>2015-03-15T08:21:07.000Z</time>
      </trkpt>
      <trkpt lat="47.50688" lon="6.76586">
        <ele>395</ele>
        <time>2015-03-15T08:21:08.000Z</time>
      </trkpt>
      <trkpt lat="47.50685" lon="6.76585">
        <ele>396</ele>
        <time>2015-03-15T08:21:09.000Z</time>
      </trkpt>
      <trkpt lat="47.50681" lon="6.76585">
        <ele>396</ele>
        <time>2015-03-15T08:21:10.000Z</time>
      </trkpt>
      <trkpt lat="47.50678" lon="6.76585">
        <ele>396</ele>
        <time>2015-03-15T08:21:11.000Z</time>
      </trkpt>
      <trkpt lat="47.50674" lon="6.76586">
        <ele>396</ele>
        <time>2015-03-15T08:21:12.000Z</time>
      </trkpt>
      <trkpt lat="47.50671" lon="6.76586">
        <ele>397</ele>
        <time>2015-03-15T08:21:13.000Z</time>
      </trkpt>
      <trkpt lat="47.50667" lon="6.76587">
        <ele>397</ele>
        <time>2015-03-15T08:21:14.000Z</time>
      </trkpt>
      <trkpt lat="47.50664" lon="6.76587">
        <ele>397</ele>
        <time>2015-03-15T08:21:15.000Z</time>
      </trkpt>
      <trkpt lat="47.50661" lon="6.76587">
        <ele>397</ele>
        <time>2015-03-15T08:21:16.000Z</time>
      </trkpt>
      <trkpt lat="47.50657" lon="6.76587">
        <ele>397</ele>
        <time>2015-03-15T08:21:17.000Z</time>
      </trkpt>
      <trkpt lat="47.50654" lon="6.76587">
        <ele>397</ele>
        <time>2015-03-15T08:21:18.000Z</time>
      </trkpt>
      <trkpt lat="47.50651" lon="6.76589">
        <ele>397</ele>
        <time>2015-03-15T08:21:19.000Z</time>
      </trkpt>
      <trkpt lat="47.50648" lon="6.76591">
        <ele>397</ele>
        <time>2015-03-15T08:21:20.000Z</time>
      </trkpt>
      <trkpt lat="47.50644" lon="6.76593">
        <ele>397</ele>
        <time>2015-03-15T08:21:21.000Z</time>
      </trkpt>
      <trkpt lat="47.50641" lon="6.76595">
        <ele>397</ele>
        <time>2015-03-15T08:21:22.000Z</time>
      </trkpt>
      <trkpt lat="47.50638" lon="6.76597">
        <ele>397</ele>
        <time>2015-03-15T08:21:23.000Z</time>
      </trkpt>
      <trkpt lat="47.50634" lon="6.766">
        <ele>397</ele>
        <time>2015-03-15T08:21:24.000Z</time>
      </trkpt>
      <trkpt lat="47.50631" lon="6.76602">
        <ele>397</ele>
        <time>2015-03-15T08:21:25.000Z</time>
      </trkpt>
      <trkpt lat="47.50628" lon="6.76604">
        <ele>397</ele>
        <time>2015-03-15T08:21:26.000Z</time>
      </trkpt>
      <trkpt lat="47.50625" lon="6.76607">
        <ele>397</ele>
        <time>2015-03-15T08:21:27.000Z</time>
      </trkpt>
      <trkpt lat="47.50623" lon="6.7661">
        <ele>397</ele>
        <time>2015-03-15T08:21:28.000Z</time>
      </trkpt>
      <trkpt lat="47.5062" lon="6.76613">
        <ele>397</ele>
        <time>2015-03-15T08:21:29.000Z</time>
      </trkpt>
      <trkpt lat="47.50617" lon="6.76615">
        <ele>397</ele>
        <time>2015-03-15T08:21:30.000Z</time>
      </trkpt>
      <trkpt lat="47.50614" lon="6.76617">
        <ele>397</ele>
        <time>2015-03-15T08:21:31.000Z</time>
      </trkpt>
      <trkpt lat="47.5061" lon="6.76618">
        <ele>398</ele>
        <time>2015-03-15T08:21:32.000Z</time>
      </trkpt>
      <trkpt lat="47.50607" lon="6.76619">
        <ele>398</ele>
        <time>2015-03-15T08:21:33.000Z</time>
      </trkpt>
      <trkpt lat="47.50604" lon="6.76621">
        <ele>398</ele>
        <time>2015-03-15T08:21:34.000Z</time>
      </trkpt>
      <trkpt lat="47.50601" lon="6.76622">
        <ele>398</ele>
        <time>2015-03-15T08:21:35.000Z</time>
      </trkpt>
      <trkpt lat="47.50598" lon="6.76622">
        <ele>398</ele>
        <time>2015-03-15T08:21:36.000Z</time>
      </trkpt>
      <trkpt lat="47.50595" lon="6.76622">
        <ele>398</ele>
        <time>2015-03-15T08:21:37.000Z</time>
      </trkpt>
      <trkpt lat="47.50592" lon="6.76621">
        <ele>398</ele>
        <time>2015-03-15T08:21:38.000Z</time>
      </trkpt>
      <trkpt lat="47.50589" lon="6.76621">
        <ele>398</ele>
        <time>2015-03-15T08:21:39.000Z</time>
      </trkpt>
      <trkpt lat="47.50586" lon="6.7662">
        <ele>398</ele>
        <time>2015-03-15T08:21:40.000Z</time>
      </trkpt>
      <trkpt lat="47.50583" lon="6.7662">
        <ele>399</ele>
        <time>2015-03-15T08:21:41.000Z</time>
      </trkpt>
      <trkpt lat="47.5058" lon="6.7662">
        <ele>399</ele>
        <time>2015-03-15T08:21:42.000Z</time>
      </trkpt>
      <trkpt lat="47.50576" lon="6.76622">
        <ele>399</ele>
        <time>2015-03-15T08:21:43.000Z</time>
      </trkpt>
      <trkpt lat="47.50573" lon="6.76624">
        <ele>399</ele>
        <time>2015-03-15T08:21:44.000Z</time>
      </trkpt>
      <trkpt lat="47.5057" lon="6.76626">
        <ele>399</ele>
        <time>2015-03-15T08:21:45.000Z</time>
      </trkpt>
      <trkpt lat="47.50567" lon="6.76628">
        <ele>399</ele>
        <time>2015-03-15T08:21:46.000Z</time>
      </trkpt>
      <trkpt lat="47.50564" lon="6.76628">
        <ele>399</ele>
        <time>2015-03-15T08:21:47.000Z</time>
      </trkpt>
      <trkpt lat="47.50561" lon="6.76629">
        <ele>399</ele>
        <time>2015-03-15T08:21:48.000Z</time>
      </trkpt>
      <trkpt lat="47.50557" lon="6.7663">
        <ele>399</ele>
        <time>2015-03-15T08:21:49.000Z</time>
      </trkpt>
      <trkpt lat="47.50554" lon="6.76631">
        <ele>399</ele>
        <time>2015-03-15T08:21:50.000Z</time>
      </trkpt>
      <trkpt lat="47.5055" lon="6.76633">
        <ele>399</ele>
        <time>2015-03-15T08:21:51.000Z</time>
      </trkpt>
      <trkpt lat="47.50547" lon="6.76634">
        <ele>399</ele>
        <time>2015-03-15T08:21:52.000Z</time>
      </trkpt>
      <trkpt lat="47.50543" lon="6.76635">
        <ele>399</ele>
        <time>2015-03-15T08:21:53.000Z</time>
      </trkpt>
      <trkpt lat="47.50539" lon="6.76636">
        <ele>399</ele>
        <time>2015-03-15T08:21:54.000Z</time>
      </trkpt>
      <trkpt lat="47.50535" lon="6.76637">
        <ele>399</ele>
        <time>2015-03-15T08:21:55.000Z</time>
      </trkpt>
      <trkpt lat="47.50532" lon="6.76638">
        <ele>399</ele>
        <time>2015-03-15T08:21:56.000Z</time>
      </trkpt>
      <trkpt lat="47.50527" lon="6.76639">
        <ele>399</ele>
        <time>2015-03-15T08:21:57.000Z</time>
      </trkpt>
      <trkpt lat="47.50522" lon="6.76642">
        <ele>399</ele>
        <time>2015-03-15T08:21:58.000Z</time>
      </trkpt>
      <trkpt lat="47.50518" lon="6.76644">
        <ele>399</ele>
        <time>2015-03-15T08:21:59.000Z</time>
      </trkpt>
      <trkpt lat="47.50513" lon="6.76647">
        <ele>399</ele>
        <time>2015-03-15T08:22:00.000Z</time>
      </trkpt>
      <trkpt lat="47.50509" lon="6.76649">
        <ele>399</ele>
        <time>2015-03-15T08:22:01.000Z</time>
      </trkpt>
      <trkpt lat="47.50504" lon="6.76651">
        <ele>399</ele>
        <time>2015-03-15T08:22:02.000Z</time>
      </trkpt>
      <trkpt lat="47.50499" lon="6.76652">
        <ele>399</ele>
        <time>2015-03-15T08:22:03.000Z</time>
      </trkpt>
      <trkpt lat="47.50495" lon="6.76654">
        <ele>399</ele>
        <time>2015-03-15T08:22:04.000Z</time>
      </trkpt>
      <trkpt lat="47.5049" lon="6.76656">
        <ele>399</ele>
        <time>2015-03-15T08:22:05.000Z</time>
      </trkpt>
      <trkpt lat="47.50485" lon="6.76658">
        <ele>399</ele>
        <time>2015-03-15T08:22:06.000Z</time>
      </trkpt>
      <trkpt lat="47.5048" lon="6.76659">
        <ele>399</ele>
        <time>2015-03-15T08:22:07.000Z</time>
      </trkpt>
      <trkpt lat="47.50474" lon="6.76661">
        <ele>398</ele>
        <time>2015-03-15T08:22:08.000Z</time>
      </trkpt>
      <trkpt lat="47.50469" lon="6.76663">
        <ele>398</ele>
        <time>2015-03-15T08:22:09.000Z</time>
      </trkpt>
      <trkpt lat="47.50464" lon="6.76665">
        <ele>398</ele>
        <time>2015-03-15T08:22:10.000Z</time>
      </trkpt>
      <trkpt lat="47.50458" lon="6.76667">
        <ele>397</ele>
        <time>2015-03-15T08:22:11.000Z</time>
      </trkpt>
      <trkpt lat="47.50453" lon="6.76668">
        <ele>397</ele>
        <time>2015-03-15T08:22:12.000Z</time>
      </trkpt>
      <trkpt lat="47.50449" lon="6.76669">
        <ele>397</ele>
        <time>2015-03-15T08:22:13.000Z</time>
      </trkpt>
      <trkpt lat="47.50444" lon="6.76669">
        <ele>397</ele>
        <time>2015-03-15T08:22:14.000Z</time>
      </trkpt>
      <trkpt lat="47.50439" lon="6.76671">
        <ele>397</ele>
        <time>2015-03-15T08:22:15.000Z</time>
      </trkpt>
      <trkpt lat="47.50435" lon="6.76673">
        <ele>397</ele>
        <time>2015-03-15T08:22:16.000Z</time>
      </trkpt>
      <trkpt lat="47.50431" lon="6.76676">
        <ele>397</ele>
        <time>2015-03-15T08:22:17.000Z</time>
      </trkpt>
      <trkpt lat="47.50426" lon="6.76678">
        <ele>397</ele>
        <time>2015-03-15T08:22:18.000Z</time>
      </trkpt>
      <trkpt lat="47.50421" lon="6.76678">
        <ele>397</ele>
        <time>2015-03-15T08:22:19.000Z</time>
      </trkpt>
      <trkpt lat="47.50416" lon="6.76679">
        <ele>397</ele>
        <time>2015-03-15T08:22:20.000Z</time>
      </trkpt>
      <trkpt lat="47.50411" lon="6.76681">
        <ele>397</ele>
        <time>2015-03-15T08:22:21.000Z</time>
      </trkpt>
      <trkpt lat="47.50406" lon="6.76683">
        <ele>397</ele>
        <time>2015-03-15T08:22:22.000Z</time>
      </trkpt>
      <trkpt lat="47.50401" lon="6.76686">
        <ele>397</ele>
        <time>2015-03-15T08:22:23.000Z</time>
      </trkpt>
      <trkpt lat="47.50396" lon="6.76689">
        <ele>397</ele>
        <time>2015-03-15T08:22:24.000Z</time>
      </trkpt>
      <trkpt lat="47.50391" lon="6.7669">
        <ele>397</ele>
        <time>2015-03-15T08:22:25.000Z</time>
      </trkpt>
      <trkpt lat="47.50388" lon="6.76695">
        <ele>397</ele>
        <time>2015-03-15T08:22:26.000Z</time>
      </trkpt>
      <trkpt lat="47.50384" lon="6.76698">
        <ele>397</ele>
        <time>2015-03-15T08:22:27.000Z</time>
      </trkpt>
      <trkpt lat="47.5038" lon="6.767">
        <ele>397</ele>
        <time>2015-03-15T08:22:28.000Z</time>
      </trkpt>
      <trkpt lat="47.50375" lon="6.767">
        <ele>397</ele>
        <time>2015-03-15T08:22:29.000Z</time>
      </trkpt>
      <trkpt lat="47.50371" lon="6.76703">
        <ele>397</ele>
        <time>2015-03-15T08:22:30.000Z</time>
      </trkpt>
      <trkpt lat="47.50367" lon="6.76704">
        <ele>397</ele>
        <time>2015-03-15T08:22:31.000Z</time>
      </trkpt>
      <trkpt lat="47.50362" lon="6.76706">
        <ele>397</ele>
        <time>2015-03-15T08:22:32.000Z</time>
      </trkpt>
      <trkpt lat="47.50358" lon="6.76709">
        <ele>398</ele>
        <time>2015-03-15T08:22:33.000Z</time>
      </trkpt>
      <trkpt lat="47.50353" lon="6.76711">
        <ele>398</ele>
        <time>2015-03-15T08:22:34.000Z</time>
      </trkpt>
      <trkpt lat="47.50349" lon="6.76712">
        <ele>398</ele>
        <time>2015-03-15T08:22:35.000Z</time>
      </trkpt>
      <trkpt lat="47.50345" lon="6.76715">
        <ele>398</ele>
        <time>2015-03-15T08:22:36.000Z</time>
      </trkpt>
      <trkpt lat="47.50341" lon="6.76719">
        <ele>398</ele>
        <time>2015-03-15T08:22:37.000Z</time>
      </trkpt>
      <trkpt lat="47.50336" lon="6.7672">
        <ele>398</ele>
        <time>2015-03-15T08:22:38.000Z</time>
      </trkpt>
      <trkpt lat="47.50332" lon="6.76721">
        <ele>398</ele>
        <time>2015-03-15T08:22:39.000Z</time>
      </trkpt>
      <trkpt lat="47.50328" lon="6.76721">
        <ele>398</ele>
        <time>2015-03-15T08:22:40.000Z</time>
      </trkpt>
      <trkpt lat="47.50322" lon="6.76725">
        <ele>398</ele>
        <time>2015-03-15T08:22:41.000Z</time>
      </trkpt>
      <trkpt lat="47.50318" lon="6.76728">
        <ele>398</ele>
        <time>2015-03-15T08:22:42.000Z</time>
      </trkpt>
      <trkpt lat="47.50314" lon="6.76731">
        <ele>398</ele>
        <time>2015-03-15T08:22:43.000Z</time>
      </trkpt>
      <trkpt lat="47.50309" lon="6.76732">
        <ele>398</ele>
        <time>2015-03-15T08:22:44.000Z</time>
      </trkpt>
      <trkpt lat="47.50304" lon="6.76732">
        <ele>398</ele>
        <time>2015-03-15T08:22:45.000Z</time>
      </trkpt>
      <trkpt lat="47.503" lon="6.76734">
        <ele>399</ele>
        <time>2015-03-15T08:22:46.000Z</time>
      </trkpt>
      <trkpt lat="47.50296" lon="6.76734">
        <ele>399</ele>
        <time>2015-03-15T08:22:47.000Z</time>
      </trkpt>
      <trkpt lat="47.50292" lon="6.76735">
        <ele>399</ele>
        <time>2015-03-15T08:22:48.000Z</time>
      </trkpt>
      <trkpt lat="47.50288" lon="6.76735">
        <ele>399</ele>
        <time>2015-03-15T08:22:49.000Z</time>
      </trkpt>
      <trkpt lat="47.50284" lon="6.76735">
        <ele>399</ele>
        <time>2015-03-15T08:22:50.000Z</time>
      </trkpt>
      <trkpt lat="47.50279" lon="6.76736">
        <ele>399</ele>
        <time>2015-03-15T08:22:51.000Z</time>
      </trkpt>
      <trkpt lat="47.50275" lon="6.76737">
        <ele>399</ele>
        <time>2015-03-15T08:22:52.000Z</time>
      </trkpt>
      <trkpt lat="47.50272" lon="6.76738">
        <ele>399</ele>
        <time>2015-03-15T08:22:53.000Z</time>
      </trkpt>
      <trkpt lat="47.50269" lon="6.7674">
        <ele>399</ele>
        <time>2015-03-15T08:22:54.000Z</time>
      </trkpt>
      <trkpt lat="47.50265" lon="6.76742">
        <ele>399</ele>
        <time>2015-03-15T08:22:55.000Z</time>
      </trkpt>
      <trkpt lat="47.50261" lon="6.76743">
        <ele>399</ele>
        <time>2015-03-15T08:22:56.000Z</time>
      </trkpt>
      <trkpt lat="47.50258" lon="6.76743">
        <ele>400</ele>
        <time>2015-03-15T08:22:57.000Z</time>
      </trkpt>
      <trkpt lat="47.50254" lon="6.76744">
        <ele>400</ele>
        <time>2015-03-15T08:22:58.000Z</time>
      </trkpt>
      <trkpt lat="47.5025" lon="6.76744">
        <ele>400</ele>
        <time>2015-03-15T08:22:59.000Z</time>
      </trkpt>
      <trkpt lat="47.50246" lon="6.76743">
        <ele>401</ele>
        <time>2015-03-15T08:23:00.000Z</time>
      </trkpt>
      <trkpt lat="47.50243" lon="6.76742">
        <ele>401</ele>
        <time>2015-03-15T08:23:01.000Z</time>
      </trkpt>
      <trkpt lat="47.5024" lon="6.76738">
        <ele>401</ele>
        <time>2015-03-15T08:23:02.000Z</time>
      </trkpt>
      <trkpt lat="47.50237" lon="6.76734">
        <ele>401</ele>
        <time>2015-03-15T08:23:03.000Z</time>
      </trkpt>
      <trkpt lat="47.50235" lon="6.7673">
        <ele>401</ele>
        <time>2015-03-15T08:23:04.000Z</time>
      </trkpt>
      <trkpt lat="47.50232" lon="6.76726">
        <ele>402</ele>
        <time>2015-03-15T08:23:04.999Z</time>
      </trkpt>
      <trkpt lat="47.50232" lon="6.76721">
        <ele>402</ele>
        <time>2015-03-15T08:23:06.000Z</time>
      </trkpt>
      <trkpt lat="47.5023" lon="6.76717">
        <ele>402</ele>
        <time>2015-03-15T08:23:07.000Z</time>
      </trkpt>
      <trkpt lat="47.50228" lon="6.76713">
        <ele>402</ele>
        <time>2015-03-15T08:23:08.000Z</time>
      </trkpt>
      <trkpt lat="47.50227" lon="6.76708">
        <ele>402</ele>
        <time>2015-03-15T08:23:09.000Z</time>
      </trkpt>
      <trkpt lat="47.50225" lon="6.76704">
        <ele>402</ele>
        <time>2015-03-15T08:23:09.999Z</time>
      </trkpt>
      <trkpt lat="47.50223" lon="6.76699">
        <ele>402</ele>
        <time>2015-03-15T08:23:11.000Z</time>
      </trkpt>
      <trkpt lat="47.50221" lon="6.76694">
        <ele>402</ele>
        <time>2015-03-15T08:23:12.000Z</time>
      </trkpt>
      <trkpt lat="47.50219" lon="6.76689">
        <ele>402</ele>
        <time>2015-03-15T08:23:13.000Z</time>
      </trkpt>
      <trkpt lat="47.50218" lon="6.76683">
        <ele>402</ele>
        <time>2015-03-15T08:23:14.000Z</time>
      </trkpt>
      <trkpt lat="47.50216" lon="6.76678">
        <ele>402</ele>
        <time>2015-03-15T08:23:15.000Z</time>
      </trkpt>
      <trkpt lat="47.50214" lon="6.7667">
        <ele>402</ele>
        <time>2015-03-15T08:23:16.000Z</time>
      </trkpt>
      <trkpt lat="47.50213" lon="6.76665">
        <ele>402</ele>
        <time>2015-03-15T08:23:17.000Z</time>
      </trkpt>
      <trkpt lat="47.50211" lon="6.7666">
        <ele>402</ele>
        <time>2015-03-15T08:23:17.998Z</time>
      </trkpt>
      <trkpt lat="47.50209" lon="6.76653">
        <ele>402</ele>
        <time>2015-03-15T08:23:19.000Z</time>
      </trkpt>
      <trkpt lat="47.50208" lon="6.76647">
        <ele>402</ele>
        <time>2015-03-15T08:23:20.000Z</time>
      </trkpt>
      <trkpt lat="47.50206" lon="6.76641">
        <ele>402</ele>
        <time>2015-03-15T08:23:21.000Z</time>
      </trkpt>
      <trkpt lat="47.50204" lon="6.76634">
        <ele>402</ele>
        <time>2015-03-15T08:23:22.000Z</time>
      </trkpt>
      <trkpt lat="47.50203" lon="6.76628">
        <ele>402</ele>
        <time>2015-03-15T08:23:22.999Z</time>
      </trkpt>
      <trkpt lat="47.50202" lon="6.76623">
        <ele>402</ele>
        <time>2015-03-15T08:23:24.000Z</time>
      </trkpt>
      <trkpt lat="47.502" lon="6.76618">
        <ele>402</ele>
        <time>2015-03-15T08:23:25.000Z</time>
      </trkpt>
      <trkpt lat="47.502" lon="6.76612">
        <ele>403</ele>
        <time>2015-03-15T08:23:26.000Z</time>
      </trkpt>
      <trkpt lat="47.50199" lon="6.76606">
        <ele>403</ele>
        <time>2015-03-15T08:23:27.000Z</time>
      </trkpt>
      <trkpt lat="47.50198" lon="6.76601">
        <ele>403</ele>
        <time>2015-03-15T08:23:28.000Z</time>
      </trkpt>
      <trkpt lat="47.50197" lon="6.76596">
        <ele>403</ele>
        <time>2015-03-15T08:23:29.001Z</time>
      </trkpt>
      <trkpt lat="47.50197" lon="6.76592">
        <ele>403</ele>
        <time>2015-03-15T08:23:30.000Z</time>
      </trkpt>
      <trkpt lat="47.50196" lon="6.76587">
        <ele>403</ele>
        <time>2015-03-15T08:23:31.000Z</time>
      </trkpt>
      <trkpt lat="47.50195" lon="6.76582">
        <ele>403</ele>
        <time>2015-03-15T08:23:32.000Z</time>
      </trkpt>
      <trkpt lat="47.50195" lon="6.76578">
        <ele>403</ele>
        <time>2015-03-15T08:23:33.000Z</time>
      </trkpt>
      <trkpt lat="47.50195" lon="6.76574">
        <ele>403</ele>
        <time>2015-03-15T08:23:34.000Z</time>
      </trkpt>
      <trkpt lat="47.50205" lon="6.76579">
        <ele>402</ele>
        <time>2015-03-15T08:23:35.000Z</time>
      </trkpt>
      <trkpt lat="47.50211" lon="6.76577">
        <ele>401</ele>
        <time>2015-03-15T08:23:36.000Z</time>
      </trkpt>
      <trkpt lat="47.50216" lon="6.76577">
        <ele>401</ele>
        <time>2015-03-15T08:23:37.000Z</time>
      </trkpt>
      <trkpt lat="47.50223" lon="6.76577">
        <ele>400</ele>
        <time>2015-03-15T08:23:38.000Z</time>
      </trkpt>
      <trkpt lat="47.50229" lon="6.76576">
        <ele>400</ele>
        <time>2015-03-15T08:23:39.000Z</time>
      </trkpt>
      <trkpt lat="47.50231" lon="6.76563">
        <ele>400</ele>
        <time>2015-03-15T08:23:40.000Z</time>
      </trkpt>
      <trkpt lat="47.50231" lon="6.76554">
        <ele>400</ele>
        <time>2015-03-15T08:23:41.000Z</time>
      </trkpt>
      <trkpt lat="47.5023" lon="6.76546">
        <ele>399</ele>
        <time>2015-03-15T08:23:42.000Z</time>
      </trkpt>
      <trkpt lat="47.50228" lon="6.76538">
        <ele>399</ele>
        <time>2015-03-15T08:23:43.000Z</time>
      </trkpt>
      <trkpt lat="47.50226" lon="6.76528">
        <ele>399</ele>
        <time>2015-03-15T08:23:44.000Z</time>
      </trkpt>
      <trkpt lat="47.50222" lon="6.76518">
        <ele>399</ele>
        <time>2015-03-15T08:23:45.000Z</time>
      </trkpt>
      <trkpt lat="47.50216" lon="6.76507">
        <ele>399</ele>
        <time>2015-03-15T08:23:46.000Z</time>
      </trkpt>
      <trkpt lat="47.50211" lon="6.76495">
        <ele>396</ele>
        <time>2015-03-15T08:23:47.000Z</time>
      </trkpt>
      <trkpt lat="47.50208" lon="6.76485">
        <ele>396</ele>
        <time>2015-03-15T08:23:48.000Z</time>
      </trkpt>
      <trkpt lat="47.50204" lon="6.76472">
        <ele>396</ele>
        <time>2015-03-15T08:23:49.000Z</time>
      </trkpt>
      <trkpt lat="47.50201" lon="6.7646">
        <ele>396</ele>
        <time>2015-03-15T08:23:50.000Z</time>
      </trkpt>
      <trkpt lat="47.50199" lon="6.76447">
        <ele>396</ele>
        <time>2015-03-15T08:23:51.000Z</time>
      </trkpt>
      <trkpt lat="47.50195" lon="6.76435">
        <ele>396</ele>
        <time>2015-03-15T08:23:52.000Z</time>
      </trkpt>
      <trkpt lat="47.50192" lon="6.76425">
        <ele>396</ele>
        <time>2015-03-15T08:23:53.000Z</time>
      </trkpt>
      <trkpt lat="47.5019" lon="6.76414">
        <ele>393</ele>
        <time>2015-03-15T08:23:54.000Z</time>
      </trkpt>
      <trkpt lat="47.50184" lon="6.76402">
        <ele>393</ele>
        <time>2015-03-15T08:23:55.000Z</time>
      </trkpt>
      <trkpt lat="47.50182" lon="6.76391">
        <ele>392</ele>
        <time>2015-03-15T08:23:56.000Z</time>
      </trkpt>
      <trkpt lat="47.5018" lon="6.76381">
        <ele>391</ele>
        <time>2015-03-15T08:23:57.000Z</time>
      </trkpt>
      <trkpt lat="47.50175" lon="6.7637">
        <ele>391</ele>
        <time>2015-03-15T08:23:58.000Z</time>
      </trkpt>
      <trkpt lat="47.50171" lon="6.76361">
        <ele>391</ele>
        <time>2015-03-15T08:23:59.000Z</time>
      </trkpt>
      <trkpt lat="47.50168" lon="6.76349">
        <ele>390</ele>
        <time>2015-03-15T08:24:00.000Z</time>
      </trkpt>
      <trkpt lat="47.50164" lon="6.76339">
        <ele>394</ele>
        <time>2015-03-15T08:24:01.000Z</time>
      </trkpt>
      <trkpt lat="47.5016" lon="6.76329">
        <ele>393</ele>
        <time>2015-03-15T08:24:02.000Z</time>
      </trkpt>
      <trkpt lat="47.50157" lon="6.76317">
        <ele>394</ele>
        <time>2015-03-15T08:24:03.000Z</time>
      </trkpt>
      <trkpt lat="47.50154" lon="6.76306">
        <ele>395</ele>
        <time>2015-03-15T08:24:04.000Z</time>
      </trkpt>
      <trkpt lat="47.5015" lon="6.76295">
        <ele>395</ele>
        <time>2015-03-15T08:24:05.000Z</time>
      </trkpt>
      <trkpt lat="47.50148" lon="6.76284">
        <ele>395</ele>
        <time>2015-03-15T08:24:06.000Z</time>
      </trkpt>
      <trkpt lat="47.50147" lon="6.76274">
        <ele>394</ele>
        <time>2015-03-15T08:24:07.000Z</time>
      </trkpt>
      <trkpt lat="47.50143" lon="6.76263">
        <ele>394</ele>
        <time>2015-03-15T08:24:08.000Z</time>
      </trkpt>
      <trkpt lat="47.50143" lon="6.76251">
        <ele>393</ele>
        <time>2015-03-15T08:24:09.000Z</time>
      </trkpt>
      <trkpt lat="47.50141" lon="6.7624">
        <ele>390</ele>
        <time>2015-03-15T08:24:10.000Z</time>
      </trkpt>
      <trkpt lat="47.50139" lon="6.76227">
        <ele>390</ele>
        <time>2015-03-15T08:24:11.000Z</time>
      </trkpt>
      <trkpt lat="47.50137" lon="6.76215">
        <ele>390</ele>
        <time>2015-03-15T08:24:12.000Z</time>
      </trkpt>
      <trkpt lat="47.50136" lon="6.76201">
        <ele>389</ele>
        <time>2015-03-15T08:24:13.000Z</time>
      </trkpt>
      <trkpt lat="47.50134" lon="6.76189">
        <ele>388</ele>
        <time>2015-03-15T08:24:14.000Z</time>
      </trkpt>
      <trkpt lat="47.50132" lon="6.76177">
        <ele>388</ele>
        <time>2015-03-15T08:24:15.000Z</time>
      </trkpt>
      <trkpt lat="47.5013" lon="6.76164">
        <ele>384</ele>
        <time>2015-03-15T08:24:16.000Z</time>
      </trkpt>
      <trkpt lat="47.50128" lon="6.76152">
        <ele>384</ele>
        <time>2015-03-15T08:24:17.000Z</time>
      </trkpt>
      <trkpt lat="47.50127" lon="6.76141">
        <ele>384</ele>
        <time>2015-03-15T08:24:18.000Z</time>
      </trkpt>
      <trkpt lat="47.50124" lon="6.7613">
        <ele>384</ele>
        <time>2015-03-15T08:24:19.000Z</time>
      </trkpt>
      <trkpt lat="47.50122" lon="6.76119">
        <ele>384</ele>
        <time>2015-03-15T08:24:20.000Z</time>
      </trkpt>
      <trkpt lat="47.50119" lon="6.76106">
        <ele>384</ele>
        <time>2015-03-15T08:24:21.000Z</time>
      </trkpt>
      <trkpt lat="47.50116" lon="6.76094">
        <ele>384</ele>
        <time>2015-03-15T08:24:22.000Z</time>
      </trkpt>
      <trkpt lat="47.50117" lon="6.7608">
        <ele>381</ele>
        <time>2015-03-15T08:24:23.000Z</time>
      </trkpt>
      <trkpt lat="47.50115" lon="6.76066">
        <ele>380</ele>
        <time>2015-03-15T08:24:24.000Z</time>
      </trkpt>
      <trkpt lat="47.50112" lon="6.76054">
        <ele>380</ele>
        <time>2015-03-15T08:24:25.000Z</time>
      </trkpt>
      <trkpt lat="47.5011" lon="6.76038">
        <ele>379</ele>
        <time>2015-03-15T08:24:26.000Z</time>
      </trkpt>
      <trkpt lat="47.50108" lon="6.76025">
        <ele>379</ele>
        <time>2015-03-15T08:24:27.000Z</time>
      </trkpt>
      <trkpt lat="47.50107" lon="6.76011">
        <ele>379</ele>
        <time>2015-03-15T08:24:28.000Z</time>
      </trkpt>
      <trkpt lat="47.50103" lon="6.76">
        <ele>379</ele>
        <time>2015-03-15T08:24:29.000Z</time>
      </trkpt>
      <trkpt lat="47.50099" lon="6.7599">
        <ele>376</ele>
        <time>2015-03-15T08:24:30.000Z</time>
      </trkpt>
      <trkpt lat="47.50094" lon="6.75981">
        <ele>375</ele>
        <time>2015-03-15T08:24:31.000Z</time>
      </trkpt>
      <trkpt lat="47.50089" lon="6.75971">
        <ele>375</ele>
        <time>2015-03-15T08:24:32.000Z</time>
      </trkpt>
      <trkpt lat="47.50084" lon="6.75961">
        <ele>374</ele>
        <time>2015-03-15T08:24:33.000Z</time>
      </trkpt>
      <trkpt lat="47.50081" lon="6.75952">
        <ele>378</ele>
        <time>2015-03-15T08:24:34.000Z</time>
      </trkpt>
      <trkpt lat="47.50077" lon="6.75943">
        <ele>377</ele>
        <time>2015-03-15T08:24:35.000Z</time>
      </trkpt>
      <trkpt lat="47.50072" lon="6.75935">
        <ele>377</ele>
        <time>2015-03-15T08:24:36.000Z</time>
      </trkpt>
      <trkpt lat="47.50065" lon="6.75926">
        <ele>377</ele>
        <time>2015-03-15T08:24:37.000Z</time>
      </trkpt>
      <trkpt lat="47.50058" lon="6.75917">
        <ele>377</ele>
        <time>2015-03-15T08:24:38.000Z</time>
      </trkpt>
      <trkpt lat="47.50055" lon="6.75907">
        <ele>376</ele>
        <time>2015-03-15T08:24:39.000Z</time>
      </trkpt>
      <trkpt lat="47.5005" lon="6.75899">
        <ele>376</ele>
        <time>2015-03-15T08:24:40.000Z</time>
      </trkpt>
      <trkpt lat="47.50046" lon="6.7589">
        <ele>376</ele>
        <time>2015-03-15T08:24:41.000Z</time>
      </trkpt>
      <trkpt lat="47.5004" lon="6.7588">
        <ele>376</ele>
        <time>2015-03-15T08:24:42.000Z</time>
      </trkpt>
      <trkpt lat="47.50032" lon="6.7587">
        <ele>376</ele>
        <time>2015-03-15T08:24:43.000Z</time>
      </trkpt>
      <trkpt lat="47.50027" lon="6.75859">
        <ele>377</ele>
        <time>2015-03-15T08:24:44.000Z</time>
      </trkpt>
      <trkpt lat="47.50023" lon="6.75848">
        <ele>377</ele>
        <time>2015-03-15T08:24:45.000Z</time>
      </trkpt>
      <trkpt lat="47.50017" lon="6.75838">
        <ele>377</ele>
        <time>2015-03-15T08:24:46.000Z</time>
      </trkpt>
      <trkpt lat="47.50013" lon="6.75827">
        <ele>377</ele>
        <time>2015-03-15T08:24:47.000Z</time>
      </trkpt>
      <trkpt lat="47.5001" lon="6.75818">
        <ele>376</ele>
        <time>2015-03-15T08:24:48.000Z</time>
      </trkpt>
      <trkpt lat="47.50004" lon="6.75809">
        <ele>376</ele>
        <time>2015-03-15T08:24:49.000Z</time>
      </trkpt>
      <trkpt lat="47.49999" lon="6.75799">
        <ele>376</ele>
        <time>2015-03-15T08:24:50.000Z</time>
      </trkpt>
      <trkpt lat="47.49993" lon="6.75789">
        <ele>375</ele>
        <time>2015-03-15T08:24:51.000Z</time>
      </trkpt>
      <trkpt lat="47.49988" lon="6.75779">
        <ele>375</ele>
        <time>2015-03-15T08:24:52.000Z</time>
      </trkpt>
      <trkpt lat="47.49979" lon="6.75771">
        <ele>375</ele>
        <time>2015-03-15T08:24:53.000Z</time>
      </trkpt>
      <trkpt lat="47.49973" lon="6.75762">
        <ele>375</ele>
        <time>2015-03-15T08:24:54.000Z</time>
      </trkpt>
      <trkpt lat="47.49968" lon="6.75755">
        <ele>374</ele>
        <time>2015-03-15T08:24:55.000Z</time>
      </trkpt>
      <trkpt lat="47.49963" lon="6.75747">
        <ele>372</ele>
        <time>2015-03-15T08:24:56.000Z</time>
      </trkpt>
      <trkpt lat="47.49958" lon="6.75739">
        <ele>371</ele>
        <time>2015-03-15T08:24:57.000Z</time>
      </trkpt>
      <trkpt lat="47.49952" lon="6.75733">
        <ele>371</ele>
        <time>2015-03-15T08:24:58.000Z</time>
      </trkpt>
      <trkpt lat="47.49947" lon="6.75727">
        <ele>370</ele>
        <time>2015-03-15T08:24:59.000Z</time>
      </trkpt>
      <trkpt lat="47.49939" lon="6.75719">
        <ele>370</ele>
        <time>2015-03-15T08:25:00.000Z</time>
      </trkpt>
      <trkpt lat="47.49932" lon="6.75713">
        <ele>370</ele>
        <time>2015-03-15T08:25:01.000Z</time>
      </trkpt>
      <trkpt lat="47.49925" lon="6.75711">
        <ele>370</ele>
        <time>2015-03-15T08:25:02.000Z</time>
      </trkpt>
      <trkpt lat="47.49914" lon="6.75709">
        <ele>365</ele>
        <time>2015-03-15T08:25:03.000Z</time>
      </trkpt>
      <trkpt lat="47.49905" lon="6.75709">
        <ele>364</ele>
        <time>2015-03-15T08:25:04.000Z</time>
      </trkpt>
      <trkpt lat="47.49896" lon="6.7571">
        <ele>364</ele>
        <time>2015-03-15T08:25:05.000Z</time>
      </trkpt>
      <trkpt lat="47.49887" lon="6.75711">
        <ele>363</ele>
        <time>2015-03-15T08:25:06.000Z</time>
      </trkpt>
      <trkpt lat="47.4988" lon="6.75712">
        <ele>363</ele>
        <time>2015-03-15T08:25:07.000Z</time>
      </trkpt>
      <trkpt lat="47.49869" lon="6.75715">
        <ele>362</ele>
        <time>2015-03-15T08:25:08.000Z</time>
      </trkpt>
      <trkpt lat="47.49856" lon="6.75719">
        <ele>361</ele>
        <time>2015-03-15T08:25:09.000Z</time>
      </trkpt>
      <trkpt lat="47.49847" lon="6.75721">
        <ele>361</ele>
        <time>2015-03-15T08:25:10.000Z</time>
      </trkpt>
      <trkpt lat="47.49836" lon="6.75722">
        <ele>361</ele>
        <time>2015-03-15T08:25:11.000Z</time>
      </trkpt>
      <trkpt lat="47.49825" lon="6.75723">
        <ele>354</ele>
        <time>2015-03-15T08:25:12.000Z</time>
      </trkpt>
      <trkpt lat="47.49816" lon="6.75725">
        <ele>353</ele>
        <time>2015-03-15T08:25:13.000Z</time>
      </trkpt>
      <trkpt lat="47.49805" lon="6.75726">
        <ele>352</ele>
        <time>2015-03-15T08:25:14.000Z</time>
      </trkpt>
      <trkpt lat="47.49795" lon="6.75726">
        <ele>352</ele>
        <time>2015-03-15T08:25:15.000Z</time>
      </trkpt>
      <trkpt lat="47.49784" lon="6.7573">
        <ele>351</ele>
        <time>2015-03-15T08:25:16.000Z</time>
      </trkpt>
      <trkpt lat="47.49774" lon="6.75734">
        <ele>351</ele>
        <time>2015-03-15T08:25:17.000Z</time>
      </trkpt>
      <trkpt lat="47.49763" lon="6.75737">
        <ele>351</ele>
        <time>2015-03-15T08:25:18.000Z</time>
      </trkpt>
      <trkpt lat="47.49753" lon="6.75742">
        <ele>351</ele>
        <time>2015-03-15T08:25:19.000Z</time>
      </trkpt>
      <trkpt lat="47.49744" lon="6.75746">
        <ele>348</ele>
        <time>2015-03-15T08:25:20.000Z</time>
      </trkpt>
      <trkpt lat="47.49735" lon="6.75751">
        <ele>352</ele>
        <time>2015-03-15T08:25:21.000Z</time>
      </trkpt>
      <trkpt lat="47.49725" lon="6.75754">
        <ele>353</ele>
        <time>2015-03-15T08:25:22.000Z</time>
      </trkpt>
      <trkpt lat="47.49716" lon="6.75757">
        <ele>353</ele>
        <time>2015-03-15T08:25:23.000Z</time>
      </trkpt>
      <trkpt lat="47.49707" lon="6.7576">
        <ele>352</ele>
        <time>2015-03-15T08:25:24.000Z</time>
      </trkpt>
      <trkpt lat="47.49699" lon="6.75764">
        <ele>352</ele>
        <time>2015-03-15T08:25:25.000Z</time>
      </trkpt>
      <trkpt lat="47.49691" lon="6.75769">
        <ele>352</ele>
        <time>2015-03-15T08:25:26.000Z</time>
      </trkpt>
      <trkpt lat="47.49682" lon="6.75769">
        <ele>351</ele>
        <time>2015-03-15T08:25:27.000Z</time>
      </trkpt>
      <trkpt lat="47.49674" lon="6.75772">
        <ele>351</ele>
        <time>2015-03-15T08:25:28.000Z</time>
      </trkpt>
      <trkpt lat="47.49667" lon="6.75773">
        <ele>350</ele>
        <time>2015-03-15T08:25:29.000Z</time>
      </trkpt>
      <trkpt lat="47.49661" lon="6.75773">
        <ele>346</ele>
        <time>2015-03-15T08:25:30.000Z</time>
      </trkpt>
      <trkpt lat="47.49654" lon="6.75772">
        <ele>346</ele>
        <time>2015-03-15T08:25:31.000Z</time>
      </trkpt>
      <trkpt lat="47.49646" lon="6.7577">
        <ele>345</ele>
        <time>2015-03-15T08:25:32.000Z</time>
      </trkpt>
      <trkpt lat="47.49639" lon="6.75768">
        <ele>345</ele>
        <time>2015-03-15T08:25:33.000Z</time>
      </trkpt>
      <trkpt lat="47.49632" lon="6.75768">
        <ele>345</ele>
        <time>2015-03-15T08:25:34.000Z</time>
      </trkpt>
      <trkpt lat="47.49624" lon="6.75766">
        <ele>344</ele>
        <time>2015-03-15T08:25:35.000Z</time>
      </trkpt>
      <trkpt lat="47.49617" lon="6.75767">
        <ele>344</ele>
        <time>2015-03-15T08:25:36.000Z</time>
      </trkpt>
      <trkpt lat="47.4961" lon="6.75768">
        <ele>343</ele>
        <time>2015-03-15T08:25:37.000Z</time>
      </trkpt>
      <trkpt lat="47.49604" lon="6.75768">
        <ele>342</ele>
        <time>2015-03-15T08:25:38.000Z</time>
      </trkpt>
      <trkpt lat="47.496" lon="6.75766">
        <ele>341</ele>
        <time>2015-03-15T08:25:39.000Z</time>
      </trkpt>
      <trkpt lat="47.49593" lon="6.75768">
        <ele>341</ele>
        <time>2015-03-15T08:25:40.000Z</time>
      </trkpt>
      <trkpt lat="47.49587" lon="6.75766">
        <ele>340</ele>
        <time>2015-03-15T08:25:41.000Z</time>
      </trkpt>
      <trkpt lat="47.49582" lon="6.75765">
        <ele>335</ele>
        <time>2015-03-15T08:25:42.000Z</time>
      </trkpt>
      <trkpt lat="47.49576" lon="6.75759">
        <ele>335</ele>
        <time>2015-03-15T08:25:43.000Z</time>
      </trkpt>
      <trkpt lat="47.49571" lon="6.75757">
        <ele>335</ele>
        <time>2015-03-15T08:25:44.000Z</time>
      </trkpt>
      <trkpt lat="47.49567" lon="6.75751">
        <ele>335</ele>
        <time>2015-03-15T08:25:45.000Z</time>
      </trkpt>
      <trkpt lat="47.49567" lon="6.75746">
        <ele>329</ele>
        <time>2015-03-15T08:25:49.000Z</time>
      </trkpt>
      <trkpt lat="47.49571" lon="6.75745">
        <ele>330</ele>
        <time>2015-03-15T08:25:50.000Z</time>
      </trkpt>
      <trkpt lat="47.49573" lon="6.75742">
        <ele>330</ele>
        <time>2015-03-15T08:25:51.000Z</time>
      </trkpt>
      <trkpt lat="47.49578" lon="6.7574">
        <ele>330</ele>
        <time>2015-03-15T08:25:52.000Z</time>
      </trkpt>
      <trkpt lat="47.49582" lon="6.75736">
        <ele>330</ele>
        <time>2015-03-15T08:25:53.000Z</time>
      </trkpt>
      <trkpt lat="47.49586" lon="6.75728">
        <ele>332</ele>
        <time>2015-03-15T08:25:54.000Z</time>
      </trkpt>
      <trkpt lat="47.49591" lon="6.75721">
        <ele>332</ele>
        <time>2015-03-15T08:25:55.000Z</time>
      </trkpt>
      <trkpt lat="47.49594" lon="6.75711">
        <ele>331</ele>
        <time>2015-03-15T08:25:56.000Z</time>
      </trkpt>
      <trkpt lat="47.49595" lon="6.75699">
        <ele>329</ele>
        <time>2015-03-15T08:25:57.000Z</time>
      </trkpt>
      <trkpt lat="47.49596" lon="6.7569">
        <ele>328</ele>
        <time>2015-03-15T08:25:58.000Z</time>
      </trkpt>
      <trkpt lat="47.4959" lon="6.75682">
        <ele>326</ele>
        <time>2015-03-15T08:25:59.000Z</time>
      </trkpt>
      <trkpt lat="47.49585" lon="6.75675">
        <ele>324</ele>
        <time>2015-03-15T08:26:00.000Z</time>
      </trkpt>
      <trkpt lat="47.49579" lon="6.75671">
        <ele>322</ele>
        <time>2015-03-15T08:26:01.000Z</time>
      </trkpt>
      <trkpt lat="47.49572" lon="6.7567">
        <ele>323</ele>
        <time>2015-03-15T08:26:02.000Z</time>
      </trkpt>
      <trkpt lat="47.49566" lon="6.75678">
        <ele>323</ele>
        <time>2015-03-15T08:26:03.001Z</time>
      </trkpt>
      <trkpt lat="47.49562" lon="6.75685">
        <ele>324</ele>
        <time>2015-03-15T08:26:04.000Z</time>
      </trkpt>
      <trkpt lat="47.49557" lon="6.75692">
        <ele>324</ele>
        <time>2015-03-15T08:26:05.000Z</time>
      </trkpt>
      <trkpt lat="47.49552" lon="6.75699">
        <ele>325</ele>
        <time>2015-03-15T08:26:06.000Z</time>
      </trkpt>
      <trkpt lat="47.49547" lon="6.75704">
        <ele>325</ele>
        <time>2015-03-15T08:26:07.000Z</time>
      </trkpt>
      <trkpt lat="47.49542" lon="6.75709">
        <ele>325</ele>
        <time>2015-03-15T08:26:08.000Z</time>
      </trkpt>
      <trkpt lat="47.49536" lon="6.75714">
        <ele>325</ele>
        <time>2015-03-15T08:26:09.000Z</time>
      </trkpt>
      <trkpt lat="47.49532" lon="6.7572">
        <ele>325</ele>
        <time>2015-03-15T08:26:10.000Z</time>
      </trkpt>
      <trkpt lat="47.49528" lon="6.75726">
        <ele>325</ele>
        <time>2015-03-15T08:26:11.000Z</time>
      </trkpt>
      <trkpt lat="47.49523" lon="6.7573">
        <ele>325</ele>
        <time>2015-03-15T08:26:12.000Z</time>
      </trkpt>
      <trkpt lat="47.49517" lon="6.75734">
        <ele>325</ele>
        <time>2015-03-15T08:26:13.000Z</time>
      </trkpt>
      <trkpt lat="47.49512" lon="6.75738">
        <ele>325</ele>
        <time>2015-03-15T08:26:14.000Z</time>
      </trkpt>
      <trkpt lat="47.49506" lon="6.7574">
        <ele>324</ele>
        <time>2015-03-15T08:26:15.000Z</time>
      </trkpt>
      <trkpt lat="47.49499" lon="6.75739">
        <ele>323</ele>
        <time>2015-03-15T08:26:16.000Z</time>
      </trkpt>
      <trkpt lat="47.49494" lon="6.75739">
        <ele>323</ele>
        <time>2015-03-15T08:26:17.000Z</time>
      </trkpt>
      <trkpt lat="47.49488" lon="6.75739">
        <ele>323</ele>
        <time>2015-03-15T08:26:18.000Z</time>
      </trkpt>
      <trkpt lat="47.49483" lon="6.75737">
        <ele>322</ele>
        <time>2015-03-15T08:26:19.000Z</time>
      </trkpt>
      <trkpt lat="47.49477" lon="6.75736">
        <ele>322</ele>
        <time>2015-03-15T08:26:20.000Z</time>
      </trkpt>
      <trkpt lat="47.49479" lon="6.75722">
        <ele>322</ele>
        <time>2015-03-15T08:26:21.000Z</time>
      </trkpt>
      <trkpt lat="47.49477" lon="6.75716">
        <ele>321</ele>
        <time>2015-03-15T08:26:22.000Z</time>
      </trkpt>
      <trkpt lat="47.49474" lon="6.75709">
        <ele>321</ele>
        <time>2015-03-15T08:26:22.999Z</time>
      </trkpt>
      <trkpt lat="47.4947" lon="6.75702">
        <ele>321</ele>
        <time>2015-03-15T08:26:24.000Z</time>
      </trkpt>
      <trkpt lat="47.49467" lon="6.757">
        <ele>321</ele>
        <time>2015-03-15T08:26:25.000Z</time>
      </trkpt>
      <trkpt lat="47.49461" lon="6.75702">
        <ele>321</ele>
        <time>2015-03-15T08:26:26.000Z</time>
      </trkpt>
      <trkpt lat="47.49457" lon="6.75704">
        <ele>321</ele>
        <time>2015-03-15T08:26:27.000Z</time>
      </trkpt>
      <trkpt lat="47.49452" lon="6.75708">
        <ele>321</ele>
        <time>2015-03-15T08:26:28.000Z</time>
      </trkpt>
      <trkpt lat="47.49448" lon="6.75705">
        <ele>321</ele>
        <time>2015-03-15T08:26:29.000Z</time>
      </trkpt>
      <trkpt lat="47.49446" lon="6.75699">
        <ele>321</ele>
        <time>2015-03-15T08:26:30.000Z</time>
      </trkpt>
      <trkpt lat="47.49444" lon="6.75694">
        <ele>321</ele>
        <time>2015-03-15T08:26:31.001Z</time>
      </trkpt>
      <trkpt lat="47.49441" lon="6.75688">
        <ele>320</ele>
        <time>2015-03-15T08:26:32.000Z</time>
      </trkpt>
      <trkpt lat="47.49439" lon="6.75681">
        <ele>320</ele>
        <time>2015-03-15T08:26:33.000Z</time>
      </trkpt>
      <trkpt lat="47.49435" lon="6.75676">
        <ele>320</ele>
        <time>2015-03-15T08:26:34.000Z</time>
      </trkpt>
      <trkpt lat="47.49429" lon="6.75675">
        <ele>320</ele>
        <time>2015-03-15T08:26:35.000Z</time>
      </trkpt>
      <trkpt lat="47.49426" lon="6.75677">
        <ele>320</ele>
        <time>2015-03-15T08:26:36.000Z</time>
      </trkpt>
      <trkpt lat="47.49422" lon="6.75679">
        <ele>320</ele>
        <time>2015-03-15T08:26:37.000Z</time>
      </trkpt>
      <trkpt lat="47.49419" lon="6.75682">
        <ele>320</ele>
        <time>2015-03-15T08:26:38.000Z</time>
      </trkpt>
      <trkpt lat="47.49414" lon="6.75683">
        <ele>319</ele>
        <time>2015-03-15T08:26:39.000Z</time>
      </trkpt>
      <trkpt lat="47.4941" lon="6.75686">
        <ele>319</ele>
        <time>2015-03-15T08:26:40.000Z</time>
      </trkpt>
      <trkpt lat="47.49405" lon="6.75689">
        <ele>319</ele>
        <time>2015-03-15T08:26:41.000Z</time>
      </trkpt>
      <trkpt lat="47.494" lon="6.75692">
        <ele>319</ele>
        <time>2015-03-15T08:26:42.000Z</time>
      </trkpt>
      <trkpt lat="47.49395" lon="6.75695">
        <ele>319</ele>
        <time>2015-03-15T08:26:43.000Z</time>
      </trkpt>
      <trkpt lat="47.49391" lon="6.757">
        <ele>319</ele>
        <time>2015-03-15T08:26:44.000Z</time>
      </trkpt>
      <trkpt lat="47.49387" lon="6.75703">
        <ele>319</ele>
        <time>2015-03-15T08:26:45.000Z</time>
      </trkpt>
      <trkpt lat="47.49383" lon="6.75704">
        <ele>319</ele>
        <time>2015-03-15T08:26:46.000Z</time>
      </trkpt>
      <trkpt lat="47.4938" lon="6.75706">
        <ele>319</ele>
        <time>2015-03-15T08:26:47.000Z</time>
      </trkpt>
      <trkpt lat="47.49375" lon="6.7571">
        <ele>319</ele>
        <time>2015-03-15T08:26:48.000Z</time>
      </trkpt>
      <trkpt lat="47.49371" lon="6.75712">
        <ele>319</ele>
        <time>2015-03-15T08:26:49.000Z</time>
      </trkpt>
      <trkpt lat="47.49367" lon="6.75713">
        <ele>319</ele>
        <time>2015-03-15T08:26:50.000Z</time>
      </trkpt>
      <trkpt lat="47.49365" lon="6.75715">
        <ele>319</ele>
        <time>2015-03-15T08:26:52.000Z</time>
      </trkpt>
      <trkpt lat="47.49362" lon="6.75716">
        <ele>319</ele>
        <time>2015-03-15T08:26:53.000Z</time>
      </trkpt>
      <trkpt lat="47.4936" lon="6.75716">
        <ele>319</ele>
        <time>2015-03-15T08:26:54.000Z</time>
      </trkpt>
      <trkpt lat="47.49354" lon="6.75716">
        <ele>319</ele>
        <time>2015-03-15T08:26:55.000Z</time>
      </trkpt>
      <trkpt lat="47.4935" lon="6.75718">
        <ele>319</ele>
        <time>2015-03-15T08:26:56.000Z</time>
      </trkpt>
      <trkpt lat="47.49345" lon="6.75722">
        <ele>318</ele>
        <time>2015-03-15T08:26:57.000Z</time>
      </trkpt>
      <trkpt lat="47.4934" lon="6.75723">
        <ele>318</ele>
        <time>2015-03-15T08:26:58.000Z</time>
      </trkpt>
      <trkpt lat="47.49335" lon="6.75725">
        <ele>318</ele>
        <time>2015-03-15T08:26:59.000Z</time>
      </trkpt>
      <trkpt lat="47.4933" lon="6.75727">
        <ele>319</ele>
        <time>2015-03-15T08:27:00.000Z</time>
      </trkpt>
      <trkpt lat="47.49325" lon="6.75729">
        <ele>319</ele>
        <time>2015-03-15T08:27:01.000Z</time>
      </trkpt>
      <trkpt lat="47.4932" lon="6.75733">
        <ele>319</ele>
        <time>2015-03-15T08:27:02.000Z</time>
      </trkpt>
      <trkpt lat="47.49315" lon="6.75737">
        <ele>319</ele>
        <time>2015-03-15T08:27:03.000Z</time>
      </trkpt>
      <trkpt lat="47.49309" lon="6.75742">
        <ele>319</ele>
        <time>2015-03-15T08:27:04.000Z</time>
      </trkpt>
      <trkpt lat="47.49308" lon="6.7575">
        <ele>318</ele>
        <time>2015-03-15T08:27:05.000Z</time>
      </trkpt>
      <trkpt lat="47.49306" lon="6.75757">
        <ele>318</ele>
        <time>2015-03-15T08:27:06.000Z</time>
      </trkpt>
      <trkpt lat="47.49303" lon="6.75761">
        <ele>318</ele>
        <time>2015-03-15T08:27:07.000Z</time>
      </trkpt>
      <trkpt lat="47.49299" lon="6.75768">
        <ele>318</ele>
        <time>2015-03-15T08:27:08.000Z</time>
      </trkpt>
      <trkpt lat="47.49295" lon="6.75772">
        <ele>318</ele>
        <time>2015-03-15T08:27:09.000Z</time>
      </trkpt>
      <trkpt lat="47.49291" lon="6.75777">
        <ele>318</ele>
        <time>2015-03-15T08:27:10.000Z</time>
      </trkpt>
      <trkpt lat="47.49287" lon="6.75782">
        <ele>318</ele>
        <time>2015-03-15T08:27:11.000Z</time>
      </trkpt>
      <trkpt lat="47.49282" lon="6.75786">
        <ele>318</ele>
        <time>2015-03-15T08:27:12.000Z</time>
      </trkpt>
      <trkpt lat="47.49279" lon="6.75791">
        <ele>318</ele>
        <time>2015-03-15T08:27:13.000Z</time>
      </trkpt>
      <trkpt lat="47.49274" lon="6.75795">
        <ele>318</ele>
        <time>2015-03-15T08:27:14.000Z</time>
      </trkpt>
      <trkpt lat="47.49269" lon="6.758">
        <ele>317</ele>
        <time>2015-03-15T08:27:15.000Z</time>
      </trkpt>
      <trkpt lat="47.49264" lon="6.75806">
        <ele>317</ele>
        <time>2015-03-15T08:27:16.000Z</time>
      </trkpt>
      <trkpt lat="47.49259" lon="6.75813">
        <ele>316</ele>
        <time>2015-03-15T08:27:17.000Z</time>
      </trkpt>
      <trkpt lat="47.49255" lon="6.75818">
        <ele>316</ele>
        <time>2015-03-15T08:27:18.000Z</time>
      </trkpt>
      <trkpt lat="47.49252" lon="6.75824">
        <ele>315</ele>
        <time>2015-03-15T08:27:19.000Z</time>
      </trkpt>
      <trkpt lat="47.4925" lon="6.75833">
        <ele>313</ele>
        <time>2015-03-15T08:27:20.000Z</time>
      </trkpt>
      <trkpt lat="47.49246" lon="6.7584">
        <ele>315</ele>
        <time>2015-03-15T08:27:21.000Z</time>
      </trkpt>
      <trkpt lat="47.49243" lon="6.75848">
        <ele>316</ele>
        <time>2015-03-15T08:27:22.000Z</time>
      </trkpt>
      <trkpt lat="47.49241" lon="6.75855">
        <ele>317</ele>
        <time>2015-03-15T08:27:23.000Z</time>
      </trkpt>
      <trkpt lat="47.49238" lon="6.75862">
        <ele>317</ele>
        <time>2015-03-15T08:27:24.000Z</time>
      </trkpt>
      <trkpt lat="47.49236" lon="6.75867">
        <ele>318</ele>
        <time>2015-03-15T08:27:25.000Z</time>
      </trkpt>
      <trkpt lat="47.49232" lon="6.75872">
        <ele>318</ele>
        <time>2015-03-15T08:27:26.000Z</time>
      </trkpt>
      <trkpt lat="47.49229" lon="6.75882">
        <ele>318</ele>
        <time>2015-03-15T08:27:27.000Z</time>
      </trkpt>
      <trkpt lat="47.49225" lon="6.75887">
        <ele>319</ele>
        <time>2015-03-15T08:27:28.000Z</time>
      </trkpt>
      <trkpt lat="47.49221" lon="6.75895">
        <ele>319</ele>
        <time>2015-03-15T08:27:29.000Z</time>
      </trkpt>
      <trkpt lat="47.49219" lon="6.75901">
        <ele>319</ele>
        <time>2015-03-15T08:27:30.000Z</time>
      </trkpt>
      <trkpt lat="47.49216" lon="6.75907">
        <ele>319</ele>
        <time>2015-03-15T08:27:31.000Z</time>
      </trkpt>
      <trkpt lat="47.49214" lon="6.75913">
        <ele>319</ele>
        <time>2015-03-15T08:27:32.000Z</time>
      </trkpt>
      <trkpt lat="47.4921" lon="6.75919">
        <ele>320</ele>
        <time>2015-03-15T08:27:33.000Z</time>
      </trkpt>
      <trkpt lat="47.49208" lon="6.75923">
        <ele>320</ele>
        <time>2015-03-15T08:27:34.000Z</time>
      </trkpt>
      <trkpt lat="47.49205" lon="6.75928">
        <ele>320</ele>
        <time>2015-03-15T08:27:35.000Z</time>
      </trkpt>
      <trkpt lat="47.492" lon="6.75932">
        <ele>320</ele>
        <time>2015-03-15T08:27:36.000Z</time>
      </trkpt>
      <trkpt lat="47.49195" lon="6.75937">
        <ele>321</ele>
        <time>2015-03-15T08:27:37.000Z</time>
      </trkpt>
      <trkpt lat="47.49191" lon="6.75942">
        <ele>321</ele>
        <time>2015-03-15T08:27:38.000Z</time>
      </trkpt>
      <trkpt lat="47.49188" lon="6.75949">
        <ele>321</ele>
        <time>2015-03-15T08:27:39.000Z</time>
      </trkpt>
      <trkpt lat="47.49184" lon="6.75955">
        <ele>321</ele>
        <time>2015-03-15T08:27:40.000Z</time>
      </trkpt>
      <trkpt lat="47.4918" lon="6.75963">
        <ele>320</ele>
        <time>2015-03-15T08:27:41.000Z</time>
      </trkpt>
      <trkpt lat="47.49176" lon="6.75969">
        <ele>320</ele>
        <time>2015-03-15T08:27:42.000Z</time>
      </trkpt>
      <trkpt lat="47.49175" lon="6.75975">
        <ele>320</ele>
        <time>2015-03-15T08:27:43.000Z</time>
      </trkpt>
      <trkpt lat="47.49172" lon="6.75981">
        <ele>320</ele>
        <time>2015-03-15T08:27:44.000Z</time>
      </trkpt>
      <trkpt lat="47.4917" lon="6.75987">
        <ele>320</ele>
        <time>2015-03-15T08:27:45.000Z</time>
      </trkpt>
      <trkpt lat="47.49167" lon="6.75993">
        <ele>319</ele>
        <time>2015-03-15T08:27:46.000Z</time>
      </trkpt>
      <trkpt lat="47.49164" lon="6.75999">
        <ele>320</ele>
        <time>2015-03-15T08:27:47.000Z</time>
      </trkpt>
      <trkpt lat="47.49161" lon="6.76006">
        <ele>321</ele>
        <time>2015-03-15T08:27:48.000Z</time>
      </trkpt>
      <trkpt lat="47.49159" lon="6.76013">
        <ele>321</ele>
        <time>2015-03-15T08:27:49.000Z</time>
      </trkpt>
      <trkpt lat="47.49157" lon="6.76022">
        <ele>322</ele>
        <time>2015-03-15T08:27:50.000Z</time>
      </trkpt>
      <trkpt lat="47.49154" lon="6.76028">
        <ele>323</ele>
        <time>2015-03-15T08:27:51.000Z</time>
      </trkpt>
      <trkpt lat="47.49151" lon="6.76035">
        <ele>323</ele>
        <time>2015-03-15T08:27:52.000Z</time>
      </trkpt>
      <trkpt lat="47.49148" lon="6.76041">
        <ele>323</ele>
        <time>2015-03-15T08:27:53.000Z</time>
      </trkpt>
      <trkpt lat="47.49145" lon="6.76049">
        <ele>323</ele>
        <time>2015-03-15T08:27:54.000Z</time>
      </trkpt>
      <trkpt lat="47.49142" lon="6.76056">
        <ele>323</ele>
        <time>2015-03-15T08:27:55.000Z</time>
      </trkpt>
      <trkpt lat="47.4914" lon="6.76064">
        <ele>323</ele>
        <time>2015-03-15T08:27:56.000Z</time>
      </trkpt>
      <trkpt lat="47.49138" lon="6.7607">
        <ele>323</ele>
        <time>2015-03-15T08:27:57.000Z</time>
      </trkpt>
      <trkpt lat="47.49136" lon="6.76077">
        <ele>323</ele>
        <time>2015-03-15T08:27:58.000Z</time>
      </trkpt>
      <trkpt lat="47.49134" lon="6.76084">
        <ele>322</ele>
        <time>2015-03-15T08:27:59.000Z</time>
      </trkpt>
      <trkpt lat="47.49132" lon="6.76092">
        <ele>322</ele>
        <time>2015-03-15T08:28:00.000Z</time>
      </trkpt>
      <trkpt lat="47.4913" lon="6.76098">
        <ele>322</ele>
        <time>2015-03-15T08:28:01.000Z</time>
      </trkpt>
      <trkpt lat="47.49128" lon="6.76106">
        <ele>322</ele>
        <time>2015-03-15T08:28:02.000Z</time>
      </trkpt>
      <trkpt lat="47.49128" lon="6.76114">
        <ele>322</ele>
        <time>2015-03-15T08:28:03.000Z</time>
      </trkpt>
      <trkpt lat="47.49126" lon="6.76121">
        <ele>322</ele>
        <time>2015-03-15T08:28:04.000Z</time>
      </trkpt>
      <trkpt lat="47.49124" lon="6.76128">
        <ele>322</ele>
        <time>2015-03-15T08:28:05.000Z</time>
      </trkpt>
      <trkpt lat="47.49123" lon="6.76135">
        <ele>322</ele>
        <time>2015-03-15T08:28:06.000Z</time>
      </trkpt>
      <trkpt lat="47.49121" lon="6.76142">
        <ele>322</ele>
        <time>2015-03-15T08:28:07.000Z</time>
      </trkpt>
      <trkpt lat="47.4912" lon="6.76149">
        <ele>322</ele>
        <time>2015-03-15T08:28:08.000Z</time>
      </trkpt>
      <trkpt lat="47.49119" lon="6.76158">
        <ele>322</ele>
        <time>2015-03-15T08:28:09.000Z</time>
      </trkpt>
      <trkpt lat="47.49118" lon="6.76165">
        <ele>322</ele>
        <time>2015-03-15T08:28:10.000Z</time>
      </trkpt>
      <trkpt lat="47.49119" lon="6.76175">
        <ele>321</ele>
        <time>2015-03-15T08:28:11.000Z</time>
      </trkpt>
      <trkpt lat="47.49119" lon="6.76183">
        <ele>321</ele>
        <time>2015-03-15T08:28:12.000Z</time>
      </trkpt>
      <trkpt lat="47.49119" lon="6.76191">
        <ele>321</ele>
        <time>2015-03-15T08:28:13.000Z</time>
      </trkpt>
      <trkpt lat="47.49119" lon="6.76199">
        <ele>321</ele>
        <time>2015-03-15T08:28:14.000Z</time>
      </trkpt>
      <trkpt lat="47.49119" lon="6.76207">
        <ele>321</ele>
        <time>2015-03-15T08:28:15.000Z</time>
      </trkpt>
      <trkpt lat="47.49119" lon="6.76214">
        <ele>321</ele>
        <time>2015-03-15T08:28:16.000Z</time>
      </trkpt>
      <trkpt lat="47.49119" lon="6.76222">
        <ele>321</ele>
        <time>2015-03-15T08:28:17.000Z</time>
      </trkpt>
      <trkpt lat="47.49119" lon="6.76229">
        <ele>321</ele>
        <time>2015-03-15T08:28:18.000Z</time>
      </trkpt>
      <trkpt lat="47.49118" lon="6.76237">
        <ele>321</ele>
        <time>2015-03-15T08:28:19.000Z</time>
      </trkpt>
      <trkpt lat="47.49118" lon="6.76243">
        <ele>321</ele>
        <time>2015-03-15T08:28:20.000Z</time>
      </trkpt>
      <trkpt lat="47.49118" lon="6.76251">
        <ele>320</ele>
        <time>2015-03-15T08:28:21.000Z</time>
      </trkpt>
      <trkpt lat="47.49118" lon="6.76256">
        <ele>320</ele>
        <time>2015-03-15T08:28:22.000Z</time>
      </trkpt>
      <trkpt lat="47.49117" lon="6.76263">
        <ele>320</ele>
        <time>2015-03-15T08:28:23.000Z</time>
      </trkpt>
      <trkpt lat="47.49117" lon="6.76268">
        <ele>320</ele>
        <time>2015-03-15T08:28:24.000Z</time>
      </trkpt>
      <trkpt lat="47.49117" lon="6.76273">
        <ele>320</ele>
        <time>2015-03-15T08:28:25.000Z</time>
      </trkpt>
      <trkpt lat="47.49117" lon="6.7628">
        <ele>320</ele>
        <time>2015-03-15T08:28:26.000Z</time>
      </trkpt>
      <trkpt lat="47.49116" lon="6.76286">
        <ele>320</ele>
        <time>2015-03-15T08:28:27.000Z</time>
      </trkpt>
      <trkpt lat="47.49114" lon="6.76293">
        <ele>320</ele>
        <time>2015-03-15T08:28:28.000Z</time>
      </trkpt>
      <trkpt lat="47.49114" lon="6.763">
        <ele>320</ele>
        <time>2015-03-15T08:28:29.000Z</time>
      </trkpt>
      <trkpt lat="47.49114" lon="6.76309">
        <ele>320</ele>
        <time>2015-03-15T08:28:30.000Z</time>
      </trkpt>
      <trkpt lat="47.49113" lon="6.76317">
        <ele>320</ele>
        <time>2015-03-15T08:28:31.000Z</time>
      </trkpt>
      <trkpt lat="47.49113" lon="6.76326">
        <ele>320</ele>
        <time>2015-03-15T08:28:32.000Z</time>
      </trkpt>
      <trkpt lat="47.49113" lon="6.76334">
        <ele>319</ele>
        <time>2015-03-15T08:28:33.000Z</time>
      </trkpt>
      <trkpt lat="47.49113" lon="6.7634">
        <ele>319</ele>
        <time>2015-03-15T08:28:34.000Z</time>
      </trkpt>
      <trkpt lat="47.49113" lon="6.76346">
        <ele>319</ele>
        <time>2015-03-15T08:28:35.000Z</time>
      </trkpt>
      <trkpt lat="47.49113" lon="6.76352">
        <ele>319</ele>
        <time>2015-03-15T08:28:36.000Z</time>
      </trkpt>
      <trkpt lat="47.49113" lon="6.76364">
        <ele>319</ele>
        <time>2015-03-15T08:28:37.000Z</time>
      </trkpt>
      <trkpt lat="47.49114" lon="6.76374">
        <ele>318</ele>
        <time>2015-03-15T08:28:38.000Z</time>
      </trkpt>
      <trkpt lat="47.49115" lon="6.76385">
        <ele>318</ele>
        <time>2015-03-15T08:28:39.000Z</time>
      </trkpt>
      <trkpt lat="47.49114" lon="6.76394">
        <ele>318</ele>
        <time>2015-03-15T08:28:40.000Z</time>
      </trkpt>
      <trkpt lat="47.49115" lon="6.76405">
        <ele>318</ele>
        <time>2015-03-15T08:28:41.000Z</time>
      </trkpt>
      <trkpt lat="47.49115" lon="6.76415">
        <ele>318</ele>
        <time>2015-03-15T08:28:42.000Z</time>
      </trkpt>
      <trkpt lat="47.49115" lon="6.76423">
        <ele>318</ele>
        <time>2015-03-15T08:28:43.000Z</time>
      </trkpt>
      <trkpt lat="47.49114" lon="6.7643">
        <ele>318</ele>
        <time>2015-03-15T08:28:44.000Z</time>
      </trkpt>
      <trkpt lat="47.49113" lon="6.76438">
        <ele>318</ele>
        <time>2015-03-15T08:28:45.000Z</time>
      </trkpt>
      <trkpt lat="47.49112" lon="6.76446">
        <ele>318</ele>
        <time>2015-03-15T08:28:46.000Z</time>
      </trkpt>
      <trkpt lat="47.49111" lon="6.76454">
        <ele>318</ele>
        <time>2015-03-15T08:28:47.000Z</time>
      </trkpt>
      <trkpt lat="47.49111" lon="6.7646">
        <ele>318</ele>
        <time>2015-03-15T08:28:48.000Z</time>
      </trkpt>
      <trkpt lat="47.49111" lon="6.76468">
        <ele>318</ele>
        <time>2015-03-15T08:28:49.000Z</time>
      </trkpt>
      <trkpt lat="47.49111" lon="6.76474">
        <ele>318</ele>
        <time>2015-03-15T08:28:50.000Z</time>
      </trkpt>
      <trkpt lat="47.4911" lon="6.76482">
        <ele>318</ele>
        <time>2015-03-15T08:28:51.000Z</time>
      </trkpt>
      <trkpt lat="47.4911" lon="6.7649">
        <ele>318</ele>
        <time>2015-03-15T08:28:52.000Z</time>
      </trkpt>
      <trkpt lat="47.49111" lon="6.76498">
        <ele>318</ele>
        <time>2015-03-15T08:28:53.000Z</time>
      </trkpt>
      <trkpt lat="47.49114" lon="6.76508">
        <ele>317</ele>
        <time>2015-03-15T08:28:54.000Z</time>
      </trkpt>
      <trkpt lat="47.49121" lon="6.76513">
        <ele>316</ele>
        <time>2015-03-15T08:28:55.000Z</time>
      </trkpt>
      <trkpt lat="47.49127" lon="6.76515">
        <ele>316</ele>
        <time>2015-03-15T08:28:56.000Z</time>
      </trkpt>
      <trkpt lat="47.49134" lon="6.76516">
        <ele>316</ele>
        <time>2015-03-15T08:28:57.000Z</time>
      </trkpt>
      <trkpt lat="47.4914" lon="6.76516">
        <ele>315</ele>
        <time>2015-03-15T08:28:58.000Z</time>
      </trkpt>
      <trkpt lat="47.49145" lon="6.76514">
        <ele>315</ele>
        <time>2015-03-15T08:28:59.000Z</time>
      </trkpt>
      <trkpt lat="47.49151" lon="6.76511">
        <ele>315</ele>
        <time>2015-03-15T08:29:00.000Z</time>
      </trkpt>
      <trkpt lat="47.49156" lon="6.76508">
        <ele>314</ele>
        <time>2015-03-15T08:29:01.000Z</time>
      </trkpt>
      <trkpt lat="47.4916" lon="6.76506">
        <ele>314</ele>
        <time>2015-03-15T08:29:02.000Z</time>
      </trkpt>
      <trkpt lat="47.49163" lon="6.76505">
        <ele>314</ele>
        <time>2015-03-15T08:29:03.000Z</time>
      </trkpt>
      <trkpt lat="47.49167" lon="6.76505">
        <ele>313</ele>
        <time>2015-03-15T08:29:04.000Z</time>
      </trkpt>
      <trkpt lat="47.4917" lon="6.76502">
        <ele>314</ele>
        <time>2015-03-15T08:29:05.000Z</time>
      </trkpt>
      <trkpt lat="47.49172" lon="6.76499">
        <ele>314</ele>
        <time>2015-03-15T08:29:06.000Z</time>
      </trkpt>
      <trkpt lat="47.49174" lon="6.76495">
        <ele>314</ele>
        <time>2015-03-15T08:29:07.000Z</time>
      </trkpt>
      <trkpt lat="47.49174" lon="6.76491">
        <ele>315</ele>
        <time>2015-03-15T08:29:08.000Z</time>
      </trkpt>
      <trkpt lat="47.49173" lon="6.76487">
        <ele>315</ele>
        <time>2015-03-15T08:29:09.000Z</time>
      </trkpt>
      <trkpt lat="47.49177" lon="6.76489">
        <ele>315</ele>
        <time>2015-03-15T08:30:54.000Z</time>
      </trkpt>
      <trkpt lat="47.49177" lon="6.76489">
        <ele>315</ele>
        <time>2015-03-15T08:30:55.000Z</time>
      </trkpt>
      <trkpt lat="47.49181" lon="6.76487">
        <ele>316</ele>
        <time>2015-03-15T08:33:28.000Z</time>
      </trkpt>
      <trkpt lat="47.49182" lon="6.76487">
        <ele>316</ele>
        <time>2015-03-15T08:33:29.000Z</time>
      </trkpt>
      <trkpt lat="47.49181" lon="6.76481">
        <ele>316</ele>
        <time>2015-03-15T08:34:22.000Z</time>
      </trkpt>
      <trkpt lat="47.49182" lon="6.7648">
        <ele>316</ele>
        <time>2015-03-15T08:34:23.000Z</time>
      </trkpt>
      <trkpt lat="47.49182" lon="6.76485">
        <ele>316</ele>
        <time>2015-03-15T08:34:25.000Z</time>
      </trkpt>
      <trkpt lat="47.49183" lon="6.76487">
        <ele>316</ele>
        <time>2015-03-15T08:34:26.000Z</time>
      </trkpt>
      <trkpt lat="47.49174" lon="6.76508">
        <ele>314</ele>
        <time>2015-03-15T08:34:27.000Z</time>
      </trkpt>
      <trkpt lat="47.49171" lon="6.76512">
        <ele>315</ele>
        <time>2015-03-15T08:34:28.000Z</time>
      </trkpt>
      <trkpt lat="47.49168" lon="6.76515">
        <ele>315</ele>
        <time>2015-03-15T08:34:29.000Z</time>
      </trkpt>
      <trkpt lat="47.49165" lon="6.76518">
        <ele>314</ele>
        <time>2015-03-15T08:34:30.000Z</time>
      </trkpt>
      <trkpt lat="47.49161" lon="6.76522">
        <ele>314</ele>
        <time>2015-03-15T08:34:31.000Z</time>
      </trkpt>
      <trkpt lat="47.49157" lon="6.76526">
        <ele>315</ele>
        <time>2015-03-15T08:34:31.999Z</time>
      </trkpt>
      <trkpt lat="47.49152" lon="6.76529">
        <ele>315</ele>
        <time>2015-03-15T08:34:33.000Z</time>
      </trkpt>
      <trkpt lat="47.49146" lon="6.76531">
        <ele>315</ele>
        <time>2015-03-15T08:34:34.000Z</time>
      </trkpt>
      <trkpt lat="47.4914" lon="6.76532">
        <ele>315</ele>
        <time>2015-03-15T08:34:34.999Z</time>
      </trkpt>
      <trkpt lat="47.49135" lon="6.76531">
        <ele>315</ele>
        <time>2015-03-15T08:34:36.000Z</time>
      </trkpt>
      <trkpt lat="47.49131" lon="6.76533">
        <ele>316</ele>
        <time>2015-03-15T08:34:37.000Z</time>
      </trkpt>
      <trkpt lat="47.49127" lon="6.76539">
        <ele>316</ele>
        <time>2015-03-15T08:34:38.000Z</time>
      </trkpt>
      <trkpt lat="47.49126" lon="6.76545">
        <ele>316</ele>
        <time>2015-03-15T08:34:39.000Z</time>
      </trkpt>
      <trkpt lat="47.49125" lon="6.76552">
        <ele>316</ele>
        <time>2015-03-15T08:34:40.000Z</time>
      </trkpt>
      <trkpt lat="47.49125" lon="6.76559">
        <ele>315</ele>
        <time>2015-03-15T08:34:41.000Z</time>
      </trkpt>
      <trkpt lat="47.49126" lon="6.76567">
        <ele>315</ele>
        <time>2015-03-15T08:34:42.000Z</time>
      </trkpt>
      <trkpt lat="47.49127" lon="6.76574">
        <ele>315</ele>
        <time>2015-03-15T08:34:43.000Z</time>
      </trkpt>
      <trkpt lat="47.49128" lon="6.76584">
        <ele>314</ele>
        <time>2015-03-15T08:34:44.000Z</time>
      </trkpt>
      <trkpt lat="47.49129" lon="6.76592">
        <ele>314</ele>
        <time>2015-03-15T08:34:45.000Z</time>
      </trkpt>
      <trkpt lat="47.49127" lon="6.76596">
        <ele>314</ele>
        <time>2015-03-15T08:34:46.000Z</time>
      </trkpt>
      <trkpt lat="47.49129" lon="6.76603">
        <ele>314</ele>
        <time>2015-03-15T08:34:46.999Z</time>
      </trkpt>
      <trkpt lat="47.4913" lon="6.7661">
        <ele>314</ele>
        <time>2015-03-15T08:34:48.000Z</time>
      </trkpt>
      <trkpt lat="47.49131" lon="6.76616">
        <ele>314</ele>
        <time>2015-03-15T08:34:48.999Z</time>
      </trkpt>
      <trkpt lat="47.49132" lon="6.76622">
        <ele>314</ele>
        <time>2015-03-15T08:34:50.000Z</time>
      </trkpt>
      <trkpt lat="47.49133" lon="6.7663">
        <ele>314</ele>
        <time>2015-03-15T08:34:51.000Z</time>
      </trkpt>
      <trkpt lat="47.49134" lon="6.76635">
        <ele>314</ele>
        <time>2015-03-15T08:34:52.000Z</time>
      </trkpt>
      <trkpt lat="47.49135" lon="6.76642">
        <ele>314</ele>
        <time>2015-03-15T08:34:53.000Z</time>
      </trkpt>
      <trkpt lat="47.49136" lon="6.76648">
        <ele>314</ele>
        <time>2015-03-15T08:34:54.001Z</time>
      </trkpt>
      <trkpt lat="47.49136" lon="6.76655">
        <ele>314</ele>
        <time>2015-03-15T08:34:55.000Z</time>
      </trkpt>
      <trkpt lat="47.49137" lon="6.76664">
        <ele>314</ele>
        <time>2015-03-15T08:34:56.000Z</time>
      </trkpt>
      <trkpt lat="47.49137" lon="6.7667">
        <ele>314</ele>
        <time>2015-03-15T08:34:57.000Z</time>
      </trkpt>
      <trkpt lat="47.49139" lon="6.76677">
        <ele>314</ele>
        <time>2015-03-15T08:34:58.000Z</time>
      </trkpt>
      <trkpt lat="47.4914" lon="6.76684">
        <ele>313</ele>
        <time>2015-03-15T08:34:59.000Z</time>
      </trkpt>
      <trkpt lat="47.49141" lon="6.76691">
        <ele>313</ele>
        <time>2015-03-15T08:35:00.000Z</time>
      </trkpt>
      <trkpt lat="47.49141" lon="6.76699">
        <ele>313</ele>
        <time>2015-03-15T08:35:01.000Z</time>
      </trkpt>
      <trkpt lat="47.49142" lon="6.76705">
        <ele>313</ele>
        <time>2015-03-15T08:35:02.000Z</time>
      </trkpt>
      <trkpt lat="47.49143" lon="6.76712">
        <ele>313</ele>
        <time>2015-03-15T08:35:03.000Z</time>
      </trkpt>
      <trkpt lat="47.49144" lon="6.76719">
        <ele>313</ele>
        <time>2015-03-15T08:35:04.000Z</time>
      </trkpt>
      <trkpt lat="47.49145" lon="6.76726">
        <ele>313</ele>
        <time>2015-03-15T08:35:05.000Z</time>
      </trkpt>
      <trkpt lat="47.49145" lon="6.76734">
        <ele>313</ele>
        <time>2015-03-15T08:35:06.000Z</time>
      </trkpt>
      <trkpt lat="47.49146" lon="6.76741">
        <ele>313</ele>
        <time>2015-03-15T08:35:07.000Z</time>
      </trkpt>
      <trkpt lat="47.49146" lon="6.76748">
        <ele>313</ele>
        <time>2015-03-15T08:35:08.000Z</time>
      </trkpt>
      <trkpt lat="47.49146" lon="6.76755">
        <ele>313</ele>
        <time>2015-03-15T08:35:09.000Z</time>
      </trkpt>
      <trkpt lat="47.49147" lon="6.76762">
        <ele>313</ele>
        <time>2015-03-15T08:35:10.000Z</time>
      </trkpt>
      <trkpt lat="47.49147" lon="6.76769">
        <ele>313</ele>
        <time>2015-03-15T08:35:11.000Z</time>
      </trkpt>
      <trkpt lat="47.49147" lon="6.76776">
        <ele>312</ele>
        <time>2015-03-15T08:35:12.000Z</time>
      </trkpt>
      <trkpt lat="47.49148" lon="6.76783">
        <ele>312</ele>
        <time>2015-03-15T08:35:13.000Z</time>
      </trkpt>
      <trkpt lat="47.49148" lon="6.7679">
        <ele>312</ele>
        <time>2015-03-15T08:35:14.000Z</time>
      </trkpt>
      <trkpt lat="47.49148" lon="6.76798">
        <ele>312</ele>
        <time>2015-03-15T08:35:15.000Z</time>
      </trkpt>
      <trkpt lat="47.49148" lon="6.76805">
        <ele>312</ele>
        <time>2015-03-15T08:35:16.000Z</time>
      </trkpt>
      <trkpt lat="47.49148" lon="6.76812">
        <ele>312</ele>
        <time>2015-03-15T08:35:17.000Z</time>
      </trkpt>
      <trkpt lat="47.49149" lon="6.76818">
        <ele>313</ele>
        <time>2015-03-15T08:35:18.000Z</time>
      </trkpt>
      <trkpt lat="47.49149" lon="6.76826">
        <ele>313</ele>
        <time>2015-03-15T08:35:19.000Z</time>
      </trkpt>
      <trkpt lat="47.4915" lon="6.76833">
        <ele>313</ele>
        <time>2015-03-15T08:35:20.000Z</time>
      </trkpt>
      <trkpt lat="47.4915" lon="6.7684">
        <ele>312</ele>
        <time>2015-03-15T08:35:21.000Z</time>
      </trkpt>
      <trkpt lat="47.4915" lon="6.76848">
        <ele>312</ele>
        <time>2015-03-15T08:35:22.000Z</time>
      </trkpt>
      <trkpt lat="47.49149" lon="6.76856">
        <ele>312</ele>
        <time>2015-03-15T08:35:23.000Z</time>
      </trkpt>
      <trkpt lat="47.49149" lon="6.76863">
        <ele>312</ele>
        <time>2015-03-15T08:35:24.000Z</time>
      </trkpt>
      <trkpt lat="47.49148" lon="6.7687">
        <ele>312</ele>
        <time>2015-03-15T08:35:25.000Z</time>
      </trkpt>
      <trkpt lat="47.49148" lon="6.76877">
        <ele>312</ele>
        <time>2015-03-15T08:35:26.000Z</time>
      </trkpt>
      <trkpt lat="47.49148" lon="6.76884">
        <ele>312</ele>
        <time>2015-03-15T08:35:27.000Z</time>
      </trkpt>
      <trkpt lat="47.49147" lon="6.7689">
        <ele>312</ele>
        <time>2015-03-15T08:35:28.000Z</time>
      </trkpt>
      <trkpt lat="47.49147" lon="6.76897">
        <ele>312</ele>
        <time>2015-03-15T08:35:29.000Z</time>
      </trkpt>
      <trkpt lat="47.49147" lon="6.76904">
        <ele>312</ele>
        <time>2015-03-15T08:35:30.000Z</time>
      </trkpt>
      <trkpt lat="47.49146" lon="6.76912">
        <ele>312</ele>
        <time>2015-03-15T08:35:31.000Z</time>
      </trkpt>
      <trkpt lat="47.49147" lon="6.7692">
        <ele>312</ele>
        <time>2015-03-15T08:35:32.000Z</time>
      </trkpt>
      <trkpt lat="47.49146" lon="6.76927">
        <ele>312</ele>
        <time>2015-03-15T08:35:33.000Z</time>
      </trkpt>
      <trkpt lat="47.49146" lon="6.76934">
        <ele>312</ele>
        <time>2015-03-15T08:35:34.000Z</time>
      </trkpt>
      <trkpt lat="47.49145" lon="6.7694">
        <ele>312</ele>
        <time>2015-03-15T08:35:35.000Z</time>
      </trkpt>
      <trkpt lat="47.49145" lon="6.76946">
        <ele>312</ele>
        <time>2015-03-15T08:35:36.000Z</time>
      </trkpt>
      <trkpt lat="47.49145" lon="6.76951">
        <ele>312</ele>
        <time>2015-03-15T08:35:37.000Z</time>
      </trkpt>
      <trkpt lat="47.49144" lon="6.76957">
        <ele>312</ele>
        <time>2015-03-15T08:35:38.000Z</time>
      </trkpt>
      <trkpt lat="47.49142" lon="6.76963">
        <ele>312</ele>
        <time>2015-03-15T08:35:39.000Z</time>
      </trkpt>
      <trkpt lat="47.49142" lon="6.7697">
        <ele>312</ele>
        <time>2015-03-15T08:35:40.000Z</time>
      </trkpt>
      <trkpt lat="47.49145" lon="6.7698">
        <ele>312</ele>
        <time>2015-03-15T08:35:41.000Z</time>
      </trkpt>
      <trkpt lat="47.49149" lon="6.76988">
        <ele>312</ele>
        <time>2015-03-15T08:35:42.000Z</time>
      </trkpt>
      <trkpt lat="47.49152" lon="6.76995">
        <ele>312</ele>
        <time>2015-03-15T08:35:43.000Z</time>
      </trkpt>
      <trkpt lat="47.49155" lon="6.77002">
        <ele>312</ele>
        <time>2015-03-15T08:35:44.000Z</time>
      </trkpt>
      <trkpt lat="47.49157" lon="6.7701">
        <ele>312</ele>
        <time>2015-03-15T08:35:45.000Z</time>
      </trkpt>
      <trkpt lat="47.49159" lon="6.77016">
        <ele>312</ele>
        <time>2015-03-15T08:35:46.000Z</time>
      </trkpt>
      <trkpt lat="47.49161" lon="6.77023">
        <ele>312</ele>
        <time>2015-03-15T08:35:47.000Z</time>
      </trkpt>
      <trkpt lat="47.49162" lon="6.77031">
        <ele>312</ele>
        <time>2015-03-15T08:35:48.000Z</time>
      </trkpt>
      <trkpt lat="47.49163" lon="6.77038">
        <ele>312</ele>
        <time>2015-03-15T08:35:49.000Z</time>
      </trkpt>
      <trkpt lat="47.49164" lon="6.77046">
        <ele>312</ele>
        <time>2015-03-15T08:35:50.000Z</time>
      </trkpt>
      <trkpt lat="47.49165" lon="6.77054">
        <ele>312</ele>
        <time>2015-03-15T08:35:51.000Z</time>
      </trkpt>
      <trkpt lat="47.49166" lon="6.77062">
        <ele>312</ele>
        <time>2015-03-15T08:35:52.000Z</time>
      </trkpt>
      <trkpt lat="47.49168" lon="6.7707">
        <ele>312</ele>
        <time>2015-03-15T08:35:53.000Z</time>
      </trkpt>
      <trkpt lat="47.49169" lon="6.77076">
        <ele>312</ele>
        <time>2015-03-15T08:35:54.000Z</time>
      </trkpt>
      <trkpt lat="47.49168" lon="6.77082">
        <ele>312</ele>
        <time>2015-03-15T08:35:55.000Z</time>
      </trkpt>
      <trkpt lat="47.49169" lon="6.77089">
        <ele>312</ele>
        <time>2015-03-15T08:35:56.000Z</time>
      </trkpt>
      <trkpt lat="47.4917" lon="6.77095">
        <ele>312</ele>
        <time>2015-03-15T08:35:57.000Z</time>
      </trkpt>
      <trkpt lat="47.49171" lon="6.771">
        <ele>312</ele>
        <time>2015-03-15T08:35:58.000Z</time>
      </trkpt>
      <trkpt lat="47.49171" lon="6.77105">
        <ele>312</ele>
        <time>2015-03-15T08:35:59.000Z</time>
      </trkpt>
      <trkpt lat="47.49173" lon="6.7711">
        <ele>313</ele>
        <time>2015-03-15T08:36:00.000Z</time>
      </trkpt>
      <trkpt lat="47.49173" lon="6.77115">
        <ele>313</ele>
        <time>2015-03-15T08:36:01.000Z</time>
      </trkpt>
      <trkpt lat="47.49173" lon="6.7712">
        <ele>313</ele>
        <time>2015-03-15T08:36:02.000Z</time>
      </trkpt>
      <trkpt lat="47.49174" lon="6.77123">
        <ele>313</ele>
        <time>2015-03-15T08:36:03.000Z</time>
      </trkpt>
      <trkpt lat="47.49175" lon="6.77126">
        <ele>313</ele>
        <time>2015-03-15T08:36:04.000Z</time>
      </trkpt>
      <trkpt lat="47.49175" lon="6.7713">
        <ele>313</ele>
        <time>2015-03-15T08:36:05.000Z</time>
      </trkpt>
      <trkpt lat="47.49176" lon="6.77133">
        <ele>313</ele>
        <time>2015-03-15T08:36:06.000Z</time>
      </trkpt>
      <trkpt lat="47.49176" lon="6.77137">
        <ele>313</ele>
        <time>2015-03-15T08:36:07.000Z</time>
      </trkpt>
      <trkpt lat="47.49177" lon="6.77145">
        <ele>313</ele>
        <time>2015-03-15T08:36:08.000Z</time>
      </trkpt>
      <trkpt lat="47.49178" lon="6.77152">
        <ele>313</ele>
        <time>2015-03-15T08:36:09.000Z</time>
      </trkpt>
      <trkpt lat="47.49179" lon="6.77158">
        <ele>313</ele>
        <time>2015-03-15T08:36:10.000Z</time>
      </trkpt>
      <trkpt lat="47.4918" lon="6.77167">
        <ele>313</ele>
        <time>2015-03-15T08:36:11.000Z</time>
      </trkpt>
      <trkpt lat="47.49181" lon="6.77173">
        <ele>313</ele>
        <time>2015-03-15T08:36:12.000Z</time>
      </trkpt>
      <trkpt lat="47.49182" lon="6.7718">
        <ele>313</ele>
        <time>2015-03-15T08:36:13.000Z</time>
      </trkpt>
      <trkpt lat="47.49182" lon="6.77187">
        <ele>313</ele>
        <time>2015-03-15T08:36:14.000Z</time>
      </trkpt>
      <trkpt lat="47.49182" lon="6.77193">
        <ele>312</ele>
        <time>2015-03-15T08:36:15.000Z</time>
      </trkpt>
      <trkpt lat="47.49182" lon="6.77199">
        <ele>312</ele>
        <time>2015-03-15T08:36:16.000Z</time>
      </trkpt>
      <trkpt lat="47.49182" lon="6.77204">
        <ele>312</ele>
        <time>2015-03-15T08:36:17.000Z</time>
      </trkpt>
      <trkpt lat="47.49182" lon="6.77211">
        <ele>312</ele>
        <time>2015-03-15T08:36:18.000Z</time>
      </trkpt>
      <trkpt lat="47.49182" lon="6.77217">
        <ele>312</ele>
        <time>2015-03-15T08:36:19.000Z</time>
      </trkpt>
      <trkpt lat="47.49182" lon="6.77223">
        <ele>312</ele>
        <time>2015-03-15T08:36:20.000Z</time>
      </trkpt>
      <trkpt lat="47.49182" lon="6.77227">
        <ele>312</ele>
        <time>2015-03-15T08:36:21.000Z</time>
      </trkpt>
      <trkpt lat="47.49182" lon="6.77232">
        <ele>312</ele>
        <time>2015-03-15T08:36:22.000Z</time>
      </trkpt>
      <trkpt lat="47.49182" lon="6.77237">
        <ele>312</ele>
        <time>2015-03-15T08:36:23.000Z</time>
      </trkpt>
      <trkpt lat="47.49182" lon="6.77242">
        <ele>312</ele>
        <time>2015-03-15T08:36:24.000Z</time>
      </trkpt>
      <trkpt lat="47.49183" lon="6.77247">
        <ele>312</ele>
        <time>2015-03-15T08:36:25.000Z</time>
      </trkpt>
      <trkpt lat="47.49183" lon="6.77252">
        <ele>311</ele>
        <time>2015-03-15T08:36:26.000Z</time>
      </trkpt>
      <trkpt lat="47.49182" lon="6.77262">
        <ele>311</ele>
        <time>2015-03-15T08:36:27.000Z</time>
      </trkpt>
      <trkpt lat="47.49182" lon="6.7727">
        <ele>311</ele>
        <time>2015-03-15T08:36:28.000Z</time>
      </trkpt>
      <trkpt lat="47.49182" lon="6.77278">
        <ele>311</ele>
        <time>2015-03-15T08:36:29.000Z</time>
      </trkpt>
      <trkpt lat="47.49182" lon="6.77287">
        <ele>311</ele>
        <time>2015-03-15T08:36:30.000Z</time>
      </trkpt>
      <trkpt lat="47.49181" lon="6.77295">
        <ele>311</ele>
        <time>2015-03-15T08:36:31.000Z</time>
      </trkpt>
      <trkpt lat="47.4918" lon="6.77303">
        <ele>311</ele>
        <time>2015-03-15T08:36:32.000Z</time>
      </trkpt>
      <trkpt lat="47.4918" lon="6.77311">
        <ele>311</ele>
        <time>2015-03-15T08:36:33.000Z</time>
      </trkpt>
      <trkpt lat="47.4918" lon="6.77319">
        <ele>310</ele>
        <time>2015-03-15T08:36:34.000Z</time>
      </trkpt>
      <trkpt lat="47.49177" lon="6.77327">
        <ele>310</ele>
        <time>2015-03-15T08:36:35.000Z</time>
      </trkpt>
      <trkpt lat="47.49175" lon="6.77332">
        <ele>310</ele>
        <time>2015-03-15T08:36:36.000Z</time>
      </trkpt>
      <trkpt lat="47.49171" lon="6.7733">
        <ele>310</ele>
        <time>2015-03-15T08:36:37.000Z</time>
      </trkpt>
      <trkpt lat="47.49165" lon="6.7733">
        <ele>310</ele>
        <time>2015-03-15T08:36:38.000Z</time>
      </trkpt>
      <trkpt lat="47.4916" lon="6.77329">
        <ele>310</ele>
        <time>2015-03-15T08:36:39.000Z</time>
      </trkpt>
      <trkpt lat="47.49153" lon="6.77328">
        <ele>311</ele>
        <time>2015-03-15T08:36:40.000Z</time>
      </trkpt>
      <trkpt lat="47.49147" lon="6.77328">
        <ele>311</ele>
        <time>2015-03-15T08:36:41.000Z</time>
      </trkpt>
      <trkpt lat="47.49144" lon="6.77329">
        <ele>311</ele>
        <time>2015-03-15T08:36:42.000Z</time>
      </trkpt>
      <trkpt lat="47.49139" lon="6.77331">
        <ele>311</ele>
        <time>2015-03-15T08:36:43.000Z</time>
      </trkpt>
      <trkpt lat="47.49134" lon="6.7733">
        <ele>311</ele>
        <time>2015-03-15T08:36:44.000Z</time>
      </trkpt>
      <trkpt lat="47.49129" lon="6.7733">
        <ele>311</ele>
        <time>2015-03-15T08:36:45.000Z</time>
      </trkpt>
      <trkpt lat="47.49125" lon="6.77331">
        <ele>311</ele>
        <time>2015-03-15T08:36:46.000Z</time>
      </trkpt>
      <trkpt lat="47.49121" lon="6.7733">
        <ele>311</ele>
        <time>2015-03-15T08:36:47.000Z</time>
      </trkpt>
      <trkpt lat="47.49118" lon="6.77331">
        <ele>311</ele>
        <time>2015-03-15T08:36:48.000Z</time>
      </trkpt>
      <trkpt lat="47.49114" lon="6.7733">
        <ele>311</ele>
        <time>2015-03-15T08:36:49.000Z</time>
      </trkpt>
      <trkpt lat="47.49112" lon="6.77329">
        <ele>311</ele>
        <time>2015-03-15T08:36:50.000Z</time>
      </trkpt>
      <trkpt lat="47.49109" lon="6.77329">
        <ele>311</ele>
        <time>2015-03-15T08:36:51.000Z</time>
      </trkpt>
      <trkpt lat="47.49107" lon="6.77327">
        <ele>311</ele>
        <time>2015-03-15T08:36:52.000Z</time>
      </trkpt>
      <trkpt lat="47.49104" lon="6.77324">
        <ele>311</ele>
        <time>2015-03-15T08:36:54.000Z</time>
      </trkpt>
      <trkpt lat="47.49101" lon="6.77323">
        <ele>311</ele>
        <time>2015-03-15T08:36:55.000Z</time>
      </trkpt>
      <trkpt lat="47.49098" lon="6.77323">
        <ele>311</ele>
        <time>2015-03-15T08:36:57.000Z</time>
      </trkpt>
      <trkpt lat="47.49096" lon="6.77324">
        <ele>311</ele>
        <time>2015-03-15T08:36:58.000Z</time>
      </trkpt>
      <trkpt lat="47.49093" lon="6.77325">
        <ele>311</ele>
        <time>2015-03-15T08:37:01.000Z</time>
      </trkpt>
      <trkpt lat="47.49091" lon="6.77326">
        <ele>311</ele>
        <time>2015-03-15T08:37:01.998Z</time>
      </trkpt>
      <trkpt lat="47.49088" lon="6.77325">
        <ele>311</ele>
        <time>2015-03-15T08:37:06.999Z</time>
      </trkpt>
      <trkpt lat="47.49086" lon="6.77325">
        <ele>311</ele>
        <time>2015-03-15T08:37:08.000Z</time>
      </trkpt>
      <trkpt lat="47.49082" lon="6.77325">
        <ele>311</ele>
        <time>2015-03-15T08:37:10.000Z</time>
      </trkpt>
      <trkpt lat="47.4908" lon="6.77325">
        <ele>311</ele>
        <time>2015-03-15T08:37:11.000Z</time>
      </trkpt>
      <trkpt lat="47.49078" lon="6.77325">
        <ele>311</ele>
        <time>2015-03-15T08:37:12.000Z</time>
      </trkpt>
      <trkpt lat="47.49075" lon="6.77325">
        <ele>311</ele>
        <time>2015-03-15T08:37:12.998Z</time>
      </trkpt>
      <trkpt lat="47.49072" lon="6.77325">
        <ele>311</ele>
        <time>2015-03-15T08:37:14.000Z</time>
      </trkpt>
      <trkpt lat="47.49068" lon="6.77324">
        <ele>311</ele>
        <time>2015-03-15T08:37:15.000Z</time>
      </trkpt>
      <trkpt lat="47.49065" lon="6.77324">
        <ele>311</ele>
        <time>2015-03-15T08:37:15.999Z</time>
      </trkpt>
      <trkpt lat="47.4906" lon="6.77324">
        <ele>311</ele>
        <time>2015-03-15T08:37:17.000Z</time>
      </trkpt>
      <trkpt lat="47.49056" lon="6.77324">
        <ele>311</ele>
        <time>2015-03-15T08:37:18.000Z</time>
      </trkpt>
      <trkpt lat="47.49051" lon="6.77324">
        <ele>311</ele>
        <time>2015-03-15T08:37:19.000Z</time>
      </trkpt>
      <trkpt lat="47.49047" lon="6.77323">
        <ele>311</ele>
        <time>2015-03-15T08:37:20.000Z</time>
      </trkpt>
      <trkpt lat="47.49042" lon="6.77323">
        <ele>311</ele>
        <time>2015-03-15T08:37:21.000Z</time>
      </trkpt>
      <trkpt lat="47.49038" lon="6.77322">
        <ele>311</ele>
        <time>2015-03-15T08:37:22.000Z</time>
      </trkpt>
      <trkpt lat="47.49033" lon="6.77319">
        <ele>311</ele>
        <time>2015-03-15T08:37:23.000Z</time>
      </trkpt>
      <trkpt lat="47.49028" lon="6.77319">
        <ele>311</ele>
        <time>2015-03-15T08:37:23.999Z</time>
      </trkpt>
      <trkpt lat="47.49023" lon="6.7732">
        <ele>311</ele>
        <time>2015-03-15T08:37:25.000Z</time>
      </trkpt>
      <trkpt lat="47.49018" lon="6.77321">
        <ele>311</ele>
        <time>2015-03-15T08:37:26.000Z</time>
      </trkpt>
      <trkpt lat="47.49014" lon="6.77319">
        <ele>311</ele>
        <time>2015-03-15T08:37:27.000Z</time>
      </trkpt>
      <trkpt lat="47.4901" lon="6.7732">
        <ele>311</ele>
        <time>2015-03-15T08:37:28.000Z</time>
      </trkpt>
      <trkpt lat="47.49004" lon="6.7732">
        <ele>311</ele>
        <time>2015-03-15T08:37:29.000Z</time>
      </trkpt>
      <trkpt lat="47.48999" lon="6.7732">
        <ele>311</ele>
        <time>2015-03-15T08:37:30.000Z</time>
      </trkpt>
      <trkpt lat="47.48994" lon="6.77319">
        <ele>311</ele>
        <time>2015-03-15T08:37:31.000Z</time>
      </trkpt>
      <trkpt lat="47.48988" lon="6.77317">
        <ele>311</ele>
        <time>2015-03-15T08:37:32.000Z</time>
      </trkpt>
      <trkpt lat="47.48984" lon="6.77318">
        <ele>311</ele>
        <time>2015-03-15T08:37:33.000Z</time>
      </trkpt>
      <trkpt lat="47.48978" lon="6.77316">
        <ele>311</ele>
        <time>2015-03-15T08:37:34.000Z</time>
      </trkpt>
      <trkpt lat="47.48974" lon="6.77315">
        <ele>311</ele>
        <time>2015-03-15T08:37:35.000Z</time>
      </trkpt>
      <trkpt lat="47.48969" lon="6.77315">
        <ele>311</ele>
        <time>2015-03-15T08:37:36.000Z</time>
      </trkpt>
      <trkpt lat="47.48964" lon="6.77316">
        <ele>311</ele>
        <time>2015-03-15T08:37:37.000Z</time>
      </trkpt>
      <trkpt lat="47.48959" lon="6.77316">
        <ele>311</ele>
        <time>2015-03-15T08:37:38.000Z</time>
      </trkpt>
      <trkpt lat="47.48954" lon="6.77314">
        <ele>311</ele>
        <time>2015-03-15T08:37:39.000Z</time>
      </trkpt>
      <trkpt lat="47.4895" lon="6.77312">
        <ele>311</ele>
        <time>2015-03-15T08:37:40.000Z</time>
      </trkpt>
      <trkpt lat="47.48945" lon="6.77311">
        <ele>311</ele>
        <time>2015-03-15T08:37:41.000Z</time>
      </trkpt>
      <trkpt lat="47.4894" lon="6.77307">
        <ele>311</ele>
        <time>2015-03-15T08:37:42.000Z</time>
      </trkpt>
      <trkpt lat="47.48934" lon="6.77304">
        <ele>311</ele>
        <time>2015-03-15T08:37:43.000Z</time>
      </trkpt>
      <trkpt lat="47.4893" lon="6.77304">
        <ele>311</ele>
        <time>2015-03-15T08:37:44.000Z</time>
      </trkpt>
      <trkpt lat="47.48925" lon="6.77301">
        <ele>311</ele>
        <time>2015-03-15T08:37:45.000Z</time>
      </trkpt>
      <trkpt lat="47.4892" lon="6.773">
        <ele>311</ele>
        <time>2015-03-15T08:37:46.000Z</time>
      </trkpt>
      <trkpt lat="47.48914" lon="6.77298">
        <ele>310</ele>
        <time>2015-03-15T08:37:47.000Z</time>
      </trkpt>
      <trkpt lat="47.48909" lon="6.77296">
        <ele>310</ele>
        <time>2015-03-15T08:37:48.000Z</time>
      </trkpt>
      <trkpt lat="47.48903" lon="6.77294">
        <ele>310</ele>
        <time>2015-03-15T08:37:49.000Z</time>
      </trkpt>
      <trkpt lat="47.48897" lon="6.77291">
        <ele>310</ele>
        <time>2015-03-15T08:37:50.000Z</time>
      </trkpt>
      <trkpt lat="47.48891" lon="6.77291">
        <ele>310</ele>
        <time>2015-03-15T08:37:51.000Z</time>
      </trkpt>
      <trkpt lat="47.48885" lon="6.77289">
        <ele>310</ele>
        <time>2015-03-15T08:37:52.000Z</time>
      </trkpt>
      <trkpt lat="47.4888" lon="6.77287">
        <ele>310</ele>
        <time>2015-03-15T08:37:53.000Z</time>
      </trkpt>
      <trkpt lat="47.48876" lon="6.77285">
        <ele>310</ele>
        <time>2015-03-15T08:37:54.000Z</time>
      </trkpt>
      <trkpt lat="47.4887" lon="6.77283">
        <ele>310</ele>
        <time>2015-03-15T08:37:55.000Z</time>
      </trkpt>
      <trkpt lat="47.48864" lon="6.77279">
        <ele>310</ele>
        <time>2015-03-15T08:37:56.000Z</time>
      </trkpt>
      <trkpt lat="47.48859" lon="6.77276">
        <ele>310</ele>
        <time>2015-03-15T08:37:57.000Z</time>
      </trkpt>
      <trkpt lat="47.48854" lon="6.77273">
        <ele>310</ele>
        <time>2015-03-15T08:37:58.000Z</time>
      </trkpt>
      <trkpt lat="47.48849" lon="6.77269">
        <ele>310</ele>
        <time>2015-03-15T08:37:59.000Z</time>
      </trkpt>
      <trkpt lat="47.48843" lon="6.77267">
        <ele>310</ele>
        <time>2015-03-15T08:38:00.000Z</time>
      </trkpt>
      <trkpt lat="47.48838" lon="6.77265">
        <ele>310</ele>
        <time>2015-03-15T08:38:01.000Z</time>
      </trkpt>
      <trkpt lat="47.48831" lon="6.77261">
        <ele>310</ele>
        <time>2015-03-15T08:38:02.000Z</time>
      </trkpt>
      <trkpt lat="47.48826" lon="6.77258">
        <ele>310</ele>
        <time>2015-03-15T08:38:03.000Z</time>
      </trkpt>
      <trkpt lat="47.48821" lon="6.77255">
        <ele>310</ele>
        <time>2015-03-15T08:38:04.000Z</time>
      </trkpt>
      <trkpt lat="47.48816" lon="6.77251">
        <ele>310</ele>
        <time>2015-03-15T08:38:05.000Z</time>
      </trkpt>
      <trkpt lat="47.48811" lon="6.77248">
        <ele>311</ele>
        <time>2015-03-15T08:38:06.000Z</time>
      </trkpt>
      <trkpt lat="47.48806" lon="6.77244">
        <ele>311</ele>
        <time>2015-03-15T08:38:07.000Z</time>
      </trkpt>
      <trkpt lat="47.48801" lon="6.7724">
        <ele>310</ele>
        <time>2015-03-15T08:38:08.000Z</time>
      </trkpt>
      <trkpt lat="47.48796" lon="6.77236">
        <ele>310</ele>
        <time>2015-03-15T08:38:09.000Z</time>
      </trkpt>
      <trkpt lat="47.48791" lon="6.77233">
        <ele>310</ele>
        <time>2015-03-15T08:38:10.000Z</time>
      </trkpt>
      <trkpt lat="47.48786" lon="6.77228">
        <ele>310</ele>
        <time>2015-03-15T08:38:11.000Z</time>
      </trkpt>
      <trkpt lat="47.4878" lon="6.77223">
        <ele>310</ele>
        <time>2015-03-15T08:38:12.000Z</time>
      </trkpt>
      <trkpt lat="47.48776" lon="6.77219">
        <ele>310</ele>
        <time>2015-03-15T08:38:13.000Z</time>
      </trkpt>
      <trkpt lat="47.4877" lon="6.77216">
        <ele>310</ele>
        <time>2015-03-15T08:38:14.000Z</time>
      </trkpt>
      <trkpt lat="47.48764" lon="6.77213">
        <ele>310</ele>
        <time>2015-03-15T08:38:15.000Z</time>
      </trkpt>
      <trkpt lat="47.48759" lon="6.77208">
        <ele>310</ele>
        <time>2015-03-15T08:38:16.000Z</time>
      </trkpt>
      <trkpt lat="47.48754" lon="6.77204">
        <ele>310</ele>
        <time>2015-03-15T08:38:17.000Z</time>
      </trkpt>
      <trkpt lat="47.48749" lon="6.772">
        <ele>310</ele>
        <time>2015-03-15T08:38:18.000Z</time>
      </trkpt>
      <trkpt lat="47.48744" lon="6.77196">
        <ele>310</ele>
        <time>2015-03-15T08:38:19.000Z</time>
      </trkpt>
      <trkpt lat="47.48738" lon="6.77192">
        <ele>310</ele>
        <time>2015-03-15T08:38:20.000Z</time>
      </trkpt>
      <trkpt lat="47.48733" lon="6.77189">
        <ele>310</ele>
        <time>2015-03-15T08:38:21.000Z</time>
      </trkpt>
      <trkpt lat="47.48727" lon="6.77185">
        <ele>310</ele>
        <time>2015-03-15T08:38:22.000Z</time>
      </trkpt>
      <trkpt lat="47.48722" lon="6.77181">
        <ele>310</ele>
        <time>2015-03-15T08:38:23.000Z</time>
      </trkpt>
      <trkpt lat="47.48716" lon="6.77177">
        <ele>310</ele>
        <time>2015-03-15T08:38:24.000Z</time>
      </trkpt>
      <trkpt lat="47.48711" lon="6.77173">
        <ele>311</ele>
        <time>2015-03-15T08:38:25.000Z</time>
      </trkpt>
      <trkpt lat="47.48706" lon="6.77169">
        <ele>311</ele>
        <time>2015-03-15T08:38:26.000Z</time>
      </trkpt>
      <trkpt lat="47.487" lon="6.77164">
        <ele>311</ele>
        <time>2015-03-15T08:38:27.000Z</time>
      </trkpt>
      <trkpt lat="47.48695" lon="6.7716">
        <ele>311</ele>
        <time>2015-03-15T08:38:28.000Z</time>
      </trkpt>
      <trkpt lat="47.4869" lon="6.77155">
        <ele>311</ele>
        <time>2015-03-15T08:38:29.000Z</time>
      </trkpt>
      <trkpt lat="47.48685" lon="6.7715">
        <ele>311</ele>
        <time>2015-03-15T08:38:30.000Z</time>
      </trkpt>
      <trkpt lat="47.4868" lon="6.77144">
        <ele>311</ele>
        <time>2015-03-15T08:38:31.000Z</time>
      </trkpt>
      <trkpt lat="47.48675" lon="6.77139">
        <ele>311</ele>
        <time>2015-03-15T08:38:32.000Z</time>
      </trkpt>
      <trkpt lat="47.4867" lon="6.77134">
        <ele>312</ele>
        <time>2015-03-15T08:38:33.000Z</time>
      </trkpt>
      <trkpt lat="47.48665" lon="6.77129">
        <ele>312</ele>
        <time>2015-03-15T08:38:34.000Z</time>
      </trkpt>
      <trkpt lat="47.48661" lon="6.77124">
        <ele>312</ele>
        <time>2015-03-15T08:38:35.000Z</time>
      </trkpt>
      <trkpt lat="47.48655" lon="6.77119">
        <ele>312</ele>
        <time>2015-03-15T08:38:36.000Z</time>
      </trkpt>
      <trkpt lat="47.4865" lon="6.77114">
        <ele>312</ele>
        <time>2015-03-15T08:38:37.000Z</time>
      </trkpt>
      <trkpt lat="47.48645" lon="6.77108">
        <ele>312</ele>
        <time>2015-03-15T08:38:38.000Z</time>
      </trkpt>
      <trkpt lat="47.48639" lon="6.77103">
        <ele>312</ele>
        <time>2015-03-15T08:38:39.000Z</time>
      </trkpt>
      <trkpt lat="47.48635" lon="6.77097">
        <ele>312</ele>
        <time>2015-03-15T08:38:40.000Z</time>
      </trkpt>
      <trkpt lat="47.48631" lon="6.77092">
        <ele>312</ele>
        <time>2015-03-15T08:38:41.000Z</time>
      </trkpt>
      <trkpt lat="47.48627" lon="6.77088">
        <ele>312</ele>
        <time>2015-03-15T08:38:42.000Z</time>
      </trkpt>
      <trkpt lat="47.48623" lon="6.77085">
        <ele>312</ele>
        <time>2015-03-15T08:38:43.000Z</time>
      </trkpt>
      <trkpt lat="47.48618" lon="6.77083">
        <ele>313</ele>
        <time>2015-03-15T08:38:44.000Z</time>
      </trkpt>
      <trkpt lat="47.48613" lon="6.7708">
        <ele>313</ele>
        <time>2015-03-15T08:38:45.000Z</time>
      </trkpt>
      <trkpt lat="47.48608" lon="6.77077">
        <ele>313</ele>
        <time>2015-03-15T08:38:46.000Z</time>
      </trkpt>
      <trkpt lat="47.48603" lon="6.77073">
        <ele>313</ele>
        <time>2015-03-15T08:38:47.000Z</time>
      </trkpt>
      <trkpt lat="47.48598" lon="6.77069">
        <ele>313</ele>
        <time>2015-03-15T08:38:48.000Z</time>
      </trkpt>
      <trkpt lat="47.48593" lon="6.77066">
        <ele>313</ele>
        <time>2015-03-15T08:38:49.000Z</time>
      </trkpt>
      <trkpt lat="47.48588" lon="6.77063">
        <ele>313</ele>
        <time>2015-03-15T08:38:50.000Z</time>
      </trkpt>
      <trkpt lat="47.48583" lon="6.77058">
        <ele>314</ele>
        <time>2015-03-15T08:38:51.000Z</time>
      </trkpt>
      <trkpt lat="47.48579" lon="6.77054">
        <ele>314</ele>
        <time>2015-03-15T08:38:52.000Z</time>
      </trkpt>
      <trkpt lat="47.48574" lon="6.77054">
        <ele>314</ele>
        <time>2015-03-15T08:38:53.000Z</time>
      </trkpt>
      <trkpt lat="47.48569" lon="6.7705">
        <ele>314</ele>
        <time>2015-03-15T08:38:54.000Z</time>
      </trkpt>
      <trkpt lat="47.48562" lon="6.77045">
        <ele>314</ele>
        <time>2015-03-15T08:38:55.000Z</time>
      </trkpt>
      <trkpt lat="47.48556" lon="6.77044">
        <ele>314</ele>
        <time>2015-03-15T08:38:56.000Z</time>
      </trkpt>
      <trkpt lat="47.4855" lon="6.77041">
        <ele>314</ele>
        <time>2015-03-15T08:38:56.999Z</time>
      </trkpt>
      <trkpt lat="47.48544" lon="6.77036">
        <ele>314</ele>
        <time>2015-03-15T08:38:58.000Z</time>
      </trkpt>
      <trkpt lat="47.48537" lon="6.77032">
        <ele>314</ele>
        <time>2015-03-15T08:38:59.000Z</time>
      </trkpt>
      <trkpt lat="47.48531" lon="6.77027">
        <ele>314</ele>
        <time>2015-03-15T08:39:00.000Z</time>
      </trkpt>
      <trkpt lat="47.48526" lon="6.77023">
        <ele>314</ele>
        <time>2015-03-15T08:39:01.000Z</time>
      </trkpt>
      <trkpt lat="47.4852" lon="6.77018">
        <ele>315</ele>
        <time>2015-03-15T08:39:02.000Z</time>
      </trkpt>
      <trkpt lat="47.48515" lon="6.77014">
        <ele>315</ele>
        <time>2015-03-15T08:39:03.000Z</time>
      </trkpt>
      <trkpt lat="47.48509" lon="6.77009">
        <ele>315</ele>
        <time>2015-03-15T08:39:04.000Z</time>
      </trkpt>
      <trkpt lat="47.48501" lon="6.77005">
        <ele>316</ele>
        <time>2015-03-15T08:39:04.999Z</time>
      </trkpt>
      <trkpt lat="47.48494" lon="6.77001">
        <ele>315</ele>
        <time>2015-03-15T08:39:06.000Z</time>
      </trkpt>
      <trkpt lat="47.48488" lon="6.76998">
        <ele>316</ele>
        <time>2015-03-15T08:39:07.000Z</time>
      </trkpt>
      <trkpt lat="47.48482" lon="6.76994">
        <ele>315</ele>
        <time>2015-03-15T08:39:08.000Z</time>
      </trkpt>
      <trkpt lat="47.48476" lon="6.76992">
        <ele>315</ele>
        <time>2015-03-15T08:39:09.000Z</time>
      </trkpt>
      <trkpt lat="47.48469" lon="6.76988">
        <ele>315</ele>
        <time>2015-03-15T08:39:10.000Z</time>
      </trkpt>
      <trkpt lat="47.48463" lon="6.76985">
        <ele>315</ele>
        <time>2015-03-15T08:39:11.000Z</time>
      </trkpt>
      <trkpt lat="47.48457" lon="6.76982">
        <ele>315</ele>
        <time>2015-03-15T08:39:12.000Z</time>
      </trkpt>
      <trkpt lat="47.48451" lon="6.76979">
        <ele>315</ele>
        <time>2015-03-15T08:39:13.000Z</time>
      </trkpt>
      <trkpt lat="47.48446" lon="6.76974">
        <ele>315</ele>
        <time>2015-03-15T08:39:14.000Z</time>
      </trkpt>
      <trkpt lat="47.4844" lon="6.76971">
        <ele>315</ele>
        <time>2015-03-15T08:39:15.000Z</time>
      </trkpt>
      <trkpt lat="47.48434" lon="6.76966">
        <ele>314</ele>
        <time>2015-03-15T08:39:16.000Z</time>
      </trkpt>
      <trkpt lat="47.48428" lon="6.76965">
        <ele>314</ele>
        <time>2015-03-15T08:39:17.000Z</time>
      </trkpt>
      <trkpt lat="47.48421" lon="6.76962">
        <ele>314</ele>
        <time>2015-03-15T08:39:18.000Z</time>
      </trkpt>
      <trkpt lat="47.48415" lon="6.76959">
        <ele>312</ele>
        <time>2015-03-15T08:39:19.000Z</time>
      </trkpt>
      <trkpt lat="47.48409" lon="6.76955">
        <ele>312</ele>
        <time>2015-03-15T08:39:20.000Z</time>
      </trkpt>
      <trkpt lat="47.48402" lon="6.76951">
        <ele>312</ele>
        <time>2015-03-15T08:39:21.000Z</time>
      </trkpt>
      <trkpt lat="47.48396" lon="6.76947">
        <ele>312</ele>
        <time>2015-03-15T08:39:22.000Z</time>
      </trkpt>
      <trkpt lat="47.48389" lon="6.76943">
        <ele>312</ele>
        <time>2015-03-15T08:39:23.000Z</time>
      </trkpt>
      <trkpt lat="47.48383" lon="6.7694">
        <ele>312</ele>
        <time>2015-03-15T08:39:24.000Z</time>
      </trkpt>
      <trkpt lat="47.48377" lon="6.76935">
        <ele>312</ele>
        <time>2015-03-15T08:39:25.000Z</time>
      </trkpt>
      <trkpt lat="47.4837" lon="6.76931">
        <ele>312</ele>
        <time>2015-03-15T08:39:26.000Z</time>
      </trkpt>
      <trkpt lat="47.48364" lon="6.76929">
        <ele>311</ele>
        <time>2015-03-15T08:39:27.000Z</time>
      </trkpt>
      <trkpt lat="47.48359" lon="6.76927">
        <ele>311</ele>
        <time>2015-03-15T08:39:28.000Z</time>
      </trkpt>
      <trkpt lat="47.48353" lon="6.76923">
        <ele>311</ele>
        <time>2015-03-15T08:39:28.999Z</time>
      </trkpt>
      <trkpt lat="47.48347" lon="6.76919">
        <ele>310</ele>
        <time>2015-03-15T08:39:30.000Z</time>
      </trkpt>
      <trkpt lat="47.48341" lon="6.76915">
        <ele>310</ele>
        <time>2015-03-15T08:39:31.000Z</time>
      </trkpt>
      <trkpt lat="47.48335" lon="6.76912">
        <ele>309</ele>
        <time>2015-03-15T08:39:32.000Z</time>
      </trkpt>
      <trkpt lat="47.48329" lon="6.76906">
        <ele>309</ele>
        <time>2015-03-15T08:39:33.000Z</time>
      </trkpt>
      <trkpt lat="47.48323" lon="6.76901">
        <ele>310</ele>
        <time>2015-03-15T08:39:34.000Z</time>
      </trkpt>
      <trkpt lat="47.48317" lon="6.76894">
        <ele>310</ele>
        <time>2015-03-15T08:39:35.000Z</time>
      </trkpt>
      <trkpt lat="47.48312" lon="6.76889">
        <ele>310</ele>
        <time>2015-03-15T08:39:36.000Z</time>
      </trkpt>
      <trkpt lat="47.48307" lon="6.76884">
        <ele>310</ele>
        <time>2015-03-15T08:39:37.000Z</time>
      </trkpt>
      <trkpt lat="47.48301" lon="6.7688">
        <ele>310</ele>
        <time>2015-03-15T08:39:38.000Z</time>
      </trkpt>
      <trkpt lat="47.48295" lon="6.76875">
        <ele>310</ele>
        <time>2015-03-15T08:39:38.999Z</time>
      </trkpt>
      <trkpt lat="47.4829" lon="6.76868">
        <ele>310</ele>
        <time>2015-03-15T08:39:40.000Z</time>
      </trkpt>
      <trkpt lat="47.48284" lon="6.76862">
        <ele>310</ele>
        <time>2015-03-15T08:39:41.000Z</time>
      </trkpt>
      <trkpt lat="47.4828" lon="6.76855">
        <ele>310</ele>
        <time>2015-03-15T08:39:42.000Z</time>
      </trkpt>
      <trkpt lat="47.48276" lon="6.7685">
        <ele>311</ele>
        <time>2015-03-15T08:39:43.000Z</time>
      </trkpt>
      <trkpt lat="47.4827" lon="6.76842">
        <ele>311</ele>
        <time>2015-03-15T08:39:44.000Z</time>
      </trkpt>
      <trkpt lat="47.48266" lon="6.76836">
        <ele>311</ele>
        <time>2015-03-15T08:39:45.000Z</time>
      </trkpt>
      <trkpt lat="47.48262" lon="6.76831">
        <ele>312</ele>
        <time>2015-03-15T08:39:46.001Z</time>
      </trkpt>
      <trkpt lat="47.48258" lon="6.76823">
        <ele>312</ele>
        <time>2015-03-15T08:39:47.000Z</time>
      </trkpt>
      <trkpt lat="47.48255" lon="6.76818">
        <ele>312</ele>
        <time>2015-03-15T08:39:48.000Z</time>
      </trkpt>
      <trkpt lat="47.48251" lon="6.76812">
        <ele>312</ele>
        <time>2015-03-15T08:39:49.000Z</time>
      </trkpt>
      <trkpt lat="47.48244" lon="6.76808">
        <ele>312</ele>
        <time>2015-03-15T08:39:50.000Z</time>
      </trkpt>
      <trkpt lat="47.48239" lon="6.76803">
        <ele>312</ele>
        <time>2015-03-15T08:39:50.999Z</time>
      </trkpt>
      <trkpt lat="47.48232" lon="6.76801">
        <ele>312</ele>
        <time>2015-03-15T08:39:52.001Z</time>
      </trkpt>
      <trkpt lat="47.48225" lon="6.76798">
        <ele>312</ele>
        <time>2015-03-15T08:39:53.000Z</time>
      </trkpt>
      <trkpt lat="47.48218" lon="6.76795">
        <ele>312</ele>
        <time>2015-03-15T08:39:54.000Z</time>
      </trkpt>
      <trkpt lat="47.48212" lon="6.76791">
        <ele>312</ele>
        <time>2015-03-15T08:39:55.000Z</time>
      </trkpt>
      <trkpt lat="47.48205" lon="6.76788">
        <ele>312</ele>
        <time>2015-03-15T08:39:56.000Z</time>
      </trkpt>
      <trkpt lat="47.48198" lon="6.76784">
        <ele>312</ele>
        <time>2015-03-15T08:39:57.000Z</time>
      </trkpt>
      <trkpt lat="47.48191" lon="6.76781">
        <ele>312</ele>
        <time>2015-03-15T08:39:58.000Z</time>
      </trkpt>
      <trkpt lat="47.48185" lon="6.76775">
        <ele>312</ele>
        <time>2015-03-15T08:39:59.000Z</time>
      </trkpt>
      <trkpt lat="47.48178" lon="6.7677">
        <ele>312</ele>
        <time>2015-03-15T08:40:00.000Z</time>
      </trkpt>
      <trkpt lat="47.48173" lon="6.76764">
        <ele>313</ele>
        <time>2015-03-15T08:40:01.000Z</time>
      </trkpt>
      <trkpt lat="47.48167" lon="6.76757">
        <ele>313</ele>
        <time>2015-03-15T08:40:02.000Z</time>
      </trkpt>
      <trkpt lat="47.48162" lon="6.76749">
        <ele>313</ele>
        <time>2015-03-15T08:40:03.000Z</time>
      </trkpt>
      <trkpt lat="47.48157" lon="6.76741">
        <ele>313</ele>
        <time>2015-03-15T08:40:04.000Z</time>
      </trkpt>
      <trkpt lat="47.48153" lon="6.76734">
        <ele>312</ele>
        <time>2015-03-15T08:40:05.000Z</time>
      </trkpt>
      <trkpt lat="47.48149" lon="6.76725">
        <ele>312</ele>
        <time>2015-03-15T08:40:06.000Z</time>
      </trkpt>
      <trkpt lat="47.48144" lon="6.76717">
        <ele>312</ele>
        <time>2015-03-15T08:40:07.000Z</time>
      </trkpt>
      <trkpt lat="47.48141" lon="6.76709">
        <ele>312</ele>
        <time>2015-03-15T08:40:08.000Z</time>
      </trkpt>
      <trkpt lat="47.48137" lon="6.76701">
        <ele>312</ele>
        <time>2015-03-15T08:40:09.000Z</time>
      </trkpt>
      <trkpt lat="47.48133" lon="6.76693">
        <ele>312</ele>
        <time>2015-03-15T08:40:10.000Z</time>
      </trkpt>
      <trkpt lat="47.48129" lon="6.76686">
        <ele>312</ele>
        <time>2015-03-15T08:40:11.000Z</time>
      </trkpt>
      <trkpt lat="47.48125" lon="6.7668">
        <ele>312</ele>
        <time>2015-03-15T08:40:12.000Z</time>
      </trkpt>
      <trkpt lat="47.4812" lon="6.76674">
        <ele>312</ele>
        <time>2015-03-15T08:40:13.000Z</time>
      </trkpt>
      <trkpt lat="47.48116" lon="6.76668">
        <ele>312</ele>
        <time>2015-03-15T08:40:14.000Z</time>
      </trkpt>
      <trkpt lat="47.48112" lon="6.76662">
        <ele>312</ele>
        <time>2015-03-15T08:40:15.000Z</time>
      </trkpt>
      <trkpt lat="47.48108" lon="6.76654">
        <ele>312</ele>
        <time>2015-03-15T08:40:16.000Z</time>
      </trkpt>
      <trkpt lat="47.48105" lon="6.76648">
        <ele>312</ele>
        <time>2015-03-15T08:40:17.000Z</time>
      </trkpt>
      <trkpt lat="47.48102" lon="6.76642">
        <ele>312</ele>
        <time>2015-03-15T08:40:18.000Z</time>
      </trkpt>
      <trkpt lat="47.48099" lon="6.76635">
        <ele>313</ele>
        <time>2015-03-15T08:40:19.000Z</time>
      </trkpt>
      <trkpt lat="47.48097" lon="6.76628">
        <ele>313</ele>
        <time>2015-03-15T08:40:20.000Z</time>
      </trkpt>
      <trkpt lat="47.48096" lon="6.7662">
        <ele>313</ele>
        <time>2015-03-15T08:40:21.000Z</time>
      </trkpt>
      <trkpt lat="47.48097" lon="6.7661">
        <ele>313</ele>
        <time>2015-03-15T08:40:22.000Z</time>
      </trkpt>
      <trkpt lat="47.48098" lon="6.76601">
        <ele>313</ele>
        <time>2015-03-15T08:40:23.000Z</time>
      </trkpt>
      <trkpt lat="47.48101" lon="6.76592">
        <ele>313</ele>
        <time>2015-03-15T08:40:24.000Z</time>
      </trkpt>
      <trkpt lat="47.48104" lon="6.76585">
        <ele>313</ele>
        <time>2015-03-15T08:40:25.000Z</time>
      </trkpt>
      <trkpt lat="47.48108" lon="6.76579">
        <ele>317</ele>
        <time>2015-03-15T08:40:26.000Z</time>
      </trkpt>
      <trkpt lat="47.48112" lon="6.76573">
        <ele>317</ele>
        <time>2015-03-15T08:40:27.000Z</time>
      </trkpt>
      <trkpt lat="47.48115" lon="6.76566">
        <ele>318</ele>
        <time>2015-03-15T08:40:28.000Z</time>
      </trkpt>
      <trkpt lat="47.48118" lon="6.7656">
        <ele>318</ele>
        <time>2015-03-15T08:40:29.000Z</time>
      </trkpt>
      <trkpt lat="47.48121" lon="6.76555">
        <ele>319</ele>
        <time>2015-03-15T08:40:30.000Z</time>
      </trkpt>
      <trkpt lat="47.48122" lon="6.76551">
        <ele>319</ele>
        <time>2015-03-15T08:40:31.000Z</time>
      </trkpt>
      <trkpt lat="47.48122" lon="6.76546">
        <ele>319</ele>
        <time>2015-03-15T08:40:32.000Z</time>
      </trkpt>
      <trkpt lat="47.4812" lon="6.7654">
        <ele>320</ele>
        <time>2015-03-15T08:40:33.000Z</time>
      </trkpt>
      <trkpt lat="47.48119" lon="6.76535">
        <ele>320</ele>
        <time>2015-03-15T08:40:34.000Z</time>
      </trkpt>
      <trkpt lat="47.48119" lon="6.76531">
        <ele>320</ele>
        <time>2015-03-15T08:40:35.000Z</time>
      </trkpt>
      <trkpt lat="47.48118" lon="6.76526">
        <ele>320</ele>
        <time>2015-03-15T08:40:36.000Z</time>
      </trkpt>
      <trkpt lat="47.48117" lon="6.76522">
        <ele>320</ele>
        <time>2015-03-15T08:40:37.000Z</time>
      </trkpt>
      <trkpt lat="47.48114" lon="6.76518">
        <ele>320</ele>
        <time>2015-03-15T08:40:38.000Z</time>
      </trkpt>
      <trkpt lat="47.48112" lon="6.76514">
        <ele>319</ele>
        <time>2015-03-15T08:40:39.000Z</time>
      </trkpt>
      <trkpt lat="47.48108" lon="6.76513">
        <ele>319</ele>
        <time>2015-03-15T08:40:40.000Z</time>
      </trkpt>
      <trkpt lat="47.48104" lon="6.76514">
        <ele>318</ele>
        <time>2015-03-15T08:40:41.000Z</time>
      </trkpt>
      <trkpt lat="47.481" lon="6.76517">
        <ele>318</ele>
        <time>2015-03-15T08:40:42.000Z</time>
      </trkpt>
      <trkpt lat="47.48096" lon="6.76522">
        <ele>318</ele>
        <time>2015-03-15T08:40:43.000Z</time>
      </trkpt>
      <trkpt lat="47.48089" lon="6.76529">
        <ele>317</ele>
        <time>2015-03-15T08:40:44.000Z</time>
      </trkpt>
      <trkpt lat="47.48084" lon="6.76533">
        <ele>317</ele>
        <time>2015-03-15T08:40:45.000Z</time>
      </trkpt>
      <trkpt lat="47.48079" lon="6.76536">
        <ele>312</ele>
        <time>2015-03-15T08:40:46.000Z</time>
      </trkpt>
      <trkpt lat="47.48074" lon="6.76539">
        <ele>312</ele>
        <time>2015-03-15T08:40:47.000Z</time>
      </trkpt>
      <trkpt lat="47.48069" lon="6.76541">
        <ele>312</ele>
        <time>2015-03-15T08:40:48.000Z</time>
      </trkpt>
      <trkpt lat="47.48065" lon="6.76545">
        <ele>312</ele>
        <time>2015-03-15T08:40:49.000Z</time>
      </trkpt>
      <trkpt lat="47.48062" lon="6.76548">
        <ele>312</ele>
        <time>2015-03-15T08:40:50.000Z</time>
      </trkpt>
      <trkpt lat="47.48056" lon="6.76551">
        <ele>312</ele>
        <time>2015-03-15T08:40:51.000Z</time>
      </trkpt>
      <trkpt lat="47.48052" lon="6.76556">
        <ele>312</ele>
        <time>2015-03-15T08:40:52.000Z</time>
      </trkpt>
      <trkpt lat="47.48047" lon="6.7656">
        <ele>312</ele>
        <time>2015-03-15T08:40:53.000Z</time>
      </trkpt>
      <trkpt lat="47.48043" lon="6.76564">
        <ele>312</ele>
        <time>2015-03-15T08:40:54.000Z</time>
      </trkpt>
      <trkpt lat="47.48039" lon="6.76567">
        <ele>312</ele>
        <time>2015-03-15T08:40:55.000Z</time>
      </trkpt>
      <trkpt lat="47.48034" lon="6.76571">
        <ele>312</ele>
        <time>2015-03-15T08:40:56.000Z</time>
      </trkpt>
      <trkpt lat="47.4803" lon="6.76574">
        <ele>312</ele>
        <time>2015-03-15T08:40:57.000Z</time>
      </trkpt>
      <trkpt lat="47.48024" lon="6.76576">
        <ele>312</ele>
        <time>2015-03-15T08:40:58.000Z</time>
      </trkpt>
      <trkpt lat="47.48019" lon="6.76579">
        <ele>312</ele>
        <time>2015-03-15T08:40:59.000Z</time>
      </trkpt>
      <trkpt lat="47.48014" lon="6.76584">
        <ele>312</ele>
        <time>2015-03-15T08:41:00.001Z</time>
      </trkpt>
      <trkpt lat="47.4801" lon="6.76589">
        <ele>312</ele>
        <time>2015-03-15T08:41:01.000Z</time>
      </trkpt>
      <trkpt lat="47.48004" lon="6.76592">
        <ele>312</ele>
        <time>2015-03-15T08:41:02.000Z</time>
      </trkpt>
      <trkpt lat="47.47999" lon="6.76594">
        <ele>312</ele>
        <time>2015-03-15T08:41:03.000Z</time>
      </trkpt>
      <trkpt lat="47.47994" lon="6.76596">
        <ele>312</ele>
        <time>2015-03-15T08:41:04.000Z</time>
      </trkpt>
      <trkpt lat="47.47989" lon="6.76598">
        <ele>312</ele>
        <time>2015-03-15T08:41:05.000Z</time>
      </trkpt>
      <trkpt lat="47.47985" lon="6.76601">
        <ele>312</ele>
        <time>2015-03-15T08:41:06.000Z</time>
      </trkpt>
      <trkpt lat="47.47981" lon="6.76603">
        <ele>311</ele>
        <time>2015-03-15T08:41:07.000Z</time>
      </trkpt>
      <trkpt lat="47.47977" lon="6.76605">
        <ele>311</ele>
        <time>2015-03-15T08:41:08.000Z</time>
      </trkpt>
      <trkpt lat="47.47974" lon="6.76608">
        <ele>311</ele>
        <time>2015-03-15T08:41:09.000Z</time>
      </trkpt>
      <trkpt lat="47.47971" lon="6.76609">
        <ele>311</ele>
        <time>2015-03-15T08:41:10.000Z</time>
      </trkpt>
      <trkpt lat="47.47968" lon="6.76611">
        <ele>311</ele>
        <time>2015-03-15T08:41:11.000Z</time>
      </trkpt>
      <trkpt lat="47.47965" lon="6.76614">
        <ele>311</ele>
        <time>2015-03-15T08:41:12.000Z</time>
      </trkpt>
      <trkpt lat="47.47962" lon="6.76616">
        <ele>311</ele>
        <time>2015-03-15T08:41:13.000Z</time>
      </trkpt>
      <trkpt lat="47.47958" lon="6.76614">
        <ele>311</ele>
        <time>2015-03-15T08:41:14.000Z</time>
      </trkpt>
      <trkpt lat="47.47954" lon="6.76614">
        <ele>311</ele>
        <time>2015-03-15T08:41:15.000Z</time>
      </trkpt>
      <trkpt lat="47.47949" lon="6.76615">
        <ele>311</ele>
        <time>2015-03-15T08:41:16.000Z</time>
      </trkpt>
      <trkpt lat="47.47944" lon="6.76616">
        <ele>311</ele>
        <time>2015-03-15T08:41:17.000Z</time>
      </trkpt>
      <trkpt lat="47.47939" lon="6.7662">
        <ele>311</ele>
        <time>2015-03-15T08:41:18.000Z</time>
      </trkpt>
      <trkpt lat="47.47934" lon="6.76625">
        <ele>311</ele>
        <time>2015-03-15T08:41:19.000Z</time>
      </trkpt>
      <trkpt lat="47.47929" lon="6.76628">
        <ele>311</ele>
        <time>2015-03-15T08:41:20.000Z</time>
      </trkpt>
      <trkpt lat="47.47923" lon="6.76633">
        <ele>311</ele>
        <time>2015-03-15T08:41:21.000Z</time>
      </trkpt>
      <trkpt lat="47.47917" lon="6.76638">
        <ele>311</ele>
        <time>2015-03-15T08:41:22.000Z</time>
      </trkpt>
      <trkpt lat="47.47911" lon="6.76642">
        <ele>310</ele>
        <time>2015-03-15T08:41:23.000Z</time>
      </trkpt>
      <trkpt lat="47.47905" lon="6.76647">
        <ele>310</ele>
        <time>2015-03-15T08:41:24.000Z</time>
      </trkpt>
      <trkpt lat="47.47899" lon="6.76653">
        <ele>310</ele>
        <time>2015-03-15T08:41:25.000Z</time>
      </trkpt>
      <trkpt lat="47.47893" lon="6.7666">
        <ele>310</ele>
        <time>2015-03-15T08:41:26.000Z</time>
      </trkpt>
      <trkpt lat="47.47889" lon="6.76669">
        <ele>310</ele>
        <time>2015-03-15T08:41:27.000Z</time>
      </trkpt>
      <trkpt lat="47.47884" lon="6.76677">
        <ele>310</ele>
        <time>2015-03-15T08:41:28.000Z</time>
      </trkpt>
      <trkpt lat="47.4788" lon="6.76686">
        <ele>310</ele>
        <time>2015-03-15T08:41:29.000Z</time>
      </trkpt>
      <trkpt lat="47.47877" lon="6.76695">
        <ele>310</ele>
        <time>2015-03-15T08:41:30.000Z</time>
      </trkpt>
      <trkpt lat="47.47874" lon="6.76703">
        <ele>310</ele>
        <time>2015-03-15T08:41:31.000Z</time>
      </trkpt>
      <trkpt lat="47.47869" lon="6.76707">
        <ele>310</ele>
        <time>2015-03-15T08:41:32.000Z</time>
      </trkpt>
      <trkpt lat="47.47864" lon="6.76711">
        <ele>310</ele>
        <time>2015-03-15T08:41:33.001Z</time>
      </trkpt>
      <trkpt lat="47.4786" lon="6.76717">
        <ele>310</ele>
        <time>2015-03-15T08:41:34.000Z</time>
      </trkpt>
      <trkpt lat="47.47858" lon="6.7673">
        <ele>310</ele>
        <time>2015-03-15T08:41:35.000Z</time>
      </trkpt>
      <trkpt lat="47.47854" lon="6.76738">
        <ele>310</ele>
        <time>2015-03-15T08:41:36.000Z</time>
      </trkpt>
      <trkpt lat="47.4785" lon="6.76744">
        <ele>310</ele>
        <time>2015-03-15T08:41:37.000Z</time>
      </trkpt>
      <trkpt lat="47.47848" lon="6.76754">
        <ele>311</ele>
        <time>2015-03-15T08:41:38.000Z</time>
      </trkpt>
      <trkpt lat="47.47844" lon="6.76761">
        <ele>311</ele>
        <time>2015-03-15T08:41:39.000Z</time>
      </trkpt>
      <trkpt lat="47.47841" lon="6.76768">
        <ele>311</ele>
        <time>2015-03-15T08:41:40.000Z</time>
      </trkpt>
      <trkpt lat="47.47836" lon="6.76776">
        <ele>311</ele>
        <time>2015-03-15T08:41:41.000Z</time>
      </trkpt>
      <trkpt lat="47.47833" lon="6.76781">
        <ele>310</ele>
        <time>2015-03-15T08:41:42.000Z</time>
      </trkpt>
      <trkpt lat="47.4783" lon="6.76787">
        <ele>310</ele>
        <time>2015-03-15T08:41:43.000Z</time>
      </trkpt>
      <trkpt lat="47.47827" lon="6.76795">
        <ele>310</ele>
        <time>2015-03-15T08:41:44.000Z</time>
      </trkpt>
      <trkpt lat="47.47823" lon="6.76799">
        <ele>310</ele>
        <time>2015-03-15T08:41:45.000Z</time>
      </trkpt>
      <trkpt lat="47.47817" lon="6.76802">
        <ele>310</ele>
        <time>2015-03-15T08:41:46.000Z</time>
      </trkpt>
      <trkpt lat="47.47811" lon="6.76804">
        <ele>310</ele>
        <time>2015-03-15T08:41:47.000Z</time>
      </trkpt>
      <trkpt lat="47.47808" lon="6.76801">
        <ele>310</ele>
        <time>2015-03-15T08:41:48.000Z</time>
      </trkpt>
      <trkpt lat="47.47803" lon="6.76799">
        <ele>310</ele>
        <time>2015-03-15T08:41:49.000Z</time>
      </trkpt>
      <trkpt lat="47.47799" lon="6.76797">
        <ele>310</ele>
        <time>2015-03-15T08:41:50.000Z</time>
      </trkpt>
      <trkpt lat="47.47795" lon="6.76795">
        <ele>310</ele>
        <time>2015-03-15T08:41:51.000Z</time>
      </trkpt>
      <trkpt lat="47.47791" lon="6.76794">
        <ele>311</ele>
        <time>2015-03-15T08:41:52.000Z</time>
      </trkpt>
      <trkpt lat="47.47788" lon="6.76793">
        <ele>311</ele>
        <time>2015-03-15T08:41:53.000Z</time>
      </trkpt>
      <trkpt lat="47.47784" lon="6.76795">
        <ele>311</ele>
        <time>2015-03-15T08:41:54.000Z</time>
      </trkpt>
      <trkpt lat="47.47777" lon="6.76797">
        <ele>311</ele>
        <time>2015-03-15T08:41:55.000Z</time>
      </trkpt>
      <trkpt lat="47.47774" lon="6.76802">
        <ele>311</ele>
        <time>2015-03-15T08:41:56.000Z</time>
      </trkpt>
      <trkpt lat="47.47769" lon="6.76801">
        <ele>311</ele>
        <time>2015-03-15T08:41:57.000Z</time>
      </trkpt>
      <trkpt lat="47.47766" lon="6.76802">
        <ele>311</ele>
        <time>2015-03-15T08:41:58.000Z</time>
      </trkpt>
      <trkpt lat="47.47763" lon="6.76802">
        <ele>311</ele>
        <time>2015-03-15T08:41:59.000Z</time>
      </trkpt>
      <trkpt lat="47.47759" lon="6.76802">
        <ele>311</ele>
        <time>2015-03-15T08:42:01.000Z</time>
      </trkpt>
      <trkpt lat="47.47752" lon="6.76801">
        <ele>311</ele>
        <time>2015-03-15T08:42:02.000Z</time>
      </trkpt>
      <trkpt lat="47.47747" lon="6.768">
        <ele>311</ele>
        <time>2015-03-15T08:42:03.000Z</time>
      </trkpt>
      <trkpt lat="47.47742" lon="6.76803">
        <ele>311</ele>
        <time>2015-03-15T08:42:04.000Z</time>
      </trkpt>
      <trkpt lat="47.47737" lon="6.7681">
        <ele>311</ele>
        <time>2015-03-15T08:42:05.000Z</time>
      </trkpt>
      <trkpt lat="47.47732" lon="6.76817">
        <ele>311</ele>
        <time>2015-03-15T08:42:06.000Z</time>
      </trkpt>
      <trkpt lat="47.47728" lon="6.76825">
        <ele>311</ele>
        <time>2015-03-15T08:42:07.000Z</time>
      </trkpt>
      <trkpt lat="47.47724" lon="6.76833">
        <ele>311</ele>
        <time>2015-03-15T08:42:07.998Z</time>
      </trkpt>
      <trkpt lat="47.47721" lon="6.76841">
        <ele>311</ele>
        <time>2015-03-15T08:42:09.000Z</time>
      </trkpt>
      <trkpt lat="47.47719" lon="6.76851">
        <ele>311</ele>
        <time>2015-03-15T08:42:10.000Z</time>
      </trkpt>
      <trkpt lat="47.47716" lon="6.7686">
        <ele>311</ele>
        <time>2015-03-15T08:42:11.001Z</time>
      </trkpt>
      <trkpt lat="47.47713" lon="6.76868">
        <ele>311</ele>
        <time>2015-03-15T08:42:12.000Z</time>
      </trkpt>
      <trkpt lat="47.4771" lon="6.76875">
        <ele>311</ele>
        <time>2015-03-15T08:42:13.000Z</time>
      </trkpt>
      <trkpt lat="47.47706" lon="6.76882">
        <ele>311</ele>
        <time>2015-03-15T08:42:14.000Z</time>
      </trkpt>
      <trkpt lat="47.47703" lon="6.7689">
        <ele>311</ele>
        <time>2015-03-15T08:42:15.000Z</time>
      </trkpt>
      <trkpt lat="47.477" lon="6.76898">
        <ele>311</ele>
        <time>2015-03-15T08:42:16.000Z</time>
      </trkpt>
      <trkpt lat="47.47698" lon="6.76905">
        <ele>311</ele>
        <time>2015-03-15T08:42:17.000Z</time>
      </trkpt>
      <trkpt lat="47.47695" lon="6.76913">
        <ele>311</ele>
        <time>2015-03-15T08:42:18.000Z</time>
      </trkpt>
      <trkpt lat="47.47691" lon="6.76919">
        <ele>311</ele>
        <time>2015-03-15T08:42:19.000Z</time>
      </trkpt>
      <trkpt lat="47.47687" lon="6.76925">
        <ele>311</ele>
        <time>2015-03-15T08:42:20.000Z</time>
      </trkpt>
      <trkpt lat="47.47683" lon="6.7693">
        <ele>311</ele>
        <time>2015-03-15T08:42:21.000Z</time>
      </trkpt>
      <trkpt lat="47.47679" lon="6.76937">
        <ele>311</ele>
        <time>2015-03-15T08:42:22.000Z</time>
      </trkpt>
      <trkpt lat="47.47676" lon="6.76944">
        <ele>311</ele>
        <time>2015-03-15T08:42:23.000Z</time>
      </trkpt>
      <trkpt lat="47.47673" lon="6.7695">
        <ele>311</ele>
        <time>2015-03-15T08:42:24.000Z</time>
      </trkpt>
      <trkpt lat="47.47671" lon="6.76956">
        <ele>311</ele>
        <time>2015-03-15T08:42:25.000Z</time>
      </trkpt>
      <trkpt lat="47.47668" lon="6.76962">
        <ele>311</ele>
        <time>2015-03-15T08:42:26.000Z</time>
      </trkpt>
      <trkpt lat="47.47665" lon="6.76967">
        <ele>311</ele>
        <time>2015-03-15T08:42:27.000Z</time>
      </trkpt>
      <trkpt lat="47.47663" lon="6.76974">
        <ele>311</ele>
        <time>2015-03-15T08:42:28.000Z</time>
      </trkpt>
      <trkpt lat="47.4766" lon="6.76977">
        <ele>311</ele>
        <time>2015-03-15T08:42:29.000Z</time>
      </trkpt>
      <trkpt lat="47.47658" lon="6.76981">
        <ele>311</ele>
        <time>2015-03-15T08:42:30.000Z</time>
      </trkpt>
      <trkpt lat="47.47656" lon="6.76985">
        <ele>311</ele>
        <time>2015-03-15T08:42:31.000Z</time>
      </trkpt>
      <trkpt lat="47.47655" lon="6.76989">
        <ele>311</ele>
        <time>2015-03-15T08:42:32.000Z</time>
      </trkpt>
      <trkpt lat="47.47653" lon="6.76994">
        <ele>311</ele>
        <time>2015-03-15T08:42:33.000Z</time>
      </trkpt>
      <trkpt lat="47.47651" lon="6.76997">
        <ele>311</ele>
        <time>2015-03-15T08:42:34.000Z</time>
      </trkpt>
      <trkpt lat="47.4765" lon="6.77001">
        <ele>311</ele>
        <time>2015-03-15T08:42:35.000Z</time>
      </trkpt>
      <trkpt lat="47.47649" lon="6.77005">
        <ele>311</ele>
        <time>2015-03-15T08:42:36.000Z</time>
      </trkpt>
      <trkpt lat="47.47648" lon="6.7701">
        <ele>311</ele>
        <time>2015-03-15T08:42:37.000Z</time>
      </trkpt>
      <trkpt lat="47.47647" lon="6.77014">
        <ele>311</ele>
        <time>2015-03-15T08:42:38.000Z</time>
      </trkpt>
      <trkpt lat="47.47647" lon="6.77019">
        <ele>311</ele>
        <time>2015-03-15T08:42:39.000Z</time>
      </trkpt>
      <trkpt lat="47.47646" lon="6.77023">
        <ele>311</ele>
        <time>2015-03-15T08:42:40.000Z</time>
      </trkpt>
      <trkpt lat="47.47646" lon="6.77029">
        <ele>311</ele>
        <time>2015-03-15T08:42:41.000Z</time>
      </trkpt>
      <trkpt lat="47.47646" lon="6.77034">
        <ele>311</ele>
        <time>2015-03-15T08:42:42.000Z</time>
      </trkpt>
      <trkpt lat="47.47646" lon="6.77037">
        <ele>311</ele>
        <time>2015-03-15T08:42:43.000Z</time>
      </trkpt>
      <trkpt lat="47.47645" lon="6.77041">
        <ele>311</ele>
        <time>2015-03-15T08:42:44.000Z</time>
      </trkpt>
      <trkpt lat="47.47644" lon="6.77045">
        <ele>311</ele>
        <time>2015-03-15T08:42:45.000Z</time>
      </trkpt>
      <trkpt lat="47.47643" lon="6.77048">
        <ele>311</ele>
        <time>2015-03-15T08:42:46.000Z</time>
      </trkpt>
      <trkpt lat="47.47643" lon="6.77052">
        <ele>311</ele>
        <time>2015-03-15T08:42:47.000Z</time>
      </trkpt>
      <trkpt lat="47.47642" lon="6.77057">
        <ele>311</ele>
        <time>2015-03-15T08:42:48.000Z</time>
      </trkpt>
      <trkpt lat="47.47642" lon="6.77062">
        <ele>311</ele>
        <time>2015-03-15T08:42:49.000Z</time>
      </trkpt>
      <trkpt lat="47.47642" lon="6.77066">
        <ele>311</ele>
        <time>2015-03-15T08:42:50.000Z</time>
      </trkpt>
      <trkpt lat="47.47641" lon="6.77071">
        <ele>311</ele>
        <time>2015-03-15T08:42:51.000Z</time>
      </trkpt>
      <trkpt lat="47.47641" lon="6.77075">
        <ele>311</ele>
        <time>2015-03-15T08:42:52.000Z</time>
      </trkpt>
      <trkpt lat="47.47639" lon="6.77084">
        <ele>311</ele>
        <time>2015-03-15T08:42:53.000Z</time>
      </trkpt>
      <trkpt lat="47.47638" lon="6.77089">
        <ele>311</ele>
        <time>2015-03-15T08:42:54.000Z</time>
      </trkpt>
      <trkpt lat="47.47638" lon="6.771">
        <ele>310</ele>
        <time>2015-03-15T08:42:55.000Z</time>
      </trkpt>
      <trkpt lat="47.47637" lon="6.77109">
        <ele>310</ele>
        <time>2015-03-15T08:42:56.000Z</time>
      </trkpt>
      <trkpt lat="47.47635" lon="6.7712">
        <ele>310</ele>
        <time>2015-03-15T08:42:57.000Z</time>
      </trkpt>
      <trkpt lat="47.47634" lon="6.7713">
        <ele>310</ele>
        <time>2015-03-15T08:42:58.000Z</time>
      </trkpt>
      <trkpt lat="47.4763" lon="6.77135">
        <ele>310</ele>
        <time>2015-03-15T08:42:59.000Z</time>
      </trkpt>
      <trkpt lat="47.47626" lon="6.77143">
        <ele>310</ele>
        <time>2015-03-15T08:43:00.000Z</time>
      </trkpt>
      <trkpt lat="47.47623" lon="6.77151">
        <ele>310</ele>
        <time>2015-03-15T08:43:01.000Z</time>
      </trkpt>
      <trkpt lat="47.4762" lon="6.7716">
        <ele>310</ele>
        <time>2015-03-15T08:43:02.000Z</time>
      </trkpt>
      <trkpt lat="47.47616" lon="6.77169">
        <ele>310</ele>
        <time>2015-03-15T08:43:03.000Z</time>
      </trkpt>
      <trkpt lat="47.47611" lon="6.77175">
        <ele>310</ele>
        <time>2015-03-15T08:43:04.000Z</time>
      </trkpt>
      <trkpt lat="47.47606" lon="6.77178">
        <ele>310</ele>
        <time>2015-03-15T08:43:05.000Z</time>
      </trkpt>
      <trkpt lat="47.476" lon="6.77178">
        <ele>310</ele>
        <time>2015-03-15T08:43:06.000Z</time>
      </trkpt>
      <trkpt lat="47.47594" lon="6.77175">
        <ele>309</ele>
        <time>2015-03-15T08:43:07.000Z</time>
      </trkpt>
      <trkpt lat="47.47587" lon="6.7717">
        <ele>309</ele>
        <time>2015-03-15T08:43:08.000Z</time>
      </trkpt>
      <trkpt lat="47.47581" lon="6.77165">
        <ele>309</ele>
        <time>2015-03-15T08:43:09.000Z</time>
      </trkpt>
      <trkpt lat="47.47577" lon="6.7716">
        <ele>309</ele>
        <time>2015-03-15T08:43:10.000Z</time>
      </trkpt>
      <trkpt lat="47.47573" lon="6.77157">
        <ele>309</ele>
        <time>2015-03-15T08:43:11.000Z</time>
      </trkpt>
      <trkpt lat="47.47569" lon="6.77153">
        <ele>310</ele>
        <time>2015-03-15T08:43:11.999Z</time>
      </trkpt>
      <trkpt lat="47.47563" lon="6.77148">
        <ele>310</ele>
        <time>2015-03-15T08:43:13.000Z</time>
      </trkpt>
      <trkpt lat="47.47558" lon="6.77143">
        <ele>310</ele>
        <time>2015-03-15T08:43:14.000Z</time>
      </trkpt>
      <trkpt lat="47.47552" lon="6.77139">
        <ele>310</ele>
        <time>2015-03-15T08:43:15.000Z</time>
      </trkpt>
      <trkpt lat="47.47548" lon="6.77135">
        <ele>310</ele>
        <time>2015-03-15T08:43:16.000Z</time>
      </trkpt>
      <trkpt lat="47.47543" lon="6.77129">
        <ele>310</ele>
        <time>2015-03-15T08:43:17.000Z</time>
      </trkpt>
      <trkpt lat="47.47538" lon="6.7713">
        <ele>310</ele>
        <time>2015-03-15T08:43:18.000Z</time>
      </trkpt>
      <trkpt lat="47.47529" lon="6.77133">
        <ele>310</ele>
        <time>2015-03-15T08:43:19.000Z</time>
      </trkpt>
      <trkpt lat="47.47523" lon="6.77135">
        <ele>310</ele>
        <time>2015-03-15T08:43:20.002Z</time>
      </trkpt>
      <trkpt lat="47.47518" lon="6.77137">
        <ele>310</ele>
        <time>2015-03-15T08:43:21.000Z</time>
      </trkpt>
      <trkpt lat="47.47515" lon="6.77141">
        <ele>310</ele>
        <time>2015-03-15T08:43:22.000Z</time>
      </trkpt>
      <trkpt lat="47.47511" lon="6.77148">
        <ele>310</ele>
        <time>2015-03-15T08:43:23.000Z</time>
      </trkpt>
      <trkpt lat="47.4751" lon="6.77157">
        <ele>309</ele>
        <time>2015-03-15T08:43:24.000Z</time>
      </trkpt>
      <trkpt lat="47.47511" lon="6.77168">
        <ele>310</ele>
        <time>2015-03-15T08:43:25.000Z</time>
      </trkpt>
      <trkpt lat="47.4751" lon="6.77175">
        <ele>310</ele>
        <time>2015-03-15T08:43:26.000Z</time>
      </trkpt>
      <trkpt lat="47.47509" lon="6.77184">
        <ele>310</ele>
        <time>2015-03-15T08:43:27.000Z</time>
      </trkpt>
      <trkpt lat="47.47508" lon="6.77188">
        <ele>310</ele>
        <time>2015-03-15T08:43:28.000Z</time>
      </trkpt>
      <trkpt lat="47.47506" lon="6.77194">
        <ele>310</ele>
        <time>2015-03-15T08:43:29.000Z</time>
      </trkpt>
      <trkpt lat="47.47503" lon="6.77201">
        <ele>310</ele>
        <time>2015-03-15T08:43:30.000Z</time>
      </trkpt>
      <trkpt lat="47.475" lon="6.77209">
        <ele>311</ele>
        <time>2015-03-15T08:43:31.000Z</time>
      </trkpt>
      <trkpt lat="47.47499" lon="6.77216">
        <ele>312</ele>
        <time>2015-03-15T08:43:32.000Z</time>
      </trkpt>
      <trkpt lat="47.47496" lon="6.77223">
        <ele>312</ele>
        <time>2015-03-15T08:43:33.000Z</time>
      </trkpt>
      <trkpt lat="47.47493" lon="6.77228">
        <ele>312</ele>
        <time>2015-03-15T08:43:34.000Z</time>
      </trkpt>
      <trkpt lat="47.47491" lon="6.77234">
        <ele>312</ele>
        <time>2015-03-15T08:43:35.000Z</time>
      </trkpt>
      <trkpt lat="47.47487" lon="6.77239">
        <ele>312</ele>
        <time>2015-03-15T08:43:36.000Z</time>
      </trkpt>
      <trkpt lat="47.47484" lon="6.77244">
        <ele>312</ele>
        <time>2015-03-15T08:43:37.000Z</time>
      </trkpt>
      <trkpt lat="47.47481" lon="6.77249">
        <ele>312</ele>
        <time>2015-03-15T08:43:38.000Z</time>
      </trkpt>
      <trkpt lat="47.47479" lon="6.77255">
        <ele>313</ele>
        <time>2015-03-15T08:43:39.000Z</time>
      </trkpt>
      <trkpt lat="47.47476" lon="6.77257">
        <ele>314</ele>
        <time>2015-03-15T08:43:40.000Z</time>
      </trkpt>
      <trkpt lat="47.47473" lon="6.7726">
        <ele>314</ele>
        <time>2015-03-15T08:43:41.001Z</time>
      </trkpt>
      <trkpt lat="47.47472" lon="6.77264">
        <ele>314</ele>
        <time>2015-03-15T08:43:42.000Z</time>
      </trkpt>
      <trkpt lat="47.47471" lon="6.77268">
        <ele>314</ele>
        <time>2015-03-15T08:43:43.000Z</time>
      </trkpt>
      <trkpt lat="47.47471" lon="6.77275">
        <ele>314</ele>
        <time>2015-03-15T08:43:44.000Z</time>
      </trkpt>
      <trkpt lat="47.47471" lon="6.77279">
        <ele>314</ele>
        <time>2015-03-15T08:43:45.000Z</time>
      </trkpt>
      <trkpt lat="47.47473" lon="6.77284">
        <ele>314</ele>
        <time>2015-03-15T08:43:46.000Z</time>
      </trkpt>
      <trkpt lat="47.47475" lon="6.77289">
        <ele>314</ele>
        <time>2015-03-15T08:43:47.000Z</time>
      </trkpt>
      <trkpt lat="47.47479" lon="6.77295">
        <ele>314</ele>
        <time>2015-03-15T08:43:48.000Z</time>
      </trkpt>
      <trkpt lat="47.47482" lon="6.773">
        <ele>314</ele>
        <time>2015-03-15T08:43:49.000Z</time>
      </trkpt>
      <trkpt lat="47.47484" lon="6.77305">
        <ele>314</ele>
        <time>2015-03-15T08:43:50.000Z</time>
      </trkpt>
      <trkpt lat="47.4749" lon="6.77312">
        <ele>315</ele>
        <time>2015-03-15T08:43:51.000Z</time>
      </trkpt>
      <trkpt lat="47.47493" lon="6.77319">
        <ele>315</ele>
        <time>2015-03-15T08:43:52.000Z</time>
      </trkpt>
      <trkpt lat="47.47496" lon="6.77324">
        <ele>315</ele>
        <time>2015-03-15T08:43:53.000Z</time>
      </trkpt>
      <trkpt lat="47.47499" lon="6.77329">
        <ele>315</ele>
        <time>2015-03-15T08:43:53.999Z</time>
      </trkpt>
      <trkpt lat="47.47505" lon="6.77337">
        <ele>315</ele>
        <time>2015-03-15T08:43:55.000Z</time>
      </trkpt>
      <trkpt lat="47.47507" lon="6.77342">
        <ele>315</ele>
        <time>2015-03-15T08:43:56.000Z</time>
      </trkpt>
      <trkpt lat="47.4751" lon="6.77347">
        <ele>315</ele>
        <time>2015-03-15T08:43:57.000Z</time>
      </trkpt>
      <trkpt lat="47.47513" lon="6.77351">
        <ele>315</ele>
        <time>2015-03-15T08:43:58.000Z</time>
      </trkpt>
      <trkpt lat="47.47518" lon="6.77357">
        <ele>314</ele>
        <time>2015-03-15T08:43:59.000Z</time>
      </trkpt>
      <trkpt lat="47.47522" lon="6.77362">
        <ele>314</ele>
        <time>2015-03-15T08:44:00.000Z</time>
      </trkpt>
      <trkpt lat="47.47526" lon="6.77367">
        <ele>314</ele>
        <time>2015-03-15T08:44:01.000Z</time>
      </trkpt>
      <trkpt lat="47.47529" lon="6.77372">
        <ele>314</ele>
        <time>2015-03-15T08:44:02.000Z</time>
      </trkpt>
      <trkpt lat="47.47532" lon="6.77378">
        <ele>314</ele>
        <time>2015-03-15T08:44:03.000Z</time>
      </trkpt>
      <trkpt lat="47.47535" lon="6.77383">
        <ele>314</ele>
        <time>2015-03-15T08:44:04.000Z</time>
      </trkpt>
      <trkpt lat="47.47538" lon="6.77388">
        <ele>314</ele>
        <time>2015-03-15T08:44:05.000Z</time>
      </trkpt>
      <trkpt lat="47.47541" lon="6.77394">
        <ele>314</ele>
        <time>2015-03-15T08:44:06.000Z</time>
      </trkpt>
      <trkpt lat="47.47544" lon="6.77399">
        <ele>314</ele>
        <time>2015-03-15T08:44:07.000Z</time>
      </trkpt>
      <trkpt lat="47.47539" lon="6.77405">
        <ele>315</ele>
        <time>2015-03-15T08:44:08.000Z</time>
      </trkpt>
      <trkpt lat="47.47537" lon="6.7741">
        <ele>315</ele>
        <time>2015-03-15T08:44:09.000Z</time>
      </trkpt>
      <trkpt lat="47.47534" lon="6.77411">
        <ele>315</ele>
        <time>2015-03-15T08:44:10.000Z</time>
      </trkpt>
      <trkpt lat="47.47531" lon="6.77414">
        <ele>315</ele>
        <time>2015-03-15T08:44:11.000Z</time>
      </trkpt>
      <trkpt lat="47.47528" lon="6.77418">
        <ele>316</ele>
        <time>2015-03-15T08:44:12.000Z</time>
      </trkpt>
      <trkpt lat="47.47526" lon="6.77421">
        <ele>316</ele>
        <time>2015-03-15T08:44:13.000Z</time>
      </trkpt>
      <trkpt lat="47.47523" lon="6.77425">
        <ele>316</ele>
        <time>2015-03-15T08:44:14.000Z</time>
      </trkpt>
      <trkpt lat="47.4752" lon="6.77428">
        <ele>316</ele>
        <time>2015-03-15T08:44:15.000Z</time>
      </trkpt>
      <trkpt lat="47.47517" lon="6.77431">
        <ele>316</ele>
        <time>2015-03-15T08:44:16.000Z</time>
      </trkpt>
      <trkpt lat="47.47515" lon="6.77434">
        <ele>316</ele>
        <time>2015-03-15T08:44:17.000Z</time>
      </trkpt>
      <trkpt lat="47.47512" lon="6.77437">
        <ele>316</ele>
        <time>2015-03-15T08:44:18.000Z</time>
      </trkpt>
      <trkpt lat="47.4751" lon="6.77441">
        <ele>316</ele>
        <time>2015-03-15T08:44:19.000Z</time>
      </trkpt>
      <trkpt lat="47.47508" lon="6.77444">
        <ele>316</ele>
        <time>2015-03-15T08:44:20.000Z</time>
      </trkpt>
      <trkpt lat="47.47506" lon="6.77449">
        <ele>316</ele>
        <time>2015-03-15T08:44:21.000Z</time>
      </trkpt>
      <trkpt lat="47.47504" lon="6.77453">
        <ele>316</ele>
        <time>2015-03-15T08:44:22.000Z</time>
      </trkpt>
      <trkpt lat="47.47503" lon="6.77457">
        <ele>316</ele>
        <time>2015-03-15T08:44:23.000Z</time>
      </trkpt>
      <trkpt lat="47.47501" lon="6.77461">
        <ele>316</ele>
        <time>2015-03-15T08:44:24.000Z</time>
      </trkpt>
      <trkpt lat="47.47499" lon="6.77465">
        <ele>317</ele>
        <time>2015-03-15T08:44:25.000Z</time>
      </trkpt>
      <trkpt lat="47.47497" lon="6.77469">
        <ele>317</ele>
        <time>2015-03-15T08:44:26.000Z</time>
      </trkpt>
      <trkpt lat="47.47495" lon="6.77473">
        <ele>317</ele>
        <time>2015-03-15T08:44:27.000Z</time>
      </trkpt>
      <trkpt lat="47.47492" lon="6.77477">
        <ele>317</ele>
        <time>2015-03-15T08:44:28.000Z</time>
      </trkpt>
      <trkpt lat="47.4749" lon="6.77481">
        <ele>317</ele>
        <time>2015-03-15T08:44:29.000Z</time>
      </trkpt>
      <trkpt lat="47.47487" lon="6.77485">
        <ele>317</ele>
        <time>2015-03-15T08:44:30.000Z</time>
      </trkpt>
      <trkpt lat="47.47485" lon="6.7749">
        <ele>317</ele>
        <time>2015-03-15T08:44:31.000Z</time>
      </trkpt>
      <trkpt lat="47.47484" lon="6.77494">
        <ele>317</ele>
        <time>2015-03-15T08:44:32.000Z</time>
      </trkpt>
      <trkpt lat="47.47481" lon="6.77499">
        <ele>317</ele>
        <time>2015-03-15T08:44:33.000Z</time>
      </trkpt>
      <trkpt lat="47.47479" lon="6.77504">
        <ele>318</ele>
        <time>2015-03-15T08:44:34.000Z</time>
      </trkpt>
      <trkpt lat="47.47477" lon="6.77509">
        <ele>318</ele>
        <time>2015-03-15T08:44:35.000Z</time>
      </trkpt>
      <trkpt lat="47.47474" lon="6.77514">
        <ele>318</ele>
        <time>2015-03-15T08:44:36.000Z</time>
      </trkpt>
      <trkpt lat="47.47472" lon="6.77519">
        <ele>318</ele>
        <time>2015-03-15T08:44:37.000Z</time>
      </trkpt>
      <trkpt lat="47.4747" lon="6.77523">
        <ele>318</ele>
        <time>2015-03-15T08:44:38.000Z</time>
      </trkpt>
      <trkpt lat="47.47467" lon="6.77526">
        <ele>318</ele>
        <time>2015-03-15T08:44:39.000Z</time>
      </trkpt>
      <trkpt lat="47.47464" lon="6.7753">
        <ele>319</ele>
        <time>2015-03-15T08:44:40.000Z</time>
      </trkpt>
      <trkpt lat="47.47461" lon="6.77533">
        <ele>319</ele>
        <time>2015-03-15T08:44:41.000Z</time>
      </trkpt>
      <trkpt lat="47.47458" lon="6.77535">
        <ele>319</ele>
        <time>2015-03-15T08:44:42.000Z</time>
      </trkpt>
      <trkpt lat="47.47454" lon="6.77537">
        <ele>319</ele>
        <time>2015-03-15T08:44:43.000Z</time>
      </trkpt>
      <trkpt lat="47.4745" lon="6.77539">
        <ele>319</ele>
        <time>2015-03-15T08:44:44.000Z</time>
      </trkpt>
      <trkpt lat="47.47446" lon="6.7754">
        <ele>319</ele>
        <time>2015-03-15T08:44:45.000Z</time>
      </trkpt>
      <trkpt lat="47.47443" lon="6.77541">
        <ele>319</ele>
        <time>2015-03-15T08:44:46.000Z</time>
      </trkpt>
      <trkpt lat="47.47439" lon="6.77543">
        <ele>319</ele>
        <time>2015-03-15T08:44:47.000Z</time>
      </trkpt>
      <trkpt lat="47.47436" lon="6.77544">
        <ele>319</ele>
        <time>2015-03-15T08:44:48.000Z</time>
      </trkpt>
      <trkpt lat="47.47432" lon="6.77546">
        <ele>319</ele>
        <time>2015-03-15T08:44:49.000Z</time>
      </trkpt>
      <trkpt lat="47.47428" lon="6.77548">
        <ele>319</ele>
        <time>2015-03-15T08:44:50.000Z</time>
      </trkpt>
      <trkpt lat="47.47424" lon="6.77549">
        <ele>319</ele>
        <time>2015-03-15T08:44:51.000Z</time>
      </trkpt>
      <trkpt lat="47.47421" lon="6.77551">
        <ele>319</ele>
        <time>2015-03-15T08:44:52.000Z</time>
      </trkpt>
      <trkpt lat="47.47417" lon="6.77553">
        <ele>319</ele>
        <time>2015-03-15T08:44:53.000Z</time>
      </trkpt>
      <trkpt lat="47.47414" lon="6.77554">
        <ele>321</ele>
        <time>2015-03-15T08:44:54.000Z</time>
      </trkpt>
      <trkpt lat="47.4741" lon="6.77556">
        <ele>321</ele>
        <time>2015-03-15T08:44:55.000Z</time>
      </trkpt>
      <trkpt lat="47.47406" lon="6.77557">
        <ele>322</ele>
        <time>2015-03-15T08:44:56.000Z</time>
      </trkpt>
      <trkpt lat="47.47402" lon="6.77559">
        <ele>322</ele>
        <time>2015-03-15T08:44:57.000Z</time>
      </trkpt>
      <trkpt lat="47.47398" lon="6.7756">
        <ele>322</ele>
        <time>2015-03-15T08:44:58.000Z</time>
      </trkpt>
      <trkpt lat="47.47394" lon="6.77561">
        <ele>322</ele>
        <time>2015-03-15T08:44:59.000Z</time>
      </trkpt>
      <trkpt lat="47.4739" lon="6.77561">
        <ele>322</ele>
        <time>2015-03-15T08:45:00.001Z</time>
      </trkpt>
      <trkpt lat="47.47387" lon="6.7756">
        <ele>322</ele>
        <time>2015-03-15T08:45:01.000Z</time>
      </trkpt>
      <trkpt lat="47.47383" lon="6.7756">
        <ele>322</ele>
        <time>2015-03-15T08:45:02.000Z</time>
      </trkpt>
      <trkpt lat="47.4738" lon="6.7756">
        <ele>322</ele>
        <time>2015-03-15T08:45:03.000Z</time>
      </trkpt>
      <trkpt lat="47.47377" lon="6.7756">
        <ele>322</ele>
        <time>2015-03-15T08:45:04.001Z</time>
      </trkpt>
      <trkpt lat="47.47373" lon="6.77561">
        <ele>322</ele>
        <time>2015-03-15T08:45:05.000Z</time>
      </trkpt>
      <trkpt lat="47.47368" lon="6.77565">
        <ele>322</ele>
        <time>2015-03-15T08:45:06.000Z</time>
      </trkpt>
      <trkpt lat="47.47365" lon="6.77566">
        <ele>323</ele>
        <time>2015-03-15T08:45:07.000Z</time>
      </trkpt>
      <trkpt lat="47.47362" lon="6.77567">
        <ele>323</ele>
        <time>2015-03-15T08:45:08.000Z</time>
      </trkpt>
      <trkpt lat="47.47359" lon="6.77567">
        <ele>323</ele>
        <time>2015-03-15T08:45:10.000Z</time>
      </trkpt>
      <trkpt lat="47.47356" lon="6.77567">
        <ele>323</ele>
        <time>2015-03-15T08:45:11.001Z</time>
      </trkpt>
      <trkpt lat="47.47352" lon="6.77566">
        <ele>323</ele>
        <time>2015-03-15T08:45:12.000Z</time>
      </trkpt>
      <trkpt lat="47.47349" lon="6.77565">
        <ele>323</ele>
        <time>2015-03-15T08:45:13.000Z</time>
      </trkpt>
      <trkpt lat="47.47346" lon="6.77567">
        <ele>323</ele>
        <time>2015-03-15T08:45:14.000Z</time>
      </trkpt>
      <trkpt lat="47.47344" lon="6.77567">
        <ele>323</ele>
        <time>2015-03-15T08:45:15.000Z</time>
      </trkpt>
      <trkpt lat="47.47341" lon="6.77568">
        <ele>324</ele>
        <time>2015-03-15T08:45:16.000Z</time>
      </trkpt>
      <trkpt lat="47.47339" lon="6.77569">
        <ele>324</ele>
        <time>2015-03-15T08:45:17.000Z</time>
      </trkpt>
      <trkpt lat="47.47336" lon="6.77569">
        <ele>324</ele>
        <time>2015-03-15T08:45:18.000Z</time>
      </trkpt>
      <trkpt lat="47.47333" lon="6.77569">
        <ele>326</ele>
        <time>2015-03-15T08:45:19.000Z</time>
      </trkpt>
      <trkpt lat="47.4733" lon="6.77569">
        <ele>326</ele>
        <time>2015-03-15T08:45:20.000Z</time>
      </trkpt>
      <trkpt lat="47.47327" lon="6.77569">
        <ele>326</ele>
        <time>2015-03-15T08:45:21.000Z</time>
      </trkpt>
      <trkpt lat="47.47324" lon="6.77568">
        <ele>326</ele>
        <time>2015-03-15T08:45:22.000Z</time>
      </trkpt>
      <trkpt lat="47.47321" lon="6.77567">
        <ele>326</ele>
        <time>2015-03-15T08:45:23.000Z</time>
      </trkpt>
      <trkpt lat="47.47318" lon="6.77566">
        <ele>326</ele>
        <time>2015-03-15T08:45:24.000Z</time>
      </trkpt>
      <trkpt lat="47.47314" lon="6.77566">
        <ele>326</ele>
        <time>2015-03-15T08:45:25.000Z</time>
      </trkpt>
      <trkpt lat="47.47311" lon="6.77566">
        <ele>326</ele>
        <time>2015-03-15T08:45:26.000Z</time>
      </trkpt>
      <trkpt lat="47.47307" lon="6.77565">
        <ele>326</ele>
        <time>2015-03-15T08:45:27.000Z</time>
      </trkpt>
      <trkpt lat="47.47304" lon="6.77565">
        <ele>326</ele>
        <time>2015-03-15T08:45:27.999Z</time>
      </trkpt>
      <trkpt lat="47.47299" lon="6.77563">
        <ele>326</ele>
        <time>2015-03-15T08:45:29.000Z</time>
      </trkpt>
      <trkpt lat="47.47296" lon="6.77562">
        <ele>327</ele>
        <time>2015-03-15T08:45:30.000Z</time>
      </trkpt>
      <trkpt lat="47.47293" lon="6.77562">
        <ele>327</ele>
        <time>2015-03-15T08:45:31.000Z</time>
      </trkpt>
      <trkpt lat="47.4729" lon="6.77563">
        <ele>327</ele>
        <time>2015-03-15T08:45:32.000Z</time>
      </trkpt>
      <trkpt lat="47.47288" lon="6.77564">
        <ele>327</ele>
        <time>2015-03-15T08:45:33.000Z</time>
      </trkpt>
      <trkpt lat="47.47285" lon="6.77565">
        <ele>327</ele>
        <time>2015-03-15T08:45:33.999Z</time>
      </trkpt>
      <trkpt lat="47.47282" lon="6.77566">
        <ele>327</ele>
        <time>2015-03-15T08:45:35.000Z</time>
      </trkpt>
      <trkpt lat="47.4728" lon="6.77566">
        <ele>327</ele>
        <time>2015-03-15T08:45:36.000Z</time>
      </trkpt>
      <trkpt lat="47.47278" lon="6.77567">
        <ele>327</ele>
        <time>2015-03-15T08:45:36.999Z</time>
      </trkpt>
      <trkpt lat="47.47274" lon="6.7757">
        <ele>328</ele>
        <time>2015-03-15T08:45:40.000Z</time>
      </trkpt>
      <trkpt lat="47.47272" lon="6.77569">
        <ele>328</ele>
        <time>2015-03-15T08:45:41.000Z</time>
      </trkpt>
      <trkpt lat="47.4727" lon="6.77568">
        <ele>328</ele>
        <time>2015-03-15T08:45:42.000Z</time>
      </trkpt>
      <trkpt lat="47.47267" lon="6.77567">
        <ele>328</ele>
        <time>2015-03-15T08:45:43.000Z</time>
      </trkpt>
      <trkpt lat="47.47265" lon="6.77566">
        <ele>328</ele>
        <time>2015-03-15T08:45:44.000Z</time>
      </trkpt>
      <trkpt lat="47.47262" lon="6.77566">
        <ele>328</ele>
        <time>2015-03-15T08:45:45.000Z</time>
      </trkpt>
      <trkpt lat="47.47259" lon="6.77565">
        <ele>328</ele>
        <time>2015-03-15T08:45:46.000Z</time>
      </trkpt>
      <trkpt lat="47.47256" lon="6.77565">
        <ele>328</ele>
        <time>2015-03-15T08:45:47.000Z</time>
      </trkpt>
      <trkpt lat="47.47254" lon="6.77565">
        <ele>328</ele>
        <time>2015-03-15T08:45:48.000Z</time>
      </trkpt>
      <trkpt lat="47.47251" lon="6.77565">
        <ele>328</ele>
        <time>2015-03-15T08:45:49.000Z</time>
      </trkpt>
      <trkpt lat="47.47248" lon="6.77566">
        <ele>330</ele>
        <time>2015-03-15T08:45:50.000Z</time>
      </trkpt>
      <trkpt lat="47.47246" lon="6.77566">
        <ele>331</ele>
        <time>2015-03-15T08:45:51.000Z</time>
      </trkpt>
      <trkpt lat="47.47243" lon="6.77566">
        <ele>331</ele>
        <time>2015-03-15T08:45:52.000Z</time>
      </trkpt>
      <trkpt lat="47.47241" lon="6.77565">
        <ele>331</ele>
        <time>2015-03-15T08:45:52.999Z</time>
      </trkpt>
      <trkpt lat="47.47236" lon="6.77566">
        <ele>331</ele>
        <time>2015-03-15T08:45:55.000Z</time>
      </trkpt>
      <trkpt lat="47.47234" lon="6.77566">
        <ele>331</ele>
        <time>2015-03-15T08:45:56.000Z</time>
      </trkpt>
      <trkpt lat="47.47232" lon="6.77566">
        <ele>331</ele>
        <time>2015-03-15T08:45:57.000Z</time>
      </trkpt>
      <trkpt lat="47.47229" lon="6.77566">
        <ele>331</ele>
        <time>2015-03-15T08:45:58.000Z</time>
      </trkpt>
      <trkpt lat="47.47227" lon="6.77566">
        <ele>331</ele>
        <time>2015-03-15T08:45:58.999Z</time>
      </trkpt>
      <trkpt lat="47.47223" lon="6.77566">
        <ele>331</ele>
        <time>2015-03-15T08:46:00.000Z</time>
      </trkpt>
      <trkpt lat="47.47221" lon="6.77566">
        <ele>331</ele>
        <time>2015-03-15T08:46:01.000Z</time>
      </trkpt>
      <trkpt lat="47.47218" lon="6.77565">
        <ele>331</ele>
        <time>2015-03-15T08:46:02.000Z</time>
      </trkpt>
      <trkpt lat="47.47215" lon="6.77565">
        <ele>331</ele>
        <time>2015-03-15T08:46:03.000Z</time>
      </trkpt>
      <trkpt lat="47.47213" lon="6.77565">
        <ele>331</ele>
        <time>2015-03-15T08:46:04.000Z</time>
      </trkpt>
      <trkpt lat="47.47211" lon="6.77565">
        <ele>331</ele>
        <time>2015-03-15T08:46:05.000Z</time>
      </trkpt>
      <trkpt lat="47.47208" lon="6.77565">
        <ele>331</ele>
        <time>2015-03-15T08:46:06.000Z</time>
      </trkpt>
      <trkpt lat="47.47206" lon="6.77566">
        <ele>332</ele>
        <time>2015-03-15T08:46:07.000Z</time>
      </trkpt>
      <trkpt lat="47.47204" lon="6.77567">
        <ele>332</ele>
        <time>2015-03-15T08:46:08.000Z</time>
      </trkpt>
      <trkpt lat="47.47201" lon="6.77567">
        <ele>332</ele>
        <time>2015-03-15T08:46:09.000Z</time>
      </trkpt>
      <trkpt lat="47.47199" lon="6.77568">
        <ele>332</ele>
        <time>2015-03-15T08:46:10.002Z</time>
      </trkpt>
      <trkpt lat="47.47195" lon="6.77568">
        <ele>332</ele>
        <time>2015-03-15T08:46:12.000Z</time>
      </trkpt>
      <trkpt lat="47.47192" lon="6.77568">
        <ele>332</ele>
        <time>2015-03-15T08:46:13.000Z</time>
      </trkpt>
      <trkpt lat="47.4719" lon="6.77568">
        <ele>332</ele>
        <time>2015-03-15T08:46:14.000Z</time>
      </trkpt>
      <trkpt lat="47.47188" lon="6.77568">
        <ele>332</ele>
        <time>2015-03-15T08:46:15.000Z</time>
      </trkpt>
      <trkpt lat="47.47185" lon="6.77568">
        <ele>332</ele>
        <time>2015-03-15T08:46:16.000Z</time>
      </trkpt>
      <trkpt lat="47.47183" lon="6.77568">
        <ele>332</ele>
        <time>2015-03-15T08:46:17.000Z</time>
      </trkpt>
      <trkpt lat="47.47181" lon="6.77567">
        <ele>332</ele>
        <time>2015-03-15T08:46:18.000Z</time>
      </trkpt>
      <trkpt lat="47.47178" lon="6.77567">
        <ele>333</ele>
        <time>2015-03-15T08:46:19.000Z</time>
      </trkpt>
      <trkpt lat="47.47176" lon="6.77567">
        <ele>333</ele>
        <time>2015-03-15T08:46:20.000Z</time>
      </trkpt>
      <trkpt lat="47.47173" lon="6.77567">
        <ele>333</ele>
        <time>2015-03-15T08:46:21.000Z</time>
      </trkpt>
      <trkpt lat="47.47171" lon="6.77566">
        <ele>333</ele>
        <time>2015-03-15T08:46:22.000Z</time>
      </trkpt>
      <trkpt lat="47.47168" lon="6.77567">
        <ele>333</ele>
        <time>2015-03-15T08:46:23.000Z</time>
      </trkpt>
      <trkpt lat="47.47165" lon="6.77568">
        <ele>334</ele>
        <time>2015-03-15T08:46:24.000Z</time>
      </trkpt>
      <trkpt lat="47.47163" lon="6.7757">
        <ele>334</ele>
        <time>2015-03-15T08:46:25.000Z</time>
      </trkpt>
      <trkpt lat="47.4716" lon="6.77573">
        <ele>334</ele>
        <time>2015-03-15T08:46:26.000Z</time>
      </trkpt>
      <trkpt lat="47.47158" lon="6.77576">
        <ele>334</ele>
        <time>2015-03-15T08:46:27.000Z</time>
      </trkpt>
      <trkpt lat="47.47156" lon="6.7758">
        <ele>334</ele>
        <time>2015-03-15T08:46:28.000Z</time>
      </trkpt>
      <trkpt lat="47.47154" lon="6.77585">
        <ele>334</ele>
        <time>2015-03-15T08:46:29.000Z</time>
      </trkpt>
      <trkpt lat="47.47153" lon="6.7759">
        <ele>334</ele>
        <time>2015-03-15T08:46:30.000Z</time>
      </trkpt>
      <trkpt lat="47.47151" lon="6.77596">
        <ele>334</ele>
        <time>2015-03-15T08:46:31.000Z</time>
      </trkpt>
      <trkpt lat="47.4715" lon="6.77601">
        <ele>334</ele>
        <time>2015-03-15T08:46:32.000Z</time>
      </trkpt>
      <trkpt lat="47.47148" lon="6.77605">
        <ele>334</ele>
        <time>2015-03-15T08:46:33.000Z</time>
      </trkpt>
      <trkpt lat="47.47146" lon="6.7761">
        <ele>334</ele>
        <time>2015-03-15T08:46:34.000Z</time>
      </trkpt>
      <trkpt lat="47.47143" lon="6.77614">
        <ele>334</ele>
        <time>2015-03-15T08:46:35.000Z</time>
      </trkpt>
      <trkpt lat="47.47141" lon="6.77619">
        <ele>334</ele>
        <time>2015-03-15T08:46:36.000Z</time>
      </trkpt>
      <trkpt lat="47.4714" lon="6.77625">
        <ele>334</ele>
        <time>2015-03-15T08:46:37.000Z</time>
      </trkpt>
      <trkpt lat="47.47138" lon="6.7763">
        <ele>335</ele>
        <time>2015-03-15T08:46:38.000Z</time>
      </trkpt>
      <trkpt lat="47.47136" lon="6.77635">
        <ele>335</ele>
        <time>2015-03-15T08:46:39.000Z</time>
      </trkpt>
      <trkpt lat="47.47135" lon="6.77639">
        <ele>335</ele>
        <time>2015-03-15T08:46:40.000Z</time>
      </trkpt>
      <trkpt lat="47.47133" lon="6.77642">
        <ele>335</ele>
        <time>2015-03-15T08:46:41.000Z</time>
      </trkpt>
      <trkpt lat="47.47131" lon="6.77645">
        <ele>335</ele>
        <time>2015-03-15T08:46:42.000Z</time>
      </trkpt>
      <trkpt lat="47.4713" lon="6.77648">
        <ele>335</ele>
        <time>2015-03-15T08:46:43.000Z</time>
      </trkpt>
      <trkpt lat="47.47128" lon="6.7765">
        <ele>335</ele>
        <time>2015-03-15T08:46:44.000Z</time>
      </trkpt>
      <trkpt lat="47.47127" lon="6.77654">
        <ele>335</ele>
        <time>2015-03-15T08:46:45.000Z</time>
      </trkpt>
      <trkpt lat="47.47124" lon="6.77659">
        <ele>334</ele>
        <time>2015-03-15T08:46:46.000Z</time>
      </trkpt>
      <trkpt lat="47.47122" lon="6.77663">
        <ele>334</ele>
        <time>2015-03-15T08:46:47.000Z</time>
      </trkpt>
      <trkpt lat="47.47118" lon="6.77666">
        <ele>334</ele>
        <time>2015-03-15T08:46:48.000Z</time>
      </trkpt>
      <trkpt lat="47.47115" lon="6.77668">
        <ele>335</ele>
        <time>2015-03-15T08:46:49.000Z</time>
      </trkpt>
      <trkpt lat="47.47102" lon="6.77655">
        <ele>334</ele>
        <time>2015-03-15T08:46:50.000Z</time>
      </trkpt>
      <trkpt lat="47.47097" lon="6.77654">
        <ele>334</ele>
        <time>2015-03-15T08:46:51.000Z</time>
      </trkpt>
      <trkpt lat="47.47092" lon="6.7765">
        <ele>334</ele>
        <time>2015-03-15T08:46:52.000Z</time>
      </trkpt>
      <trkpt lat="47.47089" lon="6.77647">
        <ele>334</ele>
        <time>2015-03-15T08:46:53.000Z</time>
      </trkpt>
      <trkpt lat="47.47084" lon="6.77642">
        <ele>334</ele>
        <time>2015-03-15T08:46:54.000Z</time>
      </trkpt>
      <trkpt lat="47.4708" lon="6.77638">
        <ele>334</ele>
        <time>2015-03-15T08:46:55.000Z</time>
      </trkpt>
      <trkpt lat="47.47077" lon="6.77633">
        <ele>334</ele>
        <time>2015-03-15T08:46:56.000Z</time>
      </trkpt>
      <trkpt lat="47.47074" lon="6.77629">
        <ele>334</ele>
        <time>2015-03-15T08:46:57.000Z</time>
      </trkpt>
      <trkpt lat="47.47071" lon="6.77625">
        <ele>334</ele>
        <time>2015-03-15T08:46:58.000Z</time>
      </trkpt>
      <trkpt lat="47.47068" lon="6.77621">
        <ele>334</ele>
        <time>2015-03-15T08:46:59.000Z</time>
      </trkpt>
      <trkpt lat="47.47066" lon="6.77618">
        <ele>334</ele>
        <time>2015-03-15T08:47:00.000Z</time>
      </trkpt>
      <trkpt lat="47.47064" lon="6.77614">
        <ele>334</ele>
        <time>2015-03-15T08:47:01.000Z</time>
      </trkpt>
      <trkpt lat="47.47062" lon="6.77611">
        <ele>334</ele>
        <time>2015-03-15T08:47:02.000Z</time>
      </trkpt>
      <trkpt lat="47.47059" lon="6.77608">
        <ele>334</ele>
        <time>2015-03-15T08:47:03.000Z</time>
      </trkpt>
      <trkpt lat="47.47057" lon="6.77603">
        <ele>334</ele>
        <time>2015-03-15T08:47:04.000Z</time>
      </trkpt>
      <trkpt lat="47.47054" lon="6.77599">
        <ele>334</ele>
        <time>2015-03-15T08:47:05.000Z</time>
      </trkpt>
      <trkpt lat="47.47051" lon="6.77594">
        <ele>334</ele>
        <time>2015-03-15T08:47:06.000Z</time>
      </trkpt>
      <trkpt lat="47.47048" lon="6.7759">
        <ele>334</ele>
        <time>2015-03-15T08:47:07.000Z</time>
      </trkpt>
      <trkpt lat="47.47046" lon="6.77586">
        <ele>334</ele>
        <time>2015-03-15T08:47:08.000Z</time>
      </trkpt>
      <trkpt lat="47.47043" lon="6.77582">
        <ele>335</ele>
        <time>2015-03-15T08:47:09.000Z</time>
      </trkpt>
      <trkpt lat="47.4704" lon="6.77579">
        <ele>335</ele>
        <time>2015-03-15T08:47:10.000Z</time>
      </trkpt>
      <trkpt lat="47.47038" lon="6.77575">
        <ele>335</ele>
        <time>2015-03-15T08:47:11.000Z</time>
      </trkpt>
      <trkpt lat="47.47035" lon="6.77571">
        <ele>335</ele>
        <time>2015-03-15T08:47:12.000Z</time>
      </trkpt>
      <trkpt lat="47.47033" lon="6.77568">
        <ele>335</ele>
        <time>2015-03-15T08:47:13.000Z</time>
      </trkpt>
      <trkpt lat="47.4703" lon="6.77565">
        <ele>335</ele>
        <time>2015-03-15T08:47:14.000Z</time>
      </trkpt>
      <trkpt lat="47.47027" lon="6.77561">
        <ele>335</ele>
        <time>2015-03-15T08:47:15.000Z</time>
      </trkpt>
      <trkpt lat="47.47025" lon="6.77558">
        <ele>335</ele>
        <time>2015-03-15T08:47:16.000Z</time>
      </trkpt>
      <trkpt lat="47.47021" lon="6.77557">
        <ele>336</ele>
        <time>2015-03-15T08:47:17.000Z</time>
      </trkpt>
      <trkpt lat="47.47019" lon="6.77554">
        <ele>336</ele>
        <time>2015-03-15T08:47:18.000Z</time>
      </trkpt>
      <trkpt lat="47.47016" lon="6.7755">
        <ele>336</ele>
        <time>2015-03-15T08:47:19.000Z</time>
      </trkpt>
      <trkpt lat="47.47014" lon="6.77547">
        <ele>336</ele>
        <time>2015-03-15T08:47:20.000Z</time>
      </trkpt>
      <trkpt lat="47.47012" lon="6.77544">
        <ele>336</ele>
        <time>2015-03-15T08:47:21.000Z</time>
      </trkpt>
      <trkpt lat="47.4701" lon="6.7754">
        <ele>336</ele>
        <time>2015-03-15T08:47:22.000Z</time>
      </trkpt>
      <trkpt lat="47.47007" lon="6.77537">
        <ele>336</ele>
        <time>2015-03-15T08:47:23.000Z</time>
      </trkpt>
      <trkpt lat="47.47004" lon="6.77534">
        <ele>336</ele>
        <time>2015-03-15T08:47:24.000Z</time>
      </trkpt>
      <trkpt lat="47.47002" lon="6.77531">
        <ele>336</ele>
        <time>2015-03-15T08:47:25.000Z</time>
      </trkpt>
      <trkpt lat="47.46999" lon="6.77529">
        <ele>339</ele>
        <time>2015-03-15T08:47:26.000Z</time>
      </trkpt>
      <trkpt lat="47.46997" lon="6.77525">
        <ele>339</ele>
        <time>2015-03-15T08:47:27.000Z</time>
      </trkpt>
      <trkpt lat="47.46994" lon="6.77522">
        <ele>339</ele>
        <time>2015-03-15T08:47:28.000Z</time>
      </trkpt>
      <trkpt lat="47.46992" lon="6.77518">
        <ele>339</ele>
        <time>2015-03-15T08:47:29.000Z</time>
      </trkpt>
      <trkpt lat="47.46989" lon="6.77515">
        <ele>339</ele>
        <time>2015-03-15T08:47:30.000Z</time>
      </trkpt>
      <trkpt lat="47.46987" lon="6.77511">
        <ele>339</ele>
        <time>2015-03-15T08:47:31.000Z</time>
      </trkpt>
      <trkpt lat="47.46985" lon="6.77508">
        <ele>339</ele>
        <time>2015-03-15T08:47:32.000Z</time>
      </trkpt>
      <trkpt lat="47.46983" lon="6.77504">
        <ele>339</ele>
        <time>2015-03-15T08:47:33.000Z</time>
      </trkpt>
      <trkpt lat="47.46982" lon="6.77501">
        <ele>339</ele>
        <time>2015-03-15T08:47:34.000Z</time>
      </trkpt>
      <trkpt lat="47.46981" lon="6.77497">
        <ele>340</ele>
        <time>2015-03-15T08:47:35.000Z</time>
      </trkpt>
      <trkpt lat="47.4698" lon="6.77493">
        <ele>340</ele>
        <time>2015-03-15T08:47:36.000Z</time>
      </trkpt>
      <trkpt lat="47.46978" lon="6.7749">
        <ele>340</ele>
        <time>2015-03-15T08:47:37.000Z</time>
      </trkpt>
      <trkpt lat="47.46976" lon="6.77486">
        <ele>340</ele>
        <time>2015-03-15T08:47:38.000Z</time>
      </trkpt>
      <trkpt lat="47.46975" lon="6.77482">
        <ele>340</ele>
        <time>2015-03-15T08:47:39.000Z</time>
      </trkpt>
      <trkpt lat="47.46972" lon="6.77479">
        <ele>340</ele>
        <time>2015-03-15T08:47:40.000Z</time>
      </trkpt>
      <trkpt lat="47.4697" lon="6.77475">
        <ele>340</ele>
        <time>2015-03-15T08:47:41.000Z</time>
      </trkpt>
      <trkpt lat="47.46968" lon="6.77471">
        <ele>341</ele>
        <time>2015-03-15T08:47:42.000Z</time>
      </trkpt>
      <trkpt lat="47.46965" lon="6.77467">
        <ele>341</ele>
        <time>2015-03-15T08:47:43.000Z</time>
      </trkpt>
      <trkpt lat="47.46963" lon="6.77463">
        <ele>341</ele>
        <time>2015-03-15T08:47:44.000Z</time>
      </trkpt>
      <trkpt lat="47.4696" lon="6.7746">
        <ele>341</ele>
        <time>2015-03-15T08:47:45.000Z</time>
      </trkpt>
      <trkpt lat="47.46957" lon="6.77457">
        <ele>341</ele>
        <time>2015-03-15T08:47:46.000Z</time>
      </trkpt>
      <trkpt lat="47.46955" lon="6.77454">
        <ele>341</ele>
        <time>2015-03-15T08:47:47.000Z</time>
      </trkpt>
      <trkpt lat="47.46954" lon="6.77451">
        <ele>341</ele>
        <time>2015-03-15T08:47:48.000Z</time>
      </trkpt>
      <trkpt lat="47.46952" lon="6.77448">
        <ele>341</ele>
        <time>2015-03-15T08:47:49.000Z</time>
      </trkpt>
      <trkpt lat="47.4695" lon="6.77442">
        <ele>341</ele>
        <time>2015-03-15T08:47:51.000Z</time>
      </trkpt>
      <trkpt lat="47.46949" lon="6.77439">
        <ele>341</ele>
        <time>2015-03-15T08:47:52.000Z</time>
      </trkpt>
      <trkpt lat="47.46948" lon="6.77436">
        <ele>342</ele>
        <time>2015-03-15T08:47:53.000Z</time>
      </trkpt>
      <trkpt lat="47.46947" lon="6.77433">
        <ele>342</ele>
        <time>2015-03-15T08:47:54.000Z</time>
      </trkpt>
      <trkpt lat="47.46945" lon="6.7743">
        <ele>342</ele>
        <time>2015-03-15T08:47:55.000Z</time>
      </trkpt>
      <trkpt lat="47.46943" lon="6.77427">
        <ele>342</ele>
        <time>2015-03-15T08:47:56.000Z</time>
      </trkpt>
      <trkpt lat="47.46941" lon="6.77425">
        <ele>342</ele>
        <time>2015-03-15T08:47:57.000Z</time>
      </trkpt>
      <trkpt lat="47.46939" lon="6.77423">
        <ele>342</ele>
        <time>2015-03-15T08:47:58.000Z</time>
      </trkpt>
      <trkpt lat="47.46936" lon="6.77421">
        <ele>342</ele>
        <time>2015-03-15T08:47:59.000Z</time>
      </trkpt>
      <trkpt lat="47.46933" lon="6.77421">
        <ele>342</ele>
        <time>2015-03-15T08:48:00.000Z</time>
      </trkpt>
      <trkpt lat="47.46931" lon="6.77421">
        <ele>343</ele>
        <time>2015-03-15T08:48:01.000Z</time>
      </trkpt>
      <trkpt lat="47.46928" lon="6.77423">
        <ele>343</ele>
        <time>2015-03-15T08:48:02.000Z</time>
      </trkpt>
      <trkpt lat="47.46925" lon="6.77425">
        <ele>343</ele>
        <time>2015-03-15T08:48:03.000Z</time>
      </trkpt>
      <trkpt lat="47.46923" lon="6.77426">
        <ele>343</ele>
        <time>2015-03-15T08:48:04.000Z</time>
      </trkpt>
      <trkpt lat="47.46921" lon="6.77428">
        <ele>343</ele>
        <time>2015-03-15T08:48:05.000Z</time>
      </trkpt>
      <trkpt lat="47.46919" lon="6.7743">
        <ele>343</ele>
        <time>2015-03-15T08:48:06.000Z</time>
      </trkpt>
      <trkpt lat="47.46916" lon="6.77432">
        <ele>346</ele>
        <time>2015-03-15T08:48:07.000Z</time>
      </trkpt>
      <trkpt lat="47.46914" lon="6.77434">
        <ele>346</ele>
        <time>2015-03-15T08:48:08.000Z</time>
      </trkpt>
      <trkpt lat="47.46912" lon="6.77437">
        <ele>346</ele>
        <time>2015-03-15T08:48:09.000Z</time>
      </trkpt>
      <trkpt lat="47.4691" lon="6.77439">
        <ele>346</ele>
        <time>2015-03-15T08:48:10.000Z</time>
      </trkpt>
      <trkpt lat="47.46907" lon="6.7744">
        <ele>346</ele>
        <time>2015-03-15T08:48:11.000Z</time>
      </trkpt>
      <trkpt lat="47.46905" lon="6.77442">
        <ele>346</ele>
        <time>2015-03-15T08:48:12.000Z</time>
      </trkpt>
      <trkpt lat="47.46901" lon="6.77443">
        <ele>347</ele>
        <time>2015-03-15T08:48:14.000Z</time>
      </trkpt>
      <trkpt lat="47.46898" lon="6.77444">
        <ele>347</ele>
        <time>2015-03-15T08:48:15.000Z</time>
      </trkpt>
      <trkpt lat="47.46896" lon="6.77445">
        <ele>347</ele>
        <time>2015-03-15T08:48:16.000Z</time>
      </trkpt>
      <trkpt lat="47.46894" lon="6.77445">
        <ele>347</ele>
        <time>2015-03-15T08:48:17.000Z</time>
      </trkpt>
      <trkpt lat="47.46891" lon="6.77446">
        <ele>347</ele>
        <time>2015-03-15T08:48:18.000Z</time>
      </trkpt>
      <trkpt lat="47.46889" lon="6.77446">
        <ele>347</ele>
        <time>2015-03-15T08:48:19.000Z</time>
      </trkpt>
      <trkpt lat="47.46887" lon="6.77446">
        <ele>347</ele>
        <time>2015-03-15T08:48:20.000Z</time>
      </trkpt>
      <trkpt lat="47.46884" lon="6.77446">
        <ele>347</ele>
        <time>2015-03-15T08:48:21.000Z</time>
      </trkpt>
      <trkpt lat="47.46882" lon="6.77446">
        <ele>348</ele>
        <time>2015-03-15T08:48:22.000Z</time>
      </trkpt>
      <trkpt lat="47.46879" lon="6.77446">
        <ele>348</ele>
        <time>2015-03-15T08:48:23.000Z</time>
      </trkpt>
      <trkpt lat="47.46876" lon="6.77446">
        <ele>348</ele>
        <time>2015-03-15T08:48:24.000Z</time>
      </trkpt>
      <trkpt lat="47.46873" lon="6.77446">
        <ele>348</ele>
        <time>2015-03-15T08:48:25.000Z</time>
      </trkpt>
      <trkpt lat="47.46871" lon="6.77445">
        <ele>348</ele>
        <time>2015-03-15T08:48:26.000Z</time>
      </trkpt>
      <trkpt lat="47.46869" lon="6.77444">
        <ele>348</ele>
        <time>2015-03-15T08:48:27.000Z</time>
      </trkpt>
      <trkpt lat="47.46865" lon="6.77441">
        <ele>348</ele>
        <time>2015-03-15T08:48:29.000Z</time>
      </trkpt>
      <trkpt lat="47.46863" lon="6.7744">
        <ele>349</ele>
        <time>2015-03-15T08:48:30.000Z</time>
      </trkpt>
      <trkpt lat="47.46858" lon="6.77439">
        <ele>349</ele>
        <time>2015-03-15T08:48:32.000Z</time>
      </trkpt>
      <trkpt lat="47.46856" lon="6.77439">
        <ele>349</ele>
        <time>2015-03-15T08:48:33.000Z</time>
      </trkpt>
      <trkpt lat="47.46852" lon="6.77436">
        <ele>349</ele>
        <time>2015-03-15T08:48:35.000Z</time>
      </trkpt>
      <trkpt lat="47.4685" lon="6.77434">
        <ele>349</ele>
        <time>2015-03-15T08:48:36.000Z</time>
      </trkpt>
      <trkpt lat="47.46848" lon="6.77433">
        <ele>349</ele>
        <time>2015-03-15T08:48:37.000Z</time>
      </trkpt>
      <trkpt lat="47.46845" lon="6.77432">
        <ele>350</ele>
        <time>2015-03-15T08:48:38.000Z</time>
      </trkpt>
      <trkpt lat="47.46842" lon="6.77431">
        <ele>350</ele>
        <time>2015-03-15T08:48:39.000Z</time>
      </trkpt>
      <trkpt lat="47.4684" lon="6.77432">
        <ele>350</ele>
        <time>2015-03-15T08:48:40.000Z</time>
      </trkpt>
      <trkpt lat="47.46836" lon="6.77435">
        <ele>350</ele>
        <time>2015-03-15T08:48:42.000Z</time>
      </trkpt>
      <trkpt lat="47.46834" lon="6.77438">
        <ele>350</ele>
        <time>2015-03-15T08:48:43.000Z</time>
      </trkpt>
      <trkpt lat="47.46833" lon="6.7744">
        <ele>357</ele>
        <time>2015-03-15T08:48:44.000Z</time>
      </trkpt>
      <trkpt lat="47.46831" lon="6.77443">
        <ele>357</ele>
        <time>2015-03-15T08:48:45.000Z</time>
      </trkpt>
      <trkpt lat="47.46831" lon="6.77447">
        <ele>358</ele>
        <time>2015-03-15T08:48:46.000Z</time>
      </trkpt>
      <trkpt lat="47.4683" lon="6.77451">
        <ele>358</ele>
        <time>2015-03-15T08:48:47.000Z</time>
      </trkpt>
      <trkpt lat="47.4683" lon="6.77455">
        <ele>358</ele>
        <time>2015-03-15T08:48:48.000Z</time>
      </trkpt>
      <trkpt lat="47.46829" lon="6.77458">
        <ele>358</ele>
        <time>2015-03-15T08:48:49.000Z</time>
      </trkpt>
      <trkpt lat="47.46828" lon="6.77462">
        <ele>358</ele>
        <time>2015-03-15T08:48:50.000Z</time>
      </trkpt>
      <trkpt lat="47.46828" lon="6.77465">
        <ele>358</ele>
        <time>2015-03-15T08:48:51.000Z</time>
      </trkpt>
      <trkpt lat="47.46827" lon="6.77469">
        <ele>358</ele>
        <time>2015-03-15T08:48:52.000Z</time>
      </trkpt>
      <trkpt lat="47.46826" lon="6.77472">
        <ele>358</ele>
        <time>2015-03-15T08:48:53.000Z</time>
      </trkpt>
      <trkpt lat="47.46825" lon="6.77477">
        <ele>358</ele>
        <time>2015-03-15T08:48:55.000Z</time>
      </trkpt>
      <trkpt lat="47.46825" lon="6.77479">
        <ele>358</ele>
        <time>2015-03-15T08:48:56.000Z</time>
      </trkpt>
      <trkpt lat="47.46823" lon="6.77485">
        <ele>358</ele>
        <time>2015-03-15T08:48:59.000Z</time>
      </trkpt>
      <trkpt lat="47.46823" lon="6.77487">
        <ele>358</ele>
        <time>2015-03-15T08:49:00.000Z</time>
      </trkpt>
      <trkpt lat="47.46822" lon="6.77493">
        <ele>357</ele>
        <time>2015-03-15T08:49:02.000Z</time>
      </trkpt>
      <trkpt lat="47.46821" lon="6.77495">
        <ele>357</ele>
        <time>2015-03-15T08:49:03.000Z</time>
      </trkpt>
      <trkpt lat="47.4682" lon="6.775">
        <ele>358</ele>
        <time>2015-03-15T08:49:05.000Z</time>
      </trkpt>
      <trkpt lat="47.4682" lon="6.77503">
        <ele>359</ele>
        <time>2015-03-15T08:49:06.000Z</time>
      </trkpt>
      <trkpt lat="47.46818" lon="6.77509">
        <ele>359</ele>
        <time>2015-03-15T08:49:08.000Z</time>
      </trkpt>
      <trkpt lat="47.46817" lon="6.77511">
        <ele>360</ele>
        <time>2015-03-15T08:49:09.000Z</time>
      </trkpt>
      <trkpt lat="47.46816" lon="6.77516">
        <ele>360</ele>
        <time>2015-03-15T08:49:11.000Z</time>
      </trkpt>
      <trkpt lat="47.46815" lon="6.7752">
        <ele>361</ele>
        <time>2015-03-15T08:49:12.000Z</time>
      </trkpt>
      <trkpt lat="47.46814" lon="6.77523">
        <ele>361</ele>
        <time>2015-03-15T08:49:13.000Z</time>
      </trkpt>
      <trkpt lat="47.46813" lon="6.77526">
        <ele>362</ele>
        <time>2015-03-15T08:49:14.000Z</time>
      </trkpt>
      <trkpt lat="47.46811" lon="6.77532">
        <ele>362</ele>
        <time>2015-03-15T08:49:16.000Z</time>
      </trkpt>
      <trkpt lat="47.4681" lon="6.77535">
        <ele>362</ele>
        <time>2015-03-15T08:49:17.000Z</time>
      </trkpt>
      <trkpt lat="47.46809" lon="6.7754">
        <ele>362</ele>
        <time>2015-03-15T08:49:19.000Z</time>
      </trkpt>
      <trkpt lat="47.46809" lon="6.77542">
        <ele>363</ele>
        <time>2015-03-15T08:49:20.000Z</time>
      </trkpt>
      <trkpt lat="47.46808" lon="6.77547">
        <ele>363</ele>
        <time>2015-03-15T08:49:22.000Z</time>
      </trkpt>
      <trkpt lat="47.46807" lon="6.77549">
        <ele>363</ele>
        <time>2015-03-15T08:49:23.000Z</time>
      </trkpt>
      <trkpt lat="47.46807" lon="6.77555">
        <ele>363</ele>
        <time>2015-03-15T08:49:25.000Z</time>
      </trkpt>
      <trkpt lat="47.46807" lon="6.77559">
        <ele>363</ele>
        <time>2015-03-15T08:49:26.000Z</time>
      </trkpt>
      <trkpt lat="47.46807" lon="6.77562">
        <ele>363</ele>
        <time>2015-03-15T08:49:27.000Z</time>
      </trkpt>
      <trkpt lat="47.46807" lon="6.77566">
        <ele>363</ele>
        <time>2015-03-15T08:49:28.000Z</time>
      </trkpt>
      <trkpt lat="47.46807" lon="6.77572">
        <ele>362</ele>
        <time>2015-03-15T08:49:30.000Z</time>
      </trkpt>
      <trkpt lat="47.46807" lon="6.77575">
        <ele>362</ele>
        <time>2015-03-15T08:49:31.000Z</time>
      </trkpt>
      <trkpt lat="47.46806" lon="6.77582">
        <ele>362</ele>
        <time>2015-03-15T08:49:33.000Z</time>
      </trkpt>
      <trkpt lat="47.46805" lon="6.77585">
        <ele>364</ele>
        <time>2015-03-15T08:49:34.000Z</time>
      </trkpt>
      <trkpt lat="47.46804" lon="6.77589">
        <ele>364</ele>
        <time>2015-03-15T08:49:35.000Z</time>
      </trkpt>
      <trkpt lat="47.46803" lon="6.77592">
        <ele>365</ele>
        <time>2015-03-15T08:49:36.000Z</time>
      </trkpt>
      <trkpt lat="47.46802" lon="6.77598">
        <ele>365</ele>
        <time>2015-03-15T08:49:38.000Z</time>
      </trkpt>
      <trkpt lat="47.46801" lon="6.776">
        <ele>365</ele>
        <time>2015-03-15T08:49:39.000Z</time>
      </trkpt>
      <trkpt lat="47.46801" lon="6.77606">
        <ele>366</ele>
        <time>2015-03-15T08:49:41.000Z</time>
      </trkpt>
      <trkpt lat="47.468" lon="6.7761">
        <ele>366</ele>
        <time>2015-03-15T08:49:42.000Z</time>
      </trkpt>
      <trkpt lat="47.46799" lon="6.77613">
        <ele>366</ele>
        <time>2015-03-15T08:49:43.000Z</time>
      </trkpt>
      <trkpt lat="47.46798" lon="6.77616">
        <ele>366</ele>
        <time>2015-03-15T08:49:44.000Z</time>
      </trkpt>
      <trkpt lat="47.46797" lon="6.77622">
        <ele>367</ele>
        <time>2015-03-15T08:49:46.000Z</time>
      </trkpt>
      <trkpt lat="47.46796" lon="6.77625">
        <ele>367</ele>
        <time>2015-03-15T08:49:47.000Z</time>
      </trkpt>
      <trkpt lat="47.46794" lon="6.7763">
        <ele>367</ele>
        <time>2015-03-15T08:49:49.000Z</time>
      </trkpt>
      <trkpt lat="47.46793" lon="6.77633">
        <ele>367</ele>
        <time>2015-03-15T08:49:50.000Z</time>
      </trkpt>
      <trkpt lat="47.46792" lon="6.77636">
        <ele>367</ele>
        <time>2015-03-15T08:49:51.000Z</time>
      </trkpt>
      <trkpt lat="47.46791" lon="6.77639">
        <ele>367</ele>
        <time>2015-03-15T08:49:52.000Z</time>
      </trkpt>
      <trkpt lat="47.46791" lon="6.77642">
        <ele>368</ele>
        <time>2015-03-15T08:49:53.000Z</time>
      </trkpt>
      <trkpt lat="47.4679" lon="6.77645">
        <ele>368</ele>
        <time>2015-03-15T08:49:54.000Z</time>
      </trkpt>
      <trkpt lat="47.46789" lon="6.77649">
        <ele>368</ele>
        <time>2015-03-15T08:49:55.000Z</time>
      </trkpt>
      <trkpt lat="47.46788" lon="6.77652">
        <ele>368</ele>
        <time>2015-03-15T08:49:56.000Z</time>
      </trkpt>
      <trkpt lat="47.46787" lon="6.77655">
        <ele>368</ele>
        <time>2015-03-15T08:49:57.000Z</time>
      </trkpt>
      <trkpt lat="47.46786" lon="6.77659">
        <ele>369</ele>
        <time>2015-03-15T08:49:58.000Z</time>
      </trkpt>
      <trkpt lat="47.46785" lon="6.77663">
        <ele>369</ele>
        <time>2015-03-15T08:49:59.000Z</time>
      </trkpt>
      <trkpt lat="47.46784" lon="6.77667">
        <ele>369</ele>
        <time>2015-03-15T08:50:00.000Z</time>
      </trkpt>
      <trkpt lat="47.46783" lon="6.77671">
        <ele>369</ele>
        <time>2015-03-15T08:50:01.000Z</time>
      </trkpt>
      <trkpt lat="47.46782" lon="6.77675">
        <ele>369</ele>
        <time>2015-03-15T08:50:02.000Z</time>
      </trkpt>
      <trkpt lat="47.46779" lon="6.77679">
        <ele>369</ele>
        <time>2015-03-15T08:50:03.000Z</time>
      </trkpt>
      <trkpt lat="47.46776" lon="6.77683">
        <ele>370</ele>
        <time>2015-03-15T08:50:04.000Z</time>
      </trkpt>
      <trkpt lat="47.46773" lon="6.77687">
        <ele>370</ele>
        <time>2015-03-15T08:50:05.000Z</time>
      </trkpt>
      <trkpt lat="47.46771" lon="6.77692">
        <ele>370</ele>
        <time>2015-03-15T08:50:06.000Z</time>
      </trkpt>
      <trkpt lat="47.46769" lon="6.77697">
        <ele>370</ele>
        <time>2015-03-15T08:50:07.000Z</time>
      </trkpt>
      <trkpt lat="47.46769" lon="6.77703">
        <ele>370</ele>
        <time>2015-03-15T08:50:08.000Z</time>
      </trkpt>
      <trkpt lat="47.46768" lon="6.77709">
        <ele>369</ele>
        <time>2015-03-15T08:50:09.000Z</time>
      </trkpt>
      <trkpt lat="47.46767" lon="6.77715">
        <ele>369</ele>
        <time>2015-03-15T08:50:10.000Z</time>
      </trkpt>
      <trkpt lat="47.46767" lon="6.77721">
        <ele>370</ele>
        <time>2015-03-15T08:50:11.000Z</time>
      </trkpt>
      <trkpt lat="47.46766" lon="6.77727">
        <ele>370</ele>
        <time>2015-03-15T08:50:12.000Z</time>
      </trkpt>
      <trkpt lat="47.46765" lon="6.77733">
        <ele>371</ele>
        <time>2015-03-15T08:50:13.000Z</time>
      </trkpt>
      <trkpt lat="47.46765" lon="6.77738">
        <ele>371</ele>
        <time>2015-03-15T08:50:14.000Z</time>
      </trkpt>
      <trkpt lat="47.46765" lon="6.77744">
        <ele>372</ele>
        <time>2015-03-15T08:50:15.000Z</time>
      </trkpt>
      <trkpt lat="47.46764" lon="6.7775">
        <ele>370</ele>
        <time>2015-03-15T08:50:16.000Z</time>
      </trkpt>
      <trkpt lat="47.46765" lon="6.77757">
        <ele>369</ele>
        <time>2015-03-15T08:50:17.000Z</time>
      </trkpt>
      <trkpt lat="47.46765" lon="6.77765">
        <ele>368</ele>
        <time>2015-03-15T08:50:18.000Z</time>
      </trkpt>
      <trkpt lat="47.46765" lon="6.77773">
        <ele>366</ele>
        <time>2015-03-15T08:50:19.000Z</time>
      </trkpt>
      <trkpt lat="47.46765" lon="6.7778">
        <ele>365</ele>
        <time>2015-03-15T08:50:20.000Z</time>
      </trkpt>
      <trkpt lat="47.46765" lon="6.77788">
        <ele>365</ele>
        <time>2015-03-15T08:50:21.000Z</time>
      </trkpt>
      <trkpt lat="47.46764" lon="6.77793">
        <ele>364</ele>
        <time>2015-03-15T08:50:21.957Z</time>
      </trkpt>
      <trkpt lat="47.46762" lon="6.77804">
        <ele>364</ele>
        <time>2015-03-15T08:50:23.000Z</time>
      </trkpt>
      <trkpt lat="47.4676" lon="6.77811">
        <ele>364</ele>
        <time>2015-03-15T08:50:24.000Z</time>
      </trkpt>
      <trkpt lat="47.46758" lon="6.77817">
        <ele>365</ele>
        <time>2015-03-15T08:50:25.000Z</time>
      </trkpt>
      <trkpt lat="47.46755" lon="6.77823">
        <ele>366</ele>
        <time>2015-03-15T08:50:26.000Z</time>
      </trkpt>
      <trkpt lat="47.46752" lon="6.77828">
        <ele>367</ele>
        <time>2015-03-15T08:50:27.000Z</time>
      </trkpt>
      <trkpt lat="47.4675" lon="6.77833">
        <ele>369</ele>
        <time>2015-03-15T08:50:28.000Z</time>
      </trkpt>
      <trkpt lat="47.46748" lon="6.77838">
        <ele>371</ele>
        <time>2015-03-15T08:50:29.000Z</time>
      </trkpt>
      <trkpt lat="47.46747" lon="6.77844">
        <ele>372</ele>
        <time>2015-03-15T08:50:30.000Z</time>
      </trkpt>
      <trkpt lat="47.46745" lon="6.7785">
        <ele>373</ele>
        <time>2015-03-15T08:50:31.000Z</time>
      </trkpt>
      <trkpt lat="47.46743" lon="6.77856">
        <ele>374</ele>
        <time>2015-03-15T08:50:32.000Z</time>
      </trkpt>
      <trkpt lat="47.46741" lon="6.77861">
        <ele>374</ele>
        <time>2015-03-15T08:50:33.000Z</time>
      </trkpt>
      <trkpt lat="47.46739" lon="6.77865">
        <ele>375</ele>
        <time>2015-03-15T08:50:34.000Z</time>
      </trkpt>
      <trkpt lat="47.46737" lon="6.77869">
        <ele>375</ele>
        <time>2015-03-15T08:50:35.000Z</time>
      </trkpt>
      <trkpt lat="47.46735" lon="6.77872">
        <ele>375</ele>
        <time>2015-03-15T08:50:36.000Z</time>
      </trkpt>
      <trkpt lat="47.46732" lon="6.77875">
        <ele>375</ele>
        <time>2015-03-15T08:50:37.000Z</time>
      </trkpt>
      <trkpt lat="47.4673" lon="6.77877">
        <ele>375</ele>
        <time>2015-03-15T08:50:38.000Z</time>
      </trkpt>
      <trkpt lat="47.46729" lon="6.77879">
        <ele>375</ele>
        <time>2015-03-15T08:50:39.000Z</time>
      </trkpt>
      <trkpt lat="47.46727" lon="6.77882">
        <ele>375</ele>
        <time>2015-03-15T08:50:40.000Z</time>
      </trkpt>
      <trkpt lat="47.46726" lon="6.77885">
        <ele>375</ele>
        <time>2015-03-15T08:50:41.000Z</time>
      </trkpt>
      <trkpt lat="47.46724" lon="6.77888">
        <ele>375</ele>
        <time>2015-03-15T08:50:42.000Z</time>
      </trkpt>
      <trkpt lat="47.46722" lon="6.77893">
        <ele>375</ele>
        <time>2015-03-15T08:50:44.000Z</time>
      </trkpt>
      <trkpt lat="47.46721" lon="6.77896">
        <ele>375</ele>
        <time>2015-03-15T08:50:45.000Z</time>
      </trkpt>
      <trkpt lat="47.4672" lon="6.77899">
        <ele>375</ele>
        <time>2015-03-15T08:50:46.000Z</time>
      </trkpt>
      <trkpt lat="47.46719" lon="6.77902">
        <ele>375</ele>
        <time>2015-03-15T08:50:47.000Z</time>
      </trkpt>
      <trkpt lat="47.46718" lon="6.77905">
        <ele>375</ele>
        <time>2015-03-15T08:50:48.000Z</time>
      </trkpt>
      <trkpt lat="47.46716" lon="6.77909">
        <ele>376</ele>
        <time>2015-03-15T08:50:49.000Z</time>
      </trkpt>
      <trkpt lat="47.46715" lon="6.77913">
        <ele>376</ele>
        <time>2015-03-15T08:50:50.000Z</time>
      </trkpt>
      <trkpt lat="47.46713" lon="6.77917">
        <ele>371</ele>
        <time>2015-03-15T08:50:51.000Z</time>
      </trkpt>
      <trkpt lat="47.46711" lon="6.77921">
        <ele>372</ele>
        <time>2015-03-15T08:50:52.000Z</time>
      </trkpt>
      <trkpt lat="47.4671" lon="6.77925">
        <ele>372</ele>
        <time>2015-03-15T08:50:53.000Z</time>
      </trkpt>
      <trkpt lat="47.46708" lon="6.7793">
        <ele>372</ele>
        <time>2015-03-15T08:50:54.000Z</time>
      </trkpt>
      <trkpt lat="47.46707" lon="6.77934">
        <ele>372</ele>
        <time>2015-03-15T08:50:55.000Z</time>
      </trkpt>
      <trkpt lat="47.46705" lon="6.77939">
        <ele>372</ele>
        <time>2015-03-15T08:50:56.000Z</time>
      </trkpt>
      <trkpt lat="47.46704" lon="6.77943">
        <ele>373</ele>
        <time>2015-03-15T08:50:57.000Z</time>
      </trkpt>
      <trkpt lat="47.46702" lon="6.77947">
        <ele>373</ele>
        <time>2015-03-15T08:50:58.000Z</time>
      </trkpt>
      <trkpt lat="47.46701" lon="6.77952">
        <ele>372</ele>
        <time>2015-03-15T08:50:59.000Z</time>
      </trkpt>
      <trkpt lat="47.467" lon="6.77957">
        <ele>372</ele>
        <time>2015-03-15T08:51:00.000Z</time>
      </trkpt>
      <trkpt lat="47.46699" lon="6.77963">
        <ele>372</ele>
        <time>2015-03-15T08:51:01.000Z</time>
      </trkpt>
      <trkpt lat="47.467" lon="6.77969">
        <ele>372</ele>
        <time>2015-03-15T08:51:02.000Z</time>
      </trkpt>
      <trkpt lat="47.46701" lon="6.77977">
        <ele>371</ele>
        <time>2015-03-15T08:51:03.000Z</time>
      </trkpt>
      <trkpt lat="47.46708" lon="6.77999">
        <ele>369</ele>
        <time>2015-03-15T08:51:04.000Z</time>
      </trkpt>
      <trkpt lat="47.46709" lon="6.78009">
        <ele>363</ele>
        <time>2015-03-15T08:51:05.000Z</time>
      </trkpt>
      <trkpt lat="47.46709" lon="6.78014">
        <ele>363</ele>
        <time>2015-03-15T08:51:06.000Z</time>
      </trkpt>
      <trkpt lat="47.46707" lon="6.78017">
        <ele>364</ele>
        <time>2015-03-15T08:51:07.000Z</time>
      </trkpt>
      <trkpt lat="47.46706" lon="6.78021">
        <ele>364</ele>
        <time>2015-03-15T08:51:08.000Z</time>
      </trkpt>
      <trkpt lat="47.46705" lon="6.78024">
        <ele>364</ele>
        <time>2015-03-15T08:51:09.000Z</time>
      </trkpt>
      <trkpt lat="47.46704" lon="6.78029">
        <ele>364</ele>
        <time>2015-03-15T08:51:11.000Z</time>
      </trkpt>
      <trkpt lat="47.46702" lon="6.78034">
        <ele>364</ele>
        <time>2015-03-15T08:51:12.000Z</time>
      </trkpt>
      <trkpt lat="47.46697" lon="6.78033">
        <ele>364</ele>
        <time>2015-03-15T08:51:13.000Z</time>
      </trkpt>
      <trkpt lat="47.46695" lon="6.78036">
        <ele>364</ele>
        <time>2015-03-15T08:51:14.000Z</time>
      </trkpt>
      <trkpt lat="47.46693" lon="6.78039">
        <ele>364</ele>
        <time>2015-03-15T08:51:15.000Z</time>
      </trkpt>
      <trkpt lat="47.46691" lon="6.78043">
        <ele>364</ele>
        <time>2015-03-15T08:51:16.000Z</time>
      </trkpt>
      <trkpt lat="47.46689" lon="6.78048">
        <ele>364</ele>
        <time>2015-03-15T08:51:17.000Z</time>
      </trkpt>
      <trkpt lat="47.46687" lon="6.78054">
        <ele>364</ele>
        <time>2015-03-15T08:51:18.000Z</time>
      </trkpt>
      <trkpt lat="47.46685" lon="6.7806">
        <ele>364</ele>
        <time>2015-03-15T08:51:19.000Z</time>
      </trkpt>
      <trkpt lat="47.46683" lon="6.78067">
        <ele>363</ele>
        <time>2015-03-15T08:51:20.000Z</time>
      </trkpt>
      <trkpt lat="47.4668" lon="6.78074">
        <ele>363</ele>
        <time>2015-03-15T08:51:21.000Z</time>
      </trkpt>
      <trkpt lat="47.46677" lon="6.7808">
        <ele>364</ele>
        <time>2015-03-15T08:51:22.000Z</time>
      </trkpt>
      <trkpt lat="47.46675" lon="6.78085">
        <ele>362</ele>
        <time>2015-03-15T08:51:23.000Z</time>
      </trkpt>
      <trkpt lat="47.46672" lon="6.7809">
        <ele>362</ele>
        <time>2015-03-15T08:51:24.000Z</time>
      </trkpt>
      <trkpt lat="47.4667" lon="6.78095">
        <ele>362</ele>
        <time>2015-03-15T08:51:25.000Z</time>
      </trkpt>
      <trkpt lat="47.46668" lon="6.78099">
        <ele>362</ele>
        <time>2015-03-15T08:51:26.000Z</time>
      </trkpt>
      <trkpt lat="47.46666" lon="6.78103">
        <ele>367</ele>
        <time>2015-03-15T08:51:27.000Z</time>
      </trkpt>
      <trkpt lat="47.46664" lon="6.78107">
        <ele>368</ele>
        <time>2015-03-15T08:51:28.000Z</time>
      </trkpt>
      <trkpt lat="47.46663" lon="6.78111">
        <ele>368</ele>
        <time>2015-03-15T08:51:29.000Z</time>
      </trkpt>
      <trkpt lat="47.46659" lon="6.78115">
        <ele>368</ele>
        <time>2015-03-15T08:51:31.000Z</time>
      </trkpt>
      <trkpt lat="47.46657" lon="6.78116">
        <ele>368</ele>
        <time>2015-03-15T08:51:32.000Z</time>
      </trkpt>
      <trkpt lat="47.46653" lon="6.78117">
        <ele>368</ele>
        <time>2015-03-15T08:51:34.000Z</time>
      </trkpt>
      <trkpt lat="47.46651" lon="6.78117">
        <ele>369</ele>
        <time>2015-03-15T08:51:35.000Z</time>
      </trkpt>
      <trkpt lat="47.46647" lon="6.78119">
        <ele>369</ele>
        <time>2015-03-15T08:51:37.000Z</time>
      </trkpt>
      <trkpt lat="47.46646" lon="6.78121">
        <ele>369</ele>
        <time>2015-03-15T08:51:38.000Z</time>
      </trkpt>
      <trkpt lat="47.46645" lon="6.78124">
        <ele>369</ele>
        <time>2015-03-15T08:51:39.000Z</time>
      </trkpt>
      <trkpt lat="47.46643" lon="6.78127">
        <ele>369</ele>
        <time>2015-03-15T08:51:40.000Z</time>
      </trkpt>
      <trkpt lat="47.46641" lon="6.78132">
        <ele>369</ele>
        <time>2015-03-15T08:51:42.000Z</time>
      </trkpt>
      <trkpt lat="47.4664" lon="6.78135">
        <ele>369</ele>
        <time>2015-03-15T08:51:43.000Z</time>
      </trkpt>
      <trkpt lat="47.46637" lon="6.78138">
        <ele>369</ele>
        <time>2015-03-15T08:51:45.000Z</time>
      </trkpt>
      <trkpt lat="47.46636" lon="6.7814">
        <ele>369</ele>
        <time>2015-03-15T08:51:46.000Z</time>
      </trkpt>
      <trkpt lat="47.46633" lon="6.78144">
        <ele>369</ele>
        <time>2015-03-15T08:51:48.000Z</time>
      </trkpt>
      <trkpt lat="47.46633" lon="6.78147">
        <ele>368</ele>
        <time>2015-03-15T08:51:49.000Z</time>
      </trkpt>
      <trkpt lat="47.46632" lon="6.78151">
        <ele>368</ele>
        <time>2015-03-15T08:51:50.000Z</time>
      </trkpt>
      <trkpt lat="47.46631" lon="6.78154">
        <ele>368</ele>
        <time>2015-03-15T08:51:51.000Z</time>
      </trkpt>
      <trkpt lat="47.46631" lon="6.78158">
        <ele>368</ele>
        <time>2015-03-15T08:51:52.000Z</time>
      </trkpt>
      <trkpt lat="47.46631" lon="6.78163">
        <ele>368</ele>
        <time>2015-03-15T08:51:53.000Z</time>
      </trkpt>
      <trkpt lat="47.4663" lon="6.78167">
        <ele>365</ele>
        <time>2015-03-15T08:51:54.000Z</time>
      </trkpt>
      <trkpt lat="47.4663" lon="6.78171">
        <ele>365</ele>
        <time>2015-03-15T08:51:55.000Z</time>
      </trkpt>
      <trkpt lat="47.4663" lon="6.78175">
        <ele>365</ele>
        <time>2015-03-15T08:51:56.000Z</time>
      </trkpt>
      <trkpt lat="47.4663" lon="6.78179">
        <ele>365</ele>
        <time>2015-03-15T08:51:57.000Z</time>
      </trkpt>
      <trkpt lat="47.4663" lon="6.78183">
        <ele>365</ele>
        <time>2015-03-15T08:51:58.000Z</time>
      </trkpt>
      <trkpt lat="47.4663" lon="6.78187">
        <ele>365</ele>
        <time>2015-03-15T08:51:59.000Z</time>
      </trkpt>
      <trkpt lat="47.4663" lon="6.78191">
        <ele>365</ele>
        <time>2015-03-15T08:52:00.000Z</time>
      </trkpt>
      <trkpt lat="47.46629" lon="6.78195">
        <ele>365</ele>
        <time>2015-03-15T08:52:01.000Z</time>
      </trkpt>
      <trkpt lat="47.46629" lon="6.78202">
        <ele>365</ele>
        <time>2015-03-15T08:52:03.000Z</time>
      </trkpt>
      <trkpt lat="47.46629" lon="6.78205">
        <ele>365</ele>
        <time>2015-03-15T08:52:04.000Z</time>
      </trkpt>
      <trkpt lat="47.46629" lon="6.78211">
        <ele>365</ele>
        <time>2015-03-15T08:52:06.000Z</time>
      </trkpt>
      <trkpt lat="47.46629" lon="6.78214">
        <ele>365</ele>
        <time>2015-03-15T08:52:07.000Z</time>
      </trkpt>
      <trkpt lat="47.46628" lon="6.78218">
        <ele>365</ele>
        <time>2015-03-15T08:52:08.000Z</time>
      </trkpt>
      <trkpt lat="47.46627" lon="6.78221">
        <ele>365</ele>
        <time>2015-03-15T08:52:09.000Z</time>
      </trkpt>
      <trkpt lat="47.46627" lon="6.78224">
        <ele>365</ele>
        <time>2015-03-15T08:52:09.999Z</time>
      </trkpt>
      <trkpt lat="47.46626" lon="6.78227">
        <ele>365</ele>
        <time>2015-03-15T08:52:11.000Z</time>
      </trkpt>
      <trkpt lat="47.46624" lon="6.78233">
        <ele>365</ele>
        <time>2015-03-15T08:52:13.000Z</time>
      </trkpt>
      <trkpt lat="47.46623" lon="6.78235">
        <ele>365</ele>
        <time>2015-03-15T08:52:14.000Z</time>
      </trkpt>
      <trkpt lat="47.46622" lon="6.78241">
        <ele>366</ele>
        <time>2015-03-15T08:52:16.000Z</time>
      </trkpt>
      <trkpt lat="47.46621" lon="6.78244">
        <ele>366</ele>
        <time>2015-03-15T08:52:16.999Z</time>
      </trkpt>
      <trkpt lat="47.46621" lon="6.78248">
        <ele>366</ele>
        <time>2015-03-15T08:52:18.000Z</time>
      </trkpt>
      <trkpt lat="47.46621" lon="6.78251">
        <ele>369</ele>
        <time>2015-03-15T08:52:19.000Z</time>
      </trkpt>
      <trkpt lat="47.46619" lon="6.78256">
        <ele>370</ele>
        <time>2015-03-15T08:52:21.000Z</time>
      </trkpt>
      <trkpt lat="47.46618" lon="6.78258">
        <ele>370</ele>
        <time>2015-03-15T08:52:22.000Z</time>
      </trkpt>
      <trkpt lat="47.46614" lon="6.78261">
        <ele>370</ele>
        <time>2015-03-15T08:52:25.000Z</time>
      </trkpt>
      <trkpt lat="47.46613" lon="6.78259">
        <ele>370</ele>
        <time>2015-03-15T08:52:26.000Z</time>
      </trkpt>
      <trkpt lat="47.4661" lon="6.78254">
        <ele>370</ele>
        <time>2015-03-15T08:52:28.000Z</time>
      </trkpt>
      <trkpt lat="47.46608" lon="6.78253">
        <ele>370</ele>
        <time>2015-03-15T08:52:29.000Z</time>
      </trkpt>
      <trkpt lat="47.46605" lon="6.78254">
        <ele>370</ele>
        <time>2015-03-15T08:52:31.000Z</time>
      </trkpt>
      <trkpt lat="47.46603" lon="6.78254">
        <ele>370</ele>
        <time>2015-03-15T08:52:32.000Z</time>
      </trkpt>
      <trkpt lat="47.466" lon="6.78257">
        <ele>370</ele>
        <time>2015-03-15T08:52:34.000Z</time>
      </trkpt>
      <trkpt lat="47.46598" lon="6.78259">
        <ele>370</ele>
        <time>2015-03-15T08:52:35.000Z</time>
      </trkpt>
      <trkpt lat="47.46595" lon="6.78261">
        <ele>370</ele>
        <time>2015-03-15T08:52:37.000Z</time>
      </trkpt>
      <trkpt lat="47.46593" lon="6.78262">
        <ele>370</ele>
        <time>2015-03-15T08:52:38.000Z</time>
      </trkpt>
      <trkpt lat="47.4659" lon="6.78263">
        <ele>370</ele>
        <time>2015-03-15T08:52:40.000Z</time>
      </trkpt>
      <trkpt lat="47.46587" lon="6.78264">
        <ele>370</ele>
        <time>2015-03-15T08:52:41.000Z</time>
      </trkpt>
      <trkpt lat="47.46584" lon="6.78266">
        <ele>370</ele>
        <time>2015-03-15T08:52:43.000Z</time>
      </trkpt>
      <trkpt lat="47.46582" lon="6.78266">
        <ele>373</ele>
        <time>2015-03-15T08:52:44.000Z</time>
      </trkpt>
      <trkpt lat="47.46578" lon="6.78267">
        <ele>374</ele>
        <time>2015-03-15T08:52:46.000Z</time>
      </trkpt>
      <trkpt lat="47.46576" lon="6.78267">
        <ele>374</ele>
        <time>2015-03-15T08:52:46.999Z</time>
      </trkpt>
      <trkpt lat="47.46572" lon="6.78266">
        <ele>374</ele>
        <time>2015-03-15T08:52:50.000Z</time>
      </trkpt>
      <trkpt lat="47.46571" lon="6.78266">
        <ele>374</ele>
        <time>2015-03-15T08:52:51.000Z</time>
      </trkpt>
      <trkpt lat="47.46567" lon="6.78267">
        <ele>375</ele>
        <time>2015-03-15T08:52:53.000Z</time>
      </trkpt>
      <trkpt lat="47.46565" lon="6.78268">
        <ele>375</ele>
        <time>2015-03-15T08:52:54.000Z</time>
      </trkpt>
      <trkpt lat="47.46561" lon="6.7827">
        <ele>376</ele>
        <time>2015-03-15T08:52:56.000Z</time>
      </trkpt>
      <trkpt lat="47.4656" lon="6.7827">
        <ele>376</ele>
        <time>2015-03-15T08:52:57.000Z</time>
      </trkpt>
      <trkpt lat="47.46556" lon="6.78272">
        <ele>376</ele>
        <time>2015-03-15T08:52:59.000Z</time>
      </trkpt>
      <trkpt lat="47.46554" lon="6.78272">
        <ele>376</ele>
        <time>2015-03-15T08:52:59.999Z</time>
      </trkpt>
      <trkpt lat="47.46552" lon="6.78273">
        <ele>376</ele>
        <time>2015-03-15T08:53:01.000Z</time>
      </trkpt>
      <trkpt lat="47.46549" lon="6.78273">
        <ele>377</ele>
        <time>2015-03-15T08:53:02.000Z</time>
      </trkpt>
      <trkpt lat="47.46547" lon="6.78272">
        <ele>377</ele>
        <time>2015-03-15T08:53:03.000Z</time>
      </trkpt>
      <trkpt lat="47.46544" lon="6.78272">
        <ele>377</ele>
        <time>2015-03-15T08:53:04.000Z</time>
      </trkpt>
      <trkpt lat="47.46542" lon="6.78271">
        <ele>377</ele>
        <time>2015-03-15T08:53:05.001Z</time>
      </trkpt>
      <trkpt lat="47.46539" lon="6.78271">
        <ele>377</ele>
        <time>2015-03-15T08:53:06.000Z</time>
      </trkpt>
      <trkpt lat="47.46535" lon="6.7827">
        <ele>377</ele>
        <time>2015-03-15T08:53:08.000Z</time>
      </trkpt>
      <trkpt lat="47.46533" lon="6.7827">
        <ele>377</ele>
        <time>2015-03-15T08:53:09.000Z</time>
      </trkpt>
      <trkpt lat="47.46529" lon="6.7827">
        <ele>378</ele>
        <time>2015-03-15T08:53:12.000Z</time>
      </trkpt>
      <trkpt lat="47.46527" lon="6.7827">
        <ele>378</ele>
        <time>2015-03-15T08:53:13.000Z</time>
      </trkpt>
      <trkpt lat="47.46525" lon="6.7827">
        <ele>378</ele>
        <time>2015-03-15T08:53:14.000Z</time>
      </trkpt>
      <trkpt lat="47.46523" lon="6.78269">
        <ele>378</ele>
        <time>2015-03-15T08:53:15.000Z</time>
      </trkpt>
      <trkpt lat="47.4652" lon="6.78267">
        <ele>378</ele>
        <time>2015-03-15T08:53:16.000Z</time>
      </trkpt>
      <trkpt lat="47.46517" lon="6.78267">
        <ele>378</ele>
        <time>2015-03-15T08:53:17.000Z</time>
      </trkpt>
      <trkpt lat="47.46515" lon="6.78267">
        <ele>378</ele>
        <time>2015-03-15T08:53:18.000Z</time>
      </trkpt>
      <trkpt lat="47.46512" lon="6.78266">
        <ele>378</ele>
        <time>2015-03-15T08:53:19.000Z</time>
      </trkpt>
      <trkpt lat="47.4651" lon="6.78266">
        <ele>378</ele>
        <time>2015-03-15T08:53:20.000Z</time>
      </trkpt>
      <trkpt lat="47.46507" lon="6.78266">
        <ele>378</ele>
        <time>2015-03-15T08:53:21.000Z</time>
      </trkpt>
      <trkpt lat="47.46504" lon="6.78266">
        <ele>378</ele>
        <time>2015-03-15T08:53:22.000Z</time>
      </trkpt>
      <trkpt lat="47.46502" lon="6.78267">
        <ele>378</ele>
        <time>2015-03-15T08:53:23.000Z</time>
      </trkpt>
      <trkpt lat="47.46499" lon="6.78266">
        <ele>380</ele>
        <time>2015-03-15T08:53:24.001Z</time>
      </trkpt>
      <trkpt lat="47.46497" lon="6.78266">
        <ele>380</ele>
        <time>2015-03-15T08:53:25.000Z</time>
      </trkpt>
      <trkpt lat="47.46495" lon="6.78265">
        <ele>380</ele>
        <time>2015-03-15T08:53:26.000Z</time>
      </trkpt>
      <trkpt lat="47.46492" lon="6.78265">
        <ele>380</ele>
        <time>2015-03-15T08:53:27.000Z</time>
      </trkpt>
      <trkpt lat="47.4649" lon="6.78266">
        <ele>380</ele>
        <time>2015-03-15T08:53:28.000Z</time>
      </trkpt>
      <trkpt lat="47.46488" lon="6.78267">
        <ele>381</ele>
        <time>2015-03-15T08:53:29.000Z</time>
      </trkpt>
      <trkpt lat="47.46486" lon="6.7827">
        <ele>381</ele>
        <time>2015-03-15T08:53:30.000Z</time>
      </trkpt>
      <trkpt lat="47.46484" lon="6.78272">
        <ele>381</ele>
        <time>2015-03-15T08:53:31.000Z</time>
      </trkpt>
      <trkpt lat="47.46482" lon="6.78276">
        <ele>382</ele>
        <time>2015-03-15T08:53:33.000Z</time>
      </trkpt>
      <trkpt lat="47.46482" lon="6.78278">
        <ele>382</ele>
        <time>2015-03-15T08:53:34.000Z</time>
      </trkpt>
      <trkpt lat="47.46486" lon="6.78277">
        <ele>381</ele>
        <time>2015-03-15T08:53:50.000Z</time>
      </trkpt>
      <trkpt lat="47.46487" lon="6.78278">
        <ele>382</ele>
        <time>2015-03-15T08:53:51.000Z</time>
      </trkpt>
      <trkpt lat="47.46486" lon="6.78284">
        <ele>382</ele>
        <time>2015-03-15T08:53:55.000Z</time>
      </trkpt>
      <trkpt lat="47.46486" lon="6.78284">
        <ele>382</ele>
        <time>2015-03-15T08:53:56.000Z</time>
      </trkpt>
      <trkpt lat="47.46482" lon="6.78286">
        <ele>382</ele>
        <time>2015-03-15T08:54:01.000Z</time>
      </trkpt>
      <trkpt lat="47.46481" lon="6.78286">
        <ele>382</ele>
        <time>2015-03-15T08:54:02.000Z</time>
      </trkpt>
      <trkpt lat="47.46479" lon="6.78286">
        <ele>382</ele>
        <time>2015-03-15T08:54:03.000Z</time>
      </trkpt>
      <trkpt lat="47.46476" lon="6.78286">
        <ele>382</ele>
        <time>2015-03-15T08:54:04.000Z</time>
      </trkpt>
      <trkpt lat="47.46473" lon="6.78286">
        <ele>382</ele>
        <time>2015-03-15T08:54:05.000Z</time>
      </trkpt>
      <trkpt lat="47.46469" lon="6.78285">
        <ele>382</ele>
        <time>2015-03-15T08:54:06.000Z</time>
      </trkpt>
      <trkpt lat="47.46466" lon="6.78284">
        <ele>382</ele>
        <time>2015-03-15T08:54:07.000Z</time>
      </trkpt>
      <trkpt lat="47.46464" lon="6.78284">
        <ele>383</ele>
        <time>2015-03-15T08:54:08.000Z</time>
      </trkpt>
      <trkpt lat="47.4646" lon="6.78282">
        <ele>382</ele>
        <time>2015-03-15T08:54:11.000Z</time>
      </trkpt>
      <trkpt lat="47.46459" lon="6.78281">
        <ele>382</ele>
        <time>2015-03-15T08:54:12.000Z</time>
      </trkpt>
      <trkpt lat="47.46455" lon="6.78278">
        <ele>382</ele>
        <time>2015-03-15T08:54:15.000Z</time>
      </trkpt>
      <trkpt lat="47.46453" lon="6.78278">
        <ele>382</ele>
        <time>2015-03-15T08:54:16.000Z</time>
      </trkpt>
      <trkpt lat="47.4645" lon="6.78276">
        <ele>382</ele>
        <time>2015-03-15T08:54:18.000Z</time>
      </trkpt>
      <trkpt lat="47.46448" lon="6.78276">
        <ele>382</ele>
        <time>2015-03-15T08:54:19.000Z</time>
      </trkpt>
      <trkpt lat="47.46444" lon="6.78274">
        <ele>382</ele>
        <time>2015-03-15T08:54:21.000Z</time>
      </trkpt>
      <trkpt lat="47.46441" lon="6.78274">
        <ele>382</ele>
        <time>2015-03-15T08:54:22.000Z</time>
      </trkpt>
      <trkpt lat="47.46439" lon="6.78273">
        <ele>382</ele>
        <time>2015-03-15T08:54:23.000Z</time>
      </trkpt>
      <trkpt lat="47.46437" lon="6.78272">
        <ele>382</ele>
        <time>2015-03-15T08:54:24.000Z</time>
      </trkpt>
      <trkpt lat="47.46434" lon="6.78272">
        <ele>382</ele>
        <time>2015-03-15T08:54:25.000Z</time>
      </trkpt>
      <trkpt lat="47.46432" lon="6.78271">
        <ele>382</ele>
        <time>2015-03-15T08:54:26.000Z</time>
      </trkpt>
      <trkpt lat="47.4643" lon="6.7827">
        <ele>382</ele>
        <time>2015-03-15T08:54:27.000Z</time>
      </trkpt>
      <trkpt lat="47.46427" lon="6.7827">
        <ele>382</ele>
        <time>2015-03-15T08:54:28.000Z</time>
      </trkpt>
      <trkpt lat="47.46423" lon="6.78269">
        <ele>382</ele>
        <time>2015-03-15T08:54:30.000Z</time>
      </trkpt>
      <trkpt lat="47.46421" lon="6.78269">
        <ele>382</ele>
        <time>2015-03-15T08:54:31.000Z</time>
      </trkpt>
      <trkpt lat="47.46418" lon="6.7827">
        <ele>382</ele>
        <time>2015-03-15T08:54:32.000Z</time>
      </trkpt>
      <trkpt lat="47.46415" lon="6.7827">
        <ele>384</ele>
        <time>2015-03-15T08:54:33.000Z</time>
      </trkpt>
      <trkpt lat="47.46412" lon="6.78271">
        <ele>384</ele>
        <time>2015-03-15T08:54:34.000Z</time>
      </trkpt>
      <trkpt lat="47.46409" lon="6.78271">
        <ele>384</ele>
        <time>2015-03-15T08:54:35.000Z</time>
      </trkpt>
      <trkpt lat="47.46406" lon="6.78271">
        <ele>384</ele>
        <time>2015-03-15T08:54:36.000Z</time>
      </trkpt>
      <trkpt lat="47.46403" lon="6.7827">
        <ele>385</ele>
        <time>2015-03-15T08:54:37.000Z</time>
      </trkpt>
      <trkpt lat="47.464" lon="6.7827">
        <ele>385</ele>
        <time>2015-03-15T08:54:38.000Z</time>
      </trkpt>
      <trkpt lat="47.46398" lon="6.78271">
        <ele>385</ele>
        <time>2015-03-15T08:54:39.000Z</time>
      </trkpt>
      <trkpt lat="47.46395" lon="6.78271">
        <ele>385</ele>
        <time>2015-03-15T08:54:40.000Z</time>
      </trkpt>
      <trkpt lat="47.46393" lon="6.78271">
        <ele>385</ele>
        <time>2015-03-15T08:54:41.000Z</time>
      </trkpt>
      <trkpt lat="47.4639" lon="6.78272">
        <ele>386</ele>
        <time>2015-03-15T08:54:42.000Z</time>
      </trkpt>
      <trkpt lat="47.46387" lon="6.78272">
        <ele>386</ele>
        <time>2015-03-15T08:54:43.000Z</time>
      </trkpt>
      <trkpt lat="47.46384" lon="6.78273">
        <ele>386</ele>
        <time>2015-03-15T08:54:44.000Z</time>
      </trkpt>
      <trkpt lat="47.4638" lon="6.78273">
        <ele>386</ele>
        <time>2015-03-15T08:54:45.000Z</time>
      </trkpt>
      <trkpt lat="47.46377" lon="6.78274">
        <ele>386</ele>
        <time>2015-03-15T08:54:46.000Z</time>
      </trkpt>
      <trkpt lat="47.46374" lon="6.78274">
        <ele>387</ele>
        <time>2015-03-15T08:54:47.000Z</time>
      </trkpt>
      <trkpt lat="47.46371" lon="6.78275">
        <ele>387</ele>
        <time>2015-03-15T08:54:48.000Z</time>
      </trkpt>
      <trkpt lat="47.46367" lon="6.78275">
        <ele>387</ele>
        <time>2015-03-15T08:54:49.000Z</time>
      </trkpt>
      <trkpt lat="47.46363" lon="6.78275">
        <ele>387</ele>
        <time>2015-03-15T08:54:50.000Z</time>
      </trkpt>
      <trkpt lat="47.46359" lon="6.78276">
        <ele>387</ele>
        <time>2015-03-15T08:54:51.000Z</time>
      </trkpt>
      <trkpt lat="47.46356" lon="6.78276">
        <ele>387</ele>
        <time>2015-03-15T08:54:52.000Z</time>
      </trkpt>
      <trkpt lat="47.46352" lon="6.78275">
        <ele>388</ele>
        <time>2015-03-15T08:54:53.000Z</time>
      </trkpt>
      <trkpt lat="47.46348" lon="6.78275">
        <ele>388</ele>
        <time>2015-03-15T08:54:54.000Z</time>
      </trkpt>
      <trkpt lat="47.46344" lon="6.78275">
        <ele>388</ele>
        <time>2015-03-15T08:54:55.000Z</time>
      </trkpt>
      <trkpt lat="47.46341" lon="6.78275">
        <ele>388</ele>
        <time>2015-03-15T08:54:56.000Z</time>
      </trkpt>
      <trkpt lat="47.46337" lon="6.78276">
        <ele>388</ele>
        <time>2015-03-15T08:54:57.000Z</time>
      </trkpt>
      <trkpt lat="47.46334" lon="6.78276">
        <ele>388</ele>
        <time>2015-03-15T08:54:58.000Z</time>
      </trkpt>
      <trkpt lat="47.4633" lon="6.78277">
        <ele>393</ele>
        <time>2015-03-15T08:54:59.000Z</time>
      </trkpt>
      <trkpt lat="47.46328" lon="6.78277">
        <ele>393</ele>
        <time>2015-03-15T08:55:00.000Z</time>
      </trkpt>
      <trkpt lat="47.46325" lon="6.78278">
        <ele>393</ele>
        <time>2015-03-15T08:55:01.000Z</time>
      </trkpt>
      <trkpt lat="47.46321" lon="6.78278">
        <ele>394</ele>
        <time>2015-03-15T08:55:02.000Z</time>
      </trkpt>
      <trkpt lat="47.46318" lon="6.78279">
        <ele>394</ele>
        <time>2015-03-15T08:55:03.000Z</time>
      </trkpt>
      <trkpt lat="47.46315" lon="6.7828">
        <ele>394</ele>
        <time>2015-03-15T08:55:04.000Z</time>
      </trkpt>
      <trkpt lat="47.46312" lon="6.78281">
        <ele>394</ele>
        <time>2015-03-15T08:55:05.000Z</time>
      </trkpt>
      <trkpt lat="47.4631" lon="6.78282">
        <ele>395</ele>
        <time>2015-03-15T08:55:06.000Z</time>
      </trkpt>
      <trkpt lat="47.46307" lon="6.78282">
        <ele>395</ele>
        <time>2015-03-15T08:55:07.000Z</time>
      </trkpt>
      <trkpt lat="47.46305" lon="6.78283">
        <ele>395</ele>
        <time>2015-03-15T08:55:08.000Z</time>
      </trkpt>
      <trkpt lat="47.46302" lon="6.78283">
        <ele>395</ele>
        <time>2015-03-15T08:55:09.000Z</time>
      </trkpt>
      <trkpt lat="47.46299" lon="6.78284">
        <ele>395</ele>
        <time>2015-03-15T08:55:10.000Z</time>
      </trkpt>
      <trkpt lat="47.46296" lon="6.78284">
        <ele>396</ele>
        <time>2015-03-15T08:55:11.000Z</time>
      </trkpt>
      <trkpt lat="47.46293" lon="6.78284">
        <ele>396</ele>
        <time>2015-03-15T08:55:12.000Z</time>
      </trkpt>
      <trkpt lat="47.4629" lon="6.78285">
        <ele>396</ele>
        <time>2015-03-15T08:55:13.000Z</time>
      </trkpt>
      <trkpt lat="47.46287" lon="6.78285">
        <ele>396</ele>
        <time>2015-03-15T08:55:14.000Z</time>
      </trkpt>
      <trkpt lat="47.46284" lon="6.78285">
        <ele>396</ele>
        <time>2015-03-15T08:55:15.000Z</time>
      </trkpt>
      <trkpt lat="47.46281" lon="6.78284">
        <ele>397</ele>
        <time>2015-03-15T08:55:16.000Z</time>
      </trkpt>
      <trkpt lat="47.46278" lon="6.78284">
        <ele>397</ele>
        <time>2015-03-15T08:55:17.000Z</time>
      </trkpt>
      <trkpt lat="47.46275" lon="6.78284">
        <ele>397</ele>
        <time>2015-03-15T08:55:18.000Z</time>
      </trkpt>
      <trkpt lat="47.46273" lon="6.78285">
        <ele>397</ele>
        <time>2015-03-15T08:55:19.000Z</time>
      </trkpt>
      <trkpt lat="47.4627" lon="6.78285">
        <ele>397</ele>
        <time>2015-03-15T08:55:20.000Z</time>
      </trkpt>
      <trkpt lat="47.46267" lon="6.78285">
        <ele>397</ele>
        <time>2015-03-15T08:55:21.000Z</time>
      </trkpt>
      <trkpt lat="47.46265" lon="6.78285">
        <ele>398</ele>
        <time>2015-03-15T08:55:22.000Z</time>
      </trkpt>
      <trkpt lat="47.46262" lon="6.78285">
        <ele>398</ele>
        <time>2015-03-15T08:55:23.000Z</time>
      </trkpt>
      <trkpt lat="47.4626" lon="6.78285">
        <ele>398</ele>
        <time>2015-03-15T08:55:24.000Z</time>
      </trkpt>
      <trkpt lat="47.46257" lon="6.78285">
        <ele>398</ele>
        <time>2015-03-15T08:55:25.000Z</time>
      </trkpt>
      <trkpt lat="47.46255" lon="6.78285">
        <ele>398</ele>
        <time>2015-03-15T08:55:26.000Z</time>
      </trkpt>
      <trkpt lat="47.46252" lon="6.78285">
        <ele>398</ele>
        <time>2015-03-15T08:55:27.000Z</time>
      </trkpt>
      <trkpt lat="47.46249" lon="6.78285">
        <ele>404</ele>
        <time>2015-03-15T08:55:28.000Z</time>
      </trkpt>
      <trkpt lat="47.46247" lon="6.78285">
        <ele>404</ele>
        <time>2015-03-15T08:55:29.000Z</time>
      </trkpt>
      <trkpt lat="47.46244" lon="6.78286">
        <ele>404</ele>
        <time>2015-03-15T08:55:30.000Z</time>
      </trkpt>
      <trkpt lat="47.46242" lon="6.78286">
        <ele>404</ele>
        <time>2015-03-15T08:55:31.000Z</time>
      </trkpt>
      <trkpt lat="47.46238" lon="6.78287">
        <ele>404</ele>
        <time>2015-03-15T08:55:33.000Z</time>
      </trkpt>
      <trkpt lat="47.46236" lon="6.78287">
        <ele>404</ele>
        <time>2015-03-15T08:55:34.000Z</time>
      </trkpt>
      <trkpt lat="47.46232" lon="6.78287">
        <ele>404</ele>
        <time>2015-03-15T08:55:36.000Z</time>
      </trkpt>
      <trkpt lat="47.4623" lon="6.78287">
        <ele>405</ele>
        <time>2015-03-15T08:55:37.000Z</time>
      </trkpt>
      <trkpt lat="47.46228" lon="6.78288">
        <ele>405</ele>
        <time>2015-03-15T08:55:38.000Z</time>
      </trkpt>
      <trkpt lat="47.46225" lon="6.78288">
        <ele>405</ele>
        <time>2015-03-15T08:55:39.000Z</time>
      </trkpt>
      <trkpt lat="47.46222" lon="6.78288">
        <ele>405</ele>
        <time>2015-03-15T08:55:40.000Z</time>
      </trkpt>
      <trkpt lat="47.46219" lon="6.78288">
        <ele>405</ele>
        <time>2015-03-15T08:55:41.000Z</time>
      </trkpt>
      <trkpt lat="47.46217" lon="6.78288">
        <ele>405</ele>
        <time>2015-03-15T08:55:42.000Z</time>
      </trkpt>
      <trkpt lat="47.46215" lon="6.78287">
        <ele>405</ele>
        <time>2015-03-15T08:55:43.000Z</time>
      </trkpt>
      <trkpt lat="47.4621" lon="6.78287">
        <ele>405</ele>
        <time>2015-03-15T08:55:45.000Z</time>
      </trkpt>
      <trkpt lat="47.46208" lon="6.78288">
        <ele>406</ele>
        <time>2015-03-15T08:55:46.000Z</time>
      </trkpt>
      <trkpt lat="47.46204" lon="6.78288">
        <ele>406</ele>
        <time>2015-03-15T08:55:48.000Z</time>
      </trkpt>
      <trkpt lat="47.46202" lon="6.78289">
        <ele>406</ele>
        <time>2015-03-15T08:55:49.000Z</time>
      </trkpt>
      <trkpt lat="47.46199" lon="6.7829">
        <ele>406</ele>
        <time>2015-03-15T08:55:50.000Z</time>
      </trkpt>
      <trkpt lat="47.46196" lon="6.78291">
        <ele>406</ele>
        <time>2015-03-15T08:55:51.000Z</time>
      </trkpt>
      <trkpt lat="47.46194" lon="6.78292">
        <ele>406</ele>
        <time>2015-03-15T08:55:52.000Z</time>
      </trkpt>
      <trkpt lat="47.46191" lon="6.78292">
        <ele>406</ele>
        <time>2015-03-15T08:55:53.000Z</time>
      </trkpt>
      <trkpt lat="47.46188" lon="6.78293">
        <ele>406</ele>
        <time>2015-03-15T08:55:54.000Z</time>
      </trkpt>
      <trkpt lat="47.46185" lon="6.78294">
        <ele>406</ele>
        <time>2015-03-15T08:55:55.000Z</time>
      </trkpt>
      <trkpt lat="47.46183" lon="6.78294">
        <ele>407</ele>
        <time>2015-03-15T08:55:56.000Z</time>
      </trkpt>
      <trkpt lat="47.4618" lon="6.78295">
        <ele>407</ele>
        <time>2015-03-15T08:55:57.000Z</time>
      </trkpt>
      <trkpt lat="47.46178" lon="6.78296">
        <ele>407</ele>
        <time>2015-03-15T08:55:58.000Z</time>
      </trkpt>
      <trkpt lat="47.46175" lon="6.78297">
        <ele>407</ele>
        <time>2015-03-15T08:55:59.000Z</time>
      </trkpt>
      <trkpt lat="47.46172" lon="6.78298">
        <ele>407</ele>
        <time>2015-03-15T08:56:00.000Z</time>
      </trkpt>
      <trkpt lat="47.46169" lon="6.78299">
        <ele>407</ele>
        <time>2015-03-15T08:56:01.000Z</time>
      </trkpt>
      <trkpt lat="47.46165" lon="6.783">
        <ele>410</ele>
        <time>2015-03-15T08:56:02.000Z</time>
      </trkpt>
      <trkpt lat="47.46161" lon="6.783">
        <ele>410</ele>
        <time>2015-03-15T08:56:03.000Z</time>
      </trkpt>
      <trkpt lat="47.46157" lon="6.78301">
        <ele>410</ele>
        <time>2015-03-15T08:56:04.000Z</time>
      </trkpt>
      <trkpt lat="47.46154" lon="6.78301">
        <ele>410</ele>
        <time>2015-03-15T08:56:05.000Z</time>
      </trkpt>
      <trkpt lat="47.4615" lon="6.78301">
        <ele>410</ele>
        <time>2015-03-15T08:56:06.000Z</time>
      </trkpt>
      <trkpt lat="47.46147" lon="6.78301">
        <ele>410</ele>
        <time>2015-03-15T08:56:07.000Z</time>
      </trkpt>
      <trkpt lat="47.46144" lon="6.78302">
        <ele>410</ele>
        <time>2015-03-15T08:56:08.000Z</time>
      </trkpt>
      <trkpt lat="47.46141" lon="6.78303">
        <ele>410</ele>
        <time>2015-03-15T08:56:09.000Z</time>
      </trkpt>
      <trkpt lat="47.46138" lon="6.78304">
        <ele>410</ele>
        <time>2015-03-15T08:56:10.000Z</time>
      </trkpt>
      <trkpt lat="47.46135" lon="6.78305">
        <ele>410</ele>
        <time>2015-03-15T08:56:11.000Z</time>
      </trkpt>
      <trkpt lat="47.46132" lon="6.78306">
        <ele>410</ele>
        <time>2015-03-15T08:56:12.000Z</time>
      </trkpt>
      <trkpt lat="47.46129" lon="6.78307">
        <ele>410</ele>
        <time>2015-03-15T08:56:13.000Z</time>
      </trkpt>
      <trkpt lat="47.46126" lon="6.78307">
        <ele>410</ele>
        <time>2015-03-15T08:56:14.000Z</time>
      </trkpt>
      <trkpt lat="47.46122" lon="6.78308">
        <ele>410</ele>
        <time>2015-03-15T08:56:15.000Z</time>
      </trkpt>
      <trkpt lat="47.46118" lon="6.78308">
        <ele>410</ele>
        <time>2015-03-15T08:56:16.000Z</time>
      </trkpt>
      <trkpt lat="47.46114" lon="6.78309">
        <ele>410</ele>
        <time>2015-03-15T08:56:17.000Z</time>
      </trkpt>
      <trkpt lat="47.4611" lon="6.78311">
        <ele>410</ele>
        <time>2015-03-15T08:56:18.000Z</time>
      </trkpt>
      <trkpt lat="47.46105" lon="6.78312">
        <ele>410</ele>
        <time>2015-03-15T08:56:19.000Z</time>
      </trkpt>
      <trkpt lat="47.46095" lon="6.78318">
        <ele>409</ele>
        <time>2015-03-15T08:56:20.000Z</time>
      </trkpt>
      <trkpt lat="47.46092" lon="6.7832">
        <ele>409</ele>
        <time>2015-03-15T08:56:21.000Z</time>
      </trkpt>
      <trkpt lat="47.46087" lon="6.78322">
        <ele>409</ele>
        <time>2015-03-15T08:56:22.000Z</time>
      </trkpt>
      <trkpt lat="47.46082" lon="6.78325">
        <ele>408</ele>
        <time>2015-03-15T08:56:23.000Z</time>
      </trkpt>
      <trkpt lat="47.46077" lon="6.78326">
        <ele>408</ele>
        <time>2015-03-15T08:56:24.000Z</time>
      </trkpt>
      <trkpt lat="47.46072" lon="6.78328">
        <ele>408</ele>
        <time>2015-03-15T08:56:25.000Z</time>
      </trkpt>
      <trkpt lat="47.46067" lon="6.7833">
        <ele>408</ele>
        <time>2015-03-15T08:56:26.000Z</time>
      </trkpt>
      <trkpt lat="47.46062" lon="6.78334">
        <ele>406</ele>
        <time>2015-03-15T08:56:27.000Z</time>
      </trkpt>
      <trkpt lat="47.46055" lon="6.78336">
        <ele>406</ele>
        <time>2015-03-15T08:56:28.000Z</time>
      </trkpt>
      <trkpt lat="47.4605" lon="6.7834">
        <ele>406</ele>
        <time>2015-03-15T08:56:29.000Z</time>
      </trkpt>
      <trkpt lat="47.46046" lon="6.78344">
        <ele>405</ele>
        <time>2015-03-15T08:56:30.000Z</time>
      </trkpt>
      <trkpt lat="47.46041" lon="6.78345">
        <ele>405</ele>
        <time>2015-03-15T08:56:31.000Z</time>
      </trkpt>
      <trkpt lat="47.46036" lon="6.78347">
        <ele>405</ele>
        <time>2015-03-15T08:56:32.000Z</time>
      </trkpt>
      <trkpt lat="47.4603" lon="6.78348">
        <ele>405</ele>
        <time>2015-03-15T08:56:33.000Z</time>
      </trkpt>
      <trkpt lat="47.46026" lon="6.78352">
        <ele>404</ele>
        <time>2015-03-15T08:56:34.000Z</time>
      </trkpt>
      <trkpt lat="47.4602" lon="6.78356">
        <ele>404</ele>
        <time>2015-03-15T08:56:35.000Z</time>
      </trkpt>
      <trkpt lat="47.46016" lon="6.7836">
        <ele>404</ele>
        <time>2015-03-15T08:56:36.000Z</time>
      </trkpt>
      <trkpt lat="47.46011" lon="6.78365">
        <ele>404</ele>
        <time>2015-03-15T08:56:37.000Z</time>
      </trkpt>
      <trkpt lat="47.46005" lon="6.78369">
        <ele>404</ele>
        <time>2015-03-15T08:56:38.000Z</time>
      </trkpt>
      <trkpt lat="47.46" lon="6.78371">
        <ele>397</ele>
        <time>2015-03-15T08:56:39.000Z</time>
      </trkpt>
      <trkpt lat="47.45994" lon="6.78374">
        <ele>397</ele>
        <time>2015-03-15T08:56:40.000Z</time>
      </trkpt>
      <trkpt lat="47.45987" lon="6.7838">
        <ele>397</ele>
        <time>2015-03-15T08:56:41.000Z</time>
      </trkpt>
      <trkpt lat="47.45981" lon="6.78386">
        <ele>397</ele>
        <time>2015-03-15T08:56:42.000Z</time>
      </trkpt>
      <trkpt lat="47.45976" lon="6.78391">
        <ele>397</ele>
        <time>2015-03-15T08:56:43.000Z</time>
      </trkpt>
      <trkpt lat="47.45972" lon="6.78397">
        <ele>396</ele>
        <time>2015-03-15T08:56:44.000Z</time>
      </trkpt>
      <trkpt lat="47.45965" lon="6.78402">
        <ele>396</ele>
        <time>2015-03-15T08:56:45.000Z</time>
      </trkpt>
      <trkpt lat="47.45958" lon="6.78407">
        <ele>395</ele>
        <time>2015-03-15T08:56:46.000Z</time>
      </trkpt>
      <trkpt lat="47.4595" lon="6.78413">
        <ele>394</ele>
        <time>2015-03-15T08:56:47.000Z</time>
      </trkpt>
      <trkpt lat="47.45944" lon="6.78421">
        <ele>391</ele>
        <time>2015-03-15T08:56:48.000Z</time>
      </trkpt>
      <trkpt lat="47.45938" lon="6.78432">
        <ele>391</ele>
        <time>2015-03-15T08:56:49.000Z</time>
      </trkpt>
      <trkpt lat="47.45934" lon="6.78447">
        <ele>391</ele>
        <time>2015-03-15T08:56:50.000Z</time>
      </trkpt>
      <trkpt lat="47.45931" lon="6.7846">
        <ele>390</ele>
        <time>2015-03-15T08:56:51.000Z</time>
      </trkpt>
      <trkpt lat="47.45934" lon="6.78474">
        <ele>390</ele>
        <time>2015-03-15T08:56:52.000Z</time>
      </trkpt>
      <trkpt lat="47.45935" lon="6.78487">
        <ele>389</ele>
        <time>2015-03-15T08:56:53.000Z</time>
      </trkpt>
      <trkpt lat="47.45937" lon="6.78498">
        <ele>388</ele>
        <time>2015-03-15T08:56:54.000Z</time>
      </trkpt>
      <trkpt lat="47.45938" lon="6.78508">
        <ele>387</ele>
        <time>2015-03-15T08:56:55.000Z</time>
      </trkpt>
      <trkpt lat="47.45936" lon="6.78518">
        <ele>387</ele>
        <time>2015-03-15T08:56:56.000Z</time>
      </trkpt>
      <trkpt lat="47.45932" lon="6.78527">
        <ele>387</ele>
        <time>2015-03-15T08:56:57.000Z</time>
      </trkpt>
      <trkpt lat="47.45927" lon="6.78533">
        <ele>386</ele>
        <time>2015-03-15T08:56:58.000Z</time>
      </trkpt>
      <trkpt lat="47.45922" lon="6.78539">
        <ele>386</ele>
        <time>2015-03-15T08:56:59.000Z</time>
      </trkpt>
      <trkpt lat="47.45915" lon="6.78534">
        <ele>377</ele>
        <time>2015-03-15T08:57:00.000Z</time>
      </trkpt>
      <trkpt lat="47.45909" lon="6.78528">
        <ele>377</ele>
        <time>2015-03-15T08:57:01.000Z</time>
      </trkpt>
      <trkpt lat="47.45904" lon="6.78523">
        <ele>377</ele>
        <time>2015-03-15T08:57:02.000Z</time>
      </trkpt>
      <trkpt lat="47.45898" lon="6.78517">
        <ele>377</ele>
        <time>2015-03-15T08:57:03.000Z</time>
      </trkpt>
      <trkpt lat="47.45892" lon="6.78511">
        <ele>377</ele>
        <time>2015-03-15T08:57:04.000Z</time>
      </trkpt>
      <trkpt lat="47.45885" lon="6.78502">
        <ele>376</ele>
        <time>2015-03-15T08:57:05.000Z</time>
      </trkpt>
      <trkpt lat="47.45879" lon="6.78495">
        <ele>377</ele>
        <time>2015-03-15T08:57:06.000Z</time>
      </trkpt>
      <trkpt lat="47.45873" lon="6.78489">
        <ele>376</ele>
        <time>2015-03-15T08:57:07.000Z</time>
      </trkpt>
      <trkpt lat="47.45863" lon="6.78481">
        <ele>375</ele>
        <time>2015-03-15T08:57:08.000Z</time>
      </trkpt>
      <trkpt lat="47.45855" lon="6.78471">
        <ele>375</ele>
        <time>2015-03-15T08:57:09.000Z</time>
      </trkpt>
      <trkpt lat="47.45847" lon="6.78461">
        <ele>375</ele>
        <time>2015-03-15T08:57:10.000Z</time>
      </trkpt>
      <trkpt lat="47.45838" lon="6.78453">
        <ele>374</ele>
        <time>2015-03-15T08:57:11.000Z</time>
      </trkpt>
      <trkpt lat="47.45829" lon="6.78444">
        <ele>367</ele>
        <time>2015-03-15T08:57:12.000Z</time>
      </trkpt>
      <trkpt lat="47.45819" lon="6.78435">
        <ele>367</ele>
        <time>2015-03-15T08:57:13.000Z</time>
      </trkpt>
      <trkpt lat="47.4581" lon="6.78426">
        <ele>366</ele>
        <time>2015-03-15T08:57:14.000Z</time>
      </trkpt>
      <trkpt lat="47.45801" lon="6.78418">
        <ele>366</ele>
        <time>2015-03-15T08:57:15.000Z</time>
      </trkpt>
      <trkpt lat="47.45791" lon="6.78409">
        <ele>367</ele>
        <time>2015-03-15T08:57:16.000Z</time>
      </trkpt>
      <trkpt lat="47.45781" lon="6.78401">
        <ele>366</ele>
        <time>2015-03-15T08:57:17.000Z</time>
      </trkpt>
      <trkpt lat="47.4577" lon="6.78395">
        <ele>365</ele>
        <time>2015-03-15T08:57:18.000Z</time>
      </trkpt>
      <trkpt lat="47.45759" lon="6.78392">
        <ele>365</ele>
        <time>2015-03-15T08:57:19.000Z</time>
      </trkpt>
      <trkpt lat="47.45748" lon="6.78388">
        <ele>360</ele>
        <time>2015-03-15T08:57:20.000Z</time>
      </trkpt>
      <trkpt lat="47.45737" lon="6.78386">
        <ele>360</ele>
        <time>2015-03-15T08:57:21.000Z</time>
      </trkpt>
      <trkpt lat="47.45726" lon="6.78386">
        <ele>359</ele>
        <time>2015-03-15T08:57:22.000Z</time>
      </trkpt>
      <trkpt lat="47.45715" lon="6.78385">
        <ele>359</ele>
        <time>2015-03-15T08:57:23.000Z</time>
      </trkpt>
      <trkpt lat="47.45704" lon="6.78384">
        <ele>359</ele>
        <time>2015-03-15T08:57:24.000Z</time>
      </trkpt>
      <trkpt lat="47.45693" lon="6.78385">
        <ele>358</ele>
        <time>2015-03-15T08:57:25.000Z</time>
      </trkpt>
      <trkpt lat="47.45683" lon="6.78385">
        <ele>358</ele>
        <time>2015-03-15T08:57:26.000Z</time>
      </trkpt>
      <trkpt lat="47.45673" lon="6.78387">
        <ele>358</ele>
        <time>2015-03-15T08:57:27.000Z</time>
      </trkpt>
      <trkpt lat="47.45663" lon="6.78389">
        <ele>356</ele>
        <time>2015-03-15T08:57:28.000Z</time>
      </trkpt>
      <trkpt lat="47.45654" lon="6.78391">
        <ele>356</ele>
        <time>2015-03-15T08:57:29.000Z</time>
      </trkpt>
      <trkpt lat="47.45645" lon="6.78394">
        <ele>355</ele>
        <time>2015-03-15T08:57:30.000Z</time>
      </trkpt>
      <trkpt lat="47.45636" lon="6.78398">
        <ele>355</ele>
        <time>2015-03-15T08:57:31.000Z</time>
      </trkpt>
      <trkpt lat="47.45628" lon="6.78401">
        <ele>355</ele>
        <time>2015-03-15T08:57:32.000Z</time>
      </trkpt>
      <trkpt lat="47.4562" lon="6.78405">
        <ele>355</ele>
        <time>2015-03-15T08:57:33.000Z</time>
      </trkpt>
      <trkpt lat="47.45613" lon="6.78409">
        <ele>355</ele>
        <time>2015-03-15T08:57:34.000Z</time>
      </trkpt>
      <trkpt lat="47.45606" lon="6.78413">
        <ele>355</ele>
        <time>2015-03-15T08:57:35.000Z</time>
      </trkpt>
      <trkpt lat="47.45599" lon="6.78418">
        <ele>354</ele>
        <time>2015-03-15T08:57:36.000Z</time>
      </trkpt>
      <trkpt lat="47.45592" lon="6.78421">
        <ele>354</ele>
        <time>2015-03-15T08:57:37.000Z</time>
      </trkpt>
      <trkpt lat="47.45585" lon="6.78423">
        <ele>354</ele>
        <time>2015-03-15T08:57:38.000Z</time>
      </trkpt>
      <trkpt lat="47.45579" lon="6.78426">
        <ele>353</ele>
        <time>2015-03-15T08:57:39.000Z</time>
      </trkpt>
      <trkpt lat="47.45572" lon="6.78427">
        <ele>353</ele>
        <time>2015-03-15T08:57:40.000Z</time>
      </trkpt>
      <trkpt lat="47.45566" lon="6.7843">
        <ele>352</ele>
        <time>2015-03-15T08:57:41.000Z</time>
      </trkpt>
      <trkpt lat="47.4556" lon="6.78433">
        <ele>352</ele>
        <time>2015-03-15T08:57:42.000Z</time>
      </trkpt>
      <trkpt lat="47.45554" lon="6.78436">
        <ele>352</ele>
        <time>2015-03-15T08:57:43.000Z</time>
      </trkpt>
      <trkpt lat="47.45549" lon="6.7844">
        <ele>352</ele>
        <time>2015-03-15T08:57:44.000Z</time>
      </trkpt>
      <trkpt lat="47.45544" lon="6.78446">
        <ele>351</ele>
        <time>2015-03-15T08:57:45.000Z</time>
      </trkpt>
      <trkpt lat="47.4554" lon="6.78452">
        <ele>351</ele>
        <time>2015-03-15T08:57:46.000Z</time>
      </trkpt>
      <trkpt lat="47.45537" lon="6.78456">
        <ele>351</ele>
        <time>2015-03-15T08:57:47.000Z</time>
      </trkpt>
      <trkpt lat="47.45533" lon="6.7846">
        <ele>351</ele>
        <time>2015-03-15T08:57:48.000Z</time>
      </trkpt>
      <trkpt lat="47.45531" lon="6.78465">
        <ele>351</ele>
        <time>2015-03-15T08:57:49.000Z</time>
      </trkpt>
      <trkpt lat="47.45527" lon="6.78469">
        <ele>351</ele>
        <time>2015-03-15T08:57:50.000Z</time>
      </trkpt>
      <trkpt lat="47.45523" lon="6.78473">
        <ele>350</ele>
        <time>2015-03-15T08:57:51.000Z</time>
      </trkpt>
      <trkpt lat="47.4552" lon="6.78476">
        <ele>350</ele>
        <time>2015-03-15T08:57:52.000Z</time>
      </trkpt>
      <trkpt lat="47.45516" lon="6.78481">
        <ele>350</ele>
        <time>2015-03-15T08:57:53.000Z</time>
      </trkpt>
      <trkpt lat="47.45512" lon="6.78487">
        <ele>350</ele>
        <time>2015-03-15T08:57:54.000Z</time>
      </trkpt>
      <trkpt lat="47.45509" lon="6.78489">
        <ele>349</ele>
        <time>2015-03-15T08:57:55.000Z</time>
      </trkpt>
      <trkpt lat="47.45506" lon="6.78496">
        <ele>349</ele>
        <time>2015-03-15T08:57:56.000Z</time>
      </trkpt>
      <trkpt lat="47.455" lon="6.78496">
        <ele>348</ele>
        <time>2015-03-15T08:57:57.000Z</time>
      </trkpt>
      <trkpt lat="47.45495" lon="6.785">
        <ele>348</ele>
        <time>2015-03-15T08:57:58.000Z</time>
      </trkpt>
      <trkpt lat="47.45492" lon="6.78502">
        <ele>347</ele>
        <time>2015-03-15T08:57:59.000Z</time>
      </trkpt>
      <trkpt lat="47.45488" lon="6.78506">
        <ele>346</ele>
        <time>2015-03-15T08:58:00.000Z</time>
      </trkpt>
      <trkpt lat="47.45484" lon="6.7851">
        <ele>346</ele>
        <time>2015-03-15T08:58:01.000Z</time>
      </trkpt>
      <trkpt lat="47.4548" lon="6.78516">
        <ele>345</ele>
        <time>2015-03-15T08:58:02.000Z</time>
      </trkpt>
      <trkpt lat="47.45476" lon="6.78521">
        <ele>345</ele>
        <time>2015-03-15T08:58:03.000Z</time>
      </trkpt>
      <trkpt lat="47.45472" lon="6.78527">
        <ele>344</ele>
        <time>2015-03-15T08:58:04.000Z</time>
      </trkpt>
      <trkpt lat="47.45469" lon="6.78533">
        <ele>344</ele>
        <time>2015-03-15T08:58:05.000Z</time>
      </trkpt>
      <trkpt lat="47.45465" lon="6.78538">
        <ele>344</ele>
        <time>2015-03-15T08:58:06.000Z</time>
      </trkpt>
      <trkpt lat="47.45461" lon="6.78544">
        <ele>343</ele>
        <time>2015-03-15T08:58:07.000Z</time>
      </trkpt>
      <trkpt lat="47.45457" lon="6.78552">
        <ele>343</ele>
        <time>2015-03-15T08:58:08.000Z</time>
      </trkpt>
      <trkpt lat="47.45454" lon="6.7856">
        <ele>343</ele>
        <time>2015-03-15T08:58:09.000Z</time>
      </trkpt>
      <trkpt lat="47.45451" lon="6.78569">
        <ele>342</ele>
        <time>2015-03-15T08:58:10.000Z</time>
      </trkpt>
      <trkpt lat="47.45447" lon="6.78577">
        <ele>342</ele>
        <time>2015-03-15T08:58:11.000Z</time>
      </trkpt>
      <trkpt lat="47.45445" lon="6.78585">
        <ele>339</ele>
        <time>2015-03-15T08:58:12.000Z</time>
      </trkpt>
      <trkpt lat="47.45443" lon="6.78593">
        <ele>339</ele>
        <time>2015-03-15T08:58:13.000Z</time>
      </trkpt>
      <trkpt lat="47.45439" lon="6.786">
        <ele>339</ele>
        <time>2015-03-15T08:58:14.000Z</time>
      </trkpt>
      <trkpt lat="47.45438" lon="6.78606">
        <ele>339</ele>
        <time>2015-03-15T08:58:15.000Z</time>
      </trkpt>
      <trkpt lat="47.45435" lon="6.78612">
        <ele>338</ele>
        <time>2015-03-15T08:58:16.000Z</time>
      </trkpt>
      <trkpt lat="47.45433" lon="6.78619">
        <ele>338</ele>
        <time>2015-03-15T08:58:17.000Z</time>
      </trkpt>
      <trkpt lat="47.4543" lon="6.78621">
        <ele>338</ele>
        <time>2015-03-15T08:58:18.000Z</time>
      </trkpt>
      <trkpt lat="47.45428" lon="6.78624">
        <ele>338</ele>
        <time>2015-03-15T08:58:19.000Z</time>
      </trkpt>
      <trkpt lat="47.45428" lon="6.78629">
        <ele>338</ele>
        <time>2015-03-15T08:58:21.000Z</time>
      </trkpt>
      <trkpt lat="47.45428" lon="6.78632">
        <ele>338</ele>
        <time>2015-03-15T08:58:21.999Z</time>
      </trkpt>
      <trkpt lat="47.45432" lon="6.78636">
        <ele>338</ele>
        <time>2015-03-15T08:58:23.000Z</time>
      </trkpt>
      <trkpt lat="47.45435" lon="6.78646">
        <ele>337</ele>
        <time>2015-03-15T08:58:24.000Z</time>
      </trkpt>
      <trkpt lat="47.45439" lon="6.78654">
        <ele>337</ele>
        <time>2015-03-15T08:58:25.000Z</time>
      </trkpt>
      <trkpt lat="47.4544" lon="6.78659">
        <ele>337</ele>
        <time>2015-03-15T08:58:26.000Z</time>
      </trkpt>
      <trkpt lat="47.45443" lon="6.78665">
        <ele>337</ele>
        <time>2015-03-15T08:58:27.000Z</time>
      </trkpt>
      <trkpt lat="47.45446" lon="6.78671">
        <ele>335</ele>
        <time>2015-03-15T08:58:28.000Z</time>
      </trkpt>
      <trkpt lat="47.45448" lon="6.78677">
        <ele>335</ele>
        <time>2015-03-15T08:58:29.000Z</time>
      </trkpt>
      <trkpt lat="47.4545" lon="6.78682">
        <ele>335</ele>
        <time>2015-03-15T08:58:30.000Z</time>
      </trkpt>
      <trkpt lat="47.45453" lon="6.78688">
        <ele>335</ele>
        <time>2015-03-15T08:58:31.000Z</time>
      </trkpt>
      <trkpt lat="47.45455" lon="6.78693">
        <ele>335</ele>
        <time>2015-03-15T08:58:32.000Z</time>
      </trkpt>
      <trkpt lat="47.45458" lon="6.78699">
        <ele>335</ele>
        <time>2015-03-15T08:58:32.999Z</time>
      </trkpt>
      <trkpt lat="47.4546" lon="6.78705">
        <ele>335</ele>
        <time>2015-03-15T08:58:34.000Z</time>
      </trkpt>
      <trkpt lat="47.45464" lon="6.7871">
        <ele>335</ele>
        <time>2015-03-15T08:58:35.000Z</time>
      </trkpt>
      <trkpt lat="47.45468" lon="6.78715">
        <ele>335</ele>
        <time>2015-03-15T08:58:36.000Z</time>
      </trkpt>
      <trkpt lat="47.45469" lon="6.78721">
        <ele>335</ele>
        <time>2015-03-15T08:58:37.000Z</time>
      </trkpt>
      <trkpt lat="47.45471" lon="6.78726">
        <ele>335</ele>
        <time>2015-03-15T08:58:38.000Z</time>
      </trkpt>
      <trkpt lat="47.45476" lon="6.78731">
        <ele>335</ele>
        <time>2015-03-15T08:58:39.000Z</time>
      </trkpt>
      <trkpt lat="47.45479" lon="6.78736">
        <ele>335</ele>
        <time>2015-03-15T08:58:40.000Z</time>
      </trkpt>
      <trkpt lat="47.45482" lon="6.7874">
        <ele>335</ele>
        <time>2015-03-15T08:58:41.000Z</time>
      </trkpt>
      <trkpt lat="47.45484" lon="6.78748">
        <ele>335</ele>
        <time>2015-03-15T08:58:42.000Z</time>
      </trkpt>
      <trkpt lat="47.45486" lon="6.78754">
        <ele>334</ele>
        <time>2015-03-15T08:58:43.000Z</time>
      </trkpt>
      <trkpt lat="47.45486" lon="6.78761">
        <ele>334</ele>
        <time>2015-03-15T08:58:44.000Z</time>
      </trkpt>
      <trkpt lat="47.45481" lon="6.78766">
        <ele>334</ele>
        <time>2015-03-15T08:58:45.000Z</time>
      </trkpt>
      <trkpt lat="47.45476" lon="6.78771">
        <ele>334</ele>
        <time>2015-03-15T08:58:46.000Z</time>
      </trkpt>
      <trkpt lat="47.4547" lon="6.78777">
        <ele>334</ele>
        <time>2015-03-15T08:58:47.000Z</time>
      </trkpt>
      <trkpt lat="47.45465" lon="6.78781">
        <ele>333</ele>
        <time>2015-03-15T08:58:48.000Z</time>
      </trkpt>
      <trkpt lat="47.45461" lon="6.78786">
        <ele>333</ele>
        <time>2015-03-15T08:58:49.000Z</time>
      </trkpt>
      <trkpt lat="47.45457" lon="6.78792">
        <ele>333</ele>
        <time>2015-03-15T08:58:50.000Z</time>
      </trkpt>
      <trkpt lat="47.45454" lon="6.78797">
        <ele>333</ele>
        <time>2015-03-15T08:58:51.000Z</time>
      </trkpt>
      <trkpt lat="47.45451" lon="6.78802">
        <ele>333</ele>
        <time>2015-03-15T08:58:52.000Z</time>
      </trkpt>
      <trkpt lat="47.45447" lon="6.78808">
        <ele>333</ele>
        <time>2015-03-15T08:58:52.999Z</time>
      </trkpt>
      <trkpt lat="47.45442" lon="6.78811">
        <ele>333</ele>
        <time>2015-03-15T08:58:54.000Z</time>
      </trkpt>
      <trkpt lat="47.45437" lon="6.78815">
        <ele>333</ele>
        <time>2015-03-15T08:58:55.000Z</time>
      </trkpt>
      <trkpt lat="47.45432" lon="6.7882">
        <ele>333</ele>
        <time>2015-03-15T08:58:56.000Z</time>
      </trkpt>
      <trkpt lat="47.45428" lon="6.78825">
        <ele>333</ele>
        <time>2015-03-15T08:58:57.000Z</time>
      </trkpt>
      <trkpt lat="47.45424" lon="6.78829">
        <ele>332</ele>
        <time>2015-03-15T08:58:57.999Z</time>
      </trkpt>
      <trkpt lat="47.45419" lon="6.78834">
        <ele>332</ele>
        <time>2015-03-15T08:58:59.000Z</time>
      </trkpt>
      <trkpt lat="47.45415" lon="6.78839">
        <ele>332</ele>
        <time>2015-03-15T08:59:00.000Z</time>
      </trkpt>
      <trkpt lat="47.45411" lon="6.78844">
        <ele>332</ele>
        <time>2015-03-15T08:59:01.000Z</time>
      </trkpt>
      <trkpt lat="47.45405" lon="6.78846">
        <ele>332</ele>
        <time>2015-03-15T08:59:02.000Z</time>
      </trkpt>
      <trkpt lat="47.45401" lon="6.78851">
        <ele>332</ele>
        <time>2015-03-15T08:59:03.000Z</time>
      </trkpt>
      <trkpt lat="47.45397" lon="6.78856">
        <ele>332</ele>
        <time>2015-03-15T08:59:04.000Z</time>
      </trkpt>
      <trkpt lat="47.45393" lon="6.78862">
        <ele>332</ele>
        <time>2015-03-15T08:59:05.000Z</time>
      </trkpt>
      <trkpt lat="47.45389" lon="6.78869">
        <ele>332</ele>
        <time>2015-03-15T08:59:06.000Z</time>
      </trkpt>
      <trkpt lat="47.45385" lon="6.78872">
        <ele>332</ele>
        <time>2015-03-15T08:59:07.000Z</time>
      </trkpt>
      <trkpt lat="47.4538" lon="6.78877">
        <ele>332</ele>
        <time>2015-03-15T08:59:08.000Z</time>
      </trkpt>
      <trkpt lat="47.45377" lon="6.78883">
        <ele>332</ele>
        <time>2015-03-15T08:59:09.000Z</time>
      </trkpt>
      <trkpt lat="47.45374" lon="6.78887">
        <ele>332</ele>
        <time>2015-03-15T08:59:10.000Z</time>
      </trkpt>
      <trkpt lat="47.45368" lon="6.78892">
        <ele>332</ele>
        <time>2015-03-15T08:59:11.000Z</time>
      </trkpt>
      <trkpt lat="47.45363" lon="6.78897">
        <ele>332</ele>
        <time>2015-03-15T08:59:12.000Z</time>
      </trkpt>
      <trkpt lat="47.45359" lon="6.78901">
        <ele>332</ele>
        <time>2015-03-15T08:59:13.000Z</time>
      </trkpt>
      <trkpt lat="47.45356" lon="6.78905">
        <ele>332</ele>
        <time>2015-03-15T08:59:14.000Z</time>
      </trkpt>
      <trkpt lat="47.45351" lon="6.7891">
        <ele>332</ele>
        <time>2015-03-15T08:59:15.000Z</time>
      </trkpt>
      <trkpt lat="47.45349" lon="6.78916">
        <ele>332</ele>
        <time>2015-03-15T08:59:16.000Z</time>
      </trkpt>
      <trkpt lat="47.45345" lon="6.78921">
        <ele>331</ele>
        <time>2015-03-15T08:59:17.000Z</time>
      </trkpt>
      <trkpt lat="47.45342" lon="6.78924">
        <ele>331</ele>
        <time>2015-03-15T08:59:18.000Z</time>
      </trkpt>
      <trkpt lat="47.45338" lon="6.78929">
        <ele>331</ele>
        <time>2015-03-15T08:59:19.000Z</time>
      </trkpt>
      <trkpt lat="47.45335" lon="6.78934">
        <ele>331</ele>
        <time>2015-03-15T08:59:19.999Z</time>
      </trkpt>
      <trkpt lat="47.45335" lon="6.78942">
        <ele>331</ele>
        <time>2015-03-15T08:59:21.000Z</time>
      </trkpt>
      <trkpt lat="47.45332" lon="6.78946">
        <ele>331</ele>
        <time>2015-03-15T08:59:22.000Z</time>
      </trkpt>
      <trkpt lat="47.45328" lon="6.78948">
        <ele>331</ele>
        <time>2015-03-15T08:59:23.000Z</time>
      </trkpt>
      <trkpt lat="47.45325" lon="6.7895">
        <ele>331</ele>
        <time>2015-03-15T08:59:24.000Z</time>
      </trkpt>
      <trkpt lat="47.45321" lon="6.78954">
        <ele>331</ele>
        <time>2015-03-15T08:59:25.000Z</time>
      </trkpt>
      <trkpt lat="47.45319" lon="6.78958">
        <ele>331</ele>
        <time>2015-03-15T08:59:26.000Z</time>
      </trkpt>
      <trkpt lat="47.45317" lon="6.78961">
        <ele>331</ele>
        <time>2015-03-15T08:59:27.002Z</time>
      </trkpt>
      <trkpt lat="47.45314" lon="6.78963">
        <ele>331</ele>
        <time>2015-03-15T08:59:28.000Z</time>
      </trkpt>
      <trkpt lat="47.45311" lon="6.78966">
        <ele>331</ele>
        <time>2015-03-15T08:59:29.000Z</time>
      </trkpt>
      <trkpt lat="47.45309" lon="6.78969">
        <ele>331</ele>
        <time>2015-03-15T08:59:30.000Z</time>
      </trkpt>
      <trkpt lat="47.45306" lon="6.78972">
        <ele>331</ele>
        <time>2015-03-15T08:59:31.000Z</time>
      </trkpt>
      <trkpt lat="47.45304" lon="6.78976">
        <ele>331</ele>
        <time>2015-03-15T08:59:32.000Z</time>
      </trkpt>
      <trkpt lat="47.45302" lon="6.78979">
        <ele>331</ele>
        <time>2015-03-15T08:59:33.000Z</time>
      </trkpt>
      <trkpt lat="47.453" lon="6.78982">
        <ele>331</ele>
        <time>2015-03-15T08:59:34.000Z</time>
      </trkpt>
      <trkpt lat="47.45298" lon="6.78985">
        <ele>331</ele>
        <time>2015-03-15T08:59:35.000Z</time>
      </trkpt>
      <trkpt lat="47.45296" lon="6.78989">
        <ele>331</ele>
        <time>2015-03-15T08:59:36.000Z</time>
      </trkpt>
      <trkpt lat="47.45295" lon="6.78996">
        <ele>331</ele>
        <time>2015-03-15T08:59:37.000Z</time>
      </trkpt>
      <trkpt lat="47.45292" lon="6.79">
        <ele>331</ele>
        <time>2015-03-15T08:59:38.000Z</time>
      </trkpt>
      <trkpt lat="47.4529" lon="6.79003">
        <ele>331</ele>
        <time>2015-03-15T08:59:39.000Z</time>
      </trkpt>
      <trkpt lat="47.45288" lon="6.79008">
        <ele>331</ele>
        <time>2015-03-15T08:59:40.000Z</time>
      </trkpt>
      <trkpt lat="47.45285" lon="6.79012">
        <ele>331</ele>
        <time>2015-03-15T08:59:41.000Z</time>
      </trkpt>
      <trkpt lat="47.45283" lon="6.79016">
        <ele>331</ele>
        <time>2015-03-15T08:59:42.000Z</time>
      </trkpt>
      <trkpt lat="47.45281" lon="6.79023">
        <ele>331</ele>
        <time>2015-03-15T08:59:43.000Z</time>
      </trkpt>
      <trkpt lat="47.45281" lon="6.79029">
        <ele>331</ele>
        <time>2015-03-15T08:59:44.000Z</time>
      </trkpt>
      <trkpt lat="47.4528" lon="6.79034">
        <ele>331</ele>
        <time>2015-03-15T08:59:45.000Z</time>
      </trkpt>
      <trkpt lat="47.45278" lon="6.79037">
        <ele>331</ele>
        <time>2015-03-15T08:59:46.000Z</time>
      </trkpt>
      <trkpt lat="47.45277" lon="6.79042">
        <ele>331</ele>
        <time>2015-03-15T08:59:47.000Z</time>
      </trkpt>
      <trkpt lat="47.45276" lon="6.79046">
        <ele>331</ele>
        <time>2015-03-15T08:59:48.000Z</time>
      </trkpt>
      <trkpt lat="47.45275" lon="6.79052">
        <ele>331</ele>
        <time>2015-03-15T08:59:49.000Z</time>
      </trkpt>
      <trkpt lat="47.45274" lon="6.79057">
        <ele>331</ele>
        <time>2015-03-15T08:59:50.000Z</time>
      </trkpt>
      <trkpt lat="47.45273" lon="6.79062">
        <ele>331</ele>
        <time>2015-03-15T08:59:51.000Z</time>
      </trkpt>
      <trkpt lat="47.45272" lon="6.79066">
        <ele>332</ele>
        <time>2015-03-15T08:59:52.000Z</time>
      </trkpt>
      <trkpt lat="47.4527" lon="6.79072">
        <ele>332</ele>
        <time>2015-03-15T08:59:53.000Z</time>
      </trkpt>
      <trkpt lat="47.45269" lon="6.79076">
        <ele>332</ele>
        <time>2015-03-15T08:59:54.000Z</time>
      </trkpt>
      <trkpt lat="47.45267" lon="6.79081">
        <ele>332</ele>
        <time>2015-03-15T08:59:55.000Z</time>
      </trkpt>
      <trkpt lat="47.45266" lon="6.79085">
        <ele>332</ele>
        <time>2015-03-15T08:59:56.000Z</time>
      </trkpt>
      <trkpt lat="47.45264" lon="6.79089">
        <ele>332</ele>
        <time>2015-03-15T08:59:57.000Z</time>
      </trkpt>
      <trkpt lat="47.45263" lon="6.79094">
        <ele>332</ele>
        <time>2015-03-15T08:59:58.000Z</time>
      </trkpt>
      <trkpt lat="47.45261" lon="6.79098">
        <ele>332</ele>
        <time>2015-03-15T08:59:59.000Z</time>
      </trkpt>
      <trkpt lat="47.45259" lon="6.79103">
        <ele>332</ele>
        <time>2015-03-15T09:00:00.000Z</time>
      </trkpt>
      <trkpt lat="47.45256" lon="6.79107">
        <ele>332</ele>
        <time>2015-03-15T09:00:01.000Z</time>
      </trkpt>
      <trkpt lat="47.45254" lon="6.79111">
        <ele>332</ele>
        <time>2015-03-15T09:00:02.000Z</time>
      </trkpt>
      <trkpt lat="47.45252" lon="6.79116">
        <ele>332</ele>
        <time>2015-03-15T09:00:03.000Z</time>
      </trkpt>
      <trkpt lat="47.45249" lon="6.7912">
        <ele>333</ele>
        <time>2015-03-15T09:00:04.000Z</time>
      </trkpt>
      <trkpt lat="47.45246" lon="6.79124">
        <ele>333</ele>
        <time>2015-03-15T09:00:05.000Z</time>
      </trkpt>
      <trkpt lat="47.45242" lon="6.79127">
        <ele>333</ele>
        <time>2015-03-15T09:00:06.000Z</time>
      </trkpt>
      <trkpt lat="47.45238" lon="6.7913">
        <ele>333</ele>
        <time>2015-03-15T09:00:07.000Z</time>
      </trkpt>
      <trkpt lat="47.45234" lon="6.79132">
        <ele>333</ele>
        <time>2015-03-15T09:00:08.000Z</time>
      </trkpt>
      <trkpt lat="47.45231" lon="6.79134">
        <ele>333</ele>
        <time>2015-03-15T09:00:09.001Z</time>
      </trkpt>
      <trkpt lat="47.45226" lon="6.79135">
        <ele>333</ele>
        <time>2015-03-15T09:00:10.000Z</time>
      </trkpt>
      <trkpt lat="47.45223" lon="6.79138">
        <ele>333</ele>
        <time>2015-03-15T09:00:11.000Z</time>
      </trkpt>
      <trkpt lat="47.45221" lon="6.79141">
        <ele>333</ele>
        <time>2015-03-15T09:00:12.000Z</time>
      </trkpt>
      <trkpt lat="47.45219" lon="6.79144">
        <ele>333</ele>
        <time>2015-03-15T09:00:13.000Z</time>
      </trkpt>
      <trkpt lat="47.45217" lon="6.79148">
        <ele>333</ele>
        <time>2015-03-15T09:00:14.000Z</time>
      </trkpt>
      <trkpt lat="47.45216" lon="6.79151">
        <ele>333</ele>
        <time>2015-03-15T09:00:15.000Z</time>
      </trkpt>
      <trkpt lat="47.45215" lon="6.79155">
        <ele>333</ele>
        <time>2015-03-15T09:00:16.000Z</time>
      </trkpt>
      <trkpt lat="47.45214" lon="6.79159">
        <ele>333</ele>
        <time>2015-03-15T09:00:17.000Z</time>
      </trkpt>
      <trkpt lat="47.45213" lon="6.79164">
        <ele>333</ele>
        <time>2015-03-15T09:00:18.000Z</time>
      </trkpt>
      <trkpt lat="47.45212" lon="6.7917">
        <ele>333</ele>
        <time>2015-03-15T09:00:19.000Z</time>
      </trkpt>
      <trkpt lat="47.45212" lon="6.79176">
        <ele>333</ele>
        <time>2015-03-15T09:00:20.000Z</time>
      </trkpt>
      <trkpt lat="47.45212" lon="6.79184">
        <ele>333</ele>
        <time>2015-03-15T09:00:20.999Z</time>
      </trkpt>
      <trkpt lat="47.45211" lon="6.79188">
        <ele>334</ele>
        <time>2015-03-15T09:00:22.000Z</time>
      </trkpt>
      <trkpt lat="47.45209" lon="6.79192">
        <ele>334</ele>
        <time>2015-03-15T09:00:23.000Z</time>
      </trkpt>
      <trkpt lat="47.45208" lon="6.79197">
        <ele>334</ele>
        <time>2015-03-15T09:00:24.000Z</time>
      </trkpt>
      <trkpt lat="47.45206" lon="6.79201">
        <ele>334</ele>
        <time>2015-03-15T09:00:25.000Z</time>
      </trkpt>
      <trkpt lat="47.45204" lon="6.79206">
        <ele>334</ele>
        <time>2015-03-15T09:00:26.000Z</time>
      </trkpt>
      <trkpt lat="47.45203" lon="6.79212">
        <ele>334</ele>
        <time>2015-03-15T09:00:27.001Z</time>
      </trkpt>
      <trkpt lat="47.45201" lon="6.79218">
        <ele>334</ele>
        <time>2015-03-15T09:00:28.000Z</time>
      </trkpt>
      <trkpt lat="47.452" lon="6.79226">
        <ele>334</ele>
        <time>2015-03-15T09:00:29.000Z</time>
      </trkpt>
      <trkpt lat="47.45198" lon="6.79233">
        <ele>334</ele>
        <time>2015-03-15T09:00:30.000Z</time>
      </trkpt>
      <trkpt lat="47.45197" lon="6.7924">
        <ele>334</ele>
        <time>2015-03-15T09:00:31.000Z</time>
      </trkpt>
      <trkpt lat="47.45194" lon="6.79247">
        <ele>334</ele>
        <time>2015-03-15T09:00:32.000Z</time>
      </trkpt>
      <trkpt lat="47.45193" lon="6.79255">
        <ele>335</ele>
        <time>2015-03-15T09:00:33.000Z</time>
      </trkpt>
      <trkpt lat="47.45192" lon="6.79262">
        <ele>335</ele>
        <time>2015-03-15T09:00:34.000Z</time>
      </trkpt>
      <trkpt lat="47.4519" lon="6.79269">
        <ele>335</ele>
        <time>2015-03-15T09:00:35.000Z</time>
      </trkpt>
      <trkpt lat="47.45189" lon="6.79275">
        <ele>335</ele>
        <time>2015-03-15T09:00:36.000Z</time>
      </trkpt>
      <trkpt lat="47.45187" lon="6.79283">
        <ele>334</ele>
        <time>2015-03-15T09:00:37.000Z</time>
      </trkpt>
      <trkpt lat="47.45185" lon="6.7929">
        <ele>334</ele>
        <time>2015-03-15T09:00:38.000Z</time>
      </trkpt>
      <trkpt lat="47.45184" lon="6.79297">
        <ele>334</ele>
        <time>2015-03-15T09:00:39.000Z</time>
      </trkpt>
      <trkpt lat="47.45182" lon="6.79304">
        <ele>334</ele>
        <time>2015-03-15T09:00:40.000Z</time>
      </trkpt>
      <trkpt lat="47.45181" lon="6.79311">
        <ele>334</ele>
        <time>2015-03-15T09:00:41.000Z</time>
      </trkpt>
      <trkpt lat="47.45179" lon="6.7932">
        <ele>334</ele>
        <time>2015-03-15T09:00:42.000Z</time>
      </trkpt>
      <trkpt lat="47.45178" lon="6.79327">
        <ele>335</ele>
        <time>2015-03-15T09:00:43.000Z</time>
      </trkpt>
      <trkpt lat="47.45176" lon="6.79335">
        <ele>334</ele>
        <time>2015-03-15T09:00:44.000Z</time>
      </trkpt>
      <trkpt lat="47.45174" lon="6.79342">
        <ele>334</ele>
        <time>2015-03-15T09:00:45.000Z</time>
      </trkpt>
      <trkpt lat="47.45173" lon="6.79349">
        <ele>334</ele>
        <time>2015-03-15T09:00:46.000Z</time>
      </trkpt>
      <trkpt lat="47.45171" lon="6.79354">
        <ele>334</ele>
        <time>2015-03-15T09:00:47.000Z</time>
      </trkpt>
      <trkpt lat="47.45169" lon="6.79359">
        <ele>334</ele>
        <time>2015-03-15T09:00:48.000Z</time>
      </trkpt>
      <trkpt lat="47.45166" lon="6.79364">
        <ele>334</ele>
        <time>2015-03-15T09:00:49.000Z</time>
      </trkpt>
      <trkpt lat="47.45163" lon="6.79368">
        <ele>334</ele>
        <time>2015-03-15T09:00:50.000Z</time>
      </trkpt>
      <trkpt lat="47.45161" lon="6.79375">
        <ele>334</ele>
        <time>2015-03-15T09:00:51.000Z</time>
      </trkpt>
      <trkpt lat="47.45157" lon="6.79379">
        <ele>334</ele>
        <time>2015-03-15T09:00:52.000Z</time>
      </trkpt>
      <trkpt lat="47.45153" lon="6.79384">
        <ele>334</ele>
        <time>2015-03-15T09:00:53.000Z</time>
      </trkpt>
      <trkpt lat="47.45151" lon="6.7939">
        <ele>334</ele>
        <time>2015-03-15T09:00:54.000Z</time>
      </trkpt>
      <trkpt lat="47.45148" lon="6.79397">
        <ele>334</ele>
        <time>2015-03-15T09:00:55.000Z</time>
      </trkpt>
      <trkpt lat="47.45147" lon="6.79405">
        <ele>333</ele>
        <time>2015-03-15T09:00:56.000Z</time>
      </trkpt>
      <trkpt lat="47.45145" lon="6.79413">
        <ele>333</ele>
        <time>2015-03-15T09:00:57.000Z</time>
      </trkpt>
      <trkpt lat="47.45143" lon="6.7942">
        <ele>333</ele>
        <time>2015-03-15T09:00:58.000Z</time>
      </trkpt>
      <trkpt lat="47.45142" lon="6.79427">
        <ele>333</ele>
        <time>2015-03-15T09:00:59.000Z</time>
      </trkpt>
      <trkpt lat="47.45138" lon="6.79433">
        <ele>333</ele>
        <time>2015-03-15T09:01:00.000Z</time>
      </trkpt>
      <trkpt lat="47.45136" lon="6.79439">
        <ele>333</ele>
        <time>2015-03-15T09:01:01.000Z</time>
      </trkpt>
      <trkpt lat="47.45134" lon="6.79447">
        <ele>333</ele>
        <time>2015-03-15T09:01:02.000Z</time>
      </trkpt>
      <trkpt lat="47.45133" lon="6.79455">
        <ele>333</ele>
        <time>2015-03-15T09:01:03.000Z</time>
      </trkpt>
      <trkpt lat="47.45133" lon="6.79463">
        <ele>333</ele>
        <time>2015-03-15T09:01:04.000Z</time>
      </trkpt>
      <trkpt lat="47.45131" lon="6.79469">
        <ele>333</ele>
        <time>2015-03-15T09:01:05.000Z</time>
      </trkpt>
      <trkpt lat="47.4513" lon="6.79476">
        <ele>333</ele>
        <time>2015-03-15T09:01:05.999Z</time>
      </trkpt>
      <trkpt lat="47.45128" lon="6.79483">
        <ele>333</ele>
        <time>2015-03-15T09:01:07.000Z</time>
      </trkpt>
      <trkpt lat="47.45128" lon="6.79491">
        <ele>333</ele>
        <time>2015-03-15T09:01:08.000Z</time>
      </trkpt>
      <trkpt lat="47.45127" lon="6.79499">
        <ele>333</ele>
        <time>2015-03-15T09:01:09.000Z</time>
      </trkpt>
      <trkpt lat="47.45126" lon="6.79504">
        <ele>333</ele>
        <time>2015-03-15T09:01:10.000Z</time>
      </trkpt>
      <trkpt lat="47.45125" lon="6.79509">
        <ele>333</ele>
        <time>2015-03-15T09:01:11.000Z</time>
      </trkpt>
      <trkpt lat="47.45124" lon="6.79512">
        <ele>333</ele>
        <time>2015-03-15T09:01:12.000Z</time>
      </trkpt>
      <trkpt lat="47.45124" lon="6.79518">
        <ele>333</ele>
        <time>2015-03-15T09:01:13.000Z</time>
      </trkpt>
      <trkpt lat="47.45119" lon="6.7952">
        <ele>333</ele>
        <time>2015-03-15T09:01:14.000Z</time>
      </trkpt>
      <trkpt lat="47.45116" lon="6.79523">
        <ele>333</ele>
        <time>2015-03-15T09:01:15.000Z</time>
      </trkpt>
      <trkpt lat="47.45113" lon="6.79529">
        <ele>333</ele>
        <time>2015-03-15T09:01:16.000Z</time>
      </trkpt>
      <trkpt lat="47.45108" lon="6.79534">
        <ele>333</ele>
        <time>2015-03-15T09:01:17.000Z</time>
      </trkpt>
      <trkpt lat="47.45103" lon="6.79538">
        <ele>333</ele>
        <time>2015-03-15T09:01:18.000Z</time>
      </trkpt>
      <trkpt lat="47.451" lon="6.79543">
        <ele>333</ele>
        <time>2015-03-15T09:01:19.000Z</time>
      </trkpt>
      <trkpt lat="47.45096" lon="6.79549">
        <ele>333</ele>
        <time>2015-03-15T09:01:20.000Z</time>
      </trkpt>
      <trkpt lat="47.45093" lon="6.79556">
        <ele>333</ele>
        <time>2015-03-15T09:01:20.999Z</time>
      </trkpt>
      <trkpt lat="47.4509" lon="6.79561">
        <ele>333</ele>
        <time>2015-03-15T09:01:22.000Z</time>
      </trkpt>
      <trkpt lat="47.45087" lon="6.79566">
        <ele>333</ele>
        <time>2015-03-15T09:01:23.000Z</time>
      </trkpt>
      <trkpt lat="47.45084" lon="6.79571">
        <ele>333</ele>
        <time>2015-03-15T09:01:24.000Z</time>
      </trkpt>
      <trkpt lat="47.4508" lon="6.79576">
        <ele>333</ele>
        <time>2015-03-15T09:01:25.000Z</time>
      </trkpt>
      <trkpt lat="47.45077" lon="6.7958">
        <ele>333</ele>
        <time>2015-03-15T09:01:26.000Z</time>
      </trkpt>
      <trkpt lat="47.45073" lon="6.79584">
        <ele>333</ele>
        <time>2015-03-15T09:01:27.000Z</time>
      </trkpt>
      <trkpt lat="47.45069" lon="6.79589">
        <ele>334</ele>
        <time>2015-03-15T09:01:28.000Z</time>
      </trkpt>
      <trkpt lat="47.45066" lon="6.79593">
        <ele>334</ele>
        <time>2015-03-15T09:01:28.999Z</time>
      </trkpt>
      <trkpt lat="47.45062" lon="6.79597">
        <ele>334</ele>
        <time>2015-03-15T09:01:30.000Z</time>
      </trkpt>
      <trkpt lat="47.45059" lon="6.796">
        <ele>334</ele>
        <time>2015-03-15T09:01:31.000Z</time>
      </trkpt>
      <trkpt lat="47.45056" lon="6.79603">
        <ele>334</ele>
        <time>2015-03-15T09:01:32.000Z</time>
      </trkpt>
      <trkpt lat="47.45054" lon="6.79606">
        <ele>334</ele>
        <time>2015-03-15T09:01:33.000Z</time>
      </trkpt>
      <trkpt lat="47.45051" lon="6.79607">
        <ele>334</ele>
        <time>2015-03-15T09:01:34.000Z</time>
      </trkpt>
      <trkpt lat="47.45049" lon="6.79609">
        <ele>334</ele>
        <time>2015-03-15T09:01:35.000Z</time>
      </trkpt>
      <trkpt lat="47.45049" lon="6.79612">
        <ele>334</ele>
        <time>2015-03-15T09:01:36.000Z</time>
      </trkpt>
      <trkpt lat="47.45049" lon="6.79615">
        <ele>334</ele>
        <time>2015-03-15T09:01:37.000Z</time>
      </trkpt>
      <trkpt lat="47.45048" lon="6.79622">
        <ele>334</ele>
        <time>2015-03-15T09:01:38.000Z</time>
      </trkpt>
      <trkpt lat="47.45046" lon="6.79624">
        <ele>334</ele>
        <time>2015-03-15T09:01:39.000Z</time>
      </trkpt>
      <trkpt lat="47.45045" lon="6.79627">
        <ele>335</ele>
        <time>2015-03-15T09:01:40.000Z</time>
      </trkpt>
      <trkpt lat="47.45043" lon="6.79631">
        <ele>335</ele>
        <time>2015-03-15T09:01:41.000Z</time>
      </trkpt>
      <trkpt lat="47.45041" lon="6.79636">
        <ele>335</ele>
        <time>2015-03-15T09:01:42.000Z</time>
      </trkpt>
      <trkpt lat="47.4504" lon="6.7964">
        <ele>335</ele>
        <time>2015-03-15T09:01:43.000Z</time>
      </trkpt>
      <trkpt lat="47.45039" lon="6.79645">
        <ele>335</ele>
        <time>2015-03-15T09:01:44.000Z</time>
      </trkpt>
      <trkpt lat="47.45037" lon="6.79648">
        <ele>335</ele>
        <time>2015-03-15T09:01:45.000Z</time>
      </trkpt>
      <trkpt lat="47.45036" lon="6.79651">
        <ele>335</ele>
        <time>2015-03-15T09:01:46.000Z</time>
      </trkpt>
      <trkpt lat="47.45035" lon="6.79654">
        <ele>335</ele>
        <time>2015-03-15T09:01:47.000Z</time>
      </trkpt>
      <trkpt lat="47.45034" lon="6.79659">
        <ele>335</ele>
        <time>2015-03-15T09:01:49.000Z</time>
      </trkpt>
      <trkpt lat="47.45035" lon="6.79661">
        <ele>335</ele>
        <time>2015-03-15T09:01:50.000Z</time>
      </trkpt>
      <trkpt lat="47.45034" lon="6.79667">
        <ele>335</ele>
        <time>2015-03-15T09:01:52.999Z</time>
      </trkpt>
      <trkpt lat="47.45035" lon="6.79668">
        <ele>338</ele>
        <time>2015-03-15T09:01:54.000Z</time>
      </trkpt>
      <trkpt lat="47.45036" lon="6.79674">
        <ele>338</ele>
        <time>2015-03-15T09:01:58.000Z</time>
      </trkpt>
      <trkpt lat="47.45037" lon="6.79676">
        <ele>338</ele>
        <time>2015-03-15T09:01:59.000Z</time>
      </trkpt>
      <trkpt lat="47.45036" lon="6.79682">
        <ele>338</ele>
        <time>2015-03-15T09:02:02.000Z</time>
      </trkpt>
      <trkpt lat="47.45035" lon="6.79685">
        <ele>338</ele>
        <time>2015-03-15T09:02:03.000Z</time>
      </trkpt>
      <trkpt lat="47.45034" lon="6.79692">
        <ele>339</ele>
        <time>2015-03-15T09:02:06.000Z</time>
      </trkpt>
      <trkpt lat="47.45034" lon="6.79693">
        <ele>339</ele>
        <time>2015-03-15T09:02:07.000Z</time>
      </trkpt>
      <trkpt lat="47.45034" lon="6.79698">
        <ele>339</ele>
        <time>2015-03-15T09:02:10.000Z</time>
      </trkpt>
      <trkpt lat="47.45033" lon="6.797">
        <ele>339</ele>
        <time>2015-03-15T09:02:10.999Z</time>
      </trkpt>
      <trkpt lat="47.4503" lon="6.79704">
        <ele>339</ele>
        <time>2015-03-15T09:02:14.000Z</time>
      </trkpt>
      <trkpt lat="47.45029" lon="6.79705">
        <ele>339</ele>
        <time>2015-03-15T09:02:15.000Z</time>
      </trkpt>
      <trkpt lat="47.45025" lon="6.79705">
        <ele>339</ele>
        <time>2015-03-15T09:02:18.000Z</time>
      </trkpt>
      <trkpt lat="47.45024" lon="6.79705">
        <ele>339</ele>
        <time>2015-03-15T09:02:18.999Z</time>
      </trkpt>
      <trkpt lat="47.4502" lon="6.79702">
        <ele>339</ele>
        <time>2015-03-15T09:02:32.000Z</time>
      </trkpt>
      <trkpt lat="47.45019" lon="6.797">
        <ele>339</ele>
        <time>2015-03-15T09:02:33.000Z</time>
      </trkpt>
      <trkpt lat="47.45016" lon="6.79696">
        <ele>339</ele>
        <time>2015-03-15T09:02:37.000Z</time>
      </trkpt>
      <trkpt lat="47.45015" lon="6.79696">
        <ele>339</ele>
        <time>2015-03-15T09:02:38.000Z</time>
      </trkpt>
      <trkpt lat="47.45012" lon="6.79695">
        <ele>339</ele>
        <time>2015-03-15T09:02:41.000Z</time>
      </trkpt>
      <trkpt lat="47.4501" lon="6.79695">
        <ele>339</ele>
        <time>2015-03-15T09:02:42.000Z</time>
      </trkpt>
      <trkpt lat="47.45006" lon="6.79694">
        <ele>339</ele>
        <time>2015-03-15T09:02:44.000Z</time>
      </trkpt>
      <trkpt lat="47.45004" lon="6.79694">
        <ele>339</ele>
        <time>2015-03-15T09:02:45.000Z</time>
      </trkpt>
      <trkpt lat="47.45001" lon="6.79693">
        <ele>339</ele>
        <time>2015-03-15T09:02:47.000Z</time>
      </trkpt>
      <trkpt lat="47.45" lon="6.79692">
        <ele>341</ele>
        <time>2015-03-15T09:02:48.000Z</time>
      </trkpt>
      <trkpt lat="47.44997" lon="6.7969">
        <ele>341</ele>
        <time>2015-03-15T09:02:50.000Z</time>
      </trkpt>
      <trkpt lat="47.44995" lon="6.7969">
        <ele>341</ele>
        <time>2015-03-15T09:02:51.000Z</time>
      </trkpt>
      <trkpt lat="47.44991" lon="6.7969">
        <ele>341</ele>
        <time>2015-03-15T09:02:54.000Z</time>
      </trkpt>
      <trkpt lat="47.44989" lon="6.7969">
        <ele>341</ele>
        <time>2015-03-15T09:02:55.000Z</time>
      </trkpt>
      <trkpt lat="47.44986" lon="6.79689">
        <ele>341</ele>
        <time>2015-03-15T09:02:58.000Z</time>
      </trkpt>
      <trkpt lat="47.44985" lon="6.79688">
        <ele>341</ele>
        <time>2015-03-15T09:02:59.000Z</time>
      </trkpt>
      <trkpt lat="47.44982" lon="6.79687">
        <ele>342</ele>
        <time>2015-03-15T09:03:01.000Z</time>
      </trkpt>
      <trkpt lat="47.4498" lon="6.79686">
        <ele>342</ele>
        <time>2015-03-15T09:03:02.000Z</time>
      </trkpt>
      <trkpt lat="47.44976" lon="6.79687">
        <ele>342</ele>
        <time>2015-03-15T09:03:04.000Z</time>
      </trkpt>
      <trkpt lat="47.44974" lon="6.79688">
        <ele>342</ele>
        <time>2015-03-15T09:03:05.000Z</time>
      </trkpt>
      <trkpt lat="47.44971" lon="6.7969">
        <ele>342</ele>
        <time>2015-03-15T09:03:07.000Z</time>
      </trkpt>
      <trkpt lat="47.44969" lon="6.79691">
        <ele>342</ele>
        <time>2015-03-15T09:03:08.000Z</time>
      </trkpt>
      <trkpt lat="47.44966" lon="6.79692">
        <ele>343</ele>
        <time>2015-03-15T09:03:10.000Z</time>
      </trkpt>
      <trkpt lat="47.44964" lon="6.79693">
        <ele>343</ele>
        <time>2015-03-15T09:03:11.000Z</time>
      </trkpt>
      <trkpt lat="47.44961" lon="6.79694">
        <ele>343</ele>
        <time>2015-03-15T09:03:13.000Z</time>
      </trkpt>
      <trkpt lat="47.4496" lon="6.79696">
        <ele>343</ele>
        <time>2015-03-15T09:03:14.000Z</time>
      </trkpt>
      <trkpt lat="47.44958" lon="6.797">
        <ele>343</ele>
        <time>2015-03-15T09:03:16.000Z</time>
      </trkpt>
      <trkpt lat="47.44957" lon="6.79702">
        <ele>344</ele>
        <time>2015-03-15T09:03:17.000Z</time>
      </trkpt>
      <trkpt lat="47.44956" lon="6.79707">
        <ele>344</ele>
        <time>2015-03-15T09:03:19.000Z</time>
      </trkpt>
      <trkpt lat="47.44955" lon="6.79709">
        <ele>344</ele>
        <time>2015-03-15T09:03:20.000Z</time>
      </trkpt>
      <trkpt lat="47.44954" lon="6.79714">
        <ele>344</ele>
        <time>2015-03-15T09:03:22.000Z</time>
      </trkpt>
      <trkpt lat="47.44953" lon="6.79717">
        <ele>344</ele>
        <time>2015-03-15T09:03:23.000Z</time>
      </trkpt>
      <trkpt lat="47.44953" lon="6.7972">
        <ele>344</ele>
        <time>2015-03-15T09:03:24.000Z</time>
      </trkpt>
      <trkpt lat="47.44952" lon="6.79723">
        <ele>345</ele>
        <time>2015-03-15T09:03:25.000Z</time>
      </trkpt>
      <trkpt lat="47.4495" lon="6.79728">
        <ele>345</ele>
        <time>2015-03-15T09:03:27.000Z</time>
      </trkpt>
      <trkpt lat="47.44948" lon="6.79729">
        <ele>345</ele>
        <time>2015-03-15T09:03:28.000Z</time>
      </trkpt>
      <trkpt lat="47.44945" lon="6.79733">
        <ele>345</ele>
        <time>2015-03-15T09:03:30.000Z</time>
      </trkpt>
      <trkpt lat="47.44943" lon="6.79736">
        <ele>346</ele>
        <time>2015-03-15T09:03:31.000Z</time>
      </trkpt>
      <trkpt lat="47.44939" lon="6.79738">
        <ele>346</ele>
        <time>2015-03-15T09:03:33.000Z</time>
      </trkpt>
      <trkpt lat="47.44937" lon="6.79738">
        <ele>346</ele>
        <time>2015-03-15T09:03:34.000Z</time>
      </trkpt>
      <trkpt lat="47.44933" lon="6.79739">
        <ele>347</ele>
        <time>2015-03-15T09:03:36.000Z</time>
      </trkpt>
      <trkpt lat="47.44931" lon="6.7974">
        <ele>347</ele>
        <time>2015-03-15T09:03:37.000Z</time>
      </trkpt>
      <trkpt lat="47.44927" lon="6.79742">
        <ele>347</ele>
        <time>2015-03-15T09:03:39.000Z</time>
      </trkpt>
      <trkpt lat="47.44925" lon="6.79743">
        <ele>348</ele>
        <time>2015-03-15T09:03:39.998Z</time>
      </trkpt>
      <trkpt lat="47.44923" lon="6.79742">
        <ele>348</ele>
        <time>2015-03-15T09:03:41.000Z</time>
      </trkpt>
      <trkpt lat="47.44921" lon="6.79742">
        <ele>348</ele>
        <time>2015-03-15T09:03:41.999Z</time>
      </trkpt>
      <trkpt lat="47.44918" lon="6.7974">
        <ele>348</ele>
        <time>2015-03-15T09:03:43.000Z</time>
      </trkpt>
      <trkpt lat="47.44915" lon="6.79738">
        <ele>349</ele>
        <time>2015-03-15T09:03:44.000Z</time>
      </trkpt>
      <trkpt lat="47.44913" lon="6.79737">
        <ele>348</ele>
        <time>2015-03-15T09:03:45.000Z</time>
      </trkpt>
      <trkpt lat="47.4491" lon="6.79736">
        <ele>348</ele>
        <time>2015-03-15T09:03:46.000Z</time>
      </trkpt>
      <trkpt lat="47.44906" lon="6.79737">
        <ele>348</ele>
        <time>2015-03-15T09:03:48.000Z</time>
      </trkpt>
      <trkpt lat="47.44904" lon="6.79738">
        <ele>348</ele>
        <time>2015-03-15T09:03:49.000Z</time>
      </trkpt>
      <trkpt lat="47.449" lon="6.79738">
        <ele>348</ele>
        <time>2015-03-15T09:03:51.000Z</time>
      </trkpt>
      <trkpt lat="47.44898" lon="6.79738">
        <ele>348</ele>
        <time>2015-03-15T09:03:52.000Z</time>
      </trkpt>
      <trkpt lat="47.44894" lon="6.79737">
        <ele>348</ele>
        <time>2015-03-15T09:03:54.001Z</time>
      </trkpt>
      <trkpt lat="47.44893" lon="6.79736">
        <ele>348</ele>
        <time>2015-03-15T09:03:55.000Z</time>
      </trkpt>
      <trkpt lat="47.44891" lon="6.79732">
        <ele>347</ele>
        <time>2015-03-15T09:03:57.000Z</time>
      </trkpt>
      <trkpt lat="47.44889" lon="6.7973">
        <ele>347</ele>
        <time>2015-03-15T09:03:58.000Z</time>
      </trkpt>
      <trkpt lat="47.44886" lon="6.79727">
        <ele>347</ele>
        <time>2015-03-15T09:04:00.000Z</time>
      </trkpt>
      <trkpt lat="47.44885" lon="6.79726">
        <ele>347</ele>
        <time>2015-03-15T09:04:01.000Z</time>
      </trkpt>
      <trkpt lat="47.44881" lon="6.79726">
        <ele>347</ele>
        <time>2015-03-15T09:04:03.000Z</time>
      </trkpt>
      <trkpt lat="47.44878" lon="6.79726">
        <ele>347</ele>
        <time>2015-03-15T09:04:04.000Z</time>
      </trkpt>
      <trkpt lat="47.44876" lon="6.79726">
        <ele>347</ele>
        <time>2015-03-15T09:04:05.000Z</time>
      </trkpt>
      <trkpt lat="47.44873" lon="6.79726">
        <ele>347</ele>
        <time>2015-03-15T09:04:06.000Z</time>
      </trkpt>
      <trkpt lat="47.44871" lon="6.79725">
        <ele>347</ele>
        <time>2015-03-15T09:04:07.000Z</time>
      </trkpt>
      <trkpt lat="47.44869" lon="6.79724">
        <ele>347</ele>
        <time>2015-03-15T09:04:08.000Z</time>
      </trkpt>
      <trkpt lat="47.44866" lon="6.79722">
        <ele>347</ele>
        <time>2015-03-15T09:04:09.000Z</time>
      </trkpt>
      <trkpt lat="47.44864" lon="6.79721">
        <ele>347</ele>
        <time>2015-03-15T09:04:10.000Z</time>
      </trkpt>
      <trkpt lat="47.44861" lon="6.79719">
        <ele>347</ele>
        <time>2015-03-15T09:04:11.000Z</time>
      </trkpt>
      <trkpt lat="47.44858" lon="6.79719">
        <ele>347</ele>
        <time>2015-03-15T09:04:12.000Z</time>
      </trkpt>
      <trkpt lat="47.44856" lon="6.79719">
        <ele>347</ele>
        <time>2015-03-15T09:04:13.000Z</time>
      </trkpt>
      <trkpt lat="47.44853" lon="6.79719">
        <ele>347</ele>
        <time>2015-03-15T09:04:14.000Z</time>
      </trkpt>
      <trkpt lat="47.4485" lon="6.79719">
        <ele>347</ele>
        <time>2015-03-15T09:04:15.000Z</time>
      </trkpt>
      <trkpt lat="47.44847" lon="6.79719">
        <ele>347</ele>
        <time>2015-03-15T09:04:16.000Z</time>
      </trkpt>
      <trkpt lat="47.44844" lon="6.79719">
        <ele>347</ele>
        <time>2015-03-15T09:04:17.000Z</time>
      </trkpt>
      <trkpt lat="47.44841" lon="6.7972">
        <ele>347</ele>
        <time>2015-03-15T09:04:18.000Z</time>
      </trkpt>
      <trkpt lat="47.44839" lon="6.7972">
        <ele>347</ele>
        <time>2015-03-15T09:04:19.000Z</time>
      </trkpt>
      <trkpt lat="47.44836" lon="6.79721">
        <ele>347</ele>
        <time>2015-03-15T09:04:20.000Z</time>
      </trkpt>
      <trkpt lat="47.44833" lon="6.79723">
        <ele>347</ele>
        <time>2015-03-15T09:04:21.000Z</time>
      </trkpt>
      <trkpt lat="47.44831" lon="6.79724">
        <ele>348</ele>
        <time>2015-03-15T09:04:22.000Z</time>
      </trkpt>
      <trkpt lat="47.44828" lon="6.79726">
        <ele>348</ele>
        <time>2015-03-15T09:04:23.000Z</time>
      </trkpt>
      <trkpt lat="47.44825" lon="6.79728">
        <ele>348</ele>
        <time>2015-03-15T09:04:24.000Z</time>
      </trkpt>
      <trkpt lat="47.44823" lon="6.79731">
        <ele>348</ele>
        <time>2015-03-15T09:04:25.000Z</time>
      </trkpt>
      <trkpt lat="47.44821" lon="6.79735">
        <ele>349</ele>
        <time>2015-03-15T09:04:26.000Z</time>
      </trkpt>
      <trkpt lat="47.4482" lon="6.79739">
        <ele>349</ele>
        <time>2015-03-15T09:04:27.000Z</time>
      </trkpt>
      <trkpt lat="47.4482" lon="6.79744">
        <ele>349</ele>
        <time>2015-03-15T09:04:28.000Z</time>
      </trkpt>
      <trkpt lat="47.44819" lon="6.79749">
        <ele>349</ele>
        <time>2015-03-15T09:04:29.000Z</time>
      </trkpt>
      <trkpt lat="47.44818" lon="6.79754">
        <ele>352</ele>
        <time>2015-03-15T09:04:30.000Z</time>
      </trkpt>
      <trkpt lat="47.44818" lon="6.7976">
        <ele>352</ele>
        <time>2015-03-15T09:04:31.000Z</time>
      </trkpt>
      <trkpt lat="47.44817" lon="6.79766">
        <ele>352</ele>
        <time>2015-03-15T09:04:32.000Z</time>
      </trkpt>
      <trkpt lat="47.44816" lon="6.79773">
        <ele>352</ele>
        <time>2015-03-15T09:04:33.000Z</time>
      </trkpt>
      <trkpt lat="47.44815" lon="6.79779">
        <ele>353</ele>
        <time>2015-03-15T09:04:34.000Z</time>
      </trkpt>
      <trkpt lat="47.44814" lon="6.79784">
        <ele>353</ele>
        <time>2015-03-15T09:04:35.000Z</time>
      </trkpt>
      <trkpt lat="47.44813" lon="6.7979">
        <ele>353</ele>
        <time>2015-03-15T09:04:36.000Z</time>
      </trkpt>
      <trkpt lat="47.44812" lon="6.79795">
        <ele>353</ele>
        <time>2015-03-15T09:04:37.000Z</time>
      </trkpt>
      <trkpt lat="47.44811" lon="6.798">
        <ele>353</ele>
        <time>2015-03-15T09:04:38.000Z</time>
      </trkpt>
      <trkpt lat="47.44811" lon="6.79806">
        <ele>353</ele>
        <time>2015-03-15T09:04:39.000Z</time>
      </trkpt>
      <trkpt lat="47.4481" lon="6.79811">
        <ele>353</ele>
        <time>2015-03-15T09:04:40.000Z</time>
      </trkpt>
      <trkpt lat="47.44809" lon="6.79817">
        <ele>353</ele>
        <time>2015-03-15T09:04:41.000Z</time>
      </trkpt>
      <trkpt lat="47.44808" lon="6.79823">
        <ele>353</ele>
        <time>2015-03-15T09:04:42.000Z</time>
      </trkpt>
      <trkpt lat="47.44807" lon="6.79828">
        <ele>353</ele>
        <time>2015-03-15T09:04:43.000Z</time>
      </trkpt>
      <trkpt lat="47.44806" lon="6.79834">
        <ele>354</ele>
        <time>2015-03-15T09:04:44.000Z</time>
      </trkpt>
      <trkpt lat="47.44806" lon="6.7984">
        <ele>354</ele>
        <time>2015-03-15T09:04:45.000Z</time>
      </trkpt>
      <trkpt lat="47.44805" lon="6.79845">
        <ele>354</ele>
        <time>2015-03-15T09:04:46.000Z</time>
      </trkpt>
      <trkpt lat="47.44804" lon="6.79851">
        <ele>354</ele>
        <time>2015-03-15T09:04:47.000Z</time>
      </trkpt>
      <trkpt lat="47.44803" lon="6.79856">
        <ele>354</ele>
        <time>2015-03-15T09:04:48.000Z</time>
      </trkpt>
      <trkpt lat="47.44802" lon="6.7986">
        <ele>354</ele>
        <time>2015-03-15T09:04:49.000Z</time>
      </trkpt>
      <trkpt lat="47.44801" lon="6.79864">
        <ele>355</ele>
        <time>2015-03-15T09:04:50.000Z</time>
      </trkpt>
      <trkpt lat="47.44801" lon="6.79869">
        <ele>355</ele>
        <time>2015-03-15T09:04:51.000Z</time>
      </trkpt>
      <trkpt lat="47.448" lon="6.79874">
        <ele>355</ele>
        <time>2015-03-15T09:04:52.000Z</time>
      </trkpt>
      <trkpt lat="47.44799" lon="6.79879">
        <ele>355</ele>
        <time>2015-03-15T09:04:53.000Z</time>
      </trkpt>
      <trkpt lat="47.44798" lon="6.79884">
        <ele>355</ele>
        <time>2015-03-15T09:04:54.000Z</time>
      </trkpt>
      <trkpt lat="47.44797" lon="6.79889">
        <ele>355</ele>
        <time>2015-03-15T09:04:55.000Z</time>
      </trkpt>
      <trkpt lat="47.44797" lon="6.79893">
        <ele>355</ele>
        <time>2015-03-15T09:04:56.000Z</time>
      </trkpt>
      <trkpt lat="47.44796" lon="6.79898">
        <ele>355</ele>
        <time>2015-03-15T09:04:57.000Z</time>
      </trkpt>
      <trkpt lat="47.44795" lon="6.79903">
        <ele>355</ele>
        <time>2015-03-15T09:04:58.000Z</time>
      </trkpt>
      <trkpt lat="47.44794" lon="6.79908">
        <ele>355</ele>
        <time>2015-03-15T09:04:59.000Z</time>
      </trkpt>
      <trkpt lat="47.44794" lon="6.79913">
        <ele>355</ele>
        <time>2015-03-15T09:05:00.000Z</time>
      </trkpt>
      <trkpt lat="47.44793" lon="6.79917">
        <ele>356</ele>
        <time>2015-03-15T09:05:01.000Z</time>
      </trkpt>
      <trkpt lat="47.44793" lon="6.79922">
        <ele>356</ele>
        <time>2015-03-15T09:05:02.000Z</time>
      </trkpt>
      <trkpt lat="47.44792" lon="6.79927">
        <ele>356</ele>
        <time>2015-03-15T09:05:03.000Z</time>
      </trkpt>
      <trkpt lat="47.44792" lon="6.79931">
        <ele>356</ele>
        <time>2015-03-15T09:05:04.000Z</time>
      </trkpt>
      <trkpt lat="47.44791" lon="6.79936">
        <ele>356</ele>
        <time>2015-03-15T09:05:05.000Z</time>
      </trkpt>
      <trkpt lat="47.44791" lon="6.7994">
        <ele>356</ele>
        <time>2015-03-15T09:05:06.000Z</time>
      </trkpt>
      <trkpt lat="47.44791" lon="6.79944">
        <ele>356</ele>
        <time>2015-03-15T09:05:07.000Z</time>
      </trkpt>
      <trkpt lat="47.4479" lon="6.79949">
        <ele>356</ele>
        <time>2015-03-15T09:05:08.000Z</time>
      </trkpt>
      <trkpt lat="47.44789" lon="6.79952">
        <ele>356</ele>
        <time>2015-03-15T09:05:09.000Z</time>
      </trkpt>
      <trkpt lat="47.44789" lon="6.79956">
        <ele>356</ele>
        <time>2015-03-15T09:05:10.000Z</time>
      </trkpt>
      <trkpt lat="47.44788" lon="6.7996">
        <ele>356</ele>
        <time>2015-03-15T09:05:11.000Z</time>
      </trkpt>
      <trkpt lat="47.44788" lon="6.79964">
        <ele>356</ele>
        <time>2015-03-15T09:05:12.000Z</time>
      </trkpt>
      <trkpt lat="47.44788" lon="6.79968">
        <ele>356</ele>
        <time>2015-03-15T09:05:13.000Z</time>
      </trkpt>
      <trkpt lat="47.44788" lon="6.79971">
        <ele>356</ele>
        <time>2015-03-15T09:05:14.000Z</time>
      </trkpt>
      <trkpt lat="47.44786" lon="6.79977">
        <ele>356</ele>
        <time>2015-03-15T09:05:16.000Z</time>
      </trkpt>
      <trkpt lat="47.44785" lon="6.79979">
        <ele>356</ele>
        <time>2015-03-15T09:05:17.000Z</time>
      </trkpt>
      <trkpt lat="47.4478" lon="6.7998">
        <ele>356</ele>
        <time>2015-03-15T09:05:19.000Z</time>
      </trkpt>
      <trkpt lat="47.44777" lon="6.79978">
        <ele>356</ele>
        <time>2015-03-15T09:05:20.000Z</time>
      </trkpt>
      <trkpt lat="47.44774" lon="6.79977">
        <ele>356</ele>
        <time>2015-03-15T09:05:21.000Z</time>
      </trkpt>
      <trkpt lat="47.44771" lon="6.79975">
        <ele>356</ele>
        <time>2015-03-15T09:05:22.000Z</time>
      </trkpt>
      <trkpt lat="47.44768" lon="6.79974">
        <ele>356</ele>
        <time>2015-03-15T09:05:23.000Z</time>
      </trkpt>
      <trkpt lat="47.44766" lon="6.79973">
        <ele>356</ele>
        <time>2015-03-15T09:05:24.000Z</time>
      </trkpt>
      <trkpt lat="47.44763" lon="6.79973">
        <ele>356</ele>
        <time>2015-03-15T09:05:25.000Z</time>
      </trkpt>
      <trkpt lat="47.4476" lon="6.79972">
        <ele>356</ele>
        <time>2015-03-15T09:05:26.000Z</time>
      </trkpt>
      <trkpt lat="47.44758" lon="6.79971">
        <ele>357</ele>
        <time>2015-03-15T09:05:27.000Z</time>
      </trkpt>
      <trkpt lat="47.44755" lon="6.79971">
        <ele>357</ele>
        <time>2015-03-15T09:05:28.002Z</time>
      </trkpt>
      <trkpt lat="47.44753" lon="6.79971">
        <ele>357</ele>
        <time>2015-03-15T09:05:29.000Z</time>
      </trkpt>
      <trkpt lat="47.4475" lon="6.79971">
        <ele>357</ele>
        <time>2015-03-15T09:05:30.000Z</time>
      </trkpt>
      <trkpt lat="47.44748" lon="6.79971">
        <ele>358</ele>
        <time>2015-03-15T09:05:31.000Z</time>
      </trkpt>
      <trkpt lat="47.44745" lon="6.79971">
        <ele>358</ele>
        <time>2015-03-15T09:05:32.000Z</time>
      </trkpt>
      <trkpt lat="47.44743" lon="6.79971">
        <ele>359</ele>
        <time>2015-03-15T09:05:33.000Z</time>
      </trkpt>
      <trkpt lat="47.4474" lon="6.79971">
        <ele>359</ele>
        <time>2015-03-15T09:05:34.000Z</time>
      </trkpt>
      <trkpt lat="47.44738" lon="6.7997">
        <ele>359</ele>
        <time>2015-03-15T09:05:35.000Z</time>
      </trkpt>
      <trkpt lat="47.44736" lon="6.7997">
        <ele>359</ele>
        <time>2015-03-15T09:05:36.000Z</time>
      </trkpt>
      <trkpt lat="47.44733" lon="6.79969">
        <ele>359</ele>
        <time>2015-03-15T09:05:37.000Z</time>
      </trkpt>
      <trkpt lat="47.44731" lon="6.79969">
        <ele>359</ele>
        <time>2015-03-15T09:05:38.000Z</time>
      </trkpt>
      <trkpt lat="47.44728" lon="6.79968">
        <ele>359</ele>
        <time>2015-03-15T09:05:39.000Z</time>
      </trkpt>
      <trkpt lat="47.44725" lon="6.79967">
        <ele>359</ele>
        <time>2015-03-15T09:05:40.000Z</time>
      </trkpt>
      <trkpt lat="47.44722" lon="6.79967">
        <ele>359</ele>
        <time>2015-03-15T09:05:41.000Z</time>
      </trkpt>
      <trkpt lat="47.4472" lon="6.79966">
        <ele>359</ele>
        <time>2015-03-15T09:05:42.000Z</time>
      </trkpt>
      <trkpt lat="47.44717" lon="6.79966">
        <ele>359</ele>
        <time>2015-03-15T09:05:43.000Z</time>
      </trkpt>
      <trkpt lat="47.44714" lon="6.79965">
        <ele>359</ele>
        <time>2015-03-15T09:05:44.000Z</time>
      </trkpt>
      <trkpt lat="47.44712" lon="6.79964">
        <ele>359</ele>
        <time>2015-03-15T09:05:45.000Z</time>
      </trkpt>
      <trkpt lat="47.44709" lon="6.79963">
        <ele>359</ele>
        <time>2015-03-15T09:05:46.001Z</time>
      </trkpt>
      <trkpt lat="47.44706" lon="6.79963">
        <ele>359</ele>
        <time>2015-03-15T09:05:47.000Z</time>
      </trkpt>
      <trkpt lat="47.44704" lon="6.79962">
        <ele>359</ele>
        <time>2015-03-15T09:05:48.000Z</time>
      </trkpt>
      <trkpt lat="47.44701" lon="6.79962">
        <ele>359</ele>
        <time>2015-03-15T09:05:49.000Z</time>
      </trkpt>
      <trkpt lat="47.44698" lon="6.79961">
        <ele>359</ele>
        <time>2015-03-15T09:05:50.000Z</time>
      </trkpt>
      <trkpt lat="47.44696" lon="6.79961">
        <ele>359</ele>
        <time>2015-03-15T09:05:51.000Z</time>
      </trkpt>
      <trkpt lat="47.44693" lon="6.7996">
        <ele>359</ele>
        <time>2015-03-15T09:05:52.000Z</time>
      </trkpt>
      <trkpt lat="47.44691" lon="6.7996">
        <ele>359</ele>
        <time>2015-03-15T09:05:53.000Z</time>
      </trkpt>
      <trkpt lat="47.44688" lon="6.7996">
        <ele>359</ele>
        <time>2015-03-15T09:05:54.000Z</time>
      </trkpt>
      <trkpt lat="47.44685" lon="6.79959">
        <ele>359</ele>
        <time>2015-03-15T09:05:55.000Z</time>
      </trkpt>
      <trkpt lat="47.44682" lon="6.79959">
        <ele>359</ele>
        <time>2015-03-15T09:05:56.000Z</time>
      </trkpt>
      <trkpt lat="47.44679" lon="6.79958">
        <ele>359</ele>
        <time>2015-03-15T09:05:57.000Z</time>
      </trkpt>
      <trkpt lat="47.44677" lon="6.79958">
        <ele>359</ele>
        <time>2015-03-15T09:05:58.000Z</time>
      </trkpt>
      <trkpt lat="47.44674" lon="6.79957">
        <ele>360</ele>
        <time>2015-03-15T09:05:59.000Z</time>
      </trkpt>
      <trkpt lat="47.44671" lon="6.79957">
        <ele>360</ele>
        <time>2015-03-15T09:06:00.000Z</time>
      </trkpt>
      <trkpt lat="47.44668" lon="6.79956">
        <ele>360</ele>
        <time>2015-03-15T09:06:01.000Z</time>
      </trkpt>
      <trkpt lat="47.44665" lon="6.79956">
        <ele>361</ele>
        <time>2015-03-15T09:06:02.000Z</time>
      </trkpt>
      <trkpt lat="47.44662" lon="6.79955">
        <ele>361</ele>
        <time>2015-03-15T09:06:03.000Z</time>
      </trkpt>
      <trkpt lat="47.44659" lon="6.79955">
        <ele>361</ele>
        <time>2015-03-15T09:06:04.000Z</time>
      </trkpt>
      <trkpt lat="47.44657" lon="6.79955">
        <ele>361</ele>
        <time>2015-03-15T09:06:05.000Z</time>
      </trkpt>
      <trkpt lat="47.44654" lon="6.79954">
        <ele>361</ele>
        <time>2015-03-15T09:06:06.000Z</time>
      </trkpt>
      <trkpt lat="47.44651" lon="6.79954">
        <ele>361</ele>
        <time>2015-03-15T09:06:07.000Z</time>
      </trkpt>
      <trkpt lat="47.44648" lon="6.79953">
        <ele>361</ele>
        <time>2015-03-15T09:06:08.000Z</time>
      </trkpt>
      <trkpt lat="47.44645" lon="6.79953">
        <ele>361</ele>
        <time>2015-03-15T09:06:09.000Z</time>
      </trkpt>
      <trkpt lat="47.44642" lon="6.79952">
        <ele>362</ele>
        <time>2015-03-15T09:06:10.000Z</time>
      </trkpt>
      <trkpt lat="47.4464" lon="6.79952">
        <ele>362</ele>
        <time>2015-03-15T09:06:11.000Z</time>
      </trkpt>
      <trkpt lat="47.44637" lon="6.79951">
        <ele>362</ele>
        <time>2015-03-15T09:06:12.000Z</time>
      </trkpt>
      <trkpt lat="47.44634" lon="6.79951">
        <ele>362</ele>
        <time>2015-03-15T09:06:13.000Z</time>
      </trkpt>
      <trkpt lat="47.44631" lon="6.7995">
        <ele>362</ele>
        <time>2015-03-15T09:06:14.000Z</time>
      </trkpt>
      <trkpt lat="47.44628" lon="6.79948">
        <ele>362</ele>
        <time>2015-03-15T09:06:15.000Z</time>
      </trkpt>
      <trkpt lat="47.44626" lon="6.79947">
        <ele>362</ele>
        <time>2015-03-15T09:06:16.000Z</time>
      </trkpt>
      <trkpt lat="47.44623" lon="6.79946">
        <ele>362</ele>
        <time>2015-03-15T09:06:17.000Z</time>
      </trkpt>
      <trkpt lat="47.4462" lon="6.79945">
        <ele>362</ele>
        <time>2015-03-15T09:06:18.000Z</time>
      </trkpt>
      <trkpt lat="47.44617" lon="6.79944">
        <ele>362</ele>
        <time>2015-03-15T09:06:19.000Z</time>
      </trkpt>
      <trkpt lat="47.44614" lon="6.79944">
        <ele>362</ele>
        <time>2015-03-15T09:06:20.000Z</time>
      </trkpt>
      <trkpt lat="47.44611" lon="6.79943">
        <ele>362</ele>
        <time>2015-03-15T09:06:21.000Z</time>
      </trkpt>
      <trkpt lat="47.44608" lon="6.79942">
        <ele>362</ele>
        <time>2015-03-15T09:06:22.000Z</time>
      </trkpt>
      <trkpt lat="47.44605" lon="6.79941">
        <ele>362</ele>
        <time>2015-03-15T09:06:23.000Z</time>
      </trkpt>
      <trkpt lat="47.44602" lon="6.7994">
        <ele>362</ele>
        <time>2015-03-15T09:06:24.000Z</time>
      </trkpt>
      <trkpt lat="47.44599" lon="6.79939">
        <ele>362</ele>
        <time>2015-03-15T09:06:25.000Z</time>
      </trkpt>
      <trkpt lat="47.44596" lon="6.79938">
        <ele>362</ele>
        <time>2015-03-15T09:06:26.000Z</time>
      </trkpt>
      <trkpt lat="47.44593" lon="6.79937">
        <ele>362</ele>
        <time>2015-03-15T09:06:27.000Z</time>
      </trkpt>
      <trkpt lat="47.44589" lon="6.79936">
        <ele>362</ele>
        <time>2015-03-15T09:06:28.000Z</time>
      </trkpt>
      <trkpt lat="47.44586" lon="6.79935">
        <ele>362</ele>
        <time>2015-03-15T09:06:29.000Z</time>
      </trkpt>
      <trkpt lat="47.44583" lon="6.79934">
        <ele>364</ele>
        <time>2015-03-15T09:06:30.000Z</time>
      </trkpt>
      <trkpt lat="47.4458" lon="6.79933">
        <ele>364</ele>
        <time>2015-03-15T09:06:31.000Z</time>
      </trkpt>
      <trkpt lat="47.44577" lon="6.79931">
        <ele>364</ele>
        <time>2015-03-15T09:06:32.000Z</time>
      </trkpt>
      <trkpt lat="47.44574" lon="6.7993">
        <ele>364</ele>
        <time>2015-03-15T09:06:33.000Z</time>
      </trkpt>
      <trkpt lat="47.44571" lon="6.79929">
        <ele>364</ele>
        <time>2015-03-15T09:06:34.000Z</time>
      </trkpt>
      <trkpt lat="47.44568" lon="6.79928">
        <ele>364</ele>
        <time>2015-03-15T09:06:35.000Z</time>
      </trkpt>
      <trkpt lat="47.44565" lon="6.79928">
        <ele>364</ele>
        <time>2015-03-15T09:06:36.000Z</time>
      </trkpt>
      <trkpt lat="47.44562" lon="6.79927">
        <ele>364</ele>
        <time>2015-03-15T09:06:37.000Z</time>
      </trkpt>
      <trkpt lat="47.44559" lon="6.79926">
        <ele>364</ele>
        <time>2015-03-15T09:06:38.000Z</time>
      </trkpt>
      <trkpt lat="47.44556" lon="6.79925">
        <ele>364</ele>
        <time>2015-03-15T09:06:39.000Z</time>
      </trkpt>
      <trkpt lat="47.44553" lon="6.79923">
        <ele>364</ele>
        <time>2015-03-15T09:06:40.000Z</time>
      </trkpt>
      <trkpt lat="47.4455" lon="6.79922">
        <ele>364</ele>
        <time>2015-03-15T09:06:41.000Z</time>
      </trkpt>
      <trkpt lat="47.44547" lon="6.79922">
        <ele>364</ele>
        <time>2015-03-15T09:06:42.000Z</time>
      </trkpt>
      <trkpt lat="47.44543" lon="6.7992">
        <ele>364</ele>
        <time>2015-03-15T09:06:43.000Z</time>
      </trkpt>
      <trkpt lat="47.4454" lon="6.79919">
        <ele>364</ele>
        <time>2015-03-15T09:06:44.000Z</time>
      </trkpt>
      <trkpt lat="47.44537" lon="6.79918">
        <ele>364</ele>
        <time>2015-03-15T09:06:45.000Z</time>
      </trkpt>
      <trkpt lat="47.44535" lon="6.79917">
        <ele>365</ele>
        <time>2015-03-15T09:06:46.000Z</time>
      </trkpt>
      <trkpt lat="47.44532" lon="6.79916">
        <ele>365</ele>
        <time>2015-03-15T09:06:47.000Z</time>
      </trkpt>
      <trkpt lat="47.44529" lon="6.79916">
        <ele>365</ele>
        <time>2015-03-15T09:06:48.000Z</time>
      </trkpt>
      <trkpt lat="47.44526" lon="6.79915">
        <ele>365</ele>
        <time>2015-03-15T09:06:49.000Z</time>
      </trkpt>
      <trkpt lat="47.44523" lon="6.79914">
        <ele>365</ele>
        <time>2015-03-15T09:06:50.000Z</time>
      </trkpt>
      <trkpt lat="47.4452" lon="6.79913">
        <ele>365</ele>
        <time>2015-03-15T09:06:51.000Z</time>
      </trkpt>
      <trkpt lat="47.44518" lon="6.79913">
        <ele>365</ele>
        <time>2015-03-15T09:06:52.000Z</time>
      </trkpt>
      <trkpt lat="47.44515" lon="6.79912">
        <ele>366</ele>
        <time>2015-03-15T09:06:53.000Z</time>
      </trkpt>
      <trkpt lat="47.44512" lon="6.79912">
        <ele>366</ele>
        <time>2015-03-15T09:06:54.000Z</time>
      </trkpt>
      <trkpt lat="47.4451" lon="6.79912">
        <ele>366</ele>
        <time>2015-03-15T09:06:55.000Z</time>
      </trkpt>
      <trkpt lat="47.44507" lon="6.79912">
        <ele>366</ele>
        <time>2015-03-15T09:06:56.000Z</time>
      </trkpt>
      <trkpt lat="47.44505" lon="6.79912">
        <ele>366</ele>
        <time>2015-03-15T09:06:57.000Z</time>
      </trkpt>
      <trkpt lat="47.44503" lon="6.79912">
        <ele>366</ele>
        <time>2015-03-15T09:06:58.000Z</time>
      </trkpt>
      <trkpt lat="47.44498" lon="6.79911">
        <ele>367</ele>
        <time>2015-03-15T09:07:00.000Z</time>
      </trkpt>
      <trkpt lat="47.44496" lon="6.79911">
        <ele>367</ele>
        <time>2015-03-15T09:07:01.000Z</time>
      </trkpt>
      <trkpt lat="47.44494" lon="6.79911">
        <ele>368</ele>
        <time>2015-03-15T09:07:02.000Z</time>
      </trkpt>
      <trkpt lat="47.44492" lon="6.7991">
        <ele>368</ele>
        <time>2015-03-15T09:07:03.000Z</time>
      </trkpt>
      <trkpt lat="47.44489" lon="6.7991">
        <ele>368</ele>
        <time>2015-03-15T09:07:04.000Z</time>
      </trkpt>
      <trkpt lat="47.44487" lon="6.7991">
        <ele>368</ele>
        <time>2015-03-15T09:07:05.000Z</time>
      </trkpt>
      <trkpt lat="47.44484" lon="6.79909">
        <ele>369</ele>
        <time>2015-03-15T09:07:06.000Z</time>
      </trkpt>
      <trkpt lat="47.44482" lon="6.79909">
        <ele>369</ele>
        <time>2015-03-15T09:07:07.000Z</time>
      </trkpt>
      <trkpt lat="47.44479" lon="6.79908">
        <ele>369</ele>
        <time>2015-03-15T09:07:08.000Z</time>
      </trkpt>
      <trkpt lat="47.44476" lon="6.79907">
        <ele>370</ele>
        <time>2015-03-15T09:07:09.000Z</time>
      </trkpt>
      <trkpt lat="47.44474" lon="6.79906">
        <ele>370</ele>
        <time>2015-03-15T09:07:10.000Z</time>
      </trkpt>
      <trkpt lat="47.44472" lon="6.79904">
        <ele>370</ele>
        <time>2015-03-15T09:07:11.000Z</time>
      </trkpt>
      <trkpt lat="47.4447" lon="6.79902">
        <ele>370</ele>
        <time>2015-03-15T09:07:12.000Z</time>
      </trkpt>
      <trkpt lat="47.44468" lon="6.79901">
        <ele>370</ele>
        <time>2015-03-15T09:07:13.000Z</time>
      </trkpt>
      <trkpt lat="47.44465" lon="6.79899">
        <ele>371</ele>
        <time>2015-03-15T09:07:14.000Z</time>
      </trkpt>
      <trkpt lat="47.44463" lon="6.79899">
        <ele>371</ele>
        <time>2015-03-15T09:07:15.000Z</time>
      </trkpt>
      <trkpt lat="47.44461" lon="6.79898">
        <ele>371</ele>
        <time>2015-03-15T09:07:16.000Z</time>
      </trkpt>
      <trkpt lat="47.44459" lon="6.79897">
        <ele>371</ele>
        <time>2015-03-15T09:07:17.000Z</time>
      </trkpt>
      <trkpt lat="47.44456" lon="6.79897">
        <ele>371</ele>
        <time>2015-03-15T09:07:18.000Z</time>
      </trkpt>
      <trkpt lat="47.44454" lon="6.79896">
        <ele>372</ele>
        <time>2015-03-15T09:07:19.000Z</time>
      </trkpt>
      <trkpt lat="47.44451" lon="6.79895">
        <ele>372</ele>
        <time>2015-03-15T09:07:20.000Z</time>
      </trkpt>
      <trkpt lat="47.44449" lon="6.79894">
        <ele>372</ele>
        <time>2015-03-15T09:07:21.000Z</time>
      </trkpt>
      <trkpt lat="47.44447" lon="6.79893">
        <ele>372</ele>
        <time>2015-03-15T09:07:22.000Z</time>
      </trkpt>
      <trkpt lat="47.44445" lon="6.79891">
        <ele>372</ele>
        <time>2015-03-15T09:07:23.000Z</time>
      </trkpt>
      <trkpt lat="47.44441" lon="6.79889">
        <ele>372</ele>
        <time>2015-03-15T09:07:25.000Z</time>
      </trkpt>
      <trkpt lat="47.44439" lon="6.79888">
        <ele>372</ele>
        <time>2015-03-15T09:07:26.000Z</time>
      </trkpt>
      <trkpt lat="47.44435" lon="6.79886">
        <ele>372</ele>
        <time>2015-03-15T09:07:28.000Z</time>
      </trkpt>
      <trkpt lat="47.44432" lon="6.79885">
        <ele>373</ele>
        <time>2015-03-15T09:07:29.000Z</time>
      </trkpt>
      <trkpt lat="47.4443" lon="6.79884">
        <ele>373</ele>
        <time>2015-03-15T09:07:30.000Z</time>
      </trkpt>
      <trkpt lat="47.44428" lon="6.79883">
        <ele>373</ele>
        <time>2015-03-15T09:07:31.000Z</time>
      </trkpt>
      <trkpt lat="47.44424" lon="6.79881">
        <ele>373</ele>
        <time>2015-03-15T09:07:33.000Z</time>
      </trkpt>
      <trkpt lat="47.44422" lon="6.7988">
        <ele>373</ele>
        <time>2015-03-15T09:07:34.000Z</time>
      </trkpt>
      <trkpt lat="47.4442" lon="6.79878">
        <ele>373</ele>
        <time>2015-03-15T09:07:35.000Z</time>
      </trkpt>
      <trkpt lat="47.44417" lon="6.79878">
        <ele>373</ele>
        <time>2015-03-15T09:07:36.000Z</time>
      </trkpt>
      <trkpt lat="47.44415" lon="6.79877">
        <ele>381</ele>
        <time>2015-03-15T09:07:37.000Z</time>
      </trkpt>
      <trkpt lat="47.44413" lon="6.79875">
        <ele>381</ele>
        <time>2015-03-15T09:07:38.000Z</time>
      </trkpt>
      <trkpt lat="47.44408" lon="6.79873">
        <ele>381</ele>
        <time>2015-03-15T09:07:40.000Z</time>
      </trkpt>
      <trkpt lat="47.44406" lon="6.79872">
        <ele>381</ele>
        <time>2015-03-15T09:07:41.000Z</time>
      </trkpt>
      <trkpt lat="47.44404" lon="6.79871">
        <ele>381</ele>
        <time>2015-03-15T09:07:42.000Z</time>
      </trkpt>
      <trkpt lat="47.44402" lon="6.79871">
        <ele>381</ele>
        <time>2015-03-15T09:07:43.000Z</time>
      </trkpt>
      <trkpt lat="47.44397" lon="6.79869">
        <ele>382</ele>
        <time>2015-03-15T09:07:45.000Z</time>
      </trkpt>
      <trkpt lat="47.44395" lon="6.79869">
        <ele>382</ele>
        <time>2015-03-15T09:07:46.000Z</time>
      </trkpt>
      <trkpt lat="47.44392" lon="6.79866">
        <ele>382</ele>
        <time>2015-03-15T09:07:48.000Z</time>
      </trkpt>
      <trkpt lat="47.44391" lon="6.79865">
        <ele>382</ele>
        <time>2015-03-15T09:07:49.000Z</time>
      </trkpt>
      <trkpt lat="47.4439" lon="6.7986">
        <ele>382</ele>
        <time>2015-03-15T09:07:51.000Z</time>
      </trkpt>
      <trkpt lat="47.44389" lon="6.79857">
        <ele>382</ele>
        <time>2015-03-15T09:07:52.000Z</time>
      </trkpt>
      <trkpt lat="47.4439" lon="6.79851">
        <ele>382</ele>
        <time>2015-03-15T09:07:54.000Z</time>
      </trkpt>
      <trkpt lat="47.44391" lon="6.79848">
        <ele>382</ele>
        <time>2015-03-15T09:07:55.000Z</time>
      </trkpt>
      <trkpt lat="47.44393" lon="6.79844">
        <ele>381</ele>
        <time>2015-03-15T09:07:57.000Z</time>
      </trkpt>
      <trkpt lat="47.44394" lon="6.79842">
        <ele>381</ele>
        <time>2015-03-15T09:07:58.000Z</time>
      </trkpt>
      <trkpt lat="47.44395" lon="6.79838">
        <ele>381</ele>
        <time>2015-03-15T09:08:00.000Z</time>
      </trkpt>
      <trkpt lat="47.44395" lon="6.79835">
        <ele>381</ele>
        <time>2015-03-15T09:08:01.000Z</time>
      </trkpt>
      <trkpt lat="47.44395" lon="6.79829">
        <ele>383</ele>
        <time>2015-03-15T09:08:03.000Z</time>
      </trkpt>
      <trkpt lat="47.44395" lon="6.79827">
        <ele>383</ele>
        <time>2015-03-15T09:08:04.000Z</time>
      </trkpt>
      <trkpt lat="47.44397" lon="6.79823">
        <ele>383</ele>
        <time>2015-03-15T09:08:06.000Z</time>
      </trkpt>
      <trkpt lat="47.44398" lon="6.7982">
        <ele>383</ele>
        <time>2015-03-15T09:08:07.000Z</time>
      </trkpt>
      <trkpt lat="47.44401" lon="6.79817">
        <ele>383</ele>
        <time>2015-03-15T09:08:10.000Z</time>
      </trkpt>
      <trkpt lat="47.44402" lon="6.79816">
        <ele>383</ele>
        <time>2015-03-15T09:08:11.000Z</time>
      </trkpt>
      <trkpt lat="47.44404" lon="6.79812">
        <ele>383</ele>
        <time>2015-03-15T09:08:13.000Z</time>
      </trkpt>
      <trkpt lat="47.44404" lon="6.7981">
        <ele>383</ele>
        <time>2015-03-15T09:08:14.000Z</time>
      </trkpt>
      <trkpt lat="47.44405" lon="6.79804">
        <ele>384</ele>
        <time>2015-03-15T09:08:16.000Z</time>
      </trkpt>
      <trkpt lat="47.44405" lon="6.79801">
        <ele>384</ele>
        <time>2015-03-15T09:08:17.000Z</time>
      </trkpt>
      <trkpt lat="47.44405" lon="6.79796">
        <ele>384</ele>
        <time>2015-03-15T09:08:19.000Z</time>
      </trkpt>
      <trkpt lat="47.44405" lon="6.79793">
        <ele>385</ele>
        <time>2015-03-15T09:08:20.000Z</time>
      </trkpt>
      <trkpt lat="47.44404" lon="6.79787">
        <ele>385</ele>
        <time>2015-03-15T09:08:22.000Z</time>
      </trkpt>
      <trkpt lat="47.44403" lon="6.79785">
        <ele>385</ele>
        <time>2015-03-15T09:08:23.000Z</time>
      </trkpt>
      <trkpt lat="47.444" lon="6.79782">
        <ele>385</ele>
        <time>2015-03-15T09:08:26.000Z</time>
      </trkpt>
      <trkpt lat="47.44398" lon="6.79781">
        <ele>385</ele>
        <time>2015-03-15T09:08:27.000Z</time>
      </trkpt>
      <trkpt lat="47.44394" lon="6.79782">
        <ele>386</ele>
        <time>2015-03-15T09:08:30.000Z</time>
      </trkpt>
      <trkpt lat="47.44393" lon="6.79783">
        <ele>386</ele>
        <time>2015-03-15T09:08:31.000Z</time>
      </trkpt>
      <trkpt lat="47.44389" lon="6.79785">
        <ele>386</ele>
        <time>2015-03-15T09:08:33.000Z</time>
      </trkpt>
      <trkpt lat="47.44388" lon="6.79786">
        <ele>386</ele>
        <time>2015-03-15T09:08:34.000Z</time>
      </trkpt>
      <trkpt lat="47.44384" lon="6.79787">
        <ele>387</ele>
        <time>2015-03-15T09:08:37.000Z</time>
      </trkpt>
      <trkpt lat="47.44382" lon="6.79788">
        <ele>387</ele>
        <time>2015-03-15T09:08:38.000Z</time>
      </trkpt>
      <trkpt lat="47.44379" lon="6.79789">
        <ele>387</ele>
        <time>2015-03-15T09:08:41.000Z</time>
      </trkpt>
      <trkpt lat="47.44377" lon="6.79789">
        <ele>388</ele>
        <time>2015-03-15T09:08:42.000Z</time>
      </trkpt>
      <trkpt lat="47.44375" lon="6.79792">
        <ele>388</ele>
        <time>2015-03-15T09:08:44.000Z</time>
      </trkpt>
      <trkpt lat="47.44373" lon="6.79793">
        <ele>388</ele>
        <time>2015-03-15T09:08:45.000Z</time>
      </trkpt>
      <trkpt lat="47.4437" lon="6.79794">
        <ele>388</ele>
        <time>2015-03-15T09:08:47.000Z</time>
      </trkpt>
      <trkpt lat="47.44368" lon="6.79794">
        <ele>389</ele>
        <time>2015-03-15T09:08:48.000Z</time>
      </trkpt>
      <trkpt lat="47.44364" lon="6.79796">
        <ele>389</ele>
        <time>2015-03-15T09:08:51.000Z</time>
      </trkpt>
      <trkpt lat="47.44363" lon="6.79797">
        <ele>389</ele>
        <time>2015-03-15T09:08:52.000Z</time>
      </trkpt>
      <trkpt lat="47.44359" lon="6.79799">
        <ele>389</ele>
        <time>2015-03-15T09:08:55.000Z</time>
      </trkpt>
      <trkpt lat="47.44358" lon="6.79799">
        <ele>390</ele>
        <time>2015-03-15T09:08:56.000Z</time>
      </trkpt>
      <trkpt lat="47.44354" lon="6.79801">
        <ele>390</ele>
        <time>2015-03-15T09:08:58.000Z</time>
      </trkpt>
      <trkpt lat="47.44353" lon="6.79801">
        <ele>390</ele>
        <time>2015-03-15T09:08:59.000Z</time>
      </trkpt>
      <trkpt lat="47.44349" lon="6.79803">
        <ele>390</ele>
        <time>2015-03-15T09:09:02.000Z</time>
      </trkpt>
      <trkpt lat="47.44347" lon="6.79804">
        <ele>391</ele>
        <time>2015-03-15T09:09:03.000Z</time>
      </trkpt>
      <trkpt lat="47.44345" lon="6.79807">
        <ele>391</ele>
        <time>2015-03-15T09:09:05.000Z</time>
      </trkpt>
      <trkpt lat="47.44343" lon="6.79809">
        <ele>391</ele>
        <time>2015-03-15T09:09:06.000Z</time>
      </trkpt>
      <trkpt lat="47.44341" lon="6.79811">
        <ele>391</ele>
        <time>2015-03-15T09:09:08.000Z</time>
      </trkpt>
      <trkpt lat="47.44339" lon="6.79812">
        <ele>391</ele>
        <time>2015-03-15T09:09:09.000Z</time>
      </trkpt>
      <trkpt lat="47.44337" lon="6.79815">
        <ele>392</ele>
        <time>2015-03-15T09:09:11.000Z</time>
      </trkpt>
      <trkpt lat="47.44336" lon="6.79817">
        <ele>392</ele>
        <time>2015-03-15T09:09:12.000Z</time>
      </trkpt>
      <trkpt lat="47.44333" lon="6.79819">
        <ele>401</ele>
        <time>2015-03-15T09:09:14.000Z</time>
      </trkpt>
      <trkpt lat="47.44332" lon="6.7982">
        <ele>401</ele>
        <time>2015-03-15T09:09:15.000Z</time>
      </trkpt>
      <trkpt lat="47.44329" lon="6.79823">
        <ele>400</ele>
        <time>2015-03-15T09:09:18.000Z</time>
      </trkpt>
      <trkpt lat="47.44328" lon="6.79824">
        <ele>400</ele>
        <time>2015-03-15T09:09:19.000Z</time>
      </trkpt>
      <trkpt lat="47.44325" lon="6.79828">
        <ele>400</ele>
        <time>2015-03-15T09:09:22.000Z</time>
      </trkpt>
      <trkpt lat="47.44324" lon="6.79829">
        <ele>400</ele>
        <time>2015-03-15T09:09:23.000Z</time>
      </trkpt>
      <trkpt lat="47.4432" lon="6.79833">
        <ele>401</ele>
        <time>2015-03-15T09:09:26.000Z</time>
      </trkpt>
      <trkpt lat="47.4432" lon="6.79834">
        <ele>399</ele>
        <time>2015-03-15T09:09:27.000Z</time>
      </trkpt>
      <trkpt lat="47.44316" lon="6.79838">
        <ele>400</ele>
        <time>2015-03-15T09:09:31.000Z</time>
      </trkpt>
      <trkpt lat="47.44315" lon="6.79839">
        <ele>400</ele>
        <time>2015-03-15T09:09:32.000Z</time>
      </trkpt>
      <trkpt lat="47.44312" lon="6.79842">
        <ele>401</ele>
        <time>2015-03-15T09:09:35.000Z</time>
      </trkpt>
      <trkpt lat="47.44311" lon="6.79843">
        <ele>401</ele>
        <time>2015-03-15T09:09:36.000Z</time>
      </trkpt>
      <trkpt lat="47.44309" lon="6.79845">
        <ele>402</ele>
        <time>2015-03-15T09:09:38.000Z</time>
      </trkpt>
      <trkpt lat="47.44307" lon="6.79847">
        <ele>402</ele>
        <time>2015-03-15T09:09:39.000Z</time>
      </trkpt>
      <trkpt lat="47.44305" lon="6.79849">
        <ele>403</ele>
        <time>2015-03-15T09:09:41.000Z</time>
      </trkpt>
      <trkpt lat="47.44303" lon="6.79851">
        <ele>403</ele>
        <time>2015-03-15T09:09:42.000Z</time>
      </trkpt>
      <trkpt lat="47.44301" lon="6.79854">
        <ele>403</ele>
        <time>2015-03-15T09:09:44.000Z</time>
      </trkpt>
      <trkpt lat="47.44299" lon="6.79855">
        <ele>404</ele>
        <time>2015-03-15T09:09:45.000Z</time>
      </trkpt>
      <trkpt lat="47.44297" lon="6.79858">
        <ele>404</ele>
        <time>2015-03-15T09:09:47.000Z</time>
      </trkpt>
      <trkpt lat="47.44296" lon="6.7986">
        <ele>404</ele>
        <time>2015-03-15T09:09:48.000Z</time>
      </trkpt>
      <trkpt lat="47.44292" lon="6.79862">
        <ele>405</ele>
        <time>2015-03-15T09:09:51.000Z</time>
      </trkpt>
      <trkpt lat="47.44291" lon="6.79863">
        <ele>405</ele>
        <time>2015-03-15T09:09:52.000Z</time>
      </trkpt>
      <trkpt lat="47.44289" lon="6.79867">
        <ele>405</ele>
        <time>2015-03-15T09:09:55.000Z</time>
      </trkpt>
      <trkpt lat="47.44288" lon="6.79868">
        <ele>405</ele>
        <time>2015-03-15T09:09:56.000Z</time>
      </trkpt>
      <trkpt lat="47.44285" lon="6.79871">
        <ele>405</ele>
        <time>2015-03-15T09:09:59.000Z</time>
      </trkpt>
      <trkpt lat="47.44284" lon="6.79872">
        <ele>406</ele>
        <time>2015-03-15T09:10:00.000Z</time>
      </trkpt>
      <trkpt lat="47.44279" lon="6.79873">
        <ele>406</ele>
        <time>2015-03-15T09:10:04.000Z</time>
      </trkpt>
      <trkpt lat="47.44279" lon="6.79874">
        <ele>406</ele>
        <time>2015-03-15T09:10:05.000Z</time>
      </trkpt>
      <trkpt lat="47.44274" lon="6.79875">
        <ele>407</ele>
        <time>2015-03-15T09:10:09.000Z</time>
      </trkpt>
      <trkpt lat="47.44273" lon="6.79876">
        <ele>407</ele>
        <time>2015-03-15T09:10:10.000Z</time>
      </trkpt>
      <trkpt lat="47.44269" lon="6.79876">
        <ele>407</ele>
        <time>2015-03-15T09:10:13.000Z</time>
      </trkpt>
      <trkpt lat="47.44268" lon="6.79876">
        <ele>407</ele>
        <time>2015-03-15T09:10:14.000Z</time>
      </trkpt>
      <trkpt lat="47.44264" lon="6.79878">
        <ele>408</ele>
        <time>2015-03-15T09:10:18.000Z</time>
      </trkpt>
      <trkpt lat="47.44263" lon="6.79878">
        <ele>408</ele>
        <time>2015-03-15T09:10:19.000Z</time>
      </trkpt>
      <trkpt lat="47.44259" lon="6.7988">
        <ele>408</ele>
        <time>2015-03-15T09:10:22.000Z</time>
      </trkpt>
      <trkpt lat="47.44258" lon="6.7988">
        <ele>408</ele>
        <time>2015-03-15T09:10:23.000Z</time>
      </trkpt>
      <trkpt lat="47.44254" lon="6.79883">
        <ele>408</ele>
        <time>2015-03-15T09:10:27.000Z</time>
      </trkpt>
      <trkpt lat="47.44253" lon="6.79884">
        <ele>408</ele>
        <time>2015-03-15T09:10:28.000Z</time>
      </trkpt>
      <trkpt lat="47.4425" lon="6.79886">
        <ele>408</ele>
        <time>2015-03-15T09:10:30.000Z</time>
      </trkpt>
      <trkpt lat="47.44249" lon="6.79887">
        <ele>420</ele>
        <time>2015-03-15T09:10:31.000Z</time>
      </trkpt>
      <trkpt lat="47.44245" lon="6.7989">
        <ele>420</ele>
        <time>2015-03-15T09:10:34.000Z</time>
      </trkpt>
      <trkpt lat="47.44244" lon="6.7989">
        <ele>420</ele>
        <time>2015-03-15T09:10:35.000Z</time>
      </trkpt>
      <trkpt lat="47.4424" lon="6.79893">
        <ele>420</ele>
        <time>2015-03-15T09:10:38.000Z</time>
      </trkpt>
      <trkpt lat="47.44239" lon="6.79893">
        <ele>420</ele>
        <time>2015-03-15T09:10:39.000Z</time>
      </trkpt>
      <trkpt lat="47.44235" lon="6.79895">
        <ele>420</ele>
        <time>2015-03-15T09:10:43.000Z</time>
      </trkpt>
      <trkpt lat="47.44234" lon="6.79896">
        <ele>420</ele>
        <time>2015-03-15T09:10:44.000Z</time>
      </trkpt>
      <trkpt lat="47.44231" lon="6.79898">
        <ele>420</ele>
        <time>2015-03-15T09:10:46.000Z</time>
      </trkpt>
      <trkpt lat="47.44229" lon="6.79899">
        <ele>420</ele>
        <time>2015-03-15T09:10:47.000Z</time>
      </trkpt>
      <trkpt lat="47.44226" lon="6.79901">
        <ele>420</ele>
        <time>2015-03-15T09:10:50.000Z</time>
      </trkpt>
      <trkpt lat="47.44225" lon="6.79902">
        <ele>420</ele>
        <time>2015-03-15T09:10:51.000Z</time>
      </trkpt>
      <trkpt lat="47.44221" lon="6.79904">
        <ele>421</ele>
        <time>2015-03-15T09:10:54.000Z</time>
      </trkpt>
      <trkpt lat="47.4422" lon="6.79905">
        <ele>421</ele>
        <time>2015-03-15T09:10:55.000Z</time>
      </trkpt>
      <trkpt lat="47.44217" lon="6.79907">
        <ele>422</ele>
        <time>2015-03-15T09:10:58.000Z</time>
      </trkpt>
      <trkpt lat="47.44215" lon="6.79908">
        <ele>422</ele>
        <time>2015-03-15T09:10:59.000Z</time>
      </trkpt>
      <trkpt lat="47.44211" lon="6.7991">
        <ele>422</ele>
        <time>2015-03-15T09:11:03.000Z</time>
      </trkpt>
      <trkpt lat="47.4421" lon="6.79911">
        <ele>422</ele>
        <time>2015-03-15T09:11:04.000Z</time>
      </trkpt>
      <trkpt lat="47.44207" lon="6.79914">
        <ele>423</ele>
        <time>2015-03-15T09:11:07.000Z</time>
      </trkpt>
      <trkpt lat="47.44206" lon="6.79915">
        <ele>423</ele>
        <time>2015-03-15T09:11:08.000Z</time>
      </trkpt>
      <trkpt lat="47.44202" lon="6.79918">
        <ele>418</ele>
        <time>2015-03-15T09:11:12.000Z</time>
      </trkpt>
      <trkpt lat="47.44201" lon="6.79919">
        <ele>418</ele>
        <time>2015-03-15T09:11:13.000Z</time>
      </trkpt>
      <trkpt lat="47.44197" lon="6.79916">
        <ele>424</ele>
        <time>2015-03-15T09:11:19.000Z</time>
      </trkpt>
      <trkpt lat="47.44197" lon="6.79915">
        <ele>424</ele>
        <time>2015-03-15T09:11:20.000Z</time>
      </trkpt>
      <trkpt lat="47.44198" lon="6.7991">
        <ele>424</ele>
        <time>2015-03-15T09:11:25.000Z</time>
      </trkpt>
      <trkpt lat="47.44199" lon="6.79909">
        <ele>424</ele>
        <time>2015-03-15T09:11:26.000Z</time>
      </trkpt>
      <trkpt lat="47.44199" lon="6.79903">
        <ele>424</ele>
        <time>2015-03-15T09:11:31.000Z</time>
      </trkpt>
      <trkpt lat="47.44199" lon="6.79902">
        <ele>424</ele>
        <time>2015-03-15T09:11:32.000Z</time>
      </trkpt>
      <trkpt lat="47.44201" lon="6.79896">
        <ele>424</ele>
        <time>2015-03-15T09:11:37.000Z</time>
      </trkpt>
      <trkpt lat="47.44201" lon="6.79895">
        <ele>424</ele>
        <time>2015-03-15T09:11:38.000Z</time>
      </trkpt>
      <trkpt lat="47.44202" lon="6.79888">
        <ele>424</ele>
        <time>2015-03-15T09:11:44.000Z</time>
      </trkpt>
      <trkpt lat="47.44202" lon="6.79887">
        <ele>424</ele>
        <time>2015-03-15T09:11:45.000Z</time>
      </trkpt>
      <trkpt lat="47.44204" lon="6.79882">
        <ele>424</ele>
        <time>2015-03-15T09:11:48.000Z</time>
      </trkpt>
      <trkpt lat="47.44204" lon="6.7988">
        <ele>424</ele>
        <time>2015-03-15T09:11:49.000Z</time>
      </trkpt>
      <trkpt lat="47.44203" lon="6.79874">
        <ele>425</ele>
        <time>2015-03-15T09:11:52.000Z</time>
      </trkpt>
      <trkpt lat="47.44203" lon="6.79873">
        <ele>425</ele>
        <time>2015-03-15T09:11:53.000Z</time>
      </trkpt>
      <trkpt lat="47.44203" lon="6.79867">
        <ele>425</ele>
        <time>2015-03-15T09:11:57.000Z</time>
      </trkpt>
      <trkpt lat="47.44203" lon="6.79866">
        <ele>425</ele>
        <time>2015-03-15T09:11:58.000Z</time>
      </trkpt>
      <trkpt lat="47.44202" lon="6.79861">
        <ele>425</ele>
        <time>2015-03-15T09:12:01.000Z</time>
      </trkpt>
      <trkpt lat="47.44201" lon="6.79859">
        <ele>425</ele>
        <time>2015-03-15T09:12:02.000Z</time>
      </trkpt>
      <trkpt lat="47.442" lon="6.79854">
        <ele>426</ele>
        <time>2015-03-15T09:12:04.000Z</time>
      </trkpt>
      <trkpt lat="47.442" lon="6.79852">
        <ele>426</ele>
        <time>2015-03-15T09:12:05.000Z</time>
      </trkpt>
      <trkpt lat="47.44199" lon="6.79846">
        <ele>426</ele>
        <time>2015-03-15T09:12:08.000Z</time>
      </trkpt>
      <trkpt lat="47.44199" lon="6.79844">
        <ele>427</ele>
        <time>2015-03-15T09:12:09.000Z</time>
      </trkpt>
      <trkpt lat="47.44198" lon="6.79838">
        <ele>427</ele>
        <time>2015-03-15T09:12:12.000Z</time>
      </trkpt>
      <trkpt lat="47.44197" lon="6.79836">
        <ele>427</ele>
        <time>2015-03-15T09:12:13.000Z</time>
      </trkpt>
      <trkpt lat="47.44197" lon="6.79832">
        <ele>431</ele>
        <time>2015-03-15T09:12:15.000Z</time>
      </trkpt>
      <trkpt lat="47.44197" lon="6.7983">
        <ele>431</ele>
        <time>2015-03-15T09:12:16.000Z</time>
      </trkpt>
      <trkpt lat="47.44196" lon="6.79823">
        <ele>431</ele>
        <time>2015-03-15T09:12:19.999Z</time>
      </trkpt>
      <trkpt lat="47.44196" lon="6.79821">
        <ele>431</ele>
        <time>2015-03-15T09:12:21.000Z</time>
      </trkpt>
      <trkpt lat="47.44196" lon="6.79816">
        <ele>431</ele>
        <time>2015-03-15T09:12:24.000Z</time>
      </trkpt>
      <trkpt lat="47.44196" lon="6.79814">
        <ele>431</ele>
        <time>2015-03-15T09:12:25.000Z</time>
      </trkpt>
      <trkpt lat="47.44196" lon="6.79807">
        <ele>431</ele>
        <time>2015-03-15T09:12:28.000Z</time>
      </trkpt>
      <trkpt lat="47.44196" lon="6.79805">
        <ele>431</ele>
        <time>2015-03-15T09:12:29.000Z</time>
      </trkpt>
      <trkpt lat="47.44197" lon="6.798">
        <ele>431</ele>
        <time>2015-03-15T09:12:31.000Z</time>
      </trkpt>
      <trkpt lat="47.44197" lon="6.79798">
        <ele>431</ele>
        <time>2015-03-15T09:12:32.000Z</time>
      </trkpt>
      <trkpt lat="47.44197" lon="6.79793">
        <ele>431</ele>
        <time>2015-03-15T09:12:34.000Z</time>
      </trkpt>
      <trkpt lat="47.44197" lon="6.79791">
        <ele>431</ele>
        <time>2015-03-15T09:12:35.000Z</time>
      </trkpt>
      <trkpt lat="47.44197" lon="6.79786">
        <ele>431</ele>
        <time>2015-03-15T09:12:37.000Z</time>
      </trkpt>
      <trkpt lat="47.44197" lon="6.79783">
        <ele>431</ele>
        <time>2015-03-15T09:12:38.000Z</time>
      </trkpt>
      <trkpt lat="47.44197" lon="6.79777">
        <ele>432</ele>
        <time>2015-03-15T09:12:40.000Z</time>
      </trkpt>
      <trkpt lat="47.44196" lon="6.79775">
        <ele>432</ele>
        <time>2015-03-15T09:12:41.000Z</time>
      </trkpt>
      <trkpt lat="47.44196" lon="6.7977">
        <ele>432</ele>
        <time>2015-03-15T09:12:43.000Z</time>
      </trkpt>
      <trkpt lat="47.44196" lon="6.79768">
        <ele>432</ele>
        <time>2015-03-15T09:12:44.000Z</time>
      </trkpt>
      <trkpt lat="47.44197" lon="6.79762">
        <ele>432</ele>
        <time>2015-03-15T09:12:46.000Z</time>
      </trkpt>
      <trkpt lat="47.44197" lon="6.79759">
        <ele>432</ele>
        <time>2015-03-15T09:12:47.000Z</time>
      </trkpt>
      <trkpt lat="47.44197" lon="6.79752">
        <ele>432</ele>
        <time>2015-03-15T09:12:49.000Z</time>
      </trkpt>
      <trkpt lat="47.44197" lon="6.7975">
        <ele>435</ele>
        <time>2015-03-15T09:12:50.000Z</time>
      </trkpt>
      <trkpt lat="47.44198" lon="6.79745">
        <ele>435</ele>
        <time>2015-03-15T09:12:52.000Z</time>
      </trkpt>
      <trkpt lat="47.44198" lon="6.79742">
        <ele>435</ele>
        <time>2015-03-15T09:12:53.000Z</time>
      </trkpt>
      <trkpt lat="47.44198" lon="6.79737">
        <ele>435</ele>
        <time>2015-03-15T09:12:55.000Z</time>
      </trkpt>
      <trkpt lat="47.44197" lon="6.79734">
        <ele>435</ele>
        <time>2015-03-15T09:12:56.000Z</time>
      </trkpt>
      <trkpt lat="47.44197" lon="6.79727">
        <ele>435</ele>
        <time>2015-03-15T09:12:58.000Z</time>
      </trkpt>
      <trkpt lat="47.44198" lon="6.79723">
        <ele>435</ele>
        <time>2015-03-15T09:12:59.000Z</time>
      </trkpt>
      <trkpt lat="47.44198" lon="6.7972">
        <ele>435</ele>
        <time>2015-03-15T09:13:00.000Z</time>
      </trkpt>
      <trkpt lat="47.44199" lon="6.79716">
        <ele>435</ele>
        <time>2015-03-15T09:13:01.000Z</time>
      </trkpt>
      <trkpt lat="47.442" lon="6.79713">
        <ele>434</ele>
        <time>2015-03-15T09:13:02.000Z</time>
      </trkpt>
      <trkpt lat="47.442" lon="6.7971">
        <ele>434</ele>
        <time>2015-03-15T09:13:03.000Z</time>
      </trkpt>
      <trkpt lat="47.44201" lon="6.79706">
        <ele>434</ele>
        <time>2015-03-15T09:13:04.000Z</time>
      </trkpt>
      <trkpt lat="47.44201" lon="6.79703">
        <ele>435</ele>
        <time>2015-03-15T09:13:05.000Z</time>
      </trkpt>
      <trkpt lat="47.442" lon="6.79697">
        <ele>435</ele>
        <time>2015-03-15T09:13:07.000Z</time>
      </trkpt>
      <trkpt lat="47.44199" lon="6.79693">
        <ele>435</ele>
        <time>2015-03-15T09:13:08.000Z</time>
      </trkpt>
      <trkpt lat="47.44197" lon="6.79688">
        <ele>435</ele>
        <time>2015-03-15T09:13:10.000Z</time>
      </trkpt>
      <trkpt lat="47.44196" lon="6.79686">
        <ele>436</ele>
        <time>2015-03-15T09:13:11.000Z</time>
      </trkpt>
      <trkpt lat="47.44194" lon="6.79682">
        <ele>436</ele>
        <time>2015-03-15T09:13:13.000Z</time>
      </trkpt>
      <trkpt lat="47.44192" lon="6.7968">
        <ele>436</ele>
        <time>2015-03-15T09:13:14.000Z</time>
      </trkpt>
      <trkpt lat="47.4419" lon="6.79679">
        <ele>437</ele>
        <time>2015-03-15T09:13:15.000Z</time>
      </trkpt>
      <trkpt lat="47.44188" lon="6.79677">
        <ele>437</ele>
        <time>2015-03-15T09:13:16.000Z</time>
      </trkpt>
      <trkpt lat="47.44185" lon="6.79675">
        <ele>438</ele>
        <time>2015-03-15T09:13:18.000Z</time>
      </trkpt>
      <trkpt lat="47.44184" lon="6.79673">
        <ele>438</ele>
        <time>2015-03-15T09:13:19.000Z</time>
      </trkpt>
      <trkpt lat="47.4418" lon="6.7967">
        <ele>439</ele>
        <time>2015-03-15T09:13:22.000Z</time>
      </trkpt>
      <trkpt lat="47.44178" lon="6.79669">
        <ele>440</ele>
        <time>2015-03-15T09:13:23.000Z</time>
      </trkpt>
      <trkpt lat="47.44175" lon="6.79666">
        <ele>441</ele>
        <time>2015-03-15T09:13:25.000Z</time>
      </trkpt>
      <trkpt lat="47.44173" lon="6.79665">
        <ele>441</ele>
        <time>2015-03-15T09:13:26.000Z</time>
      </trkpt>
      <trkpt lat="47.44171" lon="6.79661">
        <ele>441</ele>
        <time>2015-03-15T09:13:28.000Z</time>
      </trkpt>
      <trkpt lat="47.4417" lon="6.79659">
        <ele>441</ele>
        <time>2015-03-15T09:13:29.000Z</time>
      </trkpt>
      <trkpt lat="47.44168" lon="6.79657">
        <ele>441</ele>
        <time>2015-03-15T09:13:30.000Z</time>
      </trkpt>
      <trkpt lat="47.44166" lon="6.79655">
        <ele>445</ele>
        <time>2015-03-15T09:13:31.000Z</time>
      </trkpt>
      <trkpt lat="47.44162" lon="6.79651">
        <ele>445</ele>
        <time>2015-03-15T09:13:33.000Z</time>
      </trkpt>
      <trkpt lat="47.4416" lon="6.79649">
        <ele>445</ele>
        <time>2015-03-15T09:13:34.000Z</time>
      </trkpt>
      <trkpt lat="47.44157" lon="6.79647">
        <ele>446</ele>
        <time>2015-03-15T09:13:36.000Z</time>
      </trkpt>
      <trkpt lat="47.44155" lon="6.79645">
        <ele>446</ele>
        <time>2015-03-15T09:13:37.000Z</time>
      </trkpt>
      <trkpt lat="47.44151" lon="6.79643">
        <ele>446</ele>
        <time>2015-03-15T09:13:39.000Z</time>
      </trkpt>
      <trkpt lat="47.44149" lon="6.79642">
        <ele>446</ele>
        <time>2015-03-15T09:13:40.000Z</time>
      </trkpt>
      <trkpt lat="47.44145" lon="6.79639">
        <ele>446</ele>
        <time>2015-03-15T09:13:42.000Z</time>
      </trkpt>
      <trkpt lat="47.44143" lon="6.79638">
        <ele>446</ele>
        <time>2015-03-15T09:13:43.000Z</time>
      </trkpt>
      <trkpt lat="47.44139" lon="6.79637">
        <ele>447</ele>
        <time>2015-03-15T09:13:45.000Z</time>
      </trkpt>
      <trkpt lat="47.44137" lon="6.79636">
        <ele>447</ele>
        <time>2015-03-15T09:13:46.000Z</time>
      </trkpt>
      <trkpt lat="47.44133" lon="6.79634">
        <ele>447</ele>
        <time>2015-03-15T09:13:48.000Z</time>
      </trkpt>
      <trkpt lat="47.44131" lon="6.79633">
        <ele>447</ele>
        <time>2015-03-15T09:13:49.000Z</time>
      </trkpt>
      <trkpt lat="47.44127" lon="6.79631">
        <ele>447</ele>
        <time>2015-03-15T09:13:51.000Z</time>
      </trkpt>
      <trkpt lat="47.44124" lon="6.79631">
        <ele>448</ele>
        <time>2015-03-15T09:13:52.000Z</time>
      </trkpt>
      <trkpt lat="47.44122" lon="6.7963">
        <ele>448</ele>
        <time>2015-03-15T09:13:53.000Z</time>
      </trkpt>
      <trkpt lat="47.4412" lon="6.79629">
        <ele>448</ele>
        <time>2015-03-15T09:13:54.000Z</time>
      </trkpt>
      <trkpt lat="47.44115" lon="6.79627">
        <ele>448</ele>
        <time>2015-03-15T09:13:56.000Z</time>
      </trkpt>
      <trkpt lat="47.44113" lon="6.79625">
        <ele>448</ele>
        <time>2015-03-15T09:13:57.000Z</time>
      </trkpt>
      <trkpt lat="47.4411" lon="6.79623">
        <ele>448</ele>
        <time>2015-03-15T09:13:59.000Z</time>
      </trkpt>
      <trkpt lat="47.44108" lon="6.79622">
        <ele>448</ele>
        <time>2015-03-15T09:14:00.000Z</time>
      </trkpt>
      <trkpt lat="47.44104" lon="6.79619">
        <ele>449</ele>
        <time>2015-03-15T09:14:02.000Z</time>
      </trkpt>
      <trkpt lat="47.44102" lon="6.79618">
        <ele>449</ele>
        <time>2015-03-15T09:14:03.000Z</time>
      </trkpt>
      <trkpt lat="47.44099" lon="6.79615">
        <ele>449</ele>
        <time>2015-03-15T09:14:05.000Z</time>
      </trkpt>
      <trkpt lat="47.44097" lon="6.79613">
        <ele>449</ele>
        <time>2015-03-15T09:14:06.000Z</time>
      </trkpt>
      <trkpt lat="47.44093" lon="6.79611">
        <ele>449</ele>
        <time>2015-03-15T09:14:08.000Z</time>
      </trkpt>
      <trkpt lat="47.4409" lon="6.7961">
        <ele>449</ele>
        <time>2015-03-15T09:14:09.000Z</time>
      </trkpt>
      <trkpt lat="47.44086" lon="6.79607">
        <ele>450</ele>
        <time>2015-03-15T09:14:11.000Z</time>
      </trkpt>
      <trkpt lat="47.44084" lon="6.79607">
        <ele>450</ele>
        <time>2015-03-15T09:14:12.000Z</time>
      </trkpt>
      <trkpt lat="47.44081" lon="6.79604">
        <ele>453</ele>
        <time>2015-03-15T09:14:14.000Z</time>
      </trkpt>
      <trkpt lat="47.44079" lon="6.79603">
        <ele>453</ele>
        <time>2015-03-15T09:14:15.000Z</time>
      </trkpt>
      <trkpt lat="47.44076" lon="6.796">
        <ele>453</ele>
        <time>2015-03-15T09:14:17.000Z</time>
      </trkpt>
      <trkpt lat="47.44075" lon="6.79598">
        <ele>453</ele>
        <time>2015-03-15T09:14:18.000Z</time>
      </trkpt>
      <trkpt lat="47.44073" lon="6.79595">
        <ele>453</ele>
        <time>2015-03-15T09:14:20.000Z</time>
      </trkpt>
      <trkpt lat="47.44072" lon="6.79593">
        <ele>453</ele>
        <time>2015-03-15T09:14:21.000Z</time>
      </trkpt>
      <trkpt lat="47.44069" lon="6.7959">
        <ele>453</ele>
        <time>2015-03-15T09:14:24.000Z</time>
      </trkpt>
      <trkpt lat="47.44068" lon="6.79589">
        <ele>453</ele>
        <time>2015-03-15T09:14:25.000Z</time>
      </trkpt>
      <trkpt lat="47.44064" lon="6.79587">
        <ele>453</ele>
        <time>2015-03-15T09:14:27.000Z</time>
      </trkpt>
      <trkpt lat="47.44062" lon="6.79586">
        <ele>453</ele>
        <time>2015-03-15T09:14:28.000Z</time>
      </trkpt>
      <trkpt lat="47.44059" lon="6.79585">
        <ele>454</ele>
        <time>2015-03-15T09:14:30.000Z</time>
      </trkpt>
      <trkpt lat="47.44057" lon="6.79584">
        <ele>454</ele>
        <time>2015-03-15T09:14:31.000Z</time>
      </trkpt>
      <trkpt lat="47.44055" lon="6.79582">
        <ele>454</ele>
        <time>2015-03-15T09:14:33.000Z</time>
      </trkpt>
      <trkpt lat="47.44053" lon="6.79581">
        <ele>454</ele>
        <time>2015-03-15T09:14:34.000Z</time>
      </trkpt>
      <trkpt lat="47.44049" lon="6.7958">
        <ele>454</ele>
        <time>2015-03-15T09:14:36.000Z</time>
      </trkpt>
      <trkpt lat="47.44047" lon="6.7958">
        <ele>454</ele>
        <time>2015-03-15T09:14:37.000Z</time>
      </trkpt>
      <trkpt lat="47.44044" lon="6.7958">
        <ele>454</ele>
        <time>2015-03-15T09:14:39.000Z</time>
      </trkpt>
      <trkpt lat="47.44042" lon="6.79579">
        <ele>454</ele>
        <time>2015-03-15T09:14:40.000Z</time>
      </trkpt>
      <trkpt lat="47.44039" lon="6.79578">
        <ele>454</ele>
        <time>2015-03-15T09:14:42.000Z</time>
      </trkpt>
      <trkpt lat="47.44037" lon="6.79578">
        <ele>454</ele>
        <time>2015-03-15T09:14:43.000Z</time>
      </trkpt>
      <trkpt lat="47.44034" lon="6.79577">
        <ele>455</ele>
        <time>2015-03-15T09:14:45.000Z</time>
      </trkpt>
      <trkpt lat="47.44031" lon="6.79576">
        <ele>455</ele>
        <time>2015-03-15T09:14:46.000Z</time>
      </trkpt>
      <trkpt lat="47.44029" lon="6.79575">
        <ele>455</ele>
        <time>2015-03-15T09:14:47.000Z</time>
      </trkpt>
      <trkpt lat="47.44027" lon="6.79575">
        <ele>455</ele>
        <time>2015-03-15T09:14:48.000Z</time>
      </trkpt>
      <trkpt lat="47.44023" lon="6.79574">
        <ele>455</ele>
        <time>2015-03-15T09:14:50.000Z</time>
      </trkpt>
      <trkpt lat="47.44021" lon="6.79573">
        <ele>455</ele>
        <time>2015-03-15T09:14:51.000Z</time>
      </trkpt>
      <trkpt lat="47.44017" lon="6.79571">
        <ele>455</ele>
        <time>2015-03-15T09:14:53.000Z</time>
      </trkpt>
      <trkpt lat="47.44015" lon="6.79571">
        <ele>455</ele>
        <time>2015-03-15T09:14:54.000Z</time>
      </trkpt>
      <trkpt lat="47.44011" lon="6.79571">
        <ele>455</ele>
        <time>2015-03-15T09:14:56.000Z</time>
      </trkpt>
      <trkpt lat="47.44009" lon="6.79571">
        <ele>455</ele>
        <time>2015-03-15T09:14:57.000Z</time>
      </trkpt>
      <trkpt lat="47.44005" lon="6.79572">
        <ele>455</ele>
        <time>2015-03-15T09:14:59.000Z</time>
      </trkpt>
      <trkpt lat="47.44003" lon="6.79573">
        <ele>456</ele>
        <time>2015-03-15T09:15:00.000Z</time>
      </trkpt>
      <trkpt lat="47.43999" lon="6.79574">
        <ele>457</ele>
        <time>2015-03-15T09:15:02.000Z</time>
      </trkpt>
      <trkpt lat="47.43997" lon="6.79575">
        <ele>457</ele>
        <time>2015-03-15T09:15:03.000Z</time>
      </trkpt>
      <trkpt lat="47.43993" lon="6.79576">
        <ele>457</ele>
        <time>2015-03-15T09:15:05.000Z</time>
      </trkpt>
      <trkpt lat="47.43991" lon="6.79576">
        <ele>457</ele>
        <time>2015-03-15T09:15:06.000Z</time>
      </trkpt>
      <trkpt lat="47.43989" lon="6.79577">
        <ele>458</ele>
        <time>2015-03-15T09:15:07.000Z</time>
      </trkpt>
      <trkpt lat="47.43986" lon="6.79577">
        <ele>458</ele>
        <time>2015-03-15T09:15:08.000Z</time>
      </trkpt>
      <trkpt lat="47.43982" lon="6.79578">
        <ele>458</ele>
        <time>2015-03-15T09:15:10.000Z</time>
      </trkpt>
      <trkpt lat="47.4398" lon="6.79579">
        <ele>458</ele>
        <time>2015-03-15T09:15:11.000Z</time>
      </trkpt>
      <trkpt lat="47.43976" lon="6.79581">
        <ele>459</ele>
        <time>2015-03-15T09:15:13.000Z</time>
      </trkpt>
      <trkpt lat="47.43974" lon="6.79582">
        <ele>459</ele>
        <time>2015-03-15T09:15:14.000Z</time>
      </trkpt>
      <trkpt lat="47.43971" lon="6.79585">
        <ele>458</ele>
        <time>2015-03-15T09:15:16.000Z</time>
      </trkpt>
      <trkpt lat="47.43969" lon="6.79586">
        <ele>458</ele>
        <time>2015-03-15T09:15:17.000Z</time>
      </trkpt>
      <trkpt lat="47.43966" lon="6.79588">
        <ele>459</ele>
        <time>2015-03-15T09:15:18.000Z</time>
      </trkpt>
      <trkpt lat="47.43964" lon="6.79589">
        <ele>459</ele>
        <time>2015-03-15T09:15:19.000Z</time>
      </trkpt>
      <trkpt lat="47.43962" lon="6.7959">
        <ele>459</ele>
        <time>2015-03-15T09:15:20.000Z</time>
      </trkpt>
      <trkpt lat="47.43959" lon="6.7959">
        <ele>459</ele>
        <time>2015-03-15T09:15:21.000Z</time>
      </trkpt>
      <trkpt lat="47.43955" lon="6.7959">
        <ele>459</ele>
        <time>2015-03-15T09:15:23.000Z</time>
      </trkpt>
      <trkpt lat="47.43953" lon="6.7959">
        <ele>459</ele>
        <time>2015-03-15T09:15:24.000Z</time>
      </trkpt>
      <trkpt lat="47.43949" lon="6.79589">
        <ele>459</ele>
        <time>2015-03-15T09:15:26.000Z</time>
      </trkpt>
      <trkpt lat="47.43947" lon="6.79589">
        <ele>460</ele>
        <time>2015-03-15T09:15:27.000Z</time>
      </trkpt>
      <trkpt lat="47.43943" lon="6.79587">
        <ele>460</ele>
        <time>2015-03-15T09:15:29.000Z</time>
      </trkpt>
      <trkpt lat="47.43941" lon="6.79586">
        <ele>460</ele>
        <time>2015-03-15T09:15:30.000Z</time>
      </trkpt>
      <trkpt lat="47.43936" lon="6.79585">
        <ele>460</ele>
        <time>2015-03-15T09:15:32.000Z</time>
      </trkpt>
      <trkpt lat="47.43934" lon="6.79584">
        <ele>460</ele>
        <time>2015-03-15T09:15:33.000Z</time>
      </trkpt>
      <trkpt lat="47.43932" lon="6.79583">
        <ele>461</ele>
        <time>2015-03-15T09:15:34.000Z</time>
      </trkpt>
      <trkpt lat="47.4393" lon="6.79583">
        <ele>461</ele>
        <time>2015-03-15T09:15:35.000Z</time>
      </trkpt>
      <trkpt lat="47.43927" lon="6.79581">
        <ele>461</ele>
        <time>2015-03-15T09:15:37.000Z</time>
      </trkpt>
      <trkpt lat="47.43925" lon="6.7958">
        <ele>461</ele>
        <time>2015-03-15T09:15:38.000Z</time>
      </trkpt>
      <trkpt lat="47.43922" lon="6.79577">
        <ele>461</ele>
        <time>2015-03-15T09:15:40.000Z</time>
      </trkpt>
      <trkpt lat="47.4392" lon="6.79576">
        <ele>461</ele>
        <time>2015-03-15T09:15:41.000Z</time>
      </trkpt>
      <trkpt lat="47.43916" lon="6.79574">
        <ele>463</ele>
        <time>2015-03-15T09:15:43.000Z</time>
      </trkpt>
      <trkpt lat="47.43914" lon="6.79573">
        <ele>463</ele>
        <time>2015-03-15T09:15:44.000Z</time>
      </trkpt>
      <trkpt lat="47.43911" lon="6.79571">
        <ele>463</ele>
        <time>2015-03-15T09:15:46.000Z</time>
      </trkpt>
      <trkpt lat="47.43909" lon="6.7957">
        <ele>464</ele>
        <time>2015-03-15T09:15:47.000Z</time>
      </trkpt>
      <trkpt lat="47.43905" lon="6.79567">
        <ele>464</ele>
        <time>2015-03-15T09:15:49.000Z</time>
      </trkpt>
      <trkpt lat="47.43904" lon="6.79567">
        <ele>464</ele>
        <time>2015-03-15T09:15:50.000Z</time>
      </trkpt>
      <trkpt lat="47.43901" lon="6.79565">
        <ele>464</ele>
        <time>2015-03-15T09:15:52.000Z</time>
      </trkpt>
      <trkpt lat="47.439" lon="6.79563">
        <ele>464</ele>
        <time>2015-03-15T09:15:53.000Z</time>
      </trkpt>
      <trkpt lat="47.43898" lon="6.79562">
        <ele>464</ele>
        <time>2015-03-15T09:15:54.000Z</time>
      </trkpt>
      <trkpt lat="47.43896" lon="6.7956">
        <ele>465</ele>
        <time>2015-03-15T09:15:55.000Z</time>
      </trkpt>
      <trkpt lat="47.43893" lon="6.79558">
        <ele>465</ele>
        <time>2015-03-15T09:15:56.000Z</time>
      </trkpt>
      <trkpt lat="47.43891" lon="6.79556">
        <ele>465</ele>
        <time>2015-03-15T09:15:57.000Z</time>
      </trkpt>
      <trkpt lat="47.43887" lon="6.79553">
        <ele>465</ele>
        <time>2015-03-15T09:15:59.000Z</time>
      </trkpt>
      <trkpt lat="47.43886" lon="6.79552">
        <ele>465</ele>
        <time>2015-03-15T09:16:00.000Z</time>
      </trkpt>
      <trkpt lat="47.43882" lon="6.79549">
        <ele>465</ele>
        <time>2015-03-15T09:16:02.000Z</time>
      </trkpt>
      <trkpt lat="47.4388" lon="6.79548">
        <ele>465</ele>
        <time>2015-03-15T09:16:03.000Z</time>
      </trkpt>
      <trkpt lat="47.43878" lon="6.79546">
        <ele>465</ele>
        <time>2015-03-15T09:16:04.000Z</time>
      </trkpt>
      <trkpt lat="47.43876" lon="6.79544">
        <ele>465</ele>
        <time>2015-03-15T09:16:05.000Z</time>
      </trkpt>
      <trkpt lat="47.43872" lon="6.79542">
        <ele>466</ele>
        <time>2015-03-15T09:16:07.000Z</time>
      </trkpt>
      <trkpt lat="47.4387" lon="6.79541">
        <ele>466</ele>
        <time>2015-03-15T09:16:08.000Z</time>
      </trkpt>
      <trkpt lat="47.43866" lon="6.7954">
        <ele>466</ele>
        <time>2015-03-15T09:16:10.000Z</time>
      </trkpt>
      <trkpt lat="47.43865" lon="6.79539">
        <ele>466</ele>
        <time>2015-03-15T09:16:11.000Z</time>
      </trkpt>
      <trkpt lat="47.43861" lon="6.7954">
        <ele>466</ele>
        <time>2015-03-15T09:16:13.000Z</time>
      </trkpt>
      <trkpt lat="47.43859" lon="6.79541">
        <ele>466</ele>
        <time>2015-03-15T09:16:14.000Z</time>
      </trkpt>
      <trkpt lat="47.43856" lon="6.79543">
        <ele>466</ele>
        <time>2015-03-15T09:16:16.000Z</time>
      </trkpt>
      <trkpt lat="47.43854" lon="6.79543">
        <ele>466</ele>
        <time>2015-03-15T09:16:17.000Z</time>
      </trkpt>
      <trkpt lat="47.4385" lon="6.79544">
        <ele>466</ele>
        <time>2015-03-15T09:16:20.000Z</time>
      </trkpt>
      <trkpt lat="47.43848" lon="6.79544">
        <ele>466</ele>
        <time>2015-03-15T09:16:21.000Z</time>
      </trkpt>
      <trkpt lat="47.43845" lon="6.79545">
        <ele>466</ele>
        <time>2015-03-15T09:16:23.000Z</time>
      </trkpt>
      <trkpt lat="47.43843" lon="6.79545">
        <ele>466</ele>
        <time>2015-03-15T09:16:24.000Z</time>
      </trkpt>
      <trkpt lat="47.43839" lon="6.79545">
        <ele>466</ele>
        <time>2015-03-15T09:16:26.000Z</time>
      </trkpt>
      <trkpt lat="47.43837" lon="6.79546">
        <ele>466</ele>
        <time>2015-03-15T09:16:27.000Z</time>
      </trkpt>
      <trkpt lat="47.43834" lon="6.79547">
        <ele>466</ele>
        <time>2015-03-15T09:16:29.000Z</time>
      </trkpt>
      <trkpt lat="47.43832" lon="6.79548">
        <ele>470</ele>
        <time>2015-03-15T09:16:30.000Z</time>
      </trkpt>
      <trkpt lat="47.43829" lon="6.79549">
        <ele>470</ele>
        <time>2015-03-15T09:16:31.000Z</time>
      </trkpt>
      <trkpt lat="47.43826" lon="6.7955">
        <ele>470</ele>
        <time>2015-03-15T09:16:32.000Z</time>
      </trkpt>
      <trkpt lat="47.43823" lon="6.79551">
        <ele>470</ele>
        <time>2015-03-15T09:16:33.000Z</time>
      </trkpt>
      <trkpt lat="47.43821" lon="6.79553">
        <ele>470</ele>
        <time>2015-03-15T09:16:34.000Z</time>
      </trkpt>
      <trkpt lat="47.43816" lon="6.79555">
        <ele>470</ele>
        <time>2015-03-15T09:16:36.000Z</time>
      </trkpt>
      <trkpt lat="47.43815" lon="6.79554">
        <ele>470</ele>
        <time>2015-03-15T09:16:37.000Z</time>
      </trkpt>
      <trkpt lat="47.43811" lon="6.79551">
        <ele>470</ele>
        <time>2015-03-15T09:16:40.000Z</time>
      </trkpt>
      <trkpt lat="47.4381" lon="6.7955">
        <ele>470</ele>
        <time>2015-03-15T09:16:41.000Z</time>
      </trkpt>
      <trkpt lat="47.43809" lon="6.79556">
        <ele>470</ele>
        <time>2015-03-15T09:18:00.000Z</time>
      </trkpt>
      <trkpt lat="47.43808" lon="6.79556">
        <ele>470</ele>
        <time>2015-03-15T09:18:01.000Z</time>
      </trkpt>
      <trkpt lat="47.43808" lon="6.7955">
        <ele>470</ele>
        <time>2015-03-15T09:18:37.000Z</time>
      </trkpt>
      <trkpt lat="47.43808" lon="6.79546">
        <ele>470</ele>
        <time>2015-03-15T09:18:38.000Z</time>
      </trkpt>
      <trkpt lat="47.43808" lon="6.7954">
        <ele>470</ele>
        <time>2015-03-15T09:18:40.001Z</time>
      </trkpt>
      <trkpt lat="47.43809" lon="6.79536">
        <ele>470</ele>
        <time>2015-03-15T09:18:41.000Z</time>
      </trkpt>
      <trkpt lat="47.43809" lon="6.79533">
        <ele>470</ele>
        <time>2015-03-15T09:18:42.002Z</time>
      </trkpt>
      <trkpt lat="47.4381" lon="6.79528">
        <ele>470</ele>
        <time>2015-03-15T09:18:43.000Z</time>
      </trkpt>
      <trkpt lat="47.43811" lon="6.79524">
        <ele>470</ele>
        <time>2015-03-15T09:18:44.000Z</time>
      </trkpt>
      <trkpt lat="47.43811" lon="6.7952">
        <ele>470</ele>
        <time>2015-03-15T09:18:45.000Z</time>
      </trkpt>
      <trkpt lat="47.43811" lon="6.79516">
        <ele>470</ele>
        <time>2015-03-15T09:18:46.000Z</time>
      </trkpt>
      <trkpt lat="47.43811" lon="6.79512">
        <ele>470</ele>
        <time>2015-03-15T09:18:47.000Z</time>
      </trkpt>
      <trkpt lat="47.43811" lon="6.79507">
        <ele>470</ele>
        <time>2015-03-15T09:18:48.000Z</time>
      </trkpt>
      <trkpt lat="47.43811" lon="6.79503">
        <ele>470</ele>
        <time>2015-03-15T09:18:49.000Z</time>
      </trkpt>
      <trkpt lat="47.43811" lon="6.79499">
        <ele>469</ele>
        <time>2015-03-15T09:18:50.000Z</time>
      </trkpt>
      <trkpt lat="47.43811" lon="6.79494">
        <ele>469</ele>
        <time>2015-03-15T09:18:51.000Z</time>
      </trkpt>
      <trkpt lat="47.43811" lon="6.7949">
        <ele>469</ele>
        <time>2015-03-15T09:18:52.000Z</time>
      </trkpt>
      <trkpt lat="47.4381" lon="6.79486">
        <ele>469</ele>
        <time>2015-03-15T09:18:53.000Z</time>
      </trkpt>
      <trkpt lat="47.43809" lon="6.79481">
        <ele>469</ele>
        <time>2015-03-15T09:18:55.000Z</time>
      </trkpt>
      <trkpt lat="47.43809" lon="6.79478">
        <ele>469</ele>
        <time>2015-03-15T09:18:56.000Z</time>
      </trkpt>
      <trkpt lat="47.43808" lon="6.79472">
        <ele>469</ele>
        <time>2015-03-15T09:18:58.000Z</time>
      </trkpt>
      <trkpt lat="47.43808" lon="6.79469">
        <ele>469</ele>
        <time>2015-03-15T09:18:59.000Z</time>
      </trkpt>
      <trkpt lat="47.43808" lon="6.79463">
        <ele>469</ele>
        <time>2015-03-15T09:19:01.000Z</time>
      </trkpt>
      <trkpt lat="47.43808" lon="6.79459">
        <ele>469</ele>
        <time>2015-03-15T09:19:02.000Z</time>
      </trkpt>
      <trkpt lat="47.43808" lon="6.79454">
        <ele>468</ele>
        <time>2015-03-15T09:19:04.000Z</time>
      </trkpt>
      <trkpt lat="47.43807" lon="6.79451">
        <ele>468</ele>
        <time>2015-03-15T09:19:05.000Z</time>
      </trkpt>
      <trkpt lat="47.43805" lon="6.79446">
        <ele>468</ele>
        <time>2015-03-15T09:19:07.000Z</time>
      </trkpt>
      <trkpt lat="47.43804" lon="6.79443">
        <ele>468</ele>
        <time>2015-03-15T09:19:08.000Z</time>
      </trkpt>
      <trkpt lat="47.43804" lon="6.79438">
        <ele>468</ele>
        <time>2015-03-15T09:19:10.000Z</time>
      </trkpt>
      <trkpt lat="47.43803" lon="6.79435">
        <ele>468</ele>
        <time>2015-03-15T09:19:11.000Z</time>
      </trkpt>
      <trkpt lat="47.43802" lon="6.79428">
        <ele>468</ele>
        <time>2015-03-15T09:19:13.000Z</time>
      </trkpt>
      <trkpt lat="47.438" lon="6.79425">
        <ele>468</ele>
        <time>2015-03-15T09:19:14.000Z</time>
      </trkpt>
      <trkpt lat="47.43798" lon="6.79423">
        <ele>468</ele>
        <time>2015-03-15T09:19:15.000Z</time>
      </trkpt>
      <trkpt lat="47.43795" lon="6.79422">
        <ele>468</ele>
        <time>2015-03-15T09:19:16.000Z</time>
      </trkpt>
      <trkpt lat="47.43792" lon="6.79422">
        <ele>468</ele>
        <time>2015-03-15T09:19:17.000Z</time>
      </trkpt>
      <trkpt lat="47.43789" lon="6.79421">
        <ele>469</ele>
        <time>2015-03-15T09:19:18.000Z</time>
      </trkpt>
      <trkpt lat="47.43785" lon="6.79422">
        <ele>469</ele>
        <time>2015-03-15T09:19:19.000Z</time>
      </trkpt>
      <trkpt lat="47.43782" lon="6.79422">
        <ele>469</ele>
        <time>2015-03-15T09:19:20.000Z</time>
      </trkpt>
      <trkpt lat="47.43779" lon="6.79421">
        <ele>469</ele>
        <time>2015-03-15T09:19:21.000Z</time>
      </trkpt>
      <trkpt lat="47.43776" lon="6.79421">
        <ele>469</ele>
        <time>2015-03-15T09:19:22.000Z</time>
      </trkpt>
      <trkpt lat="47.43772" lon="6.79421">
        <ele>469</ele>
        <time>2015-03-15T09:19:23.000Z</time>
      </trkpt>
      <trkpt lat="47.43769" lon="6.79421">
        <ele>469</ele>
        <time>2015-03-15T09:19:24.000Z</time>
      </trkpt>
      <trkpt lat="47.43765" lon="6.79421">
        <ele>469</ele>
        <time>2015-03-15T09:19:25.000Z</time>
      </trkpt>
      <trkpt lat="47.43762" lon="6.79422">
        <ele>470</ele>
        <time>2015-03-15T09:19:26.000Z</time>
      </trkpt>
      <trkpt lat="47.4376" lon="6.79422">
        <ele>470</ele>
        <time>2015-03-15T09:19:27.000Z</time>
      </trkpt>
      <trkpt lat="47.43757" lon="6.79423">
        <ele>470</ele>
        <time>2015-03-15T09:19:28.000Z</time>
      </trkpt>
      <trkpt lat="47.43755" lon="6.79424">
        <ele>470</ele>
        <time>2015-03-15T09:19:29.000Z</time>
      </trkpt>
      <trkpt lat="47.43752" lon="6.79426">
        <ele>470</ele>
        <time>2015-03-15T09:19:30.000Z</time>
      </trkpt>
      <trkpt lat="47.4375" lon="6.79427">
        <ele>471</ele>
        <time>2015-03-15T09:19:31.000Z</time>
      </trkpt>
      <trkpt lat="47.43747" lon="6.79428">
        <ele>471</ele>
        <time>2015-03-15T09:19:32.000Z</time>
      </trkpt>
      <trkpt lat="47.43745" lon="6.79428">
        <ele>471</ele>
        <time>2015-03-15T09:19:33.000Z</time>
      </trkpt>
      <trkpt lat="47.43742" lon="6.79427">
        <ele>471</ele>
        <time>2015-03-15T09:19:34.000Z</time>
      </trkpt>
      <trkpt lat="47.43739" lon="6.79425">
        <ele>471</ele>
        <time>2015-03-15T09:19:35.000Z</time>
      </trkpt>
      <trkpt lat="47.43737" lon="6.79424">
        <ele>471</ele>
        <time>2015-03-15T09:19:36.000Z</time>
      </trkpt>
      <trkpt lat="47.43734" lon="6.79423">
        <ele>471</ele>
        <time>2015-03-15T09:19:37.000Z</time>
      </trkpt>
      <trkpt lat="47.43732" lon="6.79422">
        <ele>471</ele>
        <time>2015-03-15T09:19:38.000Z</time>
      </trkpt>
      <trkpt lat="47.43729" lon="6.79421">
        <ele>471</ele>
        <time>2015-03-15T09:19:39.000Z</time>
      </trkpt>
      <trkpt lat="47.43726" lon="6.79421">
        <ele>471</ele>
        <time>2015-03-15T09:19:40.000Z</time>
      </trkpt>
      <trkpt lat="47.43724" lon="6.79421">
        <ele>471</ele>
        <time>2015-03-15T09:19:41.000Z</time>
      </trkpt>
      <trkpt lat="47.43721" lon="6.79421">
        <ele>471</ele>
        <time>2015-03-15T09:19:42.000Z</time>
      </trkpt>
      <trkpt lat="47.43719" lon="6.79422">
        <ele>471</ele>
        <time>2015-03-15T09:19:43.000Z</time>
      </trkpt>
      <trkpt lat="47.43716" lon="6.79423">
        <ele>471</ele>
        <time>2015-03-15T09:19:44.000Z</time>
      </trkpt>
      <trkpt lat="47.43714" lon="6.79425">
        <ele>471</ele>
        <time>2015-03-15T09:19:45.000Z</time>
      </trkpt>
      <trkpt lat="47.43711" lon="6.79427">
        <ele>471</ele>
        <time>2015-03-15T09:19:46.000Z</time>
      </trkpt>
      <trkpt lat="47.43708" lon="6.79429">
        <ele>471</ele>
        <time>2015-03-15T09:19:47.000Z</time>
      </trkpt>
      <trkpt lat="47.43706" lon="6.7943">
        <ele>471</ele>
        <time>2015-03-15T09:19:48.000Z</time>
      </trkpt>
      <trkpt lat="47.43703" lon="6.79432">
        <ele>471</ele>
        <time>2015-03-15T09:19:49.000Z</time>
      </trkpt>
      <trkpt lat="47.437" lon="6.79433">
        <ele>471</ele>
        <time>2015-03-15T09:19:50.000Z</time>
      </trkpt>
      <trkpt lat="47.43697" lon="6.79434">
        <ele>471</ele>
        <time>2015-03-15T09:19:51.000Z</time>
      </trkpt>
      <trkpt lat="47.43695" lon="6.79436">
        <ele>471</ele>
        <time>2015-03-15T09:19:52.000Z</time>
      </trkpt>
      <trkpt lat="47.43692" lon="6.79436">
        <ele>471</ele>
        <time>2015-03-15T09:19:53.000Z</time>
      </trkpt>
      <trkpt lat="47.43689" lon="6.79437">
        <ele>471</ele>
        <time>2015-03-15T09:19:54.000Z</time>
      </trkpt>
      <trkpt lat="47.43686" lon="6.79438">
        <ele>471</ele>
        <time>2015-03-15T09:19:55.000Z</time>
      </trkpt>
      <trkpt lat="47.43683" lon="6.79438">
        <ele>471</ele>
        <time>2015-03-15T09:19:56.000Z</time>
      </trkpt>
      <trkpt lat="47.4368" lon="6.79439">
        <ele>471</ele>
        <time>2015-03-15T09:19:57.000Z</time>
      </trkpt>
      <trkpt lat="47.43678" lon="6.7944">
        <ele>471</ele>
        <time>2015-03-15T09:19:58.000Z</time>
      </trkpt>
      <trkpt lat="47.43675" lon="6.79441">
        <ele>471</ele>
        <time>2015-03-15T09:19:59.000Z</time>
      </trkpt>
      <trkpt lat="47.43673" lon="6.79441">
        <ele>471</ele>
        <time>2015-03-15T09:20:00.000Z</time>
      </trkpt>
      <trkpt lat="47.43668" lon="6.7944">
        <ele>471</ele>
        <time>2015-03-15T09:20:02.000Z</time>
      </trkpt>
      <trkpt lat="47.43666" lon="6.79441">
        <ele>471</ele>
        <time>2015-03-15T09:20:03.000Z</time>
      </trkpt>
      <trkpt lat="47.43663" lon="6.79442">
        <ele>472</ele>
        <time>2015-03-15T09:20:04.000Z</time>
      </trkpt>
      <trkpt lat="47.43661" lon="6.79443">
        <ele>472</ele>
        <time>2015-03-15T09:20:05.000Z</time>
      </trkpt>
      <trkpt lat="47.43658" lon="6.79444">
        <ele>472</ele>
        <time>2015-03-15T09:20:06.000Z</time>
      </trkpt>
      <trkpt lat="47.43655" lon="6.79445">
        <ele>472</ele>
        <time>2015-03-15T09:20:07.000Z</time>
      </trkpt>
      <trkpt lat="47.43653" lon="6.79444">
        <ele>472</ele>
        <time>2015-03-15T09:20:08.000Z</time>
      </trkpt>
      <trkpt lat="47.4365" lon="6.79444">
        <ele>472</ele>
        <time>2015-03-15T09:20:09.000Z</time>
      </trkpt>
      <trkpt lat="47.43648" lon="6.79443">
        <ele>472</ele>
        <time>2015-03-15T09:20:10.000Z</time>
      </trkpt>
      <trkpt lat="47.43645" lon="6.79442">
        <ele>472</ele>
        <time>2015-03-15T09:20:11.000Z</time>
      </trkpt>
      <trkpt lat="47.43643" lon="6.79442">
        <ele>472</ele>
        <time>2015-03-15T09:20:12.000Z</time>
      </trkpt>
      <trkpt lat="47.4364" lon="6.79442">
        <ele>472</ele>
        <time>2015-03-15T09:20:13.000Z</time>
      </trkpt>
      <trkpt lat="47.43638" lon="6.79441">
        <ele>472</ele>
        <time>2015-03-15T09:20:14.000Z</time>
      </trkpt>
      <trkpt lat="47.43635" lon="6.7944">
        <ele>472</ele>
        <time>2015-03-15T09:20:15.000Z</time>
      </trkpt>
      <trkpt lat="47.43633" lon="6.79438">
        <ele>472</ele>
        <time>2015-03-15T09:20:16.000Z</time>
      </trkpt>
      <trkpt lat="47.4363" lon="6.79436">
        <ele>472</ele>
        <time>2015-03-15T09:20:17.000Z</time>
      </trkpt>
      <trkpt lat="47.43628" lon="6.79434">
        <ele>471</ele>
        <time>2015-03-15T09:20:18.000Z</time>
      </trkpt>
      <trkpt lat="47.43624" lon="6.79434">
        <ele>471</ele>
        <time>2015-03-15T09:20:19.000Z</time>
      </trkpt>
      <trkpt lat="47.43621" lon="6.79433">
        <ele>471</ele>
        <time>2015-03-15T09:20:20.000Z</time>
      </trkpt>
      <trkpt lat="47.43618" lon="6.79432">
        <ele>471</ele>
        <time>2015-03-15T09:20:21.000Z</time>
      </trkpt>
      <trkpt lat="47.43614" lon="6.79432">
        <ele>471</ele>
        <time>2015-03-15T09:20:22.000Z</time>
      </trkpt>
      <trkpt lat="47.43611" lon="6.79431">
        <ele>471</ele>
        <time>2015-03-15T09:20:23.000Z</time>
      </trkpt>
      <trkpt lat="47.43608" lon="6.79432">
        <ele>471</ele>
        <time>2015-03-15T09:20:24.000Z</time>
      </trkpt>
      <trkpt lat="47.43606" lon="6.79433">
        <ele>471</ele>
        <time>2015-03-15T09:20:25.000Z</time>
      </trkpt>
      <trkpt lat="47.43603" lon="6.79435">
        <ele>471</ele>
        <time>2015-03-15T09:20:26.000Z</time>
      </trkpt>
      <trkpt lat="47.436" lon="6.79436">
        <ele>471</ele>
        <time>2015-03-15T09:20:27.000Z</time>
      </trkpt>
      <trkpt lat="47.43597" lon="6.79437">
        <ele>470</ele>
        <time>2015-03-15T09:20:28.000Z</time>
      </trkpt>
      <trkpt lat="47.43594" lon="6.79437">
        <ele>470</ele>
        <time>2015-03-15T09:20:29.000Z</time>
      </trkpt>
      <trkpt lat="47.43591" lon="6.79439">
        <ele>470</ele>
        <time>2015-03-15T09:20:30.000Z</time>
      </trkpt>
      <trkpt lat="47.43588" lon="6.79441">
        <ele>471</ele>
        <time>2015-03-15T09:20:31.000Z</time>
      </trkpt>
      <trkpt lat="47.43584" lon="6.79443">
        <ele>471</ele>
        <time>2015-03-15T09:20:32.000Z</time>
      </trkpt>
      <trkpt lat="47.43579" lon="6.79445">
        <ele>468</ele>
        <time>2015-03-15T09:20:33.000Z</time>
      </trkpt>
      <trkpt lat="47.43575" lon="6.79446">
        <ele>468</ele>
        <time>2015-03-15T09:20:34.000Z</time>
      </trkpt>
      <trkpt lat="47.43571" lon="6.79448">
        <ele>468</ele>
        <time>2015-03-15T09:20:35.000Z</time>
      </trkpt>
      <trkpt lat="47.43567" lon="6.7945">
        <ele>468</ele>
        <time>2015-03-15T09:20:36.000Z</time>
      </trkpt>
      <trkpt lat="47.43564" lon="6.79452">
        <ele>468</ele>
        <time>2015-03-15T09:20:37.000Z</time>
      </trkpt>
      <trkpt lat="47.43561" lon="6.79454">
        <ele>468</ele>
        <time>2015-03-15T09:20:38.000Z</time>
      </trkpt>
      <trkpt lat="47.43559" lon="6.79455">
        <ele>468</ele>
        <time>2015-03-15T09:20:39.000Z</time>
      </trkpt>
      <trkpt lat="47.43556" lon="6.79457">
        <ele>468</ele>
        <time>2015-03-15T09:20:40.000Z</time>
      </trkpt>
      <trkpt lat="47.43553" lon="6.79458">
        <ele>468</ele>
        <time>2015-03-15T09:20:41.000Z</time>
      </trkpt>
      <trkpt lat="47.4355" lon="6.7946">
        <ele>468</ele>
        <time>2015-03-15T09:20:42.000Z</time>
      </trkpt>
      <trkpt lat="47.43547" lon="6.79461">
        <ele>468</ele>
        <time>2015-03-15T09:20:43.000Z</time>
      </trkpt>
      <trkpt lat="47.43544" lon="6.79462">
        <ele>468</ele>
        <time>2015-03-15T09:20:44.000Z</time>
      </trkpt>
      <trkpt lat="47.43541" lon="6.79463">
        <ele>468</ele>
        <time>2015-03-15T09:20:45.000Z</time>
      </trkpt>
      <trkpt lat="47.43538" lon="6.79465">
        <ele>468</ele>
        <time>2015-03-15T09:20:46.000Z</time>
      </trkpt>
      <trkpt lat="47.43534" lon="6.79467">
        <ele>468</ele>
        <time>2015-03-15T09:20:47.000Z</time>
      </trkpt>
      <trkpt lat="47.43531" lon="6.79468">
        <ele>469</ele>
        <time>2015-03-15T09:20:48.000Z</time>
      </trkpt>
      <trkpt lat="47.43528" lon="6.7947">
        <ele>469</ele>
        <time>2015-03-15T09:20:49.000Z</time>
      </trkpt>
      <trkpt lat="47.43524" lon="6.7947">
        <ele>469</ele>
        <time>2015-03-15T09:20:50.000Z</time>
      </trkpt>
      <trkpt lat="47.43521" lon="6.79471">
        <ele>469</ele>
        <time>2015-03-15T09:20:51.000Z</time>
      </trkpt>
      <trkpt lat="47.43517" lon="6.79472">
        <ele>469</ele>
        <time>2015-03-15T09:20:52.000Z</time>
      </trkpt>
      <trkpt lat="47.43512" lon="6.79473">
        <ele>470</ele>
        <time>2015-03-15T09:20:53.000Z</time>
      </trkpt>
      <trkpt lat="47.43508" lon="6.79474">
        <ele>470</ele>
        <time>2015-03-15T09:20:54.000Z</time>
      </trkpt>
      <trkpt lat="47.43505" lon="6.79475">
        <ele>470</ele>
        <time>2015-03-15T09:20:55.000Z</time>
      </trkpt>
      <trkpt lat="47.43501" lon="6.79476">
        <ele>471</ele>
        <time>2015-03-15T09:20:56.000Z</time>
      </trkpt>
      <trkpt lat="47.43497" lon="6.79478">
        <ele>463</ele>
        <time>2015-03-15T09:20:57.000Z</time>
      </trkpt>
      <trkpt lat="47.43494" lon="6.79479">
        <ele>463</ele>
        <time>2015-03-15T09:20:58.000Z</time>
      </trkpt>
      <trkpt lat="47.4349" lon="6.79481">
        <ele>463</ele>
        <time>2015-03-15T09:20:59.000Z</time>
      </trkpt>
      <trkpt lat="47.43487" lon="6.79482">
        <ele>463</ele>
        <time>2015-03-15T09:21:00.000Z</time>
      </trkpt>
      <trkpt lat="47.43483" lon="6.79484">
        <ele>463</ele>
        <time>2015-03-15T09:21:01.000Z</time>
      </trkpt>
      <trkpt lat="47.43479" lon="6.79487">
        <ele>462</ele>
        <time>2015-03-15T09:21:02.000Z</time>
      </trkpt>
      <trkpt lat="47.43474" lon="6.7949">
        <ele>462</ele>
        <time>2015-03-15T09:21:03.000Z</time>
      </trkpt>
      <trkpt lat="47.4347" lon="6.79494">
        <ele>461</ele>
        <time>2015-03-15T09:21:04.000Z</time>
      </trkpt>
      <trkpt lat="47.43466" lon="6.79499">
        <ele>460</ele>
        <time>2015-03-15T09:21:05.000Z</time>
      </trkpt>
      <trkpt lat="47.43462" lon="6.79503">
        <ele>477</ele>
        <time>2015-03-15T09:21:06.000Z</time>
      </trkpt>
      <trkpt lat="47.43457" lon="6.79507">
        <ele>477</ele>
        <time>2015-03-15T09:21:07.000Z</time>
      </trkpt>
      <trkpt lat="47.43453" lon="6.79511">
        <ele>476</ele>
        <time>2015-03-15T09:21:08.000Z</time>
      </trkpt>
      <trkpt lat="47.43448" lon="6.79514">
        <ele>476</ele>
        <time>2015-03-15T09:21:09.000Z</time>
      </trkpt>
      <trkpt lat="47.43444" lon="6.79517">
        <ele>476</ele>
        <time>2015-03-15T09:21:10.000Z</time>
      </trkpt>
      <trkpt lat="47.43441" lon="6.79519">
        <ele>475</ele>
        <time>2015-03-15T09:21:11.000Z</time>
      </trkpt>
      <trkpt lat="47.43438" lon="6.7952">
        <ele>475</ele>
        <time>2015-03-15T09:21:12.000Z</time>
      </trkpt>
      <trkpt lat="47.43434" lon="6.79519">
        <ele>474</ele>
        <time>2015-03-15T09:21:13.000Z</time>
      </trkpt>
      <trkpt lat="47.43431" lon="6.79518">
        <ele>474</ele>
        <time>2015-03-15T09:21:14.000Z</time>
      </trkpt>
      <trkpt lat="47.43427" lon="6.79517">
        <ele>473</ele>
        <time>2015-03-15T09:21:15.000Z</time>
      </trkpt>
      <trkpt lat="47.43423" lon="6.79516">
        <ele>472</ele>
        <time>2015-03-15T09:21:16.000Z</time>
      </trkpt>
      <trkpt lat="47.43419" lon="6.79516">
        <ele>472</ele>
        <time>2015-03-15T09:21:17.000Z</time>
      </trkpt>
      <trkpt lat="47.43415" lon="6.79515">
        <ele>468</ele>
        <time>2015-03-15T09:21:18.000Z</time>
      </trkpt>
      <trkpt lat="47.43411" lon="6.79514">
        <ele>468</ele>
        <time>2015-03-15T09:21:19.000Z</time>
      </trkpt>
      <trkpt lat="47.43406" lon="6.79515">
        <ele>468</ele>
        <time>2015-03-15T09:21:20.000Z</time>
      </trkpt>
      <trkpt lat="47.43402" lon="6.79517">
        <ele>469</ele>
        <time>2015-03-15T09:21:21.000Z</time>
      </trkpt>
      <trkpt lat="47.43397" lon="6.7952">
        <ele>469</ele>
        <time>2015-03-15T09:21:22.000Z</time>
      </trkpt>
      <trkpt lat="47.43394" lon="6.79524">
        <ele>469</ele>
        <time>2015-03-15T09:21:23.000Z</time>
      </trkpt>
      <trkpt lat="47.4339" lon="6.79527">
        <ele>470</ele>
        <time>2015-03-15T09:21:24.000Z</time>
      </trkpt>
      <trkpt lat="47.43387" lon="6.79529">
        <ele>470</ele>
        <time>2015-03-15T09:21:25.000Z</time>
      </trkpt>
      <trkpt lat="47.43384" lon="6.79531">
        <ele>470</ele>
        <time>2015-03-15T09:21:26.000Z</time>
      </trkpt>
      <trkpt lat="47.43382" lon="6.79533">
        <ele>470</ele>
        <time>2015-03-15T09:21:27.000Z</time>
      </trkpt>
      <trkpt lat="47.43379" lon="6.79534">
        <ele>470</ele>
        <time>2015-03-15T09:21:28.000Z</time>
      </trkpt>
      <trkpt lat="47.43375" lon="6.79534">
        <ele>470</ele>
        <time>2015-03-15T09:21:30.000Z</time>
      </trkpt>
      <trkpt lat="47.43372" lon="6.79534">
        <ele>470</ele>
        <time>2015-03-15T09:21:31.000Z</time>
      </trkpt>
      <trkpt lat="47.43369" lon="6.79533">
        <ele>470</ele>
        <time>2015-03-15T09:21:32.000Z</time>
      </trkpt>
      <trkpt lat="47.43366" lon="6.79534">
        <ele>470</ele>
        <time>2015-03-15T09:21:33.000Z</time>
      </trkpt>
      <trkpt lat="47.43363" lon="6.79534">
        <ele>469</ele>
        <time>2015-03-15T09:21:34.000Z</time>
      </trkpt>
      <trkpt lat="47.43361" lon="6.79534">
        <ele>469</ele>
        <time>2015-03-15T09:21:35.000Z</time>
      </trkpt>
      <trkpt lat="47.43358" lon="6.79535">
        <ele>469</ele>
        <time>2015-03-15T09:21:36.000Z</time>
      </trkpt>
      <trkpt lat="47.43356" lon="6.79535">
        <ele>469</ele>
        <time>2015-03-15T09:21:37.000Z</time>
      </trkpt>
      <trkpt lat="47.43353" lon="6.79536">
        <ele>469</ele>
        <time>2015-03-15T09:21:38.000Z</time>
      </trkpt>
      <trkpt lat="47.4335" lon="6.79537">
        <ele>469</ele>
        <time>2015-03-15T09:21:39.000Z</time>
      </trkpt>
      <trkpt lat="47.43346" lon="6.79539">
        <ele>470</ele>
        <time>2015-03-15T09:21:40.000Z</time>
      </trkpt>
      <trkpt lat="47.43343" lon="6.79541">
        <ele>470</ele>
        <time>2015-03-15T09:21:41.000Z</time>
      </trkpt>
      <trkpt lat="47.4334" lon="6.79544">
        <ele>471</ele>
        <time>2015-03-15T09:21:42.000Z</time>
      </trkpt>
      <trkpt lat="47.43338" lon="6.79545">
        <ele>471</ele>
        <time>2015-03-15T09:21:43.000Z</time>
      </trkpt>
      <trkpt lat="47.43335" lon="6.79546">
        <ele>472</ele>
        <time>2015-03-15T09:21:44.000Z</time>
      </trkpt>
      <trkpt lat="47.43333" lon="6.79546">
        <ele>469</ele>
        <time>2015-03-15T09:21:45.000Z</time>
      </trkpt>
      <trkpt lat="47.43328" lon="6.79546">
        <ele>469</ele>
        <time>2015-03-15T09:21:47.000Z</time>
      </trkpt>
      <trkpt lat="47.43326" lon="6.79547">
        <ele>469</ele>
        <time>2015-03-15T09:21:48.000Z</time>
      </trkpt>
      <trkpt lat="47.43324" lon="6.79549">
        <ele>469</ele>
        <time>2015-03-15T09:21:49.000Z</time>
      </trkpt>
      <trkpt lat="47.43322" lon="6.79551">
        <ele>470</ele>
        <time>2015-03-15T09:21:50.000Z</time>
      </trkpt>
      <trkpt lat="47.4332" lon="6.79552">
        <ele>470</ele>
        <time>2015-03-15T09:21:51.000Z</time>
      </trkpt>
      <trkpt lat="47.43318" lon="6.79554">
        <ele>471</ele>
        <time>2015-03-15T09:21:52.000Z</time>
      </trkpt>
      <trkpt lat="47.43316" lon="6.79556">
        <ele>471</ele>
        <time>2015-03-15T09:21:53.000Z</time>
      </trkpt>
      <trkpt lat="47.43313" lon="6.79557">
        <ele>471</ele>
        <time>2015-03-15T09:21:54.000Z</time>
      </trkpt>
      <trkpt lat="47.43311" lon="6.79559">
        <ele>472</ele>
        <time>2015-03-15T09:21:55.000Z</time>
      </trkpt>
      <trkpt lat="47.43308" lon="6.7956">
        <ele>472</ele>
        <time>2015-03-15T09:21:56.000Z</time>
      </trkpt>
      <trkpt lat="47.43305" lon="6.79561">
        <ele>472</ele>
        <time>2015-03-15T09:21:57.000Z</time>
      </trkpt>
      <trkpt lat="47.43302" lon="6.79561">
        <ele>472</ele>
        <time>2015-03-15T09:21:58.000Z</time>
      </trkpt>
      <trkpt lat="47.43299" lon="6.79562">
        <ele>471</ele>
        <time>2015-03-15T09:21:59.000Z</time>
      </trkpt>
      <trkpt lat="47.43296" lon="6.79562">
        <ele>471</ele>
        <time>2015-03-15T09:22:00.000Z</time>
      </trkpt>
      <trkpt lat="47.43293" lon="6.79562">
        <ele>471</ele>
        <time>2015-03-15T09:22:01.000Z</time>
      </trkpt>
      <trkpt lat="47.4329" lon="6.79563">
        <ele>471</ele>
        <time>2015-03-15T09:22:02.000Z</time>
      </trkpt>
      <trkpt lat="47.43287" lon="6.79563">
        <ele>472</ele>
        <time>2015-03-15T09:22:03.000Z</time>
      </trkpt>
      <trkpt lat="47.43283" lon="6.79564">
        <ele>472</ele>
        <time>2015-03-15T09:22:04.000Z</time>
      </trkpt>
      <trkpt lat="47.43278" lon="6.79564">
        <ele>472</ele>
        <time>2015-03-15T09:22:05.000Z</time>
      </trkpt>
      <trkpt lat="47.43274" lon="6.79564">
        <ele>473</ele>
        <time>2015-03-15T09:22:06.000Z</time>
      </trkpt>
      <trkpt lat="47.4327" lon="6.79563">
        <ele>473</ele>
        <time>2015-03-15T09:22:07.000Z</time>
      </trkpt>
      <trkpt lat="47.43266" lon="6.79563">
        <ele>473</ele>
        <time>2015-03-15T09:22:08.000Z</time>
      </trkpt>
      <trkpt lat="47.43262" lon="6.79562">
        <ele>474</ele>
        <time>2015-03-15T09:22:09.000Z</time>
      </trkpt>
      <trkpt lat="47.43257" lon="6.79563">
        <ele>474</ele>
        <time>2015-03-15T09:22:10.000Z</time>
      </trkpt>
      <trkpt lat="47.43253" lon="6.79563">
        <ele>475</ele>
        <time>2015-03-15T09:22:11.000Z</time>
      </trkpt>
      <trkpt lat="47.43248" lon="6.79565">
        <ele>475</ele>
        <time>2015-03-15T09:22:12.000Z</time>
      </trkpt>
      <trkpt lat="47.43244" lon="6.79566">
        <ele>475</ele>
        <time>2015-03-15T09:22:13.000Z</time>
      </trkpt>
      <trkpt lat="47.43241" lon="6.79566">
        <ele>475</ele>
        <time>2015-03-15T09:22:14.000Z</time>
      </trkpt>
      <trkpt lat="47.43238" lon="6.79566">
        <ele>474</ele>
        <time>2015-03-15T09:22:15.000Z</time>
      </trkpt>
      <trkpt lat="47.43236" lon="6.79565">
        <ele>473</ele>
        <time>2015-03-15T09:22:16.000Z</time>
      </trkpt>
      <trkpt lat="47.43233" lon="6.79563">
        <ele>472</ele>
        <time>2015-03-15T09:22:17.000Z</time>
      </trkpt>
      <trkpt lat="47.4323" lon="6.79562">
        <ele>471</ele>
        <time>2015-03-15T09:22:18.000Z</time>
      </trkpt>
      <trkpt lat="47.43227" lon="6.7956">
        <ele>471</ele>
        <time>2015-03-15T09:22:19.000Z</time>
      </trkpt>
      <trkpt lat="47.43223" lon="6.7956">
        <ele>470</ele>
        <time>2015-03-15T09:22:20.000Z</time>
      </trkpt>
      <trkpt lat="47.43219" lon="6.79559">
        <ele>470</ele>
        <time>2015-03-15T09:22:21.000Z</time>
      </trkpt>
      <trkpt lat="47.43216" lon="6.7956">
        <ele>470</ele>
        <time>2015-03-15T09:22:22.000Z</time>
      </trkpt>
      <trkpt lat="47.43213" lon="6.79562">
        <ele>470</ele>
        <time>2015-03-15T09:22:23.000Z</time>
      </trkpt>
      <trkpt lat="47.4321" lon="6.79565">
        <ele>470</ele>
        <time>2015-03-15T09:22:24.000Z</time>
      </trkpt>
      <trkpt lat="47.43207" lon="6.79568">
        <ele>471</ele>
        <time>2015-03-15T09:22:25.000Z</time>
      </trkpt>
      <trkpt lat="47.43204" lon="6.7957">
        <ele>471</ele>
        <time>2015-03-15T09:22:26.000Z</time>
      </trkpt>
      <trkpt lat="47.43201" lon="6.79571">
        <ele>472</ele>
        <time>2015-03-15T09:22:27.000Z</time>
      </trkpt>
      <trkpt lat="47.43197" lon="6.79571">
        <ele>472</ele>
        <time>2015-03-15T09:22:28.000Z</time>
      </trkpt>
      <trkpt lat="47.43194" lon="6.79571">
        <ele>472</ele>
        <time>2015-03-15T09:22:29.000Z</time>
      </trkpt>
      <trkpt lat="47.4319" lon="6.79571">
        <ele>473</ele>
        <time>2015-03-15T09:22:30.000Z</time>
      </trkpt>
      <trkpt lat="47.43187" lon="6.79573">
        <ele>474</ele>
        <time>2015-03-15T09:22:31.000Z</time>
      </trkpt>
      <trkpt lat="47.43184" lon="6.79576">
        <ele>475</ele>
        <time>2015-03-15T09:22:32.000Z</time>
      </trkpt>
      <trkpt lat="47.43181" lon="6.7958">
        <ele>477</ele>
        <time>2015-03-15T09:22:33.000Z</time>
      </trkpt>
      <trkpt lat="47.43178" lon="6.79583">
        <ele>478</ele>
        <time>2015-03-15T09:22:34.000Z</time>
      </trkpt>
      <trkpt lat="47.43176" lon="6.79586">
        <ele>486</ele>
        <time>2015-03-15T09:22:35.000Z</time>
      </trkpt>
      <trkpt lat="47.43174" lon="6.7959">
        <ele>486</ele>
        <time>2015-03-15T09:22:36.000Z</time>
      </trkpt>
      <trkpt lat="47.43173" lon="6.79594">
        <ele>486</ele>
        <time>2015-03-15T09:22:37.000Z</time>
      </trkpt>
      <trkpt lat="47.43171" lon="6.79598">
        <ele>487</ele>
        <time>2015-03-15T09:22:38.000Z</time>
      </trkpt>
      <trkpt lat="47.43167" lon="6.79602">
        <ele>487</ele>
        <time>2015-03-15T09:22:40.000Z</time>
      </trkpt>
      <trkpt lat="47.43166" lon="6.79603">
        <ele>487</ele>
        <time>2015-03-15T09:22:41.000Z</time>
      </trkpt>
      <trkpt lat="47.43162" lon="6.79603">
        <ele>487</ele>
        <time>2015-03-15T09:22:43.000Z</time>
      </trkpt>
      <trkpt lat="47.4316" lon="6.79604">
        <ele>487</ele>
        <time>2015-03-15T09:22:44.000Z</time>
      </trkpt>
      <trkpt lat="47.43157" lon="6.79607">
        <ele>488</ele>
        <time>2015-03-15T09:22:47.000Z</time>
      </trkpt>
      <trkpt lat="47.43156" lon="6.79608">
        <ele>488</ele>
        <time>2015-03-15T09:22:48.000Z</time>
      </trkpt>
      <trkpt lat="47.43152" lon="6.7961">
        <ele>488</ele>
        <time>2015-03-15T09:22:50.000Z</time>
      </trkpt>
      <trkpt lat="47.4315" lon="6.7961">
        <ele>488</ele>
        <time>2015-03-15T09:22:51.000Z</time>
      </trkpt>
      <trkpt lat="47.43147" lon="6.7961">
        <ele>488</ele>
        <time>2015-03-15T09:22:53.000Z</time>
      </trkpt>
      <trkpt lat="47.43145" lon="6.79609">
        <ele>488</ele>
        <time>2015-03-15T09:22:54.000Z</time>
      </trkpt>
      <trkpt lat="47.43141" lon="6.79607">
        <ele>488</ele>
        <time>2015-03-15T09:22:56.000Z</time>
      </trkpt>
      <trkpt lat="47.43139" lon="6.79605">
        <ele>488</ele>
        <time>2015-03-15T09:22:57.000Z</time>
      </trkpt>
      <trkpt lat="47.43137" lon="6.79602">
        <ele>488</ele>
        <time>2015-03-15T09:22:58.000Z</time>
      </trkpt>
      <trkpt lat="47.43135" lon="6.796">
        <ele>488</ele>
        <time>2015-03-15T09:22:59.000Z</time>
      </trkpt>
      <trkpt lat="47.43132" lon="6.79596">
        <ele>488</ele>
        <time>2015-03-15T09:23:02.000Z</time>
      </trkpt>
      <trkpt lat="47.43132" lon="6.79593">
        <ele>487</ele>
        <time>2015-03-15T09:23:03.000Z</time>
      </trkpt>
      <trkpt lat="47.43132" lon="6.79589">
        <ele>487</ele>
        <time>2015-03-15T09:23:05.000Z</time>
      </trkpt>
      <trkpt lat="47.43132" lon="6.79586">
        <ele>487</ele>
        <time>2015-03-15T09:23:06.000Z</time>
      </trkpt>
      <trkpt lat="47.4313" lon="6.7958">
        <ele>473</ele>
        <time>2015-03-15T09:23:08.000Z</time>
      </trkpt>
      <trkpt lat="47.43128" lon="6.79579">
        <ele>472</ele>
        <time>2015-03-15T09:23:09.000Z</time>
      </trkpt>
      <trkpt lat="47.43124" lon="6.7958">
        <ele>472</ele>
        <time>2015-03-15T09:23:10.000Z</time>
      </trkpt>
      <trkpt lat="47.43121" lon="6.79581">
        <ele>473</ele>
        <time>2015-03-15T09:23:11.000Z</time>
      </trkpt>
      <trkpt lat="47.43118" lon="6.79584">
        <ele>487</ele>
        <time>2015-03-15T09:23:12.000Z</time>
      </trkpt>
      <trkpt lat="47.43115" lon="6.79586">
        <ele>487</ele>
        <time>2015-03-15T09:23:13.000Z</time>
      </trkpt>
      <trkpt lat="47.43111" lon="6.79587">
        <ele>487</ele>
        <time>2015-03-15T09:23:14.000Z</time>
      </trkpt>
      <trkpt lat="47.43108" lon="6.79587">
        <ele>487</ele>
        <time>2015-03-15T09:23:15.000Z</time>
      </trkpt>
      <trkpt lat="47.43105" lon="6.79587">
        <ele>487</ele>
        <time>2015-03-15T09:23:16.000Z</time>
      </trkpt>
      <trkpt lat="47.43103" lon="6.79587">
        <ele>487</ele>
        <time>2015-03-15T09:23:17.000Z</time>
      </trkpt>
      <trkpt lat="47.43098" lon="6.79585">
        <ele>487</ele>
        <time>2015-03-15T09:23:19.000Z</time>
      </trkpt>
      <trkpt lat="47.43097" lon="6.79585">
        <ele>486</ele>
        <time>2015-03-15T09:23:20.000Z</time>
      </trkpt>
      <trkpt lat="47.43094" lon="6.79583">
        <ele>486</ele>
        <time>2015-03-15T09:23:23.000Z</time>
      </trkpt>
      <trkpt lat="47.43092" lon="6.79583">
        <ele>479</ele>
        <time>2015-03-15T09:23:24.000Z</time>
      </trkpt>
      <trkpt lat="47.43089" lon="6.79582">
        <ele>481</ele>
        <time>2015-03-15T09:23:26.000Z</time>
      </trkpt>
      <trkpt lat="47.43087" lon="6.79581">
        <ele>482</ele>
        <time>2015-03-15T09:23:27.000Z</time>
      </trkpt>
      <trkpt lat="47.43083" lon="6.79582">
        <ele>484</ele>
        <time>2015-03-15T09:24:00.000Z</time>
      </trkpt>
      <trkpt lat="47.43083" lon="6.79582">
        <ele>484</ele>
        <time>2015-03-15T09:24:01.000Z</time>
      </trkpt>
      <trkpt lat="47.43085" lon="6.79588">
        <ele>486</ele>
        <time>2015-03-15T09:24:39.000Z</time>
      </trkpt>
      <trkpt lat="47.43086" lon="6.7959">
        <ele>486</ele>
        <time>2015-03-15T09:24:40.000Z</time>
      </trkpt>
      <trkpt lat="47.43088" lon="6.79585">
        <ele>486</ele>
        <time>2015-03-15T09:24:48.000Z</time>
      </trkpt>
      <trkpt lat="47.43089" lon="6.79585">
        <ele>486</ele>
        <time>2015-03-15T09:24:49.000Z</time>
      </trkpt>
      <trkpt lat="47.43084" lon="6.79584">
        <ele>485</ele>
        <time>2015-03-15T09:25:13.000Z</time>
      </trkpt>
      <trkpt lat="47.43084" lon="6.79584">
        <ele>485</ele>
        <time>2015-03-15T09:25:14.000Z</time>
      </trkpt>
      <trkpt lat="47.43079" lon="6.79585">
        <ele>486</ele>
        <time>2015-03-15T09:25:20.000Z</time>
      </trkpt>
      <trkpt lat="47.43079" lon="6.79586">
        <ele>486</ele>
        <time>2015-03-15T09:25:21.000Z</time>
      </trkpt>
      <trkpt lat="47.43081" lon="6.7958">
        <ele>482</ele>
        <time>2015-03-15T09:26:35.000Z</time>
      </trkpt>
      <trkpt lat="47.43081" lon="6.79579">
        <ele>482</ele>
        <time>2015-03-15T09:26:36.000Z</time>
      </trkpt>
      <trkpt lat="47.43082" lon="6.79573">
        <ele>479</ele>
        <time>2015-03-15T09:26:59.000Z</time>
      </trkpt>
      <trkpt lat="47.43082" lon="6.79572">
        <ele>479</ele>
        <time>2015-03-15T09:27:00.000Z</time>
      </trkpt>
      <trkpt lat="47.43079" lon="6.79577">
        <ele>480</ele>
        <time>2015-03-15T09:29:00.000Z</time>
      </trkpt>
      <trkpt lat="47.43079" lon="6.79579">
        <ele>481</ele>
        <time>2015-03-15T09:29:01.000Z</time>
      </trkpt>
      <trkpt lat="47.43079" lon="6.79583">
        <ele>483</ele>
        <time>2015-03-15T09:29:03.000Z</time>
      </trkpt>
      <trkpt lat="47.4308" lon="6.79586">
        <ele>486</ele>
        <time>2015-03-15T09:29:04.000Z</time>
      </trkpt>
      <trkpt lat="47.4308" lon="6.7959">
        <ele>486</ele>
        <time>2015-03-15T09:29:06.000Z</time>
      </trkpt>
      <trkpt lat="47.4308" lon="6.79593">
        <ele>486</ele>
        <time>2015-03-15T09:29:07.001Z</time>
      </trkpt>
      <trkpt lat="47.43081" lon="6.79598">
        <ele>487</ele>
        <time>2015-03-15T09:29:23.000Z</time>
      </trkpt>
      <trkpt lat="47.43082" lon="6.79599">
        <ele>487</ele>
        <time>2015-03-15T09:29:24.000Z</time>
      </trkpt>
      <trkpt lat="47.43085" lon="6.79602">
        <ele>487</ele>
        <time>2015-03-15T09:29:27.000Z</time>
      </trkpt>
      <trkpt lat="47.43086" lon="6.79603">
        <ele>487</ele>
        <time>2015-03-15T09:29:28.000Z</time>
      </trkpt>
      <trkpt lat="47.43089" lon="6.79606">
        <ele>487</ele>
        <time>2015-03-15T09:29:30.000Z</time>
      </trkpt>
      <trkpt lat="47.4309" lon="6.79607">
        <ele>487</ele>
        <time>2015-03-15T09:29:30.999Z</time>
      </trkpt>
      <trkpt lat="47.43086" lon="6.79607">
        <ele>487</ele>
        <time>2015-03-15T09:29:33.000Z</time>
      </trkpt>
      <trkpt lat="47.43084" lon="6.79606">
        <ele>487</ele>
        <time>2015-03-15T09:29:34.000Z</time>
      </trkpt>
      <trkpt lat="47.43081" lon="6.79606">
        <ele>488</ele>
        <time>2015-03-15T09:29:36.998Z</time>
      </trkpt>
      <trkpt lat="47.43076" lon="6.79607">
        <ele>488</ele>
        <time>2015-03-15T09:29:38.000Z</time>
      </trkpt>
      <trkpt lat="47.43072" lon="6.79608">
        <ele>488</ele>
        <time>2015-03-15T09:29:40.000Z</time>
      </trkpt>
      <trkpt lat="47.43069" lon="6.79609">
        <ele>488</ele>
        <time>2015-03-15T09:29:41.000Z</time>
      </trkpt>
      <trkpt lat="47.43065" lon="6.79611">
        <ele>488</ele>
        <time>2015-03-15T09:29:42.000Z</time>
      </trkpt>
      <trkpt lat="47.43061" lon="6.79615">
        <ele>489</ele>
        <time>2015-03-15T09:29:43.000Z</time>
      </trkpt>
      <trkpt lat="47.43057" lon="6.7962">
        <ele>489</ele>
        <time>2015-03-15T09:29:44.000Z</time>
      </trkpt>
      <trkpt lat="47.43053" lon="6.79624">
        <ele>489</ele>
        <time>2015-03-15T09:29:45.000Z</time>
      </trkpt>
      <trkpt lat="47.43049" lon="6.79628">
        <ele>489</ele>
        <time>2015-03-15T09:29:46.000Z</time>
      </trkpt>
      <trkpt lat="47.43045" lon="6.79629">
        <ele>489</ele>
        <time>2015-03-15T09:29:47.000Z</time>
      </trkpt>
      <trkpt lat="47.43041" lon="6.7963">
        <ele>489</ele>
        <time>2015-03-15T09:29:48.000Z</time>
      </trkpt>
      <trkpt lat="47.43038" lon="6.79629">
        <ele>489</ele>
        <time>2015-03-15T09:29:49.000Z</time>
      </trkpt>
      <trkpt lat="47.43035" lon="6.79629">
        <ele>489</ele>
        <time>2015-03-15T09:29:50.000Z</time>
      </trkpt>
      <trkpt lat="47.43031" lon="6.79628">
        <ele>489</ele>
        <time>2015-03-15T09:29:52.000Z</time>
      </trkpt>
      <trkpt lat="47.43029" lon="6.79627">
        <ele>489</ele>
        <time>2015-03-15T09:29:53.000Z</time>
      </trkpt>
      <trkpt lat="47.43027" lon="6.79627">
        <ele>489</ele>
        <time>2015-03-15T09:29:54.000Z</time>
      </trkpt>
      <trkpt lat="47.43024" lon="6.79627">
        <ele>489</ele>
        <time>2015-03-15T09:29:54.999Z</time>
      </trkpt>
      <trkpt lat="47.43021" lon="6.79628">
        <ele>490</ele>
        <time>2015-03-15T09:29:56.000Z</time>
      </trkpt>
      <trkpt lat="47.4302" lon="6.79628">
        <ele>490</ele>
        <time>2015-03-15T09:29:57.000Z</time>
      </trkpt>
      <trkpt lat="47.43016" lon="6.79626">
        <ele>490</ele>
        <time>2015-03-15T09:30:00.000Z</time>
      </trkpt>
      <trkpt lat="47.43014" lon="6.79626">
        <ele>490</ele>
        <time>2015-03-15T09:30:01.000Z</time>
      </trkpt>
      <trkpt lat="47.4301" lon="6.79626">
        <ele>490</ele>
        <time>2015-03-15T09:30:03.000Z</time>
      </trkpt>
      <trkpt lat="47.43007" lon="6.79627">
        <ele>490</ele>
        <time>2015-03-15T09:30:04.000Z</time>
      </trkpt>
      <trkpt lat="47.43004" lon="6.79629">
        <ele>490</ele>
        <time>2015-03-15T09:30:05.000Z</time>
      </trkpt>
      <trkpt lat="47.43001" lon="6.7963">
        <ele>490</ele>
        <time>2015-03-15T09:30:06.000Z</time>
      </trkpt>
      <trkpt lat="47.42997" lon="6.79633">
        <ele>490</ele>
        <time>2015-03-15T09:30:06.999Z</time>
      </trkpt>
      <trkpt lat="47.42994" lon="6.79634">
        <ele>490</ele>
        <time>2015-03-15T09:30:08.000Z</time>
      </trkpt>
      <trkpt lat="47.42991" lon="6.79637">
        <ele>491</ele>
        <time>2015-03-15T09:30:10.000Z</time>
      </trkpt>
      <trkpt lat="47.42989" lon="6.79638">
        <ele>491</ele>
        <time>2015-03-15T09:30:11.000Z</time>
      </trkpt>
      <trkpt lat="47.42985" lon="6.79637">
        <ele>491</ele>
        <time>2015-03-15T09:30:13.000Z</time>
      </trkpt>
      <trkpt lat="47.42984" lon="6.79637">
        <ele>491</ele>
        <time>2015-03-15T09:30:14.000Z</time>
      </trkpt>
      <trkpt lat="47.42981" lon="6.79637">
        <ele>491</ele>
        <time>2015-03-15T09:30:16.000Z</time>
      </trkpt>
      <trkpt lat="47.42978" lon="6.79638">
        <ele>491</ele>
        <time>2015-03-15T09:30:17.001Z</time>
      </trkpt>
      <trkpt lat="47.42976" lon="6.79637">
        <ele>490</ele>
        <time>2015-03-15T09:30:18.000Z</time>
      </trkpt>
      <trkpt lat="47.42973" lon="6.79637">
        <ele>490</ele>
        <time>2015-03-15T09:30:19.000Z</time>
      </trkpt>
      <trkpt lat="47.42971" lon="6.79636">
        <ele>490</ele>
        <time>2015-03-15T09:30:20.000Z</time>
      </trkpt>
      <trkpt lat="47.42968" lon="6.79635">
        <ele>490</ele>
        <time>2015-03-15T09:30:21.000Z</time>
      </trkpt>
      <trkpt lat="47.42965" lon="6.79634">
        <ele>490</ele>
        <time>2015-03-15T09:30:22.000Z</time>
      </trkpt>
      <trkpt lat="47.42963" lon="6.79633">
        <ele>490</ele>
        <time>2015-03-15T09:30:23.000Z</time>
      </trkpt>
      <trkpt lat="47.42959" lon="6.79631">
        <ele>490</ele>
        <time>2015-03-15T09:30:25.000Z</time>
      </trkpt>
      <trkpt lat="47.42956" lon="6.79631">
        <ele>490</ele>
        <time>2015-03-15T09:30:26.000Z</time>
      </trkpt>
      <trkpt lat="47.42952" lon="6.7963">
        <ele>490</ele>
        <time>2015-03-15T09:30:27.000Z</time>
      </trkpt>
      <trkpt lat="47.42949" lon="6.7963">
        <ele>490</ele>
        <time>2015-03-15T09:30:28.000Z</time>
      </trkpt>
      <trkpt lat="47.42946" lon="6.79629">
        <ele>490</ele>
        <time>2015-03-15T09:30:29.000Z</time>
      </trkpt>
      <trkpt lat="47.42943" lon="6.79628">
        <ele>490</ele>
        <time>2015-03-15T09:30:30.000Z</time>
      </trkpt>
      <trkpt lat="47.4294" lon="6.79627">
        <ele>490</ele>
        <time>2015-03-15T09:30:31.000Z</time>
      </trkpt>
      <trkpt lat="47.42937" lon="6.79626">
        <ele>490</ele>
        <time>2015-03-15T09:30:32.000Z</time>
      </trkpt>
      <trkpt lat="47.42934" lon="6.79625">
        <ele>490</ele>
        <time>2015-03-15T09:30:33.000Z</time>
      </trkpt>
      <trkpt lat="47.42931" lon="6.79624">
        <ele>490</ele>
        <time>2015-03-15T09:30:34.000Z</time>
      </trkpt>
      <trkpt lat="47.42928" lon="6.79624">
        <ele>490</ele>
        <time>2015-03-15T09:30:35.000Z</time>
      </trkpt>
      <trkpt lat="47.42925" lon="6.79624">
        <ele>490</ele>
        <time>2015-03-15T09:30:36.000Z</time>
      </trkpt>
      <trkpt lat="47.42921" lon="6.79625">
        <ele>490</ele>
        <time>2015-03-15T09:30:37.000Z</time>
      </trkpt>
      <trkpt lat="47.42916" lon="6.79627">
        <ele>490</ele>
        <time>2015-03-15T09:30:38.000Z</time>
      </trkpt>
      <trkpt lat="47.42911" lon="6.7963">
        <ele>490</ele>
        <time>2015-03-15T09:30:39.000Z</time>
      </trkpt>
      <trkpt lat="47.42906" lon="6.79633">
        <ele>490</ele>
        <time>2015-03-15T09:30:40.000Z</time>
      </trkpt>
      <trkpt lat="47.42902" lon="6.79637">
        <ele>490</ele>
        <time>2015-03-15T09:30:41.000Z</time>
      </trkpt>
      <trkpt lat="47.42899" lon="6.79642">
        <ele>490</ele>
        <time>2015-03-15T09:30:42.000Z</time>
      </trkpt>
      <trkpt lat="47.42897" lon="6.79648">
        <ele>491</ele>
        <time>2015-03-15T09:30:43.000Z</time>
      </trkpt>
      <trkpt lat="47.42895" lon="6.79655">
        <ele>491</ele>
        <time>2015-03-15T09:30:44.000Z</time>
      </trkpt>
      <trkpt lat="47.42893" lon="6.79662">
        <ele>491</ele>
        <time>2015-03-15T09:30:45.000Z</time>
      </trkpt>
      <trkpt lat="47.42892" lon="6.79669">
        <ele>491</ele>
        <time>2015-03-15T09:30:46.000Z</time>
      </trkpt>
      <trkpt lat="47.42891" lon="6.79676">
        <ele>491</ele>
        <time>2015-03-15T09:30:47.000Z</time>
      </trkpt>
      <trkpt lat="47.4289" lon="6.79682">
        <ele>491</ele>
        <time>2015-03-15T09:30:48.000Z</time>
      </trkpt>
      <trkpt lat="47.4289" lon="6.79688">
        <ele>491</ele>
        <time>2015-03-15T09:30:49.000Z</time>
      </trkpt>
      <trkpt lat="47.42889" lon="6.79694">
        <ele>491</ele>
        <time>2015-03-15T09:30:50.000Z</time>
      </trkpt>
      <trkpt lat="47.42888" lon="6.797">
        <ele>491</ele>
        <time>2015-03-15T09:30:51.000Z</time>
      </trkpt>
      <trkpt lat="47.42888" lon="6.79706">
        <ele>490</ele>
        <time>2015-03-15T09:30:52.000Z</time>
      </trkpt>
      <trkpt lat="47.42888" lon="6.79712">
        <ele>490</ele>
        <time>2015-03-15T09:30:53.000Z</time>
      </trkpt>
      <trkpt lat="47.42888" lon="6.79717">
        <ele>490</ele>
        <time>2015-03-15T09:30:54.000Z</time>
      </trkpt>
      <trkpt lat="47.42889" lon="6.79723">
        <ele>490</ele>
        <time>2015-03-15T09:30:54.999Z</time>
      </trkpt>
      <trkpt lat="47.42888" lon="6.79728">
        <ele>490</ele>
        <time>2015-03-15T09:30:56.000Z</time>
      </trkpt>
      <trkpt lat="47.42888" lon="6.79733">
        <ele>490</ele>
        <time>2015-03-15T09:30:57.000Z</time>
      </trkpt>
      <trkpt lat="47.42887" lon="6.79737">
        <ele>490</ele>
        <time>2015-03-15T09:30:58.000Z</time>
      </trkpt>
      <trkpt lat="47.42887" lon="6.79742">
        <ele>490</ele>
        <time>2015-03-15T09:30:59.000Z</time>
      </trkpt>
      <trkpt lat="47.42887" lon="6.79746">
        <ele>490</ele>
        <time>2015-03-15T09:31:00.000Z</time>
      </trkpt>
      <trkpt lat="47.42887" lon="6.79751">
        <ele>489</ele>
        <time>2015-03-15T09:31:01.000Z</time>
      </trkpt>
      <trkpt lat="47.42887" lon="6.79756">
        <ele>489</ele>
        <time>2015-03-15T09:31:02.000Z</time>
      </trkpt>
      <trkpt lat="47.42887" lon="6.79762">
        <ele>489</ele>
        <time>2015-03-15T09:31:03.000Z</time>
      </trkpt>
      <trkpt lat="47.42887" lon="6.79767">
        <ele>489</ele>
        <time>2015-03-15T09:31:04.000Z</time>
      </trkpt>
      <trkpt lat="47.42887" lon="6.79773">
        <ele>489</ele>
        <time>2015-03-15T09:31:05.000Z</time>
      </trkpt>
      <trkpt lat="47.42886" lon="6.79776">
        <ele>489</ele>
        <time>2015-03-15T09:31:06.000Z</time>
      </trkpt>
      <trkpt lat="47.42883" lon="6.79777">
        <ele>489</ele>
        <time>2015-03-15T09:31:07.000Z</time>
      </trkpt>
      <trkpt lat="47.42871" lon="6.79771">
        <ele>488</ele>
        <time>2015-03-15T09:31:08.000Z</time>
      </trkpt>
      <trkpt lat="47.42866" lon="6.79771">
        <ele>488</ele>
        <time>2015-03-15T09:31:09.000Z</time>
      </trkpt>
      <trkpt lat="47.42862" lon="6.79773">
        <ele>488</ele>
        <time>2015-03-15T09:31:10.000Z</time>
      </trkpt>
      <trkpt lat="47.42857" lon="6.79774">
        <ele>488</ele>
        <time>2015-03-15T09:31:10.999Z</time>
      </trkpt>
      <trkpt lat="47.42853" lon="6.79775">
        <ele>488</ele>
        <time>2015-03-15T09:31:12.000Z</time>
      </trkpt>
      <trkpt lat="47.42849" lon="6.79777">
        <ele>488</ele>
        <time>2015-03-15T09:31:13.000Z</time>
      </trkpt>
      <trkpt lat="47.42845" lon="6.7978">
        <ele>488</ele>
        <time>2015-03-15T09:31:14.000Z</time>
      </trkpt>
      <trkpt lat="47.42842" lon="6.79783">
        <ele>488</ele>
        <time>2015-03-15T09:31:15.000Z</time>
      </trkpt>
      <trkpt lat="47.42838" lon="6.79784">
        <ele>488</ele>
        <time>2015-03-15T09:31:16.000Z</time>
      </trkpt>
      <trkpt lat="47.42835" lon="6.79785">
        <ele>487</ele>
        <time>2015-03-15T09:31:17.000Z</time>
      </trkpt>
      <trkpt lat="47.42832" lon="6.79786">
        <ele>488</ele>
        <time>2015-03-15T09:31:18.000Z</time>
      </trkpt>
      <trkpt lat="47.42828" lon="6.79787">
        <ele>488</ele>
        <time>2015-03-15T09:31:19.000Z</time>
      </trkpt>
      <trkpt lat="47.42826" lon="6.79786">
        <ele>488</ele>
        <time>2015-03-15T09:31:20.001Z</time>
      </trkpt>
      <trkpt lat="47.42824" lon="6.79785">
        <ele>488</ele>
        <time>2015-03-15T09:31:21.000Z</time>
      </trkpt>
      <trkpt lat="47.42821" lon="6.79785">
        <ele>488</ele>
        <time>2015-03-15T09:31:22.000Z</time>
      </trkpt>
      <trkpt lat="47.42818" lon="6.79786">
        <ele>488</ele>
        <time>2015-03-15T09:31:23.000Z</time>
      </trkpt>
      <trkpt lat="47.42815" lon="6.79787">
        <ele>488</ele>
        <time>2015-03-15T09:31:24.000Z</time>
      </trkpt>
      <trkpt lat="47.42812" lon="6.79788">
        <ele>489</ele>
        <time>2015-03-15T09:31:25.000Z</time>
      </trkpt>
      <trkpt lat="47.42809" lon="6.79788">
        <ele>489</ele>
        <time>2015-03-15T09:31:26.001Z</time>
      </trkpt>
      <trkpt lat="47.42806" lon="6.79788">
        <ele>489</ele>
        <time>2015-03-15T09:31:27.000Z</time>
      </trkpt>
      <trkpt lat="47.42803" lon="6.79789">
        <ele>489</ele>
        <time>2015-03-15T09:31:28.000Z</time>
      </trkpt>
      <trkpt lat="47.428" lon="6.7979">
        <ele>489</ele>
        <time>2015-03-15T09:31:29.000Z</time>
      </trkpt>
      <trkpt lat="47.42797" lon="6.79791">
        <ele>489</ele>
        <time>2015-03-15T09:31:30.000Z</time>
      </trkpt>
      <trkpt lat="47.42792" lon="6.79794">
        <ele>489</ele>
        <time>2015-03-15T09:31:31.000Z</time>
      </trkpt>
      <trkpt lat="47.42789" lon="6.79796">
        <ele>489</ele>
        <time>2015-03-15T09:31:32.000Z</time>
      </trkpt>
      <trkpt lat="47.42786" lon="6.79798">
        <ele>489</ele>
        <time>2015-03-15T09:31:33.000Z</time>
      </trkpt>
      <trkpt lat="47.42784" lon="6.798">
        <ele>490</ele>
        <time>2015-03-15T09:31:34.000Z</time>
      </trkpt>
      <trkpt lat="47.42782" lon="6.79803">
        <ele>490</ele>
        <time>2015-03-15T09:31:35.000Z</time>
      </trkpt>
      <trkpt lat="47.42779" lon="6.79805">
        <ele>490</ele>
        <time>2015-03-15T09:31:36.000Z</time>
      </trkpt>
      <trkpt lat="47.42775" lon="6.79806">
        <ele>490</ele>
        <time>2015-03-15T09:31:37.000Z</time>
      </trkpt>
      <trkpt lat="47.42772" lon="6.79806">
        <ele>490</ele>
        <time>2015-03-15T09:31:38.000Z</time>
      </trkpt>
      <trkpt lat="47.42769" lon="6.79807">
        <ele>490</ele>
        <time>2015-03-15T09:31:38.999Z</time>
      </trkpt>
      <trkpt lat="47.42765" lon="6.79806">
        <ele>490</ele>
        <time>2015-03-15T09:31:40.000Z</time>
      </trkpt>
      <trkpt lat="47.42762" lon="6.79807">
        <ele>491</ele>
        <time>2015-03-15T09:31:41.000Z</time>
      </trkpt>
      <trkpt lat="47.4276" lon="6.79808">
        <ele>491</ele>
        <time>2015-03-15T09:31:42.000Z</time>
      </trkpt>
      <trkpt lat="47.42757" lon="6.7981">
        <ele>491</ele>
        <time>2015-03-15T09:31:43.000Z</time>
      </trkpt>
      <trkpt lat="47.42755" lon="6.79811">
        <ele>491</ele>
        <time>2015-03-15T09:31:44.000Z</time>
      </trkpt>
      <trkpt lat="47.42753" lon="6.79813">
        <ele>491</ele>
        <time>2015-03-15T09:31:45.000Z</time>
      </trkpt>
      <trkpt lat="47.42749" lon="6.79812">
        <ele>494</ele>
        <time>2015-03-15T09:31:46.000Z</time>
      </trkpt>
      <trkpt lat="47.42746" lon="6.79812">
        <ele>494</ele>
        <time>2015-03-15T09:31:47.000Z</time>
      </trkpt>
      <trkpt lat="47.42742" lon="6.79811">
        <ele>494</ele>
        <time>2015-03-15T09:31:48.000Z</time>
      </trkpt>
      <trkpt lat="47.42739" lon="6.79811">
        <ele>494</ele>
        <time>2015-03-15T09:31:49.000Z</time>
      </trkpt>
      <trkpt lat="47.42736" lon="6.7981">
        <ele>494</ele>
        <time>2015-03-15T09:31:50.000Z</time>
      </trkpt>
      <trkpt lat="47.42732" lon="6.79809">
        <ele>494</ele>
        <time>2015-03-15T09:31:51.000Z</time>
      </trkpt>
      <trkpt lat="47.42728" lon="6.79807">
        <ele>495</ele>
        <time>2015-03-15T09:31:53.000Z</time>
      </trkpt>
      <trkpt lat="47.42727" lon="6.79807">
        <ele>495</ele>
        <time>2015-03-15T09:31:54.000Z</time>
      </trkpt>
      <trkpt lat="47.42723" lon="6.79807">
        <ele>495</ele>
        <time>2015-03-15T09:31:56.000Z</time>
      </trkpt>
      <trkpt lat="47.42721" lon="6.79807">
        <ele>495</ele>
        <time>2015-03-15T09:31:57.000Z</time>
      </trkpt>
      <trkpt lat="47.42718" lon="6.79807">
        <ele>495</ele>
        <time>2015-03-15T09:32:00.000Z</time>
      </trkpt>
      <trkpt lat="47.42716" lon="6.79807">
        <ele>495</ele>
        <time>2015-03-15T09:32:01.000Z</time>
      </trkpt>
      <trkpt lat="47.42713" lon="6.79807">
        <ele>495</ele>
        <time>2015-03-15T09:32:02.000Z</time>
      </trkpt>
      <trkpt lat="47.4271" lon="6.79808">
        <ele>495</ele>
        <time>2015-03-15T09:32:03.000Z</time>
      </trkpt>
      <trkpt lat="47.42706" lon="6.79809">
        <ele>495</ele>
        <time>2015-03-15T09:32:04.000Z</time>
      </trkpt>
      <trkpt lat="47.42703" lon="6.7981">
        <ele>496</ele>
        <time>2015-03-15T09:32:05.000Z</time>
      </trkpt>
      <trkpt lat="47.42698" lon="6.7981">
        <ele>496</ele>
        <time>2015-03-15T09:32:06.000Z</time>
      </trkpt>
      <trkpt lat="47.42694" lon="6.79809">
        <ele>496</ele>
        <time>2015-03-15T09:32:07.000Z</time>
      </trkpt>
      <trkpt lat="47.4269" lon="6.79808">
        <ele>496</ele>
        <time>2015-03-15T09:32:08.000Z</time>
      </trkpt>
      <trkpt lat="47.42687" lon="6.79808">
        <ele>496</ele>
        <time>2015-03-15T09:32:09.000Z</time>
      </trkpt>
      <trkpt lat="47.42683" lon="6.79807">
        <ele>496</ele>
        <time>2015-03-15T09:32:11.000Z</time>
      </trkpt>
      <trkpt lat="47.42681" lon="6.79807">
        <ele>496</ele>
        <time>2015-03-15T09:32:12.000Z</time>
      </trkpt>
      <trkpt lat="47.42677" lon="6.79804">
        <ele>496</ele>
        <time>2015-03-15T09:32:14.000Z</time>
      </trkpt>
      <trkpt lat="47.42675" lon="6.79803">
        <ele>496</ele>
        <time>2015-03-15T09:32:15.000Z</time>
      </trkpt>
      <trkpt lat="47.42673" lon="6.79802">
        <ele>496</ele>
        <time>2015-03-15T09:32:15.999Z</time>
      </trkpt>
      <trkpt lat="47.42669" lon="6.79802">
        <ele>496</ele>
        <time>2015-03-15T09:32:17.000Z</time>
      </trkpt>
      <trkpt lat="47.42666" lon="6.79802">
        <ele>500</ele>
        <time>2015-03-15T09:32:18.000Z</time>
      </trkpt>
      <trkpt lat="47.42663" lon="6.79803">
        <ele>500</ele>
        <time>2015-03-15T09:32:19.000Z</time>
      </trkpt>
      <trkpt lat="47.42658" lon="6.79803">
        <ele>500</ele>
        <time>2015-03-15T09:32:21.000Z</time>
      </trkpt>
      <trkpt lat="47.42656" lon="6.79806">
        <ele>500</ele>
        <time>2015-03-15T09:32:22.000Z</time>
      </trkpt>
      <trkpt lat="47.42652" lon="6.79808">
        <ele>500</ele>
        <time>2015-03-15T09:32:24.000Z</time>
      </trkpt>
      <trkpt lat="47.4265" lon="6.79809">
        <ele>500</ele>
        <time>2015-03-15T09:32:25.000Z</time>
      </trkpt>
      <trkpt lat="47.42647" lon="6.79809">
        <ele>500</ele>
        <time>2015-03-15T09:32:25.999Z</time>
      </trkpt>
      <trkpt lat="47.42645" lon="6.79809">
        <ele>500</ele>
        <time>2015-03-15T09:32:27.000Z</time>
      </trkpt>
      <trkpt lat="47.42641" lon="6.7981">
        <ele>500</ele>
        <time>2015-03-15T09:32:32.000Z</time>
      </trkpt>
      <trkpt lat="47.4264" lon="6.79809">
        <ele>500</ele>
        <time>2015-03-15T09:32:32.999Z</time>
      </trkpt>
      <trkpt lat="47.42637" lon="6.79808">
        <ele>501</ele>
        <time>2015-03-15T09:32:34.001Z</time>
      </trkpt>
      <trkpt lat="47.42634" lon="6.79806">
        <ele>501</ele>
        <time>2015-03-15T09:32:35.000Z</time>
      </trkpt>
      <trkpt lat="47.42632" lon="6.79805">
        <ele>501</ele>
        <time>2015-03-15T09:32:36.000Z</time>
      </trkpt>
      <trkpt lat="47.42629" lon="6.79805">
        <ele>501</ele>
        <time>2015-03-15T09:32:37.001Z</time>
      </trkpt>
      <trkpt lat="47.42625" lon="6.79805">
        <ele>501</ele>
        <time>2015-03-15T09:32:39.000Z</time>
      </trkpt>
      <trkpt lat="47.42623" lon="6.79806">
        <ele>501</ele>
        <time>2015-03-15T09:32:40.000Z</time>
      </trkpt>
      <trkpt lat="47.42621" lon="6.79809">
        <ele>501</ele>
        <time>2015-03-15T09:32:41.000Z</time>
      </trkpt>
      <trkpt lat="47.42618" lon="6.7981">
        <ele>501</ele>
        <time>2015-03-15T09:32:42.000Z</time>
      </trkpt>
      <trkpt lat="47.42615" lon="6.79811">
        <ele>501</ele>
        <time>2015-03-15T09:32:43.000Z</time>
      </trkpt>
      <trkpt lat="47.42613" lon="6.79812">
        <ele>502</ele>
        <time>2015-03-15T09:32:44.000Z</time>
      </trkpt>
      <trkpt lat="47.42611" lon="6.79814">
        <ele>502</ele>
        <time>2015-03-15T09:32:45.000Z</time>
      </trkpt>
      <trkpt lat="47.42609" lon="6.79815">
        <ele>502</ele>
        <time>2015-03-15T09:32:46.000Z</time>
      </trkpt>
      <trkpt lat="47.42606" lon="6.79816">
        <ele>502</ele>
        <time>2015-03-15T09:32:47.000Z</time>
      </trkpt>
      <trkpt lat="47.42604" lon="6.79817">
        <ele>502</ele>
        <time>2015-03-15T09:32:48.000Z</time>
      </trkpt>
      <trkpt lat="47.42601" lon="6.79818">
        <ele>502</ele>
        <time>2015-03-15T09:32:49.000Z</time>
      </trkpt>
      <trkpt lat="47.42599" lon="6.79818">
        <ele>502</ele>
        <time>2015-03-15T09:32:50.000Z</time>
      </trkpt>
      <trkpt lat="47.42595" lon="6.7982">
        <ele>502</ele>
        <time>2015-03-15T09:32:51.000Z</time>
      </trkpt>
      <trkpt lat="47.42593" lon="6.79821">
        <ele>503</ele>
        <time>2015-03-15T09:32:52.000Z</time>
      </trkpt>
      <trkpt lat="47.42588" lon="6.79823">
        <ele>503</ele>
        <time>2015-03-15T09:32:53.000Z</time>
      </trkpt>
      <trkpt lat="47.42586" lon="6.79822">
        <ele>503</ele>
        <time>2015-03-15T09:32:54.000Z</time>
      </trkpt>
      <trkpt lat="47.42583" lon="6.79821">
        <ele>503</ele>
        <time>2015-03-15T09:32:55.000Z</time>
      </trkpt>
      <trkpt lat="47.42581" lon="6.7982">
        <ele>506</ele>
        <time>2015-03-15T09:32:56.000Z</time>
      </trkpt>
      <trkpt lat="47.42579" lon="6.79819">
        <ele>506</ele>
        <time>2015-03-15T09:32:57.000Z</time>
      </trkpt>
      <trkpt lat="47.42576" lon="6.79819">
        <ele>506</ele>
        <time>2015-03-15T09:32:58.000Z</time>
      </trkpt>
      <trkpt lat="47.42573" lon="6.79819">
        <ele>506</ele>
        <time>2015-03-15T09:32:59.000Z</time>
      </trkpt>
      <trkpt lat="47.42569" lon="6.7982">
        <ele>506</ele>
        <time>2015-03-15T09:33:00.000Z</time>
      </trkpt>
      <trkpt lat="47.42565" lon="6.7982">
        <ele>507</ele>
        <time>2015-03-15T09:33:01.000Z</time>
      </trkpt>
      <trkpt lat="47.42562" lon="6.79821">
        <ele>507</ele>
        <time>2015-03-15T09:33:02.000Z</time>
      </trkpt>
      <trkpt lat="47.42559" lon="6.79821">
        <ele>507</ele>
        <time>2015-03-15T09:33:03.000Z</time>
      </trkpt>
      <trkpt lat="47.42555" lon="6.79821">
        <ele>507</ele>
        <time>2015-03-15T09:33:04.000Z</time>
      </trkpt>
      <trkpt lat="47.42551" lon="6.79822">
        <ele>508</ele>
        <time>2015-03-15T09:33:05.000Z</time>
      </trkpt>
      <trkpt lat="47.42546" lon="6.79823">
        <ele>508</ele>
        <time>2015-03-15T09:33:06.000Z</time>
      </trkpt>
      <trkpt lat="47.42542" lon="6.79825">
        <ele>508</ele>
        <time>2015-03-15T09:33:07.000Z</time>
      </trkpt>
      <trkpt lat="47.42538" lon="6.79827">
        <ele>509</ele>
        <time>2015-03-15T09:33:08.000Z</time>
      </trkpt>
      <trkpt lat="47.42534" lon="6.79829">
        <ele>509</ele>
        <time>2015-03-15T09:33:09.000Z</time>
      </trkpt>
      <trkpt lat="47.42531" lon="6.79831">
        <ele>509</ele>
        <time>2015-03-15T09:33:10.000Z</time>
      </trkpt>
      <trkpt lat="47.42528" lon="6.79833">
        <ele>509</ele>
        <time>2015-03-15T09:33:11.000Z</time>
      </trkpt>
      <trkpt lat="47.42525" lon="6.79834">
        <ele>509</ele>
        <time>2015-03-15T09:33:12.000Z</time>
      </trkpt>
      <trkpt lat="47.42522" lon="6.79836">
        <ele>509</ele>
        <time>2015-03-15T09:33:13.000Z</time>
      </trkpt>
      <trkpt lat="47.42519" lon="6.79837">
        <ele>509</ele>
        <time>2015-03-15T09:33:14.000Z</time>
      </trkpt>
      <trkpt lat="47.42516" lon="6.79837">
        <ele>510</ele>
        <time>2015-03-15T09:33:15.000Z</time>
      </trkpt>
      <trkpt lat="47.42513" lon="6.79838">
        <ele>510</ele>
        <time>2015-03-15T09:33:16.000Z</time>
      </trkpt>
      <trkpt lat="47.4251" lon="6.79839">
        <ele>510</ele>
        <time>2015-03-15T09:33:17.000Z</time>
      </trkpt>
      <trkpt lat="47.42507" lon="6.79839">
        <ele>510</ele>
        <time>2015-03-15T09:33:18.000Z</time>
      </trkpt>
      <trkpt lat="47.42505" lon="6.79839">
        <ele>511</ele>
        <time>2015-03-15T09:33:19.000Z</time>
      </trkpt>
      <trkpt lat="47.42503" lon="6.79843">
        <ele>510</ele>
        <time>2015-03-15T09:33:22.000Z</time>
      </trkpt>
      <trkpt lat="47.42503" lon="6.79845">
        <ele>510</ele>
        <time>2015-03-15T09:33:23.000Z</time>
      </trkpt>
      <trkpt lat="47.42499" lon="6.79848">
        <ele>513</ele>
        <time>2015-03-15T09:33:25.000Z</time>
      </trkpt>
      <trkpt lat="47.42496" lon="6.79847">
        <ele>513</ele>
        <time>2015-03-15T09:33:26.000Z</time>
      </trkpt>
      <trkpt lat="47.42493" lon="6.79847">
        <ele>513</ele>
        <time>2015-03-15T09:33:27.000Z</time>
      </trkpt>
      <trkpt lat="47.42489" lon="6.79846">
        <ele>513</ele>
        <time>2015-03-15T09:33:28.000Z</time>
      </trkpt>
      <trkpt lat="47.42479" lon="6.79843">
        <ele>513</ele>
        <time>2015-03-15T09:33:29.000Z</time>
      </trkpt>
      <trkpt lat="47.42475" lon="6.79842">
        <ele>513</ele>
        <time>2015-03-15T09:33:30.000Z</time>
      </trkpt>
      <trkpt lat="47.4247" lon="6.79842">
        <ele>514</ele>
        <time>2015-03-15T09:33:31.000Z</time>
      </trkpt>
      <trkpt lat="47.42465" lon="6.79842">
        <ele>514</ele>
        <time>2015-03-15T09:33:32.000Z</time>
      </trkpt>
      <trkpt lat="47.42461" lon="6.79842">
        <ele>514</ele>
        <time>2015-03-15T09:33:32.999Z</time>
      </trkpt>
      <trkpt lat="47.4246" lon="6.79839">
        <ele>514</ele>
        <time>2015-03-15T09:33:34.000Z</time>
      </trkpt>
      <trkpt lat="47.42456" lon="6.79841">
        <ele>514</ele>
        <time>2015-03-15T09:33:35.000Z</time>
      </trkpt>
      <trkpt lat="47.42454" lon="6.79842">
        <ele>514</ele>
        <time>2015-03-15T09:33:36.000Z</time>
      </trkpt>
      <trkpt lat="47.42451" lon="6.79844">
        <ele>514</ele>
        <time>2015-03-15T09:33:37.000Z</time>
      </trkpt>
      <trkpt lat="47.42447" lon="6.79844">
        <ele>514</ele>
        <time>2015-03-15T09:33:38.000Z</time>
      </trkpt>
      <trkpt lat="47.42443" lon="6.79844">
        <ele>515</ele>
        <time>2015-03-15T09:33:39.000Z</time>
      </trkpt>
      <trkpt lat="47.42441" lon="6.79843">
        <ele>515</ele>
        <time>2015-03-15T09:33:40.000Z</time>
      </trkpt>
      <trkpt lat="47.42437" lon="6.79843">
        <ele>515</ele>
        <time>2015-03-15T09:33:40.999Z</time>
      </trkpt>
      <trkpt lat="47.42435" lon="6.79842">
        <ele>515</ele>
        <time>2015-03-15T09:33:42.000Z</time>
      </trkpt>
      <trkpt lat="47.42431" lon="6.79843">
        <ele>515</ele>
        <time>2015-03-15T09:33:43.000Z</time>
      </trkpt>
      <trkpt lat="47.42428" lon="6.79843">
        <ele>515</ele>
        <time>2015-03-15T09:33:44.000Z</time>
      </trkpt>
      <trkpt lat="47.42424" lon="6.79843">
        <ele>515</ele>
        <time>2015-03-15T09:33:45.000Z</time>
      </trkpt>
      <trkpt lat="47.4242" lon="6.79843">
        <ele>515</ele>
        <time>2015-03-15T09:33:46.000Z</time>
      </trkpt>
      <trkpt lat="47.42416" lon="6.79843">
        <ele>517</ele>
        <time>2015-03-15T09:33:47.000Z</time>
      </trkpt>
      <trkpt lat="47.42413" lon="6.79844">
        <ele>518</ele>
        <time>2015-03-15T09:33:48.000Z</time>
      </trkpt>
      <trkpt lat="47.4241" lon="6.79844">
        <ele>518</ele>
        <time>2015-03-15T09:33:48.999Z</time>
      </trkpt>
      <trkpt lat="47.42407" lon="6.79847">
        <ele>518</ele>
        <time>2015-03-15T09:33:50.000Z</time>
      </trkpt>
      <trkpt lat="47.42405" lon="6.79848">
        <ele>518</ele>
        <time>2015-03-15T09:33:50.999Z</time>
      </trkpt>
      <trkpt lat="47.42401" lon="6.79851">
        <ele>519</ele>
        <time>2015-03-15T09:33:53.000Z</time>
      </trkpt>
      <trkpt lat="47.424" lon="6.79852">
        <ele>519</ele>
        <time>2015-03-15T09:33:54.000Z</time>
      </trkpt>
      <trkpt lat="47.42398" lon="6.79857">
        <ele>519</ele>
        <time>2015-03-15T09:33:56.000Z</time>
      </trkpt>
      <trkpt lat="47.42396" lon="6.79859">
        <ele>519</ele>
        <time>2015-03-15T09:33:57.000Z</time>
      </trkpt>
      <trkpt lat="47.42393" lon="6.79862">
        <ele>519</ele>
        <time>2015-03-15T09:33:59.000Z</time>
      </trkpt>
      <trkpt lat="47.42391" lon="6.79863">
        <ele>519</ele>
        <time>2015-03-15T09:34:00.000Z</time>
      </trkpt>
      <trkpt lat="47.42387" lon="6.79864">
        <ele>520</ele>
        <time>2015-03-15T09:34:02.000Z</time>
      </trkpt>
      <trkpt lat="47.42385" lon="6.79864">
        <ele>520</ele>
        <time>2015-03-15T09:34:03.000Z</time>
      </trkpt>
      <trkpt lat="47.42382" lon="6.79864">
        <ele>520</ele>
        <time>2015-03-15T09:34:04.000Z</time>
      </trkpt>
      <trkpt lat="47.42379" lon="6.79864">
        <ele>520</ele>
        <time>2015-03-15T09:34:04.999Z</time>
      </trkpt>
      <trkpt lat="47.42377" lon="6.79865">
        <ele>520</ele>
        <time>2015-03-15T09:34:06.000Z</time>
      </trkpt>
      <trkpt lat="47.42375" lon="6.79866">
        <ele>520</ele>
        <time>2015-03-15T09:34:07.000Z</time>
      </trkpt>
      <trkpt lat="47.42372" lon="6.79871">
        <ele>520</ele>
        <time>2015-03-15T09:34:09.000Z</time>
      </trkpt>
      <trkpt lat="47.42371" lon="6.79874">
        <ele>520</ele>
        <time>2015-03-15T09:34:10.000Z</time>
      </trkpt>
      <trkpt lat="47.42369" lon="6.79878">
        <ele>520</ele>
        <time>2015-03-15T09:34:11.000Z</time>
      </trkpt>
      <trkpt lat="47.42368" lon="6.79882">
        <ele>521</ele>
        <time>2015-03-15T09:34:12.000Z</time>
      </trkpt>
      <trkpt lat="47.42366" lon="6.79885">
        <ele>521</ele>
        <time>2015-03-15T09:34:13.001Z</time>
      </trkpt>
      <trkpt lat="47.42365" lon="6.79889">
        <ele>521</ele>
        <time>2015-03-15T09:34:14.000Z</time>
      </trkpt>
      <trkpt lat="47.42364" lon="6.79892">
        <ele>521</ele>
        <time>2015-03-15T09:34:15.000Z</time>
      </trkpt>
      <trkpt lat="47.42362" lon="6.79893">
        <ele>521</ele>
        <time>2015-03-15T09:34:16.000Z</time>
      </trkpt>
      <trkpt lat="47.42358" lon="6.79896">
        <ele>521</ele>
        <time>2015-03-15T09:34:18.000Z</time>
      </trkpt>
      <trkpt lat="47.42356" lon="6.79896">
        <ele>521</ele>
        <time>2015-03-15T09:34:19.000Z</time>
      </trkpt>
      <trkpt lat="47.42352" lon="6.79898">
        <ele>522</ele>
        <time>2015-03-15T09:34:21.000Z</time>
      </trkpt>
      <trkpt lat="47.42351" lon="6.79902">
        <ele>522</ele>
        <time>2015-03-15T09:34:22.000Z</time>
      </trkpt>
      <trkpt lat="47.42348" lon="6.79906">
        <ele>522</ele>
        <time>2015-03-15T09:34:24.000Z</time>
      </trkpt>
      <trkpt lat="47.42347" lon="6.79908">
        <ele>522</ele>
        <time>2015-03-15T09:34:25.000Z</time>
      </trkpt>
      <trkpt lat="47.42344" lon="6.79911">
        <ele>523</ele>
        <time>2015-03-15T09:34:27.000Z</time>
      </trkpt>
      <trkpt lat="47.42342" lon="6.79913">
        <ele>523</ele>
        <time>2015-03-15T09:34:28.000Z</time>
      </trkpt>
      <trkpt lat="47.42339" lon="6.79917">
        <ele>523</ele>
        <time>2015-03-15T09:34:30.000Z</time>
      </trkpt>
      <trkpt lat="47.42338" lon="6.79919">
        <ele>523</ele>
        <time>2015-03-15T09:34:31.001Z</time>
      </trkpt>
      <trkpt lat="47.42336" lon="6.79923">
        <ele>523</ele>
        <time>2015-03-15T09:34:32.000Z</time>
      </trkpt>
      <trkpt lat="47.42334" lon="6.79926">
        <ele>523</ele>
        <time>2015-03-15T09:34:33.000Z</time>
      </trkpt>
      <trkpt lat="47.42332" lon="6.79927">
        <ele>524</ele>
        <time>2015-03-15T09:34:34.000Z</time>
      </trkpt>
      <trkpt lat="47.4233" lon="6.79928">
        <ele>524</ele>
        <time>2015-03-15T09:34:35.000Z</time>
      </trkpt>
      <trkpt lat="47.42328" lon="6.7993">
        <ele>524</ele>
        <time>2015-03-15T09:34:36.000Z</time>
      </trkpt>
      <trkpt lat="47.42325" lon="6.79932">
        <ele>524</ele>
        <time>2015-03-15T09:34:37.000Z</time>
      </trkpt>
      <trkpt lat="47.42323" lon="6.79934">
        <ele>524</ele>
        <time>2015-03-15T09:34:38.000Z</time>
      </trkpt>
      <trkpt lat="47.42321" lon="6.79936">
        <ele>524</ele>
        <time>2015-03-15T09:34:39.000Z</time>
      </trkpt>
      <trkpt lat="47.42318" lon="6.79939">
        <ele>525</ele>
        <time>2015-03-15T09:34:41.000Z</time>
      </trkpt>
      <trkpt lat="47.42316" lon="6.79939">
        <ele>525</ele>
        <time>2015-03-15T09:34:42.000Z</time>
      </trkpt>
      <trkpt lat="47.42312" lon="6.7994">
        <ele>525</ele>
        <time>2015-03-15T09:34:44.000Z</time>
      </trkpt>
      <trkpt lat="47.42309" lon="6.79941">
        <ele>525</ele>
        <time>2015-03-15T09:34:45.000Z</time>
      </trkpt>
      <trkpt lat="47.42307" lon="6.79942">
        <ele>525</ele>
        <time>2015-03-15T09:34:46.000Z</time>
      </trkpt>
      <trkpt lat="47.42305" lon="6.79943">
        <ele>525</ele>
        <time>2015-03-15T09:34:47.000Z</time>
      </trkpt>
      <trkpt lat="47.42301" lon="6.79946">
        <ele>525</ele>
        <time>2015-03-15T09:34:49.000Z</time>
      </trkpt>
      <trkpt lat="47.42299" lon="6.79948">
        <ele>525</ele>
        <time>2015-03-15T09:34:50.000Z</time>
      </trkpt>
      <trkpt lat="47.42297" lon="6.7995">
        <ele>525</ele>
        <time>2015-03-15T09:34:51.000Z</time>
      </trkpt>
      <trkpt lat="47.42295" lon="6.79953">
        <ele>525</ele>
        <time>2015-03-15T09:34:52.000Z</time>
      </trkpt>
      <trkpt lat="47.42293" lon="6.79955">
        <ele>525</ele>
        <time>2015-03-15T09:34:53.000Z</time>
      </trkpt>
      <trkpt lat="47.42291" lon="6.79957">
        <ele>525</ele>
        <time>2015-03-15T09:34:54.000Z</time>
      </trkpt>
      <trkpt lat="47.42289" lon="6.79958">
        <ele>525</ele>
        <time>2015-03-15T09:34:55.000Z</time>
      </trkpt>
      <trkpt lat="47.42287" lon="6.7996">
        <ele>525</ele>
        <time>2015-03-15T09:34:56.000Z</time>
      </trkpt>
      <trkpt lat="47.42283" lon="6.79962">
        <ele>525</ele>
        <time>2015-03-15T09:34:58.000Z</time>
      </trkpt>
      <trkpt lat="47.42281" lon="6.79964">
        <ele>525</ele>
        <time>2015-03-15T09:34:59.000Z</time>
      </trkpt>
      <trkpt lat="47.42278" lon="6.79965">
        <ele>525</ele>
        <time>2015-03-15T09:35:00.000Z</time>
      </trkpt>
      <trkpt lat="47.42275" lon="6.79966">
        <ele>525</ele>
        <time>2015-03-15T09:35:01.000Z</time>
      </trkpt>
      <trkpt lat="47.42273" lon="6.79967">
        <ele>525</ele>
        <time>2015-03-15T09:35:02.000Z</time>
      </trkpt>
      <trkpt lat="47.4227" lon="6.79969">
        <ele>526</ele>
        <time>2015-03-15T09:35:03.000Z</time>
      </trkpt>
      <trkpt lat="47.42266" lon="6.79971">
        <ele>526</ele>
        <time>2015-03-15T09:35:05.000Z</time>
      </trkpt>
      <trkpt lat="47.42263" lon="6.79972">
        <ele>526</ele>
        <time>2015-03-15T09:35:06.000Z</time>
      </trkpt>
      <trkpt lat="47.42261" lon="6.79974">
        <ele>526</ele>
        <time>2015-03-15T09:35:07.000Z</time>
      </trkpt>
      <trkpt lat="47.42258" lon="6.79977">
        <ele>526</ele>
        <time>2015-03-15T09:35:08.000Z</time>
      </trkpt>
      <trkpt lat="47.42256" lon="6.7998">
        <ele>526</ele>
        <time>2015-03-15T09:35:09.000Z</time>
      </trkpt>
      <trkpt lat="47.42254" lon="6.79983">
        <ele>526</ele>
        <time>2015-03-15T09:35:10.000Z</time>
      </trkpt>
      <trkpt lat="47.42251" lon="6.79987">
        <ele>527</ele>
        <time>2015-03-15T09:35:11.000Z</time>
      </trkpt>
      <trkpt lat="47.42249" lon="6.79991">
        <ele>528</ele>
        <time>2015-03-15T09:35:12.000Z</time>
      </trkpt>
      <trkpt lat="47.42248" lon="6.79995">
        <ele>528</ele>
        <time>2015-03-15T09:35:13.000Z</time>
      </trkpt>
      <trkpt lat="47.42246" lon="6.79999">
        <ele>528</ele>
        <time>2015-03-15T09:35:14.000Z</time>
      </trkpt>
      <trkpt lat="47.42246" lon="6.80002">
        <ele>529</ele>
        <time>2015-03-15T09:35:15.000Z</time>
      </trkpt>
      <trkpt lat="47.42244" lon="6.80005">
        <ele>529</ele>
        <time>2015-03-15T09:35:16.000Z</time>
      </trkpt>
      <trkpt lat="47.42242" lon="6.80008">
        <ele>529</ele>
        <time>2015-03-15T09:35:17.000Z</time>
      </trkpt>
      <trkpt lat="47.4224" lon="6.8001">
        <ele>529</ele>
        <time>2015-03-15T09:35:18.000Z</time>
      </trkpt>
      <trkpt lat="47.42239" lon="6.80013">
        <ele>529</ele>
        <time>2015-03-15T09:35:19.000Z</time>
      </trkpt>
      <trkpt lat="47.42237" lon="6.80016">
        <ele>530</ele>
        <time>2015-03-15T09:35:20.000Z</time>
      </trkpt>
      <trkpt lat="47.42236" lon="6.80019">
        <ele>530</ele>
        <time>2015-03-15T09:35:21.000Z</time>
      </trkpt>
      <trkpt lat="47.42234" lon="6.80021">
        <ele>530</ele>
        <time>2015-03-15T09:35:22.000Z</time>
      </trkpt>
      <trkpt lat="47.42232" lon="6.80023">
        <ele>530</ele>
        <time>2015-03-15T09:35:23.000Z</time>
      </trkpt>
      <trkpt lat="47.4223" lon="6.80025">
        <ele>530</ele>
        <time>2015-03-15T09:35:24.000Z</time>
      </trkpt>
      <trkpt lat="47.42228" lon="6.80027">
        <ele>530</ele>
        <time>2015-03-15T09:35:25.000Z</time>
      </trkpt>
      <trkpt lat="47.42225" lon="6.80029">
        <ele>530</ele>
        <time>2015-03-15T09:35:26.000Z</time>
      </trkpt>
      <trkpt lat="47.42223" lon="6.80032">
        <ele>530</ele>
        <time>2015-03-15T09:35:27.000Z</time>
      </trkpt>
      <trkpt lat="47.42221" lon="6.80034">
        <ele>531</ele>
        <time>2015-03-15T09:35:28.000Z</time>
      </trkpt>
      <trkpt lat="47.42219" lon="6.80036">
        <ele>531</ele>
        <time>2015-03-15T09:35:29.000Z</time>
      </trkpt>
      <trkpt lat="47.42218" lon="6.80039">
        <ele>531</ele>
        <time>2015-03-15T09:35:30.000Z</time>
      </trkpt>
      <trkpt lat="47.42216" lon="6.80042">
        <ele>531</ele>
        <time>2015-03-15T09:35:31.000Z</time>
      </trkpt>
      <trkpt lat="47.42214" lon="6.80045">
        <ele>531</ele>
        <time>2015-03-15T09:35:32.000Z</time>
      </trkpt>
      <trkpt lat="47.42212" lon="6.80047">
        <ele>531</ele>
        <time>2015-03-15T09:35:33.000Z</time>
      </trkpt>
      <trkpt lat="47.42209" lon="6.80049">
        <ele>531</ele>
        <time>2015-03-15T09:35:34.000Z</time>
      </trkpt>
      <trkpt lat="47.42207" lon="6.80051">
        <ele>531</ele>
        <time>2015-03-15T09:35:35.000Z</time>
      </trkpt>
      <trkpt lat="47.42204" lon="6.80053">
        <ele>531</ele>
        <time>2015-03-15T09:35:36.000Z</time>
      </trkpt>
      <trkpt lat="47.42202" lon="6.80056">
        <ele>531</ele>
        <time>2015-03-15T09:35:37.000Z</time>
      </trkpt>
      <trkpt lat="47.42199" lon="6.80059">
        <ele>532</ele>
        <time>2015-03-15T09:35:38.000Z</time>
      </trkpt>
      <trkpt lat="47.42197" lon="6.80062">
        <ele>532</ele>
        <time>2015-03-15T09:35:39.000Z</time>
      </trkpt>
      <trkpt lat="47.42194" lon="6.80065">
        <ele>532</ele>
        <time>2015-03-15T09:35:40.000Z</time>
      </trkpt>
      <trkpt lat="47.42192" lon="6.80067">
        <ele>532</ele>
        <time>2015-03-15T09:35:41.000Z</time>
      </trkpt>
      <trkpt lat="47.4219" lon="6.80069">
        <ele>532</ele>
        <time>2015-03-15T09:35:42.000Z</time>
      </trkpt>
      <trkpt lat="47.42188" lon="6.80071">
        <ele>532</ele>
        <time>2015-03-15T09:35:43.000Z</time>
      </trkpt>
      <trkpt lat="47.42185" lon="6.80073">
        <ele>533</ele>
        <time>2015-03-15T09:35:44.000Z</time>
      </trkpt>
      <trkpt lat="47.42184" lon="6.80076">
        <ele>533</ele>
        <time>2015-03-15T09:35:45.000Z</time>
      </trkpt>
      <trkpt lat="47.42183" lon="6.80079">
        <ele>533</ele>
        <time>2015-03-15T09:35:46.000Z</time>
      </trkpt>
      <trkpt lat="47.42181" lon="6.80082">
        <ele>533</ele>
        <time>2015-03-15T09:35:47.000Z</time>
      </trkpt>
      <trkpt lat="47.42179" lon="6.80085">
        <ele>533</ele>
        <time>2015-03-15T09:35:48.000Z</time>
      </trkpt>
      <trkpt lat="47.42177" lon="6.80088">
        <ele>533</ele>
        <time>2015-03-15T09:35:49.000Z</time>
      </trkpt>
      <trkpt lat="47.42175" lon="6.8009">
        <ele>533</ele>
        <time>2015-03-15T09:35:50.000Z</time>
      </trkpt>
      <trkpt lat="47.42173" lon="6.80094">
        <ele>533</ele>
        <time>2015-03-15T09:35:52.000Z</time>
      </trkpt>
      <trkpt lat="47.42172" lon="6.80096">
        <ele>533</ele>
        <time>2015-03-15T09:35:53.000Z</time>
      </trkpt>
      <trkpt lat="47.42169" lon="6.80099">
        <ele>533</ele>
        <time>2015-03-15T09:35:55.000Z</time>
      </trkpt>
      <trkpt lat="47.42167" lon="6.801">
        <ele>533</ele>
        <time>2015-03-15T09:35:56.000Z</time>
      </trkpt>
      <trkpt lat="47.42166" lon="6.80102">
        <ele>533</ele>
        <time>2015-03-15T09:35:57.000Z</time>
      </trkpt>
      <trkpt lat="47.42164" lon="6.80105">
        <ele>533</ele>
        <time>2015-03-15T09:35:58.000Z</time>
      </trkpt>
      <trkpt lat="47.42162" lon="6.80107">
        <ele>533</ele>
        <time>2015-03-15T09:35:59.000Z</time>
      </trkpt>
      <trkpt lat="47.4216" lon="6.80108">
        <ele>533</ele>
        <time>2015-03-15T09:36:00.000Z</time>
      </trkpt>
      <trkpt lat="47.42158" lon="6.8011">
        <ele>532</ele>
        <time>2015-03-15T09:36:01.000Z</time>
      </trkpt>
      <trkpt lat="47.42155" lon="6.80111">
        <ele>532</ele>
        <time>2015-03-15T09:36:02.000Z</time>
      </trkpt>
      <trkpt lat="47.42152" lon="6.80114">
        <ele>532</ele>
        <time>2015-03-15T09:36:04.000Z</time>
      </trkpt>
      <trkpt lat="47.42151" lon="6.80115">
        <ele>532</ele>
        <time>2015-03-15T09:36:05.000Z</time>
      </trkpt>
      <trkpt lat="47.42147" lon="6.80118">
        <ele>532</ele>
        <time>2015-03-15T09:36:08.000Z</time>
      </trkpt>
      <trkpt lat="47.42146" lon="6.80119">
        <ele>532</ele>
        <time>2015-03-15T09:36:09.000Z</time>
      </trkpt>
      <trkpt lat="47.42142" lon="6.8012">
        <ele>532</ele>
        <time>2015-03-15T09:36:11.000Z</time>
      </trkpt>
      <trkpt lat="47.42139" lon="6.80121">
        <ele>532</ele>
        <time>2015-03-15T09:36:12.000Z</time>
      </trkpt>
      <trkpt lat="47.42136" lon="6.80123">
        <ele>532</ele>
        <time>2015-03-15T09:36:14.000Z</time>
      </trkpt>
      <trkpt lat="47.42134" lon="6.80124">
        <ele>532</ele>
        <time>2015-03-15T09:36:15.000Z</time>
      </trkpt>
      <trkpt lat="47.42131" lon="6.80127">
        <ele>531</ele>
        <time>2015-03-15T09:36:17.000Z</time>
      </trkpt>
      <trkpt lat="47.42129" lon="6.80128">
        <ele>531</ele>
        <time>2015-03-15T09:36:18.000Z</time>
      </trkpt>
      <trkpt lat="47.42127" lon="6.8013">
        <ele>531</ele>
        <time>2015-03-15T09:36:19.000Z</time>
      </trkpt>
      <trkpt lat="47.42124" lon="6.80131">
        <ele>531</ele>
        <time>2015-03-15T09:36:20.000Z</time>
      </trkpt>
      <trkpt lat="47.42122" lon="6.80133">
        <ele>531</ele>
        <time>2015-03-15T09:36:21.000Z</time>
      </trkpt>
      <trkpt lat="47.4212" lon="6.80135">
        <ele>531</ele>
        <time>2015-03-15T09:36:22.000Z</time>
      </trkpt>
      <trkpt lat="47.42116" lon="6.80138">
        <ele>531</ele>
        <time>2015-03-15T09:36:24.000Z</time>
      </trkpt>
      <trkpt lat="47.42114" lon="6.80139">
        <ele>531</ele>
        <time>2015-03-15T09:36:25.000Z</time>
      </trkpt>
      <trkpt lat="47.42112" lon="6.80141">
        <ele>531</ele>
        <time>2015-03-15T09:36:26.000Z</time>
      </trkpt>
      <trkpt lat="47.4211" lon="6.80142">
        <ele>531</ele>
        <time>2015-03-15T09:36:27.000Z</time>
      </trkpt>
      <trkpt lat="47.42107" lon="6.80144">
        <ele>531</ele>
        <time>2015-03-15T09:36:28.000Z</time>
      </trkpt>
      <trkpt lat="47.42104" lon="6.80146">
        <ele>530</ele>
        <time>2015-03-15T09:36:29.000Z</time>
      </trkpt>
      <trkpt lat="47.42101" lon="6.80148">
        <ele>530</ele>
        <time>2015-03-15T09:36:30.000Z</time>
      </trkpt>
      <trkpt lat="47.42098" lon="6.8015">
        <ele>530</ele>
        <time>2015-03-15T09:36:31.000Z</time>
      </trkpt>
      <trkpt lat="47.42095" lon="6.80153">
        <ele>530</ele>
        <time>2015-03-15T09:36:32.000Z</time>
      </trkpt>
      <trkpt lat="47.42092" lon="6.80157">
        <ele>530</ele>
        <time>2015-03-15T09:36:32.999Z</time>
      </trkpt>
      <trkpt lat="47.42092" lon="6.80161">
        <ele>530</ele>
        <time>2015-03-15T09:36:34.000Z</time>
      </trkpt>
      <trkpt lat="47.42092" lon="6.80165">
        <ele>530</ele>
        <time>2015-03-15T09:36:35.000Z</time>
      </trkpt>
      <trkpt lat="47.42093" lon="6.8017">
        <ele>529</ele>
        <time>2015-03-15T09:36:36.000Z</time>
      </trkpt>
      <trkpt lat="47.42093" lon="6.80172">
        <ele>529</ele>
        <time>2015-03-15T09:36:36.999Z</time>
      </trkpt>
      <trkpt lat="47.42096" lon="6.80178">
        <ele>529</ele>
        <time>2015-03-15T09:36:38.000Z</time>
      </trkpt>
      <trkpt lat="47.42097" lon="6.80182">
        <ele>529</ele>
        <time>2015-03-15T09:36:39.000Z</time>
      </trkpt>
      <trkpt lat="47.42098" lon="6.80184">
        <ele>529</ele>
        <time>2015-03-15T09:36:40.000Z</time>
      </trkpt>
      <trkpt lat="47.42099" lon="6.80189">
        <ele>529</ele>
        <time>2015-03-15T09:36:41.000Z</time>
      </trkpt>
      <trkpt lat="47.421" lon="6.80192">
        <ele>529</ele>
        <time>2015-03-15T09:36:42.000Z</time>
      </trkpt>
      <trkpt lat="47.421" lon="6.80194">
        <ele>529</ele>
        <time>2015-03-15T09:36:43.000Z</time>
      </trkpt>
      <trkpt lat="47.42102" lon="6.80198">
        <ele>529</ele>
        <time>2015-03-15T09:36:44.000Z</time>
      </trkpt>
      <trkpt lat="47.42104" lon="6.80204">
        <ele>529</ele>
        <time>2015-03-15T09:36:46.000Z</time>
      </trkpt>
      <trkpt lat="47.42103" lon="6.80207">
        <ele>529</ele>
        <time>2015-03-15T09:36:47.000Z</time>
      </trkpt>
      <trkpt lat="47.42102" lon="6.80214">
        <ele>528</ele>
        <time>2015-03-15T09:36:49.001Z</time>
      </trkpt>
      <trkpt lat="47.42102" lon="6.80219">
        <ele>528</ele>
        <time>2015-03-15T09:36:50.000Z</time>
      </trkpt>
      <trkpt lat="47.42102" lon="6.80223">
        <ele>528</ele>
        <time>2015-03-15T09:36:51.000Z</time>
      </trkpt>
      <trkpt lat="47.42103" lon="6.80227">
        <ele>528</ele>
        <time>2015-03-15T09:36:52.000Z</time>
      </trkpt>
      <trkpt lat="47.42105" lon="6.80231">
        <ele>528</ele>
        <time>2015-03-15T09:36:53.001Z</time>
      </trkpt>
      <trkpt lat="47.42109" lon="6.80236">
        <ele>528</ele>
        <time>2015-03-15T09:36:54.000Z</time>
      </trkpt>
      <trkpt lat="47.42111" lon="6.80241">
        <ele>528</ele>
        <time>2015-03-15T09:36:55.000Z</time>
      </trkpt>
      <trkpt lat="47.42112" lon="6.80247">
        <ele>528</ele>
        <time>2015-03-15T09:36:56.000Z</time>
      </trkpt>
      <trkpt lat="47.42113" lon="6.80253">
        <ele>526</ele>
        <time>2015-03-15T09:36:57.000Z</time>
      </trkpt>
      <trkpt lat="47.42115" lon="6.80258">
        <ele>525</ele>
        <time>2015-03-15T09:36:58.000Z</time>
      </trkpt>
      <trkpt lat="47.42116" lon="6.80264">
        <ele>525</ele>
        <time>2015-03-15T09:36:59.000Z</time>
      </trkpt>
      <trkpt lat="47.42118" lon="6.80271">
        <ele>525</ele>
        <time>2015-03-15T09:37:00.000Z</time>
      </trkpt>
      <trkpt lat="47.42121" lon="6.80276">
        <ele>525</ele>
        <time>2015-03-15T09:37:01.000Z</time>
      </trkpt>
      <trkpt lat="47.42125" lon="6.80282">
        <ele>525</ele>
        <time>2015-03-15T09:37:02.000Z</time>
      </trkpt>
      <trkpt lat="47.42129" lon="6.80287">
        <ele>525</ele>
        <time>2015-03-15T09:37:03.000Z</time>
      </trkpt>
      <trkpt lat="47.42132" lon="6.80292">
        <ele>525</ele>
        <time>2015-03-15T09:37:04.000Z</time>
      </trkpt>
      <trkpt lat="47.42136" lon="6.80297">
        <ele>525</ele>
        <time>2015-03-15T09:37:05.000Z</time>
      </trkpt>
      <trkpt lat="47.42144" lon="6.80308">
        <ele>524</ele>
        <time>2015-03-15T09:37:06.000Z</time>
      </trkpt>
      <trkpt lat="47.42149" lon="6.8032">
        <ele>524</ele>
        <time>2015-03-15T09:37:07.000Z</time>
      </trkpt>
      <trkpt lat="47.42156" lon="6.8033">
        <ele>524</ele>
        <time>2015-03-15T09:37:08.000Z</time>
      </trkpt>
      <trkpt lat="47.42164" lon="6.80341">
        <ele>522</ele>
        <time>2015-03-15T09:37:09.000Z</time>
      </trkpt>
      <trkpt lat="47.4217" lon="6.80351">
        <ele>522</ele>
        <time>2015-03-15T09:37:10.000Z</time>
      </trkpt>
      <trkpt lat="47.42175" lon="6.8036">
        <ele>521</ele>
        <time>2015-03-15T09:37:11.000Z</time>
      </trkpt>
      <trkpt lat="47.42181" lon="6.80367">
        <ele>521</ele>
        <time>2015-03-15T09:37:12.000Z</time>
      </trkpt>
      <trkpt lat="47.42186" lon="6.80374">
        <ele>521</ele>
        <time>2015-03-15T09:37:13.000Z</time>
      </trkpt>
      <trkpt lat="47.42189" lon="6.80383">
        <ele>520</ele>
        <time>2015-03-15T09:37:14.000Z</time>
      </trkpt>
      <trkpt lat="47.42195" lon="6.80392">
        <ele>520</ele>
        <time>2015-03-15T09:37:15.000Z</time>
      </trkpt>
      <trkpt lat="47.42199" lon="6.80402">
        <ele>520</ele>
        <time>2015-03-15T09:37:16.000Z</time>
      </trkpt>
      <trkpt lat="47.42206" lon="6.80415">
        <ele>520</ele>
        <time>2015-03-15T09:37:17.000Z</time>
      </trkpt>
      <trkpt lat="47.42211" lon="6.80424">
        <ele>515</ele>
        <time>2015-03-15T09:37:18.000Z</time>
      </trkpt>
      <trkpt lat="47.42218" lon="6.80432">
        <ele>515</ele>
        <time>2015-03-15T09:37:19.000Z</time>
      </trkpt>
      <trkpt lat="47.42224" lon="6.80445">
        <ele>515</ele>
        <time>2015-03-15T09:37:20.000Z</time>
      </trkpt>
      <trkpt lat="47.42229" lon="6.80455">
        <ele>514</ele>
        <time>2015-03-15T09:37:21.000Z</time>
      </trkpt>
      <trkpt lat="47.42237" lon="6.80466">
        <ele>513</ele>
        <time>2015-03-15T09:37:22.000Z</time>
      </trkpt>
      <trkpt lat="47.42244" lon="6.80477">
        <ele>512</ele>
        <time>2015-03-15T09:37:23.000Z</time>
      </trkpt>
      <trkpt lat="47.42251" lon="6.80487">
        <ele>512</ele>
        <time>2015-03-15T09:37:24.000Z</time>
      </trkpt>
      <trkpt lat="47.42258" lon="6.80498">
        <ele>511</ele>
        <time>2015-03-15T09:37:25.000Z</time>
      </trkpt>
      <trkpt lat="47.42263" lon="6.80506">
        <ele>508</ele>
        <time>2015-03-15T09:37:26.000Z</time>
      </trkpt>
      <trkpt lat="47.42269" lon="6.80516">
        <ele>508</ele>
        <time>2015-03-15T09:37:27.000Z</time>
      </trkpt>
      <trkpt lat="47.42274" lon="6.80526">
        <ele>507</ele>
        <time>2015-03-15T09:37:28.000Z</time>
      </trkpt>
      <trkpt lat="47.42279" lon="6.80537">
        <ele>507</ele>
        <time>2015-03-15T09:37:29.000Z</time>
      </trkpt>
      <trkpt lat="47.42281" lon="6.80547">
        <ele>506</ele>
        <time>2015-03-15T09:37:30.000Z</time>
      </trkpt>
      <trkpt lat="47.42289" lon="6.80557">
        <ele>506</ele>
        <time>2015-03-15T09:37:31.000Z</time>
      </trkpt>
      <trkpt lat="47.42293" lon="6.80566">
        <ele>505</ele>
        <time>2015-03-15T09:37:32.000Z</time>
      </trkpt>
      <trkpt lat="47.42298" lon="6.80572">
        <ele>506</ele>
        <time>2015-03-15T09:37:33.000Z</time>
      </trkpt>
      <trkpt lat="47.42302" lon="6.80579">
        <ele>506</ele>
        <time>2015-03-15T09:37:34.000Z</time>
      </trkpt>
      <trkpt lat="47.42303" lon="6.80584">
        <ele>500</ele>
        <time>2015-03-15T09:37:35.000Z</time>
      </trkpt>
      <trkpt lat="47.42306" lon="6.80594">
        <ele>500</ele>
        <time>2015-03-15T09:37:36.000Z</time>
      </trkpt>
      <trkpt lat="47.42314" lon="6.80602">
        <ele>501</ele>
        <time>2015-03-15T09:37:37.000Z</time>
      </trkpt>
      <trkpt lat="47.42321" lon="6.80613">
        <ele>500</ele>
        <time>2015-03-15T09:37:38.000Z</time>
      </trkpt>
      <trkpt lat="47.42325" lon="6.80623">
        <ele>500</ele>
        <time>2015-03-15T09:37:39.000Z</time>
      </trkpt>
      <trkpt lat="47.42329" lon="6.80629">
        <ele>499</ele>
        <time>2015-03-15T09:37:40.000Z</time>
      </trkpt>
      <trkpt lat="47.42332" lon="6.80634">
        <ele>499</ele>
        <time>2015-03-15T09:37:41.000Z</time>
      </trkpt>
      <trkpt lat="47.42335" lon="6.80645">
        <ele>502</ele>
        <time>2015-03-15T09:37:42.000Z</time>
      </trkpt>
      <trkpt lat="47.42337" lon="6.80654">
        <ele>501</ele>
        <time>2015-03-15T09:37:43.000Z</time>
      </trkpt>
      <trkpt lat="47.42339" lon="6.80662">
        <ele>501</ele>
        <time>2015-03-15T09:37:43.999Z</time>
      </trkpt>
      <trkpt lat="47.4235" lon="6.80668">
        <ele>500</ele>
        <time>2015-03-15T09:37:45.000Z</time>
      </trkpt>
      <trkpt lat="47.42353" lon="6.80674">
        <ele>500</ele>
        <time>2015-03-15T09:37:46.000Z</time>
      </trkpt>
      <trkpt lat="47.4236" lon="6.8067">
        <ele>501</ele>
        <time>2015-03-15T09:37:47.000Z</time>
      </trkpt>
      <trkpt lat="47.42363" lon="6.80673">
        <ele>501</ele>
        <time>2015-03-15T09:37:48.000Z</time>
      </trkpt>
      <trkpt lat="47.42366" lon="6.80675">
        <ele>501</ele>
        <time>2015-03-15T09:37:49.000Z</time>
      </trkpt>
      <trkpt lat="47.42367" lon="6.80677">
        <ele>501</ele>
        <time>2015-03-15T09:37:50.000Z</time>
      </trkpt>
      <trkpt lat="47.42369" lon="6.80681">
        <ele>501</ele>
        <time>2015-03-15T09:37:51.000Z</time>
      </trkpt>
      <trkpt lat="47.42377" lon="6.80685">
        <ele>502</ele>
        <time>2015-03-15T09:37:52.000Z</time>
      </trkpt>
      <trkpt lat="47.4238" lon="6.80686">
        <ele>502</ele>
        <time>2015-03-15T09:37:54.001Z</time>
      </trkpt>
      <trkpt lat="47.42382" lon="6.80685">
        <ele>502</ele>
        <time>2015-03-15T09:37:55.000Z</time>
      </trkpt>
      <trkpt lat="47.42383" lon="6.80688">
        <ele>502</ele>
        <time>2015-03-15T09:37:57.000Z</time>
      </trkpt>
      <trkpt lat="47.42384" lon="6.80691">
        <ele>502</ele>
        <time>2015-03-15T09:37:58.000Z</time>
      </trkpt>
      <trkpt lat="47.42385" lon="6.80694">
        <ele>502</ele>
        <time>2015-03-15T09:37:59.000Z</time>
      </trkpt>
      <trkpt lat="47.42386" lon="6.80698">
        <ele>502</ele>
        <time>2015-03-15T09:38:00.000Z</time>
      </trkpt>
      <trkpt lat="47.42387" lon="6.80702">
        <ele>502</ele>
        <time>2015-03-15T09:38:01.000Z</time>
      </trkpt>
      <trkpt lat="47.42389" lon="6.80706">
        <ele>502</ele>
        <time>2015-03-15T09:38:02.000Z</time>
      </trkpt>
      <trkpt lat="47.4239" lon="6.8071">
        <ele>502</ele>
        <time>2015-03-15T09:38:03.000Z</time>
      </trkpt>
      <trkpt lat="47.42392" lon="6.80714">
        <ele>502</ele>
        <time>2015-03-15T09:38:04.000Z</time>
      </trkpt>
      <trkpt lat="47.42395" lon="6.80718">
        <ele>502</ele>
        <time>2015-03-15T09:38:05.000Z</time>
      </trkpt>
      <trkpt lat="47.42397" lon="6.80722">
        <ele>502</ele>
        <time>2015-03-15T09:38:06.000Z</time>
      </trkpt>
      <trkpt lat="47.424" lon="6.80727">
        <ele>503</ele>
        <time>2015-03-15T09:38:07.000Z</time>
      </trkpt>
      <trkpt lat="47.42404" lon="6.80732">
        <ele>503</ele>
        <time>2015-03-15T09:38:08.000Z</time>
      </trkpt>
      <trkpt lat="47.42406" lon="6.80736">
        <ele>503</ele>
        <time>2015-03-15T09:38:09.000Z</time>
      </trkpt>
      <trkpt lat="47.42409" lon="6.80741">
        <ele>504</ele>
        <time>2015-03-15T09:38:10.000Z</time>
      </trkpt>
      <trkpt lat="47.42412" lon="6.80744">
        <ele>505</ele>
        <time>2015-03-15T09:38:11.000Z</time>
      </trkpt>
      <trkpt lat="47.42414" lon="6.80748">
        <ele>505</ele>
        <time>2015-03-15T09:38:12.000Z</time>
      </trkpt>
      <trkpt lat="47.42417" lon="6.80752">
        <ele>505</ele>
        <time>2015-03-15T09:38:13.000Z</time>
      </trkpt>
      <trkpt lat="47.4242" lon="6.80756">
        <ele>504</ele>
        <time>2015-03-15T09:38:14.000Z</time>
      </trkpt>
      <trkpt lat="47.42422" lon="6.80761">
        <ele>503</ele>
        <time>2015-03-15T09:38:15.000Z</time>
      </trkpt>
      <trkpt lat="47.42426" lon="6.80766">
        <ele>502</ele>
        <time>2015-03-15T09:38:16.000Z</time>
      </trkpt>
      <trkpt lat="47.4243" lon="6.80772">
        <ele>501</ele>
        <time>2015-03-15T09:38:17.000Z</time>
      </trkpt>
      <trkpt lat="47.42435" lon="6.80779">
        <ele>500</ele>
        <time>2015-03-15T09:38:18.000Z</time>
      </trkpt>
      <trkpt lat="47.42452" lon="6.80794">
        <ele>499</ele>
        <time>2015-03-15T09:38:19.000Z</time>
      </trkpt>
      <trkpt lat="47.42459" lon="6.80803">
        <ele>499</ele>
        <time>2015-03-15T09:38:20.000Z</time>
      </trkpt>
      <trkpt lat="47.42465" lon="6.8081">
        <ele>499</ele>
        <time>2015-03-15T09:38:21.000Z</time>
      </trkpt>
      <trkpt lat="47.42473" lon="6.80818">
        <ele>499</ele>
        <time>2015-03-15T09:38:22.000Z</time>
      </trkpt>
      <trkpt lat="47.42481" lon="6.80829">
        <ele>499</ele>
        <time>2015-03-15T09:38:23.000Z</time>
      </trkpt>
      <trkpt lat="47.42488" lon="6.8084">
        <ele>499</ele>
        <time>2015-03-15T09:38:24.000Z</time>
      </trkpt>
      <trkpt lat="47.42493" lon="6.8085">
        <ele>499</ele>
        <time>2015-03-15T09:38:25.000Z</time>
      </trkpt>
      <trkpt lat="47.42499" lon="6.80856">
        <ele>499</ele>
        <time>2015-03-15T09:38:26.000Z</time>
      </trkpt>
      <trkpt lat="47.42505" lon="6.80862">
        <ele>498</ele>
        <time>2015-03-15T09:38:27.000Z</time>
      </trkpt>
      <trkpt lat="47.42507" lon="6.80878">
        <ele>497</ele>
        <time>2015-03-15T09:38:28.000Z</time>
      </trkpt>
      <trkpt lat="47.42513" lon="6.80884">
        <ele>497</ele>
        <time>2015-03-15T09:38:29.000Z</time>
      </trkpt>
      <trkpt lat="47.42522" lon="6.80889">
        <ele>497</ele>
        <time>2015-03-15T09:38:30.000Z</time>
      </trkpt>
      <trkpt lat="47.42528" lon="6.80895">
        <ele>497</ele>
        <time>2015-03-15T09:38:31.000Z</time>
      </trkpt>
      <trkpt lat="47.42534" lon="6.80901">
        <ele>497</ele>
        <time>2015-03-15T09:38:32.000Z</time>
      </trkpt>
      <trkpt lat="47.42542" lon="6.80906">
        <ele>496</ele>
        <time>2015-03-15T09:38:33.000Z</time>
      </trkpt>
      <trkpt lat="47.4255" lon="6.80912">
        <ele>496</ele>
        <time>2015-03-15T09:38:34.000Z</time>
      </trkpt>
      <trkpt lat="47.42556" lon="6.8092">
        <ele>494</ele>
        <time>2015-03-15T09:38:35.000Z</time>
      </trkpt>
      <trkpt lat="47.42563" lon="6.80923">
        <ele>494</ele>
        <time>2015-03-15T09:38:36.000Z</time>
      </trkpt>
      <trkpt lat="47.4258" lon="6.80924">
        <ele>494</ele>
        <time>2015-03-15T09:38:37.000Z</time>
      </trkpt>
      <trkpt lat="47.42587" lon="6.80931">
        <ele>491</ele>
        <time>2015-03-15T09:38:38.000Z</time>
      </trkpt>
      <trkpt lat="47.42592" lon="6.80937">
        <ele>490</ele>
        <time>2015-03-15T09:38:39.000Z</time>
      </trkpt>
      <trkpt lat="47.42601" lon="6.80941">
        <ele>489</ele>
        <time>2015-03-15T09:38:40.000Z</time>
      </trkpt>
      <trkpt lat="47.42609" lon="6.8094">
        <ele>488</ele>
        <time>2015-03-15T09:38:41.000Z</time>
      </trkpt>
      <trkpt lat="47.42611" lon="6.80943">
        <ele>488</ele>
        <time>2015-03-15T09:38:42.000Z</time>
      </trkpt>
      <trkpt lat="47.42616" lon="6.80945">
        <ele>488</ele>
        <time>2015-03-15T09:38:43.000Z</time>
      </trkpt>
      <trkpt lat="47.42618" lon="6.8095">
        <ele>487</ele>
        <time>2015-03-15T09:38:43.999Z</time>
      </trkpt>
      <trkpt lat="47.42624" lon="6.80954">
        <ele>487</ele>
        <time>2015-03-15T09:38:45.000Z</time>
      </trkpt>
      <trkpt lat="47.42628" lon="6.80957">
        <ele>487</ele>
        <time>2015-03-15T09:38:46.000Z</time>
      </trkpt>
      <trkpt lat="47.42634" lon="6.80961">
        <ele>486</ele>
        <time>2015-03-15T09:38:47.001Z</time>
      </trkpt>
      <trkpt lat="47.42637" lon="6.80961">
        <ele>486</ele>
        <time>2015-03-15T09:38:48.000Z</time>
      </trkpt>
      <trkpt lat="47.42642" lon="6.80964">
        <ele>486</ele>
        <time>2015-03-15T09:38:49.000Z</time>
      </trkpt>
      <trkpt lat="47.42645" lon="6.80965">
        <ele>486</ele>
        <time>2015-03-15T09:38:50.000Z</time>
      </trkpt>
      <trkpt lat="47.42648" lon="6.80966">
        <ele>486</ele>
        <time>2015-03-15T09:38:51.000Z</time>
      </trkpt>
      <trkpt lat="47.42652" lon="6.80969">
        <ele>486</ele>
        <time>2015-03-15T09:38:53.000Z</time>
      </trkpt>
      <trkpt lat="47.42654" lon="6.8097">
        <ele>485</ele>
        <time>2015-03-15T09:38:54.000Z</time>
      </trkpt>
      <trkpt lat="47.42656" lon="6.80972">
        <ele>485</ele>
        <time>2015-03-15T09:38:55.000Z</time>
      </trkpt>
      <trkpt lat="47.42658" lon="6.80974">
        <ele>485</ele>
        <time>2015-03-15T09:38:56.000Z</time>
      </trkpt>
      <trkpt lat="47.4266" lon="6.80976">
        <ele>485</ele>
        <time>2015-03-15T09:38:57.000Z</time>
      </trkpt>
      <trkpt lat="47.42662" lon="6.80978">
        <ele>485</ele>
        <time>2015-03-15T09:38:58.000Z</time>
      </trkpt>
      <trkpt lat="47.42665" lon="6.80979">
        <ele>485</ele>
        <time>2015-03-15T09:38:59.000Z</time>
      </trkpt>
      <trkpt lat="47.42667" lon="6.80981">
        <ele>483</ele>
        <time>2015-03-15T09:39:00.000Z</time>
      </trkpt>
      <trkpt lat="47.4267" lon="6.80982">
        <ele>483</ele>
        <time>2015-03-15T09:39:01.000Z</time>
      </trkpt>
      <trkpt lat="47.42673" lon="6.80984">
        <ele>483</ele>
        <time>2015-03-15T09:39:02.000Z</time>
      </trkpt>
      <trkpt lat="47.42676" lon="6.80987">
        <ele>483</ele>
        <time>2015-03-15T09:39:03.002Z</time>
      </trkpt>
      <trkpt lat="47.42679" lon="6.8099">
        <ele>483</ele>
        <time>2015-03-15T09:39:04.000Z</time>
      </trkpt>
      <trkpt lat="47.42681" lon="6.80992">
        <ele>483</ele>
        <time>2015-03-15T09:39:05.000Z</time>
      </trkpt>
      <trkpt lat="47.42683" lon="6.80995">
        <ele>483</ele>
        <time>2015-03-15T09:39:06.000Z</time>
      </trkpt>
      <trkpt lat="47.42685" lon="6.80997">
        <ele>483</ele>
        <time>2015-03-15T09:39:07.000Z</time>
      </trkpt>
      <trkpt lat="47.42687" lon="6.81">
        <ele>483</ele>
        <time>2015-03-15T09:39:08.000Z</time>
      </trkpt>
      <trkpt lat="47.42688" lon="6.81003">
        <ele>480</ele>
        <time>2015-03-15T09:39:09.000Z</time>
      </trkpt>
      <trkpt lat="47.4269" lon="6.81005">
        <ele>480</ele>
        <time>2015-03-15T09:39:10.000Z</time>
      </trkpt>
      <trkpt lat="47.42692" lon="6.81008">
        <ele>480</ele>
        <time>2015-03-15T09:39:11.000Z</time>
      </trkpt>
      <trkpt lat="47.42695" lon="6.81011">
        <ele>480</ele>
        <time>2015-03-15T09:39:12.000Z</time>
      </trkpt>
      <trkpt lat="47.42697" lon="6.81014">
        <ele>479</ele>
        <time>2015-03-15T09:39:13.000Z</time>
      </trkpt>
      <trkpt lat="47.427" lon="6.81016">
        <ele>479</ele>
        <time>2015-03-15T09:39:14.000Z</time>
      </trkpt>
      <trkpt lat="47.42702" lon="6.81018">
        <ele>479</ele>
        <time>2015-03-15T09:39:15.000Z</time>
      </trkpt>
      <trkpt lat="47.42704" lon="6.8102">
        <ele>479</ele>
        <time>2015-03-15T09:39:16.000Z</time>
      </trkpt>
      <trkpt lat="47.42706" lon="6.81023">
        <ele>479</ele>
        <time>2015-03-15T09:39:17.000Z</time>
      </trkpt>
      <trkpt lat="47.42708" lon="6.81026">
        <ele>479</ele>
        <time>2015-03-15T09:39:18.000Z</time>
      </trkpt>
      <trkpt lat="47.4271" lon="6.81028">
        <ele>479</ele>
        <time>2015-03-15T09:39:19.000Z</time>
      </trkpt>
      <trkpt lat="47.42712" lon="6.81031">
        <ele>478</ele>
        <time>2015-03-15T09:39:20.000Z</time>
      </trkpt>
      <trkpt lat="47.42714" lon="6.81034">
        <ele>478</ele>
        <time>2015-03-15T09:39:21.000Z</time>
      </trkpt>
      <trkpt lat="47.42716" lon="6.81036">
        <ele>478</ele>
        <time>2015-03-15T09:39:22.000Z</time>
      </trkpt>
      <trkpt lat="47.42719" lon="6.81039">
        <ele>478</ele>
        <time>2015-03-15T09:39:23.000Z</time>
      </trkpt>
      <trkpt lat="47.42722" lon="6.81042">
        <ele>478</ele>
        <time>2015-03-15T09:39:24.000Z</time>
      </trkpt>
      <trkpt lat="47.42726" lon="6.81045">
        <ele>478</ele>
        <time>2015-03-15T09:39:25.000Z</time>
      </trkpt>
      <trkpt lat="47.42729" lon="6.81049">
        <ele>477</ele>
        <time>2015-03-15T09:39:26.000Z</time>
      </trkpt>
      <trkpt lat="47.42732" lon="6.81053">
        <ele>477</ele>
        <time>2015-03-15T09:39:27.000Z</time>
      </trkpt>
      <trkpt lat="47.42736" lon="6.81058">
        <ele>477</ele>
        <time>2015-03-15T09:39:28.000Z</time>
      </trkpt>
      <trkpt lat="47.42739" lon="6.81062">
        <ele>476</ele>
        <time>2015-03-15T09:39:29.000Z</time>
      </trkpt>
      <trkpt lat="47.42743" lon="6.81067">
        <ele>476</ele>
        <time>2015-03-15T09:39:30.000Z</time>
      </trkpt>
      <trkpt lat="47.42746" lon="6.81071">
        <ele>475</ele>
        <time>2015-03-15T09:39:31.000Z</time>
      </trkpt>
      <trkpt lat="47.42749" lon="6.81076">
        <ele>475</ele>
        <time>2015-03-15T09:39:32.000Z</time>
      </trkpt>
      <trkpt lat="47.42752" lon="6.81081">
        <ele>475</ele>
        <time>2015-03-15T09:39:33.000Z</time>
      </trkpt>
      <trkpt lat="47.42755" lon="6.81086">
        <ele>473</ele>
        <time>2015-03-15T09:39:34.000Z</time>
      </trkpt>
      <trkpt lat="47.42758" lon="6.8109">
        <ele>473</ele>
        <time>2015-03-15T09:39:35.000Z</time>
      </trkpt>
      <trkpt lat="47.4276" lon="6.81094">
        <ele>473</ele>
        <time>2015-03-15T09:39:36.000Z</time>
      </trkpt>
      <trkpt lat="47.42763" lon="6.81098">
        <ele>472</ele>
        <time>2015-03-15T09:39:37.000Z</time>
      </trkpt>
      <trkpt lat="47.42767" lon="6.81103">
        <ele>472</ele>
        <time>2015-03-15T09:39:38.000Z</time>
      </trkpt>
      <trkpt lat="47.42771" lon="6.81107">
        <ele>472</ele>
        <time>2015-03-15T09:39:39.000Z</time>
      </trkpt>
      <trkpt lat="47.42775" lon="6.81112">
        <ele>471</ele>
        <time>2015-03-15T09:39:40.000Z</time>
      </trkpt>
      <trkpt lat="47.42778" lon="6.81116">
        <ele>471</ele>
        <time>2015-03-15T09:39:41.000Z</time>
      </trkpt>
      <trkpt lat="47.42781" lon="6.81119">
        <ele>471</ele>
        <time>2015-03-15T09:39:42.000Z</time>
      </trkpt>
      <trkpt lat="47.42784" lon="6.81122">
        <ele>471</ele>
        <time>2015-03-15T09:39:43.000Z</time>
      </trkpt>
      <trkpt lat="47.42788" lon="6.81125">
        <ele>471</ele>
        <time>2015-03-15T09:39:44.000Z</time>
      </trkpt>
      <trkpt lat="47.42791" lon="6.81127">
        <ele>471</ele>
        <time>2015-03-15T09:39:45.001Z</time>
      </trkpt>
      <trkpt lat="47.42794" lon="6.81129">
        <ele>471</ele>
        <time>2015-03-15T09:39:46.000Z</time>
      </trkpt>
      <trkpt lat="47.42796" lon="6.81132">
        <ele>471</ele>
        <time>2015-03-15T09:39:47.000Z</time>
      </trkpt>
      <trkpt lat="47.42799" lon="6.81135">
        <ele>471</ele>
        <time>2015-03-15T09:39:48.000Z</time>
      </trkpt>
      <trkpt lat="47.42802" lon="6.8114">
        <ele>471</ele>
        <time>2015-03-15T09:39:49.000Z</time>
      </trkpt>
      <trkpt lat="47.42803" lon="6.81143">
        <ele>471</ele>
        <time>2015-03-15T09:39:50.000Z</time>
      </trkpt>
      <trkpt lat="47.4281" lon="6.8115">
        <ele>471</ele>
        <time>2015-03-15T09:39:51.000Z</time>
      </trkpt>
      <trkpt lat="47.42814" lon="6.81156">
        <ele>471</ele>
        <time>2015-03-15T09:39:52.000Z</time>
      </trkpt>
      <trkpt lat="47.42817" lon="6.81161">
        <ele>471</ele>
        <time>2015-03-15T09:39:53.000Z</time>
      </trkpt>
      <trkpt lat="47.42819" lon="6.81166">
        <ele>471</ele>
        <time>2015-03-15T09:39:54.000Z</time>
      </trkpt>
      <trkpt lat="47.4282" lon="6.8117">
        <ele>467</ele>
        <time>2015-03-15T09:39:55.001Z</time>
      </trkpt>
      <trkpt lat="47.42822" lon="6.81178">
        <ele>467</ele>
        <time>2015-03-15T09:39:56.000Z</time>
      </trkpt>
      <trkpt lat="47.42826" lon="6.81185">
        <ele>466</ele>
        <time>2015-03-15T09:39:57.000Z</time>
      </trkpt>
      <trkpt lat="47.4283" lon="6.81192">
        <ele>465</ele>
        <time>2015-03-15T09:39:58.000Z</time>
      </trkpt>
      <trkpt lat="47.42838" lon="6.81201">
        <ele>468</ele>
        <time>2015-03-15T09:39:59.000Z</time>
      </trkpt>
      <trkpt lat="47.42842" lon="6.81207">
        <ele>468</ele>
        <time>2015-03-15T09:40:00.000Z</time>
      </trkpt>
      <trkpt lat="47.42845" lon="6.81213">
        <ele>467</ele>
        <time>2015-03-15T09:40:01.000Z</time>
      </trkpt>
      <trkpt lat="47.42847" lon="6.8122">
        <ele>467</ele>
        <time>2015-03-15T09:40:02.000Z</time>
      </trkpt>
      <trkpt lat="47.42849" lon="6.81226">
        <ele>466</ele>
        <time>2015-03-15T09:40:03.000Z</time>
      </trkpt>
      <trkpt lat="47.42851" lon="6.81231">
        <ele>466</ele>
        <time>2015-03-15T09:40:04.000Z</time>
      </trkpt>
      <trkpt lat="47.42854" lon="6.81235">
        <ele>466</ele>
        <time>2015-03-15T09:40:05.000Z</time>
      </trkpt>
      <trkpt lat="47.42856" lon="6.81239">
        <ele>466</ele>
        <time>2015-03-15T09:40:06.000Z</time>
      </trkpt>
      <trkpt lat="47.42859" lon="6.81243">
        <ele>466</ele>
        <time>2015-03-15T09:40:07.000Z</time>
      </trkpt>
      <trkpt lat="47.42862" lon="6.81247">
        <ele>466</ele>
        <time>2015-03-15T09:40:08.000Z</time>
      </trkpt>
      <trkpt lat="47.42865" lon="6.81252">
        <ele>462</ele>
        <time>2015-03-15T09:40:09.000Z</time>
      </trkpt>
      <trkpt lat="47.42868" lon="6.81257">
        <ele>462</ele>
        <time>2015-03-15T09:40:10.000Z</time>
      </trkpt>
      <trkpt lat="47.4287" lon="6.81263">
        <ele>462</ele>
        <time>2015-03-15T09:40:11.000Z</time>
      </trkpt>
      <trkpt lat="47.42869" lon="6.81281">
        <ele>461</ele>
        <time>2015-03-15T09:40:12.000Z</time>
      </trkpt>
      <trkpt lat="47.42868" lon="6.81288">
        <ele>460</ele>
        <time>2015-03-15T09:40:13.000Z</time>
      </trkpt>
      <trkpt lat="47.4287" lon="6.81292">
        <ele>460</ele>
        <time>2015-03-15T09:40:14.000Z</time>
      </trkpt>
      <trkpt lat="47.42873" lon="6.81293">
        <ele>460</ele>
        <time>2015-03-15T09:40:15.000Z</time>
      </trkpt>
      <trkpt lat="47.42876" lon="6.81298">
        <ele>460</ele>
        <time>2015-03-15T09:40:16.000Z</time>
      </trkpt>
      <trkpt lat="47.42881" lon="6.813">
        <ele>460</ele>
        <time>2015-03-15T09:40:17.000Z</time>
      </trkpt>
      <trkpt lat="47.42885" lon="6.81303">
        <ele>460</ele>
        <time>2015-03-15T09:40:18.000Z</time>
      </trkpt>
      <trkpt lat="47.42888" lon="6.81306">
        <ele>461</ele>
        <time>2015-03-15T09:40:19.000Z</time>
      </trkpt>
      <trkpt lat="47.42892" lon="6.8131">
        <ele>461</ele>
        <time>2015-03-15T09:40:20.000Z</time>
      </trkpt>
      <trkpt lat="47.42894" lon="6.81313">
        <ele>461</ele>
        <time>2015-03-15T09:40:21.000Z</time>
      </trkpt>
      <trkpt lat="47.42896" lon="6.81314">
        <ele>461</ele>
        <time>2015-03-15T09:40:22.000Z</time>
      </trkpt>
      <trkpt lat="47.42899" lon="6.81316">
        <ele>461</ele>
        <time>2015-03-15T09:40:24.000Z</time>
      </trkpt>
      <trkpt lat="47.42901" lon="6.81317">
        <ele>461</ele>
        <time>2015-03-15T09:40:25.000Z</time>
      </trkpt>
      <trkpt lat="47.42904" lon="6.8132">
        <ele>461</ele>
        <time>2015-03-15T09:40:28.000Z</time>
      </trkpt>
      <trkpt lat="47.42906" lon="6.81321">
        <ele>461</ele>
        <time>2015-03-15T09:40:29.000Z</time>
      </trkpt>
      <trkpt lat="47.42908" lon="6.81324">
        <ele>461</ele>
        <time>2015-03-15T09:40:31.000Z</time>
      </trkpt>
      <trkpt lat="47.4291" lon="6.81326">
        <ele>461</ele>
        <time>2015-03-15T09:40:32.000Z</time>
      </trkpt>
      <trkpt lat="47.42913" lon="6.81329">
        <ele>462</ele>
        <time>2015-03-15T09:40:34.000Z</time>
      </trkpt>
      <trkpt lat="47.42914" lon="6.81331">
        <ele>462</ele>
        <time>2015-03-15T09:40:35.000Z</time>
      </trkpt>
      <trkpt lat="47.42917" lon="6.81334">
        <ele>462</ele>
        <time>2015-03-15T09:40:37.000Z</time>
      </trkpt>
      <trkpt lat="47.42918" lon="6.81335">
        <ele>462</ele>
        <time>2015-03-15T09:40:38.000Z</time>
      </trkpt>
      <trkpt lat="47.42921" lon="6.81339">
        <ele>462</ele>
        <time>2015-03-15T09:40:40.000Z</time>
      </trkpt>
      <trkpt lat="47.42922" lon="6.81341">
        <ele>462</ele>
        <time>2015-03-15T09:40:41.000Z</time>
      </trkpt>
      <trkpt lat="47.42924" lon="6.81344">
        <ele>462</ele>
        <time>2015-03-15T09:40:43.000Z</time>
      </trkpt>
      <trkpt lat="47.42925" lon="6.81346">
        <ele>462</ele>
        <time>2015-03-15T09:40:44.000Z</time>
      </trkpt>
      <trkpt lat="47.42928" lon="6.81349">
        <ele>462</ele>
        <time>2015-03-15T09:40:46.000Z</time>
      </trkpt>
      <trkpt lat="47.42929" lon="6.81351">
        <ele>461</ele>
        <time>2015-03-15T09:40:47.000Z</time>
      </trkpt>
      <trkpt lat="47.42931" lon="6.81356">
        <ele>461</ele>
        <time>2015-03-15T09:40:49.000Z</time>
      </trkpt>
      <trkpt lat="47.42932" lon="6.81358">
        <ele>461</ele>
        <time>2015-03-15T09:40:50.000Z</time>
      </trkpt>
      <trkpt lat="47.42935" lon="6.81363">
        <ele>461</ele>
        <time>2015-03-15T09:40:52.000Z</time>
      </trkpt>
      <trkpt lat="47.42936" lon="6.81366">
        <ele>461</ele>
        <time>2015-03-15T09:40:53.000Z</time>
      </trkpt>
      <trkpt lat="47.42938" lon="6.81369">
        <ele>461</ele>
        <time>2015-03-15T09:40:54.000Z</time>
      </trkpt>
      <trkpt lat="47.42939" lon="6.81372">
        <ele>461</ele>
        <time>2015-03-15T09:40:55.000Z</time>
      </trkpt>
      <trkpt lat="47.42941" lon="6.81375">
        <ele>461</ele>
        <time>2015-03-15T09:40:56.000Z</time>
      </trkpt>
      <trkpt lat="47.42943" lon="6.81378">
        <ele>461</ele>
        <time>2015-03-15T09:40:57.000Z</time>
      </trkpt>
      <trkpt lat="47.42945" lon="6.81381">
        <ele>461</ele>
        <time>2015-03-15T09:40:58.000Z</time>
      </trkpt>
      <trkpt lat="47.42947" lon="6.81384">
        <ele>461</ele>
        <time>2015-03-15T09:40:59.000Z</time>
      </trkpt>
      <trkpt lat="47.42949" lon="6.81387">
        <ele>460</ele>
        <time>2015-03-15T09:41:00.000Z</time>
      </trkpt>
      <trkpt lat="47.42951" lon="6.8139">
        <ele>460</ele>
        <time>2015-03-15T09:41:01.000Z</time>
      </trkpt>
      <trkpt lat="47.42953" lon="6.81394">
        <ele>460</ele>
        <time>2015-03-15T09:41:02.000Z</time>
      </trkpt>
      <trkpt lat="47.42955" lon="6.81398">
        <ele>460</ele>
        <time>2015-03-15T09:41:03.000Z</time>
      </trkpt>
      <trkpt lat="47.42957" lon="6.81402">
        <ele>461</ele>
        <time>2015-03-15T09:41:04.000Z</time>
      </trkpt>
      <trkpt lat="47.42959" lon="6.81406">
        <ele>461</ele>
        <time>2015-03-15T09:41:05.000Z</time>
      </trkpt>
      <trkpt lat="47.42961" lon="6.8141">
        <ele>461</ele>
        <time>2015-03-15T09:41:06.000Z</time>
      </trkpt>
      <trkpt lat="47.42963" lon="6.81413">
        <ele>461</ele>
        <time>2015-03-15T09:41:07.000Z</time>
      </trkpt>
      <trkpt lat="47.42965" lon="6.81416">
        <ele>461</ele>
        <time>2015-03-15T09:41:08.000Z</time>
      </trkpt>
      <trkpt lat="47.42968" lon="6.8142">
        <ele>457</ele>
        <time>2015-03-15T09:41:09.000Z</time>
      </trkpt>
      <trkpt lat="47.42971" lon="6.81425">
        <ele>457</ele>
        <time>2015-03-15T09:41:10.000Z</time>
      </trkpt>
      <trkpt lat="47.42973" lon="6.81429">
        <ele>457</ele>
        <time>2015-03-15T09:41:11.000Z</time>
      </trkpt>
      <trkpt lat="47.42976" lon="6.81433">
        <ele>457</ele>
        <time>2015-03-15T09:41:12.000Z</time>
      </trkpt>
      <trkpt lat="47.42979" lon="6.81436">
        <ele>457</ele>
        <time>2015-03-15T09:41:13.000Z</time>
      </trkpt>
      <trkpt lat="47.42981" lon="6.81438">
        <ele>457</ele>
        <time>2015-03-15T09:41:14.000Z</time>
      </trkpt>
      <trkpt lat="47.42984" lon="6.8144">
        <ele>457</ele>
        <time>2015-03-15T09:41:15.000Z</time>
      </trkpt>
      <trkpt lat="47.42986" lon="6.81442">
        <ele>457</ele>
        <time>2015-03-15T09:41:16.000Z</time>
      </trkpt>
      <trkpt lat="47.42988" lon="6.81444">
        <ele>457</ele>
        <time>2015-03-15T09:41:17.000Z</time>
      </trkpt>
      <trkpt lat="47.42989" lon="6.81447">
        <ele>457</ele>
        <time>2015-03-15T09:41:18.000Z</time>
      </trkpt>
      <trkpt lat="47.42992" lon="6.81451">
        <ele>457</ele>
        <time>2015-03-15T09:41:19.000Z</time>
      </trkpt>
      <trkpt lat="47.42996" lon="6.81455">
        <ele>456</ele>
        <time>2015-03-15T09:41:20.000Z</time>
      </trkpt>
      <trkpt lat="47.43" lon="6.8146">
        <ele>456</ele>
        <time>2015-03-15T09:41:21.000Z</time>
      </trkpt>
      <trkpt lat="47.43004" lon="6.81465">
        <ele>459</ele>
        <time>2015-03-15T09:41:22.000Z</time>
      </trkpt>
      <trkpt lat="47.43008" lon="6.81469">
        <ele>458</ele>
        <time>2015-03-15T09:41:23.000Z</time>
      </trkpt>
      <trkpt lat="47.43012" lon="6.81474">
        <ele>458</ele>
        <time>2015-03-15T09:41:24.000Z</time>
      </trkpt>
      <trkpt lat="47.43017" lon="6.81479">
        <ele>458</ele>
        <time>2015-03-15T09:41:25.000Z</time>
      </trkpt>
      <trkpt lat="47.4302" lon="6.81484">
        <ele>458</ele>
        <time>2015-03-15T09:41:26.000Z</time>
      </trkpt>
      <trkpt lat="47.43024" lon="6.81489">
        <ele>458</ele>
        <time>2015-03-15T09:41:27.000Z</time>
      </trkpt>
      <trkpt lat="47.43027" lon="6.81493">
        <ele>457</ele>
        <time>2015-03-15T09:41:28.000Z</time>
      </trkpt>
      <trkpt lat="47.43031" lon="6.81498">
        <ele>457</ele>
        <time>2015-03-15T09:41:29.000Z</time>
      </trkpt>
      <trkpt lat="47.43034" lon="6.81503">
        <ele>452</ele>
        <time>2015-03-15T09:41:30.000Z</time>
      </trkpt>
      <trkpt lat="47.43038" lon="6.81508">
        <ele>452</ele>
        <time>2015-03-15T09:41:31.000Z</time>
      </trkpt>
      <trkpt lat="47.4304" lon="6.81512">
        <ele>452</ele>
        <time>2015-03-15T09:41:32.000Z</time>
      </trkpt>
      <trkpt lat="47.43041" lon="6.81515">
        <ele>451</ele>
        <time>2015-03-15T09:41:33.000Z</time>
      </trkpt>
      <trkpt lat="47.4304" lon="6.81519">
        <ele>451</ele>
        <time>2015-03-15T09:41:36.000Z</time>
      </trkpt>
      <trkpt lat="47.43037" lon="6.81519">
        <ele>451</ele>
        <time>2015-03-15T09:41:37.000Z</time>
      </trkpt>
      <trkpt lat="47.43034" lon="6.81519">
        <ele>451</ele>
        <time>2015-03-15T09:41:38.000Z</time>
      </trkpt>
      <trkpt lat="47.43031" lon="6.81519">
        <ele>451</ele>
        <time>2015-03-15T09:41:39.000Z</time>
      </trkpt>
      <trkpt lat="47.43034" lon="6.81523">
        <ele>451</ele>
        <time>2015-03-15T09:41:51.000Z</time>
      </trkpt>
      <trkpt lat="47.43035" lon="6.81526">
        <ele>451</ele>
        <time>2015-03-15T09:41:52.000Z</time>
      </trkpt>
      <trkpt lat="47.43036" lon="6.81529">
        <ele>451</ele>
        <time>2015-03-15T09:41:53.000Z</time>
      </trkpt>
      <trkpt lat="47.43037" lon="6.81533">
        <ele>450</ele>
        <time>2015-03-15T09:41:54.000Z</time>
      </trkpt>
      <trkpt lat="47.43039" lon="6.81538">
        <ele>450</ele>
        <time>2015-03-15T09:41:55.000Z</time>
      </trkpt>
      <trkpt lat="47.43041" lon="6.81542">
        <ele>450</ele>
        <time>2015-03-15T09:41:56.000Z</time>
      </trkpt>
      <trkpt lat="47.43043" lon="6.81546">
        <ele>449</ele>
        <time>2015-03-15T09:41:57.000Z</time>
      </trkpt>
      <trkpt lat="47.43045" lon="6.8155">
        <ele>449</ele>
        <time>2015-03-15T09:41:58.000Z</time>
      </trkpt>
      <trkpt lat="47.43047" lon="6.81555">
        <ele>449</ele>
        <time>2015-03-15T09:41:59.000Z</time>
      </trkpt>
      <trkpt lat="47.43059" lon="6.81567">
        <ele>448</ele>
        <time>2015-03-15T09:42:00.000Z</time>
      </trkpt>
      <trkpt lat="47.43063" lon="6.81571">
        <ele>447</ele>
        <time>2015-03-15T09:42:01.000Z</time>
      </trkpt>
      <trkpt lat="47.43067" lon="6.81577">
        <ele>447</ele>
        <time>2015-03-15T09:42:02.000Z</time>
      </trkpt>
      <trkpt lat="47.43071" lon="6.8158">
        <ele>446</ele>
        <time>2015-03-15T09:42:03.000Z</time>
      </trkpt>
      <trkpt lat="47.43075" lon="6.81584">
        <ele>441</ele>
        <time>2015-03-15T09:42:04.000Z</time>
      </trkpt>
      <trkpt lat="47.43079" lon="6.81589">
        <ele>441</ele>
        <time>2015-03-15T09:42:05.000Z</time>
      </trkpt>
      <trkpt lat="47.43083" lon="6.81592">
        <ele>441</ele>
        <time>2015-03-15T09:42:05.998Z</time>
      </trkpt>
      <trkpt lat="47.43088" lon="6.81596">
        <ele>439</ele>
        <time>2015-03-15T09:42:07.000Z</time>
      </trkpt>
      <trkpt lat="47.43091" lon="6.81599">
        <ele>438</ele>
        <time>2015-03-15T09:42:08.000Z</time>
      </trkpt>
      <trkpt lat="47.43104" lon="6.81594">
        <ele>437</ele>
        <time>2015-03-15T09:42:09.001Z</time>
      </trkpt>
      <trkpt lat="47.4311" lon="6.81593">
        <ele>437</ele>
        <time>2015-03-15T09:42:10.000Z</time>
      </trkpt>
      <trkpt lat="47.43119" lon="6.81588">
        <ele>437</ele>
        <time>2015-03-15T09:42:11.000Z</time>
      </trkpt>
      <trkpt lat="47.43126" lon="6.81583">
        <ele>445</ele>
        <time>2015-03-15T09:42:12.000Z</time>
      </trkpt>
      <trkpt lat="47.43131" lon="6.81586">
        <ele>436</ele>
        <time>2015-03-15T09:42:13.001Z</time>
      </trkpt>
      <trkpt lat="47.43137" lon="6.81594">
        <ele>436</ele>
        <time>2015-03-15T09:42:14.000Z</time>
      </trkpt>
      <trkpt lat="47.43143" lon="6.81599">
        <ele>436</ele>
        <time>2015-03-15T09:42:15.000Z</time>
      </trkpt>
      <trkpt lat="47.43149" lon="6.81602">
        <ele>436</ele>
        <time>2015-03-15T09:42:16.000Z</time>
      </trkpt>
      <trkpt lat="47.43155" lon="6.81605">
        <ele>436</ele>
        <time>2015-03-15T09:42:17.000Z</time>
      </trkpt>
      <trkpt lat="47.43162" lon="6.81605">
        <ele>436</ele>
        <time>2015-03-15T09:42:18.000Z</time>
      </trkpt>
      <trkpt lat="47.43168" lon="6.81607">
        <ele>437</ele>
        <time>2015-03-15T09:42:19.000Z</time>
      </trkpt>
      <trkpt lat="47.43175" lon="6.81613">
        <ele>436</ele>
        <time>2015-03-15T09:42:20.000Z</time>
      </trkpt>
      <trkpt lat="47.4318" lon="6.81617">
        <ele>436</ele>
        <time>2015-03-15T09:42:21.000Z</time>
      </trkpt>
      <trkpt lat="47.43186" lon="6.81617">
        <ele>436</ele>
        <time>2015-03-15T09:42:22.000Z</time>
      </trkpt>
      <trkpt lat="47.43193" lon="6.81618">
        <ele>436</ele>
        <time>2015-03-15T09:42:23.000Z</time>
      </trkpt>
      <trkpt lat="47.43199" lon="6.8162">
        <ele>435</ele>
        <time>2015-03-15T09:42:24.000Z</time>
      </trkpt>
      <trkpt lat="47.43204" lon="6.81623">
        <ele>435</ele>
        <time>2015-03-15T09:42:25.000Z</time>
      </trkpt>
      <trkpt lat="47.43209" lon="6.81625">
        <ele>435</ele>
        <time>2015-03-15T09:42:26.000Z</time>
      </trkpt>
      <trkpt lat="47.43214" lon="6.81628">
        <ele>435</ele>
        <time>2015-03-15T09:42:27.000Z</time>
      </trkpt>
      <trkpt lat="47.4322" lon="6.81632">
        <ele>435</ele>
        <time>2015-03-15T09:42:28.000Z</time>
      </trkpt>
      <trkpt lat="47.43226" lon="6.81634">
        <ele>435</ele>
        <time>2015-03-15T09:42:29.000Z</time>
      </trkpt>
      <trkpt lat="47.43233" lon="6.81636">
        <ele>435</ele>
        <time>2015-03-15T09:42:30.000Z</time>
      </trkpt>
      <trkpt lat="47.4324" lon="6.8164">
        <ele>434</ele>
        <time>2015-03-15T09:42:31.000Z</time>
      </trkpt>
      <trkpt lat="47.43244" lon="6.81647">
        <ele>434</ele>
        <time>2015-03-15T09:42:32.000Z</time>
      </trkpt>
      <trkpt lat="47.43248" lon="6.81655">
        <ele>433</ele>
        <time>2015-03-15T09:42:33.000Z</time>
      </trkpt>
      <trkpt lat="47.43252" lon="6.81661">
        <ele>432</ele>
        <time>2015-03-15T09:42:34.000Z</time>
      </trkpt>
      <trkpt lat="47.43254" lon="6.81668">
        <ele>430</ele>
        <time>2015-03-15T09:42:35.000Z</time>
      </trkpt>
      <trkpt lat="47.4326" lon="6.81679">
        <ele>427</ele>
        <time>2015-03-15T09:42:36.000Z</time>
      </trkpt>
      <trkpt lat="47.43265" lon="6.81686">
        <ele>425</ele>
        <time>2015-03-15T09:42:37.000Z</time>
      </trkpt>
      <trkpt lat="47.43272" lon="6.81697">
        <ele>424</ele>
        <time>2015-03-15T09:42:38.000Z</time>
      </trkpt>
      <trkpt lat="47.43278" lon="6.81699">
        <ele>424</ele>
        <time>2015-03-15T09:42:39.000Z</time>
      </trkpt>
      <trkpt lat="47.43286" lon="6.81702">
        <ele>423</ele>
        <time>2015-03-15T09:42:40.000Z</time>
      </trkpt>
      <trkpt lat="47.43293" lon="6.81703">
        <ele>423</ele>
        <time>2015-03-15T09:42:41.000Z</time>
      </trkpt>
      <trkpt lat="47.43299" lon="6.81707">
        <ele>423</ele>
        <time>2015-03-15T09:42:42.000Z</time>
      </trkpt>
      <trkpt lat="47.43304" lon="6.81706">
        <ele>424</ele>
        <time>2015-03-15T09:42:43.000Z</time>
      </trkpt>
      <trkpt lat="47.4331" lon="6.81708">
        <ele>424</ele>
        <time>2015-03-15T09:42:44.000Z</time>
      </trkpt>
      <trkpt lat="47.43314" lon="6.8171">
        <ele>423</ele>
        <time>2015-03-15T09:42:54.000Z</time>
      </trkpt>
      <trkpt lat="47.43314" lon="6.8171">
        <ele>423</ele>
        <time>2015-03-15T09:42:55.000Z</time>
      </trkpt>
      <trkpt lat="47.43317" lon="6.81706">
        <ele>424</ele>
        <time>2015-03-15T09:43:02.000Z</time>
      </trkpt>
      <trkpt lat="47.43318" lon="6.81705">
        <ele>424</ele>
        <time>2015-03-15T09:43:03.000Z</time>
      </trkpt>
      <trkpt lat="47.43321" lon="6.81701">
        <ele>425</ele>
        <time>2015-03-15T09:43:06.000Z</time>
      </trkpt>
      <trkpt lat="47.43321" lon="6.817">
        <ele>425</ele>
        <time>2015-03-15T09:43:07.000Z</time>
      </trkpt>
      <trkpt lat="47.43318" lon="6.81697">
        <ele>425</ele>
        <time>2015-03-15T09:43:13.000Z</time>
      </trkpt>
      <trkpt lat="47.43317" lon="6.81696">
        <ele>425</ele>
        <time>2015-03-15T09:43:14.000Z</time>
      </trkpt>
      <trkpt lat="47.43313" lon="6.81695">
        <ele>425</ele>
        <time>2015-03-15T09:43:17.000Z</time>
      </trkpt>
      <trkpt lat="47.43311" lon="6.81695">
        <ele>425</ele>
        <time>2015-03-15T09:43:18.000Z</time>
      </trkpt>
      <trkpt lat="47.43308" lon="6.81694">
        <ele>425</ele>
        <time>2015-03-15T09:43:21.000Z</time>
      </trkpt>
      <trkpt lat="47.43307" lon="6.81694">
        <ele>425</ele>
        <time>2015-03-15T09:43:22.000Z</time>
      </trkpt>
      <trkpt lat="47.43303" lon="6.81697">
        <ele>425</ele>
        <time>2015-03-15T09:43:28.000Z</time>
      </trkpt>
      <trkpt lat="47.43304" lon="6.81699">
        <ele>424</ele>
        <time>2015-03-15T09:43:29.000Z</time>
      </trkpt>
      <trkpt lat="47.43307" lon="6.81703">
        <ele>424</ele>
        <time>2015-03-15T09:43:31.000Z</time>
      </trkpt>
      <trkpt lat="47.43309" lon="6.81704">
        <ele>424</ele>
        <time>2015-03-15T09:43:32.000Z</time>
      </trkpt>
      <trkpt lat="47.43313" lon="6.81706">
        <ele>424</ele>
        <time>2015-03-15T09:43:37.000Z</time>
      </trkpt>
      <trkpt lat="47.43313" lon="6.81706">
        <ele>424</ele>
        <time>2015-03-15T09:43:38.000Z</time>
      </trkpt>
      <trkpt lat="47.43309" lon="6.81705">
        <ele>424</ele>
        <time>2015-03-15T09:44:02.000Z</time>
      </trkpt>
      <trkpt lat="47.43308" lon="6.81704">
        <ele>424</ele>
        <time>2015-03-15T09:44:03.000Z</time>
      </trkpt>
      <trkpt lat="47.43307" lon="6.817">
        <ele>424</ele>
        <time>2015-03-15T09:44:05.000Z</time>
      </trkpt>
      <trkpt lat="47.43306" lon="6.81697">
        <ele>425</ele>
        <time>2015-03-15T09:44:06.000Z</time>
      </trkpt>
      <trkpt lat="47.43305" lon="6.81693">
        <ele>425</ele>
        <time>2015-03-15T09:44:08.000Z</time>
      </trkpt>
      <trkpt lat="47.43304" lon="6.81691">
        <ele>425</ele>
        <time>2015-03-15T09:44:09.000Z</time>
      </trkpt>
      <trkpt lat="47.43302" lon="6.81686">
        <ele>426</ele>
        <time>2015-03-15T09:44:12.000Z</time>
      </trkpt>
      <trkpt lat="47.43301" lon="6.81686">
        <ele>426</ele>
        <time>2015-03-15T09:44:13.000Z</time>
      </trkpt>
      <trkpt lat="47.43296" lon="6.81686">
        <ele>425</ele>
        <time>2015-03-15T09:44:16.000Z</time>
      </trkpt>
      <trkpt lat="47.43295" lon="6.81686">
        <ele>425</ele>
        <time>2015-03-15T09:44:17.000Z</time>
      </trkpt>
      <trkpt lat="47.43292" lon="6.81684">
        <ele>425</ele>
        <time>2015-03-15T09:44:19.000Z</time>
      </trkpt>
      <trkpt lat="47.4329" lon="6.81683">
        <ele>425</ele>
        <time>2015-03-15T09:44:20.000Z</time>
      </trkpt>
      <trkpt lat="47.43287" lon="6.81681">
        <ele>426</ele>
        <time>2015-03-15T09:44:22.000Z</time>
      </trkpt>
      <trkpt lat="47.43286" lon="6.81679">
        <ele>426</ele>
        <time>2015-03-15T09:44:23.000Z</time>
      </trkpt>
      <trkpt lat="47.43284" lon="6.81675">
        <ele>426</ele>
        <time>2015-03-15T09:44:26.000Z</time>
      </trkpt>
      <trkpt lat="47.43284" lon="6.81673">
        <ele>426</ele>
        <time>2015-03-15T09:44:27.000Z</time>
      </trkpt>
      <trkpt lat="47.4328" lon="6.81669">
        <ele>426</ele>
        <time>2015-03-15T09:44:30.000Z</time>
      </trkpt>
      <trkpt lat="47.4328" lon="6.81668">
        <ele>426</ele>
        <time>2015-03-15T09:44:31.000Z</time>
      </trkpt>
      <trkpt lat="47.43278" lon="6.81663">
        <ele>435</ele>
        <time>2015-03-15T09:44:35.000Z</time>
      </trkpt>
      <trkpt lat="47.43277" lon="6.81662">
        <ele>435</ele>
        <time>2015-03-15T09:44:36.000Z</time>
      </trkpt>
      <trkpt lat="47.43275" lon="6.81659">
        <ele>435</ele>
        <time>2015-03-15T09:44:38.000Z</time>
      </trkpt>
      <trkpt lat="47.43274" lon="6.81657">
        <ele>435</ele>
        <time>2015-03-15T09:44:39.000Z</time>
      </trkpt>
      <trkpt lat="47.43273" lon="6.81651">
        <ele>435</ele>
        <time>2015-03-15T09:44:42.000Z</time>
      </trkpt>
      <trkpt lat="47.43272" lon="6.81649">
        <ele>435</ele>
        <time>2015-03-15T09:44:43.000Z</time>
      </trkpt>
      <trkpt lat="47.43271" lon="6.81644">
        <ele>435</ele>
        <time>2015-03-15T09:44:46.000Z</time>
      </trkpt>
      <trkpt lat="47.43271" lon="6.81643">
        <ele>435</ele>
        <time>2015-03-15T09:44:47.000Z</time>
      </trkpt>
      <trkpt lat="47.43268" lon="6.81638">
        <ele>436</ele>
        <time>2015-03-15T09:45:01.000Z</time>
      </trkpt>
      <trkpt lat="47.43267" lon="6.81638">
        <ele>436</ele>
        <time>2015-03-15T09:45:02.000Z</time>
      </trkpt>
      <trkpt lat="47.43263" lon="6.81641">
        <ele>435</ele>
        <time>2015-03-15T09:45:07.000Z</time>
      </trkpt>
      <trkpt lat="47.43263" lon="6.81642">
        <ele>435</ele>
        <time>2015-03-15T09:45:08.000Z</time>
      </trkpt>
      <trkpt lat="47.43263" lon="6.81647">
        <ele>435</ele>
        <time>2015-03-15T09:45:10.000Z</time>
      </trkpt>
      <trkpt lat="47.43263" lon="6.8165">
        <ele>435</ele>
        <time>2015-03-15T09:45:11.000Z</time>
      </trkpt>
      <trkpt lat="47.43263" lon="6.81656">
        <ele>434</ele>
        <time>2015-03-15T09:45:14.000Z</time>
      </trkpt>
      <trkpt lat="47.43263" lon="6.81658">
        <ele>434</ele>
        <time>2015-03-15T09:45:15.000Z</time>
      </trkpt>
      <trkpt lat="47.43263" lon="6.81662">
        <ele>433</ele>
        <time>2015-03-15T09:45:17.000Z</time>
      </trkpt>
      <trkpt lat="47.43263" lon="6.81665">
        <ele>433</ele>
        <time>2015-03-15T09:45:18.000Z</time>
      </trkpt>
      <trkpt lat="47.43264" lon="6.81667">
        <ele>428</ele>
        <time>2015-03-15T09:45:19.000Z</time>
      </trkpt>
      <trkpt lat="47.43266" lon="6.81671">
        <ele>427</ele>
        <time>2015-03-15T09:45:20.000Z</time>
      </trkpt>
      <trkpt lat="47.4327" lon="6.8168">
        <ele>426</ele>
        <time>2015-03-15T09:45:21.000Z</time>
      </trkpt>
      <trkpt lat="47.43271" lon="6.81685">
        <ele>425</ele>
        <time>2015-03-15T09:45:22.000Z</time>
      </trkpt>
      <trkpt lat="47.43273" lon="6.81689">
        <ele>425</ele>
        <time>2015-03-15T09:45:23.000Z</time>
      </trkpt>
      <trkpt lat="47.43275" lon="6.81694">
        <ele>424</ele>
        <time>2015-03-15T09:45:24.000Z</time>
      </trkpt>
      <trkpt lat="47.43279" lon="6.81698">
        <ele>424</ele>
        <time>2015-03-15T09:45:25.000Z</time>
      </trkpt>
      <trkpt lat="47.43283" lon="6.81693">
        <ele>424</ele>
        <time>2015-03-15T09:45:26.000Z</time>
      </trkpt>
      <trkpt lat="47.43287" lon="6.81695">
        <ele>424</ele>
        <time>2015-03-15T09:45:28.000Z</time>
      </trkpt>
      <trkpt lat="47.4329" lon="6.81698">
        <ele>424</ele>
        <time>2015-03-15T09:45:29.000Z</time>
      </trkpt>
      <trkpt lat="47.43293" lon="6.81703">
        <ele>423</ele>
        <time>2015-03-15T09:45:30.000Z</time>
      </trkpt>
      <trkpt lat="47.43297" lon="6.81705">
        <ele>423</ele>
        <time>2015-03-15T09:45:31.000Z</time>
      </trkpt>
      <trkpt lat="47.433" lon="6.81708">
        <ele>423</ele>
        <time>2015-03-15T09:45:32.000Z</time>
      </trkpt>
      <trkpt lat="47.43304" lon="6.81711">
        <ele>423</ele>
        <time>2015-03-15T09:45:33.000Z</time>
      </trkpt>
      <trkpt lat="47.43307" lon="6.81715">
        <ele>423</ele>
        <time>2015-03-15T09:45:34.000Z</time>
      </trkpt>
      <trkpt lat="47.43311" lon="6.81719">
        <ele>422</ele>
        <time>2015-03-15T09:45:35.000Z</time>
      </trkpt>
      <trkpt lat="47.43314" lon="6.81723">
        <ele>422</ele>
        <time>2015-03-15T09:45:36.000Z</time>
      </trkpt>
      <trkpt lat="47.43317" lon="6.81726">
        <ele>421</ele>
        <time>2015-03-15T09:45:37.000Z</time>
      </trkpt>
      <trkpt lat="47.43319" lon="6.8173">
        <ele>421</ele>
        <time>2015-03-15T09:45:38.000Z</time>
      </trkpt>
      <trkpt lat="47.43321" lon="6.81734">
        <ele>421</ele>
        <time>2015-03-15T09:45:39.000Z</time>
      </trkpt>
      <trkpt lat="47.43323" lon="6.81736">
        <ele>420</ele>
        <time>2015-03-15T09:45:40.000Z</time>
      </trkpt>
      <trkpt lat="47.43326" lon="6.81738">
        <ele>420</ele>
        <time>2015-03-15T09:45:41.000Z</time>
      </trkpt>
      <trkpt lat="47.43328" lon="6.81739">
        <ele>420</ele>
        <time>2015-03-15T09:45:42.000Z</time>
      </trkpt>
      <trkpt lat="47.43331" lon="6.8174">
        <ele>420</ele>
        <time>2015-03-15T09:45:43.000Z</time>
      </trkpt>
      <trkpt lat="47.43334" lon="6.81741">
        <ele>419</ele>
        <time>2015-03-15T09:45:44.000Z</time>
      </trkpt>
      <trkpt lat="47.43337" lon="6.81741">
        <ele>419</ele>
        <time>2015-03-15T09:45:45.000Z</time>
      </trkpt>
      <trkpt lat="47.43341" lon="6.81741">
        <ele>419</ele>
        <time>2015-03-15T09:45:46.000Z</time>
      </trkpt>
      <trkpt lat="47.43344" lon="6.81741">
        <ele>419</ele>
        <time>2015-03-15T09:45:47.000Z</time>
      </trkpt>
      <trkpt lat="47.43347" lon="6.81741">
        <ele>419</ele>
        <time>2015-03-15T09:45:48.000Z</time>
      </trkpt>
      <trkpt lat="47.4335" lon="6.81741">
        <ele>419</ele>
        <time>2015-03-15T09:45:49.000Z</time>
      </trkpt>
      <trkpt lat="47.43354" lon="6.81742">
        <ele>419</ele>
        <time>2015-03-15T09:45:51.000Z</time>
      </trkpt>
      <trkpt lat="47.43355" lon="6.81742">
        <ele>419</ele>
        <time>2015-03-15T09:45:52.000Z</time>
      </trkpt>
      <trkpt lat="47.43358" lon="6.81739">
        <ele>419</ele>
        <time>2015-03-15T09:45:57.000Z</time>
      </trkpt>
      <trkpt lat="47.43359" lon="6.81738">
        <ele>419</ele>
        <time>2015-03-15T09:45:58.000Z</time>
      </trkpt>
      <trkpt lat="47.43361" lon="6.81734">
        <ele>419</ele>
        <time>2015-03-15T09:46:06.999Z</time>
      </trkpt>
      <trkpt lat="47.43363" lon="6.81732">
        <ele>419</ele>
        <time>2015-03-15T09:46:08.000Z</time>
      </trkpt>
      <trkpt lat="47.4336" lon="6.81729">
        <ele>419</ele>
        <time>2015-03-15T09:46:52.000Z</time>
      </trkpt>
      <trkpt lat="47.4336" lon="6.81727">
        <ele>420</ele>
        <time>2015-03-15T09:46:53.000Z</time>
      </trkpt>
      <trkpt lat="47.43355" lon="6.81726">
        <ele>420</ele>
        <time>2015-03-15T09:46:57.000Z</time>
      </trkpt>
      <trkpt lat="47.43355" lon="6.81725">
        <ele>420</ele>
        <time>2015-03-15T09:46:58.000Z</time>
      </trkpt>
      <trkpt lat="47.43353" lon="6.8172">
        <ele>420</ele>
        <time>2015-03-15T09:47:02.000Z</time>
      </trkpt>
      <trkpt lat="47.43352" lon="6.81719">
        <ele>420</ele>
        <time>2015-03-15T09:47:03.000Z</time>
      </trkpt>
      <trkpt lat="47.43348" lon="6.81716">
        <ele>421</ele>
        <time>2015-03-15T09:47:05.000Z</time>
      </trkpt>
      <trkpt lat="47.43346" lon="6.81715">
        <ele>421</ele>
        <time>2015-03-15T09:47:06.000Z</time>
      </trkpt>
      <trkpt lat="47.43343" lon="6.81713">
        <ele>421</ele>
        <time>2015-03-15T09:47:08.000Z</time>
      </trkpt>
      <trkpt lat="47.43341" lon="6.81712">
        <ele>422</ele>
        <time>2015-03-15T09:47:09.000Z</time>
      </trkpt>
      <trkpt lat="47.43339" lon="6.81709">
        <ele>422</ele>
        <time>2015-03-15T09:47:11.000Z</time>
      </trkpt>
      <trkpt lat="47.43337" lon="6.81708">
        <ele>422</ele>
        <time>2015-03-15T09:47:12.000Z</time>
      </trkpt>
      <trkpt lat="47.43333" lon="6.81708">
        <ele>424</ele>
        <time>2015-03-15T09:47:14.000Z</time>
      </trkpt>
      <trkpt lat="47.43331" lon="6.81708">
        <ele>424</ele>
        <time>2015-03-15T09:47:15.000Z</time>
      </trkpt>
      <trkpt lat="47.43328" lon="6.81708">
        <ele>424</ele>
        <time>2015-03-15T09:47:17.000Z</time>
      </trkpt>
      <trkpt lat="47.43327" lon="6.81708">
        <ele>424</ele>
        <time>2015-03-15T09:47:18.000Z</time>
      </trkpt>
      <trkpt lat="47.43324" lon="6.81703">
        <ele>425</ele>
        <time>2015-03-15T09:47:22.000Z</time>
      </trkpt>
      <trkpt lat="47.43324" lon="6.81701">
        <ele>425</ele>
        <time>2015-03-15T09:47:23.000Z</time>
      </trkpt>
      <trkpt lat="47.43323" lon="6.81694">
        <ele>426</ele>
        <time>2015-03-15T09:47:26.000Z</time>
      </trkpt>
      <trkpt lat="47.43322" lon="6.81693">
        <ele>426</ele>
        <time>2015-03-15T09:47:27.000Z</time>
      </trkpt>
      <trkpt lat="47.43318" lon="6.8169">
        <ele>426</ele>
        <time>2015-03-15T09:47:30.000Z</time>
      </trkpt>
      <trkpt lat="47.43317" lon="6.8169">
        <ele>426</ele>
        <time>2015-03-15T09:47:31.000Z</time>
      </trkpt>
      <trkpt lat="47.43313" lon="6.8169">
        <ele>426</ele>
        <time>2015-03-15T09:47:33.000Z</time>
      </trkpt>
      <trkpt lat="47.43311" lon="6.8169">
        <ele>426</ele>
        <time>2015-03-15T09:47:34.000Z</time>
      </trkpt>
      <trkpt lat="47.43307" lon="6.81687">
        <ele>426</ele>
        <time>2015-03-15T09:47:36.000Z</time>
      </trkpt>
      <trkpt lat="47.43306" lon="6.81685">
        <ele>426</ele>
        <time>2015-03-15T09:47:37.000Z</time>
      </trkpt>
      <trkpt lat="47.43303" lon="6.81681">
        <ele>426</ele>
        <time>2015-03-15T09:47:39.000Z</time>
      </trkpt>
      <trkpt lat="47.43302" lon="6.8168">
        <ele>426</ele>
        <time>2015-03-15T09:47:40.000Z</time>
      </trkpt>
      <trkpt lat="47.433" lon="6.81675">
        <ele>427</ele>
        <time>2015-03-15T09:47:43.000Z</time>
      </trkpt>
      <trkpt lat="47.433" lon="6.81673">
        <ele>427</ele>
        <time>2015-03-15T09:47:44.000Z</time>
      </trkpt>
      <trkpt lat="47.43296" lon="6.8167">
        <ele>427</ele>
        <time>2015-03-15T09:47:47.000Z</time>
      </trkpt>
      <trkpt lat="47.43295" lon="6.81669">
        <ele>426</ele>
        <time>2015-03-15T09:47:48.000Z</time>
      </trkpt>
      <trkpt lat="47.43292" lon="6.81666">
        <ele>435</ele>
        <time>2015-03-15T09:47:54.000Z</time>
      </trkpt>
      <trkpt lat="47.43291" lon="6.81665">
        <ele>435</ele>
        <time>2015-03-15T09:47:55.000Z</time>
      </trkpt>
      <trkpt lat="47.43288" lon="6.81662">
        <ele>435</ele>
        <time>2015-03-15T09:47:58.000Z</time>
      </trkpt>
      <trkpt lat="47.43287" lon="6.8166">
        <ele>435</ele>
        <time>2015-03-15T09:47:59.000Z</time>
      </trkpt>
      <trkpt lat="47.43284" lon="6.81655">
        <ele>435</ele>
        <time>2015-03-15T09:48:03.000Z</time>
      </trkpt>
      <trkpt lat="47.43284" lon="6.81655">
        <ele>435</ele>
        <time>2015-03-15T09:48:04.000Z</time>
      </trkpt>
      <trkpt lat="47.43279" lon="6.81653">
        <ele>435</ele>
        <time>2015-03-15T09:51:17.000Z</time>
      </trkpt>
      <trkpt lat="47.43279" lon="6.81653">
        <ele>435</ele>
        <time>2015-03-15T09:51:18.000Z</time>
      </trkpt>
      <trkpt lat="47.43275" lon="6.81655">
        <ele>435</ele>
        <time>2015-03-15T09:52:56.000Z</time>
      </trkpt>
      <trkpt lat="47.43275" lon="6.81655">
        <ele>435</ele>
        <time>2015-03-15T09:52:57.000Z</time>
      </trkpt>
      <trkpt lat="47.4327" lon="6.81656">
        <ele>435</ele>
        <time>2015-03-15T09:53:35.001Z</time>
      </trkpt>
      <trkpt lat="47.4327" lon="6.81656">
        <ele>434</ele>
        <time>2015-03-15T09:53:36.000Z</time>
      </trkpt>
      <trkpt lat="47.43268" lon="6.81661">
        <ele>434</ele>
        <time>2015-03-15T09:55:03.000Z</time>
      </trkpt>
      <trkpt lat="47.43269" lon="6.81662">
        <ele>434</ele>
        <time>2015-03-15T09:55:04.000Z</time>
      </trkpt>
      <trkpt lat="47.43271" lon="6.81667">
        <ele>427</ele>
        <time>2015-03-15T09:55:07.000Z</time>
      </trkpt>
      <trkpt lat="47.43271" lon="6.81669">
        <ele>427</ele>
        <time>2015-03-15T09:55:08.000Z</time>
      </trkpt>
      <trkpt lat="47.43272" lon="6.81672">
        <ele>427</ele>
        <time>2015-03-15T09:55:09.000Z</time>
      </trkpt>
      <trkpt lat="47.43274" lon="6.81676">
        <ele>426</ele>
        <time>2015-03-15T09:55:10.000Z</time>
      </trkpt>
      <trkpt lat="47.43276" lon="6.81681">
        <ele>426</ele>
        <time>2015-03-15T09:55:11.000Z</time>
      </trkpt>
      <trkpt lat="47.43278" lon="6.81686">
        <ele>425</ele>
        <time>2015-03-15T09:55:12.000Z</time>
      </trkpt>
      <trkpt lat="47.43281" lon="6.81692">
        <ele>424</ele>
        <time>2015-03-15T09:55:13.000Z</time>
      </trkpt>
      <trkpt lat="47.43283" lon="6.81696">
        <ele>424</ele>
        <time>2015-03-15T09:55:14.000Z</time>
      </trkpt>
      <trkpt lat="47.43286" lon="6.81699">
        <ele>424</ele>
        <time>2015-03-15T09:55:15.000Z</time>
      </trkpt>
      <trkpt lat="47.43288" lon="6.81701">
        <ele>423</ele>
        <time>2015-03-15T09:55:16.000Z</time>
      </trkpt>
      <trkpt lat="47.4329" lon="6.81704">
        <ele>423</ele>
        <time>2015-03-15T09:55:17.000Z</time>
      </trkpt>
      <trkpt lat="47.43293" lon="6.81708">
        <ele>423</ele>
        <time>2015-03-15T09:55:18.000Z</time>
      </trkpt>
      <trkpt lat="47.43302" lon="6.81707">
        <ele>423</ele>
        <time>2015-03-15T09:55:19.000Z</time>
      </trkpt>
      <trkpt lat="47.43307" lon="6.81708">
        <ele>423</ele>
        <time>2015-03-15T09:55:20.000Z</time>
      </trkpt>
      <trkpt lat="47.43308" lon="6.81716">
        <ele>422</ele>
        <time>2015-03-15T09:55:21.000Z</time>
      </trkpt>
      <trkpt lat="47.43312" lon="6.8172">
        <ele>422</ele>
        <time>2015-03-15T09:55:22.000Z</time>
      </trkpt>
      <trkpt lat="47.43313" lon="6.81723">
        <ele>422</ele>
        <time>2015-03-15T09:55:23.000Z</time>
      </trkpt>
      <trkpt lat="47.43316" lon="6.81724">
        <ele>422</ele>
        <time>2015-03-15T09:55:24.000Z</time>
      </trkpt>
      <trkpt lat="47.43318" lon="6.81727">
        <ele>421</ele>
        <time>2015-03-15T09:55:25.000Z</time>
      </trkpt>
      <trkpt lat="47.43322" lon="6.81731">
        <ele>421</ele>
        <time>2015-03-15T09:55:26.000Z</time>
      </trkpt>
      <trkpt lat="47.43326" lon="6.81732">
        <ele>421</ele>
        <time>2015-03-15T09:55:27.000Z</time>
      </trkpt>
      <trkpt lat="47.43329" lon="6.81734">
        <ele>420</ele>
        <time>2015-03-15T09:55:28.000Z</time>
      </trkpt>
      <trkpt lat="47.43332" lon="6.81738">
        <ele>420</ele>
        <time>2015-03-15T09:55:29.000Z</time>
      </trkpt>
      <trkpt lat="47.43334" lon="6.81742">
        <ele>419</ele>
        <time>2015-03-15T09:55:30.000Z</time>
      </trkpt>
      <trkpt lat="47.43337" lon="6.81744">
        <ele>419</ele>
        <time>2015-03-15T09:55:31.000Z</time>
      </trkpt>
      <trkpt lat="47.43339" lon="6.81746">
        <ele>419</ele>
        <time>2015-03-15T09:55:32.000Z</time>
      </trkpt>
      <trkpt lat="47.43342" lon="6.81746">
        <ele>419</ele>
        <time>2015-03-15T09:55:33.000Z</time>
      </trkpt>
      <trkpt lat="47.43346" lon="6.81747">
        <ele>419</ele>
        <time>2015-03-15T09:55:34.000Z</time>
      </trkpt>
      <trkpt lat="47.43349" lon="6.81748">
        <ele>419</ele>
        <time>2015-03-15T09:55:35.000Z</time>
      </trkpt>
      <trkpt lat="47.43353" lon="6.81751">
        <ele>411</ele>
        <time>2015-03-15T09:55:36.000Z</time>
      </trkpt>
      <trkpt lat="47.43363" lon="6.81762">
        <ele>408</ele>
        <time>2015-03-15T09:55:37.000Z</time>
      </trkpt>
      <trkpt lat="47.43369" lon="6.81766">
        <ele>407</ele>
        <time>2015-03-15T09:55:38.000Z</time>
      </trkpt>
      <trkpt lat="47.43373" lon="6.81772">
        <ele>406</ele>
        <time>2015-03-15T09:55:39.000Z</time>
      </trkpt>
      <trkpt lat="47.43377" lon="6.81778">
        <ele>405</ele>
        <time>2015-03-15T09:55:40.000Z</time>
      </trkpt>
      <trkpt lat="47.4338" lon="6.81784">
        <ele>404</ele>
        <time>2015-03-15T09:55:41.000Z</time>
      </trkpt>
      <trkpt lat="47.43387" lon="6.81789">
        <ele>404</ele>
        <time>2015-03-15T09:55:42.000Z</time>
      </trkpt>
      <trkpt lat="47.43394" lon="6.81785">
        <ele>404</ele>
        <time>2015-03-15T09:55:43.000Z</time>
      </trkpt>
      <trkpt lat="47.43398" lon="6.81782">
        <ele>404</ele>
        <time>2015-03-15T09:55:44.000Z</time>
      </trkpt>
      <trkpt lat="47.434" lon="6.81783">
        <ele>404</ele>
        <time>2015-03-15T09:55:45.000Z</time>
      </trkpt>
      <trkpt lat="47.43403" lon="6.81782">
        <ele>404</ele>
        <time>2015-03-15T09:55:46.000Z</time>
      </trkpt>
      <trkpt lat="47.43406" lon="6.81783">
        <ele>404</ele>
        <time>2015-03-15T09:55:47.000Z</time>
      </trkpt>
      <trkpt lat="47.43408" lon="6.81783">
        <ele>404</ele>
        <time>2015-03-15T09:55:48.000Z</time>
      </trkpt>
      <trkpt lat="47.43411" lon="6.81783">
        <ele>404</ele>
        <time>2015-03-15T09:55:49.000Z</time>
      </trkpt>
      <trkpt lat="47.43415" lon="6.81784">
        <ele>404</ele>
        <time>2015-03-15T09:55:50.000Z</time>
      </trkpt>
      <trkpt lat="47.43419" lon="6.81783">
        <ele>400</ele>
        <time>2015-03-15T09:55:52.000Z</time>
      </trkpt>
      <trkpt lat="47.43421" lon="6.81782">
        <ele>400</ele>
        <time>2015-03-15T09:55:53.000Z</time>
      </trkpt>
      <trkpt lat="47.43424" lon="6.81781">
        <ele>400</ele>
        <time>2015-03-15T09:55:53.999Z</time>
      </trkpt>
      <trkpt lat="47.43427" lon="6.81781">
        <ele>400</ele>
        <time>2015-03-15T09:55:55.000Z</time>
      </trkpt>
      <trkpt lat="47.43429" lon="6.8178">
        <ele>399</ele>
        <time>2015-03-15T09:55:55.999Z</time>
      </trkpt>
      <trkpt lat="47.43435" lon="6.81783">
        <ele>399</ele>
        <time>2015-03-15T09:55:57.000Z</time>
      </trkpt>
      <trkpt lat="47.4344" lon="6.81785">
        <ele>398</ele>
        <time>2015-03-15T09:55:58.000Z</time>
      </trkpt>
      <trkpt lat="47.43445" lon="6.81786">
        <ele>398</ele>
        <time>2015-03-15T09:55:59.000Z</time>
      </trkpt>
      <trkpt lat="47.43452" lon="6.81795">
        <ele>397</ele>
        <time>2015-03-15T09:56:00.000Z</time>
      </trkpt>
      <trkpt lat="47.43456" lon="6.818">
        <ele>396</ele>
        <time>2015-03-15T09:56:01.000Z</time>
      </trkpt>
      <trkpt lat="47.43463" lon="6.81801">
        <ele>396</ele>
        <time>2015-03-15T09:56:02.000Z</time>
      </trkpt>
      <trkpt lat="47.43469" lon="6.81802">
        <ele>395</ele>
        <time>2015-03-15T09:56:03.000Z</time>
      </trkpt>
      <trkpt lat="47.43476" lon="6.81802">
        <ele>395</ele>
        <time>2015-03-15T09:56:04.000Z</time>
      </trkpt>
      <trkpt lat="47.43484" lon="6.81803">
        <ele>394</ele>
        <time>2015-03-15T09:56:05.000Z</time>
      </trkpt>
      <trkpt lat="47.43491" lon="6.81804">
        <ele>394</ele>
        <time>2015-03-15T09:56:06.000Z</time>
      </trkpt>
      <trkpt lat="47.43496" lon="6.81804">
        <ele>394</ele>
        <time>2015-03-15T09:56:07.000Z</time>
      </trkpt>
      <trkpt lat="47.435" lon="6.81801">
        <ele>388</ele>
        <time>2015-03-15T09:56:08.000Z</time>
      </trkpt>
      <trkpt lat="47.43502" lon="6.81799">
        <ele>388</ele>
        <time>2015-03-15T09:56:09.000Z</time>
      </trkpt>
      <trkpt lat="47.43504" lon="6.81796">
        <ele>388</ele>
        <time>2015-03-15T09:56:10.001Z</time>
      </trkpt>
      <trkpt lat="47.43508" lon="6.81795">
        <ele>388</ele>
        <time>2015-03-15T09:56:12.000Z</time>
      </trkpt>
      <trkpt lat="47.43511" lon="6.81794">
        <ele>388</ele>
        <time>2015-03-15T09:56:13.000Z</time>
      </trkpt>
      <trkpt lat="47.43516" lon="6.81792">
        <ele>388</ele>
        <time>2015-03-15T09:56:14.000Z</time>
      </trkpt>
      <trkpt lat="47.43519" lon="6.81791">
        <ele>388</ele>
        <time>2015-03-15T09:56:15.000Z</time>
      </trkpt>
      <trkpt lat="47.43521" lon="6.81792">
        <ele>388</ele>
        <time>2015-03-15T09:56:16.000Z</time>
      </trkpt>
      <trkpt lat="47.43524" lon="6.81792">
        <ele>388</ele>
        <time>2015-03-15T09:56:17.000Z</time>
      </trkpt>
      <trkpt lat="47.43527" lon="6.81792">
        <ele>388</ele>
        <time>2015-03-15T09:56:18.000Z</time>
      </trkpt>
      <trkpt lat="47.4353" lon="6.81793">
        <ele>388</ele>
        <time>2015-03-15T09:56:19.000Z</time>
      </trkpt>
      <trkpt lat="47.43532" lon="6.81794">
        <ele>387</ele>
        <time>2015-03-15T09:56:20.000Z</time>
      </trkpt>
      <trkpt lat="47.43535" lon="6.81794">
        <ele>387</ele>
        <time>2015-03-15T09:56:21.000Z</time>
      </trkpt>
      <trkpt lat="47.43539" lon="6.81794">
        <ele>387</ele>
        <time>2015-03-15T09:56:22.000Z</time>
      </trkpt>
      <trkpt lat="47.43542" lon="6.81793">
        <ele>387</ele>
        <time>2015-03-15T09:56:23.000Z</time>
      </trkpt>
      <trkpt lat="47.43545" lon="6.81793">
        <ele>387</ele>
        <time>2015-03-15T09:56:24.000Z</time>
      </trkpt>
      <trkpt lat="47.43548" lon="6.81793">
        <ele>387</ele>
        <time>2015-03-15T09:56:25.000Z</time>
      </trkpt>
      <trkpt lat="47.43551" lon="6.81795">
        <ele>386</ele>
        <time>2015-03-15T09:56:26.000Z</time>
      </trkpt>
      <trkpt lat="47.43555" lon="6.81793">
        <ele>386</ele>
        <time>2015-03-15T09:56:27.000Z</time>
      </trkpt>
      <trkpt lat="47.43558" lon="6.8179">
        <ele>386</ele>
        <time>2015-03-15T09:56:28.000Z</time>
      </trkpt>
      <trkpt lat="47.43561" lon="6.81786">
        <ele>386</ele>
        <time>2015-03-15T09:56:29.000Z</time>
      </trkpt>
      <trkpt lat="47.43564" lon="6.81781">
        <ele>386</ele>
        <time>2015-03-15T09:56:30.000Z</time>
      </trkpt>
      <trkpt lat="47.43567" lon="6.81778">
        <ele>386</ele>
        <time>2015-03-15T09:56:31.000Z</time>
      </trkpt>
      <trkpt lat="47.43571" lon="6.81776">
        <ele>386</ele>
        <time>2015-03-15T09:56:32.000Z</time>
      </trkpt>
      <trkpt lat="47.43574" lon="6.81774">
        <ele>386</ele>
        <time>2015-03-15T09:56:33.000Z</time>
      </trkpt>
      <trkpt lat="47.43578" lon="6.81772">
        <ele>386</ele>
        <time>2015-03-15T09:56:34.000Z</time>
      </trkpt>
      <trkpt lat="47.43582" lon="6.8177">
        <ele>386</ele>
        <time>2015-03-15T09:56:35.000Z</time>
      </trkpt>
      <trkpt lat="47.43585" lon="6.81768">
        <ele>380</ele>
        <time>2015-03-15T09:56:36.000Z</time>
      </trkpt>
      <trkpt lat="47.43587" lon="6.81767">
        <ele>380</ele>
        <time>2015-03-15T09:56:37.000Z</time>
      </trkpt>
      <trkpt lat="47.43589" lon="6.81765">
        <ele>380</ele>
        <time>2015-03-15T09:56:38.000Z</time>
      </trkpt>
      <trkpt lat="47.43591" lon="6.81764">
        <ele>380</ele>
        <time>2015-03-15T09:56:39.000Z</time>
      </trkpt>
      <trkpt lat="47.43593" lon="6.81763">
        <ele>380</ele>
        <time>2015-03-15T09:56:40.000Z</time>
      </trkpt>
      <trkpt lat="47.43597" lon="6.8176">
        <ele>380</ele>
        <time>2015-03-15T09:56:42.000Z</time>
      </trkpt>
      <trkpt lat="47.43598" lon="6.81757">
        <ele>380</ele>
        <time>2015-03-15T09:56:43.000Z</time>
      </trkpt>
      <trkpt lat="47.43599" lon="6.81754">
        <ele>380</ele>
        <time>2015-03-15T09:56:44.000Z</time>
      </trkpt>
      <trkpt lat="47.436" lon="6.8175">
        <ele>381</ele>
        <time>2015-03-15T09:56:45.000Z</time>
      </trkpt>
      <trkpt lat="47.43602" lon="6.81746">
        <ele>380</ele>
        <time>2015-03-15T09:56:46.000Z</time>
      </trkpt>
      <trkpt lat="47.43603" lon="6.81742">
        <ele>380</ele>
        <time>2015-03-15T09:56:47.000Z</time>
      </trkpt>
      <trkpt lat="47.43604" lon="6.81737">
        <ele>380</ele>
        <time>2015-03-15T09:56:48.000Z</time>
      </trkpt>
      <trkpt lat="47.43605" lon="6.81731">
        <ele>379</ele>
        <time>2015-03-15T09:56:49.000Z</time>
      </trkpt>
      <trkpt lat="47.43606" lon="6.81726">
        <ele>379</ele>
        <time>2015-03-15T09:56:50.000Z</time>
      </trkpt>
      <trkpt lat="47.43607" lon="6.81721">
        <ele>379</ele>
        <time>2015-03-15T09:56:51.000Z</time>
      </trkpt>
      <trkpt lat="47.43608" lon="6.81717">
        <ele>378</ele>
        <time>2015-03-15T09:56:52.000Z</time>
      </trkpt>
      <trkpt lat="47.43609" lon="6.81701">
        <ele>378</ele>
        <time>2015-03-15T09:56:53.000Z</time>
      </trkpt>
      <trkpt lat="47.43612" lon="6.81693">
        <ele>378</ele>
        <time>2015-03-15T09:56:54.000Z</time>
      </trkpt>
      <trkpt lat="47.43614" lon="6.81687">
        <ele>378</ele>
        <time>2015-03-15T09:56:55.000Z</time>
      </trkpt>
      <trkpt lat="47.43618" lon="6.8168">
        <ele>378</ele>
        <time>2015-03-15T09:56:56.000Z</time>
      </trkpt>
      <trkpt lat="47.43615" lon="6.81673">
        <ele>378</ele>
        <time>2015-03-15T09:56:57.000Z</time>
      </trkpt>
      <trkpt lat="47.43617" lon="6.81665">
        <ele>379</ele>
        <time>2015-03-15T09:56:58.000Z</time>
      </trkpt>
      <trkpt lat="47.43619" lon="6.8166">
        <ele>379</ele>
        <time>2015-03-15T09:56:59.000Z</time>
      </trkpt>
      <trkpt lat="47.43621" lon="6.81654">
        <ele>378</ele>
        <time>2015-03-15T09:57:00.000Z</time>
      </trkpt>
      <trkpt lat="47.43623" lon="6.81654">
        <ele>378</ele>
        <time>2015-03-15T09:57:01.000Z</time>
      </trkpt>
      <trkpt lat="47.43624" lon="6.81647">
        <ele>378</ele>
        <time>2015-03-15T09:57:02.000Z</time>
      </trkpt>
      <trkpt lat="47.43624" lon="6.81643">
        <ele>378</ele>
        <time>2015-03-15T09:57:03.000Z</time>
      </trkpt>
      <trkpt lat="47.43625" lon="6.81639">
        <ele>378</ele>
        <time>2015-03-15T09:57:04.000Z</time>
      </trkpt>
      <trkpt lat="47.43625" lon="6.81636">
        <ele>378</ele>
        <time>2015-03-15T09:57:05.000Z</time>
      </trkpt>
      <trkpt lat="47.43625" lon="6.81632">
        <ele>378</ele>
        <time>2015-03-15T09:57:06.000Z</time>
      </trkpt>
      <trkpt lat="47.43625" lon="6.81629">
        <ele>378</ele>
        <time>2015-03-15T09:57:07.000Z</time>
      </trkpt>
      <trkpt lat="47.43625" lon="6.81626">
        <ele>378</ele>
        <time>2015-03-15T09:57:08.000Z</time>
      </trkpt>
      <trkpt lat="47.43626" lon="6.81622">
        <ele>378</ele>
        <time>2015-03-15T09:57:09.000Z</time>
      </trkpt>
      <trkpt lat="47.43625" lon="6.81616">
        <ele>378</ele>
        <time>2015-03-15T09:57:10.000Z</time>
      </trkpt>
      <trkpt lat="47.43625" lon="6.81611">
        <ele>378</ele>
        <time>2015-03-15T09:57:11.000Z</time>
      </trkpt>
      <trkpt lat="47.43625" lon="6.81607">
        <ele>378</ele>
        <time>2015-03-15T09:57:12.000Z</time>
      </trkpt>
      <trkpt lat="47.43625" lon="6.81601">
        <ele>378</ele>
        <time>2015-03-15T09:57:14.000Z</time>
      </trkpt>
      <trkpt lat="47.43625" lon="6.81598">
        <ele>378</ele>
        <time>2015-03-15T09:57:15.000Z</time>
      </trkpt>
      <trkpt lat="47.43625" lon="6.81594">
        <ele>378</ele>
        <time>2015-03-15T09:57:17.000Z</time>
      </trkpt>
      <trkpt lat="47.43625" lon="6.81592">
        <ele>379</ele>
        <time>2015-03-15T09:57:18.000Z</time>
      </trkpt>
      <trkpt lat="47.43624" lon="6.81587">
        <ele>379</ele>
        <time>2015-03-15T09:57:20.000Z</time>
      </trkpt>
      <trkpt lat="47.43623" lon="6.81584">
        <ele>379</ele>
        <time>2015-03-15T09:57:21.000Z</time>
      </trkpt>
      <trkpt lat="47.43622" lon="6.81579">
        <ele>380</ele>
        <time>2015-03-15T09:57:23.000Z</time>
      </trkpt>
      <trkpt lat="47.43621" lon="6.81576">
        <ele>380</ele>
        <time>2015-03-15T09:57:24.000Z</time>
      </trkpt>
      <trkpt lat="47.4362" lon="6.8157">
        <ele>380</ele>
        <time>2015-03-15T09:57:27.000Z</time>
      </trkpt>
      <trkpt lat="47.43619" lon="6.81569">
        <ele>380</ele>
        <time>2015-03-15T09:57:28.000Z</time>
      </trkpt>
      <trkpt lat="47.43617" lon="6.81565">
        <ele>380</ele>
        <time>2015-03-15T09:57:30.000Z</time>
      </trkpt>
      <trkpt lat="47.43616" lon="6.81563">
        <ele>381</ele>
        <time>2015-03-15T09:57:31.000Z</time>
      </trkpt>
      <trkpt lat="47.43614" lon="6.81559">
        <ele>381</ele>
        <time>2015-03-15T09:57:32.998Z</time>
      </trkpt>
      <trkpt lat="47.43613" lon="6.81556">
        <ele>381</ele>
        <time>2015-03-15T09:57:34.000Z</time>
      </trkpt>
      <trkpt lat="47.4361" lon="6.81552">
        <ele>381</ele>
        <time>2015-03-15T09:57:37.000Z</time>
      </trkpt>
      <trkpt lat="47.43609" lon="6.81551">
        <ele>381</ele>
        <time>2015-03-15T09:57:38.000Z</time>
      </trkpt>
      <trkpt lat="47.43608" lon="6.81547">
        <ele>381</ele>
        <time>2015-03-15T09:57:40.000Z</time>
      </trkpt>
      <trkpt lat="47.43607" lon="6.81544">
        <ele>381</ele>
        <time>2015-03-15T09:57:41.000Z</time>
      </trkpt>
      <trkpt lat="47.43605" lon="6.81541">
        <ele>381</ele>
        <time>2015-03-15T09:57:42.000Z</time>
      </trkpt>
      <trkpt lat="47.43604" lon="6.81539">
        <ele>381</ele>
        <time>2015-03-15T09:57:43.000Z</time>
      </trkpt>
      <trkpt lat="47.43601" lon="6.81534">
        <ele>381</ele>
        <time>2015-03-15T09:57:45.000Z</time>
      </trkpt>
      <trkpt lat="47.436" lon="6.81532">
        <ele>381</ele>
        <time>2015-03-15T09:57:46.000Z</time>
      </trkpt>
      <trkpt lat="47.43598" lon="6.81528">
        <ele>381</ele>
        <time>2015-03-15T09:57:48.000Z</time>
      </trkpt>
      <trkpt lat="47.43596" lon="6.81527">
        <ele>381</ele>
        <time>2015-03-15T09:57:49.000Z</time>
      </trkpt>
      <trkpt lat="47.43595" lon="6.81527">
        <ele>381</ele>
        <time>2015-03-15T09:57:50.000Z</time>
      </trkpt>
      <trkpt lat="47.43591" lon="6.81525">
        <ele>381</ele>
        <time>2015-03-15T09:57:51.000Z</time>
      </trkpt>
      <trkpt lat="47.43588" lon="6.81521">
        <ele>381</ele>
        <time>2015-03-15T09:57:58.000Z</time>
      </trkpt>
      <trkpt lat="47.43588" lon="6.8152">
        <ele>381</ele>
        <time>2015-03-15T09:57:59.000Z</time>
      </trkpt>
      <trkpt lat="47.43585" lon="6.81515">
        <ele>382</ele>
        <time>2015-03-15T09:58:02.000Z</time>
      </trkpt>
      <trkpt lat="47.43584" lon="6.81513">
        <ele>382</ele>
        <time>2015-03-15T09:58:03.000Z</time>
      </trkpt>
      <trkpt lat="47.43581" lon="6.81508">
        <ele>383</ele>
        <time>2015-03-15T09:58:06.000Z</time>
      </trkpt>
      <trkpt lat="47.4358" lon="6.81509">
        <ele>383</ele>
        <time>2015-03-15T09:58:07.000Z</time>
      </trkpt>
      <trkpt lat="47.43581" lon="6.81514">
        <ele>384</ele>
        <time>2015-03-15T09:58:16.000Z</time>
      </trkpt>
      <trkpt lat="47.43581" lon="6.81515">
        <ele>384</ele>
        <time>2015-03-15T09:58:17.000Z</time>
      </trkpt>
      <trkpt lat="47.43584" lon="6.81519">
        <ele>381</ele>
        <time>2015-03-15T09:58:19.000Z</time>
      </trkpt>
      <trkpt lat="47.43586" lon="6.81524">
        <ele>381</ele>
        <time>2015-03-15T09:58:20.000Z</time>
      </trkpt>
      <trkpt lat="47.43587" lon="6.81535">
        <ele>381</ele>
        <time>2015-03-15T09:58:21.000Z</time>
      </trkpt>
      <trkpt lat="47.43588" lon="6.8154">
        <ele>381</ele>
        <time>2015-03-15T09:58:22.000Z</time>
      </trkpt>
      <trkpt lat="47.43587" lon="6.81543">
        <ele>381</ele>
        <time>2015-03-15T09:58:23.000Z</time>
      </trkpt>
      <trkpt lat="47.43593" lon="6.8154">
        <ele>381</ele>
        <time>2015-03-15T09:58:24.000Z</time>
      </trkpt>
      <trkpt lat="47.43595" lon="6.81545">
        <ele>381</ele>
        <time>2015-03-15T09:58:26.000Z</time>
      </trkpt>
      <trkpt lat="47.43596" lon="6.81548">
        <ele>381</ele>
        <time>2015-03-15T09:58:27.000Z</time>
      </trkpt>
      <trkpt lat="47.43597" lon="6.81541">
        <ele>381</ele>
        <time>2015-03-15T09:58:33.000Z</time>
      </trkpt>
      <trkpt lat="47.43597" lon="6.8154">
        <ele>381</ele>
        <time>2015-03-15T09:58:34.000Z</time>
      </trkpt>
      <trkpt lat="47.43595" lon="6.81535">
        <ele>381</ele>
        <time>2015-03-15T09:58:36.000Z</time>
      </trkpt>
      <trkpt lat="47.43594" lon="6.81532">
        <ele>381</ele>
        <time>2015-03-15T09:58:37.000Z</time>
      </trkpt>
      <trkpt lat="47.43593" lon="6.81528">
        <ele>381</ele>
        <time>2015-03-15T09:58:38.000Z</time>
      </trkpt>
      <trkpt lat="47.43592" lon="6.81525">
        <ele>381</ele>
        <time>2015-03-15T09:58:39.000Z</time>
      </trkpt>
      <trkpt lat="47.43592" lon="6.81519">
        <ele>381</ele>
        <time>2015-03-15T09:58:43.000Z</time>
      </trkpt>
      <trkpt lat="47.43591" lon="6.81518">
        <ele>381</ele>
        <time>2015-03-15T09:58:44.000Z</time>
      </trkpt>
      <trkpt lat="47.43589" lon="6.81515">
        <ele>382</ele>
        <time>2015-03-15T09:58:46.000Z</time>
      </trkpt>
      <trkpt lat="47.43587" lon="6.81513">
        <ele>382</ele>
        <time>2015-03-15T09:58:47.000Z</time>
      </trkpt>
      <trkpt lat="47.43583" lon="6.8151">
        <ele>382</ele>
        <time>2015-03-15T09:58:50.000Z</time>
      </trkpt>
      <trkpt lat="47.43582" lon="6.8151">
        <ele>383</ele>
        <time>2015-03-15T09:58:51.000Z</time>
      </trkpt>
      <trkpt lat="47.43582" lon="6.81516">
        <ele>384</ele>
        <time>2015-03-15T09:58:54.000Z</time>
      </trkpt>
      <trkpt lat="47.43584" lon="6.81519">
        <ele>381</ele>
        <time>2015-03-15T09:58:55.000Z</time>
      </trkpt>
      <trkpt lat="47.43584" lon="6.8153">
        <ele>381</ele>
        <time>2015-03-15T09:58:56.000Z</time>
      </trkpt>
      <trkpt lat="47.43586" lon="6.81536">
        <ele>381</ele>
        <time>2015-03-15T09:58:57.000Z</time>
      </trkpt>
      <trkpt lat="47.43589" lon="6.81541">
        <ele>381</ele>
        <time>2015-03-15T09:58:58.000Z</time>
      </trkpt>
      <trkpt lat="47.4359" lon="6.81547">
        <ele>381</ele>
        <time>2015-03-15T09:58:59.000Z</time>
      </trkpt>
      <trkpt lat="47.43586" lon="6.81551">
        <ele>381</ele>
        <time>2015-03-15T09:59:00.000Z</time>
      </trkpt>
      <trkpt lat="47.43585" lon="6.81555">
        <ele>381</ele>
        <time>2015-03-15T09:59:01.001Z</time>
      </trkpt>
      <trkpt lat="47.43584" lon="6.81558">
        <ele>381</ele>
        <time>2015-03-15T09:59:02.000Z</time>
      </trkpt>
      <trkpt lat="47.43587" lon="6.8156">
        <ele>381</ele>
        <time>2015-03-15T09:59:05.000Z</time>
      </trkpt>
      <trkpt lat="47.43588" lon="6.81561">
        <ele>381</ele>
        <time>2015-03-15T09:59:06.000Z</time>
      </trkpt>
      <trkpt lat="47.43589" lon="6.81555">
        <ele>381</ele>
        <time>2015-03-15T09:59:13.000Z</time>
      </trkpt>
      <trkpt lat="47.43588" lon="6.81554">
        <ele>381</ele>
        <time>2015-03-15T09:59:14.000Z</time>
      </trkpt>
      <trkpt lat="47.4359" lon="6.8155">
        <ele>381</ele>
        <time>2015-03-15T09:59:16.000Z</time>
      </trkpt>
      <trkpt lat="47.4359" lon="6.81547">
        <ele>381</ele>
        <time>2015-03-15T09:59:17.000Z</time>
      </trkpt>
      <trkpt lat="47.43589" lon="6.81541">
        <ele>381</ele>
        <time>2015-03-15T09:59:19.000Z</time>
      </trkpt>
      <trkpt lat="47.43589" lon="6.81538">
        <ele>381</ele>
        <time>2015-03-15T09:59:20.000Z</time>
      </trkpt>
      <trkpt lat="47.43589" lon="6.81532">
        <ele>381</ele>
        <time>2015-03-15T09:59:22.000Z</time>
      </trkpt>
      <trkpt lat="47.43589" lon="6.8153">
        <ele>381</ele>
        <time>2015-03-15T09:59:23.000Z</time>
      </trkpt>
      <trkpt lat="47.43589" lon="6.81524">
        <ele>381</ele>
        <time>2015-03-15T09:59:25.000Z</time>
      </trkpt>
      <trkpt lat="47.43589" lon="6.81522">
        <ele>381</ele>
        <time>2015-03-15T09:59:26.000Z</time>
      </trkpt>
      <trkpt lat="47.43589" lon="6.81518">
        <ele>381</ele>
        <time>2015-03-15T09:59:27.000Z</time>
      </trkpt>
      <trkpt lat="47.43588" lon="6.81515">
        <ele>382</ele>
        <time>2015-03-15T09:59:28.000Z</time>
      </trkpt>
      <trkpt lat="47.43586" lon="6.81512">
        <ele>382</ele>
        <time>2015-03-15T09:59:29.000Z</time>
      </trkpt>
      <trkpt lat="47.43584" lon="6.81509">
        <ele>382</ele>
        <time>2015-03-15T09:59:30.000Z</time>
      </trkpt>
      <trkpt lat="47.43582" lon="6.81506">
        <ele>383</ele>
        <time>2015-03-15T09:59:31.000Z</time>
      </trkpt>
      <trkpt lat="47.43581" lon="6.81503">
        <ele>383</ele>
        <time>2015-03-15T09:59:32.000Z</time>
      </trkpt>
      <trkpt lat="47.43578" lon="6.81499">
        <ele>383</ele>
        <time>2015-03-15T09:59:34.000Z</time>
      </trkpt>
      <trkpt lat="47.43576" lon="6.815">
        <ele>383</ele>
        <time>2015-03-15T09:59:35.000Z</time>
      </trkpt>
      <trkpt lat="47.43578" lon="6.81505">
        <ele>383</ele>
        <time>2015-03-15T09:59:39.000Z</time>
      </trkpt>
      <trkpt lat="47.43579" lon="6.81507">
        <ele>383</ele>
        <time>2015-03-15T09:59:40.000Z</time>
      </trkpt>
      <trkpt lat="47.43581" lon="6.81511">
        <ele>383</ele>
        <time>2015-03-15T09:59:41.000Z</time>
      </trkpt>
      <trkpt lat="47.43583" lon="6.81515">
        <ele>384</ele>
        <time>2015-03-15T09:59:42.000Z</time>
      </trkpt>
      <trkpt lat="47.43584" lon="6.8152">
        <ele>381</ele>
        <time>2015-03-15T09:59:43.000Z</time>
      </trkpt>
      <trkpt lat="47.43586" lon="6.81525">
        <ele>381</ele>
        <time>2015-03-15T09:59:44.000Z</time>
      </trkpt>
      <trkpt lat="47.43594" lon="6.81526">
        <ele>381</ele>
        <time>2015-03-15T09:59:45.000Z</time>
      </trkpt>
      <trkpt lat="47.43599" lon="6.81528">
        <ele>381</ele>
        <time>2015-03-15T09:59:46.000Z</time>
      </trkpt>
      <trkpt lat="47.43599" lon="6.81533">
        <ele>381</ele>
        <time>2015-03-15T09:59:48.000Z</time>
      </trkpt>
      <trkpt lat="47.43599" lon="6.81537">
        <ele>381</ele>
        <time>2015-03-15T09:59:49.000Z</time>
      </trkpt>
      <trkpt lat="47.43595" lon="6.81539">
        <ele>381</ele>
        <time>2015-03-15T09:59:53.000Z</time>
      </trkpt>
      <trkpt lat="47.43594" lon="6.81538">
        <ele>381</ele>
        <time>2015-03-15T09:59:54.000Z</time>
      </trkpt>
      <trkpt lat="47.43593" lon="6.81532">
        <ele>381</ele>
        <time>2015-03-15T09:59:58.000Z</time>
      </trkpt>
      <trkpt lat="47.43591" lon="6.81529">
        <ele>381</ele>
        <time>2015-03-15T09:59:59.000Z</time>
      </trkpt>
      <trkpt lat="47.43589" lon="6.81525">
        <ele>381</ele>
        <time>2015-03-15T10:00:01.000Z</time>
      </trkpt>
      <trkpt lat="47.43589" lon="6.81523">
        <ele>381</ele>
        <time>2015-03-15T10:00:02.000Z</time>
      </trkpt>
      <trkpt lat="47.4359" lon="6.81518">
        <ele>381</ele>
        <time>2015-03-15T10:00:06.000Z</time>
      </trkpt>
      <trkpt lat="47.4359" lon="6.81516">
        <ele>381</ele>
        <time>2015-03-15T10:00:07.000Z</time>
      </trkpt>
      <trkpt lat="47.43589" lon="6.81511">
        <ele>382</ele>
        <time>2015-03-15T10:00:10.000Z</time>
      </trkpt>
      <trkpt lat="47.43588" lon="6.81509">
        <ele>382</ele>
        <time>2015-03-15T10:00:11.000Z</time>
      </trkpt>
      <trkpt lat="47.43585" lon="6.81504">
        <ele>382</ele>
        <time>2015-03-15T10:00:14.000Z</time>
      </trkpt>
      <trkpt lat="47.43585" lon="6.81503">
        <ele>382</ele>
        <time>2015-03-15T10:00:15.000Z</time>
      </trkpt>
      <trkpt lat="47.43583" lon="6.81509">
        <ele>383</ele>
        <time>2015-03-15T10:00:25.000Z</time>
      </trkpt>
      <trkpt lat="47.43582" lon="6.8151">
        <ele>383</ele>
        <time>2015-03-15T10:00:26.000Z</time>
      </trkpt>
      <trkpt lat="47.43584" lon="6.81516">
        <ele>381</ele>
        <time>2015-03-15T10:00:36.000Z</time>
      </trkpt>
      <trkpt lat="47.43584" lon="6.81517">
        <ele>381</ele>
        <time>2015-03-15T10:00:37.000Z</time>
      </trkpt>
      <trkpt lat="47.43584" lon="6.81523">
        <ele>381</ele>
        <time>2015-03-15T10:00:44.000Z</time>
      </trkpt>
      <trkpt lat="47.43585" lon="6.81524">
        <ele>381</ele>
        <time>2015-03-15T10:00:45.000Z</time>
      </trkpt>
      <trkpt lat="47.43587" lon="6.81529">
        <ele>381</ele>
        <time>2015-03-15T10:00:50.000Z</time>
      </trkpt>
      <trkpt lat="47.43588" lon="6.81529">
        <ele>381</ele>
        <time>2015-03-15T10:00:51.000Z</time>
      </trkpt>
      <trkpt lat="47.43591" lon="6.81533">
        <ele>381</ele>
        <time>2015-03-15T10:00:56.000Z</time>
      </trkpt>
      <trkpt lat="47.43592" lon="6.81534">
        <ele>381</ele>
        <time>2015-03-15T10:00:57.000Z</time>
      </trkpt>
      <trkpt lat="47.43595" lon="6.81536">
        <ele>381</ele>
        <time>2015-03-15T10:01:00.000Z</time>
      </trkpt>
      <trkpt lat="47.43596" lon="6.81536">
        <ele>381</ele>
        <time>2015-03-15T10:01:01.000Z</time>
      </trkpt>
      <trkpt lat="47.436" lon="6.81536">
        <ele>381</ele>
        <time>2015-03-15T10:01:04.000Z</time>
      </trkpt>
      <trkpt lat="47.43602" lon="6.81537">
        <ele>381</ele>
        <time>2015-03-15T10:01:05.000Z</time>
      </trkpt>
      <trkpt lat="47.43604" lon="6.81542">
        <ele>381</ele>
        <time>2015-03-15T10:01:10.001Z</time>
      </trkpt>
      <trkpt lat="47.43604" lon="6.81543">
        <ele>381</ele>
        <time>2015-03-15T10:01:11.000Z</time>
      </trkpt>
      <trkpt lat="47.43607" lon="6.81541">
        <ele>381</ele>
        <time>2015-03-15T10:01:13.000Z</time>
      </trkpt>
      <trkpt lat="47.43608" lon="6.81539">
        <ele>381</ele>
        <time>2015-03-15T10:01:14.000Z</time>
      </trkpt>
      <trkpt lat="47.43611" lon="6.81536">
        <ele>381</ele>
        <time>2015-03-15T10:01:16.000Z</time>
      </trkpt>
      <trkpt lat="47.43615" lon="6.81534">
        <ele>381</ele>
        <time>2015-03-15T10:01:17.000Z</time>
      </trkpt>
      <trkpt lat="47.43618" lon="6.81531">
        <ele>381</ele>
        <time>2015-03-15T10:01:19.000Z</time>
      </trkpt>
      <trkpt lat="47.43619" lon="6.81529">
        <ele>381</ele>
        <time>2015-03-15T10:01:20.000Z</time>
      </trkpt>
      <trkpt lat="47.4362" lon="6.81525">
        <ele>381</ele>
        <time>2015-03-15T10:01:22.000Z</time>
      </trkpt>
      <trkpt lat="47.43621" lon="6.81522">
        <ele>381</ele>
        <time>2015-03-15T10:01:23.000Z</time>
      </trkpt>
      <trkpt lat="47.43623" lon="6.8152">
        <ele>381</ele>
        <time>2015-03-15T10:01:24.000Z</time>
      </trkpt>
      <trkpt lat="47.43624" lon="6.81517">
        <ele>381</ele>
        <time>2015-03-15T10:01:25.000Z</time>
      </trkpt>
      <trkpt lat="47.43624" lon="6.81516">
        <ele>381</ele>
        <time>2015-03-15T10:01:26.000Z</time>
      </trkpt>
      <trkpt lat="47.43627" lon="6.81511">
        <ele>381</ele>
        <time>2015-03-15T10:01:27.000Z</time>
      </trkpt>
      <trkpt lat="47.43629" lon="6.81509">
        <ele>381</ele>
        <time>2015-03-15T10:01:28.000Z</time>
      </trkpt>
      <trkpt lat="47.4363" lon="6.81506">
        <ele>381</ele>
        <time>2015-03-15T10:01:29.000Z</time>
      </trkpt>
      <trkpt lat="47.43632" lon="6.81503">
        <ele>381</ele>
        <time>2015-03-15T10:01:30.000Z</time>
      </trkpt>
      <trkpt lat="47.43633" lon="6.815">
        <ele>385</ele>
        <time>2015-03-15T10:01:31.000Z</time>
      </trkpt>
      <trkpt lat="47.43633" lon="6.81494">
        <ele>385</ele>
        <time>2015-03-15T10:01:34.000Z</time>
      </trkpt>
      <trkpt lat="47.43632" lon="6.81493">
        <ele>385</ele>
        <time>2015-03-15T10:01:35.000Z</time>
      </trkpt>
      <trkpt lat="47.43631" lon="6.81487">
        <ele>386</ele>
        <time>2015-03-15T10:01:40.000Z</time>
      </trkpt>
      <trkpt lat="47.43631" lon="6.81486">
        <ele>386</ele>
        <time>2015-03-15T10:01:41.000Z</time>
      </trkpt>
      <trkpt lat="47.43629" lon="6.81481">
        <ele>386</ele>
        <time>2015-03-15T10:01:46.000Z</time>
      </trkpt>
      <trkpt lat="47.4363" lon="6.81479">
        <ele>386</ele>
        <time>2015-03-15T10:01:47.000Z</time>
      </trkpt>
      <trkpt lat="47.43628" lon="6.81473">
        <ele>386</ele>
        <time>2015-03-15T10:01:50.000Z</time>
      </trkpt>
      <trkpt lat="47.43628" lon="6.81472">
        <ele>386</ele>
        <time>2015-03-15T10:01:51.000Z</time>
      </trkpt>
      <trkpt lat="47.43625" lon="6.81467">
        <ele>387</ele>
        <time>2015-03-15T10:01:54.000Z</time>
      </trkpt>
      <trkpt lat="47.43625" lon="6.81466">
        <ele>387</ele>
        <time>2015-03-15T10:01:55.000Z</time>
      </trkpt>
      <trkpt lat="47.43622" lon="6.81462">
        <ele>387</ele>
        <time>2015-03-15T10:01:58.998Z</time>
      </trkpt>
      <trkpt lat="47.43621" lon="6.81461">
        <ele>387</ele>
        <time>2015-03-15T10:02:00.000Z</time>
      </trkpt>
      <trkpt lat="47.4362" lon="6.81455">
        <ele>387</ele>
        <time>2015-03-15T10:02:07.000Z</time>
      </trkpt>
      <trkpt lat="47.4362" lon="6.81454">
        <ele>387</ele>
        <time>2015-03-15T10:02:08.000Z</time>
      </trkpt>
      <trkpt lat="47.43621" lon="6.81448">
        <ele>388</ele>
        <time>2015-03-15T10:02:14.000Z</time>
      </trkpt>
      <trkpt lat="47.43621" lon="6.81447">
        <ele>388</ele>
        <time>2015-03-15T10:02:15.000Z</time>
      </trkpt>
      <trkpt lat="47.43623" lon="6.81441">
        <ele>388</ele>
        <time>2015-03-15T10:02:20.000Z</time>
      </trkpt>
      <trkpt lat="47.43623" lon="6.81439">
        <ele>388</ele>
        <time>2015-03-15T10:02:21.000Z</time>
      </trkpt>
      <trkpt lat="47.43623" lon="6.81435">
        <ele>388</ele>
        <time>2015-03-15T10:02:23.000Z</time>
      </trkpt>
      <trkpt lat="47.43624" lon="6.81432">
        <ele>388</ele>
        <time>2015-03-15T10:02:24.000Z</time>
      </trkpt>
      <trkpt lat="47.43625" lon="6.81428">
        <ele>388</ele>
        <time>2015-03-15T10:02:27.000Z</time>
      </trkpt>
      <trkpt lat="47.43626" lon="6.81425">
        <ele>388</ele>
        <time>2015-03-15T10:02:28.000Z</time>
      </trkpt>
      <trkpt lat="47.43627" lon="6.8142">
        <ele>389</ele>
        <time>2015-03-15T10:02:30.000Z</time>
      </trkpt>
      <trkpt lat="47.43628" lon="6.81416">
        <ele>395</ele>
        <time>2015-03-15T10:02:31.000Z</time>
      </trkpt>
      <trkpt lat="47.43629" lon="6.81413">
        <ele>395</ele>
        <time>2015-03-15T10:02:32.000Z</time>
      </trkpt>
      <trkpt lat="47.43631" lon="6.81411">
        <ele>395</ele>
        <time>2015-03-15T10:02:33.000Z</time>
      </trkpt>
      <trkpt lat="47.43633" lon="6.81406">
        <ele>395</ele>
        <time>2015-03-15T10:02:35.000Z</time>
      </trkpt>
      <trkpt lat="47.43634" lon="6.81404">
        <ele>395</ele>
        <time>2015-03-15T10:02:36.000Z</time>
      </trkpt>
      <trkpt lat="47.43635" lon="6.81399">
        <ele>396</ele>
        <time>2015-03-15T10:02:38.000Z</time>
      </trkpt>
      <trkpt lat="47.43636" lon="6.81397">
        <ele>396</ele>
        <time>2015-03-15T10:02:39.000Z</time>
      </trkpt>
      <trkpt lat="47.43637" lon="6.81392">
        <ele>396</ele>
        <time>2015-03-15T10:02:42.000Z</time>
      </trkpt>
      <trkpt lat="47.43638" lon="6.8139">
        <ele>396</ele>
        <time>2015-03-15T10:02:43.000Z</time>
      </trkpt>
      <trkpt lat="47.4364" lon="6.81384">
        <ele>396</ele>
        <time>2015-03-15T10:02:46.000Z</time>
      </trkpt>
      <trkpt lat="47.43641" lon="6.81383">
        <ele>396</ele>
        <time>2015-03-15T10:02:47.000Z</time>
      </trkpt>
      <trkpt lat="47.43643" lon="6.81379">
        <ele>397</ele>
        <time>2015-03-15T10:02:49.000Z</time>
      </trkpt>
      <trkpt lat="47.43644" lon="6.81377">
        <ele>397</ele>
        <time>2015-03-15T10:02:50.000Z</time>
      </trkpt>
      <trkpt lat="47.43646" lon="6.81372">
        <ele>397</ele>
        <time>2015-03-15T10:02:52.998Z</time>
      </trkpt>
      <trkpt lat="47.43647" lon="6.81368">
        <ele>397</ele>
        <time>2015-03-15T10:02:54.000Z</time>
      </trkpt>
      <trkpt lat="47.43648" lon="6.81363">
        <ele>397</ele>
        <time>2015-03-15T10:02:56.000Z</time>
      </trkpt>
      <trkpt lat="47.43649" lon="6.8136">
        <ele>397</ele>
        <time>2015-03-15T10:02:57.000Z</time>
      </trkpt>
      <trkpt lat="47.4365" lon="6.81355">
        <ele>398</ele>
        <time>2015-03-15T10:02:59.000Z</time>
      </trkpt>
      <trkpt lat="47.43651" lon="6.81352">
        <ele>397</ele>
        <time>2015-03-15T10:03:00.000Z</time>
      </trkpt>
      <trkpt lat="47.43654" lon="6.81348">
        <ele>397</ele>
        <time>2015-03-15T10:03:02.000Z</time>
      </trkpt>
      <trkpt lat="47.43655" lon="6.81344">
        <ele>397</ele>
        <time>2015-03-15T10:03:03.000Z</time>
      </trkpt>
      <trkpt lat="47.43656" lon="6.81341">
        <ele>397</ele>
        <time>2015-03-15T10:03:04.000Z</time>
      </trkpt>
      <trkpt lat="47.43658" lon="6.81338">
        <ele>397</ele>
        <time>2015-03-15T10:03:05.000Z</time>
      </trkpt>
      <trkpt lat="47.4366" lon="6.81333">
        <ele>400</ele>
        <time>2015-03-15T10:03:07.000Z</time>
      </trkpt>
      <trkpt lat="47.43661" lon="6.81331">
        <ele>400</ele>
        <time>2015-03-15T10:03:08.000Z</time>
      </trkpt>
      <trkpt lat="47.43663" lon="6.81325">
        <ele>401</ele>
        <time>2015-03-15T10:03:10.000Z</time>
      </trkpt>
      <trkpt lat="47.43664" lon="6.81322">
        <ele>402</ele>
        <time>2015-03-15T10:03:11.000Z</time>
      </trkpt>
      <trkpt lat="47.43665" lon="6.81316">
        <ele>404</ele>
        <time>2015-03-15T10:03:13.000Z</time>
      </trkpt>
      <trkpt lat="47.43666" lon="6.81314">
        <ele>405</ele>
        <time>2015-03-15T10:03:14.000Z</time>
      </trkpt>
      <trkpt lat="47.43667" lon="6.81308">
        <ele>394</ele>
        <time>2015-03-15T10:03:16.000Z</time>
      </trkpt>
      <trkpt lat="47.43669" lon="6.81304">
        <ele>394</ele>
        <time>2015-03-15T10:03:17.000Z</time>
      </trkpt>
      <trkpt lat="47.4367" lon="6.813">
        <ele>394</ele>
        <time>2015-03-15T10:03:18.000Z</time>
      </trkpt>
      <trkpt lat="47.43671" lon="6.81296">
        <ele>395</ele>
        <time>2015-03-15T10:03:19.000Z</time>
      </trkpt>
      <trkpt lat="47.43672" lon="6.81291">
        <ele>395</ele>
        <time>2015-03-15T10:03:20.000Z</time>
      </trkpt>
      <trkpt lat="47.43673" lon="6.81288">
        <ele>395</ele>
        <time>2015-03-15T10:03:20.999Z</time>
      </trkpt>
      <trkpt lat="47.43675" lon="6.81284">
        <ele>396</ele>
        <time>2015-03-15T10:03:22.000Z</time>
      </trkpt>
      <trkpt lat="47.43677" lon="6.81282">
        <ele>396</ele>
        <time>2015-03-15T10:03:23.000Z</time>
      </trkpt>
      <trkpt lat="47.4368" lon="6.81279">
        <ele>396</ele>
        <time>2015-03-15T10:03:24.000Z</time>
      </trkpt>
      <trkpt lat="47.43681" lon="6.81276">
        <ele>397</ele>
        <time>2015-03-15T10:03:25.000Z</time>
      </trkpt>
      <trkpt lat="47.43683" lon="6.81272">
        <ele>397</ele>
        <time>2015-03-15T10:03:26.000Z</time>
      </trkpt>
      <trkpt lat="47.43684" lon="6.81269">
        <ele>397</ele>
        <time>2015-03-15T10:03:26.998Z</time>
      </trkpt>
      <trkpt lat="47.43685" lon="6.81264">
        <ele>398</ele>
        <time>2015-03-15T10:03:28.000Z</time>
      </trkpt>
      <trkpt lat="47.43686" lon="6.81262">
        <ele>398</ele>
        <time>2015-03-15T10:03:29.000Z</time>
      </trkpt>
      <trkpt lat="47.4369" lon="6.81258">
        <ele>397</ele>
        <time>2015-03-15T10:03:30.999Z</time>
      </trkpt>
      <trkpt lat="47.43692" lon="6.81255">
        <ele>397</ele>
        <time>2015-03-15T10:03:32.000Z</time>
      </trkpt>
      <trkpt lat="47.43694" lon="6.81253">
        <ele>397</ele>
        <time>2015-03-15T10:03:33.000Z</time>
      </trkpt>
      <trkpt lat="47.43696" lon="6.81249">
        <ele>403</ele>
        <time>2015-03-15T10:03:34.000Z</time>
      </trkpt>
      <trkpt lat="47.43699" lon="6.81245">
        <ele>402</ele>
        <time>2015-03-15T10:03:35.000Z</time>
      </trkpt>
      <trkpt lat="47.43701" lon="6.81241">
        <ele>402</ele>
        <time>2015-03-15T10:03:36.000Z</time>
      </trkpt>
      <trkpt lat="47.43704" lon="6.81238">
        <ele>402</ele>
        <time>2015-03-15T10:03:37.000Z</time>
      </trkpt>
      <trkpt lat="47.43705" lon="6.81235">
        <ele>402</ele>
        <time>2015-03-15T10:03:38.000Z</time>
      </trkpt>
      <trkpt lat="47.43706" lon="6.81232">
        <ele>401</ele>
        <time>2015-03-15T10:03:39.000Z</time>
      </trkpt>
      <trkpt lat="47.43707" lon="6.81229">
        <ele>401</ele>
        <time>2015-03-15T10:03:40.000Z</time>
      </trkpt>
      <trkpt lat="47.43708" lon="6.81226">
        <ele>401</ele>
        <time>2015-03-15T10:03:41.000Z</time>
      </trkpt>
      <trkpt lat="47.43709" lon="6.81223">
        <ele>401</ele>
        <time>2015-03-15T10:03:42.000Z</time>
      </trkpt>
      <trkpt lat="47.4371" lon="6.8122">
        <ele>401</ele>
        <time>2015-03-15T10:03:42.999Z</time>
      </trkpt>
      <trkpt lat="47.43711" lon="6.81216">
        <ele>402</ele>
        <time>2015-03-15T10:03:44.000Z</time>
      </trkpt>
      <trkpt lat="47.43711" lon="6.81212">
        <ele>402</ele>
        <time>2015-03-15T10:03:45.000Z</time>
      </trkpt>
      <trkpt lat="47.43712" lon="6.81208">
        <ele>402</ele>
        <time>2015-03-15T10:03:46.000Z</time>
      </trkpt>
      <trkpt lat="47.43713" lon="6.81205">
        <ele>402</ele>
        <time>2015-03-15T10:03:46.999Z</time>
      </trkpt>
      <trkpt lat="47.43715" lon="6.81201">
        <ele>402</ele>
        <time>2015-03-15T10:03:48.000Z</time>
      </trkpt>
      <trkpt lat="47.43717" lon="6.81199">
        <ele>402</ele>
        <time>2015-03-15T10:03:48.999Z</time>
      </trkpt>
      <trkpt lat="47.4372" lon="6.81199">
        <ele>401</ele>
        <time>2015-03-15T10:03:50.000Z</time>
      </trkpt>
      <trkpt lat="47.43724" lon="6.81197">
        <ele>401</ele>
        <time>2015-03-15T10:03:55.000Z</time>
      </trkpt>
      <trkpt lat="47.43723" lon="6.81193">
        <ele>401</ele>
        <time>2015-03-15T10:03:56.000Z</time>
      </trkpt>
      <trkpt lat="47.43723" lon="6.8119">
        <ele>401</ele>
        <time>2015-03-15T10:03:57.000Z</time>
      </trkpt>
      <trkpt lat="47.43724" lon="6.81186">
        <ele>401</ele>
        <time>2015-03-15T10:03:58.000Z</time>
      </trkpt>
      <trkpt lat="47.43725" lon="6.81183">
        <ele>401</ele>
        <time>2015-03-15T10:03:59.000Z</time>
      </trkpt>
      <trkpt lat="47.43728" lon="6.8118">
        <ele>400</ele>
        <time>2015-03-15T10:04:00.000Z</time>
      </trkpt>
      <trkpt lat="47.43731" lon="6.81177">
        <ele>400</ele>
        <time>2015-03-15T10:04:01.000Z</time>
      </trkpt>
      <trkpt lat="47.43734" lon="6.81173">
        <ele>399</ele>
        <time>2015-03-15T10:04:02.000Z</time>
      </trkpt>
      <trkpt lat="47.43736" lon="6.81171">
        <ele>398</ele>
        <time>2015-03-15T10:04:03.000Z</time>
      </trkpt>
      <trkpt lat="47.4374" lon="6.81163">
        <ele>402</ele>
        <time>2015-03-15T10:04:04.000Z</time>
      </trkpt>
      <trkpt lat="47.43742" lon="6.81158">
        <ele>402</ele>
        <time>2015-03-15T10:04:05.000Z</time>
      </trkpt>
      <trkpt lat="47.43745" lon="6.81152">
        <ele>404</ele>
        <time>2015-03-15T10:04:06.000Z</time>
      </trkpt>
      <trkpt lat="47.43747" lon="6.81148">
        <ele>405</ele>
        <time>2015-03-15T10:04:07.000Z</time>
      </trkpt>
      <trkpt lat="47.4375" lon="6.81142">
        <ele>395</ele>
        <time>2015-03-15T10:04:08.000Z</time>
      </trkpt>
      <trkpt lat="47.43753" lon="6.81137">
        <ele>396</ele>
        <time>2015-03-15T10:04:09.000Z</time>
      </trkpt>
      <trkpt lat="47.43756" lon="6.81134">
        <ele>396</ele>
        <time>2015-03-15T10:04:10.000Z</time>
      </trkpt>
      <trkpt lat="47.4376" lon="6.8113">
        <ele>396</ele>
        <time>2015-03-15T10:04:11.000Z</time>
      </trkpt>
      <trkpt lat="47.43763" lon="6.81127">
        <ele>396</ele>
        <time>2015-03-15T10:04:12.000Z</time>
      </trkpt>
      <trkpt lat="47.43767" lon="6.81123">
        <ele>396</ele>
        <time>2015-03-15T10:04:13.000Z</time>
      </trkpt>
      <trkpt lat="47.43769" lon="6.8112">
        <ele>397</ele>
        <time>2015-03-15T10:04:14.000Z</time>
      </trkpt>
      <trkpt lat="47.43771" lon="6.81118">
        <ele>397</ele>
        <time>2015-03-15T10:04:15.000Z</time>
      </trkpt>
      <trkpt lat="47.43773" lon="6.81115">
        <ele>397</ele>
        <time>2015-03-15T10:04:16.000Z</time>
      </trkpt>
      <trkpt lat="47.43775" lon="6.81111">
        <ele>397</ele>
        <time>2015-03-15T10:04:17.000Z</time>
      </trkpt>
      <trkpt lat="47.43778" lon="6.81108">
        <ele>397</ele>
        <time>2015-03-15T10:04:18.000Z</time>
      </trkpt>
      <trkpt lat="47.4378" lon="6.81104">
        <ele>397</ele>
        <time>2015-03-15T10:04:19.000Z</time>
      </trkpt>
      <trkpt lat="47.43783" lon="6.811">
        <ele>397</ele>
        <time>2015-03-15T10:04:20.000Z</time>
      </trkpt>
      <trkpt lat="47.43786" lon="6.81095">
        <ele>397</ele>
        <time>2015-03-15T10:04:21.000Z</time>
      </trkpt>
      <trkpt lat="47.43789" lon="6.81091">
        <ele>396</ele>
        <time>2015-03-15T10:04:22.000Z</time>
      </trkpt>
      <trkpt lat="47.43793" lon="6.81087">
        <ele>396</ele>
        <time>2015-03-15T10:04:23.000Z</time>
      </trkpt>
      <trkpt lat="47.43797" lon="6.81083">
        <ele>403</ele>
        <time>2015-03-15T10:04:24.000Z</time>
      </trkpt>
      <trkpt lat="47.43799" lon="6.81078">
        <ele>403</ele>
        <time>2015-03-15T10:04:25.000Z</time>
      </trkpt>
      <trkpt lat="47.43802" lon="6.81073">
        <ele>402</ele>
        <time>2015-03-15T10:04:26.000Z</time>
      </trkpt>
      <trkpt lat="47.43804" lon="6.81068">
        <ele>403</ele>
        <time>2015-03-15T10:04:27.000Z</time>
      </trkpt>
      <trkpt lat="47.43806" lon="6.81064">
        <ele>402</ele>
        <time>2015-03-15T10:04:28.000Z</time>
      </trkpt>
      <trkpt lat="47.43807" lon="6.81058">
        <ele>403</ele>
        <time>2015-03-15T10:04:29.000Z</time>
      </trkpt>
      <trkpt lat="47.43809" lon="6.81052">
        <ele>403</ele>
        <time>2015-03-15T10:04:30.000Z</time>
      </trkpt>
      <trkpt lat="47.43813" lon="6.8105">
        <ele>403</ele>
        <time>2015-03-15T10:04:31.001Z</time>
      </trkpt>
      <trkpt lat="47.43813" lon="6.81047">
        <ele>403</ele>
        <time>2015-03-15T10:04:32.000Z</time>
      </trkpt>
      <trkpt lat="47.43815" lon="6.81046">
        <ele>403</ele>
        <time>2015-03-15T10:04:33.000Z</time>
      </trkpt>
      <trkpt lat="47.43817" lon="6.81044">
        <ele>403</ele>
        <time>2015-03-15T10:04:34.000Z</time>
      </trkpt>
      <trkpt lat="47.4382" lon="6.8104">
        <ele>404</ele>
        <time>2015-03-15T10:04:35.000Z</time>
      </trkpt>
      <trkpt lat="47.43823" lon="6.81039">
        <ele>403</ele>
        <time>2015-03-15T10:04:36.000Z</time>
      </trkpt>
      <trkpt lat="47.43826" lon="6.81036">
        <ele>403</ele>
        <time>2015-03-15T10:04:37.000Z</time>
      </trkpt>
      <trkpt lat="47.43828" lon="6.81034">
        <ele>403</ele>
        <time>2015-03-15T10:04:38.000Z</time>
      </trkpt>
      <trkpt lat="47.4383" lon="6.8103">
        <ele>404</ele>
        <time>2015-03-15T10:04:39.000Z</time>
      </trkpt>
      <trkpt lat="47.43832" lon="6.81028">
        <ele>404</ele>
        <time>2015-03-15T10:04:40.000Z</time>
      </trkpt>
      <trkpt lat="47.43835" lon="6.81025">
        <ele>393</ele>
        <time>2015-03-15T10:04:42.000Z</time>
      </trkpt>
      <trkpt lat="47.43836" lon="6.81024">
        <ele>394</ele>
        <time>2015-03-15T10:04:43.000Z</time>
      </trkpt>
      <trkpt lat="47.43839" lon="6.8102">
        <ele>394</ele>
        <time>2015-03-15T10:04:47.000Z</time>
      </trkpt>
      <trkpt lat="47.4384" lon="6.81018">
        <ele>395</ele>
        <time>2015-03-15T10:04:48.000Z</time>
      </trkpt>
      <trkpt lat="47.43842" lon="6.81012">
        <ele>396</ele>
        <time>2015-03-15T10:04:51.000Z</time>
      </trkpt>
      <trkpt lat="47.43842" lon="6.8101">
        <ele>396</ele>
        <time>2015-03-15T10:04:52.000Z</time>
      </trkpt>
      <trkpt lat="47.43844" lon="6.81004">
        <ele>397</ele>
        <time>2015-03-15T10:04:55.000Z</time>
      </trkpt>
      <trkpt lat="47.43844" lon="6.81002">
        <ele>397</ele>
        <time>2015-03-15T10:04:56.000Z</time>
      </trkpt>
      <trkpt lat="47.43843" lon="6.80995">
        <ele>400</ele>
        <time>2015-03-15T10:04:59.000Z</time>
      </trkpt>
      <trkpt lat="47.43842" lon="6.80993">
        <ele>400</ele>
        <time>2015-03-15T10:04:59.999Z</time>
      </trkpt>
      <trkpt lat="47.43842" lon="6.8099">
        <ele>400</ele>
        <time>2015-03-15T10:05:01.000Z</time>
      </trkpt>
      <trkpt lat="47.43842" lon="6.80986">
        <ele>399</ele>
        <time>2015-03-15T10:05:02.000Z</time>
      </trkpt>
      <trkpt lat="47.43842" lon="6.80984">
        <ele>399</ele>
        <time>2015-03-15T10:05:03.001Z</time>
      </trkpt>
      <trkpt lat="47.43841" lon="6.80977">
        <ele>399</ele>
        <time>2015-03-15T10:05:04.000Z</time>
      </trkpt>
      <trkpt lat="47.43841" lon="6.80975">
        <ele>399</ele>
        <time>2015-03-15T10:05:05.000Z</time>
      </trkpt>
      <trkpt lat="47.43841" lon="6.8097">
        <ele>399</ele>
        <time>2015-03-15T10:05:06.000Z</time>
      </trkpt>
      <trkpt lat="47.43842" lon="6.80966">
        <ele>399</ele>
        <time>2015-03-15T10:05:08.001Z</time>
      </trkpt>
      <trkpt lat="47.43841" lon="6.80962">
        <ele>399</ele>
        <time>2015-03-15T10:05:09.000Z</time>
      </trkpt>
      <trkpt lat="47.4384" lon="6.8096">
        <ele>400</ele>
        <time>2015-03-15T10:05:10.999Z</time>
      </trkpt>
      <trkpt lat="47.4384" lon="6.80955">
        <ele>400</ele>
        <time>2015-03-15T10:05:12.000Z</time>
      </trkpt>
      <trkpt lat="47.43839" lon="6.80951">
        <ele>401</ele>
        <time>2015-03-15T10:05:14.000Z</time>
      </trkpt>
      <trkpt lat="47.43838" lon="6.80949">
        <ele>401</ele>
        <time>2015-03-15T10:05:15.000Z</time>
      </trkpt>
      <trkpt lat="47.43837" lon="6.80945">
        <ele>402</ele>
        <time>2015-03-15T10:05:17.000Z</time>
      </trkpt>
      <trkpt lat="47.43837" lon="6.80942">
        <ele>402</ele>
        <time>2015-03-15T10:05:18.000Z</time>
      </trkpt>
      <trkpt lat="47.43838" lon="6.80936">
        <ele>403</ele>
        <time>2015-03-15T10:05:21.000Z</time>
      </trkpt>
      <trkpt lat="47.43838" lon="6.80934">
        <ele>404</ele>
        <time>2015-03-15T10:05:22.000Z</time>
      </trkpt>
      <trkpt lat="47.4384" lon="6.80928">
        <ele>405</ele>
        <time>2015-03-15T10:05:27.000Z</time>
      </trkpt>
      <trkpt lat="47.43841" lon="6.80927">
        <ele>405</ele>
        <time>2015-03-15T10:05:28.000Z</time>
      </trkpt>
      <trkpt lat="47.43841" lon="6.80921">
        <ele>407</ele>
        <time>2015-03-15T10:05:32.000Z</time>
      </trkpt>
      <trkpt lat="47.43841" lon="6.8092">
        <ele>407</ele>
        <time>2015-03-15T10:05:33.000Z</time>
      </trkpt>
      <trkpt lat="47.43836" lon="6.80919">
        <ele>409</ele>
        <time>2015-03-15T10:05:36.000Z</time>
      </trkpt>
      <trkpt lat="47.43835" lon="6.80918">
        <ele>410</ele>
        <time>2015-03-15T10:05:37.000Z</time>
      </trkpt>
      <trkpt lat="47.43832" lon="6.80916">
        <ele>412</ele>
        <time>2015-03-15T10:05:40.000Z</time>
      </trkpt>
      <trkpt lat="47.43829" lon="6.80914">
        <ele>413</ele>
        <time>2015-03-15T10:05:41.000Z</time>
      </trkpt>
      <trkpt lat="47.43825" lon="6.80912">
        <ele>415</ele>
        <time>2015-03-15T10:05:44.000Z</time>
      </trkpt>
      <trkpt lat="47.43825" lon="6.80912">
        <ele>415</ele>
        <time>2015-03-15T10:05:44.999Z</time>
      </trkpt>
      <trkpt lat="47.43827" lon="6.80907">
        <ele>415</ele>
        <time>2015-03-15T10:05:49.000Z</time>
      </trkpt>
      <trkpt lat="47.43828" lon="6.80907">
        <ele>415</ele>
        <time>2015-03-15T10:05:50.000Z</time>
      </trkpt>
      <trkpt lat="47.43824" lon="6.80903">
        <ele>416</ele>
        <time>2015-03-15T10:06:14.000Z</time>
      </trkpt>
      <trkpt lat="47.43823" lon="6.80903">
        <ele>417</ele>
        <time>2015-03-15T10:06:15.000Z</time>
      </trkpt>
      <trkpt lat="47.43827" lon="6.809">
        <ele>417</ele>
        <time>2015-03-15T10:06:34.000Z</time>
      </trkpt>
      <trkpt lat="47.43828" lon="6.80899">
        <ele>417</ele>
        <time>2015-03-15T10:06:35.000Z</time>
      </trkpt>
      <trkpt lat="47.4383" lon="6.80895">
        <ele>417</ele>
        <time>2015-03-15T10:06:38.000Z</time>
      </trkpt>
      <trkpt lat="47.43831" lon="6.80894">
        <ele>417</ele>
        <time>2015-03-15T10:06:39.000Z</time>
      </trkpt>
      <trkpt lat="47.43834" lon="6.80892">
        <ele>406</ele>
        <time>2015-03-15T10:06:41.000Z</time>
      </trkpt>
      <trkpt lat="47.43835" lon="6.80891">
        <ele>406</ele>
        <time>2015-03-15T10:06:42.000Z</time>
      </trkpt>
      <trkpt lat="47.43838" lon="6.80888">
        <ele>406</ele>
        <time>2015-03-15T10:06:44.000Z</time>
      </trkpt>
      <trkpt lat="47.43838" lon="6.80886">
        <ele>405</ele>
        <time>2015-03-15T10:06:45.000Z</time>
      </trkpt>
      <trkpt lat="47.4384" lon="6.80882">
        <ele>405</ele>
        <time>2015-03-15T10:06:47.000Z</time>
      </trkpt>
      <trkpt lat="47.43842" lon="6.80881">
        <ele>405</ele>
        <time>2015-03-15T10:06:48.000Z</time>
      </trkpt>
      <trkpt lat="47.43844" lon="6.80876">
        <ele>405</ele>
        <time>2015-03-15T10:06:51.000Z</time>
      </trkpt>
      <trkpt lat="47.43845" lon="6.80875">
        <ele>405</ele>
        <time>2015-03-15T10:06:52.000Z</time>
      </trkpt>
      <trkpt lat="47.43846" lon="6.8087">
        <ele>405</ele>
        <time>2015-03-15T10:06:54.000Z</time>
      </trkpt>
      <trkpt lat="47.43847" lon="6.80867">
        <ele>405</ele>
        <time>2015-03-15T10:06:55.000Z</time>
      </trkpt>
      <trkpt lat="47.43847" lon="6.80861">
        <ele>405</ele>
        <time>2015-03-15T10:06:57.000Z</time>
      </trkpt>
      <trkpt lat="47.43848" lon="6.80858">
        <ele>406</ele>
        <time>2015-03-15T10:06:58.000Z</time>
      </trkpt>
      <trkpt lat="47.43848" lon="6.80852">
        <ele>406</ele>
        <time>2015-03-15T10:07:00.000Z</time>
      </trkpt>
      <trkpt lat="47.43848" lon="6.80848">
        <ele>407</ele>
        <time>2015-03-15T10:07:01.000Z</time>
      </trkpt>
      <trkpt lat="47.43848" lon="6.80845">
        <ele>407</ele>
        <time>2015-03-15T10:07:02.000Z</time>
      </trkpt>
      <trkpt lat="47.43848" lon="6.80842">
        <ele>407</ele>
        <time>2015-03-15T10:07:03.000Z</time>
      </trkpt>
      <trkpt lat="47.43848" lon="6.80838">
        <ele>408</ele>
        <time>2015-03-15T10:07:04.000Z</time>
      </trkpt>
      <trkpt lat="47.43848" lon="6.80835">
        <ele>408</ele>
        <time>2015-03-15T10:07:05.000Z</time>
      </trkpt>
      <trkpt lat="47.43847" lon="6.80829">
        <ele>409</ele>
        <time>2015-03-15T10:07:07.000Z</time>
      </trkpt>
      <trkpt lat="47.43847" lon="6.80826">
        <ele>409</ele>
        <time>2015-03-15T10:07:08.000Z</time>
      </trkpt>
      <trkpt lat="47.43846" lon="6.8082">
        <ele>408</ele>
        <time>2015-03-15T10:07:10.000Z</time>
      </trkpt>
      <trkpt lat="47.43845" lon="6.80817">
        <ele>408</ele>
        <time>2015-03-15T10:07:11.000Z</time>
      </trkpt>
      <trkpt lat="47.43845" lon="6.80812">
        <ele>408</ele>
        <time>2015-03-15T10:07:13.000Z</time>
      </trkpt>
      <trkpt lat="47.43846" lon="6.8081">
        <ele>408</ele>
        <time>2015-03-15T10:07:14.000Z</time>
      </trkpt>
      <trkpt lat="47.43847" lon="6.80805">
        <ele>407</ele>
        <time>2015-03-15T10:07:16.000Z</time>
      </trkpt>
      <trkpt lat="47.43847" lon="6.80803">
        <ele>407</ele>
        <time>2015-03-15T10:07:17.000Z</time>
      </trkpt>
      <trkpt lat="47.43846" lon="6.80798">
        <ele>407</ele>
        <time>2015-03-15T10:07:19.000Z</time>
      </trkpt>
      <trkpt lat="47.43846" lon="6.80796">
        <ele>407</ele>
        <time>2015-03-15T10:07:20.000Z</time>
      </trkpt>
      <trkpt lat="47.43844" lon="6.80791">
        <ele>407</ele>
        <time>2015-03-15T10:07:22.000Z</time>
      </trkpt>
      <trkpt lat="47.43843" lon="6.80789">
        <ele>407</ele>
        <time>2015-03-15T10:07:23.000Z</time>
      </trkpt>
      <trkpt lat="47.43841" lon="6.80784">
        <ele>407</ele>
        <time>2015-03-15T10:07:25.000Z</time>
      </trkpt>
      <trkpt lat="47.4384" lon="6.80782">
        <ele>408</ele>
        <time>2015-03-15T10:07:26.000Z</time>
      </trkpt>
      <trkpt lat="47.43837" lon="6.80778">
        <ele>408</ele>
        <time>2015-03-15T10:07:28.000Z</time>
      </trkpt>
      <trkpt lat="47.43836" lon="6.80775">
        <ele>408</ele>
        <time>2015-03-15T10:07:29.000Z</time>
      </trkpt>
      <trkpt lat="47.43834" lon="6.80771">
        <ele>409</ele>
        <time>2015-03-15T10:07:31.000Z</time>
      </trkpt>
      <trkpt lat="47.43833" lon="6.80769">
        <ele>418</ele>
        <time>2015-03-15T10:07:32.000Z</time>
      </trkpt>
      <trkpt lat="47.43831" lon="6.80765">
        <ele>417</ele>
        <time>2015-03-15T10:07:34.000Z</time>
      </trkpt>
      <trkpt lat="47.4383" lon="6.80762">
        <ele>417</ele>
        <time>2015-03-15T10:07:35.000Z</time>
      </trkpt>
      <trkpt lat="47.43828" lon="6.80758">
        <ele>416</ele>
        <time>2015-03-15T10:07:37.000Z</time>
      </trkpt>
      <trkpt lat="47.43827" lon="6.80756">
        <ele>416</ele>
        <time>2015-03-15T10:07:38.000Z</time>
      </trkpt>
      <trkpt lat="47.43824" lon="6.80753">
        <ele>417</ele>
        <time>2015-03-15T10:07:40.000Z</time>
      </trkpt>
      <trkpt lat="47.43822" lon="6.80751">
        <ele>417</ele>
        <time>2015-03-15T10:07:41.000Z</time>
      </trkpt>
      <trkpt lat="47.4382" lon="6.80749">
        <ele>417</ele>
        <time>2015-03-15T10:07:43.000Z</time>
      </trkpt>
      <trkpt lat="47.43818" lon="6.80748">
        <ele>417</ele>
        <time>2015-03-15T10:07:44.000Z</time>
      </trkpt>
      <trkpt lat="47.43815" lon="6.80743">
        <ele>418</ele>
        <time>2015-03-15T10:07:47.000Z</time>
      </trkpt>
      <trkpt lat="47.43814" lon="6.80741">
        <ele>418</ele>
        <time>2015-03-15T10:07:48.000Z</time>
      </trkpt>
      <trkpt lat="47.43811" lon="6.80737">
        <ele>419</ele>
        <time>2015-03-15T10:07:51.000Z</time>
      </trkpt>
      <trkpt lat="47.4381" lon="6.80736">
        <ele>419</ele>
        <time>2015-03-15T10:07:52.000Z</time>
      </trkpt>
      <trkpt lat="47.43807" lon="6.80733">
        <ele>420</ele>
        <time>2015-03-15T10:07:54.000Z</time>
      </trkpt>
      <trkpt lat="47.43806" lon="6.80731">
        <ele>420</ele>
        <time>2015-03-15T10:07:55.000Z</time>
      </trkpt>
      <trkpt lat="47.43803" lon="6.80727">
        <ele>420</ele>
        <time>2015-03-15T10:07:58.000Z</time>
      </trkpt>
      <trkpt lat="47.43802" lon="6.80726">
        <ele>420</ele>
        <time>2015-03-15T10:07:59.000Z</time>
      </trkpt>
      <trkpt lat="47.438" lon="6.80722">
        <ele>421</ele>
        <time>2015-03-15T10:08:02.000Z</time>
      </trkpt>
      <trkpt lat="47.43799" lon="6.80721">
        <ele>421</ele>
        <time>2015-03-15T10:08:03.000Z</time>
      </trkpt>
      <trkpt lat="47.43796" lon="6.80718">
        <ele>421</ele>
        <time>2015-03-15T10:08:06.000Z</time>
      </trkpt>
      <trkpt lat="47.43795" lon="6.80716">
        <ele>421</ele>
        <time>2015-03-15T10:08:07.000Z</time>
      </trkpt>
      <trkpt lat="47.43793" lon="6.8071">
        <ele>421</ele>
        <time>2015-03-15T10:08:10.000Z</time>
      </trkpt>
      <trkpt lat="47.43793" lon="6.80709">
        <ele>421</ele>
        <time>2015-03-15T10:08:11.000Z</time>
      </trkpt>
      <trkpt lat="47.4379" lon="6.80704">
        <ele>422</ele>
        <time>2015-03-15T10:08:14.000Z</time>
      </trkpt>
      <trkpt lat="47.4379" lon="6.80702">
        <ele>422</ele>
        <time>2015-03-15T10:08:15.000Z</time>
      </trkpt>
      <trkpt lat="47.43788" lon="6.80697">
        <ele>422</ele>
        <time>2015-03-15T10:08:18.000Z</time>
      </trkpt>
      <trkpt lat="47.43787" lon="6.80695">
        <ele>422</ele>
        <time>2015-03-15T10:08:19.000Z</time>
      </trkpt>
      <trkpt lat="47.43784" lon="6.80691">
        <ele>422</ele>
        <time>2015-03-15T10:08:24.000Z</time>
      </trkpt>
      <trkpt lat="47.43783" lon="6.80691">
        <ele>422</ele>
        <time>2015-03-15T10:08:25.000Z</time>
      </trkpt>
      <trkpt lat="47.4378" lon="6.80688">
        <ele>423</ele>
        <time>2015-03-15T10:08:29.000Z</time>
      </trkpt>
      <trkpt lat="47.43779" lon="6.80687">
        <ele>423</ele>
        <time>2015-03-15T10:08:30.000Z</time>
      </trkpt>
      <trkpt lat="47.43775" lon="6.80685">
        <ele>424</ele>
        <time>2015-03-15T10:08:34.000Z</time>
      </trkpt>
      <trkpt lat="47.43774" lon="6.80684">
        <ele>424</ele>
        <time>2015-03-15T10:08:35.000Z</time>
      </trkpt>
      <trkpt lat="47.43771" lon="6.80682">
        <ele>424</ele>
        <time>2015-03-15T10:08:39.000Z</time>
      </trkpt>
      <trkpt lat="47.4377" lon="6.80681">
        <ele>424</ele>
        <time>2015-03-15T10:08:40.000Z</time>
      </trkpt>
      <trkpt lat="47.43767" lon="6.80679">
        <ele>425</ele>
        <time>2015-03-15T10:08:43.000Z</time>
      </trkpt>
      <trkpt lat="47.43766" lon="6.80678">
        <ele>425</ele>
        <time>2015-03-15T10:08:44.000Z</time>
      </trkpt>
      <trkpt lat="47.43762" lon="6.80674">
        <ele>426</ele>
        <time>2015-03-15T10:08:51.000Z</time>
      </trkpt>
      <trkpt lat="47.43762" lon="6.80674">
        <ele>426</ele>
        <time>2015-03-15T10:08:52.000Z</time>
      </trkpt>
      <trkpt lat="47.43758" lon="6.80671">
        <ele>427</ele>
        <time>2015-03-15T10:08:57.000Z</time>
      </trkpt>
      <trkpt lat="47.43758" lon="6.8067">
        <ele>428</ele>
        <time>2015-03-15T10:08:58.000Z</time>
      </trkpt>
      <trkpt lat="47.43755" lon="6.80666">
        <ele>427</ele>
        <time>2015-03-15T10:09:02.000Z</time>
      </trkpt>
      <trkpt lat="47.43754" lon="6.80665">
        <ele>427</ele>
        <time>2015-03-15T10:09:03.000Z</time>
      </trkpt>
      <trkpt lat="47.43751" lon="6.80663">
        <ele>428</ele>
        <time>2015-03-15T10:09:07.000Z</time>
      </trkpt>
      <trkpt lat="47.4375" lon="6.80662">
        <ele>431</ele>
        <time>2015-03-15T10:09:08.000Z</time>
      </trkpt>
      <trkpt lat="47.43747" lon="6.80659">
        <ele>431</ele>
        <time>2015-03-15T10:09:12.000Z</time>
      </trkpt>
      <trkpt lat="47.43746" lon="6.80658">
        <ele>431</ele>
        <time>2015-03-15T10:09:13.000Z</time>
      </trkpt>
      <trkpt lat="47.43743" lon="6.80657">
        <ele>432</ele>
        <time>2015-03-15T10:09:16.000Z</time>
      </trkpt>
      <trkpt lat="47.43742" lon="6.80656">
        <ele>432</ele>
        <time>2015-03-15T10:09:17.000Z</time>
      </trkpt>
      <trkpt lat="47.43738" lon="6.80658">
        <ele>432</ele>
        <time>2015-03-15T10:09:24.000Z</time>
      </trkpt>
      <trkpt lat="47.43737" lon="6.80659">
        <ele>432</ele>
        <time>2015-03-15T10:09:25.000Z</time>
      </trkpt>
      <trkpt lat="47.43735" lon="6.80664">
        <ele>433</ele>
        <time>2015-03-15T10:09:29.000Z</time>
      </trkpt>
      <trkpt lat="47.43734" lon="6.80666">
        <ele>433</ele>
        <time>2015-03-15T10:09:30.000Z</time>
      </trkpt>
      <trkpt lat="47.43731" lon="6.80671">
        <ele>436</ele>
        <time>2015-03-15T10:09:34.000Z</time>
      </trkpt>
      <trkpt lat="47.4373" lon="6.80672">
        <ele>437</ele>
        <time>2015-03-15T10:09:35.000Z</time>
      </trkpt>
      <trkpt lat="47.43728" lon="6.80675">
        <ele>437</ele>
        <time>2015-03-15T10:09:36.999Z</time>
      </trkpt>
      <trkpt lat="47.43727" lon="6.80677">
        <ele>438</ele>
        <time>2015-03-15T10:09:38.000Z</time>
      </trkpt>
      <trkpt lat="47.43724" lon="6.80682">
        <ele>438</ele>
        <time>2015-03-15T10:09:40.999Z</time>
      </trkpt>
      <trkpt lat="47.43722" lon="6.80684">
        <ele>439</ele>
        <time>2015-03-15T10:09:42.000Z</time>
      </trkpt>
      <trkpt lat="47.43719" lon="6.80689">
        <ele>439</ele>
        <time>2015-03-15T10:09:59.000Z</time>
      </trkpt>
      <trkpt lat="47.43719" lon="6.80689">
        <ele>439</ele>
        <time>2015-03-15T10:10:00.000Z</time>
      </trkpt>
      <trkpt lat="47.43716" lon="6.80692">
        <ele>440</ele>
        <time>2015-03-15T10:10:27.000Z</time>
      </trkpt>
      <trkpt lat="47.43715" lon="6.80693">
        <ele>440</ele>
        <time>2015-03-15T10:10:28.000Z</time>
      </trkpt>
      <trkpt lat="47.43712" lon="6.80695">
        <ele>440</ele>
        <time>2015-03-15T10:10:38.000Z</time>
      </trkpt>
      <trkpt lat="47.43711" lon="6.80695">
        <ele>441</ele>
        <time>2015-03-15T10:10:39.000Z</time>
      </trkpt>
      <trkpt lat="47.43707" lon="6.80696">
        <ele>441</ele>
        <time>2015-03-15T10:10:45.000Z</time>
      </trkpt>
      <trkpt lat="47.43705" lon="6.80697">
        <ele>441</ele>
        <time>2015-03-15T10:10:46.000Z</time>
      </trkpt>
      <trkpt lat="47.43701" lon="6.80697">
        <ele>442</ele>
        <time>2015-03-15T10:10:50.000Z</time>
      </trkpt>
      <trkpt lat="47.437" lon="6.80697">
        <ele>442</ele>
        <time>2015-03-15T10:10:51.000Z</time>
      </trkpt>
      <trkpt lat="47.43696" lon="6.80698">
        <ele>442</ele>
        <time>2015-03-15T10:10:54.000Z</time>
      </trkpt>
      <trkpt lat="47.43695" lon="6.80698">
        <ele>442</ele>
        <time>2015-03-15T10:10:55.000Z</time>
      </trkpt>
      <trkpt lat="47.43691" lon="6.80698">
        <ele>443</ele>
        <time>2015-03-15T10:10:59.000Z</time>
      </trkpt>
      <trkpt lat="47.4369" lon="6.80699">
        <ele>443</ele>
        <time>2015-03-15T10:11:00.000Z</time>
      </trkpt>
      <trkpt lat="47.43686" lon="6.80701">
        <ele>443</ele>
        <time>2015-03-15T10:11:04.000Z</time>
      </trkpt>
      <trkpt lat="47.43685" lon="6.80701">
        <ele>443</ele>
        <time>2015-03-15T10:11:05.000Z</time>
      </trkpt>
      <trkpt lat="47.43681" lon="6.80703">
        <ele>444</ele>
        <time>2015-03-15T10:11:09.000Z</time>
      </trkpt>
      <trkpt lat="47.43681" lon="6.80704">
        <ele>444</ele>
        <time>2015-03-15T10:11:10.000Z</time>
      </trkpt>
      <trkpt lat="47.43677" lon="6.80705">
        <ele>444</ele>
        <time>2015-03-15T10:11:14.000Z</time>
      </trkpt>
      <trkpt lat="47.43676" lon="6.80706">
        <ele>444</ele>
        <time>2015-03-15T10:11:15.000Z</time>
      </trkpt>
      <trkpt lat="47.43672" lon="6.80707">
        <ele>444</ele>
        <time>2015-03-15T10:11:18.000Z</time>
      </trkpt>
      <trkpt lat="47.43671" lon="6.80708">
        <ele>444</ele>
        <time>2015-03-15T10:11:19.000Z</time>
      </trkpt>
      <trkpt lat="47.43667" lon="6.80708">
        <ele>444</ele>
        <time>2015-03-15T10:11:23.000Z</time>
      </trkpt>
      <trkpt lat="47.43666" lon="6.80709">
        <ele>452</ele>
        <time>2015-03-15T10:11:24.000Z</time>
      </trkpt>
      <trkpt lat="47.43663" lon="6.8071">
        <ele>452</ele>
        <time>2015-03-15T10:11:28.000Z</time>
      </trkpt>
      <trkpt lat="47.43662" lon="6.80711">
        <ele>452</ele>
        <time>2015-03-15T10:11:29.000Z</time>
      </trkpt>
      <trkpt lat="47.43658" lon="6.80712">
        <ele>452</ele>
        <time>2015-03-15T10:11:32.000Z</time>
      </trkpt>
      <trkpt lat="47.43657" lon="6.80713">
        <ele>452</ele>
        <time>2015-03-15T10:11:33.000Z</time>
      </trkpt>
      <trkpt lat="47.43654" lon="6.80717">
        <ele>453</ele>
        <time>2015-03-15T10:11:36.000Z</time>
      </trkpt>
      <trkpt lat="47.43652" lon="6.80718">
        <ele>453</ele>
        <time>2015-03-15T10:11:37.000Z</time>
      </trkpt>
      <trkpt lat="47.43651" lon="6.80724">
        <ele>453</ele>
        <time>2015-03-15T10:11:45.000Z</time>
      </trkpt>
      <trkpt lat="47.4365" lon="6.80724">
        <ele>453</ele>
        <time>2015-03-15T10:11:46.000Z</time>
      </trkpt>
      <trkpt lat="47.43648" lon="6.80729">
        <ele>453</ele>
        <time>2015-03-15T10:11:55.000Z</time>
      </trkpt>
      <trkpt lat="47.43647" lon="6.80729">
        <ele>453</ele>
        <time>2015-03-15T10:11:56.000Z</time>
      </trkpt>
      <trkpt lat="47.43644" lon="6.80734">
        <ele>453</ele>
        <time>2015-03-15T10:12:01.001Z</time>
      </trkpt>
      <trkpt lat="47.43644" lon="6.80736">
        <ele>453</ele>
        <time>2015-03-15T10:12:02.000Z</time>
      </trkpt>
      <trkpt lat="47.4364" lon="6.80739">
        <ele>453</ele>
        <time>2015-03-15T10:12:17.000Z</time>
      </trkpt>
      <trkpt lat="47.43639" lon="6.8074">
        <ele>453</ele>
        <time>2015-03-15T10:12:18.000Z</time>
      </trkpt>
      <trkpt lat="47.43636" lon="6.80744">
        <ele>453</ele>
        <time>2015-03-15T10:12:20.000Z</time>
      </trkpt>
      <trkpt lat="47.43635" lon="6.80746">
        <ele>453</ele>
        <time>2015-03-15T10:12:21.000Z</time>
      </trkpt>
      <trkpt lat="47.43632" lon="6.80748">
        <ele>453</ele>
        <time>2015-03-15T10:12:23.000Z</time>
      </trkpt>
      <trkpt lat="47.43631" lon="6.8075">
        <ele>453</ele>
        <time>2015-03-15T10:12:24.000Z</time>
      </trkpt>
      <trkpt lat="47.43628" lon="6.80752">
        <ele>453</ele>
        <time>2015-03-15T10:12:26.000Z</time>
      </trkpt>
      <trkpt lat="47.43627" lon="6.80753">
        <ele>453</ele>
        <time>2015-03-15T10:12:27.000Z</time>
      </trkpt>
      <trkpt lat="47.43623" lon="6.80757">
        <ele>453</ele>
        <time>2015-03-15T10:12:30.000Z</time>
      </trkpt>
      <trkpt lat="47.43622" lon="6.80757">
        <ele>453</ele>
        <time>2015-03-15T10:12:31.000Z</time>
      </trkpt>
      <trkpt lat="47.43619" lon="6.80757">
        <ele>453</ele>
        <time>2015-03-15T10:12:34.000Z</time>
      </trkpt>
      <trkpt lat="47.43618" lon="6.80758">
        <ele>453</ele>
        <time>2015-03-15T10:12:35.000Z</time>
      </trkpt>
      <trkpt lat="47.43613" lon="6.80759">
        <ele>453</ele>
        <time>2015-03-15T10:12:38.000Z</time>
      </trkpt>
      <trkpt lat="47.43612" lon="6.8076">
        <ele>454</ele>
        <time>2015-03-15T10:12:39.000Z</time>
      </trkpt>
      <trkpt lat="47.4361" lon="6.80763">
        <ele>454</ele>
        <time>2015-03-15T10:12:42.000Z</time>
      </trkpt>
      <trkpt lat="47.43609" lon="6.80765">
        <ele>454</ele>
        <time>2015-03-15T10:12:43.000Z</time>
      </trkpt>
      <trkpt lat="47.43607" lon="6.80771">
        <ele>454</ele>
        <time>2015-03-15T10:12:46.000Z</time>
      </trkpt>
      <trkpt lat="47.43607" lon="6.80772">
        <ele>454</ele>
        <time>2015-03-15T10:12:47.000Z</time>
      </trkpt>
      <trkpt lat="47.43605" lon="6.80776">
        <ele>454</ele>
        <time>2015-03-15T10:12:49.000Z</time>
      </trkpt>
      <trkpt lat="47.43604" lon="6.80778">
        <ele>454</ele>
        <time>2015-03-15T10:12:50.000Z</time>
      </trkpt>
      <trkpt lat="47.43602" lon="6.80783">
        <ele>454</ele>
        <time>2015-03-15T10:12:52.001Z</time>
      </trkpt>
      <trkpt lat="47.43601" lon="6.80784">
        <ele>454</ele>
        <time>2015-03-15T10:12:53.000Z</time>
      </trkpt>
      <trkpt lat="47.43597" lon="6.80782">
        <ele>454</ele>
        <time>2015-03-15T10:12:57.000Z</time>
      </trkpt>
      <trkpt lat="47.43595" lon="6.80782">
        <ele>454</ele>
        <time>2015-03-15T10:12:58.000Z</time>
      </trkpt>
      <trkpt lat="47.43592" lon="6.80784">
        <ele>454</ele>
        <time>2015-03-15T10:13:01.000Z</time>
      </trkpt>
      <trkpt lat="47.43591" lon="6.80785">
        <ele>454</ele>
        <time>2015-03-15T10:13:02.000Z</time>
      </trkpt>
      <trkpt lat="47.43587" lon="6.80788">
        <ele>454</ele>
        <time>2015-03-15T10:13:05.000Z</time>
      </trkpt>
      <trkpt lat="47.43585" lon="6.80788">
        <ele>454</ele>
        <time>2015-03-15T10:13:06.000Z</time>
      </trkpt>
      <trkpt lat="47.43581" lon="6.80788">
        <ele>461</ele>
        <time>2015-03-15T10:13:09.001Z</time>
      </trkpt>
      <trkpt lat="47.4358" lon="6.80789">
        <ele>461</ele>
        <time>2015-03-15T10:13:10.000Z</time>
      </trkpt>
      <trkpt lat="47.43576" lon="6.8079">
        <ele>461</ele>
        <time>2015-03-15T10:13:13.000Z</time>
      </trkpt>
      <trkpt lat="47.43575" lon="6.8079">
        <ele>461</ele>
        <time>2015-03-15T10:13:14.000Z</time>
      </trkpt>
      <trkpt lat="47.43572" lon="6.80793">
        <ele>461</ele>
        <time>2015-03-15T10:13:17.000Z</time>
      </trkpt>
      <trkpt lat="47.43571" lon="6.80794">
        <ele>461</ele>
        <time>2015-03-15T10:13:18.000Z</time>
      </trkpt>
      <trkpt lat="47.43567" lon="6.80793">
        <ele>462</ele>
        <time>2015-03-15T10:13:22.000Z</time>
      </trkpt>
      <trkpt lat="47.43566" lon="6.80793">
        <ele>462</ele>
        <time>2015-03-15T10:13:23.000Z</time>
      </trkpt>
      <trkpt lat="47.43562" lon="6.80795">
        <ele>462</ele>
        <time>2015-03-15T10:13:26.000Z</time>
      </trkpt>
      <trkpt lat="47.43561" lon="6.80795">
        <ele>462</ele>
        <time>2015-03-15T10:13:27.000Z</time>
      </trkpt>
      <trkpt lat="47.43557" lon="6.80793">
        <ele>462</ele>
        <time>2015-03-15T10:13:30.000Z</time>
      </trkpt>
      <trkpt lat="47.43556" lon="6.80792">
        <ele>462</ele>
        <time>2015-03-15T10:13:31.000Z</time>
      </trkpt>
      <trkpt lat="47.43553" lon="6.80789">
        <ele>462</ele>
        <time>2015-03-15T10:13:36.000Z</time>
      </trkpt>
      <trkpt lat="47.43552" lon="6.80788">
        <ele>463</ele>
        <time>2015-03-15T10:13:37.000Z</time>
      </trkpt>
      <trkpt lat="47.4355" lon="6.80783">
        <ele>463</ele>
        <time>2015-03-15T10:13:41.000Z</time>
      </trkpt>
      <trkpt lat="47.43549" lon="6.80782">
        <ele>463</ele>
        <time>2015-03-15T10:13:41.999Z</time>
      </trkpt>
      <trkpt lat="47.43546" lon="6.80779">
        <ele>463</ele>
        <time>2015-03-15T10:13:48.000Z</time>
      </trkpt>
      <trkpt lat="47.43544" lon="6.80778">
        <ele>463</ele>
        <time>2015-03-15T10:13:49.000Z</time>
      </trkpt>
      <trkpt lat="47.4354" lon="6.80779">
        <ele>463</ele>
        <time>2015-03-15T10:13:51.999Z</time>
      </trkpt>
      <trkpt lat="47.43539" lon="6.80781">
        <ele>463</ele>
        <time>2015-03-15T10:13:53.000Z</time>
      </trkpt>
      <trkpt lat="47.43535" lon="6.80785">
        <ele>464</ele>
        <time>2015-03-15T10:13:56.000Z</time>
      </trkpt>
      <trkpt lat="47.43534" lon="6.80786">
        <ele>464</ele>
        <time>2015-03-15T10:13:57.000Z</time>
      </trkpt>
      <trkpt lat="47.4353" lon="6.80787">
        <ele>464</ele>
        <time>2015-03-15T10:14:01.000Z</time>
      </trkpt>
      <trkpt lat="47.4353" lon="6.80787">
        <ele>464</ele>
        <time>2015-03-15T10:14:02.000Z</time>
      </trkpt>
      <trkpt lat="47.43526" lon="6.80788">
        <ele>464</ele>
        <time>2015-03-15T10:14:06.999Z</time>
      </trkpt>
      <trkpt lat="47.43525" lon="6.80786">
        <ele>464</ele>
        <time>2015-03-15T10:14:08.000Z</time>
      </trkpt>
      <trkpt lat="47.43521" lon="6.80783">
        <ele>465</ele>
        <time>2015-03-15T10:14:11.000Z</time>
      </trkpt>
      <trkpt lat="47.4352" lon="6.80784">
        <ele>465</ele>
        <time>2015-03-15T10:14:12.000Z</time>
      </trkpt>
      <trkpt lat="47.43515" lon="6.80785">
        <ele>465</ele>
        <time>2015-03-15T10:14:17.999Z</time>
      </trkpt>
      <trkpt lat="47.43514" lon="6.80786">
        <ele>465</ele>
        <time>2015-03-15T10:14:19.000Z</time>
      </trkpt>
      <trkpt lat="47.43511" lon="6.80786">
        <ele>465</ele>
        <time>2015-03-15T10:14:22.000Z</time>
      </trkpt>
      <trkpt lat="47.43509" lon="6.80785">
        <ele>465</ele>
        <time>2015-03-15T10:14:23.000Z</time>
      </trkpt>
      <trkpt lat="47.43506" lon="6.80785">
        <ele>465</ele>
        <time>2015-03-15T10:14:26.000Z</time>
      </trkpt>
      <trkpt lat="47.43505" lon="6.80786">
        <ele>465</ele>
        <time>2015-03-15T10:14:27.000Z</time>
      </trkpt>
      <trkpt lat="47.43501" lon="6.80785">
        <ele>465</ele>
        <time>2015-03-15T10:14:30.000Z</time>
      </trkpt>
      <trkpt lat="47.435" lon="6.80785">
        <ele>466</ele>
        <time>2015-03-15T10:14:31.000Z</time>
      </trkpt>
      <trkpt lat="47.43497" lon="6.80787">
        <ele>471</ele>
        <time>2015-03-15T10:14:34.000Z</time>
      </trkpt>
      <trkpt lat="47.43496" lon="6.80788">
        <ele>471</ele>
        <time>2015-03-15T10:14:35.000Z</time>
      </trkpt>
      <trkpt lat="47.43493" lon="6.80791">
        <ele>471</ele>
        <time>2015-03-15T10:14:39.000Z</time>
      </trkpt>
      <trkpt lat="47.43492" lon="6.80793">
        <ele>471</ele>
        <time>2015-03-15T10:14:40.000Z</time>
      </trkpt>
      <trkpt lat="47.43491" lon="6.80798">
        <ele>471</ele>
        <time>2015-03-15T10:14:43.000Z</time>
      </trkpt>
      <trkpt lat="47.43491" lon="6.808">
        <ele>471</ele>
        <time>2015-03-15T10:14:44.000Z</time>
      </trkpt>
      <trkpt lat="47.43488" lon="6.80804">
        <ele>471</ele>
        <time>2015-03-15T10:14:47.000Z</time>
      </trkpt>
      <trkpt lat="47.43487" lon="6.80805">
        <ele>471</ele>
        <time>2015-03-15T10:14:48.000Z</time>
      </trkpt>
      <trkpt lat="47.43483" lon="6.80802">
        <ele>471</ele>
        <time>2015-03-15T10:14:52.000Z</time>
      </trkpt>
      <trkpt lat="47.43482" lon="6.80801">
        <ele>471</ele>
        <time>2015-03-15T10:14:53.000Z</time>
      </trkpt>
      <trkpt lat="47.43482" lon="6.80795">
        <ele>471</ele>
        <time>2015-03-15T10:14:56.000Z</time>
      </trkpt>
      <trkpt lat="47.43482" lon="6.80793">
        <ele>471</ele>
        <time>2015-03-15T10:14:57.000Z</time>
      </trkpt>
      <trkpt lat="47.43479" lon="6.80789">
        <ele>471</ele>
        <time>2015-03-15T10:15:00.000Z</time>
      </trkpt>
      <trkpt lat="47.43478" lon="6.80789">
        <ele>471</ele>
        <time>2015-03-15T10:15:01.000Z</time>
      </trkpt>
      <trkpt lat="47.43474" lon="6.80788">
        <ele>471</ele>
        <time>2015-03-15T10:15:04.000Z</time>
      </trkpt>
      <trkpt lat="47.43473" lon="6.80789">
        <ele>471</ele>
        <time>2015-03-15T10:15:05.000Z</time>
      </trkpt>
      <trkpt lat="47.43469" lon="6.80789">
        <ele>471</ele>
        <time>2015-03-15T10:15:08.000Z</time>
      </trkpt>
      <trkpt lat="47.43468" lon="6.80788">
        <ele>471</ele>
        <time>2015-03-15T10:15:09.000Z</time>
      </trkpt>
      <trkpt lat="47.43464" lon="6.80786">
        <ele>472</ele>
        <time>2015-03-15T10:15:12.000Z</time>
      </trkpt>
      <trkpt lat="47.43463" lon="6.80785">
        <ele>472</ele>
        <time>2015-03-15T10:15:13.000Z</time>
      </trkpt>
      <trkpt lat="47.43459" lon="6.80782">
        <ele>472</ele>
        <time>2015-03-15T10:15:16.000Z</time>
      </trkpt>
      <trkpt lat="47.43458" lon="6.80782">
        <ele>472</ele>
        <time>2015-03-15T10:15:17.000Z</time>
      </trkpt>
      <trkpt lat="47.43454" lon="6.80782">
        <ele>472</ele>
        <time>2015-03-15T10:15:20.000Z</time>
      </trkpt>
      <trkpt lat="47.43453" lon="6.80781">
        <ele>472</ele>
        <time>2015-03-15T10:15:21.000Z</time>
      </trkpt>
      <trkpt lat="47.43449" lon="6.8078">
        <ele>472</ele>
        <time>2015-03-15T10:15:25.000Z</time>
      </trkpt>
      <trkpt lat="47.43448" lon="6.8078">
        <ele>472</ele>
        <time>2015-03-15T10:15:26.000Z</time>
      </trkpt>
      <trkpt lat="47.43444" lon="6.80782">
        <ele>472</ele>
        <time>2015-03-15T10:15:32.000Z</time>
      </trkpt>
      <trkpt lat="47.43444" lon="6.80784">
        <ele>472</ele>
        <time>2015-03-15T10:15:33.000Z</time>
      </trkpt>
      <trkpt lat="47.43441" lon="6.80787">
        <ele>472</ele>
        <time>2015-03-15T10:15:39.000Z</time>
      </trkpt>
      <trkpt lat="47.4344" lon="6.80788">
        <ele>472</ele>
        <time>2015-03-15T10:15:40.000Z</time>
      </trkpt>
      <trkpt lat="47.43439" lon="6.80783">
        <ele>473</ele>
        <time>2015-03-15T10:17:02.000Z</time>
      </trkpt>
      <trkpt lat="47.43439" lon="6.80781">
        <ele>473</ele>
        <time>2015-03-15T10:17:03.000Z</time>
      </trkpt>
      <trkpt lat="47.43439" lon="6.80775">
        <ele>473</ele>
        <time>2015-03-15T10:17:06.000Z</time>
      </trkpt>
      <trkpt lat="47.43439" lon="6.80773">
        <ele>473</ele>
        <time>2015-03-15T10:17:07.000Z</time>
      </trkpt>
      <trkpt lat="47.43437" lon="6.80769">
        <ele>473</ele>
        <time>2015-03-15T10:17:09.000Z</time>
      </trkpt>
      <trkpt lat="47.43436" lon="6.80767">
        <ele>473</ele>
        <time>2015-03-15T10:17:10.000Z</time>
      </trkpt>
      <trkpt lat="47.43434" lon="6.80761">
        <ele>473</ele>
        <time>2015-03-15T10:17:13.000Z</time>
      </trkpt>
      <trkpt lat="47.43434" lon="6.8076">
        <ele>474</ele>
        <time>2015-03-15T10:17:14.001Z</time>
      </trkpt>
      <trkpt lat="47.43433" lon="6.80754">
        <ele>474</ele>
        <time>2015-03-15T10:17:17.000Z</time>
      </trkpt>
      <trkpt lat="47.43433" lon="6.80752">
        <ele>474</ele>
        <time>2015-03-15T10:17:18.000Z</time>
      </trkpt>
      <trkpt lat="47.43432" lon="6.80748">
        <ele>475</ele>
        <time>2015-03-15T10:17:20.000Z</time>
      </trkpt>
      <trkpt lat="47.43432" lon="6.80745">
        <ele>475</ele>
        <time>2015-03-15T10:17:21.000Z</time>
      </trkpt>
      <trkpt lat="47.43431" lon="6.80742">
        <ele>475</ele>
        <time>2015-03-15T10:17:22.000Z</time>
      </trkpt>
      <trkpt lat="47.4343" lon="6.80739">
        <ele>475</ele>
        <time>2015-03-15T10:17:23.000Z</time>
      </trkpt>
      <trkpt lat="47.4343" lon="6.80735">
        <ele>475</ele>
        <time>2015-03-15T10:17:24.000Z</time>
      </trkpt>
      <trkpt lat="47.43429" lon="6.80732">
        <ele>475</ele>
        <time>2015-03-15T10:17:25.000Z</time>
      </trkpt>
      <trkpt lat="47.43428" lon="6.80726">
        <ele>474</ele>
        <time>2015-03-15T10:17:26.998Z</time>
      </trkpt>
      <trkpt lat="47.43427" lon="6.80723">
        <ele>474</ele>
        <time>2015-03-15T10:17:28.002Z</time>
      </trkpt>
      <trkpt lat="47.43426" lon="6.8072">
        <ele>474</ele>
        <time>2015-03-15T10:17:29.000Z</time>
      </trkpt>
      <trkpt lat="47.43425" lon="6.80716">
        <ele>474</ele>
        <time>2015-03-15T10:17:30.000Z</time>
      </trkpt>
      <trkpt lat="47.43423" lon="6.8071">
        <ele>475</ele>
        <time>2015-03-15T10:17:32.000Z</time>
      </trkpt>
      <trkpt lat="47.43423" lon="6.80707">
        <ele>475</ele>
        <time>2015-03-15T10:17:33.000Z</time>
      </trkpt>
      <trkpt lat="47.43422" lon="6.80701">
        <ele>475</ele>
        <time>2015-03-15T10:17:35.000Z</time>
      </trkpt>
      <trkpt lat="47.43421" lon="6.80698">
        <ele>475</ele>
        <time>2015-03-15T10:17:36.000Z</time>
      </trkpt>
      <trkpt lat="47.4342" lon="6.80692">
        <ele>475</ele>
        <time>2015-03-15T10:17:38.000Z</time>
      </trkpt>
      <trkpt lat="47.43419" lon="6.80689">
        <ele>475</ele>
        <time>2015-03-15T10:17:39.000Z</time>
      </trkpt>
      <trkpt lat="47.43418" lon="6.80686">
        <ele>475</ele>
        <time>2015-03-15T10:17:40.000Z</time>
      </trkpt>
      <trkpt lat="47.43417" lon="6.80683">
        <ele>475</ele>
        <time>2015-03-15T10:17:41.000Z</time>
      </trkpt>
      <trkpt lat="47.43416" lon="6.80676">
        <ele>477</ele>
        <time>2015-03-15T10:17:43.000Z</time>
      </trkpt>
      <trkpt lat="47.43415" lon="6.80674">
        <ele>477</ele>
        <time>2015-03-15T10:17:44.000Z</time>
      </trkpt>
      <trkpt lat="47.43414" lon="6.80669">
        <ele>477</ele>
        <time>2015-03-15T10:17:46.000Z</time>
      </trkpt>
      <trkpt lat="47.43414" lon="6.80666">
        <ele>477</ele>
        <time>2015-03-15T10:17:47.000Z</time>
      </trkpt>
      <trkpt lat="47.43414" lon="6.80663">
        <ele>477</ele>
        <time>2015-03-15T10:17:48.000Z</time>
      </trkpt>
      <trkpt lat="47.43414" lon="6.80659">
        <ele>477</ele>
        <time>2015-03-15T10:17:49.000Z</time>
      </trkpt>
      <trkpt lat="47.43415" lon="6.80655">
        <ele>478</ele>
        <time>2015-03-15T10:17:50.000Z</time>
      </trkpt>
      <trkpt lat="47.43415" lon="6.80651">
        <ele>478</ele>
        <time>2015-03-15T10:17:51.000Z</time>
      </trkpt>
      <trkpt lat="47.43415" lon="6.80648">
        <ele>478</ele>
        <time>2015-03-15T10:17:52.000Z</time>
      </trkpt>
      <trkpt lat="47.43414" lon="6.80644">
        <ele>478</ele>
        <time>2015-03-15T10:17:53.000Z</time>
      </trkpt>
      <trkpt lat="47.43413" lon="6.80641">
        <ele>478</ele>
        <time>2015-03-15T10:17:54.000Z</time>
      </trkpt>
      <trkpt lat="47.43412" lon="6.80638">
        <ele>478</ele>
        <time>2015-03-15T10:17:55.000Z</time>
      </trkpt>
      <trkpt lat="47.43411" lon="6.80635">
        <ele>478</ele>
        <time>2015-03-15T10:17:56.000Z</time>
      </trkpt>
      <trkpt lat="47.4341" lon="6.80631">
        <ele>478</ele>
        <time>2015-03-15T10:17:57.000Z</time>
      </trkpt>
      <trkpt lat="47.43409" lon="6.80627">
        <ele>478</ele>
        <time>2015-03-15T10:17:58.000Z</time>
      </trkpt>
      <trkpt lat="47.43407" lon="6.80623">
        <ele>479</ele>
        <time>2015-03-15T10:17:59.000Z</time>
      </trkpt>
      <trkpt lat="47.43406" lon="6.80619">
        <ele>479</ele>
        <time>2015-03-15T10:18:00.000Z</time>
      </trkpt>
      <trkpt lat="47.43405" lon="6.80616">
        <ele>479</ele>
        <time>2015-03-15T10:18:01.000Z</time>
      </trkpt>
      <trkpt lat="47.43404" lon="6.80612">
        <ele>479</ele>
        <time>2015-03-15T10:18:02.000Z</time>
      </trkpt>
      <trkpt lat="47.43403" lon="6.80609">
        <ele>479</ele>
        <time>2015-03-15T10:18:03.000Z</time>
      </trkpt>
      <trkpt lat="47.43402" lon="6.80605">
        <ele>479</ele>
        <time>2015-03-15T10:18:04.000Z</time>
      </trkpt>
      <trkpt lat="47.43401" lon="6.80601">
        <ele>479</ele>
        <time>2015-03-15T10:18:05.000Z</time>
      </trkpt>
      <trkpt lat="47.434" lon="6.80598">
        <ele>479</ele>
        <time>2015-03-15T10:18:06.000Z</time>
      </trkpt>
      <trkpt lat="47.43398" lon="6.80594">
        <ele>479</ele>
        <time>2015-03-15T10:18:07.000Z</time>
      </trkpt>
      <trkpt lat="47.43397" lon="6.8059">
        <ele>479</ele>
        <time>2015-03-15T10:18:08.000Z</time>
      </trkpt>
      <trkpt lat="47.43396" lon="6.80587">
        <ele>479</ele>
        <time>2015-03-15T10:18:09.000Z</time>
      </trkpt>
      <trkpt lat="47.43395" lon="6.80583">
        <ele>480</ele>
        <time>2015-03-15T10:18:10.000Z</time>
      </trkpt>
      <trkpt lat="47.43393" lon="6.80579">
        <ele>480</ele>
        <time>2015-03-15T10:18:11.000Z</time>
      </trkpt>
      <trkpt lat="47.43392" lon="6.80575">
        <ele>480</ele>
        <time>2015-03-15T10:18:12.000Z</time>
      </trkpt>
      <trkpt lat="47.4339" lon="6.80571">
        <ele>480</ele>
        <time>2015-03-15T10:18:13.000Z</time>
      </trkpt>
      <trkpt lat="47.43389" lon="6.80567">
        <ele>480</ele>
        <time>2015-03-15T10:18:14.000Z</time>
      </trkpt>
      <trkpt lat="47.43388" lon="6.80562">
        <ele>480</ele>
        <time>2015-03-15T10:18:15.000Z</time>
      </trkpt>
      <trkpt lat="47.43387" lon="6.80558">
        <ele>480</ele>
        <time>2015-03-15T10:18:16.000Z</time>
      </trkpt>
      <trkpt lat="47.43387" lon="6.80554">
        <ele>480</ele>
        <time>2015-03-15T10:18:17.000Z</time>
      </trkpt>
      <trkpt lat="47.43386" lon="6.80549">
        <ele>480</ele>
        <time>2015-03-15T10:18:18.000Z</time>
      </trkpt>
      <trkpt lat="47.43385" lon="6.80545">
        <ele>480</ele>
        <time>2015-03-15T10:18:19.000Z</time>
      </trkpt>
      <trkpt lat="47.43385" lon="6.8054">
        <ele>480</ele>
        <time>2015-03-15T10:18:20.000Z</time>
      </trkpt>
      <trkpt lat="47.43384" lon="6.80536">
        <ele>480</ele>
        <time>2015-03-15T10:18:21.000Z</time>
      </trkpt>
      <trkpt lat="47.43383" lon="6.80531">
        <ele>480</ele>
        <time>2015-03-15T10:18:22.000Z</time>
      </trkpt>
      <trkpt lat="47.43383" lon="6.80527">
        <ele>480</ele>
        <time>2015-03-15T10:18:23.000Z</time>
      </trkpt>
      <trkpt lat="47.43382" lon="6.80523">
        <ele>480</ele>
        <time>2015-03-15T10:18:24.000Z</time>
      </trkpt>
      <trkpt lat="47.43382" lon="6.80518">
        <ele>480</ele>
        <time>2015-03-15T10:18:25.000Z</time>
      </trkpt>
      <trkpt lat="47.43381" lon="6.80514">
        <ele>480</ele>
        <time>2015-03-15T10:18:26.000Z</time>
      </trkpt>
      <trkpt lat="47.4338" lon="6.80509">
        <ele>481</ele>
        <time>2015-03-15T10:18:27.000Z</time>
      </trkpt>
      <trkpt lat="47.43379" lon="6.80503">
        <ele>481</ele>
        <time>2015-03-15T10:18:28.000Z</time>
      </trkpt>
      <trkpt lat="47.43378" lon="6.80498">
        <ele>481</ele>
        <time>2015-03-15T10:18:29.000Z</time>
      </trkpt>
      <trkpt lat="47.43377" lon="6.80492">
        <ele>481</ele>
        <time>2015-03-15T10:18:30.000Z</time>
      </trkpt>
      <trkpt lat="47.43375" lon="6.80486">
        <ele>481</ele>
        <time>2015-03-15T10:18:31.000Z</time>
      </trkpt>
      <trkpt lat="47.43374" lon="6.80479">
        <ele>481</ele>
        <time>2015-03-15T10:18:32.000Z</time>
      </trkpt>
      <trkpt lat="47.43373" lon="6.80473">
        <ele>481</ele>
        <time>2015-03-15T10:18:33.000Z</time>
      </trkpt>
      <trkpt lat="47.4337" lon="6.80465">
        <ele>481</ele>
        <time>2015-03-15T10:18:34.000Z</time>
      </trkpt>
      <trkpt lat="47.43369" lon="6.80459">
        <ele>481</ele>
        <time>2015-03-15T10:18:35.000Z</time>
      </trkpt>
      <trkpt lat="47.43367" lon="6.80452">
        <ele>481</ele>
        <time>2015-03-15T10:18:36.000Z</time>
      </trkpt>
      <trkpt lat="47.43365" lon="6.80445">
        <ele>481</ele>
        <time>2015-03-15T10:18:37.000Z</time>
      </trkpt>
      <trkpt lat="47.43364" lon="6.80439">
        <ele>481</ele>
        <time>2015-03-15T10:18:38.000Z</time>
      </trkpt>
      <trkpt lat="47.43362" lon="6.80432">
        <ele>481</ele>
        <time>2015-03-15T10:18:39.000Z</time>
      </trkpt>
      <trkpt lat="47.43361" lon="6.80425">
        <ele>481</ele>
        <time>2015-03-15T10:18:40.000Z</time>
      </trkpt>
      <trkpt lat="47.4336" lon="6.8042">
        <ele>481</ele>
        <time>2015-03-15T10:18:41.000Z</time>
      </trkpt>
      <trkpt lat="47.43359" lon="6.80416">
        <ele>479</ele>
        <time>2015-03-15T10:18:42.000Z</time>
      </trkpt>
      <trkpt lat="47.43358" lon="6.80412">
        <ele>479</ele>
        <time>2015-03-15T10:18:43.000Z</time>
      </trkpt>
      <trkpt lat="47.43356" lon="6.80409">
        <ele>479</ele>
        <time>2015-03-15T10:18:45.000Z</time>
      </trkpt>
      <trkpt lat="47.43355" lon="6.80407">
        <ele>479</ele>
        <time>2015-03-15T10:18:46.000Z</time>
      </trkpt>
      <trkpt lat="47.43351" lon="6.80404">
        <ele>479</ele>
        <time>2015-03-15T10:19:16.000Z</time>
      </trkpt>
      <trkpt lat="47.4335" lon="6.80404">
        <ele>479</ele>
        <time>2015-03-15T10:19:17.000Z</time>
      </trkpt>
      <trkpt lat="47.4335" lon="6.80398">
        <ele>479</ele>
        <time>2015-03-15T10:19:24.001Z</time>
      </trkpt>
      <trkpt lat="47.43349" lon="6.80395">
        <ele>479</ele>
        <time>2015-03-15T10:19:24.999Z</time>
      </trkpt>
      <trkpt lat="47.43347" lon="6.80391">
        <ele>479</ele>
        <time>2015-03-15T10:19:26.000Z</time>
      </trkpt>
      <trkpt lat="47.43345" lon="6.80388">
        <ele>479</ele>
        <time>2015-03-15T10:19:27.000Z</time>
      </trkpt>
      <trkpt lat="47.43343" lon="6.80383">
        <ele>478</ele>
        <time>2015-03-15T10:19:28.000Z</time>
      </trkpt>
      <trkpt lat="47.43341" lon="6.80379">
        <ele>478</ele>
        <time>2015-03-15T10:19:29.001Z</time>
      </trkpt>
      <trkpt lat="47.43339" lon="6.80375">
        <ele>478</ele>
        <time>2015-03-15T10:19:30.000Z</time>
      </trkpt>
      <trkpt lat="47.43337" lon="6.80372">
        <ele>478</ele>
        <time>2015-03-15T10:19:31.000Z</time>
      </trkpt>
      <trkpt lat="47.43335" lon="6.80366">
        <ele>478</ele>
        <time>2015-03-15T10:19:34.000Z</time>
      </trkpt>
      <trkpt lat="47.43334" lon="6.80365">
        <ele>478</ele>
        <time>2015-03-15T10:19:35.000Z</time>
      </trkpt>
      <trkpt lat="47.4333" lon="6.80363">
        <ele>481</ele>
        <time>2015-03-15T10:19:37.000Z</time>
      </trkpt>
      <trkpt lat="47.43328" lon="6.80361">
        <ele>481</ele>
        <time>2015-03-15T10:19:38.000Z</time>
      </trkpt>
      <trkpt lat="47.43326" lon="6.80358">
        <ele>481</ele>
        <time>2015-03-15T10:19:40.000Z</time>
      </trkpt>
      <trkpt lat="47.43325" lon="6.80356">
        <ele>481</ele>
        <time>2015-03-15T10:19:41.000Z</time>
      </trkpt>
      <trkpt lat="47.43322" lon="6.80354">
        <ele>481</ele>
        <time>2015-03-15T10:19:44.000Z</time>
      </trkpt>
      <trkpt lat="47.43321" lon="6.80354">
        <ele>481</ele>
        <time>2015-03-15T10:19:45.000Z</time>
      </trkpt>
      <trkpt lat="47.43318" lon="6.80354">
        <ele>481</ele>
        <time>2015-03-15T10:19:46.000Z</time>
      </trkpt>
      <trkpt lat="47.43316" lon="6.80355">
        <ele>481</ele>
        <time>2015-03-15T10:19:47.000Z</time>
      </trkpt>
      <trkpt lat="47.43312" lon="6.80355">
        <ele>482</ele>
        <time>2015-03-15T10:19:49.000Z</time>
      </trkpt>
      <trkpt lat="47.4331" lon="6.80355">
        <ele>482</ele>
        <time>2015-03-15T10:19:50.000Z</time>
      </trkpt>
      <trkpt lat="47.43307" lon="6.80355">
        <ele>482</ele>
        <time>2015-03-15T10:19:52.000Z</time>
      </trkpt>
      <trkpt lat="47.43305" lon="6.80355">
        <ele>482</ele>
        <time>2015-03-15T10:19:53.000Z</time>
      </trkpt>
      <trkpt lat="47.43301" lon="6.80356">
        <ele>482</ele>
        <time>2015-03-15T10:19:55.000Z</time>
      </trkpt>
      <trkpt lat="47.43299" lon="6.80356">
        <ele>482</ele>
        <time>2015-03-15T10:19:56.000Z</time>
      </trkpt>
      <trkpt lat="47.43295" lon="6.80357">
        <ele>483</ele>
        <time>2015-03-15T10:19:58.000Z</time>
      </trkpt>
      <trkpt lat="47.43293" lon="6.80358">
        <ele>483</ele>
        <time>2015-03-15T10:19:59.000Z</time>
      </trkpt>
      <trkpt lat="47.43289" lon="6.80359">
        <ele>483</ele>
        <time>2015-03-15T10:20:01.000Z</time>
      </trkpt>
      <trkpt lat="47.43287" lon="6.80359">
        <ele>483</ele>
        <time>2015-03-15T10:20:02.000Z</time>
      </trkpt>
      <trkpt lat="47.43284" lon="6.80361">
        <ele>483</ele>
        <time>2015-03-15T10:20:06.000Z</time>
      </trkpt>
      <trkpt lat="47.43283" lon="6.80362">
        <ele>483</ele>
        <time>2015-03-15T10:20:07.000Z</time>
      </trkpt>
      <trkpt lat="47.4328" lon="6.80365">
        <ele>483</ele>
        <time>2015-03-15T10:20:09.000Z</time>
      </trkpt>
      <trkpt lat="47.43279" lon="6.80366">
        <ele>483</ele>
        <time>2015-03-15T10:20:10.000Z</time>
      </trkpt>
      <trkpt lat="47.43274" lon="6.80368">
        <ele>483</ele>
        <time>2015-03-15T10:20:12.000Z</time>
      </trkpt>
      <trkpt lat="47.43272" lon="6.80369">
        <ele>483</ele>
        <time>2015-03-15T10:20:13.000Z</time>
      </trkpt>
      <trkpt lat="47.43268" lon="6.8037">
        <ele>484</ele>
        <time>2015-03-15T10:20:15.000Z</time>
      </trkpt>
      <trkpt lat="47.43266" lon="6.8037">
        <ele>484</ele>
        <time>2015-03-15T10:20:16.000Z</time>
      </trkpt>
      <trkpt lat="47.43262" lon="6.8037">
        <ele>484</ele>
        <time>2015-03-15T10:20:18.000Z</time>
      </trkpt>
      <trkpt lat="47.4326" lon="6.8037">
        <ele>484</ele>
        <time>2015-03-15T10:20:19.000Z</time>
      </trkpt>
      <trkpt lat="47.43256" lon="6.80372">
        <ele>484</ele>
        <time>2015-03-15T10:20:21.000Z</time>
      </trkpt>
      <trkpt lat="47.43254" lon="6.80372">
        <ele>484</ele>
        <time>2015-03-15T10:20:22.000Z</time>
      </trkpt>
      <trkpt lat="47.43251" lon="6.80373">
        <ele>484</ele>
        <time>2015-03-15T10:20:23.000Z</time>
      </trkpt>
      <trkpt lat="47.43248" lon="6.80373">
        <ele>485</ele>
        <time>2015-03-15T10:20:24.000Z</time>
      </trkpt>
      <trkpt lat="47.43245" lon="6.80372">
        <ele>485</ele>
        <time>2015-03-15T10:20:25.000Z</time>
      </trkpt>
      <trkpt lat="47.43241" lon="6.80372">
        <ele>485</ele>
        <time>2015-03-15T10:20:26.000Z</time>
      </trkpt>
      <trkpt lat="47.43237" lon="6.80372">
        <ele>485</ele>
        <time>2015-03-15T10:20:27.000Z</time>
      </trkpt>
      <trkpt lat="47.43234" lon="6.80371">
        <ele>485</ele>
        <time>2015-03-15T10:20:28.000Z</time>
      </trkpt>
      <trkpt lat="47.4323" lon="6.80371">
        <ele>485</ele>
        <time>2015-03-15T10:20:29.000Z</time>
      </trkpt>
      <trkpt lat="47.43227" lon="6.80371">
        <ele>485</ele>
        <time>2015-03-15T10:20:30.000Z</time>
      </trkpt>
      <trkpt lat="47.43224" lon="6.8037">
        <ele>485</ele>
        <time>2015-03-15T10:20:31.000Z</time>
      </trkpt>
      <trkpt lat="47.43221" lon="6.80371">
        <ele>485</ele>
        <time>2015-03-15T10:20:32.000Z</time>
      </trkpt>
      <trkpt lat="47.43218" lon="6.80371">
        <ele>485</ele>
        <time>2015-03-15T10:20:33.000Z</time>
      </trkpt>
      <trkpt lat="47.43214" lon="6.80373">
        <ele>485</ele>
        <time>2015-03-15T10:20:34.000Z</time>
      </trkpt>
      <trkpt lat="47.43212" lon="6.80374">
        <ele>485</ele>
        <time>2015-03-15T10:20:35.000Z</time>
      </trkpt>
      <trkpt lat="47.43209" lon="6.80375">
        <ele>485</ele>
        <time>2015-03-15T10:20:36.000Z</time>
      </trkpt>
      <trkpt lat="47.43207" lon="6.80377">
        <ele>485</ele>
        <time>2015-03-15T10:20:37.000Z</time>
      </trkpt>
      <trkpt lat="47.43204" lon="6.80378">
        <ele>485</ele>
        <time>2015-03-15T10:20:38.000Z</time>
      </trkpt>
      <trkpt lat="47.43201" lon="6.80379">
        <ele>485</ele>
        <time>2015-03-15T10:20:39.000Z</time>
      </trkpt>
      <trkpt lat="47.43198" lon="6.80381">
        <ele>485</ele>
        <time>2015-03-15T10:20:40.000Z</time>
      </trkpt>
      <trkpt lat="47.43196" lon="6.80383">
        <ele>485</ele>
        <time>2015-03-15T10:20:41.000Z</time>
      </trkpt>
      <trkpt lat="47.43193" lon="6.80384">
        <ele>485</ele>
        <time>2015-03-15T10:20:42.000Z</time>
      </trkpt>
      <trkpt lat="47.43189" lon="6.80385">
        <ele>485</ele>
        <time>2015-03-15T10:20:44.000Z</time>
      </trkpt>
      <trkpt lat="47.43187" lon="6.80385">
        <ele>485</ele>
        <time>2015-03-15T10:20:45.000Z</time>
      </trkpt>
      <trkpt lat="47.43183" lon="6.80386">
        <ele>485</ele>
        <time>2015-03-15T10:20:47.000Z</time>
      </trkpt>
      <trkpt lat="47.4318" lon="6.80388">
        <ele>485</ele>
        <time>2015-03-15T10:20:48.000Z</time>
      </trkpt>
      <trkpt lat="47.43178" lon="6.80392">
        <ele>485</ele>
        <time>2015-03-15T10:20:49.000Z</time>
      </trkpt>
      <trkpt lat="47.43175" lon="6.80395">
        <ele>485</ele>
        <time>2015-03-15T10:20:50.000Z</time>
      </trkpt>
      <trkpt lat="47.43173" lon="6.804">
        <ele>485</ele>
        <time>2015-03-15T10:20:53.000Z</time>
      </trkpt>
      <trkpt lat="47.43172" lon="6.804">
        <ele>485</ele>
        <time>2015-03-15T10:20:54.000Z</time>
      </trkpt>
      <trkpt lat="47.43169" lon="6.80404">
        <ele>485</ele>
        <time>2015-03-15T10:20:58.000Z</time>
      </trkpt>
      <trkpt lat="47.43167" lon="6.80406">
        <ele>485</ele>
        <time>2015-03-15T10:20:59.000Z</time>
      </trkpt>
      <trkpt lat="47.43165" lon="6.80408">
        <ele>485</ele>
        <time>2015-03-15T10:21:00.000Z</time>
      </trkpt>
      <trkpt lat="47.43162" lon="6.8041">
        <ele>485</ele>
        <time>2015-03-15T10:21:01.000Z</time>
      </trkpt>
      <trkpt lat="47.4316" lon="6.80412">
        <ele>485</ele>
        <time>2015-03-15T10:21:02.000Z</time>
      </trkpt>
      <trkpt lat="47.43157" lon="6.80414">
        <ele>485</ele>
        <time>2015-03-15T10:21:03.000Z</time>
      </trkpt>
      <trkpt lat="47.43155" lon="6.80415">
        <ele>485</ele>
        <time>2015-03-15T10:21:04.000Z</time>
      </trkpt>
      <trkpt lat="47.43152" lon="6.80417">
        <ele>483</ele>
        <time>2015-03-15T10:21:05.000Z</time>
      </trkpt>
      <trkpt lat="47.4315" lon="6.80419">
        <ele>483</ele>
        <time>2015-03-15T10:21:06.000Z</time>
      </trkpt>
      <trkpt lat="47.43147" lon="6.80421">
        <ele>483</ele>
        <time>2015-03-15T10:21:07.000Z</time>
      </trkpt>
      <trkpt lat="47.43143" lon="6.80423">
        <ele>483</ele>
        <time>2015-03-15T10:21:08.000Z</time>
      </trkpt>
      <trkpt lat="47.4314" lon="6.80426">
        <ele>482</ele>
        <time>2015-03-15T10:21:09.000Z</time>
      </trkpt>
      <trkpt lat="47.43136" lon="6.80429">
        <ele>482</ele>
        <time>2015-03-15T10:21:10.000Z</time>
      </trkpt>
      <trkpt lat="47.43133" lon="6.80432">
        <ele>482</ele>
        <time>2015-03-15T10:21:11.000Z</time>
      </trkpt>
      <trkpt lat="47.43128" lon="6.80435">
        <ele>482</ele>
        <time>2015-03-15T10:21:12.000Z</time>
      </trkpt>
      <trkpt lat="47.43124" lon="6.80438">
        <ele>482</ele>
        <time>2015-03-15T10:21:13.000Z</time>
      </trkpt>
      <trkpt lat="47.43119" lon="6.80442">
        <ele>481</ele>
        <time>2015-03-15T10:21:14.000Z</time>
      </trkpt>
      <trkpt lat="47.43108" lon="6.80456">
        <ele>481</ele>
        <time>2015-03-15T10:21:15.000Z</time>
      </trkpt>
      <trkpt lat="47.431" lon="6.80461">
        <ele>480</ele>
        <time>2015-03-15T10:21:16.000Z</time>
      </trkpt>
      <trkpt lat="47.43096" lon="6.80465">
        <ele>480</ele>
        <time>2015-03-15T10:21:17.000Z</time>
      </trkpt>
      <trkpt lat="47.43091" lon="6.80468">
        <ele>480</ele>
        <time>2015-03-15T10:21:18.000Z</time>
      </trkpt>
      <trkpt lat="47.43089" lon="6.80473">
        <ele>479</ele>
        <time>2015-03-15T10:21:19.000Z</time>
      </trkpt>
      <trkpt lat="47.43084" lon="6.80478">
        <ele>479</ele>
        <time>2015-03-15T10:21:20.000Z</time>
      </trkpt>
      <trkpt lat="47.4308" lon="6.80482">
        <ele>475</ele>
        <time>2015-03-15T10:21:21.000Z</time>
      </trkpt>
      <trkpt lat="47.43076" lon="6.80487">
        <ele>475</ele>
        <time>2015-03-15T10:21:22.000Z</time>
      </trkpt>
      <trkpt lat="47.43074" lon="6.80493">
        <ele>475</ele>
        <time>2015-03-15T10:21:23.000Z</time>
      </trkpt>
      <trkpt lat="47.43071" lon="6.80496">
        <ele>475</ele>
        <time>2015-03-15T10:21:24.000Z</time>
      </trkpt>
      <trkpt lat="47.43067" lon="6.805">
        <ele>475</ele>
        <time>2015-03-15T10:21:25.000Z</time>
      </trkpt>
      <trkpt lat="47.43069" lon="6.80504">
        <ele>472</ele>
        <time>2015-03-15T10:21:27.000Z</time>
      </trkpt>
      <trkpt lat="47.43068" lon="6.80509">
        <ele>472</ele>
        <time>2015-03-15T10:21:28.000Z</time>
      </trkpt>
      <trkpt lat="47.43065" lon="6.80511">
        <ele>471</ele>
        <time>2015-03-15T10:21:37.000Z</time>
      </trkpt>
      <trkpt lat="47.43062" lon="6.80508">
        <ele>471</ele>
        <time>2015-03-15T10:21:38.000Z</time>
      </trkpt>
      <trkpt lat="47.43059" lon="6.80505">
        <ele>471</ele>
        <time>2015-03-15T10:21:39.000Z</time>
      </trkpt>
      <trkpt lat="47.43055" lon="6.80501">
        <ele>471</ele>
        <time>2015-03-15T10:21:40.000Z</time>
      </trkpt>
      <trkpt lat="47.43052" lon="6.80499">
        <ele>474</ele>
        <time>2015-03-15T10:21:41.000Z</time>
      </trkpt>
      <trkpt lat="47.4305" lon="6.80497">
        <ele>473</ele>
        <time>2015-03-15T10:21:42.000Z</time>
      </trkpt>
      <trkpt lat="47.43047" lon="6.80495">
        <ele>473</ele>
        <time>2015-03-15T10:21:43.000Z</time>
      </trkpt>
      <trkpt lat="47.43044" lon="6.80492">
        <ele>473</ele>
        <time>2015-03-15T10:21:44.000Z</time>
      </trkpt>
      <trkpt lat="47.43041" lon="6.80489">
        <ele>473</ele>
        <time>2015-03-15T10:21:45.000Z</time>
      </trkpt>
      <trkpt lat="47.43039" lon="6.80488">
        <ele>473</ele>
        <time>2015-03-15T10:21:46.000Z</time>
      </trkpt>
      <trkpt lat="47.43035" lon="6.80485">
        <ele>472</ele>
        <time>2015-03-15T10:21:49.000Z</time>
      </trkpt>
      <trkpt lat="47.43034" lon="6.80484">
        <ele>472</ele>
        <time>2015-03-15T10:21:50.000Z</time>
      </trkpt>
      <trkpt lat="47.43034" lon="6.8048">
        <ele>473</ele>
        <time>2015-03-15T10:21:52.000Z</time>
      </trkpt>
      <trkpt lat="47.43035" lon="6.80477">
        <ele>473</ele>
        <time>2015-03-15T10:21:53.000Z</time>
      </trkpt>
      <trkpt lat="47.43035" lon="6.80472">
        <ele>473</ele>
        <time>2015-03-15T10:21:55.000Z</time>
      </trkpt>
      <trkpt lat="47.43036" lon="6.80469">
        <ele>473</ele>
        <time>2015-03-15T10:21:56.000Z</time>
      </trkpt>
      <trkpt lat="47.43036" lon="6.80463">
        <ele>473</ele>
        <time>2015-03-15T10:21:58.000Z</time>
      </trkpt>
      <trkpt lat="47.43035" lon="6.8046">
        <ele>473</ele>
        <time>2015-03-15T10:21:59.000Z</time>
      </trkpt>
      <trkpt lat="47.43034" lon="6.80454">
        <ele>473</ele>
        <time>2015-03-15T10:22:01.000Z</time>
      </trkpt>
      <trkpt lat="47.43034" lon="6.80452">
        <ele>473</ele>
        <time>2015-03-15T10:22:02.000Z</time>
      </trkpt>
      <trkpt lat="47.43033" lon="6.80449">
        <ele>474</ele>
        <time>2015-03-15T10:22:03.000Z</time>
      </trkpt>
      <trkpt lat="47.43032" lon="6.80445">
        <ele>474</ele>
        <time>2015-03-15T10:22:04.000Z</time>
      </trkpt>
      <trkpt lat="47.43032" lon="6.80442">
        <ele>474</ele>
        <time>2015-03-15T10:22:05.000Z</time>
      </trkpt>
      <trkpt lat="47.43031" lon="6.80439">
        <ele>474</ele>
        <time>2015-03-15T10:22:06.000Z</time>
      </trkpt>
      <trkpt lat="47.4303" lon="6.80435">
        <ele>474</ele>
        <time>2015-03-15T10:22:07.000Z</time>
      </trkpt>
      <trkpt lat="47.43029" lon="6.80431">
        <ele>474</ele>
        <time>2015-03-15T10:22:08.000Z</time>
      </trkpt>
      <trkpt lat="47.43028" lon="6.80427">
        <ele>473</ele>
        <time>2015-03-15T10:22:09.000Z</time>
      </trkpt>
      <trkpt lat="47.43028" lon="6.80422">
        <ele>473</ele>
        <time>2015-03-15T10:22:10.000Z</time>
      </trkpt>
      <trkpt lat="47.43027" lon="6.80418">
        <ele>473</ele>
        <time>2015-03-15T10:22:11.000Z</time>
      </trkpt>
      <trkpt lat="47.43027" lon="6.80414">
        <ele>477</ele>
        <time>2015-03-15T10:22:12.000Z</time>
      </trkpt>
      <trkpt lat="47.43027" lon="6.80409">
        <ele>477</ele>
        <time>2015-03-15T10:22:13.000Z</time>
      </trkpt>
      <trkpt lat="47.43027" lon="6.80405">
        <ele>477</ele>
        <time>2015-03-15T10:22:14.000Z</time>
      </trkpt>
      <trkpt lat="47.43027" lon="6.80401">
        <ele>477</ele>
        <time>2015-03-15T10:22:15.000Z</time>
      </trkpt>
      <trkpt lat="47.43027" lon="6.80397">
        <ele>477</ele>
        <time>2015-03-15T10:22:16.000Z</time>
      </trkpt>
      <trkpt lat="47.43027" lon="6.80393">
        <ele>477</ele>
        <time>2015-03-15T10:22:17.000Z</time>
      </trkpt>
      <trkpt lat="47.43026" lon="6.80389">
        <ele>478</ele>
        <time>2015-03-15T10:22:18.000Z</time>
      </trkpt>
      <trkpt lat="47.43026" lon="6.80385">
        <ele>478</ele>
        <time>2015-03-15T10:22:19.000Z</time>
      </trkpt>
      <trkpt lat="47.43026" lon="6.80381">
        <ele>478</ele>
        <time>2015-03-15T10:22:20.000Z</time>
      </trkpt>
      <trkpt lat="47.43026" lon="6.80377">
        <ele>478</ele>
        <time>2015-03-15T10:22:21.000Z</time>
      </trkpt>
      <trkpt lat="47.43026" lon="6.80373">
        <ele>478</ele>
        <time>2015-03-15T10:22:22.000Z</time>
      </trkpt>
      <trkpt lat="47.43026" lon="6.8037">
        <ele>478</ele>
        <time>2015-03-15T10:22:23.000Z</time>
      </trkpt>
      <trkpt lat="47.43026" lon="6.80366">
        <ele>479</ele>
        <time>2015-03-15T10:22:24.000Z</time>
      </trkpt>
      <trkpt lat="47.43026" lon="6.80363">
        <ele>479</ele>
        <time>2015-03-15T10:22:25.000Z</time>
      </trkpt>
      <trkpt lat="47.43025" lon="6.80359">
        <ele>479</ele>
        <time>2015-03-15T10:22:26.000Z</time>
      </trkpt>
      <trkpt lat="47.43024" lon="6.80356">
        <ele>479</ele>
        <time>2015-03-15T10:22:27.000Z</time>
      </trkpt>
      <trkpt lat="47.43023" lon="6.80353">
        <ele>479</ele>
        <time>2015-03-15T10:22:28.000Z</time>
      </trkpt>
      <trkpt lat="47.43022" lon="6.80349">
        <ele>479</ele>
        <time>2015-03-15T10:22:29.000Z</time>
      </trkpt>
      <trkpt lat="47.43021" lon="6.80345">
        <ele>479</ele>
        <time>2015-03-15T10:22:30.000Z</time>
      </trkpt>
      <trkpt lat="47.43022" lon="6.8034">
        <ele>479</ele>
        <time>2015-03-15T10:22:31.000Z</time>
      </trkpt>
      <trkpt lat="47.43022" lon="6.80334">
        <ele>479</ele>
        <time>2015-03-15T10:22:32.000Z</time>
      </trkpt>
      <trkpt lat="47.43022" lon="6.80329">
        <ele>481</ele>
        <time>2015-03-15T10:22:33.000Z</time>
      </trkpt>
      <trkpt lat="47.43022" lon="6.80324">
        <ele>481</ele>
        <time>2015-03-15T10:22:34.000Z</time>
      </trkpt>
      <trkpt lat="47.43021" lon="6.80319">
        <ele>481</ele>
        <time>2015-03-15T10:22:35.000Z</time>
      </trkpt>
      <trkpt lat="47.4302" lon="6.80314">
        <ele>481</ele>
        <time>2015-03-15T10:22:36.000Z</time>
      </trkpt>
      <trkpt lat="47.43019" lon="6.8031">
        <ele>482</ele>
        <time>2015-03-15T10:22:37.000Z</time>
      </trkpt>
      <trkpt lat="47.43018" lon="6.80306">
        <ele>482</ele>
        <time>2015-03-15T10:22:38.000Z</time>
      </trkpt>
      <trkpt lat="47.43017" lon="6.80301">
        <ele>482</ele>
        <time>2015-03-15T10:22:39.000Z</time>
      </trkpt>
      <trkpt lat="47.43016" lon="6.80297">
        <ele>482</ele>
        <time>2015-03-15T10:22:40.000Z</time>
      </trkpt>
      <trkpt lat="47.43015" lon="6.80292">
        <ele>482</ele>
        <time>2015-03-15T10:22:41.000Z</time>
      </trkpt>
      <trkpt lat="47.43014" lon="6.80287">
        <ele>482</ele>
        <time>2015-03-15T10:22:42.000Z</time>
      </trkpt>
      <trkpt lat="47.43013" lon="6.80283">
        <ele>482</ele>
        <time>2015-03-15T10:22:43.000Z</time>
      </trkpt>
      <trkpt lat="47.43012" lon="6.80278">
        <ele>482</ele>
        <time>2015-03-15T10:22:44.000Z</time>
      </trkpt>
      <trkpt lat="47.43011" lon="6.80273">
        <ele>482</ele>
        <time>2015-03-15T10:22:45.000Z</time>
      </trkpt>
      <trkpt lat="47.4301" lon="6.80268">
        <ele>482</ele>
        <time>2015-03-15T10:22:46.000Z</time>
      </trkpt>
      <trkpt lat="47.43009" lon="6.80263">
        <ele>482</ele>
        <time>2015-03-15T10:22:47.000Z</time>
      </trkpt>
      <trkpt lat="47.43008" lon="6.80259">
        <ele>482</ele>
        <time>2015-03-15T10:22:48.000Z</time>
      </trkpt>
      <trkpt lat="47.43008" lon="6.80254">
        <ele>482</ele>
        <time>2015-03-15T10:22:49.000Z</time>
      </trkpt>
      <trkpt lat="47.43007" lon="6.80249">
        <ele>482</ele>
        <time>2015-03-15T10:22:50.000Z</time>
      </trkpt>
      <trkpt lat="47.43006" lon="6.80243">
        <ele>483</ele>
        <time>2015-03-15T10:22:51.000Z</time>
      </trkpt>
      <trkpt lat="47.43004" lon="6.80238">
        <ele>483</ele>
        <time>2015-03-15T10:22:52.000Z</time>
      </trkpt>
      <trkpt lat="47.43003" lon="6.80232">
        <ele>484</ele>
        <time>2015-03-15T10:22:53.000Z</time>
      </trkpt>
      <trkpt lat="47.43002" lon="6.80227">
        <ele>484</ele>
        <time>2015-03-15T10:22:54.000Z</time>
      </trkpt>
      <trkpt lat="47.43002" lon="6.80222">
        <ele>485</ele>
        <time>2015-03-15T10:22:55.000Z</time>
      </trkpt>
      <trkpt lat="47.43001" lon="6.80217">
        <ele>485</ele>
        <time>2015-03-15T10:22:56.000Z</time>
      </trkpt>
      <trkpt lat="47.43001" lon="6.80211">
        <ele>485</ele>
        <time>2015-03-15T10:22:57.000Z</time>
      </trkpt>
      <trkpt lat="47.43001" lon="6.80206">
        <ele>485</ele>
        <time>2015-03-15T10:22:58.000Z</time>
      </trkpt>
      <trkpt lat="47.43001" lon="6.80201">
        <ele>485</ele>
        <time>2015-03-15T10:22:59.000Z</time>
      </trkpt>
      <trkpt lat="47.43001" lon="6.80196">
        <ele>485</ele>
        <time>2015-03-15T10:23:00.000Z</time>
      </trkpt>
      <trkpt lat="47.43001" lon="6.80192">
        <ele>485</ele>
        <time>2015-03-15T10:23:01.000Z</time>
      </trkpt>
      <trkpt lat="47.43" lon="6.80188">
        <ele>485</ele>
        <time>2015-03-15T10:23:02.000Z</time>
      </trkpt>
      <trkpt lat="47.43" lon="6.80184">
        <ele>479</ele>
        <time>2015-03-15T10:23:03.000Z</time>
      </trkpt>
      <trkpt lat="47.42999" lon="6.80181">
        <ele>480</ele>
        <time>2015-03-15T10:23:04.000Z</time>
      </trkpt>
      <trkpt lat="47.42998" lon="6.80177">
        <ele>480</ele>
        <time>2015-03-15T10:23:05.000Z</time>
      </trkpt>
      <trkpt lat="47.42997" lon="6.80174">
        <ele>481</ele>
        <time>2015-03-15T10:23:06.000Z</time>
      </trkpt>
      <trkpt lat="47.42995" lon="6.80171">
        <ele>482</ele>
        <time>2015-03-15T10:23:07.000Z</time>
      </trkpt>
      <trkpt lat="47.42994" lon="6.80167">
        <ele>482</ele>
        <time>2015-03-15T10:23:08.000Z</time>
      </trkpt>
      <trkpt lat="47.42992" lon="6.80164">
        <ele>482</ele>
        <time>2015-03-15T10:23:09.000Z</time>
      </trkpt>
      <trkpt lat="47.42991" lon="6.80159">
        <ele>482</ele>
        <time>2015-03-15T10:23:10.000Z</time>
      </trkpt>
      <trkpt lat="47.4299" lon="6.80154">
        <ele>481</ele>
        <time>2015-03-15T10:23:11.000Z</time>
      </trkpt>
      <trkpt lat="47.4299" lon="6.80149">
        <ele>481</ele>
        <time>2015-03-15T10:23:12.000Z</time>
      </trkpt>
      <trkpt lat="47.42989" lon="6.80144">
        <ele>481</ele>
        <time>2015-03-15T10:23:13.000Z</time>
      </trkpt>
      <trkpt lat="47.42988" lon="6.80139">
        <ele>480</ele>
        <time>2015-03-15T10:23:14.000Z</time>
      </trkpt>
      <trkpt lat="47.42988" lon="6.80133">
        <ele>480</ele>
        <time>2015-03-15T10:23:15.000Z</time>
      </trkpt>
      <trkpt lat="47.42988" lon="6.80127">
        <ele>481</ele>
        <time>2015-03-15T10:23:16.000Z</time>
      </trkpt>
      <trkpt lat="47.42988" lon="6.80122">
        <ele>481</ele>
        <time>2015-03-15T10:23:17.000Z</time>
      </trkpt>
      <trkpt lat="47.42987" lon="6.80117">
        <ele>481</ele>
        <time>2015-03-15T10:23:18.000Z</time>
      </trkpt>
      <trkpt lat="47.42987" lon="6.80112">
        <ele>482</ele>
        <time>2015-03-15T10:23:19.000Z</time>
      </trkpt>
      <trkpt lat="47.42986" lon="6.80107">
        <ele>482</ele>
        <time>2015-03-15T10:23:20.000Z</time>
      </trkpt>
      <trkpt lat="47.42985" lon="6.80102">
        <ele>483</ele>
        <time>2015-03-15T10:23:21.000Z</time>
      </trkpt>
      <trkpt lat="47.42983" lon="6.80096">
        <ele>483</ele>
        <time>2015-03-15T10:23:22.000Z</time>
      </trkpt>
      <trkpt lat="47.42981" lon="6.80091">
        <ele>483</ele>
        <time>2015-03-15T10:23:23.000Z</time>
      </trkpt>
      <trkpt lat="47.42979" lon="6.80085">
        <ele>483</ele>
        <time>2015-03-15T10:23:24.000Z</time>
      </trkpt>
      <trkpt lat="47.42977" lon="6.8008">
        <ele>486</ele>
        <time>2015-03-15T10:23:25.000Z</time>
      </trkpt>
      <trkpt lat="47.42975" lon="6.80076">
        <ele>486</ele>
        <time>2015-03-15T10:23:26.000Z</time>
      </trkpt>
      <trkpt lat="47.42973" lon="6.80071">
        <ele>485</ele>
        <time>2015-03-15T10:23:27.000Z</time>
      </trkpt>
      <trkpt lat="47.42971" lon="6.80066">
        <ele>485</ele>
        <time>2015-03-15T10:23:28.000Z</time>
      </trkpt>
      <trkpt lat="47.4297" lon="6.80061">
        <ele>485</ele>
        <time>2015-03-15T10:23:29.000Z</time>
      </trkpt>
      <trkpt lat="47.42969" lon="6.80055">
        <ele>485</ele>
        <time>2015-03-15T10:23:30.000Z</time>
      </trkpt>
      <trkpt lat="47.42967" lon="6.8005">
        <ele>485</ele>
        <time>2015-03-15T10:23:31.000Z</time>
      </trkpt>
      <trkpt lat="47.42966" lon="6.80045">
        <ele>485</ele>
        <time>2015-03-15T10:23:32.000Z</time>
      </trkpt>
      <trkpt lat="47.42964" lon="6.80039">
        <ele>485</ele>
        <time>2015-03-15T10:23:33.000Z</time>
      </trkpt>
      <trkpt lat="47.42963" lon="6.80034">
        <ele>485</ele>
        <time>2015-03-15T10:23:34.000Z</time>
      </trkpt>
      <trkpt lat="47.42961" lon="6.80028">
        <ele>485</ele>
        <time>2015-03-15T10:23:35.000Z</time>
      </trkpt>
      <trkpt lat="47.4296" lon="6.80022">
        <ele>485</ele>
        <time>2015-03-15T10:23:36.000Z</time>
      </trkpt>
      <trkpt lat="47.42959" lon="6.80016">
        <ele>485</ele>
        <time>2015-03-15T10:23:37.000Z</time>
      </trkpt>
      <trkpt lat="47.42958" lon="6.80011">
        <ele>485</ele>
        <time>2015-03-15T10:23:38.000Z</time>
      </trkpt>
      <trkpt lat="47.42957" lon="6.80006">
        <ele>485</ele>
        <time>2015-03-15T10:23:39.000Z</time>
      </trkpt>
      <trkpt lat="47.42956" lon="6.80003">
        <ele>485</ele>
        <time>2015-03-15T10:23:40.000Z</time>
      </trkpt>
      <trkpt lat="47.42954" lon="6.79999">
        <ele>488</ele>
        <time>2015-03-15T10:23:41.000Z</time>
      </trkpt>
      <trkpt lat="47.42953" lon="6.79995">
        <ele>488</ele>
        <time>2015-03-15T10:23:42.000Z</time>
      </trkpt>
      <trkpt lat="47.42952" lon="6.79992">
        <ele>488</ele>
        <time>2015-03-15T10:23:43.000Z</time>
      </trkpt>
      <trkpt lat="47.42951" lon="6.79988">
        <ele>488</ele>
        <time>2015-03-15T10:23:44.000Z</time>
      </trkpt>
      <trkpt lat="47.42949" lon="6.79982">
        <ele>488</ele>
        <time>2015-03-15T10:23:46.000Z</time>
      </trkpt>
      <trkpt lat="47.42948" lon="6.7998">
        <ele>488</ele>
        <time>2015-03-15T10:23:47.000Z</time>
      </trkpt>
      <trkpt lat="47.42946" lon="6.79975">
        <ele>488</ele>
        <time>2015-03-15T10:23:49.000Z</time>
      </trkpt>
      <trkpt lat="47.42946" lon="6.79972">
        <ele>488</ele>
        <time>2015-03-15T10:23:50.000Z</time>
      </trkpt>
      <trkpt lat="47.42945" lon="6.79966">
        <ele>488</ele>
        <time>2015-03-15T10:23:52.000Z</time>
      </trkpt>
      <trkpt lat="47.42944" lon="6.79962">
        <ele>488</ele>
        <time>2015-03-15T10:23:53.000Z</time>
      </trkpt>
      <trkpt lat="47.42943" lon="6.79959">
        <ele>488</ele>
        <time>2015-03-15T10:23:54.000Z</time>
      </trkpt>
      <trkpt lat="47.42942" lon="6.79956">
        <ele>488</ele>
        <time>2015-03-15T10:23:55.000Z</time>
      </trkpt>
      <trkpt lat="47.42941" lon="6.7995">
        <ele>488</ele>
        <time>2015-03-15T10:23:57.000Z</time>
      </trkpt>
      <trkpt lat="47.4294" lon="6.79947">
        <ele>488</ele>
        <time>2015-03-15T10:23:58.000Z</time>
      </trkpt>
      <trkpt lat="47.42939" lon="6.79941">
        <ele>488</ele>
        <time>2015-03-15T10:24:00.000Z</time>
      </trkpt>
      <trkpt lat="47.42938" lon="6.79938">
        <ele>487</ele>
        <time>2015-03-15T10:24:01.000Z</time>
      </trkpt>
      <trkpt lat="47.42938" lon="6.79935">
        <ele>487</ele>
        <time>2015-03-15T10:24:02.000Z</time>
      </trkpt>
      <trkpt lat="47.42937" lon="6.79931">
        <ele>487</ele>
        <time>2015-03-15T10:24:03.000Z</time>
      </trkpt>
      <trkpt lat="47.42936" lon="6.79927">
        <ele>487</ele>
        <time>2015-03-15T10:24:04.000Z</time>
      </trkpt>
      <trkpt lat="47.42935" lon="6.79923">
        <ele>487</ele>
        <time>2015-03-15T10:24:05.000Z</time>
      </trkpt>
      <trkpt lat="47.42935" lon="6.79919">
        <ele>487</ele>
        <time>2015-03-15T10:24:06.000Z</time>
      </trkpt>
      <trkpt lat="47.42933" lon="6.79914">
        <ele>488</ele>
        <time>2015-03-15T10:24:07.000Z</time>
      </trkpt>
      <trkpt lat="47.42932" lon="6.7991">
        <ele>488</ele>
        <time>2015-03-15T10:24:08.000Z</time>
      </trkpt>
      <trkpt lat="47.42931" lon="6.79906">
        <ele>488</ele>
        <time>2015-03-15T10:24:09.000Z</time>
      </trkpt>
      <trkpt lat="47.4293" lon="6.79903">
        <ele>488</ele>
        <time>2015-03-15T10:24:10.000Z</time>
      </trkpt>
      <trkpt lat="47.42929" lon="6.799">
        <ele>488</ele>
        <time>2015-03-15T10:24:11.000Z</time>
      </trkpt>
      <trkpt lat="47.42928" lon="6.79894">
        <ele>489</ele>
        <time>2015-03-15T10:24:13.000Z</time>
      </trkpt>
      <trkpt lat="47.42928" lon="6.79891">
        <ele>489</ele>
        <time>2015-03-15T10:24:14.000Z</time>
      </trkpt>
      <trkpt lat="47.42926" lon="6.79886">
        <ele>489</ele>
        <time>2015-03-15T10:24:17.000Z</time>
      </trkpt>
      <trkpt lat="47.42925" lon="6.79884">
        <ele>489</ele>
        <time>2015-03-15T10:24:18.000Z</time>
      </trkpt>
      <trkpt lat="47.42925" lon="6.79879">
        <ele>489</ele>
        <time>2015-03-15T10:24:20.000Z</time>
      </trkpt>
      <trkpt lat="47.42925" lon="6.79876">
        <ele>490</ele>
        <time>2015-03-15T10:24:21.000Z</time>
      </trkpt>
      <trkpt lat="47.42925" lon="6.79871">
        <ele>490</ele>
        <time>2015-03-15T10:24:23.000Z</time>
      </trkpt>
      <trkpt lat="47.42925" lon="6.79868">
        <ele>490</ele>
        <time>2015-03-15T10:24:24.000Z</time>
      </trkpt>
      <trkpt lat="47.42924" lon="6.79864">
        <ele>490</ele>
        <time>2015-03-15T10:24:26.000Z</time>
      </trkpt>
      <trkpt lat="47.42923" lon="6.79861">
        <ele>490</ele>
        <time>2015-03-15T10:24:27.000Z</time>
      </trkpt>
      <trkpt lat="47.42923" lon="6.79857">
        <ele>490</ele>
        <time>2015-03-15T10:24:29.000Z</time>
      </trkpt>
      <trkpt lat="47.42922" lon="6.79854">
        <ele>490</ele>
        <time>2015-03-15T10:24:30.000Z</time>
      </trkpt>
      <trkpt lat="47.42921" lon="6.7985">
        <ele>490</ele>
        <time>2015-03-15T10:24:32.000Z</time>
      </trkpt>
      <trkpt lat="47.4292" lon="6.79847">
        <ele>490</ele>
        <time>2015-03-15T10:24:33.000Z</time>
      </trkpt>
      <trkpt lat="47.42919" lon="6.79841">
        <ele>490</ele>
        <time>2015-03-15T10:24:35.000Z</time>
      </trkpt>
      <trkpt lat="47.42919" lon="6.79838">
        <ele>490</ele>
        <time>2015-03-15T10:24:36.000Z</time>
      </trkpt>
      <trkpt lat="47.42917" lon="6.79833">
        <ele>490</ele>
        <time>2015-03-15T10:24:38.000Z</time>
      </trkpt>
      <trkpt lat="47.42917" lon="6.7983">
        <ele>490</ele>
        <time>2015-03-15T10:24:39.000Z</time>
      </trkpt>
      <trkpt lat="47.42915" lon="6.79825">
        <ele>489</ele>
        <time>2015-03-15T10:24:41.000Z</time>
      </trkpt>
      <trkpt lat="47.42914" lon="6.79822">
        <ele>489</ele>
        <time>2015-03-15T10:24:42.000Z</time>
      </trkpt>
      <trkpt lat="47.42913" lon="6.79817">
        <ele>489</ele>
        <time>2015-03-15T10:24:44.000Z</time>
      </trkpt>
      <trkpt lat="47.42912" lon="6.79815">
        <ele>489</ele>
        <time>2015-03-15T10:24:45.000Z</time>
      </trkpt>
      <trkpt lat="47.42915" lon="6.7981">
        <ele>489</ele>
        <time>2015-03-15T10:24:48.000Z</time>
      </trkpt>
      <trkpt lat="47.42917" lon="6.79808">
        <ele>489</ele>
        <time>2015-03-15T10:24:49.000Z</time>
      </trkpt>
      <trkpt lat="47.4292" lon="6.79805">
        <ele>491</ele>
        <time>2015-03-15T10:24:51.000Z</time>
      </trkpt>
      <trkpt lat="47.42921" lon="6.79804">
        <ele>491</ele>
        <time>2015-03-15T10:24:52.000Z</time>
      </trkpt>
      <trkpt lat="47.42924" lon="6.79803">
        <ele>491</ele>
        <time>2015-03-15T10:25:16.000Z</time>
      </trkpt>
      <trkpt lat="47.42925" lon="6.79804">
        <ele>491</ele>
        <time>2015-03-15T10:25:17.000Z</time>
      </trkpt>
      <trkpt lat="47.42928" lon="6.79805">
        <ele>491</ele>
        <time>2015-03-15T10:25:19.000Z</time>
      </trkpt>
      <trkpt lat="47.4293" lon="6.79807">
        <ele>491</ele>
        <time>2015-03-15T10:25:20.000Z</time>
      </trkpt>
      <trkpt lat="47.42933" lon="6.79811">
        <ele>491</ele>
        <time>2015-03-15T10:25:22.000Z</time>
      </trkpt>
      <trkpt lat="47.42935" lon="6.79813">
        <ele>491</ele>
        <time>2015-03-15T10:25:23.000Z</time>
      </trkpt>
      <trkpt lat="47.42936" lon="6.79816">
        <ele>491</ele>
        <time>2015-03-15T10:25:23.999Z</time>
      </trkpt>
      <trkpt lat="47.42939" lon="6.79817">
        <ele>491</ele>
        <time>2015-03-15T10:25:25.000Z</time>
      </trkpt>
      <trkpt lat="47.42943" lon="6.79819">
        <ele>492</ele>
        <time>2015-03-15T10:25:27.000Z</time>
      </trkpt>
      <trkpt lat="47.42944" lon="6.7982">
        <ele>492</ele>
        <time>2015-03-15T10:25:28.000Z</time>
      </trkpt>
      <trkpt lat="47.42947" lon="6.79822">
        <ele>492</ele>
        <time>2015-03-15T10:25:30.000Z</time>
      </trkpt>
      <trkpt lat="47.42948" lon="6.79823">
        <ele>492</ele>
        <time>2015-03-15T10:25:31.000Z</time>
      </trkpt>
      <trkpt lat="47.42953" lon="6.79824">
        <ele>492</ele>
        <time>2015-03-15T10:25:33.000Z</time>
      </trkpt>
      <trkpt lat="47.42955" lon="6.79824">
        <ele>492</ele>
        <time>2015-03-15T10:25:34.000Z</time>
      </trkpt>
      <trkpt lat="47.42957" lon="6.79825">
        <ele>492</ele>
        <time>2015-03-15T10:25:35.000Z</time>
      </trkpt>
      <trkpt lat="47.42959" lon="6.79826">
        <ele>492</ele>
        <time>2015-03-15T10:25:36.000Z</time>
      </trkpt>
      <trkpt lat="47.42963" lon="6.79826">
        <ele>492</ele>
        <time>2015-03-15T10:25:37.000Z</time>
      </trkpt>
      <trkpt lat="47.42968" lon="6.79826">
        <ele>492</ele>
        <time>2015-03-15T10:25:38.000Z</time>
      </trkpt>
      <trkpt lat="47.42973" lon="6.79826">
        <ele>493</ele>
        <time>2015-03-15T10:25:39.000Z</time>
      </trkpt>
      <trkpt lat="47.42978" lon="6.79824">
        <ele>493</ele>
        <time>2015-03-15T10:25:40.000Z</time>
      </trkpt>
      <trkpt lat="47.42981" lon="6.7982">
        <ele>493</ele>
        <time>2015-03-15T10:25:41.000Z</time>
      </trkpt>
      <trkpt lat="47.42983" lon="6.79816">
        <ele>493</ele>
        <time>2015-03-15T10:25:42.000Z</time>
      </trkpt>
      <trkpt lat="47.42984" lon="6.79811">
        <ele>493</ele>
        <time>2015-03-15T10:25:43.000Z</time>
      </trkpt>
      <trkpt lat="47.42984" lon="6.79806">
        <ele>493</ele>
        <time>2015-03-15T10:25:44.000Z</time>
      </trkpt>
      <trkpt lat="47.42984" lon="6.79801">
        <ele>492</ele>
        <time>2015-03-15T10:25:45.000Z</time>
      </trkpt>
      <trkpt lat="47.42984" lon="6.79795">
        <ele>492</ele>
        <time>2015-03-15T10:25:46.000Z</time>
      </trkpt>
      <trkpt lat="47.42984" lon="6.79789">
        <ele>492</ele>
        <time>2015-03-15T10:25:47.000Z</time>
      </trkpt>
      <trkpt lat="47.42983" lon="6.79784">
        <ele>492</ele>
        <time>2015-03-15T10:25:48.000Z</time>
      </trkpt>
      <trkpt lat="47.42983" lon="6.79779">
        <ele>492</ele>
        <time>2015-03-15T10:25:49.000Z</time>
      </trkpt>
      <trkpt lat="47.42982" lon="6.79774">
        <ele>492</ele>
        <time>2015-03-15T10:25:50.000Z</time>
      </trkpt>
      <trkpt lat="47.4298" lon="6.7977">
        <ele>492</ele>
        <time>2015-03-15T10:25:51.000Z</time>
      </trkpt>
      <trkpt lat="47.42978" lon="6.79766">
        <ele>492</ele>
        <time>2015-03-15T10:25:52.000Z</time>
      </trkpt>
      <trkpt lat="47.42975" lon="6.79762">
        <ele>492</ele>
        <time>2015-03-15T10:25:53.000Z</time>
      </trkpt>
      <trkpt lat="47.42973" lon="6.79758">
        <ele>492</ele>
        <time>2015-03-15T10:25:54.000Z</time>
      </trkpt>
      <trkpt lat="47.4297" lon="6.79755">
        <ele>492</ele>
        <time>2015-03-15T10:25:55.000Z</time>
      </trkpt>
      <trkpt lat="47.42968" lon="6.79752">
        <ele>492</ele>
        <time>2015-03-15T10:25:56.000Z</time>
      </trkpt>
      <trkpt lat="47.42966" lon="6.79748">
        <ele>492</ele>
        <time>2015-03-15T10:25:57.000Z</time>
      </trkpt>
      <trkpt lat="47.42964" lon="6.79744">
        <ele>492</ele>
        <time>2015-03-15T10:25:58.000Z</time>
      </trkpt>
      <trkpt lat="47.42962" lon="6.79739">
        <ele>492</ele>
        <time>2015-03-15T10:25:59.000Z</time>
      </trkpt>
      <trkpt lat="47.42961" lon="6.79734">
        <ele>492</ele>
        <time>2015-03-15T10:26:00.000Z</time>
      </trkpt>
      <trkpt lat="47.42961" lon="6.7973">
        <ele>492</ele>
        <time>2015-03-15T10:26:01.000Z</time>
      </trkpt>
      <trkpt lat="47.42961" lon="6.79725">
        <ele>492</ele>
        <time>2015-03-15T10:26:02.000Z</time>
      </trkpt>
      <trkpt lat="47.42962" lon="6.79721">
        <ele>492</ele>
        <time>2015-03-15T10:26:03.000Z</time>
      </trkpt>
      <trkpt lat="47.42963" lon="6.79717">
        <ele>492</ele>
        <time>2015-03-15T10:26:04.000Z</time>
      </trkpt>
      <trkpt lat="47.42965" lon="6.79712">
        <ele>492</ele>
        <time>2015-03-15T10:26:05.000Z</time>
      </trkpt>
      <trkpt lat="47.42967" lon="6.79709">
        <ele>492</ele>
        <time>2015-03-15T10:26:06.000Z</time>
      </trkpt>
      <trkpt lat="47.42969" lon="6.79706">
        <ele>492</ele>
        <time>2015-03-15T10:26:07.000Z</time>
      </trkpt>
      <trkpt lat="47.42971" lon="6.79703">
        <ele>492</ele>
        <time>2015-03-15T10:26:08.000Z</time>
      </trkpt>
      <trkpt lat="47.42976" lon="6.79703">
        <ele>492</ele>
        <time>2015-03-15T10:26:09.000Z</time>
      </trkpt>
      <trkpt lat="47.42978" lon="6.79701">
        <ele>492</ele>
        <time>2015-03-15T10:26:09.999Z</time>
      </trkpt>
      <trkpt lat="47.42983" lon="6.79701">
        <ele>492</ele>
        <time>2015-03-15T10:26:11.000Z</time>
      </trkpt>
      <trkpt lat="47.42987" lon="6.797">
        <ele>492</ele>
        <time>2015-03-15T10:26:12.000Z</time>
      </trkpt>
      <trkpt lat="47.4299" lon="6.79698">
        <ele>493</ele>
        <time>2015-03-15T10:26:13.000Z</time>
      </trkpt>
      <trkpt lat="47.42992" lon="6.79695">
        <ele>493</ele>
        <time>2015-03-15T10:26:14.000Z</time>
      </trkpt>
      <trkpt lat="47.42993" lon="6.79692">
        <ele>493</ele>
        <time>2015-03-15T10:26:15.000Z</time>
      </trkpt>
      <trkpt lat="47.42995" lon="6.79689">
        <ele>493</ele>
        <time>2015-03-15T10:26:16.000Z</time>
      </trkpt>
      <trkpt lat="47.42997" lon="6.79686">
        <ele>493</ele>
        <time>2015-03-15T10:26:17.000Z</time>
      </trkpt>
      <trkpt lat="47.42998" lon="6.79684">
        <ele>493</ele>
        <time>2015-03-15T10:26:17.999Z</time>
      </trkpt>
      <trkpt lat="47.43" lon="6.79681">
        <ele>493</ele>
        <time>2015-03-15T10:26:19.000Z</time>
      </trkpt>
      <trkpt lat="47.43002" lon="6.79678">
        <ele>493</ele>
        <time>2015-03-15T10:26:20.001Z</time>
      </trkpt>
      <trkpt lat="47.43004" lon="6.79675">
        <ele>493</ele>
        <time>2015-03-15T10:26:21.000Z</time>
      </trkpt>
      <trkpt lat="47.43005" lon="6.79671">
        <ele>493</ele>
        <time>2015-03-15T10:26:22.000Z</time>
      </trkpt>
      <trkpt lat="47.43007" lon="6.79668">
        <ele>493</ele>
        <time>2015-03-15T10:26:23.000Z</time>
      </trkpt>
      <trkpt lat="47.43009" lon="6.79663">
        <ele>492</ele>
        <time>2015-03-15T10:26:25.000Z</time>
      </trkpt>
      <trkpt lat="47.4301" lon="6.7966">
        <ele>492</ele>
        <time>2015-03-15T10:26:26.000Z</time>
      </trkpt>
      <trkpt lat="47.43011" lon="6.79657">
        <ele>491</ele>
        <time>2015-03-15T10:26:27.000Z</time>
      </trkpt>
      <trkpt lat="47.43012" lon="6.79653">
        <ele>491</ele>
        <time>2015-03-15T10:26:28.000Z</time>
      </trkpt>
      <trkpt lat="47.43013" lon="6.79649">
        <ele>491</ele>
        <time>2015-03-15T10:26:29.000Z</time>
      </trkpt>
      <trkpt lat="47.43014" lon="6.79645">
        <ele>491</ele>
        <time>2015-03-15T10:26:30.000Z</time>
      </trkpt>
      <trkpt lat="47.43015" lon="6.7964">
        <ele>490</ele>
        <time>2015-03-15T10:26:31.000Z</time>
      </trkpt>
      <trkpt lat="47.43015" lon="6.79636">
        <ele>490</ele>
        <time>2015-03-15T10:26:32.000Z</time>
      </trkpt>
      <trkpt lat="47.43015" lon="6.79633">
        <ele>490</ele>
        <time>2015-03-15T10:26:33.000Z</time>
      </trkpt>
      <trkpt lat="47.43015" lon="6.79628">
        <ele>490</ele>
        <time>2015-03-15T10:26:34.000Z</time>
      </trkpt>
      <trkpt lat="47.43014" lon="6.79624">
        <ele>489</ele>
        <time>2015-03-15T10:26:35.000Z</time>
      </trkpt>
      <trkpt lat="47.43013" lon="6.79618">
        <ele>489</ele>
        <time>2015-03-15T10:26:36.000Z</time>
      </trkpt>
      <trkpt lat="47.43012" lon="6.79613">
        <ele>489</ele>
        <time>2015-03-15T10:26:37.000Z</time>
      </trkpt>
      <trkpt lat="47.43013" lon="6.79608">
        <ele>489</ele>
        <time>2015-03-15T10:26:38.000Z</time>
      </trkpt>
      <trkpt lat="47.43014" lon="6.79604">
        <ele>489</ele>
        <time>2015-03-15T10:26:39.000Z</time>
      </trkpt>
      <trkpt lat="47.43014" lon="6.79601">
        <ele>488</ele>
        <time>2015-03-15T10:26:40.099Z</time>
      </trkpt>
      <trkpt lat="47.43018" lon="6.79599">
        <ele>488</ele>
        <time>2015-03-15T10:26:42.000Z</time>
      </trkpt>
      <trkpt lat="47.43019" lon="6.79598">
        <ele>488</ele>
        <time>2015-03-15T10:26:43.000Z</time>
      </trkpt>
      <trkpt lat="47.43022" lon="6.79598">
        <ele>488</ele>
        <time>2015-03-15T10:26:45.000Z</time>
      </trkpt>
      <trkpt lat="47.43024" lon="6.79598">
        <ele>488</ele>
        <time>2015-03-15T10:26:46.000Z</time>
      </trkpt>
      <trkpt lat="47.43027" lon="6.79598">
        <ele>488</ele>
        <time>2015-03-15T10:26:48.000Z</time>
      </trkpt>
      <trkpt lat="47.43029" lon="6.79599">
        <ele>488</ele>
        <time>2015-03-15T10:26:49.000Z</time>
      </trkpt>
      <trkpt lat="47.43032" lon="6.79602">
        <ele>488</ele>
        <time>2015-03-15T10:26:50.998Z</time>
      </trkpt>
      <trkpt lat="47.43034" lon="6.79604">
        <ele>489</ele>
        <time>2015-03-15T10:26:52.000Z</time>
      </trkpt>
      <trkpt lat="47.43038" lon="6.79607">
        <ele>489</ele>
        <time>2015-03-15T10:26:54.001Z</time>
      </trkpt>
      <trkpt lat="47.43039" lon="6.79607">
        <ele>489</ele>
        <time>2015-03-15T10:26:55.000Z</time>
      </trkpt>
      <trkpt lat="47.43043" lon="6.79607">
        <ele>489</ele>
        <time>2015-03-15T10:27:01.000Z</time>
      </trkpt>
      <trkpt lat="47.43044" lon="6.79608">
        <ele>489</ele>
        <time>2015-03-15T10:27:02.000Z</time>
      </trkpt>
      <trkpt lat="47.43046" lon="6.7961">
        <ele>489</ele>
        <time>2015-03-15T10:27:04.000Z</time>
      </trkpt>
      <trkpt lat="47.43048" lon="6.79611">
        <ele>489</ele>
        <time>2015-03-15T10:27:05.000Z</time>
      </trkpt>
      <trkpt lat="47.43052" lon="6.79612">
        <ele>489</ele>
        <time>2015-03-15T10:27:07.000Z</time>
      </trkpt>
      <trkpt lat="47.43054" lon="6.79613">
        <ele>489</ele>
        <time>2015-03-15T10:27:08.000Z</time>
      </trkpt>
      <trkpt lat="47.43058" lon="6.79611">
        <ele>488</ele>
        <time>2015-03-15T10:27:10.000Z</time>
      </trkpt>
      <trkpt lat="47.4306" lon="6.7961">
        <ele>488</ele>
        <time>2015-03-15T10:27:11.000Z</time>
      </trkpt>
      <trkpt lat="47.43064" lon="6.79609">
        <ele>488</ele>
        <time>2015-03-15T10:27:13.000Z</time>
      </trkpt>
      <trkpt lat="47.43066" lon="6.79609">
        <ele>488</ele>
        <time>2015-03-15T10:27:14.000Z</time>
      </trkpt>
      <trkpt lat="47.43068" lon="6.79609">
        <ele>488</ele>
        <time>2015-03-15T10:27:15.000Z</time>
      </trkpt>
      <trkpt lat="47.43071" lon="6.79609">
        <ele>488</ele>
        <time>2015-03-15T10:27:16.000Z</time>
      </trkpt>
      <trkpt lat="47.43073" lon="6.79609">
        <ele>488</ele>
        <time>2015-03-15T10:27:17.000Z</time>
      </trkpt>
      <trkpt lat="47.43075" lon="6.79609">
        <ele>488</ele>
        <time>2015-03-15T10:27:17.999Z</time>
      </trkpt>
      <trkpt lat="47.4308" lon="6.79609">
        <ele>488</ele>
        <time>2015-03-15T10:27:19.000Z</time>
      </trkpt>
      <trkpt lat="47.43083" lon="6.79609">
        <ele>488</ele>
        <time>2015-03-15T10:27:20.000Z</time>
      </trkpt>
      <trkpt lat="47.43086" lon="6.7961">
        <ele>488</ele>
        <time>2015-03-15T10:27:21.000Z</time>
      </trkpt>
      <trkpt lat="47.4309" lon="6.7961">
        <ele>488</ele>
        <time>2015-03-15T10:27:22.000Z</time>
      </trkpt>
      <trkpt lat="47.43093" lon="6.7961">
        <ele>488</ele>
        <time>2015-03-15T10:27:23.000Z</time>
      </trkpt>
      <trkpt lat="47.43096" lon="6.7961">
        <ele>488</ele>
        <time>2015-03-15T10:27:24.000Z</time>
      </trkpt>
      <trkpt lat="47.43099" lon="6.79611">
        <ele>488</ele>
        <time>2015-03-15T10:27:25.000Z</time>
      </trkpt>
      <trkpt lat="47.43101" lon="6.79613">
        <ele>488</ele>
        <time>2015-03-15T10:27:26.000Z</time>
      </trkpt>
      <trkpt lat="47.43103" lon="6.79614">
        <ele>488</ele>
        <time>2015-03-15T10:27:27.000Z</time>
      </trkpt>
      <trkpt lat="47.43105" lon="6.79616">
        <ele>488</ele>
        <time>2015-03-15T10:27:28.000Z</time>
      </trkpt>
      <trkpt lat="47.43108" lon="6.79616">
        <ele>488</ele>
        <time>2015-03-15T10:27:29.000Z</time>
      </trkpt>
      <trkpt lat="47.43111" lon="6.79617">
        <ele>488</ele>
        <time>2015-03-15T10:27:30.000Z</time>
      </trkpt>
      <trkpt lat="47.43113" lon="6.79618">
        <ele>488</ele>
        <time>2015-03-15T10:27:31.000Z</time>
      </trkpt>
      <trkpt lat="47.43115" lon="6.79619">
        <ele>488</ele>
        <time>2015-03-15T10:27:32.000Z</time>
      </trkpt>
      <trkpt lat="47.43117" lon="6.79621">
        <ele>489</ele>
        <time>2015-03-15T10:27:33.000Z</time>
      </trkpt>
      <trkpt lat="47.4312" lon="6.79622">
        <ele>489</ele>
        <time>2015-03-15T10:27:34.000Z</time>
      </trkpt>
      <trkpt lat="47.43123" lon="6.79623">
        <ele>489</ele>
        <time>2015-03-15T10:27:35.000Z</time>
      </trkpt>
      <trkpt lat="47.43126" lon="6.79623">
        <ele>489</ele>
        <time>2015-03-15T10:27:36.000Z</time>
      </trkpt>
      <trkpt lat="47.43129" lon="6.79622">
        <ele>489</ele>
        <time>2015-03-15T10:27:37.000Z</time>
      </trkpt>
      <trkpt lat="47.43132" lon="6.7962">
        <ele>489</ele>
        <time>2015-03-15T10:27:38.000Z</time>
      </trkpt>
      <trkpt lat="47.43135" lon="6.79617">
        <ele>488</ele>
        <time>2015-03-15T10:27:39.000Z</time>
      </trkpt>
      <trkpt lat="47.43138" lon="6.79614">
        <ele>488</ele>
        <time>2015-03-15T10:27:40.000Z</time>
      </trkpt>
      <trkpt lat="47.43141" lon="6.79611">
        <ele>488</ele>
        <time>2015-03-15T10:27:41.000Z</time>
      </trkpt>
      <trkpt lat="47.43144" lon="6.79607">
        <ele>488</ele>
        <time>2015-03-15T10:27:42.000Z</time>
      </trkpt>
      <trkpt lat="47.43148" lon="6.79603">
        <ele>488</ele>
        <time>2015-03-15T10:27:43.000Z</time>
      </trkpt>
      <trkpt lat="47.43151" lon="6.79599">
        <ele>487</ele>
        <time>2015-03-15T10:27:44.000Z</time>
      </trkpt>
      <trkpt lat="47.43155" lon="6.79596">
        <ele>487</ele>
        <time>2015-03-15T10:27:45.000Z</time>
      </trkpt>
      <trkpt lat="47.4316" lon="6.79593">
        <ele>486</ele>
        <time>2015-03-15T10:27:46.000Z</time>
      </trkpt>
      <trkpt lat="47.43164" lon="6.79592">
        <ele>486</ele>
        <time>2015-03-15T10:27:47.000Z</time>
      </trkpt>
      <trkpt lat="47.43168" lon="6.79591">
        <ele>486</ele>
        <time>2015-03-15T10:27:48.000Z</time>
      </trkpt>
      <trkpt lat="47.43171" lon="6.79591">
        <ele>486</ele>
        <time>2015-03-15T10:27:49.000Z</time>
      </trkpt>
      <trkpt lat="47.43174" lon="6.79591">
        <ele>486</ele>
        <time>2015-03-15T10:27:50.000Z</time>
      </trkpt>
      <trkpt lat="47.43178" lon="6.7959">
        <ele>486</ele>
        <time>2015-03-15T10:27:51.000Z</time>
      </trkpt>
      <trkpt lat="47.43182" lon="6.7959">
        <ele>487</ele>
        <time>2015-03-15T10:27:52.000Z</time>
      </trkpt>
      <trkpt lat="47.43187" lon="6.79591">
        <ele>487</ele>
        <time>2015-03-15T10:27:53.000Z</time>
      </trkpt>
      <trkpt lat="47.43191" lon="6.79592">
        <ele>487</ele>
        <time>2015-03-15T10:27:54.000Z</time>
      </trkpt>
      <trkpt lat="47.43196" lon="6.79595">
        <ele>487</ele>
        <time>2015-03-15T10:27:55.000Z</time>
      </trkpt>
      <trkpt lat="47.43201" lon="6.79598">
        <ele>488</ele>
        <time>2015-03-15T10:27:56.000Z</time>
      </trkpt>
      <trkpt lat="47.43217" lon="6.79591">
        <ele>488</ele>
        <time>2015-03-15T10:27:57.000Z</time>
      </trkpt>
      <trkpt lat="47.43224" lon="6.79588">
        <ele>487</ele>
        <time>2015-03-15T10:27:58.000Z</time>
      </trkpt>
      <trkpt lat="47.43229" lon="6.79585">
        <ele>487</ele>
        <time>2015-03-15T10:27:59.000Z</time>
      </trkpt>
      <trkpt lat="47.43234" lon="6.79585">
        <ele>487</ele>
        <time>2015-03-15T10:28:00.000Z</time>
      </trkpt>
      <trkpt lat="47.43239" lon="6.79584">
        <ele>487</ele>
        <time>2015-03-15T10:28:01.000Z</time>
      </trkpt>
      <trkpt lat="47.43243" lon="6.79584">
        <ele>487</ele>
        <time>2015-03-15T10:28:02.000Z</time>
      </trkpt>
      <trkpt lat="47.43247" lon="6.79585">
        <ele>487</ele>
        <time>2015-03-15T10:28:03.000Z</time>
      </trkpt>
      <trkpt lat="47.43252" lon="6.79588">
        <ele>487</ele>
        <time>2015-03-15T10:28:04.000Z</time>
      </trkpt>
      <trkpt lat="47.43258" lon="6.79587">
        <ele>487</ele>
        <time>2015-03-15T10:28:05.000Z</time>
      </trkpt>
      <trkpt lat="47.43261" lon="6.7959">
        <ele>487</ele>
        <time>2015-03-15T10:28:06.000Z</time>
      </trkpt>
      <trkpt lat="47.43267" lon="6.79588">
        <ele>487</ele>
        <time>2015-03-15T10:28:06.999Z</time>
      </trkpt>
      <trkpt lat="47.43271" lon="6.7959">
        <ele>487</ele>
        <time>2015-03-15T10:28:08.000Z</time>
      </trkpt>
      <trkpt lat="47.43276" lon="6.7959">
        <ele>487</ele>
        <time>2015-03-15T10:28:09.000Z</time>
      </trkpt>
      <trkpt lat="47.43279" lon="6.79592">
        <ele>486</ele>
        <time>2015-03-15T10:28:10.000Z</time>
      </trkpt>
      <trkpt lat="47.43282" lon="6.79593">
        <ele>486</ele>
        <time>2015-03-15T10:28:11.000Z</time>
      </trkpt>
      <trkpt lat="47.43285" lon="6.79595">
        <ele>486</ele>
        <time>2015-03-15T10:28:12.000Z</time>
      </trkpt>
      <trkpt lat="47.43288" lon="6.79596">
        <ele>486</ele>
        <time>2015-03-15T10:28:13.000Z</time>
      </trkpt>
      <trkpt lat="47.43291" lon="6.79597">
        <ele>486</ele>
        <time>2015-03-15T10:28:14.000Z</time>
      </trkpt>
      <trkpt lat="47.43306" lon="6.79584">
        <ele>486</ele>
        <time>2015-03-15T10:28:14.999Z</time>
      </trkpt>
      <trkpt lat="47.43313" lon="6.79582">
        <ele>477</ele>
        <time>2015-03-15T10:28:16.000Z</time>
      </trkpt>
      <trkpt lat="47.43318" lon="6.7958">
        <ele>478</ele>
        <time>2015-03-15T10:28:17.000Z</time>
      </trkpt>
      <trkpt lat="47.43327" lon="6.79575">
        <ele>479</ele>
        <time>2015-03-15T10:28:18.000Z</time>
      </trkpt>
      <trkpt lat="47.43334" lon="6.79571">
        <ele>480</ele>
        <time>2015-03-15T10:28:19.000Z</time>
      </trkpt>
      <trkpt lat="47.43343" lon="6.79566">
        <ele>478</ele>
        <time>2015-03-15T10:28:20.000Z</time>
      </trkpt>
      <trkpt lat="47.43348" lon="6.79564">
        <ele>476</ele>
        <time>2015-03-15T10:28:21.000Z</time>
      </trkpt>
      <trkpt lat="47.43352" lon="6.79564">
        <ele>476</ele>
        <time>2015-03-15T10:28:22.000Z</time>
      </trkpt>
      <trkpt lat="47.43355" lon="6.79562">
        <ele>475</ele>
        <time>2015-03-15T10:28:23.000Z</time>
      </trkpt>
      <trkpt lat="47.43358" lon="6.79559">
        <ele>475</ele>
        <time>2015-03-15T10:28:24.000Z</time>
      </trkpt>
      <trkpt lat="47.43362" lon="6.79556">
        <ele>474</ele>
        <time>2015-03-15T10:28:25.001Z</time>
      </trkpt>
      <trkpt lat="47.43374" lon="6.79548">
        <ele>472</ele>
        <time>2015-03-15T10:28:26.000Z</time>
      </trkpt>
      <trkpt lat="47.4338" lon="6.79541">
        <ele>472</ele>
        <time>2015-03-15T10:28:27.000Z</time>
      </trkpt>
      <trkpt lat="47.43388" lon="6.7954">
        <ele>472</ele>
        <time>2015-03-15T10:28:28.000Z</time>
      </trkpt>
      <trkpt lat="47.43393" lon="6.7954">
        <ele>472</ele>
        <time>2015-03-15T10:28:29.000Z</time>
      </trkpt>
      <trkpt lat="47.43399" lon="6.7954">
        <ele>472</ele>
        <time>2015-03-15T10:28:29.999Z</time>
      </trkpt>
      <trkpt lat="47.43405" lon="6.79547">
        <ele>474</ele>
        <time>2015-03-15T10:28:31.000Z</time>
      </trkpt>
      <trkpt lat="47.43413" lon="6.79544">
        <ele>473</ele>
        <time>2015-03-15T10:28:32.000Z</time>
      </trkpt>
      <trkpt lat="47.43419" lon="6.7954">
        <ele>477</ele>
        <time>2015-03-15T10:28:33.000Z</time>
      </trkpt>
      <trkpt lat="47.43423" lon="6.79538">
        <ele>477</ele>
        <time>2015-03-15T10:28:34.000Z</time>
      </trkpt>
      <trkpt lat="47.43428" lon="6.79537">
        <ele>477</ele>
        <time>2015-03-15T10:28:34.999Z</time>
      </trkpt>
      <trkpt lat="47.43433" lon="6.79533">
        <ele>477</ele>
        <time>2015-03-15T10:28:36.000Z</time>
      </trkpt>
      <trkpt lat="47.43438" lon="6.7953">
        <ele>477</ele>
        <time>2015-03-15T10:28:37.000Z</time>
      </trkpt>
      <trkpt lat="47.43443" lon="6.79527">
        <ele>477</ele>
        <time>2015-03-15T10:28:37.999Z</time>
      </trkpt>
      <trkpt lat="47.4345" lon="6.79524">
        <ele>477</ele>
        <time>2015-03-15T10:28:39.000Z</time>
      </trkpt>
      <trkpt lat="47.43455" lon="6.79519">
        <ele>477</ele>
        <time>2015-03-15T10:28:40.000Z</time>
      </trkpt>
      <trkpt lat="47.43457" lon="6.79516">
        <ele>477</ele>
        <time>2015-03-15T10:28:41.000Z</time>
      </trkpt>
      <trkpt lat="47.4346" lon="6.79514">
        <ele>477</ele>
        <time>2015-03-15T10:28:42.000Z</time>
      </trkpt>
      <trkpt lat="47.43463" lon="6.79511">
        <ele>477</ele>
        <time>2015-03-15T10:28:45.000Z</time>
      </trkpt>
      <trkpt lat="47.43466" lon="6.79511">
        <ele>478</ele>
        <time>2015-03-15T10:28:46.000Z</time>
      </trkpt>
      <trkpt lat="47.43469" lon="6.7951">
        <ele>478</ele>
        <time>2015-03-15T10:28:48.000Z</time>
      </trkpt>
      <trkpt lat="47.43472" lon="6.79508">
        <ele>478</ele>
        <time>2015-03-15T10:28:49.000Z</time>
      </trkpt>
      <trkpt lat="47.43474" lon="6.79507">
        <ele>478</ele>
        <time>2015-03-15T10:28:50.000Z</time>
      </trkpt>
      <trkpt lat="47.43477" lon="6.79506">
        <ele>478</ele>
        <time>2015-03-15T10:28:51.000Z</time>
      </trkpt>
      <trkpt lat="47.4348" lon="6.79504">
        <ele>479</ele>
        <time>2015-03-15T10:28:52.000Z</time>
      </trkpt>
      <trkpt lat="47.43483" lon="6.79502">
        <ele>479</ele>
        <time>2015-03-15T10:28:53.000Z</time>
      </trkpt>
      <trkpt lat="47.43486" lon="6.795">
        <ele>469</ele>
        <time>2015-03-15T10:28:54.000Z</time>
      </trkpt>
      <trkpt lat="47.4349" lon="6.79496">
        <ele>470</ele>
        <time>2015-03-15T10:28:55.000Z</time>
      </trkpt>
      <trkpt lat="47.43492" lon="6.79494">
        <ele>471</ele>
        <time>2015-03-15T10:28:56.000Z</time>
      </trkpt>
      <trkpt lat="47.43496" lon="6.7949">
        <ele>470</ele>
        <time>2015-03-15T10:28:57.000Z</time>
      </trkpt>
      <trkpt lat="47.43499" lon="6.79487">
        <ele>469</ele>
        <time>2015-03-15T10:28:58.000Z</time>
      </trkpt>
      <trkpt lat="47.43503" lon="6.79485">
        <ele>474</ele>
        <time>2015-03-15T10:28:59.000Z</time>
      </trkpt>
      <trkpt lat="47.43506" lon="6.79483">
        <ele>473</ele>
        <time>2015-03-15T10:29:00.001Z</time>
      </trkpt>
      <trkpt lat="47.43509" lon="6.79483">
        <ele>472</ele>
        <time>2015-03-15T10:29:01.000Z</time>
      </trkpt>
      <trkpt lat="47.43512" lon="6.79482">
        <ele>472</ele>
        <time>2015-03-15T10:29:02.000Z</time>
      </trkpt>
      <trkpt lat="47.43515" lon="6.79482">
        <ele>472</ele>
        <time>2015-03-15T10:29:03.000Z</time>
      </trkpt>
      <trkpt lat="47.43518" lon="6.79482">
        <ele>471</ele>
        <time>2015-03-15T10:29:04.000Z</time>
      </trkpt>
      <trkpt lat="47.43521" lon="6.79482">
        <ele>471</ele>
        <time>2015-03-15T10:29:05.000Z</time>
      </trkpt>
      <trkpt lat="47.43526" lon="6.79483">
        <ele>471</ele>
        <time>2015-03-15T10:29:06.000Z</time>
      </trkpt>
      <trkpt lat="47.43529" lon="6.79484">
        <ele>471</ele>
        <time>2015-03-15T10:29:07.001Z</time>
      </trkpt>
      <trkpt lat="47.43534" lon="6.79484">
        <ele>471</ele>
        <time>2015-03-15T10:29:08.001Z</time>
      </trkpt>
      <trkpt lat="47.43539" lon="6.79483">
        <ele>471</ele>
        <time>2015-03-15T10:29:09.000Z</time>
      </trkpt>
      <trkpt lat="47.43542" lon="6.79481">
        <ele>471</ele>
        <time>2015-03-15T10:29:10.000Z</time>
      </trkpt>
      <trkpt lat="47.43545" lon="6.79479">
        <ele>471</ele>
        <time>2015-03-15T10:29:11.000Z</time>
      </trkpt>
      <trkpt lat="47.43548" lon="6.79477">
        <ele>471</ele>
        <time>2015-03-15T10:29:12.000Z</time>
      </trkpt>
      <trkpt lat="47.4355" lon="6.79476">
        <ele>471</ele>
        <time>2015-03-15T10:29:13.000Z</time>
      </trkpt>
      <trkpt lat="47.43555" lon="6.79471">
        <ele>470</ele>
        <time>2015-03-15T10:29:14.000Z</time>
      </trkpt>
      <trkpt lat="47.43558" lon="6.7947">
        <ele>470</ele>
        <time>2015-03-15T10:29:15.000Z</time>
      </trkpt>
      <trkpt lat="47.43563" lon="6.79469">
        <ele>471</ele>
        <time>2015-03-15T10:29:16.000Z</time>
      </trkpt>
      <trkpt lat="47.43565" lon="6.79466">
        <ele>470</ele>
        <time>2015-03-15T10:29:17.000Z</time>
      </trkpt>
      <trkpt lat="47.43568" lon="6.79465">
        <ele>470</ele>
        <time>2015-03-15T10:29:17.999Z</time>
      </trkpt>
      <trkpt lat="47.43566" lon="6.79466">
        <ele>470</ele>
        <time>2015-03-15T10:29:19.000Z</time>
      </trkpt>
      <trkpt lat="47.43573" lon="6.7946">
        <ele>470</ele>
        <time>2015-03-15T10:29:20.000Z</time>
      </trkpt>
      <trkpt lat="47.43575" lon="6.79458">
        <ele>469</ele>
        <time>2015-03-15T10:29:21.000Z</time>
      </trkpt>
      <trkpt lat="47.43578" lon="6.79459">
        <ele>470</ele>
        <time>2015-03-15T10:29:22.000Z</time>
      </trkpt>
      <trkpt lat="47.43581" lon="6.79459">
        <ele>470</ele>
        <time>2015-03-15T10:29:23.001Z</time>
      </trkpt>
      <trkpt lat="47.43585" lon="6.79455">
        <ele>473</ele>
        <time>2015-03-15T10:29:23.999Z</time>
      </trkpt>
      <trkpt lat="47.43588" lon="6.79456">
        <ele>473</ele>
        <time>2015-03-15T10:29:25.000Z</time>
      </trkpt>
      <trkpt lat="47.4359" lon="6.79458">
        <ele>473</ele>
        <time>2015-03-15T10:29:26.000Z</time>
      </trkpt>
      <trkpt lat="47.43595" lon="6.79461">
        <ele>474</ele>
        <time>2015-03-15T10:29:27.000Z</time>
      </trkpt>
      <trkpt lat="47.43599" lon="6.79463">
        <ele>474</ele>
        <time>2015-03-15T10:29:28.000Z</time>
      </trkpt>
      <trkpt lat="47.43603" lon="6.79466">
        <ele>474</ele>
        <time>2015-03-15T10:29:29.000Z</time>
      </trkpt>
      <trkpt lat="47.43606" lon="6.79468">
        <ele>474</ele>
        <time>2015-03-15T10:29:30.000Z</time>
      </trkpt>
      <trkpt lat="47.43609" lon="6.79471">
        <ele>475</ele>
        <time>2015-03-15T10:29:31.000Z</time>
      </trkpt>
      <trkpt lat="47.43612" lon="6.79473">
        <ele>475</ele>
        <time>2015-03-15T10:29:32.000Z</time>
      </trkpt>
      <trkpt lat="47.43615" lon="6.79475">
        <ele>475</ele>
        <time>2015-03-15T10:29:33.000Z</time>
      </trkpt>
      <trkpt lat="47.4362" lon="6.79477">
        <ele>475</ele>
        <time>2015-03-15T10:29:34.000Z</time>
      </trkpt>
      <trkpt lat="47.43624" lon="6.79479">
        <ele>475</ele>
        <time>2015-03-15T10:29:35.000Z</time>
      </trkpt>
      <trkpt lat="47.43628" lon="6.79482">
        <ele>475</ele>
        <time>2015-03-15T10:29:36.000Z</time>
      </trkpt>
      <trkpt lat="47.43632" lon="6.79484">
        <ele>475</ele>
        <time>2015-03-15T10:29:37.000Z</time>
      </trkpt>
      <trkpt lat="47.43636" lon="6.79485">
        <ele>475</ele>
        <time>2015-03-15T10:29:38.000Z</time>
      </trkpt>
      <trkpt lat="47.4364" lon="6.79486">
        <ele>475</ele>
        <time>2015-03-15T10:29:39.000Z</time>
      </trkpt>
      <trkpt lat="47.43654" lon="6.79477">
        <ele>475</ele>
        <time>2015-03-15T10:29:40.000Z</time>
      </trkpt>
      <trkpt lat="47.43659" lon="6.79475">
        <ele>475</ele>
        <time>2015-03-15T10:29:41.000Z</time>
      </trkpt>
      <trkpt lat="47.43664" lon="6.79474">
        <ele>475</ele>
        <time>2015-03-15T10:29:42.000Z</time>
      </trkpt>
      <trkpt lat="47.43668" lon="6.79471">
        <ele>474</ele>
        <time>2015-03-15T10:29:43.000Z</time>
      </trkpt>
      <trkpt lat="47.43673" lon="6.79469">
        <ele>473</ele>
        <time>2015-03-15T10:29:44.000Z</time>
      </trkpt>
      <trkpt lat="47.4368" lon="6.79465">
        <ele>473</ele>
        <time>2015-03-15T10:29:45.000Z</time>
      </trkpt>
      <trkpt lat="47.43687" lon="6.79462">
        <ele>473</ele>
        <time>2015-03-15T10:29:46.000Z</time>
      </trkpt>
      <trkpt lat="47.43694" lon="6.79458">
        <ele>472</ele>
        <time>2015-03-15T10:29:47.000Z</time>
      </trkpt>
      <trkpt lat="47.43701" lon="6.79457">
        <ele>472</ele>
        <time>2015-03-15T10:29:48.000Z</time>
      </trkpt>
      <trkpt lat="47.43705" lon="6.79459">
        <ele>472</ele>
        <time>2015-03-15T10:29:49.000Z</time>
      </trkpt>
      <trkpt lat="47.43709" lon="6.79461">
        <ele>472</ele>
        <time>2015-03-15T10:29:50.000Z</time>
      </trkpt>
      <trkpt lat="47.43715" lon="6.79459">
        <ele>472</ele>
        <time>2015-03-15T10:29:51.000Z</time>
      </trkpt>
      <trkpt lat="47.43723" lon="6.79456">
        <ele>472</ele>
        <time>2015-03-15T10:29:52.000Z</time>
      </trkpt>
      <trkpt lat="47.43728" lon="6.79453">
        <ele>472</ele>
        <time>2015-03-15T10:29:53.000Z</time>
      </trkpt>
      <trkpt lat="47.43732" lon="6.79451">
        <ele>472</ele>
        <time>2015-03-15T10:29:54.000Z</time>
      </trkpt>
      <trkpt lat="47.43736" lon="6.7945">
        <ele>472</ele>
        <time>2015-03-15T10:29:55.000Z</time>
      </trkpt>
      <trkpt lat="47.4374" lon="6.7945">
        <ele>472</ele>
        <time>2015-03-15T10:29:56.000Z</time>
      </trkpt>
      <trkpt lat="47.43744" lon="6.79448">
        <ele>472</ele>
        <time>2015-03-15T10:29:57.000Z</time>
      </trkpt>
      <trkpt lat="47.43747" lon="6.79449">
        <ele>472</ele>
        <time>2015-03-15T10:29:58.000Z</time>
      </trkpt>
      <trkpt lat="47.4375" lon="6.79448">
        <ele>470</ele>
        <time>2015-03-15T10:29:59.000Z</time>
      </trkpt>
      <trkpt lat="47.43752" lon="6.79448">
        <ele>470</ele>
        <time>2015-03-15T10:30:00.000Z</time>
      </trkpt>
      <trkpt lat="47.43753" lon="6.79445">
        <ele>470</ele>
        <time>2015-03-15T10:30:01.000Z</time>
      </trkpt>
      <trkpt lat="47.43755" lon="6.79442">
        <ele>470</ele>
        <time>2015-03-15T10:30:02.000Z</time>
      </trkpt>
      <trkpt lat="47.43757" lon="6.79438">
        <ele>470</ele>
        <time>2015-03-15T10:30:04.000Z</time>
      </trkpt>
      <trkpt lat="47.43758" lon="6.79436">
        <ele>470</ele>
        <time>2015-03-15T10:30:05.000Z</time>
      </trkpt>
      <trkpt lat="47.43761" lon="6.79432">
        <ele>470</ele>
        <time>2015-03-15T10:30:09.000Z</time>
      </trkpt>
      <trkpt lat="47.43761" lon="6.79432">
        <ele>470</ele>
        <time>2015-03-15T10:30:10.000Z</time>
      </trkpt>
      <trkpt lat="47.43765" lon="6.79432">
        <ele>469</ele>
        <time>2015-03-15T10:30:19.000Z</time>
      </trkpt>
      <trkpt lat="47.43766" lon="6.79431">
        <ele>469</ele>
        <time>2015-03-15T10:30:20.000Z</time>
      </trkpt>
      <trkpt lat="47.43769" lon="6.79433">
        <ele>469</ele>
        <time>2015-03-15T10:30:22.000Z</time>
      </trkpt>
      <trkpt lat="47.4377" lon="6.79434">
        <ele>469</ele>
        <time>2015-03-15T10:30:23.000Z</time>
      </trkpt>
      <trkpt lat="47.43772" lon="6.79436">
        <ele>469</ele>
        <time>2015-03-15T10:30:24.000Z</time>
      </trkpt>
      <trkpt lat="47.43775" lon="6.79437">
        <ele>469</ele>
        <time>2015-03-15T10:30:25.000Z</time>
      </trkpt>
      <trkpt lat="47.43779" lon="6.79438">
        <ele>469</ele>
        <time>2015-03-15T10:30:26.000Z</time>
      </trkpt>
      <trkpt lat="47.43783" lon="6.79438">
        <ele>469</ele>
        <time>2015-03-15T10:30:27.000Z</time>
      </trkpt>
      <trkpt lat="47.43788" lon="6.79438">
        <ele>469</ele>
        <time>2015-03-15T10:30:28.000Z</time>
      </trkpt>
      <trkpt lat="47.43792" lon="6.7944">
        <ele>469</ele>
        <time>2015-03-15T10:30:29.000Z</time>
      </trkpt>
      <trkpt lat="47.43797" lon="6.7944">
        <ele>468</ele>
        <time>2015-03-15T10:30:30.000Z</time>
      </trkpt>
      <trkpt lat="47.43802" lon="6.7944">
        <ele>468</ele>
        <time>2015-03-15T10:30:31.000Z</time>
      </trkpt>
      <trkpt lat="47.43815" lon="6.79438">
        <ele>468</ele>
        <time>2015-03-15T10:30:32.000Z</time>
      </trkpt>
      <trkpt lat="47.43818" lon="6.79438">
        <ele>468</ele>
        <time>2015-03-15T10:30:33.001Z</time>
      </trkpt>
      <trkpt lat="47.43825" lon="6.79435">
        <ele>467</ele>
        <time>2015-03-15T10:30:34.000Z</time>
      </trkpt>
      <trkpt lat="47.43829" lon="6.79436">
        <ele>467</ele>
        <time>2015-03-15T10:30:35.000Z</time>
      </trkpt>
      <trkpt lat="47.43831" lon="6.79444">
        <ele>468</ele>
        <time>2015-03-15T10:30:36.000Z</time>
      </trkpt>
      <trkpt lat="47.43833" lon="6.79448">
        <ele>465</ele>
        <time>2015-03-15T10:30:37.000Z</time>
      </trkpt>
      <trkpt lat="47.43838" lon="6.7945">
        <ele>465</ele>
        <time>2015-03-15T10:30:38.000Z</time>
      </trkpt>
      <trkpt lat="47.43842" lon="6.79451">
        <ele>465</ele>
        <time>2015-03-15T10:30:39.000Z</time>
      </trkpt>
      <trkpt lat="47.43846" lon="6.79455">
        <ele>464</ele>
        <time>2015-03-15T10:30:40.000Z</time>
      </trkpt>
      <trkpt lat="47.43851" lon="6.79461">
        <ele>465</ele>
        <time>2015-03-15T10:30:41.000Z</time>
      </trkpt>
      <trkpt lat="47.43854" lon="6.79465">
        <ele>465</ele>
        <time>2015-03-15T10:30:42.000Z</time>
      </trkpt>
      <trkpt lat="47.43857" lon="6.79469">
        <ele>465</ele>
        <time>2015-03-15T10:30:43.000Z</time>
      </trkpt>
      <trkpt lat="47.43863" lon="6.79473">
        <ele>465</ele>
        <time>2015-03-15T10:30:44.000Z</time>
      </trkpt>
      <trkpt lat="47.43869" lon="6.79477">
        <ele>464</ele>
        <time>2015-03-15T10:30:45.000Z</time>
      </trkpt>
      <trkpt lat="47.43873" lon="6.79478">
        <ele>464</ele>
        <time>2015-03-15T10:30:46.000Z</time>
      </trkpt>
      <trkpt lat="47.43877" lon="6.79479">
        <ele>464</ele>
        <time>2015-03-15T10:30:47.000Z</time>
      </trkpt>
      <trkpt lat="47.43881" lon="6.79481">
        <ele>464</ele>
        <time>2015-03-15T10:30:48.000Z</time>
      </trkpt>
      <trkpt lat="47.43885" lon="6.79483">
        <ele>464</ele>
        <time>2015-03-15T10:30:49.000Z</time>
      </trkpt>
      <trkpt lat="47.43891" lon="6.79486">
        <ele>464</ele>
        <time>2015-03-15T10:30:50.000Z</time>
      </trkpt>
      <trkpt lat="47.43897" lon="6.79491">
        <ele>464</ele>
        <time>2015-03-15T10:30:51.000Z</time>
      </trkpt>
      <trkpt lat="47.43904" lon="6.79496">
        <ele>464</ele>
        <time>2015-03-15T10:30:52.000Z</time>
      </trkpt>
      <trkpt lat="47.43909" lon="6.79501">
        <ele>464</ele>
        <time>2015-03-15T10:30:53.000Z</time>
      </trkpt>
      <trkpt lat="47.43911" lon="6.79509">
        <ele>464</ele>
        <time>2015-03-15T10:30:54.000Z</time>
      </trkpt>
      <trkpt lat="47.43917" lon="6.79513">
        <ele>465</ele>
        <time>2015-03-15T10:30:55.000Z</time>
      </trkpt>
      <trkpt lat="47.43922" lon="6.79516">
        <ele>462</ele>
        <time>2015-03-15T10:30:56.000Z</time>
      </trkpt>
      <trkpt lat="47.43928" lon="6.79518">
        <ele>462</ele>
        <time>2015-03-15T10:30:57.000Z</time>
      </trkpt>
      <trkpt lat="47.43936" lon="6.79517">
        <ele>461</ele>
        <time>2015-03-15T10:30:58.000Z</time>
      </trkpt>
      <trkpt lat="47.43943" lon="6.79515">
        <ele>461</ele>
        <time>2015-03-15T10:30:59.000Z</time>
      </trkpt>
      <trkpt lat="47.43954" lon="6.79511">
        <ele>461</ele>
        <time>2015-03-15T10:31:00.000Z</time>
      </trkpt>
      <trkpt lat="47.43963" lon="6.79506">
        <ele>460</ele>
        <time>2015-03-15T10:31:01.000Z</time>
      </trkpt>
      <trkpt lat="47.43974" lon="6.79509">
        <ele>460</ele>
        <time>2015-03-15T10:31:02.000Z</time>
      </trkpt>
      <trkpt lat="47.43984" lon="6.79508">
        <ele>459</ele>
        <time>2015-03-15T10:31:03.000Z</time>
      </trkpt>
      <trkpt lat="47.43992" lon="6.7951">
        <ele>459</ele>
        <time>2015-03-15T10:31:04.000Z</time>
      </trkpt>
      <trkpt lat="47.43998" lon="6.79506">
        <ele>458</ele>
        <time>2015-03-15T10:31:05.000Z</time>
      </trkpt>
      <trkpt lat="47.44007" lon="6.79501">
        <ele>457</ele>
        <time>2015-03-15T10:31:06.000Z</time>
      </trkpt>
      <trkpt lat="47.44013" lon="6.79497">
        <ele>456</ele>
        <time>2015-03-15T10:31:07.000Z</time>
      </trkpt>
      <trkpt lat="47.44018" lon="6.79495">
        <ele>456</ele>
        <time>2015-03-15T10:31:08.000Z</time>
      </trkpt>
      <trkpt lat="47.44024" lon="6.79492">
        <ele>455</ele>
        <time>2015-03-15T10:31:09.000Z</time>
      </trkpt>
      <trkpt lat="47.44029" lon="6.79493">
        <ele>455</ele>
        <time>2015-03-15T10:31:10.000Z</time>
      </trkpt>
      <trkpt lat="47.44037" lon="6.79497">
        <ele>455</ele>
        <time>2015-03-15T10:31:11.000Z</time>
      </trkpt>
      <trkpt lat="47.44044" lon="6.79499">
        <ele>454</ele>
        <time>2015-03-15T10:31:12.000Z</time>
      </trkpt>
      <trkpt lat="47.4405" lon="6.795">
        <ele>454</ele>
        <time>2015-03-15T10:31:13.000Z</time>
      </trkpt>
      <trkpt lat="47.44052" lon="6.79505">
        <ele>454</ele>
        <time>2015-03-15T10:31:14.000Z</time>
      </trkpt>
      <trkpt lat="47.4405" lon="6.79516">
        <ele>454</ele>
        <time>2015-03-15T10:31:15.000Z</time>
      </trkpt>
      <trkpt lat="47.44053" lon="6.79523">
        <ele>454</ele>
        <time>2015-03-15T10:31:16.000Z</time>
      </trkpt>
      <trkpt lat="47.44061" lon="6.7952">
        <ele>454</ele>
        <time>2015-03-15T10:31:17.000Z</time>
      </trkpt>
      <trkpt lat="47.44065" lon="6.79523">
        <ele>454</ele>
        <time>2015-03-15T10:31:18.000Z</time>
      </trkpt>
      <trkpt lat="47.44065" lon="6.79527">
        <ele>454</ele>
        <time>2015-03-15T10:31:19.000Z</time>
      </trkpt>
      <trkpt lat="47.44064" lon="6.79535">
        <ele>454</ele>
        <time>2015-03-15T10:31:20.000Z</time>
      </trkpt>
      <trkpt lat="47.44073" lon="6.79528">
        <ele>454</ele>
        <time>2015-03-15T10:31:21.000Z</time>
      </trkpt>
      <trkpt lat="47.44074" lon="6.79531">
        <ele>454</ele>
        <time>2015-03-15T10:31:22.001Z</time>
      </trkpt>
      <trkpt lat="47.44087" lon="6.79523">
        <ele>450</ele>
        <time>2015-03-15T10:31:23.000Z</time>
      </trkpt>
      <trkpt lat="47.44093" lon="6.79524">
        <ele>450</ele>
        <time>2015-03-15T10:31:24.000Z</time>
      </trkpt>
      <trkpt lat="47.44104" lon="6.79521">
        <ele>449</ele>
        <time>2015-03-15T10:31:25.000Z</time>
      </trkpt>
      <trkpt lat="47.44112" lon="6.79518">
        <ele>449</ele>
        <time>2015-03-15T10:31:26.000Z</time>
      </trkpt>
      <trkpt lat="47.44124" lon="6.79509">
        <ele>448</ele>
        <time>2015-03-15T10:31:27.000Z</time>
      </trkpt>
      <trkpt lat="47.4413" lon="6.79504">
        <ele>448</ele>
        <time>2015-03-15T10:31:28.000Z</time>
      </trkpt>
      <trkpt lat="47.44135" lon="6.79501">
        <ele>447</ele>
        <time>2015-03-15T10:31:29.000Z</time>
      </trkpt>
      <trkpt lat="47.4414" lon="6.79502">
        <ele>447</ele>
        <time>2015-03-15T10:31:30.000Z</time>
      </trkpt>
      <trkpt lat="47.44145" lon="6.79492">
        <ele>447</ele>
        <time>2015-03-15T10:31:31.000Z</time>
      </trkpt>
      <trkpt lat="47.44147" lon="6.79497">
        <ele>447</ele>
        <time>2015-03-15T10:31:32.000Z</time>
      </trkpt>
      <trkpt lat="47.4415" lon="6.795">
        <ele>447</ele>
        <time>2015-03-15T10:31:32.999Z</time>
      </trkpt>
      <trkpt lat="47.44155" lon="6.79501">
        <ele>446</ele>
        <time>2015-03-15T10:31:34.000Z</time>
      </trkpt>
      <trkpt lat="47.44158" lon="6.79503">
        <ele>446</ele>
        <time>2015-03-15T10:31:34.999Z</time>
      </trkpt>
      <trkpt lat="47.44168" lon="6.79494">
        <ele>444</ele>
        <time>2015-03-15T10:31:36.000Z</time>
      </trkpt>
      <trkpt lat="47.44178" lon="6.79488">
        <ele>442</ele>
        <time>2015-03-15T10:31:37.000Z</time>
      </trkpt>
      <trkpt lat="47.4418" lon="6.79489">
        <ele>442</ele>
        <time>2015-03-15T10:31:38.000Z</time>
      </trkpt>
      <trkpt lat="47.44186" lon="6.79481">
        <ele>441</ele>
        <time>2015-03-15T10:31:39.000Z</time>
      </trkpt>
      <trkpt lat="47.44192" lon="6.79473">
        <ele>441</ele>
        <time>2015-03-15T10:31:40.000Z</time>
      </trkpt>
      <trkpt lat="47.44194" lon="6.79473">
        <ele>441</ele>
        <time>2015-03-15T10:31:41.000Z</time>
      </trkpt>
      <trkpt lat="47.44197" lon="6.79474">
        <ele>440</ele>
        <time>2015-03-15T10:31:41.999Z</time>
      </trkpt>
      <trkpt lat="47.44201" lon="6.79473">
        <ele>440</ele>
        <time>2015-03-15T10:31:43.000Z</time>
      </trkpt>
      <trkpt lat="47.44204" lon="6.79474">
        <ele>440</ele>
        <time>2015-03-15T10:31:44.000Z</time>
      </trkpt>
      <trkpt lat="47.44207" lon="6.79472">
        <ele>440</ele>
        <time>2015-03-15T10:31:45.000Z</time>
      </trkpt>
      <trkpt lat="47.4421" lon="6.79472">
        <ele>439</ele>
        <time>2015-03-15T10:31:46.000Z</time>
      </trkpt>
      <trkpt lat="47.44216" lon="6.79468">
        <ele>439</ele>
        <time>2015-03-15T10:31:47.000Z</time>
      </trkpt>
      <trkpt lat="47.44221" lon="6.79465">
        <ele>439</ele>
        <time>2015-03-15T10:31:48.000Z</time>
      </trkpt>
      <trkpt lat="47.44224" lon="6.79463">
        <ele>439</ele>
        <time>2015-03-15T10:31:48.999Z</time>
      </trkpt>
      <trkpt lat="47.4423" lon="6.79456">
        <ele>438</ele>
        <time>2015-03-15T10:31:50.000Z</time>
      </trkpt>
      <trkpt lat="47.44233" lon="6.79451">
        <ele>438</ele>
        <time>2015-03-15T10:31:51.000Z</time>
      </trkpt>
      <trkpt lat="47.44244" lon="6.79446">
        <ele>438</ele>
        <time>2015-03-15T10:31:52.000Z</time>
      </trkpt>
      <trkpt lat="47.44249" lon="6.79448">
        <ele>438</ele>
        <time>2015-03-15T10:31:53.000Z</time>
      </trkpt>
      <trkpt lat="47.44254" lon="6.79449">
        <ele>430</ele>
        <time>2015-03-15T10:31:54.000Z</time>
      </trkpt>
      <trkpt lat="47.44261" lon="6.79453">
        <ele>429</ele>
        <time>2015-03-15T10:31:55.000Z</time>
      </trkpt>
      <trkpt lat="47.44265" lon="6.79457">
        <ele>429</ele>
        <time>2015-03-15T10:31:56.000Z</time>
      </trkpt>
      <trkpt lat="47.44271" lon="6.79454">
        <ele>428</ele>
        <time>2015-03-15T10:31:57.000Z</time>
      </trkpt>
      <trkpt lat="47.44274" lon="6.79456">
        <ele>428</ele>
        <time>2015-03-15T10:31:57.999Z</time>
      </trkpt>
      <trkpt lat="47.4428" lon="6.79446">
        <ele>428</ele>
        <time>2015-03-15T10:31:59.000Z</time>
      </trkpt>
      <trkpt lat="47.44284" lon="6.79441">
        <ele>428</ele>
        <time>2015-03-15T10:32:00.000Z</time>
      </trkpt>
      <trkpt lat="47.44287" lon="6.79437">
        <ele>428</ele>
        <time>2015-03-15T10:32:00.999Z</time>
      </trkpt>
      <trkpt lat="47.44288" lon="6.79455">
        <ele>427</ele>
        <time>2015-03-15T10:32:02.000Z</time>
      </trkpt>
      <trkpt lat="47.44292" lon="6.79457">
        <ele>427</ele>
        <time>2015-03-15T10:32:03.000Z</time>
      </trkpt>
      <trkpt lat="47.44295" lon="6.79457">
        <ele>426</ele>
        <time>2015-03-15T10:32:04.000Z</time>
      </trkpt>
      <trkpt lat="47.44298" lon="6.79458">
        <ele>426</ele>
        <time>2015-03-15T10:32:05.000Z</time>
      </trkpt>
      <trkpt lat="47.44309" lon="6.79435">
        <ele>425</ele>
        <time>2015-03-15T10:32:06.000Z</time>
      </trkpt>
      <trkpt lat="47.44319" lon="6.79421">
        <ele>424</ele>
        <time>2015-03-15T10:32:07.000Z</time>
      </trkpt>
      <trkpt lat="47.44323" lon="6.79418">
        <ele>423</ele>
        <time>2015-03-15T10:32:08.000Z</time>
      </trkpt>
      <trkpt lat="47.44328" lon="6.79418">
        <ele>422</ele>
        <time>2015-03-15T10:32:09.000Z</time>
      </trkpt>
      <trkpt lat="47.44337" lon="6.79419">
        <ele>419</ele>
        <time>2015-03-15T10:32:10.000Z</time>
      </trkpt>
      <trkpt lat="47.44345" lon="6.79417">
        <ele>416</ele>
        <time>2015-03-15T10:32:11.000Z</time>
      </trkpt>
      <trkpt lat="47.4435" lon="6.79415">
        <ele>412</ele>
        <time>2015-03-15T10:32:12.000Z</time>
      </trkpt>
      <trkpt lat="47.44356" lon="6.79419">
        <ele>413</ele>
        <time>2015-03-15T10:32:13.000Z</time>
      </trkpt>
      <trkpt lat="47.4436" lon="6.79426">
        <ele>412</ele>
        <time>2015-03-15T10:32:13.999Z</time>
      </trkpt>
      <trkpt lat="47.44366" lon="6.79423">
        <ele>411</ele>
        <time>2015-03-15T10:32:15.000Z</time>
      </trkpt>
      <trkpt lat="47.4437" lon="6.79425">
        <ele>410</ele>
        <time>2015-03-15T10:32:16.001Z</time>
      </trkpt>
      <trkpt lat="47.44369" lon="6.79428">
        <ele>410</ele>
        <time>2015-03-15T10:32:17.000Z</time>
      </trkpt>
      <trkpt lat="47.4437" lon="6.79435">
        <ele>410</ele>
        <time>2015-03-15T10:32:18.000Z</time>
      </trkpt>
      <trkpt lat="47.44368" lon="6.79443">
        <ele>410</ele>
        <time>2015-03-15T10:32:19.000Z</time>
      </trkpt>
      <trkpt lat="47.4437" lon="6.79448">
        <ele>410</ele>
        <time>2015-03-15T10:32:20.000Z</time>
      </trkpt>
      <trkpt lat="47.44372" lon="6.79454">
        <ele>410</ele>
        <time>2015-03-15T10:32:21.000Z</time>
      </trkpt>
      <trkpt lat="47.44371" lon="6.79463">
        <ele>410</ele>
        <time>2015-03-15T10:32:22.000Z</time>
      </trkpt>
      <trkpt lat="47.44373" lon="6.79466">
        <ele>409</ele>
        <time>2015-03-15T10:32:23.000Z</time>
      </trkpt>
      <trkpt lat="47.44377" lon="6.79477">
        <ele>409</ele>
        <time>2015-03-15T10:32:24.000Z</time>
      </trkpt>
      <trkpt lat="47.44381" lon="6.79481">
        <ele>409</ele>
        <time>2015-03-15T10:32:25.000Z</time>
      </trkpt>
      <trkpt lat="47.44383" lon="6.79486">
        <ele>408</ele>
        <time>2015-03-15T10:32:26.000Z</time>
      </trkpt>
      <trkpt lat="47.44387" lon="6.79489">
        <ele>408</ele>
        <time>2015-03-15T10:32:27.000Z</time>
      </trkpt>
      <trkpt lat="47.44393" lon="6.79493">
        <ele>407</ele>
        <time>2015-03-15T10:32:28.000Z</time>
      </trkpt>
      <trkpt lat="47.44395" lon="6.79496">
        <ele>406</ele>
        <time>2015-03-15T10:32:31.000Z</time>
      </trkpt>
      <trkpt lat="47.44397" lon="6.79498">
        <ele>406</ele>
        <time>2015-03-15T10:32:32.000Z</time>
      </trkpt>
      <trkpt lat="47.44399" lon="6.795">
        <ele>406</ele>
        <time>2015-03-15T10:32:33.000Z</time>
      </trkpt>
      <trkpt lat="47.44401" lon="6.79503">
        <ele>404</ele>
        <time>2015-03-15T10:32:34.000Z</time>
      </trkpt>
      <trkpt lat="47.44403" lon="6.79505">
        <ele>404</ele>
        <time>2015-03-15T10:32:34.999Z</time>
      </trkpt>
      <trkpt lat="47.44407" lon="6.795">
        <ele>404</ele>
        <time>2015-03-15T10:32:36.000Z</time>
      </trkpt>
      <trkpt lat="47.44409" lon="6.79499">
        <ele>404</ele>
        <time>2015-03-15T10:32:37.000Z</time>
      </trkpt>
      <trkpt lat="47.44411" lon="6.79499">
        <ele>403</ele>
        <time>2015-03-15T10:32:37.999Z</time>
      </trkpt>
      <trkpt lat="47.44415" lon="6.79498">
        <ele>403</ele>
        <time>2015-03-15T10:32:48.001Z</time>
      </trkpt>
      <trkpt lat="47.44416" lon="6.79498">
        <ele>402</ele>
        <time>2015-03-15T10:32:49.000Z</time>
      </trkpt>
      <trkpt lat="47.4442" lon="6.795">
        <ele>400</ele>
        <time>2015-03-15T10:33:06.000Z</time>
      </trkpt>
      <trkpt lat="47.44421" lon="6.79501">
        <ele>399</ele>
        <time>2015-03-15T10:33:07.000Z</time>
      </trkpt>
      <trkpt lat="47.44423" lon="6.79505">
        <ele>398</ele>
        <time>2015-03-15T10:33:10.000Z</time>
      </trkpt>
      <trkpt lat="47.44425" lon="6.79505">
        <ele>397</ele>
        <time>2015-03-15T10:33:11.000Z</time>
      </trkpt>
      <trkpt lat="47.44427" lon="6.79506">
        <ele>396</ele>
        <time>2015-03-15T10:33:12.000Z</time>
      </trkpt>
      <trkpt lat="47.44429" lon="6.79508">
        <ele>395</ele>
        <time>2015-03-15T10:33:13.000Z</time>
      </trkpt>
      <trkpt lat="47.44433" lon="6.7951">
        <ele>393</ele>
        <time>2015-03-15T10:33:16.000Z</time>
      </trkpt>
      <trkpt lat="47.44439" lon="6.79511">
        <ele>391</ele>
        <time>2015-03-15T10:33:17.000Z</time>
      </trkpt>
      <trkpt lat="47.44443" lon="6.79513">
        <ele>390</ele>
        <time>2015-03-15T10:33:18.000Z</time>
      </trkpt>
      <trkpt lat="47.44446" lon="6.79514">
        <ele>390</ele>
        <time>2015-03-15T10:33:19.000Z</time>
      </trkpt>
      <trkpt lat="47.4445" lon="6.79515">
        <ele>388</ele>
        <time>2015-03-15T10:33:20.000Z</time>
      </trkpt>
      <trkpt lat="47.44451" lon="6.79524">
        <ele>388</ele>
        <time>2015-03-15T10:33:21.000Z</time>
      </trkpt>
      <trkpt lat="47.44453" lon="6.79526">
        <ele>387</ele>
        <time>2015-03-15T10:33:22.000Z</time>
      </trkpt>
      <trkpt lat="47.44457" lon="6.79529">
        <ele>387</ele>
        <time>2015-03-15T10:33:23.000Z</time>
      </trkpt>
      <trkpt lat="47.44459" lon="6.79532">
        <ele>386</ele>
        <time>2015-03-15T10:33:24.000Z</time>
      </trkpt>
      <trkpt lat="47.44462" lon="6.79534">
        <ele>386</ele>
        <time>2015-03-15T10:33:25.000Z</time>
      </trkpt>
      <trkpt lat="47.44465" lon="6.79535">
        <ele>385</ele>
        <time>2015-03-15T10:33:25.999Z</time>
      </trkpt>
      <trkpt lat="47.44468" lon="6.79533">
        <ele>385</ele>
        <time>2015-03-15T10:33:27.000Z</time>
      </trkpt>
      <trkpt lat="47.44471" lon="6.79531">
        <ele>384</ele>
        <time>2015-03-15T10:33:28.000Z</time>
      </trkpt>
      <trkpt lat="47.44476" lon="6.79533">
        <ele>384</ele>
        <time>2015-03-15T10:33:29.000Z</time>
      </trkpt>
      <trkpt lat="47.44481" lon="6.79537">
        <ele>383</ele>
        <time>2015-03-15T10:33:30.000Z</time>
      </trkpt>
      <trkpt lat="47.44484" lon="6.79542">
        <ele>382</ele>
        <time>2015-03-15T10:33:31.000Z</time>
      </trkpt>
      <trkpt lat="47.44489" lon="6.79546">
        <ele>382</ele>
        <time>2015-03-15T10:33:32.000Z</time>
      </trkpt>
      <trkpt lat="47.44494" lon="6.79544">
        <ele>382</ele>
        <time>2015-03-15T10:33:33.000Z</time>
      </trkpt>
      <trkpt lat="47.44498" lon="6.79543">
        <ele>381</ele>
        <time>2015-03-15T10:33:34.000Z</time>
      </trkpt>
      <trkpt lat="47.44502" lon="6.79542">
        <ele>365</ele>
        <time>2015-03-15T10:33:35.000Z</time>
      </trkpt>
      <trkpt lat="47.44503" lon="6.79531">
        <ele>365</ele>
        <time>2015-03-15T10:33:36.000Z</time>
      </trkpt>
      <trkpt lat="47.44505" lon="6.79523">
        <ele>366</ele>
        <time>2015-03-15T10:33:37.000Z</time>
      </trkpt>
      <trkpt lat="47.44509" lon="6.79518">
        <ele>367</ele>
        <time>2015-03-15T10:33:38.000Z</time>
      </trkpt>
      <trkpt lat="47.44513" lon="6.79512">
        <ele>367</ele>
        <time>2015-03-15T10:33:38.999Z</time>
      </trkpt>
      <trkpt lat="47.44514" lon="6.79506">
        <ele>367</ele>
        <time>2015-03-15T10:33:40.000Z</time>
      </trkpt>
      <trkpt lat="47.44515" lon="6.79499">
        <ele>366</ele>
        <time>2015-03-15T10:33:41.000Z</time>
      </trkpt>
      <trkpt lat="47.44516" lon="6.79494">
        <ele>365</ele>
        <time>2015-03-15T10:33:42.000Z</time>
      </trkpt>
      <trkpt lat="47.44517" lon="6.79491">
        <ele>364</ele>
        <time>2015-03-15T10:33:43.000Z</time>
      </trkpt>
      <trkpt lat="47.4452" lon="6.79491">
        <ele>363</ele>
        <time>2015-03-15T10:33:45.001Z</time>
      </trkpt>
      <trkpt lat="47.44522" lon="6.79491">
        <ele>362</ele>
        <time>2015-03-15T10:33:46.000Z</time>
      </trkpt>
      <trkpt lat="47.44523" lon="6.79493">
        <ele>362</ele>
        <time>2015-03-15T10:33:47.000Z</time>
      </trkpt>
      <trkpt lat="47.44525" lon="6.79497">
        <ele>362</ele>
        <time>2015-03-15T10:33:48.000Z</time>
      </trkpt>
      <trkpt lat="47.44527" lon="6.795">
        <ele>364</ele>
        <time>2015-03-15T10:33:49.000Z</time>
      </trkpt>
      <trkpt lat="47.44531" lon="6.79509">
        <ele>362</ele>
        <time>2015-03-15T10:33:50.000Z</time>
      </trkpt>
      <trkpt lat="47.44535" lon="6.79514">
        <ele>361</ele>
        <time>2015-03-15T10:33:51.000Z</time>
      </trkpt>
      <trkpt lat="47.44539" lon="6.79512">
        <ele>360</ele>
        <time>2015-03-15T10:33:54.000Z</time>
      </trkpt>
      <trkpt lat="47.44541" lon="6.79514">
        <ele>359</ele>
        <time>2015-03-15T10:33:55.000Z</time>
      </trkpt>
      <trkpt lat="47.44542" lon="6.79515">
        <ele>359</ele>
        <time>2015-03-15T10:33:56.001Z</time>
      </trkpt>
      <trkpt lat="47.44546" lon="6.79516">
        <ele>358</ele>
        <time>2015-03-15T10:33:57.000Z</time>
      </trkpt>
      <trkpt lat="47.44547" lon="6.79517">
        <ele>358</ele>
        <time>2015-03-15T10:33:58.000Z</time>
      </trkpt>
      <trkpt lat="47.44549" lon="6.79523">
        <ele>358</ele>
        <time>2015-03-15T10:33:59.000Z</time>
      </trkpt>
      <trkpt lat="47.44552" lon="6.79526">
        <ele>357</ele>
        <time>2015-03-15T10:34:00.000Z</time>
      </trkpt>
      <trkpt lat="47.44554" lon="6.79528">
        <ele>357</ele>
        <time>2015-03-15T10:34:01.000Z</time>
      </trkpt>
      <trkpt lat="47.44556" lon="6.79531">
        <ele>357</ele>
        <time>2015-03-15T10:34:02.000Z</time>
      </trkpt>
      <trkpt lat="47.44558" lon="6.79534">
        <ele>356</ele>
        <time>2015-03-15T10:34:02.999Z</time>
      </trkpt>
      <trkpt lat="47.44561" lon="6.79534">
        <ele>356</ele>
        <time>2015-03-15T10:34:06.000Z</time>
      </trkpt>
      <trkpt lat="47.44563" lon="6.79534">
        <ele>356</ele>
        <time>2015-03-15T10:34:07.001Z</time>
      </trkpt>
      <trkpt lat="47.44565" lon="6.79527">
        <ele>355</ele>
        <time>2015-03-15T10:34:08.000Z</time>
      </trkpt>
      <trkpt lat="47.44565" lon="6.79521">
        <ele>354</ele>
        <time>2015-03-15T10:35:29.000Z</time>
      </trkpt>
      <trkpt lat="47.44565" lon="6.79518">
        <ele>354</ele>
        <time>2015-03-15T10:35:30.000Z</time>
      </trkpt>
      <trkpt lat="47.44564" lon="6.79514">
        <ele>353</ele>
        <time>2015-03-15T10:35:32.000Z</time>
      </trkpt>
      <trkpt lat="47.44564" lon="6.7951">
        <ele>353</ele>
        <time>2015-03-15T10:35:33.000Z</time>
      </trkpt>
      <trkpt lat="47.44564" lon="6.79506">
        <ele>353</ele>
        <time>2015-03-15T10:35:34.000Z</time>
      </trkpt>
      <trkpt lat="47.44565" lon="6.79502">
        <ele>352</ele>
        <time>2015-03-15T10:35:35.000Z</time>
      </trkpt>
      <trkpt lat="47.44566" lon="6.79497">
        <ele>350</ele>
        <time>2015-03-15T10:35:36.000Z</time>
      </trkpt>
      <trkpt lat="47.44565" lon="6.79492">
        <ele>350</ele>
        <time>2015-03-15T10:35:37.000Z</time>
      </trkpt>
      <trkpt lat="47.44565" lon="6.79486">
        <ele>351</ele>
        <time>2015-03-15T10:35:38.000Z</time>
      </trkpt>
      <trkpt lat="47.44563" lon="6.79481">
        <ele>351</ele>
        <time>2015-03-15T10:35:39.000Z</time>
      </trkpt>
      <trkpt lat="47.44562" lon="6.79475">
        <ele>352</ele>
        <time>2015-03-15T10:35:40.000Z</time>
      </trkpt>
      <trkpt lat="47.44561" lon="6.79469">
        <ele>352</ele>
        <time>2015-03-15T10:35:41.000Z</time>
      </trkpt>
      <trkpt lat="47.4456" lon="6.79463">
        <ele>352</ele>
        <time>2015-03-15T10:35:42.000Z</time>
      </trkpt>
      <trkpt lat="47.44559" lon="6.79457">
        <ele>352</ele>
        <time>2015-03-15T10:35:43.000Z</time>
      </trkpt>
      <trkpt lat="47.44556" lon="6.79447">
        <ele>352</ele>
        <time>2015-03-15T10:35:44.000Z</time>
      </trkpt>
      <trkpt lat="47.44556" lon="6.79439">
        <ele>351</ele>
        <time>2015-03-15T10:35:45.000Z</time>
      </trkpt>
      <trkpt lat="47.44554" lon="6.79432">
        <ele>351</ele>
        <time>2015-03-15T10:35:46.000Z</time>
      </trkpt>
      <trkpt lat="47.44553" lon="6.79424">
        <ele>350</ele>
        <time>2015-03-15T10:35:47.000Z</time>
      </trkpt>
      <trkpt lat="47.44552" lon="6.79416">
        <ele>345</ele>
        <time>2015-03-15T10:35:48.000Z</time>
      </trkpt>
      <trkpt lat="47.4455" lon="6.79409">
        <ele>346</ele>
        <time>2015-03-15T10:35:49.000Z</time>
      </trkpt>
      <trkpt lat="47.44548" lon="6.79399">
        <ele>346</ele>
        <time>2015-03-15T10:35:50.000Z</time>
      </trkpt>
      <trkpt lat="47.44546" lon="6.7939">
        <ele>346</ele>
        <time>2015-03-15T10:35:51.000Z</time>
      </trkpt>
      <trkpt lat="47.44543" lon="6.79382">
        <ele>346</ele>
        <time>2015-03-15T10:35:52.000Z</time>
      </trkpt>
      <trkpt lat="47.44541" lon="6.79374">
        <ele>346</ele>
        <time>2015-03-15T10:35:53.000Z</time>
      </trkpt>
      <trkpt lat="47.44537" lon="6.79367">
        <ele>346</ele>
        <time>2015-03-15T10:35:54.000Z</time>
      </trkpt>
      <trkpt lat="47.44534" lon="6.7936">
        <ele>346</ele>
        <time>2015-03-15T10:35:55.000Z</time>
      </trkpt>
      <trkpt lat="47.44531" lon="6.79352">
        <ele>346</ele>
        <time>2015-03-15T10:35:56.000Z</time>
      </trkpt>
      <trkpt lat="47.44526" lon="6.79347">
        <ele>347</ele>
        <time>2015-03-15T10:35:57.000Z</time>
      </trkpt>
      <trkpt lat="47.4452" lon="6.79341">
        <ele>347</ele>
        <time>2015-03-15T10:35:58.000Z</time>
      </trkpt>
      <trkpt lat="47.44516" lon="6.79335">
        <ele>348</ele>
        <time>2015-03-15T10:35:59.000Z</time>
      </trkpt>
      <trkpt lat="47.44512" lon="6.79329">
        <ele>345</ele>
        <time>2015-03-15T10:36:00.000Z</time>
      </trkpt>
      <trkpt lat="47.44509" lon="6.79322">
        <ele>345</ele>
        <time>2015-03-15T10:36:01.000Z</time>
      </trkpt>
      <trkpt lat="47.44505" lon="6.79316">
        <ele>344</ele>
        <time>2015-03-15T10:36:02.000Z</time>
      </trkpt>
      <trkpt lat="47.44503" lon="6.79312">
        <ele>343</ele>
        <time>2015-03-15T10:36:03.000Z</time>
      </trkpt>
      <trkpt lat="47.44501" lon="6.79309">
        <ele>343</ele>
        <time>2015-03-15T10:36:04.000Z</time>
      </trkpt>
      <trkpt lat="47.44499" lon="6.79303">
        <ele>352</ele>
        <time>2015-03-15T10:36:10.000Z</time>
      </trkpt>
      <trkpt lat="47.44495" lon="6.79301">
        <ele>352</ele>
        <time>2015-03-15T10:36:11.000Z</time>
      </trkpt>
      <trkpt lat="47.44491" lon="6.79301">
        <ele>352</ele>
        <time>2015-03-15T10:36:13.000Z</time>
      </trkpt>
      <trkpt lat="47.4449" lon="6.793">
        <ele>352</ele>
        <time>2015-03-15T10:36:14.000Z</time>
      </trkpt>
      <trkpt lat="47.44487" lon="6.79296">
        <ele>352</ele>
        <time>2015-03-15T10:36:28.000Z</time>
      </trkpt>
      <trkpt lat="47.44487" lon="6.79294">
        <ele>352</ele>
        <time>2015-03-15T10:36:29.000Z</time>
      </trkpt>
      <trkpt lat="47.44489" lon="6.79293">
        <ele>351</ele>
        <time>2015-03-15T10:36:30.000Z</time>
      </trkpt>
      <trkpt lat="47.44492" lon="6.79292">
        <ele>351</ele>
        <time>2015-03-15T10:36:31.000Z</time>
      </trkpt>
      <trkpt lat="47.44495" lon="6.79292">
        <ele>351</ele>
        <time>2015-03-15T10:36:32.000Z</time>
      </trkpt>
      <trkpt lat="47.44497" lon="6.79291">
        <ele>351</ele>
        <time>2015-03-15T10:36:33.000Z</time>
      </trkpt>
      <trkpt lat="47.44499" lon="6.79287">
        <ele>350</ele>
        <time>2015-03-15T10:36:35.000Z</time>
      </trkpt>
      <trkpt lat="47.44499" lon="6.79284">
        <ele>349</ele>
        <time>2015-03-15T10:36:36.000Z</time>
      </trkpt>
      <trkpt lat="47.44497" lon="6.79279">
        <ele>349</ele>
        <time>2015-03-15T10:36:38.000Z</time>
      </trkpt>
      <trkpt lat="47.44497" lon="6.79276">
        <ele>348</ele>
        <time>2015-03-15T10:36:39.000Z</time>
      </trkpt>
      <trkpt lat="47.44495" lon="6.79272">
        <ele>347</ele>
        <time>2015-03-15T10:36:41.000Z</time>
      </trkpt>
      <trkpt lat="47.44494" lon="6.7927">
        <ele>347</ele>
        <time>2015-03-15T10:36:42.000Z</time>
      </trkpt>
      <trkpt lat="47.44495" lon="6.79264">
        <ele>345</ele>
        <time>2015-03-15T10:36:46.000Z</time>
      </trkpt>
      <trkpt lat="47.44495" lon="6.79262">
        <ele>344</ele>
        <time>2015-03-15T10:36:47.000Z</time>
      </trkpt>
      <trkpt lat="47.44494" lon="6.79257">
        <ele>342</ele>
        <time>2015-03-15T10:36:47.999Z</time>
      </trkpt>
      <trkpt lat="47.44493" lon="6.79254">
        <ele>342</ele>
        <time>2015-03-15T10:36:49.001Z</time>
      </trkpt>
      <trkpt lat="47.44491" lon="6.7925">
        <ele>342</ele>
        <time>2015-03-15T10:36:50.000Z</time>
      </trkpt>
      <trkpt lat="47.44492" lon="6.79247">
        <ele>338</ele>
        <time>2015-03-15T10:36:51.000Z</time>
      </trkpt>
      <trkpt lat="47.44493" lon="6.79243">
        <ele>338</ele>
        <time>2015-03-15T10:36:52.000Z</time>
      </trkpt>
      <trkpt lat="47.44494" lon="6.7924">
        <ele>338</ele>
        <time>2015-03-15T10:36:53.000Z</time>
      </trkpt>
      <trkpt lat="47.44495" lon="6.79238">
        <ele>339</ele>
        <time>2015-03-15T10:36:54.000Z</time>
      </trkpt>
      <trkpt lat="47.44497" lon="6.79235">
        <ele>339</ele>
        <time>2015-03-15T10:36:55.000Z</time>
      </trkpt>
      <trkpt lat="47.445" lon="6.79232">
        <ele>336</ele>
        <time>2015-03-15T10:36:57.000Z</time>
      </trkpt>
      <trkpt lat="47.44503" lon="6.79232">
        <ele>336</ele>
        <time>2015-03-15T10:36:58.000Z</time>
      </trkpt>
      <trkpt lat="47.44505" lon="6.79233">
        <ele>336</ele>
        <time>2015-03-15T10:36:59.000Z</time>
      </trkpt>
      <trkpt lat="47.44507" lon="6.79233">
        <ele>336</ele>
        <time>2015-03-15T10:37:00.000Z</time>
      </trkpt>
      <trkpt lat="47.4451" lon="6.79234">
        <ele>336</ele>
        <time>2015-03-15T10:37:01.000Z</time>
      </trkpt>
      <trkpt lat="47.44512" lon="6.79235">
        <ele>336</ele>
        <time>2015-03-15T10:37:02.000Z</time>
      </trkpt>
      <trkpt lat="47.44514" lon="6.79236">
        <ele>336</ele>
        <time>2015-03-15T10:37:03.000Z</time>
      </trkpt>
      <trkpt lat="47.44516" lon="6.79237">
        <ele>336</ele>
        <time>2015-03-15T10:37:04.000Z</time>
      </trkpt>
      <trkpt lat="47.4452" lon="6.7924">
        <ele>336</ele>
        <time>2015-03-15T10:37:06.000Z</time>
      </trkpt>
      <trkpt lat="47.44522" lon="6.79242">
        <ele>336</ele>
        <time>2015-03-15T10:37:07.000Z</time>
      </trkpt>
      <trkpt lat="47.44525" lon="6.79244">
        <ele>335</ele>
        <time>2015-03-15T10:37:08.000Z</time>
      </trkpt>
      <trkpt lat="47.44527" lon="6.79247">
        <ele>335</ele>
        <time>2015-03-15T10:37:09.000Z</time>
      </trkpt>
      <trkpt lat="47.4453" lon="6.79249">
        <ele>335</ele>
        <time>2015-03-15T10:37:10.000Z</time>
      </trkpt>
      <trkpt lat="47.44534" lon="6.7925">
        <ele>337</ele>
        <time>2015-03-15T10:37:11.000Z</time>
      </trkpt>
      <trkpt lat="47.44537" lon="6.79251">
        <ele>337</ele>
        <time>2015-03-15T10:37:12.000Z</time>
      </trkpt>
      <trkpt lat="47.44541" lon="6.79252">
        <ele>337</ele>
        <time>2015-03-15T10:37:13.000Z</time>
      </trkpt>
      <trkpt lat="47.44545" lon="6.79253">
        <ele>337</ele>
        <time>2015-03-15T10:37:14.000Z</time>
      </trkpt>
      <trkpt lat="47.44549" lon="6.79255">
        <ele>337</ele>
        <time>2015-03-15T10:37:15.000Z</time>
      </trkpt>
      <trkpt lat="47.44553" lon="6.79257">
        <ele>336</ele>
        <time>2015-03-15T10:37:16.000Z</time>
      </trkpt>
      <trkpt lat="47.44557" lon="6.79259">
        <ele>336</ele>
        <time>2015-03-15T10:37:17.000Z</time>
      </trkpt>
      <trkpt lat="47.44561" lon="6.79262">
        <ele>336</ele>
        <time>2015-03-15T10:37:18.000Z</time>
      </trkpt>
      <trkpt lat="47.44566" lon="6.79265">
        <ele>336</ele>
        <time>2015-03-15T10:37:19.000Z</time>
      </trkpt>
      <trkpt lat="47.44572" lon="6.79269">
        <ele>336</ele>
        <time>2015-03-15T10:37:20.000Z</time>
      </trkpt>
      <trkpt lat="47.44576" lon="6.7927">
        <ele>336</ele>
        <time>2015-03-15T10:37:21.000Z</time>
      </trkpt>
      <trkpt lat="47.44581" lon="6.79273">
        <ele>336</ele>
        <time>2015-03-15T10:37:22.000Z</time>
      </trkpt>
      <trkpt lat="47.44585" lon="6.79274">
        <ele>332</ele>
        <time>2015-03-15T10:37:23.000Z</time>
      </trkpt>
      <trkpt lat="47.44589" lon="6.79277">
        <ele>332</ele>
        <time>2015-03-15T10:37:24.000Z</time>
      </trkpt>
      <trkpt lat="47.44593" lon="6.79278">
        <ele>332</ele>
        <time>2015-03-15T10:37:25.000Z</time>
      </trkpt>
      <trkpt lat="47.44597" lon="6.79281">
        <ele>332</ele>
        <time>2015-03-15T10:37:26.000Z</time>
      </trkpt>
      <trkpt lat="47.44601" lon="6.79282">
        <ele>332</ele>
        <time>2015-03-15T10:37:27.000Z</time>
      </trkpt>
      <trkpt lat="47.44605" lon="6.79284">
        <ele>332</ele>
        <time>2015-03-15T10:37:28.000Z</time>
      </trkpt>
      <trkpt lat="47.44609" lon="6.79286">
        <ele>332</ele>
        <time>2015-03-15T10:37:29.000Z</time>
      </trkpt>
      <trkpt lat="47.44613" lon="6.79288">
        <ele>332</ele>
        <time>2015-03-15T10:37:30.000Z</time>
      </trkpt>
      <trkpt lat="47.44616" lon="6.7929">
        <ele>332</ele>
        <time>2015-03-15T10:37:31.000Z</time>
      </trkpt>
      <trkpt lat="47.4462" lon="6.79292">
        <ele>332</ele>
        <time>2015-03-15T10:37:32.000Z</time>
      </trkpt>
      <trkpt lat="47.44624" lon="6.79295">
        <ele>332</ele>
        <time>2015-03-15T10:37:33.000Z</time>
      </trkpt>
      <trkpt lat="47.44628" lon="6.79297">
        <ele>332</ele>
        <time>2015-03-15T10:37:34.000Z</time>
      </trkpt>
      <trkpt lat="47.44632" lon="6.79299">
        <ele>332</ele>
        <time>2015-03-15T10:37:35.000Z</time>
      </trkpt>
      <trkpt lat="47.44636" lon="6.79301">
        <ele>332</ele>
        <time>2015-03-15T10:37:36.000Z</time>
      </trkpt>
      <trkpt lat="47.4464" lon="6.79302">
        <ele>332</ele>
        <time>2015-03-15T10:37:37.000Z</time>
      </trkpt>
      <trkpt lat="47.44644" lon="6.79304">
        <ele>332</ele>
        <time>2015-03-15T10:37:38.000Z</time>
      </trkpt>
      <trkpt lat="47.44648" lon="6.79305">
        <ele>332</ele>
        <time>2015-03-15T10:37:39.000Z</time>
      </trkpt>
      <trkpt lat="47.44653" lon="6.79305">
        <ele>332</ele>
        <time>2015-03-15T10:37:40.000Z</time>
      </trkpt>
      <trkpt lat="47.44657" lon="6.79306">
        <ele>332</ele>
        <time>2015-03-15T10:37:41.000Z</time>
      </trkpt>
      <trkpt lat="47.44661" lon="6.79307">
        <ele>332</ele>
        <time>2015-03-15T10:37:42.000Z</time>
      </trkpt>
      <trkpt lat="47.44667" lon="6.7931">
        <ele>332</ele>
        <time>2015-03-15T10:37:43.000Z</time>
      </trkpt>
      <trkpt lat="47.44671" lon="6.79311">
        <ele>331</ele>
        <time>2015-03-15T10:37:44.000Z</time>
      </trkpt>
      <trkpt lat="47.44675" lon="6.79312">
        <ele>331</ele>
        <time>2015-03-15T10:37:45.000Z</time>
      </trkpt>
      <trkpt lat="47.4468" lon="6.79314">
        <ele>331</ele>
        <time>2015-03-15T10:37:46.000Z</time>
      </trkpt>
      <trkpt lat="47.44683" lon="6.79316">
        <ele>331</ele>
        <time>2015-03-15T10:37:47.000Z</time>
      </trkpt>
      <trkpt lat="47.44688" lon="6.79319">
        <ele>331</ele>
        <time>2015-03-15T10:37:48.000Z</time>
      </trkpt>
      <trkpt lat="47.44692" lon="6.79321">
        <ele>331</ele>
        <time>2015-03-15T10:37:49.000Z</time>
      </trkpt>
      <trkpt lat="47.44696" lon="6.79323">
        <ele>331</ele>
        <time>2015-03-15T10:37:50.000Z</time>
      </trkpt>
      <trkpt lat="47.447" lon="6.79325">
        <ele>331</ele>
        <time>2015-03-15T10:37:51.000Z</time>
      </trkpt>
      <trkpt lat="47.44704" lon="6.79327">
        <ele>331</ele>
        <time>2015-03-15T10:37:52.000Z</time>
      </trkpt>
      <trkpt lat="47.44709" lon="6.79329">
        <ele>331</ele>
        <time>2015-03-15T10:37:53.000Z</time>
      </trkpt>
      <trkpt lat="47.44713" lon="6.79331">
        <ele>331</ele>
        <time>2015-03-15T10:37:54.000Z</time>
      </trkpt>
      <trkpt lat="47.44716" lon="6.79332">
        <ele>331</ele>
        <time>2015-03-15T10:37:55.000Z</time>
      </trkpt>
      <trkpt lat="47.4472" lon="6.79334">
        <ele>331</ele>
        <time>2015-03-15T10:37:56.000Z</time>
      </trkpt>
      <trkpt lat="47.44725" lon="6.79337">
        <ele>331</ele>
        <time>2015-03-15T10:37:57.000Z</time>
      </trkpt>
      <trkpt lat="47.44729" lon="6.7934">
        <ele>331</ele>
        <time>2015-03-15T10:37:58.000Z</time>
      </trkpt>
      <trkpt lat="47.44734" lon="6.79342">
        <ele>331</ele>
        <time>2015-03-15T10:37:59.000Z</time>
      </trkpt>
      <trkpt lat="47.44738" lon="6.79345">
        <ele>331</ele>
        <time>2015-03-15T10:38:00.000Z</time>
      </trkpt>
      <trkpt lat="47.44742" lon="6.79347">
        <ele>331</ele>
        <time>2015-03-15T10:38:01.000Z</time>
      </trkpt>
      <trkpt lat="47.44747" lon="6.79349">
        <ele>331</ele>
        <time>2015-03-15T10:38:02.000Z</time>
      </trkpt>
      <trkpt lat="47.4475" lon="6.7935">
        <ele>331</ele>
        <time>2015-03-15T10:38:03.001Z</time>
      </trkpt>
      <trkpt lat="47.44754" lon="6.79353">
        <ele>331</ele>
        <time>2015-03-15T10:38:04.000Z</time>
      </trkpt>
      <trkpt lat="47.44759" lon="6.79357">
        <ele>331</ele>
        <time>2015-03-15T10:38:05.000Z</time>
      </trkpt>
      <trkpt lat="47.44763" lon="6.79361">
        <ele>331</ele>
        <time>2015-03-15T10:38:06.000Z</time>
      </trkpt>
      <trkpt lat="47.44767" lon="6.79364">
        <ele>331</ele>
        <time>2015-03-15T10:38:07.000Z</time>
      </trkpt>
      <trkpt lat="47.44772" lon="6.79366">
        <ele>331</ele>
        <time>2015-03-15T10:38:08.000Z</time>
      </trkpt>
      <trkpt lat="47.44777" lon="6.79369">
        <ele>331</ele>
        <time>2015-03-15T10:38:09.000Z</time>
      </trkpt>
      <trkpt lat="47.44781" lon="6.79372">
        <ele>331</ele>
        <time>2015-03-15T10:38:10.000Z</time>
      </trkpt>
      <trkpt lat="47.44786" lon="6.79375">
        <ele>331</ele>
        <time>2015-03-15T10:38:11.000Z</time>
      </trkpt>
      <trkpt lat="47.44791" lon="6.79379">
        <ele>331</ele>
        <time>2015-03-15T10:38:12.000Z</time>
      </trkpt>
      <trkpt lat="47.44795" lon="6.7938">
        <ele>331</ele>
        <time>2015-03-15T10:38:13.000Z</time>
      </trkpt>
      <trkpt lat="47.44799" lon="6.79383">
        <ele>331</ele>
        <time>2015-03-15T10:38:14.000Z</time>
      </trkpt>
      <trkpt lat="47.44803" lon="6.79387">
        <ele>331</ele>
        <time>2015-03-15T10:38:15.000Z</time>
      </trkpt>
      <trkpt lat="47.44807" lon="6.7939">
        <ele>331</ele>
        <time>2015-03-15T10:38:16.000Z</time>
      </trkpt>
      <trkpt lat="47.44811" lon="6.79391">
        <ele>331</ele>
        <time>2015-03-15T10:38:17.000Z</time>
      </trkpt>
      <trkpt lat="47.44815" lon="6.79393">
        <ele>331</ele>
        <time>2015-03-15T10:38:18.000Z</time>
      </trkpt>
      <trkpt lat="47.44817" lon="6.79394">
        <ele>331</ele>
        <time>2015-03-15T10:38:19.000Z</time>
      </trkpt>
      <trkpt lat="47.44821" lon="6.79398">
        <ele>331</ele>
        <time>2015-03-15T10:38:20.000Z</time>
      </trkpt>
      <trkpt lat="47.44826" lon="6.79401">
        <ele>331</ele>
        <time>2015-03-15T10:38:21.000Z</time>
      </trkpt>
      <trkpt lat="47.44831" lon="6.79402">
        <ele>331</ele>
        <time>2015-03-15T10:38:22.000Z</time>
      </trkpt>
      <trkpt lat="47.44837" lon="6.79404">
        <ele>332</ele>
        <time>2015-03-15T10:38:23.000Z</time>
      </trkpt>
      <trkpt lat="47.4484" lon="6.79407">
        <ele>332</ele>
        <time>2015-03-15T10:38:24.000Z</time>
      </trkpt>
      <trkpt lat="47.44845" lon="6.79411">
        <ele>332</ele>
        <time>2015-03-15T10:38:25.000Z</time>
      </trkpt>
      <trkpt lat="47.44848" lon="6.79415">
        <ele>332</ele>
        <time>2015-03-15T10:38:26.000Z</time>
      </trkpt>
      <trkpt lat="47.44852" lon="6.79418">
        <ele>332</ele>
        <time>2015-03-15T10:38:27.000Z</time>
      </trkpt>
      <trkpt lat="47.44855" lon="6.7942">
        <ele>332</ele>
        <time>2015-03-15T10:38:28.000Z</time>
      </trkpt>
      <trkpt lat="47.4486" lon="6.79422">
        <ele>332</ele>
        <time>2015-03-15T10:38:29.000Z</time>
      </trkpt>
      <trkpt lat="47.44863" lon="6.79426">
        <ele>332</ele>
        <time>2015-03-15T10:38:30.000Z</time>
      </trkpt>
      <trkpt lat="47.44867" lon="6.79429">
        <ele>332</ele>
        <time>2015-03-15T10:38:31.000Z</time>
      </trkpt>
      <trkpt lat="47.44871" lon="6.79433">
        <ele>332</ele>
        <time>2015-03-15T10:38:32.000Z</time>
      </trkpt>
      <trkpt lat="47.44875" lon="6.79437">
        <ele>332</ele>
        <time>2015-03-15T10:38:33.000Z</time>
      </trkpt>
      <trkpt lat="47.4488" lon="6.7944">
        <ele>332</ele>
        <time>2015-03-15T10:38:34.000Z</time>
      </trkpt>
      <trkpt lat="47.44885" lon="6.79443">
        <ele>332</ele>
        <time>2015-03-15T10:38:35.000Z</time>
      </trkpt>
      <trkpt lat="47.44889" lon="6.79446">
        <ele>332</ele>
        <time>2015-03-15T10:38:36.000Z</time>
      </trkpt>
      <trkpt lat="47.44894" lon="6.79448">
        <ele>332</ele>
        <time>2015-03-15T10:38:37.000Z</time>
      </trkpt>
      <trkpt lat="47.44897" lon="6.79455">
        <ele>332</ele>
        <time>2015-03-15T10:38:38.000Z</time>
      </trkpt>
      <trkpt lat="47.44901" lon="6.7946">
        <ele>332</ele>
        <time>2015-03-15T10:38:39.000Z</time>
      </trkpt>
      <trkpt lat="47.44905" lon="6.79462">
        <ele>332</ele>
        <time>2015-03-15T10:38:40.000Z</time>
      </trkpt>
      <trkpt lat="47.4491" lon="6.79465">
        <ele>332</ele>
        <time>2015-03-15T10:38:41.000Z</time>
      </trkpt>
      <trkpt lat="47.44913" lon="6.7947">
        <ele>332</ele>
        <time>2015-03-15T10:38:42.000Z</time>
      </trkpt>
      <trkpt lat="47.44917" lon="6.79472">
        <ele>333</ele>
        <time>2015-03-15T10:38:43.000Z</time>
      </trkpt>
      <trkpt lat="47.44924" lon="6.79474">
        <ele>333</ele>
        <time>2015-03-15T10:38:44.000Z</time>
      </trkpt>
      <trkpt lat="47.44928" lon="6.79476">
        <ele>333</ele>
        <time>2015-03-15T10:38:45.000Z</time>
      </trkpt>
      <trkpt lat="47.44931" lon="6.79479">
        <ele>333</ele>
        <time>2015-03-15T10:38:46.000Z</time>
      </trkpt>
      <trkpt lat="47.44934" lon="6.79483">
        <ele>332</ele>
        <time>2015-03-15T10:38:47.000Z</time>
      </trkpt>
      <trkpt lat="47.44939" lon="6.79484">
        <ele>333</ele>
        <time>2015-03-15T10:38:48.000Z</time>
      </trkpt>
      <trkpt lat="47.44944" lon="6.79486">
        <ele>333</ele>
        <time>2015-03-15T10:38:49.000Z</time>
      </trkpt>
      <trkpt lat="47.44949" lon="6.79492">
        <ele>333</ele>
        <time>2015-03-15T10:38:50.000Z</time>
      </trkpt>
      <trkpt lat="47.44953" lon="6.79494">
        <ele>333</ele>
        <time>2015-03-15T10:38:51.000Z</time>
      </trkpt>
      <trkpt lat="47.44957" lon="6.79496">
        <ele>333</ele>
        <time>2015-03-15T10:38:52.000Z</time>
      </trkpt>
      <trkpt lat="47.4496" lon="6.795">
        <ele>333</ele>
        <time>2015-03-15T10:38:53.000Z</time>
      </trkpt>
      <trkpt lat="47.44964" lon="6.79503">
        <ele>333</ele>
        <time>2015-03-15T10:38:54.000Z</time>
      </trkpt>
      <trkpt lat="47.44967" lon="6.79506">
        <ele>333</ele>
        <time>2015-03-15T10:38:55.000Z</time>
      </trkpt>
      <trkpt lat="47.44973" lon="6.79507">
        <ele>333</ele>
        <time>2015-03-15T10:38:56.000Z</time>
      </trkpt>
      <trkpt lat="47.44977" lon="6.79511">
        <ele>333</ele>
        <time>2015-03-15T10:38:57.000Z</time>
      </trkpt>
      <trkpt lat="47.44981" lon="6.79515">
        <ele>333</ele>
        <time>2015-03-15T10:38:58.000Z</time>
      </trkpt>
      <trkpt lat="47.44987" lon="6.79513">
        <ele>333</ele>
        <time>2015-03-15T10:38:59.000Z</time>
      </trkpt>
      <trkpt lat="47.44993" lon="6.79511">
        <ele>333</ele>
        <time>2015-03-15T10:39:00.000Z</time>
      </trkpt>
      <trkpt lat="47.45" lon="6.79509">
        <ele>333</ele>
        <time>2015-03-15T10:39:01.000Z</time>
      </trkpt>
      <trkpt lat="47.45003" lon="6.79516">
        <ele>333</ele>
        <time>2015-03-15T10:39:02.000Z</time>
      </trkpt>
      <trkpt lat="47.45005" lon="6.79527">
        <ele>333</ele>
        <time>2015-03-15T10:39:03.000Z</time>
      </trkpt>
      <trkpt lat="47.45009" lon="6.79532">
        <ele>333</ele>
        <time>2015-03-15T10:39:04.000Z</time>
      </trkpt>
      <trkpt lat="47.45011" lon="6.79537">
        <ele>333</ele>
        <time>2015-03-15T10:39:05.000Z</time>
      </trkpt>
      <trkpt lat="47.45014" lon="6.79544">
        <ele>333</ele>
        <time>2015-03-15T10:39:06.000Z</time>
      </trkpt>
      <trkpt lat="47.45018" lon="6.79548">
        <ele>333</ele>
        <time>2015-03-15T10:39:07.000Z</time>
      </trkpt>
      <trkpt lat="47.45018" lon="6.79556">
        <ele>333</ele>
        <time>2015-03-15T10:39:08.001Z</time>
      </trkpt>
      <trkpt lat="47.45022" lon="6.79563">
        <ele>333</ele>
        <time>2015-03-15T10:39:09.000Z</time>
      </trkpt>
      <trkpt lat="47.45025" lon="6.79568">
        <ele>333</ele>
        <time>2015-03-15T10:39:10.000Z</time>
      </trkpt>
      <trkpt lat="47.45026" lon="6.79571">
        <ele>333</ele>
        <time>2015-03-15T10:39:11.000Z</time>
      </trkpt>
      <trkpt lat="47.45031" lon="6.79578">
        <ele>333</ele>
        <time>2015-03-15T10:39:12.000Z</time>
      </trkpt>
      <trkpt lat="47.45034" lon="6.79583">
        <ele>333</ele>
        <time>2015-03-15T10:39:13.000Z</time>
      </trkpt>
      <trkpt lat="47.45037" lon="6.79588">
        <ele>334</ele>
        <time>2015-03-15T10:39:14.000Z</time>
      </trkpt>
      <trkpt lat="47.4504" lon="6.79593">
        <ele>334</ele>
        <time>2015-03-15T10:39:15.000Z</time>
      </trkpt>
      <trkpt lat="47.45042" lon="6.79599">
        <ele>334</ele>
        <time>2015-03-15T10:39:16.000Z</time>
      </trkpt>
      <trkpt lat="47.45045" lon="6.79606">
        <ele>334</ele>
        <time>2015-03-15T10:39:17.000Z</time>
      </trkpt>
      <trkpt lat="47.45048" lon="6.79612">
        <ele>334</ele>
        <time>2015-03-15T10:39:18.000Z</time>
      </trkpt>
      <trkpt lat="47.45051" lon="6.79616">
        <ele>334</ele>
        <time>2015-03-15T10:39:19.000Z</time>
      </trkpt>
      <trkpt lat="47.45054" lon="6.79619">
        <ele>334</ele>
        <time>2015-03-15T10:39:20.000Z</time>
      </trkpt>
      <trkpt lat="47.45057" lon="6.79622">
        <ele>334</ele>
        <time>2015-03-15T10:39:22.000Z</time>
      </trkpt>
      <trkpt lat="47.45059" lon="6.79621">
        <ele>334</ele>
        <time>2015-03-15T10:39:23.000Z</time>
      </trkpt>
      <trkpt lat="47.45061" lon="6.79621">
        <ele>334</ele>
        <time>2015-03-15T10:39:24.000Z</time>
      </trkpt>
      <trkpt lat="47.45066" lon="6.79613">
        <ele>334</ele>
        <time>2015-03-15T10:39:25.000Z</time>
      </trkpt>
      <trkpt lat="47.4507" lon="6.79608">
        <ele>334</ele>
        <time>2015-03-15T10:39:26.000Z</time>
      </trkpt>
      <trkpt lat="47.45073" lon="6.79602">
        <ele>334</ele>
        <time>2015-03-15T10:39:27.000Z</time>
      </trkpt>
      <trkpt lat="47.45076" lon="6.79597">
        <ele>334</ele>
        <time>2015-03-15T10:39:28.000Z</time>
      </trkpt>
      <trkpt lat="47.45081" lon="6.79593">
        <ele>333</ele>
        <time>2015-03-15T10:39:29.000Z</time>
      </trkpt>
      <trkpt lat="47.45084" lon="6.7959">
        <ele>333</ele>
        <time>2015-03-15T10:39:30.000Z</time>
      </trkpt>
      <trkpt lat="47.45085" lon="6.79584">
        <ele>333</ele>
        <time>2015-03-15T10:39:31.000Z</time>
      </trkpt>
      <trkpt lat="47.45088" lon="6.79579">
        <ele>333</ele>
        <time>2015-03-15T10:39:31.999Z</time>
      </trkpt>
      <trkpt lat="47.45092" lon="6.79574">
        <ele>333</ele>
        <time>2015-03-15T10:39:33.000Z</time>
      </trkpt>
      <trkpt lat="47.45095" lon="6.7957">
        <ele>333</ele>
        <time>2015-03-15T10:39:34.000Z</time>
      </trkpt>
      <trkpt lat="47.45097" lon="6.79567">
        <ele>333</ele>
        <time>2015-03-15T10:39:35.000Z</time>
      </trkpt>
      <trkpt lat="47.45101" lon="6.79562">
        <ele>333</ele>
        <time>2015-03-15T10:39:36.000Z</time>
      </trkpt>
      <trkpt lat="47.45104" lon="6.79558">
        <ele>333</ele>
        <time>2015-03-15T10:39:37.000Z</time>
      </trkpt>
      <trkpt lat="47.45107" lon="6.79554">
        <ele>333</ele>
        <time>2015-03-15T10:39:38.000Z</time>
      </trkpt>
      <trkpt lat="47.45109" lon="6.79551">
        <ele>333</ele>
        <time>2015-03-15T10:39:39.000Z</time>
      </trkpt>
      <trkpt lat="47.45112" lon="6.79547">
        <ele>333</ele>
        <time>2015-03-15T10:39:40.001Z</time>
      </trkpt>
      <trkpt lat="47.45113" lon="6.79545">
        <ele>333</ele>
        <time>2015-03-15T10:39:41.000Z</time>
      </trkpt>
      <trkpt lat="47.45115" lon="6.79542">
        <ele>333</ele>
        <time>2015-03-15T10:39:41.999Z</time>
      </trkpt>
      <trkpt lat="47.45118" lon="6.79539">
        <ele>333</ele>
        <time>2015-03-15T10:39:44.000Z</time>
      </trkpt>
      <trkpt lat="47.45119" lon="6.79536">
        <ele>333</ele>
        <time>2015-03-15T10:39:45.000Z</time>
      </trkpt>
      <trkpt lat="47.45121" lon="6.79533">
        <ele>333</ele>
        <time>2015-03-15T10:39:45.999Z</time>
      </trkpt>
      <trkpt lat="47.45122" lon="6.79529">
        <ele>333</ele>
        <time>2015-03-15T10:39:47.002Z</time>
      </trkpt>
      <trkpt lat="47.45123" lon="6.79522">
        <ele>333</ele>
        <time>2015-03-15T10:39:48.000Z</time>
      </trkpt>
      <trkpt lat="47.45125" lon="6.79517">
        <ele>333</ele>
        <time>2015-03-15T10:39:49.000Z</time>
      </trkpt>
      <trkpt lat="47.45127" lon="6.79512">
        <ele>333</ele>
        <time>2015-03-15T10:39:50.000Z</time>
      </trkpt>
      <trkpt lat="47.45129" lon="6.79508">
        <ele>333</ele>
        <time>2015-03-15T10:39:51.000Z</time>
      </trkpt>
      <trkpt lat="47.45131" lon="6.79503">
        <ele>333</ele>
        <time>2015-03-15T10:39:52.000Z</time>
      </trkpt>
      <trkpt lat="47.45133" lon="6.79492">
        <ele>333</ele>
        <time>2015-03-15T10:39:53.000Z</time>
      </trkpt>
      <trkpt lat="47.45135" lon="6.79487">
        <ele>333</ele>
        <time>2015-03-15T10:39:54.000Z</time>
      </trkpt>
      <trkpt lat="47.45137" lon="6.79481">
        <ele>333</ele>
        <time>2015-03-15T10:39:55.000Z</time>
      </trkpt>
      <trkpt lat="47.45138" lon="6.79474">
        <ele>333</ele>
        <time>2015-03-15T10:39:56.000Z</time>
      </trkpt>
      <trkpt lat="47.4514" lon="6.79468">
        <ele>333</ele>
        <time>2015-03-15T10:39:57.000Z</time>
      </trkpt>
      <trkpt lat="47.45142" lon="6.79462">
        <ele>333</ele>
        <time>2015-03-15T10:39:58.000Z</time>
      </trkpt>
      <trkpt lat="47.45142" lon="6.79457">
        <ele>333</ele>
        <time>2015-03-15T10:39:59.000Z</time>
      </trkpt>
      <trkpt lat="47.45143" lon="6.79454">
        <ele>333</ele>
        <time>2015-03-15T10:40:00.000Z</time>
      </trkpt>
      <trkpt lat="47.45145" lon="6.7945">
        <ele>333</ele>
        <time>2015-03-15T10:40:01.000Z</time>
      </trkpt>
      <trkpt lat="47.45146" lon="6.79445">
        <ele>333</ele>
        <time>2015-03-15T10:40:02.000Z</time>
      </trkpt>
      <trkpt lat="47.45148" lon="6.79441">
        <ele>333</ele>
        <time>2015-03-15T10:40:03.000Z</time>
      </trkpt>
      <trkpt lat="47.45149" lon="6.79435">
        <ele>333</ele>
        <time>2015-03-15T10:40:04.000Z</time>
      </trkpt>
      <trkpt lat="47.45151" lon="6.7943">
        <ele>333</ele>
        <time>2015-03-15T10:40:05.000Z</time>
      </trkpt>
      <trkpt lat="47.45153" lon="6.79424">
        <ele>333</ele>
        <time>2015-03-15T10:40:06.000Z</time>
      </trkpt>
      <trkpt lat="47.45155" lon="6.79418">
        <ele>333</ele>
        <time>2015-03-15T10:40:07.000Z</time>
      </trkpt>
      <trkpt lat="47.45158" lon="6.79408">
        <ele>333</ele>
        <time>2015-03-15T10:40:08.000Z</time>
      </trkpt>
      <trkpt lat="47.4516" lon="6.794">
        <ele>333</ele>
        <time>2015-03-15T10:40:09.000Z</time>
      </trkpt>
      <trkpt lat="47.45162" lon="6.79395">
        <ele>334</ele>
        <time>2015-03-15T10:40:10.000Z</time>
      </trkpt>
      <trkpt lat="47.45164" lon="6.79388">
        <ele>334</ele>
        <time>2015-03-15T10:40:11.000Z</time>
      </trkpt>
      <trkpt lat="47.45163" lon="6.79376">
        <ele>334</ele>
        <time>2015-03-15T10:40:12.000Z</time>
      </trkpt>
      <trkpt lat="47.45163" lon="6.79368">
        <ele>334</ele>
        <time>2015-03-15T10:40:13.000Z</time>
      </trkpt>
      <trkpt lat="47.45164" lon="6.7936">
        <ele>334</ele>
        <time>2015-03-15T10:40:14.000Z</time>
      </trkpt>
      <trkpt lat="47.45167" lon="6.79353">
        <ele>334</ele>
        <time>2015-03-15T10:40:15.000Z</time>
      </trkpt>
      <trkpt lat="47.45169" lon="6.79346">
        <ele>334</ele>
        <time>2015-03-15T10:40:16.000Z</time>
      </trkpt>
      <trkpt lat="47.45172" lon="6.7934">
        <ele>334</ele>
        <time>2015-03-15T10:40:17.000Z</time>
      </trkpt>
      <trkpt lat="47.45174" lon="6.79333">
        <ele>335</ele>
        <time>2015-03-15T10:40:18.000Z</time>
      </trkpt>
      <trkpt lat="47.45175" lon="6.79326">
        <ele>335</ele>
        <time>2015-03-15T10:40:19.000Z</time>
      </trkpt>
      <trkpt lat="47.45177" lon="6.79321">
        <ele>335</ele>
        <time>2015-03-15T10:40:20.000Z</time>
      </trkpt>
      <trkpt lat="47.45177" lon="6.79314">
        <ele>334</ele>
        <time>2015-03-15T10:40:21.000Z</time>
      </trkpt>
      <trkpt lat="47.45179" lon="6.79308">
        <ele>334</ele>
        <time>2015-03-15T10:40:22.000Z</time>
      </trkpt>
      <trkpt lat="47.45181" lon="6.79303">
        <ele>334</ele>
        <time>2015-03-15T10:40:23.000Z</time>
      </trkpt>
      <trkpt lat="47.45181" lon="6.79297">
        <ele>334</ele>
        <time>2015-03-15T10:40:24.000Z</time>
      </trkpt>
      <trkpt lat="47.45184" lon="6.79292">
        <ele>334</ele>
        <time>2015-03-15T10:40:25.000Z</time>
      </trkpt>
      <trkpt lat="47.45187" lon="6.79288">
        <ele>334</ele>
        <time>2015-03-15T10:40:26.000Z</time>
      </trkpt>
      <trkpt lat="47.45191" lon="6.79285">
        <ele>334</ele>
        <time>2015-03-15T10:40:27.000Z</time>
      </trkpt>
      <trkpt lat="47.45193" lon="6.7928">
        <ele>334</ele>
        <time>2015-03-15T10:40:28.000Z</time>
      </trkpt>
      <trkpt lat="47.45196" lon="6.79273">
        <ele>334</ele>
        <time>2015-03-15T10:40:29.000Z</time>
      </trkpt>
      <trkpt lat="47.45198" lon="6.79265">
        <ele>334</ele>
        <time>2015-03-15T10:40:30.000Z</time>
      </trkpt>
      <trkpt lat="47.452" lon="6.79258">
        <ele>334</ele>
        <time>2015-03-15T10:40:31.000Z</time>
      </trkpt>
      <trkpt lat="47.45201" lon="6.79251">
        <ele>334</ele>
        <time>2015-03-15T10:40:32.000Z</time>
      </trkpt>
      <trkpt lat="47.45203" lon="6.79244">
        <ele>334</ele>
        <time>2015-03-15T10:40:33.000Z</time>
      </trkpt>
      <trkpt lat="47.45203" lon="6.79236">
        <ele>334</ele>
        <time>2015-03-15T10:40:34.000Z</time>
      </trkpt>
      <trkpt lat="47.45204" lon="6.7923">
        <ele>334</ele>
        <time>2015-03-15T10:40:35.000Z</time>
      </trkpt>
      <trkpt lat="47.45206" lon="6.79224">
        <ele>334</ele>
        <time>2015-03-15T10:40:36.000Z</time>
      </trkpt>
      <trkpt lat="47.45207" lon="6.79219">
        <ele>334</ele>
        <time>2015-03-15T10:40:37.000Z</time>
      </trkpt>
      <trkpt lat="47.45209" lon="6.79211">
        <ele>334</ele>
        <time>2015-03-15T10:40:38.000Z</time>
      </trkpt>
      <trkpt lat="47.45211" lon="6.79203">
        <ele>334</ele>
        <time>2015-03-15T10:40:39.000Z</time>
      </trkpt>
      <trkpt lat="47.45214" lon="6.79199">
        <ele>334</ele>
        <time>2015-03-15T10:40:40.000Z</time>
      </trkpt>
      <trkpt lat="47.45216" lon="6.79193">
        <ele>334</ele>
        <time>2015-03-15T10:40:41.000Z</time>
      </trkpt>
      <trkpt lat="47.45218" lon="6.79188">
        <ele>333</ele>
        <time>2015-03-15T10:40:42.000Z</time>
      </trkpt>
      <trkpt lat="47.45217" lon="6.79177">
        <ele>333</ele>
        <time>2015-03-15T10:40:43.000Z</time>
      </trkpt>
      <trkpt lat="47.45219" lon="6.7917">
        <ele>333</ele>
        <time>2015-03-15T10:40:44.000Z</time>
      </trkpt>
      <trkpt lat="47.45221" lon="6.79163">
        <ele>333</ele>
        <time>2015-03-15T10:40:45.000Z</time>
      </trkpt>
      <trkpt lat="47.45222" lon="6.79156">
        <ele>333</ele>
        <time>2015-03-15T10:40:46.000Z</time>
      </trkpt>
      <trkpt lat="47.45224" lon="6.79149">
        <ele>333</ele>
        <time>2015-03-15T10:40:47.000Z</time>
      </trkpt>
      <trkpt lat="47.45225" lon="6.79143">
        <ele>333</ele>
        <time>2015-03-15T10:40:48.000Z</time>
      </trkpt>
      <trkpt lat="47.45227" lon="6.7914">
        <ele>333</ele>
        <time>2015-03-15T10:40:49.000Z</time>
      </trkpt>
      <trkpt lat="47.45231" lon="6.79135">
        <ele>333</ele>
        <time>2015-03-15T10:40:50.000Z</time>
      </trkpt>
      <trkpt lat="47.45236" lon="6.79133">
        <ele>333</ele>
        <time>2015-03-15T10:40:51.000Z</time>
      </trkpt>
      <trkpt lat="47.45241" lon="6.79132">
        <ele>333</ele>
        <time>2015-03-15T10:40:52.000Z</time>
      </trkpt>
      <trkpt lat="47.45246" lon="6.7913">
        <ele>333</ele>
        <time>2015-03-15T10:40:53.000Z</time>
      </trkpt>
      <trkpt lat="47.4525" lon="6.79123">
        <ele>333</ele>
        <time>2015-03-15T10:40:54.000Z</time>
      </trkpt>
      <trkpt lat="47.45254" lon="6.79117">
        <ele>332</ele>
        <time>2015-03-15T10:40:55.000Z</time>
      </trkpt>
      <trkpt lat="47.45256" lon="6.79109">
        <ele>332</ele>
        <time>2015-03-15T10:40:56.000Z</time>
      </trkpt>
      <trkpt lat="47.45259" lon="6.79101">
        <ele>332</ele>
        <time>2015-03-15T10:40:57.000Z</time>
      </trkpt>
      <trkpt lat="47.45262" lon="6.79094">
        <ele>332</ele>
        <time>2015-03-15T10:40:58.000Z</time>
      </trkpt>
      <trkpt lat="47.45264" lon="6.79086">
        <ele>332</ele>
        <time>2015-03-15T10:40:59.000Z</time>
      </trkpt>
      <trkpt lat="47.45267" lon="6.79078">
        <ele>332</ele>
        <time>2015-03-15T10:41:00.000Z</time>
      </trkpt>
      <trkpt lat="47.45269" lon="6.79071">
        <ele>332</ele>
        <time>2015-03-15T10:41:01.000Z</time>
      </trkpt>
      <trkpt lat="47.45272" lon="6.79065">
        <ele>332</ele>
        <time>2015-03-15T10:41:02.000Z</time>
      </trkpt>
      <trkpt lat="47.45274" lon="6.79057">
        <ele>331</ele>
        <time>2015-03-15T10:41:03.000Z</time>
      </trkpt>
      <trkpt lat="47.45277" lon="6.79051">
        <ele>331</ele>
        <time>2015-03-15T10:41:04.000Z</time>
      </trkpt>
      <trkpt lat="47.45279" lon="6.79045">
        <ele>331</ele>
        <time>2015-03-15T10:41:05.000Z</time>
      </trkpt>
      <trkpt lat="47.45282" lon="6.79039">
        <ele>331</ele>
        <time>2015-03-15T10:41:06.000Z</time>
      </trkpt>
      <trkpt lat="47.45285" lon="6.79033">
        <ele>331</ele>
        <time>2015-03-15T10:41:07.000Z</time>
      </trkpt>
      <trkpt lat="47.45289" lon="6.79027">
        <ele>331</ele>
        <time>2015-03-15T10:41:08.000Z</time>
      </trkpt>
      <trkpt lat="47.45292" lon="6.7902">
        <ele>331</ele>
        <time>2015-03-15T10:41:09.000Z</time>
      </trkpt>
      <trkpt lat="47.45296" lon="6.79014">
        <ele>331</ele>
        <time>2015-03-15T10:41:10.000Z</time>
      </trkpt>
      <trkpt lat="47.45299" lon="6.79008">
        <ele>331</ele>
        <time>2015-03-15T10:41:11.000Z</time>
      </trkpt>
      <trkpt lat="47.45303" lon="6.79003">
        <ele>331</ele>
        <time>2015-03-15T10:41:12.000Z</time>
      </trkpt>
      <trkpt lat="47.45306" lon="6.78999">
        <ele>331</ele>
        <time>2015-03-15T10:41:13.000Z</time>
      </trkpt>
      <trkpt lat="47.45308" lon="6.78994">
        <ele>331</ele>
        <time>2015-03-15T10:41:14.000Z</time>
      </trkpt>
      <trkpt lat="47.45311" lon="6.7899">
        <ele>331</ele>
        <time>2015-03-15T10:41:15.000Z</time>
      </trkpt>
      <trkpt lat="47.45312" lon="6.78987">
        <ele>331</ele>
        <time>2015-03-15T10:41:16.000Z</time>
      </trkpt>
      <trkpt lat="47.45316" lon="6.78983">
        <ele>331</ele>
        <time>2015-03-15T10:41:17.000Z</time>
      </trkpt>
      <trkpt lat="47.45318" lon="6.78979">
        <ele>331</ele>
        <time>2015-03-15T10:41:18.000Z</time>
      </trkpt>
      <trkpt lat="47.45321" lon="6.78975">
        <ele>331</ele>
        <time>2015-03-15T10:41:19.000Z</time>
      </trkpt>
      <trkpt lat="47.45323" lon="6.78971">
        <ele>331</ele>
        <time>2015-03-15T10:41:20.000Z</time>
      </trkpt>
      <trkpt lat="47.45325" lon="6.78969">
        <ele>331</ele>
        <time>2015-03-15T10:41:21.000Z</time>
      </trkpt>
      <trkpt lat="47.45328" lon="6.78965">
        <ele>331</ele>
        <time>2015-03-15T10:41:22.000Z</time>
      </trkpt>
      <trkpt lat="47.45331" lon="6.78961">
        <ele>331</ele>
        <time>2015-03-15T10:41:23.000Z</time>
      </trkpt>
      <trkpt lat="47.45334" lon="6.78958">
        <ele>331</ele>
        <time>2015-03-15T10:41:24.000Z</time>
      </trkpt>
      <trkpt lat="47.45339" lon="6.78956">
        <ele>331</ele>
        <time>2015-03-15T10:41:25.000Z</time>
      </trkpt>
      <trkpt lat="47.45343" lon="6.78954">
        <ele>331</ele>
        <time>2015-03-15T10:41:26.000Z</time>
      </trkpt>
      <trkpt lat="47.45347" lon="6.78952">
        <ele>331</ele>
        <time>2015-03-15T10:41:27.000Z</time>
      </trkpt>
      <trkpt lat="47.45351" lon="6.7895">
        <ele>331</ele>
        <time>2015-03-15T10:41:28.000Z</time>
      </trkpt>
      <trkpt lat="47.45351" lon="6.78941">
        <ele>331</ele>
        <time>2015-03-15T10:41:29.000Z</time>
      </trkpt>
      <trkpt lat="47.45355" lon="6.78937">
        <ele>331</ele>
        <time>2015-03-15T10:41:30.000Z</time>
      </trkpt>
      <trkpt lat="47.45358" lon="6.78932">
        <ele>331</ele>
        <time>2015-03-15T10:41:30.998Z</time>
      </trkpt>
      <trkpt lat="47.4536" lon="6.78926">
        <ele>331</ele>
        <time>2015-03-15T10:41:32.000Z</time>
      </trkpt>
      <trkpt lat="47.45363" lon="6.7892">
        <ele>331</ele>
        <time>2015-03-15T10:41:33.000Z</time>
      </trkpt>
      <trkpt lat="47.45365" lon="6.78915">
        <ele>332</ele>
        <time>2015-03-15T10:41:34.000Z</time>
      </trkpt>
      <trkpt lat="47.45369" lon="6.7891">
        <ele>332</ele>
        <time>2015-03-15T10:41:35.000Z</time>
      </trkpt>
      <trkpt lat="47.45371" lon="6.78904">
        <ele>332</ele>
        <time>2015-03-15T10:41:36.000Z</time>
      </trkpt>
      <trkpt lat="47.45374" lon="6.789">
        <ele>332</ele>
        <time>2015-03-15T10:41:37.000Z</time>
      </trkpt>
      <trkpt lat="47.45378" lon="6.78899">
        <ele>332</ele>
        <time>2015-03-15T10:41:38.000Z</time>
      </trkpt>
      <trkpt lat="47.45382" lon="6.78897">
        <ele>332</ele>
        <time>2015-03-15T10:41:39.000Z</time>
      </trkpt>
      <trkpt lat="47.45384" lon="6.78892">
        <ele>332</ele>
        <time>2015-03-15T10:41:40.000Z</time>
      </trkpt>
      <trkpt lat="47.45386" lon="6.78887">
        <ele>332</ele>
        <time>2015-03-15T10:41:41.000Z</time>
      </trkpt>
      <trkpt lat="47.4539" lon="6.78881">
        <ele>332</ele>
        <time>2015-03-15T10:41:42.000Z</time>
      </trkpt>
      <trkpt lat="47.45392" lon="6.78875">
        <ele>332</ele>
        <time>2015-03-15T10:41:43.000Z</time>
      </trkpt>
      <trkpt lat="47.45397" lon="6.78876">
        <ele>332</ele>
        <time>2015-03-15T10:41:44.000Z</time>
      </trkpt>
      <trkpt lat="47.45401" lon="6.78872">
        <ele>332</ele>
        <time>2015-03-15T10:41:45.000Z</time>
      </trkpt>
      <trkpt lat="47.45405" lon="6.78869">
        <ele>332</ele>
        <time>2015-03-15T10:41:46.000Z</time>
      </trkpt>
      <trkpt lat="47.45407" lon="6.78863">
        <ele>332</ele>
        <time>2015-03-15T10:41:47.000Z</time>
      </trkpt>
      <trkpt lat="47.4541" lon="6.78858">
        <ele>332</ele>
        <time>2015-03-15T10:41:48.000Z</time>
      </trkpt>
      <trkpt lat="47.45413" lon="6.78852">
        <ele>332</ele>
        <time>2015-03-15T10:41:49.000Z</time>
      </trkpt>
      <trkpt lat="47.45416" lon="6.78849">
        <ele>332</ele>
        <time>2015-03-15T10:41:50.000Z</time>
      </trkpt>
      <trkpt lat="47.4542" lon="6.78845">
        <ele>332</ele>
        <time>2015-03-15T10:41:51.000Z</time>
      </trkpt>
      <trkpt lat="47.45424" lon="6.78844">
        <ele>332</ele>
        <time>2015-03-15T10:41:52.000Z</time>
      </trkpt>
      <trkpt lat="47.45426" lon="6.7884">
        <ele>332</ele>
        <time>2015-03-15T10:41:53.000Z</time>
      </trkpt>
      <trkpt lat="47.45429" lon="6.78836">
        <ele>332</ele>
        <time>2015-03-15T10:41:54.000Z</time>
      </trkpt>
      <trkpt lat="47.45431" lon="6.78832">
        <ele>333</ele>
        <time>2015-03-15T10:41:55.000Z</time>
      </trkpt>
      <trkpt lat="47.45435" lon="6.78829">
        <ele>333</ele>
        <time>2015-03-15T10:41:56.000Z</time>
      </trkpt>
      <trkpt lat="47.45438" lon="6.78826">
        <ele>333</ele>
        <time>2015-03-15T10:41:57.000Z</time>
      </trkpt>
      <trkpt lat="47.4544" lon="6.78821">
        <ele>333</ele>
        <time>2015-03-15T10:41:58.000Z</time>
      </trkpt>
      <trkpt lat="47.45443" lon="6.78818">
        <ele>333</ele>
        <time>2015-03-15T10:41:59.000Z</time>
      </trkpt>
      <trkpt lat="47.45445" lon="6.78815">
        <ele>333</ele>
        <time>2015-03-15T10:42:00.000Z</time>
      </trkpt>
      <trkpt lat="47.45448" lon="6.78812">
        <ele>333</ele>
        <time>2015-03-15T10:42:01.000Z</time>
      </trkpt>
      <trkpt lat="47.45451" lon="6.78809">
        <ele>333</ele>
        <time>2015-03-15T10:42:02.000Z</time>
      </trkpt>
      <trkpt lat="47.45454" lon="6.78806">
        <ele>333</ele>
        <time>2015-03-15T10:42:03.000Z</time>
      </trkpt>
      <trkpt lat="47.45457" lon="6.78803">
        <ele>333</ele>
        <time>2015-03-15T10:42:04.000Z</time>
      </trkpt>
      <trkpt lat="47.45459" lon="6.78799">
        <ele>333</ele>
        <time>2015-03-15T10:42:05.000Z</time>
      </trkpt>
      <trkpt lat="47.45462" lon="6.78795">
        <ele>333</ele>
        <time>2015-03-15T10:42:06.000Z</time>
      </trkpt>
      <trkpt lat="47.45465" lon="6.78792">
        <ele>333</ele>
        <time>2015-03-15T10:42:07.000Z</time>
      </trkpt>
      <trkpt lat="47.45468" lon="6.78788">
        <ele>333</ele>
        <time>2015-03-15T10:42:08.000Z</time>
      </trkpt>
      <trkpt lat="47.45471" lon="6.78784">
        <ele>333</ele>
        <time>2015-03-15T10:42:09.000Z</time>
      </trkpt>
      <trkpt lat="47.45475" lon="6.78781">
        <ele>334</ele>
        <time>2015-03-15T10:42:10.000Z</time>
      </trkpt>
      <trkpt lat="47.45478" lon="6.78777">
        <ele>334</ele>
        <time>2015-03-15T10:42:11.000Z</time>
      </trkpt>
      <trkpt lat="47.45481" lon="6.78773">
        <ele>334</ele>
        <time>2015-03-15T10:42:12.000Z</time>
      </trkpt>
      <trkpt lat="47.45483" lon="6.7877">
        <ele>334</ele>
        <time>2015-03-15T10:42:13.000Z</time>
      </trkpt>
      <trkpt lat="47.45486" lon="6.78766">
        <ele>334</ele>
        <time>2015-03-15T10:42:14.000Z</time>
      </trkpt>
      <trkpt lat="47.45489" lon="6.78764">
        <ele>334</ele>
        <time>2015-03-15T10:42:15.000Z</time>
      </trkpt>
      <trkpt lat="47.45491" lon="6.78758">
        <ele>334</ele>
        <time>2015-03-15T10:42:17.000Z</time>
      </trkpt>
      <trkpt lat="47.45493" lon="6.78756">
        <ele>334</ele>
        <time>2015-03-15T10:42:18.000Z</time>
      </trkpt>
      <trkpt lat="47.45491" lon="6.7875">
        <ele>334</ele>
        <time>2015-03-15T10:42:20.000Z</time>
      </trkpt>
      <trkpt lat="47.4549" lon="6.78747">
        <ele>335</ele>
        <time>2015-03-15T10:42:21.000Z</time>
      </trkpt>
      <trkpt lat="47.45488" lon="6.78743">
        <ele>335</ele>
        <time>2015-03-15T10:42:22.000Z</time>
      </trkpt>
      <trkpt lat="47.45487" lon="6.78738">
        <ele>335</ele>
        <time>2015-03-15T10:42:23.000Z</time>
      </trkpt>
      <trkpt lat="47.45485" lon="6.78734">
        <ele>335</ele>
        <time>2015-03-15T10:42:24.000Z</time>
      </trkpt>
      <trkpt lat="47.45482" lon="6.78729">
        <ele>335</ele>
        <time>2015-03-15T10:42:25.000Z</time>
      </trkpt>
      <trkpt lat="47.4548" lon="6.78724">
        <ele>335</ele>
        <time>2015-03-15T10:42:26.000Z</time>
      </trkpt>
      <trkpt lat="47.45477" lon="6.7872">
        <ele>335</ele>
        <time>2015-03-15T10:42:27.000Z</time>
      </trkpt>
      <trkpt lat="47.45474" lon="6.78715">
        <ele>335</ele>
        <time>2015-03-15T10:42:28.000Z</time>
      </trkpt>
      <trkpt lat="47.45472" lon="6.7871">
        <ele>335</ele>
        <time>2015-03-15T10:42:29.000Z</time>
      </trkpt>
      <trkpt lat="47.45469" lon="6.78705">
        <ele>335</ele>
        <time>2015-03-15T10:42:30.000Z</time>
      </trkpt>
      <trkpt lat="47.45467" lon="6.78699">
        <ele>335</ele>
        <time>2015-03-15T10:42:31.000Z</time>
      </trkpt>
      <trkpt lat="47.45464" lon="6.78694">
        <ele>335</ele>
        <time>2015-03-15T10:42:32.000Z</time>
      </trkpt>
      <trkpt lat="47.45461" lon="6.78689">
        <ele>335</ele>
        <time>2015-03-15T10:42:33.000Z</time>
      </trkpt>
      <trkpt lat="47.45459" lon="6.78684">
        <ele>335</ele>
        <time>2015-03-15T10:42:34.000Z</time>
      </trkpt>
      <trkpt lat="47.45456" lon="6.78679">
        <ele>335</ele>
        <time>2015-03-15T10:42:35.000Z</time>
      </trkpt>
      <trkpt lat="47.45453" lon="6.78675">
        <ele>335</ele>
        <time>2015-03-15T10:42:36.000Z</time>
      </trkpt>
      <trkpt lat="47.45451" lon="6.7867">
        <ele>335</ele>
        <time>2015-03-15T10:42:37.000Z</time>
      </trkpt>
      <trkpt lat="47.45448" lon="6.78666">
        <ele>337</ele>
        <time>2015-03-15T10:42:38.000Z</time>
      </trkpt>
      <trkpt lat="47.45444" lon="6.78661">
        <ele>337</ele>
        <time>2015-03-15T10:42:39.000Z</time>
      </trkpt>
      <trkpt lat="47.45441" lon="6.78656">
        <ele>337</ele>
        <time>2015-03-15T10:42:40.000Z</time>
      </trkpt>
      <trkpt lat="47.45439" lon="6.78651">
        <ele>337</ele>
        <time>2015-03-15T10:42:41.000Z</time>
      </trkpt>
      <trkpt lat="47.45436" lon="6.78646">
        <ele>337</ele>
        <time>2015-03-15T10:42:42.000Z</time>
      </trkpt>
      <trkpt lat="47.45433" lon="6.7864">
        <ele>338</ele>
        <time>2015-03-15T10:42:43.000Z</time>
      </trkpt>
      <trkpt lat="47.4543" lon="6.78635">
        <ele>338</ele>
        <time>2015-03-15T10:42:44.000Z</time>
      </trkpt>
      <trkpt lat="47.45427" lon="6.7863">
        <ele>338</ele>
        <time>2015-03-15T10:42:45.000Z</time>
      </trkpt>
      <trkpt lat="47.45425" lon="6.78625">
        <ele>338</ele>
        <time>2015-03-15T10:42:46.000Z</time>
      </trkpt>
      <trkpt lat="47.45422" lon="6.78621">
        <ele>338</ele>
        <time>2015-03-15T10:42:47.000Z</time>
      </trkpt>
      <trkpt lat="47.45419" lon="6.78614">
        <ele>338</ele>
        <time>2015-03-15T10:42:48.000Z</time>
      </trkpt>
      <trkpt lat="47.45418" lon="6.78609">
        <ele>338</ele>
        <time>2015-03-15T10:42:49.000Z</time>
      </trkpt>
      <trkpt lat="47.45415" lon="6.78604">
        <ele>337</ele>
        <time>2015-03-15T10:42:50.000Z</time>
      </trkpt>
      <trkpt lat="47.45413" lon="6.78599">
        <ele>337</ele>
        <time>2015-03-15T10:42:51.000Z</time>
      </trkpt>
      <trkpt lat="47.4541" lon="6.78595">
        <ele>337</ele>
        <time>2015-03-15T10:42:52.000Z</time>
      </trkpt>
      <trkpt lat="47.45408" lon="6.7859">
        <ele>338</ele>
        <time>2015-03-15T10:42:53.000Z</time>
      </trkpt>
      <trkpt lat="47.45405" lon="6.78585">
        <ele>338</ele>
        <time>2015-03-15T10:42:54.000Z</time>
      </trkpt>
      <trkpt lat="47.45403" lon="6.7858">
        <ele>339</ele>
        <time>2015-03-15T10:42:55.000Z</time>
      </trkpt>
      <trkpt lat="47.45401" lon="6.78576">
        <ele>339</ele>
        <time>2015-03-15T10:42:56.000Z</time>
      </trkpt>
      <trkpt lat="47.45399" lon="6.78571">
        <ele>339</ele>
        <time>2015-03-15T10:42:57.000Z</time>
      </trkpt>
      <trkpt lat="47.45396" lon="6.78566">
        <ele>339</ele>
        <time>2015-03-15T10:42:58.000Z</time>
      </trkpt>
      <trkpt lat="47.45393" lon="6.78561">
        <ele>339</ele>
        <time>2015-03-15T10:42:59.000Z</time>
      </trkpt>
      <trkpt lat="47.45391" lon="6.78557">
        <ele>339</ele>
        <time>2015-03-15T10:43:00.000Z</time>
      </trkpt>
      <trkpt lat="47.45388" lon="6.78553">
        <ele>339</ele>
        <time>2015-03-15T10:43:01.000Z</time>
      </trkpt>
      <trkpt lat="47.45386" lon="6.78548">
        <ele>339</ele>
        <time>2015-03-15T10:43:02.000Z</time>
      </trkpt>
      <trkpt lat="47.45384" lon="6.78544">
        <ele>339</ele>
        <time>2015-03-15T10:43:03.000Z</time>
      </trkpt>
      <trkpt lat="47.45382" lon="6.7854">
        <ele>339</ele>
        <time>2015-03-15T10:43:04.000Z</time>
      </trkpt>
      <trkpt lat="47.4538" lon="6.78535">
        <ele>339</ele>
        <time>2015-03-15T10:43:05.000Z</time>
      </trkpt>
      <trkpt lat="47.45379" lon="6.7853">
        <ele>339</ele>
        <time>2015-03-15T10:43:06.000Z</time>
      </trkpt>
      <trkpt lat="47.45378" lon="6.78525">
        <ele>339</ele>
        <time>2015-03-15T10:43:07.000Z</time>
      </trkpt>
      <trkpt lat="47.45377" lon="6.78521">
        <ele>339</ele>
        <time>2015-03-15T10:43:08.000Z</time>
      </trkpt>
      <trkpt lat="47.45377" lon="6.78517">
        <ele>339</ele>
        <time>2015-03-15T10:43:09.000Z</time>
      </trkpt>
      <trkpt lat="47.45377" lon="6.78513">
        <ele>339</ele>
        <time>2015-03-15T10:43:10.000Z</time>
      </trkpt>
      <trkpt lat="47.45376" lon="6.78507">
        <ele>339</ele>
        <time>2015-03-15T10:43:12.000Z</time>
      </trkpt>
      <trkpt lat="47.45376" lon="6.78504">
        <ele>339</ele>
        <time>2015-03-15T10:43:13.000Z</time>
      </trkpt>
      <trkpt lat="47.45376" lon="6.785">
        <ele>339</ele>
        <time>2015-03-15T10:43:14.000Z</time>
      </trkpt>
      <trkpt lat="47.45376" lon="6.78497">
        <ele>342</ele>
        <time>2015-03-15T10:43:15.000Z</time>
      </trkpt>
      <trkpt lat="47.45375" lon="6.78493">
        <ele>342</ele>
        <time>2015-03-15T10:43:16.000Z</time>
      </trkpt>
      <trkpt lat="47.45376" lon="6.78489">
        <ele>342</ele>
        <time>2015-03-15T10:43:17.000Z</time>
      </trkpt>
      <trkpt lat="47.45376" lon="6.78485">
        <ele>342</ele>
        <time>2015-03-15T10:43:18.000Z</time>
      </trkpt>
      <trkpt lat="47.45378" lon="6.78481">
        <ele>342</ele>
        <time>2015-03-15T10:43:19.000Z</time>
      </trkpt>
      <trkpt lat="47.4538" lon="6.78478">
        <ele>342</ele>
        <time>2015-03-15T10:43:20.000Z</time>
      </trkpt>
      <trkpt lat="47.45382" lon="6.78476">
        <ele>342</ele>
        <time>2015-03-15T10:43:21.000Z</time>
      </trkpt>
      <trkpt lat="47.45385" lon="6.78476">
        <ele>342</ele>
        <time>2015-03-15T10:43:22.000Z</time>
      </trkpt>
      <trkpt lat="47.45388" lon="6.78476">
        <ele>342</ele>
        <time>2015-03-15T10:43:23.000Z</time>
      </trkpt>
      <trkpt lat="47.4539" lon="6.78478">
        <ele>343</ele>
        <time>2015-03-15T10:43:24.000Z</time>
      </trkpt>
      <trkpt lat="47.45393" lon="6.7848">
        <ele>343</ele>
        <time>2015-03-15T10:43:25.000Z</time>
      </trkpt>
      <trkpt lat="47.45395" lon="6.78484">
        <ele>343</ele>
        <time>2015-03-15T10:43:26.000Z</time>
      </trkpt>
      <trkpt lat="47.45397" lon="6.78486">
        <ele>343</ele>
        <time>2015-03-15T10:43:27.000Z</time>
      </trkpt>
      <trkpt lat="47.45399" lon="6.78489">
        <ele>343</ele>
        <time>2015-03-15T10:43:28.000Z</time>
      </trkpt>
      <trkpt lat="47.454" lon="6.78492">
        <ele>343</ele>
        <time>2015-03-15T10:43:29.000Z</time>
      </trkpt>
      <trkpt lat="47.45402" lon="6.78495">
        <ele>343</ele>
        <time>2015-03-15T10:43:30.000Z</time>
      </trkpt>
      <trkpt lat="47.45403" lon="6.78498">
        <ele>343</ele>
        <time>2015-03-15T10:43:31.000Z</time>
      </trkpt>
      <trkpt lat="47.45405" lon="6.78501">
        <ele>342</ele>
        <time>2015-03-15T10:43:32.000Z</time>
      </trkpt>
      <trkpt lat="47.45406" lon="6.78504">
        <ele>342</ele>
        <time>2015-03-15T10:43:33.000Z</time>
      </trkpt>
      <trkpt lat="47.45409" lon="6.78505">
        <ele>342</ele>
        <time>2015-03-15T10:43:34.000Z</time>
      </trkpt>
      <trkpt lat="47.45412" lon="6.78506">
        <ele>343</ele>
        <time>2015-03-15T10:43:35.000Z</time>
      </trkpt>
      <trkpt lat="47.45415" lon="6.78507">
        <ele>343</ele>
        <time>2015-03-15T10:43:37.000Z</time>
      </trkpt>
      <trkpt lat="47.45418" lon="6.78508">
        <ele>344</ele>
        <time>2015-03-15T10:43:38.000Z</time>
      </trkpt>
      <trkpt lat="47.45421" lon="6.78509">
        <ele>344</ele>
        <time>2015-03-15T10:43:39.000Z</time>
      </trkpt>
      <trkpt lat="47.45424" lon="6.7851">
        <ele>344</ele>
        <time>2015-03-15T10:43:40.000Z</time>
      </trkpt>
      <trkpt lat="47.45428" lon="6.78511">
        <ele>344</ele>
        <time>2015-03-15T10:43:41.000Z</time>
      </trkpt>
      <trkpt lat="47.45432" lon="6.78511">
        <ele>344</ele>
        <time>2015-03-15T10:43:42.000Z</time>
      </trkpt>
      <trkpt lat="47.45435" lon="6.78512">
        <ele>344</ele>
        <time>2015-03-15T10:43:43.000Z</time>
      </trkpt>
      <trkpt lat="47.45437" lon="6.78511">
        <ele>344</ele>
        <time>2015-03-15T10:43:44.000Z</time>
      </trkpt>
      <trkpt lat="47.45441" lon="6.7851">
        <ele>344</ele>
        <time>2015-03-15T10:43:46.000Z</time>
      </trkpt>
      <trkpt lat="47.45443" lon="6.78508">
        <ele>344</ele>
        <time>2015-03-15T10:43:47.000Z</time>
      </trkpt>
      <trkpt lat="47.45446" lon="6.78507">
        <ele>344</ele>
        <time>2015-03-15T10:43:48.000Z</time>
      </trkpt>
      <trkpt lat="47.45448" lon="6.78505">
        <ele>344</ele>
        <time>2015-03-15T10:43:49.000Z</time>
      </trkpt>
      <trkpt lat="47.45451" lon="6.78505">
        <ele>344</ele>
        <time>2015-03-15T10:43:50.000Z</time>
      </trkpt>
      <trkpt lat="47.45453" lon="6.78504">
        <ele>344</ele>
        <time>2015-03-15T10:43:51.000Z</time>
      </trkpt>
      <trkpt lat="47.45456" lon="6.78503">
        <ele>344</ele>
        <time>2015-03-15T10:43:52.000Z</time>
      </trkpt>
      <trkpt lat="47.45458" lon="6.78502">
        <ele>344</ele>
        <time>2015-03-15T10:43:53.000Z</time>
      </trkpt>
      <trkpt lat="47.4546" lon="6.78501">
        <ele>345</ele>
        <time>2015-03-15T10:43:54.000Z</time>
      </trkpt>
      <trkpt lat="47.45462" lon="6.785">
        <ele>347</ele>
        <time>2015-03-15T10:43:55.000Z</time>
      </trkpt>
      <trkpt lat="47.45466" lon="6.78497">
        <ele>347</ele>
        <time>2015-03-15T10:43:57.000Z</time>
      </trkpt>
      <trkpt lat="47.45468" lon="6.78496">
        <ele>347</ele>
        <time>2015-03-15T10:43:58.000Z</time>
      </trkpt>
      <trkpt lat="47.4547" lon="6.78494">
        <ele>347</ele>
        <time>2015-03-15T10:43:59.000Z</time>
      </trkpt>
      <trkpt lat="47.45472" lon="6.78492">
        <ele>348</ele>
        <time>2015-03-15T10:44:00.000Z</time>
      </trkpt>
      <trkpt lat="47.45474" lon="6.7849">
        <ele>348</ele>
        <time>2015-03-15T10:44:01.000Z</time>
      </trkpt>
      <trkpt lat="47.45476" lon="6.78488">
        <ele>348</ele>
        <time>2015-03-15T10:44:02.000Z</time>
      </trkpt>
      <trkpt lat="47.45478" lon="6.78486">
        <ele>348</ele>
        <time>2015-03-15T10:44:03.000Z</time>
      </trkpt>
      <trkpt lat="47.4548" lon="6.78485">
        <ele>348</ele>
        <time>2015-03-15T10:44:04.000Z</time>
      </trkpt>
      <trkpt lat="47.45482" lon="6.78483">
        <ele>348</ele>
        <time>2015-03-15T10:44:05.000Z</time>
      </trkpt>
      <trkpt lat="47.45485" lon="6.78482">
        <ele>348</ele>
        <time>2015-03-15T10:44:06.000Z</time>
      </trkpt>
      <trkpt lat="47.45487" lon="6.78481">
        <ele>348</ele>
        <time>2015-03-15T10:44:07.000Z</time>
      </trkpt>
      <trkpt lat="47.4549" lon="6.7848">
        <ele>348</ele>
        <time>2015-03-15T10:44:08.000Z</time>
      </trkpt>
      <trkpt lat="47.45492" lon="6.78478">
        <ele>348</ele>
        <time>2015-03-15T10:44:09.000Z</time>
      </trkpt>
      <trkpt lat="47.45495" lon="6.78476">
        <ele>348</ele>
        <time>2015-03-15T10:44:10.000Z</time>
      </trkpt>
      <trkpt lat="47.45497" lon="6.78474">
        <ele>348</ele>
        <time>2015-03-15T10:44:11.000Z</time>
      </trkpt>
      <trkpt lat="47.455" lon="6.78472">
        <ele>348</ele>
        <time>2015-03-15T10:44:12.000Z</time>
      </trkpt>
      <trkpt lat="47.45502" lon="6.78471">
        <ele>350</ele>
        <time>2015-03-15T10:44:13.000Z</time>
      </trkpt>
      <trkpt lat="47.45505" lon="6.78469">
        <ele>350</ele>
        <time>2015-03-15T10:44:14.000Z</time>
      </trkpt>
      <trkpt lat="47.45508" lon="6.78468">
        <ele>350</ele>
        <time>2015-03-15T10:44:15.000Z</time>
      </trkpt>
      <trkpt lat="47.4551" lon="6.78466">
        <ele>350</ele>
        <time>2015-03-15T10:44:16.000Z</time>
      </trkpt>
      <trkpt lat="47.45513" lon="6.78465">
        <ele>350</ele>
        <time>2015-03-15T10:44:17.000Z</time>
      </trkpt>
      <trkpt lat="47.45515" lon="6.78463">
        <ele>351</ele>
        <time>2015-03-15T10:44:18.000Z</time>
      </trkpt>
      <trkpt lat="47.45518" lon="6.78462">
        <ele>351</ele>
        <time>2015-03-15T10:44:19.000Z</time>
      </trkpt>
      <trkpt lat="47.45521" lon="6.7846">
        <ele>351</ele>
        <time>2015-03-15T10:44:20.000Z</time>
      </trkpt>
      <trkpt lat="47.45524" lon="6.78458">
        <ele>351</ele>
        <time>2015-03-15T10:44:21.000Z</time>
      </trkpt>
      <trkpt lat="47.45527" lon="6.78457">
        <ele>351</ele>
        <time>2015-03-15T10:44:22.000Z</time>
      </trkpt>
      <trkpt lat="47.4553" lon="6.78455">
        <ele>351</ele>
        <time>2015-03-15T10:44:23.000Z</time>
      </trkpt>
      <trkpt lat="47.45533" lon="6.78454">
        <ele>351</ele>
        <time>2015-03-15T10:44:24.000Z</time>
      </trkpt>
      <trkpt lat="47.45536" lon="6.78452">
        <ele>351</ele>
        <time>2015-03-15T10:44:25.000Z</time>
      </trkpt>
      <trkpt lat="47.45538" lon="6.78449">
        <ele>351</ele>
        <time>2015-03-15T10:44:26.000Z</time>
      </trkpt>
      <trkpt lat="47.45541" lon="6.78447">
        <ele>351</ele>
        <time>2015-03-15T10:44:27.000Z</time>
      </trkpt>
      <trkpt lat="47.45543" lon="6.78444">
        <ele>351</ele>
        <time>2015-03-15T10:44:28.000Z</time>
      </trkpt>
      <trkpt lat="47.45545" lon="6.78443">
        <ele>351</ele>
        <time>2015-03-15T10:44:29.000Z</time>
      </trkpt>
      <trkpt lat="47.45547" lon="6.78441">
        <ele>351</ele>
        <time>2015-03-15T10:44:30.000Z</time>
      </trkpt>
      <trkpt lat="47.4555" lon="6.7844">
        <ele>352</ele>
        <time>2015-03-15T10:44:31.000Z</time>
      </trkpt>
      <trkpt lat="47.45552" lon="6.78439">
        <ele>352</ele>
        <time>2015-03-15T10:44:32.000Z</time>
      </trkpt>
      <trkpt lat="47.45555" lon="6.78437">
        <ele>352</ele>
        <time>2015-03-15T10:44:33.000Z</time>
      </trkpt>
      <trkpt lat="47.45557" lon="6.78435">
        <ele>352</ele>
        <time>2015-03-15T10:44:34.000Z</time>
      </trkpt>
      <trkpt lat="47.4556" lon="6.78434">
        <ele>352</ele>
        <time>2015-03-15T10:44:35.000Z</time>
      </trkpt>
      <trkpt lat="47.45562" lon="6.78432">
        <ele>352</ele>
        <time>2015-03-15T10:44:36.000Z</time>
      </trkpt>
      <trkpt lat="47.45565" lon="6.78431">
        <ele>352</ele>
        <time>2015-03-15T10:44:37.000Z</time>
      </trkpt>
      <trkpt lat="47.45568" lon="6.78429">
        <ele>352</ele>
        <time>2015-03-15T10:44:38.000Z</time>
      </trkpt>
      <trkpt lat="47.45571" lon="6.78427">
        <ele>353</ele>
        <time>2015-03-15T10:44:39.000Z</time>
      </trkpt>
      <trkpt lat="47.45573" lon="6.78426">
        <ele>353</ele>
        <time>2015-03-15T10:44:40.000Z</time>
      </trkpt>
      <trkpt lat="47.45576" lon="6.78425">
        <ele>353</ele>
        <time>2015-03-15T10:44:41.000Z</time>
      </trkpt>
      <trkpt lat="47.45579" lon="6.78423">
        <ele>353</ele>
        <time>2015-03-15T10:44:42.000Z</time>
      </trkpt>
      <trkpt lat="47.45581" lon="6.78421">
        <ele>353</ele>
        <time>2015-03-15T10:44:43.000Z</time>
      </trkpt>
      <trkpt lat="47.45584" lon="6.78419">
        <ele>354</ele>
        <time>2015-03-15T10:44:44.000Z</time>
      </trkpt>
      <trkpt lat="47.45587" lon="6.78418">
        <ele>354</ele>
        <time>2015-03-15T10:44:45.000Z</time>
      </trkpt>
      <trkpt lat="47.45589" lon="6.78416">
        <ele>354</ele>
        <time>2015-03-15T10:44:46.000Z</time>
      </trkpt>
      <trkpt lat="47.45592" lon="6.78414">
        <ele>354</ele>
        <time>2015-03-15T10:44:47.000Z</time>
      </trkpt>
      <trkpt lat="47.45595" lon="6.78412">
        <ele>354</ele>
        <time>2015-03-15T10:44:48.000Z</time>
      </trkpt>
      <trkpt lat="47.45598" lon="6.7841">
        <ele>355</ele>
        <time>2015-03-15T10:44:49.000Z</time>
      </trkpt>
      <trkpt lat="47.45601" lon="6.78408">
        <ele>355</ele>
        <time>2015-03-15T10:44:50.000Z</time>
      </trkpt>
      <trkpt lat="47.45603" lon="6.78407">
        <ele>355</ele>
        <time>2015-03-15T10:44:51.000Z</time>
      </trkpt>
      <trkpt lat="47.45606" lon="6.78405">
        <ele>355</ele>
        <time>2015-03-15T10:44:52.000Z</time>
      </trkpt>
      <trkpt lat="47.45609" lon="6.78403">
        <ele>355</ele>
        <time>2015-03-15T10:44:53.000Z</time>
      </trkpt>
      <trkpt lat="47.45611" lon="6.78401">
        <ele>355</ele>
        <time>2015-03-15T10:44:54.000Z</time>
      </trkpt>
      <trkpt lat="47.45614" lon="6.784">
        <ele>355</ele>
        <time>2015-03-15T10:44:55.000Z</time>
      </trkpt>
      <trkpt lat="47.45617" lon="6.78399">
        <ele>355</ele>
        <time>2015-03-15T10:44:56.000Z</time>
      </trkpt>
      <trkpt lat="47.4562" lon="6.78398">
        <ele>355</ele>
        <time>2015-03-15T10:44:57.000Z</time>
      </trkpt>
      <trkpt lat="47.45623" lon="6.78396">
        <ele>355</ele>
        <time>2015-03-15T10:44:58.000Z</time>
      </trkpt>
      <trkpt lat="47.45626" lon="6.78394">
        <ele>355</ele>
        <time>2015-03-15T10:44:59.000Z</time>
      </trkpt>
      <trkpt lat="47.45628" lon="6.78392">
        <ele>355</ele>
        <time>2015-03-15T10:45:00.000Z</time>
      </trkpt>
      <trkpt lat="47.45631" lon="6.7839">
        <ele>355</ele>
        <time>2015-03-15T10:45:01.000Z</time>
      </trkpt>
      <trkpt lat="47.45634" lon="6.78389">
        <ele>355</ele>
        <time>2015-03-15T10:45:02.000Z</time>
      </trkpt>
      <trkpt lat="47.45637" lon="6.78388">
        <ele>355</ele>
        <time>2015-03-15T10:45:03.000Z</time>
      </trkpt>
      <trkpt lat="47.4564" lon="6.78387">
        <ele>355</ele>
        <time>2015-03-15T10:45:04.000Z</time>
      </trkpt>
      <trkpt lat="47.45643" lon="6.78386">
        <ele>355</ele>
        <time>2015-03-15T10:45:05.000Z</time>
      </trkpt>
      <trkpt lat="47.45647" lon="6.78385">
        <ele>356</ele>
        <time>2015-03-15T10:45:06.000Z</time>
      </trkpt>
      <trkpt lat="47.4565" lon="6.78384">
        <ele>356</ele>
        <time>2015-03-15T10:45:07.000Z</time>
      </trkpt>
      <trkpt lat="47.45653" lon="6.78384">
        <ele>356</ele>
        <time>2015-03-15T10:45:08.000Z</time>
      </trkpt>
      <trkpt lat="47.45656" lon="6.78384">
        <ele>356</ele>
        <time>2015-03-15T10:45:09.000Z</time>
      </trkpt>
      <trkpt lat="47.45659" lon="6.78383">
        <ele>356</ele>
        <time>2015-03-15T10:45:10.000Z</time>
      </trkpt>
      <trkpt lat="47.45663" lon="6.78382">
        <ele>356</ele>
        <time>2015-03-15T10:45:11.000Z</time>
      </trkpt>
      <trkpt lat="47.45666" lon="6.78381">
        <ele>356</ele>
        <time>2015-03-15T10:45:12.000Z</time>
      </trkpt>
      <trkpt lat="47.45669" lon="6.78381">
        <ele>358</ele>
        <time>2015-03-15T10:45:13.000Z</time>
      </trkpt>
      <trkpt lat="47.45672" lon="6.7838">
        <ele>358</ele>
        <time>2015-03-15T10:45:14.000Z</time>
      </trkpt>
      <trkpt lat="47.45675" lon="6.78379">
        <ele>358</ele>
        <time>2015-03-15T10:45:15.000Z</time>
      </trkpt>
      <trkpt lat="47.45678" lon="6.78379">
        <ele>358</ele>
        <time>2015-03-15T10:45:16.000Z</time>
      </trkpt>
      <trkpt lat="47.45681" lon="6.78378">
        <ele>358</ele>
        <time>2015-03-15T10:45:17.000Z</time>
      </trkpt>
      <trkpt lat="47.45684" lon="6.78377">
        <ele>358</ele>
        <time>2015-03-15T10:45:18.000Z</time>
      </trkpt>
      <trkpt lat="47.45687" lon="6.78377">
        <ele>358</ele>
        <time>2015-03-15T10:45:19.000Z</time>
      </trkpt>
      <trkpt lat="47.4569" lon="6.78377">
        <ele>358</ele>
        <time>2015-03-15T10:45:20.000Z</time>
      </trkpt>
      <trkpt lat="47.45693" lon="6.78377">
        <ele>359</ele>
        <time>2015-03-15T10:45:21.000Z</time>
      </trkpt>
      <trkpt lat="47.45696" lon="6.78376">
        <ele>359</ele>
        <time>2015-03-15T10:45:22.000Z</time>
      </trkpt>
      <trkpt lat="47.45699" lon="6.78376">
        <ele>359</ele>
        <time>2015-03-15T10:45:23.000Z</time>
      </trkpt>
      <trkpt lat="47.45702" lon="6.78376">
        <ele>359</ele>
        <time>2015-03-15T10:45:24.000Z</time>
      </trkpt>
      <trkpt lat="47.45705" lon="6.78375">
        <ele>359</ele>
        <time>2015-03-15T10:45:25.000Z</time>
      </trkpt>
      <trkpt lat="47.45708" lon="6.78375">
        <ele>359</ele>
        <time>2015-03-15T10:45:26.000Z</time>
      </trkpt>
      <trkpt lat="47.45711" lon="6.78376">
        <ele>359</ele>
        <time>2015-03-15T10:45:27.000Z</time>
      </trkpt>
      <trkpt lat="47.45714" lon="6.78377">
        <ele>359</ele>
        <time>2015-03-15T10:45:28.000Z</time>
      </trkpt>
      <trkpt lat="47.45716" lon="6.78379">
        <ele>359</ele>
        <time>2015-03-15T10:45:29.000Z</time>
      </trkpt>
      <trkpt lat="47.45719" lon="6.7838">
        <ele>359</ele>
        <time>2015-03-15T10:45:30.000Z</time>
      </trkpt>
      <trkpt lat="47.45721" lon="6.7838">
        <ele>359</ele>
        <time>2015-03-15T10:45:31.000Z</time>
      </trkpt>
      <trkpt lat="47.45724" lon="6.78381">
        <ele>359</ele>
        <time>2015-03-15T10:45:32.000Z</time>
      </trkpt>
      <trkpt lat="47.45727" lon="6.78381">
        <ele>359</ele>
        <time>2015-03-15T10:45:33.000Z</time>
      </trkpt>
      <trkpt lat="47.45728" lon="6.78384">
        <ele>359</ele>
        <time>2015-03-15T10:45:34.000Z</time>
      </trkpt>
      <trkpt lat="47.4573" lon="6.78386">
        <ele>359</ele>
        <time>2015-03-15T10:45:35.000Z</time>
      </trkpt>
      <trkpt lat="47.45732" lon="6.78388">
        <ele>359</ele>
        <time>2015-03-15T10:45:36.000Z</time>
      </trkpt>
      <trkpt lat="47.45734" lon="6.7839">
        <ele>359</ele>
        <time>2015-03-15T10:45:37.000Z</time>
      </trkpt>
      <trkpt lat="47.45737" lon="6.7839">
        <ele>360</ele>
        <time>2015-03-15T10:45:38.000Z</time>
      </trkpt>
      <trkpt lat="47.45739" lon="6.7839">
        <ele>360</ele>
        <time>2015-03-15T10:45:39.000Z</time>
      </trkpt>
      <trkpt lat="47.45742" lon="6.78391">
        <ele>360</ele>
        <time>2015-03-15T10:45:40.000Z</time>
      </trkpt>
      <trkpt lat="47.45744" lon="6.78391">
        <ele>360</ele>
        <time>2015-03-15T10:45:41.000Z</time>
      </trkpt>
      <trkpt lat="47.45747" lon="6.78392">
        <ele>360</ele>
        <time>2015-03-15T10:45:42.000Z</time>
      </trkpt>
      <trkpt lat="47.45751" lon="6.78392">
        <ele>364</ele>
        <time>2015-03-15T10:45:44.000Z</time>
      </trkpt>
      <trkpt lat="47.45753" lon="6.78393">
        <ele>364</ele>
        <time>2015-03-15T10:45:45.000Z</time>
      </trkpt>
      <trkpt lat="47.45756" lon="6.78393">
        <ele>364</ele>
        <time>2015-03-15T10:45:46.000Z</time>
      </trkpt>
      <trkpt lat="47.45758" lon="6.78394">
        <ele>364</ele>
        <time>2015-03-15T10:45:47.000Z</time>
      </trkpt>
      <trkpt lat="47.4576" lon="6.78395">
        <ele>364</ele>
        <time>2015-03-15T10:45:48.000Z</time>
      </trkpt>
      <trkpt lat="47.45762" lon="6.78396">
        <ele>364</ele>
        <time>2015-03-15T10:45:49.000Z</time>
      </trkpt>
      <trkpt lat="47.45766" lon="6.78397">
        <ele>365</ele>
        <time>2015-03-15T10:45:51.000Z</time>
      </trkpt>
      <trkpt lat="47.45769" lon="6.78398">
        <ele>365</ele>
        <time>2015-03-15T10:45:52.000Z</time>
      </trkpt>
      <trkpt lat="47.45773" lon="6.78399">
        <ele>365</ele>
        <time>2015-03-15T10:45:54.000Z</time>
      </trkpt>
      <trkpt lat="47.45775" lon="6.78401">
        <ele>365</ele>
        <time>2015-03-15T10:45:55.000Z</time>
      </trkpt>
      <trkpt lat="47.45776" lon="6.78403">
        <ele>365</ele>
        <time>2015-03-15T10:45:56.000Z</time>
      </trkpt>
      <trkpt lat="47.45778" lon="6.78406">
        <ele>365</ele>
        <time>2015-03-15T10:45:57.000Z</time>
      </trkpt>
      <trkpt lat="47.4578" lon="6.78408">
        <ele>366</ele>
        <time>2015-03-15T10:45:58.000Z</time>
      </trkpt>
      <trkpt lat="47.45782" lon="6.7841">
        <ele>366</ele>
        <time>2015-03-15T10:45:59.000Z</time>
      </trkpt>
      <trkpt lat="47.45784" lon="6.78412">
        <ele>366</ele>
        <time>2015-03-15T10:46:00.000Z</time>
      </trkpt>
      <trkpt lat="47.45786" lon="6.78415">
        <ele>366</ele>
        <time>2015-03-15T10:46:01.000Z</time>
      </trkpt>
      <trkpt lat="47.45788" lon="6.78418">
        <ele>364</ele>
        <time>2015-03-15T10:46:02.000Z</time>
      </trkpt>
      <trkpt lat="47.4579" lon="6.7842">
        <ele>365</ele>
        <time>2015-03-15T10:46:03.000Z</time>
      </trkpt>
      <trkpt lat="47.45792" lon="6.78422">
        <ele>365</ele>
        <time>2015-03-15T10:46:04.000Z</time>
      </trkpt>
      <trkpt lat="47.45795" lon="6.78425">
        <ele>365</ele>
        <time>2015-03-15T10:46:05.000Z</time>
      </trkpt>
      <trkpt lat="47.45798" lon="6.78427">
        <ele>365</ele>
        <time>2015-03-15T10:46:06.000Z</time>
      </trkpt>
      <trkpt lat="47.458" lon="6.78429">
        <ele>365</ele>
        <time>2015-03-15T10:46:07.000Z</time>
      </trkpt>
      <trkpt lat="47.45802" lon="6.78431">
        <ele>366</ele>
        <time>2015-03-15T10:46:08.000Z</time>
      </trkpt>
      <trkpt lat="47.45804" lon="6.78433">
        <ele>366</ele>
        <time>2015-03-15T10:46:09.000Z</time>
      </trkpt>
      <trkpt lat="47.45806" lon="6.78435">
        <ele>366</ele>
        <time>2015-03-15T10:46:10.000Z</time>
      </trkpt>
      <trkpt lat="47.45808" lon="6.78437">
        <ele>366</ele>
        <time>2015-03-15T10:46:11.000Z</time>
      </trkpt>
      <trkpt lat="47.45811" lon="6.7844">
        <ele>366</ele>
        <time>2015-03-15T10:46:13.000Z</time>
      </trkpt>
      <trkpt lat="47.45813" lon="6.78441">
        <ele>366</ele>
        <time>2015-03-15T10:46:14.000Z</time>
      </trkpt>
      <trkpt lat="47.45816" lon="6.78444">
        <ele>366</ele>
        <time>2015-03-15T10:46:16.000Z</time>
      </trkpt>
      <trkpt lat="47.45818" lon="6.78445">
        <ele>366</ele>
        <time>2015-03-15T10:46:17.000Z</time>
      </trkpt>
      <trkpt lat="47.45821" lon="6.78447">
        <ele>366</ele>
        <time>2015-03-15T10:46:19.000Z</time>
      </trkpt>
      <trkpt lat="47.45823" lon="6.78448">
        <ele>366</ele>
        <time>2015-03-15T10:46:20.000Z</time>
      </trkpt>
      <trkpt lat="47.45826" lon="6.78451">
        <ele>366</ele>
        <time>2015-03-15T10:46:22.000Z</time>
      </trkpt>
      <trkpt lat="47.45827" lon="6.78452">
        <ele>366</ele>
        <time>2015-03-15T10:46:23.000Z</time>
      </trkpt>
      <trkpt lat="47.4583" lon="6.78453">
        <ele>366</ele>
        <time>2015-03-15T10:46:25.000Z</time>
      </trkpt>
      <trkpt lat="47.45832" lon="6.78455">
        <ele>366</ele>
        <time>2015-03-15T10:46:26.000Z</time>
      </trkpt>
      <trkpt lat="47.45835" lon="6.78458">
        <ele>374</ele>
        <time>2015-03-15T10:46:29.000Z</time>
      </trkpt>
      <trkpt lat="47.45836" lon="6.78459">
        <ele>374</ele>
        <time>2015-03-15T10:46:30.000Z</time>
      </trkpt>
      <trkpt lat="47.45839" lon="6.78463">
        <ele>374</ele>
        <time>2015-03-15T10:46:32.000Z</time>
      </trkpt>
      <trkpt lat="47.45841" lon="6.78465">
        <ele>374</ele>
        <time>2015-03-15T10:46:33.000Z</time>
      </trkpt>
      <trkpt lat="47.45843" lon="6.78466">
        <ele>374</ele>
        <time>2015-03-15T10:46:34.000Z</time>
      </trkpt>
      <trkpt lat="47.45845" lon="6.78467">
        <ele>374</ele>
        <time>2015-03-15T10:46:35.000Z</time>
      </trkpt>
      <trkpt lat="47.45849" lon="6.7847">
        <ele>374</ele>
        <time>2015-03-15T10:46:38.000Z</time>
      </trkpt>
      <trkpt lat="47.45849" lon="6.78471">
        <ele>374</ele>
        <time>2015-03-15T10:46:39.000Z</time>
      </trkpt>
      <trkpt lat="47.45853" lon="6.78473">
        <ele>375</ele>
        <time>2015-03-15T10:46:42.000Z</time>
      </trkpt>
      <trkpt lat="47.45855" lon="6.78474">
        <ele>375</ele>
        <time>2015-03-15T10:46:43.000Z</time>
      </trkpt>
      <trkpt lat="47.45857" lon="6.78476">
        <ele>375</ele>
        <time>2015-03-15T10:46:45.000Z</time>
      </trkpt>
      <trkpt lat="47.45859" lon="6.78478">
        <ele>375</ele>
        <time>2015-03-15T10:46:46.000Z</time>
      </trkpt>
      <trkpt lat="47.45861" lon="6.78482">
        <ele>375</ele>
        <time>2015-03-15T10:46:48.000Z</time>
      </trkpt>
      <trkpt lat="47.45862" lon="6.78484">
        <ele>375</ele>
        <time>2015-03-15T10:46:49.000Z</time>
      </trkpt>
      <trkpt lat="47.45865" lon="6.78489">
        <ele>375</ele>
        <time>2015-03-15T10:46:51.000Z</time>
      </trkpt>
      <trkpt lat="47.45866" lon="6.78491">
        <ele>375</ele>
        <time>2015-03-15T10:46:52.000Z</time>
      </trkpt>
      <trkpt lat="47.45869" lon="6.78494">
        <ele>376</ele>
        <time>2015-03-15T10:46:54.000Z</time>
      </trkpt>
      <trkpt lat="47.45871" lon="6.78496">
        <ele>376</ele>
        <time>2015-03-15T10:46:55.000Z</time>
      </trkpt>
      <trkpt lat="47.45873" lon="6.78501">
        <ele>374</ele>
        <time>2015-03-15T10:46:57.999Z</time>
      </trkpt>
      <trkpt lat="47.45874" lon="6.78503">
        <ele>374</ele>
        <time>2015-03-15T10:46:59.000Z</time>
      </trkpt>
      <trkpt lat="47.45876" lon="6.78506">
        <ele>375</ele>
        <time>2015-03-15T10:47:01.000Z</time>
      </trkpt>
      <trkpt lat="47.45878" lon="6.78508">
        <ele>375</ele>
        <time>2015-03-15T10:47:02.000Z</time>
      </trkpt>
      <trkpt lat="47.45881" lon="6.78511">
        <ele>375</ele>
        <time>2015-03-15T10:47:04.000Z</time>
      </trkpt>
      <trkpt lat="47.45881" lon="6.78512">
        <ele>375</ele>
        <time>2015-03-15T10:47:05.000Z</time>
      </trkpt>
      <trkpt lat="47.45884" lon="6.78518">
        <ele>375</ele>
        <time>2015-03-15T10:47:08.000Z</time>
      </trkpt>
      <trkpt lat="47.45885" lon="6.78519">
        <ele>375</ele>
        <time>2015-03-15T10:47:09.000Z</time>
      </trkpt>
      <trkpt lat="47.45886" lon="6.78521">
        <ele>376</ele>
        <time>2015-03-15T10:47:10.000Z</time>
      </trkpt>
      <trkpt lat="47.45889" lon="6.78523">
        <ele>376</ele>
        <time>2015-03-15T10:47:11.000Z</time>
      </trkpt>
      <trkpt lat="47.45891" lon="6.78524">
        <ele>376</ele>
        <time>2015-03-15T10:47:12.000Z</time>
      </trkpt>
      <trkpt lat="47.45894" lon="6.78526">
        <ele>376</ele>
        <time>2015-03-15T10:47:13.000Z</time>
      </trkpt>
      <trkpt lat="47.45896" lon="6.78528">
        <ele>376</ele>
        <time>2015-03-15T10:47:14.000Z</time>
      </trkpt>
      <trkpt lat="47.45898" lon="6.78531">
        <ele>376</ele>
        <time>2015-03-15T10:47:15.000Z</time>
      </trkpt>
      <trkpt lat="47.45899" lon="6.78536">
        <ele>376</ele>
        <time>2015-03-15T10:47:16.000Z</time>
      </trkpt>
      <trkpt lat="47.45901" lon="6.7854">
        <ele>376</ele>
        <time>2015-03-15T10:47:17.000Z</time>
      </trkpt>
      <trkpt lat="47.45902" lon="6.78543">
        <ele>376</ele>
        <time>2015-03-15T10:47:18.000Z</time>
      </trkpt>
      <trkpt lat="47.45905" lon="6.78545">
        <ele>376</ele>
        <time>2015-03-15T10:47:19.000Z</time>
      </trkpt>
      <trkpt lat="47.45907" lon="6.78547">
        <ele>376</ele>
        <time>2015-03-15T10:47:20.000Z</time>
      </trkpt>
      <trkpt lat="47.4591" lon="6.78547">
        <ele>376</ele>
        <time>2015-03-15T10:47:21.000Z</time>
      </trkpt>
      <trkpt lat="47.45914" lon="6.78546">
        <ele>376</ele>
        <time>2015-03-15T10:47:23.000Z</time>
      </trkpt>
      <trkpt lat="47.45917" lon="6.78544">
        <ele>386</ele>
        <time>2015-03-15T10:47:24.000Z</time>
      </trkpt>
      <trkpt lat="47.45921" lon="6.78543">
        <ele>386</ele>
        <time>2015-03-15T10:47:25.000Z</time>
      </trkpt>
      <trkpt lat="47.45924" lon="6.78542">
        <ele>386</ele>
        <time>2015-03-15T10:47:26.000Z</time>
      </trkpt>
      <trkpt lat="47.45927" lon="6.78542">
        <ele>386</ele>
        <time>2015-03-15T10:47:27.000Z</time>
      </trkpt>
      <trkpt lat="47.4593" lon="6.78542">
        <ele>387</ele>
        <time>2015-03-15T10:47:28.000Z</time>
      </trkpt>
      <trkpt lat="47.45932" lon="6.7854">
        <ele>387</ele>
        <time>2015-03-15T10:47:29.000Z</time>
      </trkpt>
      <trkpt lat="47.45934" lon="6.78538">
        <ele>387</ele>
        <time>2015-03-15T10:47:30.000Z</time>
      </trkpt>
      <trkpt lat="47.45936" lon="6.78532">
        <ele>387</ele>
        <time>2015-03-15T10:47:32.000Z</time>
      </trkpt>
      <trkpt lat="47.45936" lon="6.78529">
        <ele>387</ele>
        <time>2015-03-15T10:47:33.000Z</time>
      </trkpt>
      <trkpt lat="47.45936" lon="6.78524">
        <ele>387</ele>
        <time>2015-03-15T10:47:35.001Z</time>
      </trkpt>
      <trkpt lat="47.45935" lon="6.78521">
        <ele>387</ele>
        <time>2015-03-15T10:47:36.000Z</time>
      </trkpt>
      <trkpt lat="47.45934" lon="6.78519">
        <ele>387</ele>
        <time>2015-03-15T10:47:37.000Z</time>
      </trkpt>
      <trkpt lat="47.45933" lon="6.78508">
        <ele>386</ele>
        <time>2015-03-15T10:47:38.000Z</time>
      </trkpt>
      <trkpt lat="47.45933" lon="6.78501">
        <ele>386</ele>
        <time>2015-03-15T10:47:40.000Z</time>
      </trkpt>
      <trkpt lat="47.45933" lon="6.78497">
        <ele>387</ele>
        <time>2015-03-15T10:47:41.000Z</time>
      </trkpt>
      <trkpt lat="47.45933" lon="6.78494">
        <ele>387</ele>
        <time>2015-03-15T10:47:42.000Z</time>
      </trkpt>
      <trkpt lat="47.45933" lon="6.78491">
        <ele>388</ele>
        <time>2015-03-15T10:47:43.000Z</time>
      </trkpt>
      <trkpt lat="47.45934" lon="6.78487">
        <ele>388</ele>
        <time>2015-03-15T10:47:44.000Z</time>
      </trkpt>
      <trkpt lat="47.45935" lon="6.78482">
        <ele>389</ele>
        <time>2015-03-15T10:47:46.000Z</time>
      </trkpt>
      <trkpt lat="47.45935" lon="6.78478">
        <ele>389</ele>
        <time>2015-03-15T10:47:47.000Z</time>
      </trkpt>
      <trkpt lat="47.45935" lon="6.78472">
        <ele>390</ele>
        <time>2015-03-15T10:47:49.000Z</time>
      </trkpt>
      <trkpt lat="47.45936" lon="6.78469">
        <ele>390</ele>
        <time>2015-03-15T10:47:50.000Z</time>
      </trkpt>
      <trkpt lat="47.45939" lon="6.78464">
        <ele>391</ele>
        <time>2015-03-15T10:47:52.000Z</time>
      </trkpt>
      <trkpt lat="47.4594" lon="6.78462">
        <ele>391</ele>
        <time>2015-03-15T10:47:53.000Z</time>
      </trkpt>
      <trkpt lat="47.45941" lon="6.78459">
        <ele>391</ele>
        <time>2015-03-15T10:47:54.000Z</time>
      </trkpt>
      <trkpt lat="47.45943" lon="6.78456">
        <ele>391</ele>
        <time>2015-03-15T10:47:55.000Z</time>
      </trkpt>
      <trkpt lat="47.45945" lon="6.78452">
        <ele>392</ele>
        <time>2015-03-15T10:47:57.000Z</time>
      </trkpt>
      <trkpt lat="47.45946" lon="6.78451">
        <ele>392</ele>
        <time>2015-03-15T10:47:58.000Z</time>
      </trkpt>
      <trkpt lat="47.4595" lon="6.78448">
        <ele>392</ele>
        <time>2015-03-15T10:48:02.000Z</time>
      </trkpt>
      <trkpt lat="47.45952" lon="6.78448">
        <ele>392</ele>
        <time>2015-03-15T10:48:03.000Z</time>
      </trkpt>
      <trkpt lat="47.45955" lon="6.78447">
        <ele>393</ele>
        <time>2015-03-15T10:48:05.000Z</time>
      </trkpt>
      <trkpt lat="47.45956" lon="6.78447">
        <ele>393</ele>
        <time>2015-03-15T10:48:06.000Z</time>
      </trkpt>
      <trkpt lat="47.45961" lon="6.78446">
        <ele>393</ele>
        <time>2015-03-15T10:48:08.000Z</time>
      </trkpt>
      <trkpt lat="47.45963" lon="6.78445">
        <ele>394</ele>
        <time>2015-03-15T10:48:09.000Z</time>
      </trkpt>
      <trkpt lat="47.45966" lon="6.78442">
        <ele>394</ele>
        <time>2015-03-15T10:48:11.000Z</time>
      </trkpt>
      <trkpt lat="47.45968" lon="6.78441">
        <ele>394</ele>
        <time>2015-03-15T10:48:12.000Z</time>
      </trkpt>
      <trkpt lat="47.45971" lon="6.78438">
        <ele>395</ele>
        <time>2015-03-15T10:48:14.000Z</time>
      </trkpt>
      <trkpt lat="47.45973" lon="6.78437">
        <ele>395</ele>
        <time>2015-03-15T10:48:15.000Z</time>
      </trkpt>
      <trkpt lat="47.45977" lon="6.78435">
        <ele>395</ele>
        <time>2015-03-15T10:48:17.000Z</time>
      </trkpt>
      <trkpt lat="47.45979" lon="6.78434">
        <ele>396</ele>
        <time>2015-03-15T10:48:18.000Z</time>
      </trkpt>
      <trkpt lat="47.45983" lon="6.78432">
        <ele>397</ele>
        <time>2015-03-15T10:48:20.000Z</time>
      </trkpt>
      <trkpt lat="47.45985" lon="6.78431">
        <ele>397</ele>
        <time>2015-03-15T10:48:21.000Z</time>
      </trkpt>
      <trkpt lat="47.45987" lon="6.7843">
        <ele>397</ele>
        <time>2015-03-15T10:48:23.000Z</time>
      </trkpt>
      <trkpt lat="47.45989" lon="6.7843">
        <ele>398</ele>
        <time>2015-03-15T10:48:24.000Z</time>
      </trkpt>
      <trkpt lat="47.45993" lon="6.78428">
        <ele>398</ele>
        <time>2015-03-15T10:48:26.000Z</time>
      </trkpt>
      <trkpt lat="47.45995" lon="6.78426">
        <ele>399</ele>
        <time>2015-03-15T10:48:27.000Z</time>
      </trkpt>
      <trkpt lat="47.45999" lon="6.78424">
        <ele>400</ele>
        <time>2015-03-15T10:48:29.000Z</time>
      </trkpt>
      <trkpt lat="47.46001" lon="6.78423">
        <ele>403</ele>
        <time>2015-03-15T10:48:30.000Z</time>
      </trkpt>
      <trkpt lat="47.46004" lon="6.78421">
        <ele>403</ele>
        <time>2015-03-15T10:48:32.000Z</time>
      </trkpt>
      <trkpt lat="47.46006" lon="6.7842">
        <ele>403</ele>
        <time>2015-03-15T10:48:33.000Z</time>
      </trkpt>
      <trkpt lat="47.46009" lon="6.78416">
        <ele>403</ele>
        <time>2015-03-15T10:48:36.000Z</time>
      </trkpt>
      <trkpt lat="47.4601" lon="6.78416">
        <ele>403</ele>
        <time>2015-03-15T10:48:37.000Z</time>
      </trkpt>
      <trkpt lat="47.46013" lon="6.78413">
        <ele>404</ele>
        <time>2015-03-15T10:48:39.000Z</time>
      </trkpt>
      <trkpt lat="47.46015" lon="6.78412">
        <ele>404</ele>
        <time>2015-03-15T10:48:40.000Z</time>
      </trkpt>
      <trkpt lat="47.46018" lon="6.7841">
        <ele>404</ele>
        <time>2015-03-15T10:48:41.000Z</time>
      </trkpt>
      <trkpt lat="47.46021" lon="6.78409">
        <ele>404</ele>
        <time>2015-03-15T10:48:42.000Z</time>
      </trkpt>
      <trkpt lat="47.46024" lon="6.78407">
        <ele>405</ele>
        <time>2015-03-15T10:48:43.000Z</time>
      </trkpt>
      <trkpt lat="47.46027" lon="6.78404">
        <ele>405</ele>
        <time>2015-03-15T10:48:44.000Z</time>
      </trkpt>
      <trkpt lat="47.4603" lon="6.78402">
        <ele>405</ele>
        <time>2015-03-15T10:48:45.000Z</time>
      </trkpt>
      <trkpt lat="47.46033" lon="6.784">
        <ele>405</ele>
        <time>2015-03-15T10:48:46.000Z</time>
      </trkpt>
      <trkpt lat="47.46035" lon="6.78399">
        <ele>405</ele>
        <time>2015-03-15T10:48:47.000Z</time>
      </trkpt>
      <trkpt lat="47.46038" lon="6.78398">
        <ele>405</ele>
        <time>2015-03-15T10:48:48.000Z</time>
      </trkpt>
      <trkpt lat="47.46041" lon="6.78396">
        <ele>406</ele>
        <time>2015-03-15T10:48:50.000Z</time>
      </trkpt>
      <trkpt lat="47.46042" lon="6.78396">
        <ele>406</ele>
        <time>2015-03-15T10:48:51.000Z</time>
      </trkpt>
      <trkpt lat="47.46046" lon="6.78394">
        <ele>406</ele>
        <time>2015-03-15T10:48:53.000Z</time>
      </trkpt>
      <trkpt lat="47.46048" lon="6.78393">
        <ele>406</ele>
        <time>2015-03-15T10:48:54.000Z</time>
      </trkpt>
      <trkpt lat="47.4605" lon="6.78392">
        <ele>406</ele>
        <time>2015-03-15T10:48:55.000Z</time>
      </trkpt>
      <trkpt lat="47.46053" lon="6.7839">
        <ele>406</ele>
        <time>2015-03-15T10:48:56.000Z</time>
      </trkpt>
      <trkpt lat="47.46055" lon="6.78388">
        <ele>406</ele>
        <time>2015-03-15T10:48:57.000Z</time>
      </trkpt>
      <trkpt lat="47.46058" lon="6.78387">
        <ele>407</ele>
        <time>2015-03-15T10:48:58.000Z</time>
      </trkpt>
      <trkpt lat="47.4606" lon="6.78385">
        <ele>407</ele>
        <time>2015-03-15T10:48:59.000Z</time>
      </trkpt>
      <trkpt lat="47.46063" lon="6.78383">
        <ele>407</ele>
        <time>2015-03-15T10:49:00.000Z</time>
      </trkpt>
      <trkpt lat="47.46065" lon="6.78382">
        <ele>407</ele>
        <time>2015-03-15T10:49:01.000Z</time>
      </trkpt>
      <trkpt lat="47.46067" lon="6.7838">
        <ele>407</ele>
        <time>2015-03-15T10:49:02.000Z</time>
      </trkpt>
      <trkpt lat="47.4607" lon="6.78378">
        <ele>407</ele>
        <time>2015-03-15T10:49:04.000Z</time>
      </trkpt>
      <trkpt lat="47.46073" lon="6.78377">
        <ele>407</ele>
        <time>2015-03-15T10:49:05.000Z</time>
      </trkpt>
      <trkpt lat="47.46075" lon="6.78377">
        <ele>407</ele>
        <time>2015-03-15T10:49:06.000Z</time>
      </trkpt>
      <trkpt lat="47.46077" lon="6.78377">
        <ele>407</ele>
        <time>2015-03-15T10:49:07.000Z</time>
      </trkpt>
      <trkpt lat="47.46081" lon="6.78376">
        <ele>407</ele>
        <time>2015-03-15T10:49:08.000Z</time>
      </trkpt>
      <trkpt lat="47.46084" lon="6.78374">
        <ele>410</ele>
        <time>2015-03-15T10:49:09.000Z</time>
      </trkpt>
      <trkpt lat="47.46087" lon="6.78372">
        <ele>410</ele>
        <time>2015-03-15T10:49:10.000Z</time>
      </trkpt>
      <trkpt lat="47.46089" lon="6.78371">
        <ele>410</ele>
        <time>2015-03-15T10:49:11.000Z</time>
      </trkpt>
      <trkpt lat="47.46092" lon="6.7837">
        <ele>410</ele>
        <time>2015-03-15T10:49:12.000Z</time>
      </trkpt>
      <trkpt lat="47.46094" lon="6.78369">
        <ele>410</ele>
        <time>2015-03-15T10:49:13.000Z</time>
      </trkpt>
      <trkpt lat="47.46097" lon="6.78368">
        <ele>409</ele>
        <time>2015-03-15T10:49:14.000Z</time>
      </trkpt>
      <trkpt lat="47.46101" lon="6.78367">
        <ele>409</ele>
        <time>2015-03-15T10:49:15.000Z</time>
      </trkpt>
      <trkpt lat="47.46104" lon="6.78366">
        <ele>409</ele>
        <time>2015-03-15T10:49:16.000Z</time>
      </trkpt>
      <trkpt lat="47.46108" lon="6.78366">
        <ele>410</ele>
        <time>2015-03-15T10:49:17.000Z</time>
      </trkpt>
      <trkpt lat="47.46111" lon="6.78367">
        <ele>410</ele>
        <time>2015-03-15T10:49:18.000Z</time>
      </trkpt>
      <trkpt lat="47.46114" lon="6.78368">
        <ele>410</ele>
        <time>2015-03-15T10:49:19.000Z</time>
      </trkpt>
      <trkpt lat="47.46117" lon="6.78368">
        <ele>410</ele>
        <time>2015-03-15T10:49:20.000Z</time>
      </trkpt>
      <trkpt lat="47.4612" lon="6.78369">
        <ele>410</ele>
        <time>2015-03-15T10:49:21.000Z</time>
      </trkpt>
      <trkpt lat="47.46124" lon="6.78369">
        <ele>410</ele>
        <time>2015-03-15T10:49:22.000Z</time>
      </trkpt>
      <trkpt lat="47.46128" lon="6.78369">
        <ele>410</ele>
        <time>2015-03-15T10:49:23.000Z</time>
      </trkpt>
      <trkpt lat="47.46132" lon="6.78369">
        <ele>410</ele>
        <time>2015-03-15T10:49:24.000Z</time>
      </trkpt>
      <trkpt lat="47.46137" lon="6.7837">
        <ele>410</ele>
        <time>2015-03-15T10:49:25.000Z</time>
      </trkpt>
      <trkpt lat="47.46143" lon="6.7837">
        <ele>410</ele>
        <time>2015-03-15T10:49:26.000Z</time>
      </trkpt>
      <trkpt lat="47.46148" lon="6.78371">
        <ele>410</ele>
        <time>2015-03-15T10:49:27.000Z</time>
      </trkpt>
      <trkpt lat="47.46153" lon="6.78371">
        <ele>410</ele>
        <time>2015-03-15T10:49:28.000Z</time>
      </trkpt>
      <trkpt lat="47.46157" lon="6.78371">
        <ele>410</ele>
        <time>2015-03-15T10:49:29.000Z</time>
      </trkpt>
      <trkpt lat="47.46162" lon="6.78371">
        <ele>410</ele>
        <time>2015-03-15T10:49:30.000Z</time>
      </trkpt>
      <trkpt lat="47.46179" lon="6.78363">
        <ele>407</ele>
        <time>2015-03-15T10:49:31.000Z</time>
      </trkpt>
      <trkpt lat="47.46187" lon="6.78361">
        <ele>407</ele>
        <time>2015-03-15T10:49:32.000Z</time>
      </trkpt>
      <trkpt lat="47.46194" lon="6.7836">
        <ele>407</ele>
        <time>2015-03-15T10:49:33.000Z</time>
      </trkpt>
      <trkpt lat="47.46204" lon="6.78359">
        <ele>406</ele>
        <time>2015-03-15T10:49:34.000Z</time>
      </trkpt>
      <trkpt lat="47.46213" lon="6.78355">
        <ele>406</ele>
        <time>2015-03-15T10:49:35.000Z</time>
      </trkpt>
      <trkpt lat="47.46222" lon="6.78353">
        <ele>405</ele>
        <time>2015-03-15T10:49:36.000Z</time>
      </trkpt>
      <trkpt lat="47.4623" lon="6.7835">
        <ele>405</ele>
        <time>2015-03-15T10:49:37.000Z</time>
      </trkpt>
      <trkpt lat="47.46239" lon="6.78348">
        <ele>404</ele>
        <time>2015-03-15T10:49:38.000Z</time>
      </trkpt>
      <trkpt lat="47.46247" lon="6.78346">
        <ele>404</ele>
        <time>2015-03-15T10:49:39.000Z</time>
      </trkpt>
      <trkpt lat="47.46256" lon="6.78344">
        <ele>401</ele>
        <time>2015-03-15T10:49:40.000Z</time>
      </trkpt>
      <trkpt lat="47.46267" lon="6.78342">
        <ele>401</ele>
        <time>2015-03-15T10:49:41.000Z</time>
      </trkpt>
      <trkpt lat="47.46276" lon="6.7834">
        <ele>400</ele>
        <time>2015-03-15T10:49:42.000Z</time>
      </trkpt>
      <trkpt lat="47.46285" lon="6.78338">
        <ele>399</ele>
        <time>2015-03-15T10:49:43.000Z</time>
      </trkpt>
      <trkpt lat="47.46295" lon="6.78335">
        <ele>399</ele>
        <time>2015-03-15T10:49:44.000Z</time>
      </trkpt>
      <trkpt lat="47.46304" lon="6.78331">
        <ele>396</ele>
        <time>2015-03-15T10:49:45.000Z</time>
      </trkpt>
      <trkpt lat="47.46313" lon="6.78329">
        <ele>395</ele>
        <time>2015-03-15T10:49:46.000Z</time>
      </trkpt>
      <trkpt lat="47.46321" lon="6.78327">
        <ele>394</ele>
        <time>2015-03-15T10:49:47.000Z</time>
      </trkpt>
      <trkpt lat="47.46331" lon="6.78324">
        <ele>394</ele>
        <time>2015-03-15T10:49:48.000Z</time>
      </trkpt>
      <trkpt lat="47.46338" lon="6.78325">
        <ele>391</ele>
        <time>2015-03-15T10:49:49.000Z</time>
      </trkpt>
      <trkpt lat="47.46347" lon="6.7832">
        <ele>390</ele>
        <time>2015-03-15T10:49:50.000Z</time>
      </trkpt>
      <trkpt lat="47.46356" lon="6.78318">
        <ele>389</ele>
        <time>2015-03-15T10:49:51.000Z</time>
      </trkpt>
      <trkpt lat="47.46364" lon="6.78316">
        <ele>389</ele>
        <time>2015-03-15T10:49:52.000Z</time>
      </trkpt>
      <trkpt lat="47.46373" lon="6.78316">
        <ele>388</ele>
        <time>2015-03-15T10:49:53.000Z</time>
      </trkpt>
      <trkpt lat="47.46381" lon="6.78315">
        <ele>388</ele>
        <time>2015-03-15T10:49:54.000Z</time>
      </trkpt>
      <trkpt lat="47.46389" lon="6.78314">
        <ele>388</ele>
        <time>2015-03-15T10:49:55.000Z</time>
      </trkpt>
      <trkpt lat="47.46395" lon="6.78317">
        <ele>388</ele>
        <time>2015-03-15T10:49:56.000Z</time>
      </trkpt>
      <trkpt lat="47.46399" lon="6.78316">
        <ele>387</ele>
        <time>2015-03-15T10:49:57.000Z</time>
      </trkpt>
      <trkpt lat="47.46406" lon="6.78319">
        <ele>387</ele>
        <time>2015-03-15T10:49:58.000Z</time>
      </trkpt>
      <trkpt lat="47.46419" lon="6.7832">
        <ele>386</ele>
        <time>2015-03-15T10:49:59.000Z</time>
      </trkpt>
      <trkpt lat="47.46427" lon="6.78321">
        <ele>386</ele>
        <time>2015-03-15T10:50:00.000Z</time>
      </trkpt>
      <trkpt lat="47.46437" lon="6.7832">
        <ele>385</ele>
        <time>2015-03-15T10:50:01.000Z</time>
      </trkpt>
      <trkpt lat="47.46445" lon="6.78321">
        <ele>385</ele>
        <time>2015-03-15T10:50:02.000Z</time>
      </trkpt>
      <trkpt lat="47.4645" lon="6.78321">
        <ele>385</ele>
        <time>2015-03-15T10:50:03.000Z</time>
      </trkpt>
      <trkpt lat="47.46453" lon="6.78323">
        <ele>385</ele>
        <time>2015-03-15T10:50:04.000Z</time>
      </trkpt>
      <trkpt lat="47.46459" lon="6.78324">
        <ele>384</ele>
        <time>2015-03-15T10:50:05.000Z</time>
      </trkpt>
      <trkpt lat="47.46468" lon="6.78315">
        <ele>384</ele>
        <time>2015-03-15T10:50:06.000Z</time>
      </trkpt>
      <trkpt lat="47.46474" lon="6.78308">
        <ele>384</ele>
        <time>2015-03-15T10:50:07.000Z</time>
      </trkpt>
      <trkpt lat="47.46476" lon="6.783">
        <ele>383</ele>
        <time>2015-03-15T10:50:08.000Z</time>
      </trkpt>
      <trkpt lat="47.46481" lon="6.78301">
        <ele>383</ele>
        <time>2015-03-15T10:50:09.000Z</time>
      </trkpt>
      <trkpt lat="47.46487" lon="6.78301">
        <ele>383</ele>
        <time>2015-03-15T10:50:10.000Z</time>
      </trkpt>
      <trkpt lat="47.46495" lon="6.78297">
        <ele>383</ele>
        <time>2015-03-15T10:50:11.000Z</time>
      </trkpt>
      <trkpt lat="47.46501" lon="6.78298">
        <ele>380</ele>
        <time>2015-03-15T10:50:12.000Z</time>
      </trkpt>
      <trkpt lat="47.46506" lon="6.78304">
        <ele>381</ele>
        <time>2015-03-15T10:50:13.000Z</time>
      </trkpt>
      <trkpt lat="47.46511" lon="6.78307">
        <ele>381</ele>
        <time>2015-03-15T10:50:14.000Z</time>
      </trkpt>
      <trkpt lat="47.46517" lon="6.7831">
        <ele>381</ele>
        <time>2015-03-15T10:50:15.000Z</time>
      </trkpt>
      <trkpt lat="47.46526" lon="6.78309">
        <ele>380</ele>
        <time>2015-03-15T10:50:16.000Z</time>
      </trkpt>
      <trkpt lat="47.46532" lon="6.7831">
        <ele>380</ele>
        <time>2015-03-15T10:50:17.000Z</time>
      </trkpt>
      <trkpt lat="47.46539" lon="6.7831">
        <ele>379</ele>
        <time>2015-03-15T10:50:18.000Z</time>
      </trkpt>
      <trkpt lat="47.46545" lon="6.7831">
        <ele>379</ele>
        <time>2015-03-15T10:50:19.000Z</time>
      </trkpt>
      <trkpt lat="47.46552" lon="6.78309">
        <ele>379</ele>
        <time>2015-03-15T10:50:20.000Z</time>
      </trkpt>
      <trkpt lat="47.46559" lon="6.78309">
        <ele>379</ele>
        <time>2015-03-15T10:50:21.000Z</time>
      </trkpt>
      <trkpt lat="47.46565" lon="6.78309">
        <ele>378</ele>
        <time>2015-03-15T10:50:22.000Z</time>
      </trkpt>
      <trkpt lat="47.46572" lon="6.7831">
        <ele>378</ele>
        <time>2015-03-15T10:50:23.000Z</time>
      </trkpt>
      <trkpt lat="47.46578" lon="6.78312">
        <ele>379</ele>
        <time>2015-03-15T10:50:24.000Z</time>
      </trkpt>
      <trkpt lat="47.46585" lon="6.78313">
        <ele>375</ele>
        <time>2015-03-15T10:50:25.000Z</time>
      </trkpt>
      <trkpt lat="47.46594" lon="6.78311">
        <ele>374</ele>
        <time>2015-03-15T10:50:26.000Z</time>
      </trkpt>
      <trkpt lat="47.46602" lon="6.7831">
        <ele>374</ele>
        <time>2015-03-15T10:50:27.000Z</time>
      </trkpt>
      <trkpt lat="47.46612" lon="6.7831">
        <ele>373</ele>
        <time>2015-03-15T10:50:28.000Z</time>
      </trkpt>
      <trkpt lat="47.46621" lon="6.7831">
        <ele>373</ele>
        <time>2015-03-15T10:50:29.001Z</time>
      </trkpt>
      <trkpt lat="47.46631" lon="6.78303">
        <ele>372</ele>
        <time>2015-03-15T10:50:30.000Z</time>
      </trkpt>
      <trkpt lat="47.4664" lon="6.78298">
        <ele>371</ele>
        <time>2015-03-15T10:50:31.001Z</time>
      </trkpt>
      <trkpt lat="47.46648" lon="6.78295">
        <ele>371</ele>
        <time>2015-03-15T10:50:32.000Z</time>
      </trkpt>
      <trkpt lat="47.46655" lon="6.7829">
        <ele>370</ele>
        <time>2015-03-15T10:50:33.000Z</time>
      </trkpt>
      <trkpt lat="47.46664" lon="6.78286">
        <ele>369</ele>
        <time>2015-03-15T10:50:34.000Z</time>
      </trkpt>
      <trkpt lat="47.46671" lon="6.78282">
        <ele>368</ele>
        <time>2015-03-15T10:50:34.998Z</time>
      </trkpt>
      <trkpt lat="47.46679" lon="6.7828">
        <ele>368</ele>
        <time>2015-03-15T10:50:36.000Z</time>
      </trkpt>
      <trkpt lat="47.46686" lon="6.78276">
        <ele>368</ele>
        <time>2015-03-15T10:50:36.999Z</time>
      </trkpt>
      <trkpt lat="47.46692" lon="6.78267">
        <ele>367</ele>
        <time>2015-03-15T10:50:38.000Z</time>
      </trkpt>
      <trkpt lat="47.46699" lon="6.7826">
        <ele>367</ele>
        <time>2015-03-15T10:50:39.000Z</time>
      </trkpt>
      <trkpt lat="47.46705" lon="6.78235">
        <ele>363</ele>
        <time>2015-03-15T10:50:40.000Z</time>
      </trkpt>
      <trkpt lat="47.46706" lon="6.78222">
        <ele>362</ele>
        <time>2015-03-15T10:50:41.000Z</time>
      </trkpt>
      <trkpt lat="47.46706" lon="6.78212">
        <ele>362</ele>
        <time>2015-03-15T10:50:42.000Z</time>
      </trkpt>
      <trkpt lat="47.467" lon="6.78199">
        <ele>362</ele>
        <time>2015-03-15T10:50:43.000Z</time>
      </trkpt>
      <trkpt lat="47.467" lon="6.78186">
        <ele>361</ele>
        <time>2015-03-15T10:50:44.000Z</time>
      </trkpt>
      <trkpt lat="47.46699" lon="6.78175">
        <ele>361</ele>
        <time>2015-03-15T10:50:45.000Z</time>
      </trkpt>
      <trkpt lat="47.46699" lon="6.78164">
        <ele>359</ele>
        <time>2015-03-15T10:50:45.999Z</time>
      </trkpt>
      <trkpt lat="47.467" lon="6.78154">
        <ele>359</ele>
        <time>2015-03-15T10:50:47.000Z</time>
      </trkpt>
      <trkpt lat="47.46702" lon="6.78137">
        <ele>359</ele>
        <time>2015-03-15T10:50:48.000Z</time>
      </trkpt>
      <trkpt lat="47.46697" lon="6.78122">
        <ele>360</ele>
        <time>2015-03-15T10:50:49.000Z</time>
      </trkpt>
      <trkpt lat="47.46695" lon="6.78112">
        <ele>360</ele>
        <time>2015-03-15T10:50:49.999Z</time>
      </trkpt>
      <trkpt lat="47.46706" lon="6.78101">
        <ele>359</ele>
        <time>2015-03-15T10:50:51.000Z</time>
      </trkpt>
      <trkpt lat="47.4671" lon="6.7809">
        <ele>359</ele>
        <time>2015-03-15T10:50:51.999Z</time>
      </trkpt>
      <trkpt lat="47.46713" lon="6.78084">
        <ele>359</ele>
        <time>2015-03-15T10:50:53.000Z</time>
      </trkpt>
      <trkpt lat="47.46716" lon="6.78075">
        <ele>360</ele>
        <time>2015-03-15T10:50:54.002Z</time>
      </trkpt>
      <trkpt lat="47.46716" lon="6.78075">
        <ele>360</ele>
        <time>2015-03-15T10:50:55.000Z</time>
      </trkpt>
      <trkpt lat="47.46711" lon="6.78073">
        <ele>361</ele>
        <time>2015-03-15T10:50:56.000Z</time>
      </trkpt>
      <trkpt lat="47.46711" lon="6.7807">
        <ele>361</ele>
        <time>2015-03-15T10:50:57.000Z</time>
      </trkpt>
      <trkpt lat="47.46714" lon="6.78066">
        <ele>361</ele>
        <time>2015-03-15T10:50:58.000Z</time>
      </trkpt>
      <trkpt lat="47.46717" lon="6.78062">
        <ele>361</ele>
        <time>2015-03-15T10:50:58.999Z</time>
      </trkpt>
      <trkpt lat="47.46718" lon="6.78062">
        <ele>361</ele>
        <time>2015-03-15T10:51:00.000Z</time>
      </trkpt>
      <trkpt lat="47.46721" lon="6.78058">
        <ele>361</ele>
        <time>2015-03-15T10:51:02.000Z</time>
      </trkpt>
      <trkpt lat="47.46722" lon="6.78057">
        <ele>360</ele>
        <time>2015-03-15T10:51:03.000Z</time>
      </trkpt>
      <trkpt lat="47.46724" lon="6.78056">
        <ele>360</ele>
        <time>2015-03-15T10:51:04.000Z</time>
      </trkpt>
      <trkpt lat="47.46727" lon="6.78047">
        <ele>360</ele>
        <time>2015-03-15T10:51:05.000Z</time>
      </trkpt>
      <trkpt lat="47.46728" lon="6.78042">
        <ele>360</ele>
        <time>2015-03-15T10:51:06.000Z</time>
      </trkpt>
      <trkpt lat="47.4673" lon="6.78036">
        <ele>360</ele>
        <time>2015-03-15T10:51:07.000Z</time>
      </trkpt>
      <trkpt lat="47.46731" lon="6.78032">
        <ele>360</ele>
        <time>2015-03-15T10:51:08.000Z</time>
      </trkpt>
      <trkpt lat="47.46731" lon="6.78029">
        <ele>360</ele>
        <time>2015-03-15T10:51:09.000Z</time>
      </trkpt>
      <trkpt lat="47.4673" lon="6.78023">
        <ele>360</ele>
        <time>2015-03-15T10:51:11.000Z</time>
      </trkpt>
      <trkpt lat="47.46729" lon="6.7802">
        <ele>360</ele>
        <time>2015-03-15T10:51:12.000Z</time>
      </trkpt>
      <trkpt lat="47.4673" lon="6.78014">
        <ele>360</ele>
        <time>2015-03-15T10:51:15.000Z</time>
      </trkpt>
      <trkpt lat="47.4673" lon="6.78012">
        <ele>359</ele>
        <time>2015-03-15T10:51:16.000Z</time>
      </trkpt>
      <trkpt lat="47.46732" lon="6.78007">
        <ele>359</ele>
        <time>2015-03-15T10:51:20.000Z</time>
      </trkpt>
      <trkpt lat="47.46733" lon="6.78005">
        <ele>358</ele>
        <time>2015-03-15T10:51:21.000Z</time>
      </trkpt>
      <trkpt lat="47.46736" lon="6.78001">
        <ele>358</ele>
        <time>2015-03-15T10:51:23.000Z</time>
      </trkpt>
      <trkpt lat="47.46737" lon="6.77999">
        <ele>360</ele>
        <time>2015-03-15T10:51:24.000Z</time>
      </trkpt>
      <trkpt lat="47.46739" lon="6.77995">
        <ele>360</ele>
        <time>2015-03-15T10:51:26.000Z</time>
      </trkpt>
      <trkpt lat="47.4674" lon="6.77993">
        <ele>360</ele>
        <time>2015-03-15T10:51:27.000Z</time>
      </trkpt>
      <trkpt lat="47.46742" lon="6.7799">
        <ele>360</ele>
        <time>2015-03-15T10:51:28.000Z</time>
      </trkpt>
      <trkpt lat="47.46743" lon="6.77986">
        <ele>361</ele>
        <time>2015-03-15T10:51:29.000Z</time>
      </trkpt>
      <trkpt lat="47.46745" lon="6.77982">
        <ele>362</ele>
        <time>2015-03-15T10:51:30.000Z</time>
      </trkpt>
      <trkpt lat="47.46748" lon="6.77977">
        <ele>363</ele>
        <time>2015-03-15T10:51:31.000Z</time>
      </trkpt>
      <trkpt lat="47.4675" lon="6.77971">
        <ele>352</ele>
        <time>2015-03-15T10:51:32.000Z</time>
      </trkpt>
      <trkpt lat="47.46753" lon="6.77966">
        <ele>352</ele>
        <time>2015-03-15T10:51:33.000Z</time>
      </trkpt>
      <trkpt lat="47.46756" lon="6.77962">
        <ele>352</ele>
        <time>2015-03-15T10:51:34.000Z</time>
      </trkpt>
      <trkpt lat="47.46761" lon="6.77941">
        <ele>353</ele>
        <time>2015-03-15T10:51:35.000Z</time>
      </trkpt>
      <trkpt lat="47.46765" lon="6.77932">
        <ele>354</ele>
        <time>2015-03-15T10:51:36.000Z</time>
      </trkpt>
      <trkpt lat="47.46768" lon="6.77927">
        <ele>354</ele>
        <time>2015-03-15T10:51:37.000Z</time>
      </trkpt>
      <trkpt lat="47.46771" lon="6.7792">
        <ele>354</ele>
        <time>2015-03-15T10:51:38.000Z</time>
      </trkpt>
      <trkpt lat="47.46774" lon="6.77917">
        <ele>356</ele>
        <time>2015-03-15T10:51:39.000Z</time>
      </trkpt>
      <trkpt lat="47.46776" lon="6.77912">
        <ele>355</ele>
        <time>2015-03-15T10:51:40.000Z</time>
      </trkpt>
      <trkpt lat="47.46777" lon="6.77907">
        <ele>355</ele>
        <time>2015-03-15T10:51:41.000Z</time>
      </trkpt>
      <trkpt lat="47.46779" lon="6.77905">
        <ele>355</ele>
        <time>2015-03-15T10:51:42.000Z</time>
      </trkpt>
      <trkpt lat="47.4678" lon="6.77899">
        <ele>355</ele>
        <time>2015-03-15T10:51:43.000Z</time>
      </trkpt>
      <trkpt lat="47.46785" lon="6.77902">
        <ele>354</ele>
        <time>2015-03-15T10:51:44.000Z</time>
      </trkpt>
      <trkpt lat="47.46788" lon="6.77899">
        <ele>354</ele>
        <time>2015-03-15T10:51:46.000Z</time>
      </trkpt>
      <trkpt lat="47.46786" lon="6.77893">
        <ele>354</ele>
        <time>2015-03-15T10:51:47.000Z</time>
      </trkpt>
      <trkpt lat="47.4679" lon="6.7789">
        <ele>354</ele>
        <time>2015-03-15T10:51:50.000Z</time>
      </trkpt>
      <trkpt lat="47.4679" lon="6.77887">
        <ele>353</ele>
        <time>2015-03-15T10:51:51.000Z</time>
      </trkpt>
      <trkpt lat="47.46791" lon="6.77884">
        <ele>354</ele>
        <time>2015-03-15T10:51:52.000Z</time>
      </trkpt>
      <trkpt lat="47.46792" lon="6.7788">
        <ele>354</ele>
        <time>2015-03-15T10:51:53.000Z</time>
      </trkpt>
      <trkpt lat="47.46792" lon="6.77876">
        <ele>354</ele>
        <time>2015-03-15T10:51:54.000Z</time>
      </trkpt>
      <trkpt lat="47.46793" lon="6.77873">
        <ele>354</ele>
        <time>2015-03-15T10:51:55.000Z</time>
      </trkpt>
      <trkpt lat="47.46794" lon="6.77869">
        <ele>354</ele>
        <time>2015-03-15T10:51:56.000Z</time>
      </trkpt>
      <trkpt lat="47.46794" lon="6.77865">
        <ele>354</ele>
        <time>2015-03-15T10:51:57.000Z</time>
      </trkpt>
      <trkpt lat="47.46795" lon="6.77862">
        <ele>354</ele>
        <time>2015-03-15T10:51:58.000Z</time>
      </trkpt>
      <trkpt lat="47.46795" lon="6.77859">
        <ele>354</ele>
        <time>2015-03-15T10:51:59.000Z</time>
      </trkpt>
      <trkpt lat="47.46796" lon="6.77853">
        <ele>354</ele>
        <time>2015-03-15T10:52:01.000Z</time>
      </trkpt>
      <trkpt lat="47.46797" lon="6.77851">
        <ele>354</ele>
        <time>2015-03-15T10:52:02.000Z</time>
      </trkpt>
      <trkpt lat="47.46798" lon="6.77845">
        <ele>354</ele>
        <time>2015-03-15T10:52:04.000Z</time>
      </trkpt>
      <trkpt lat="47.46798" lon="6.77842">
        <ele>354</ele>
        <time>2015-03-15T10:52:05.000Z</time>
      </trkpt>
      <trkpt lat="47.46797" lon="6.77836">
        <ele>354</ele>
        <time>2015-03-15T10:52:07.000Z</time>
      </trkpt>
      <trkpt lat="47.46798" lon="6.77833">
        <ele>358</ele>
        <time>2015-03-15T10:52:08.000Z</time>
      </trkpt>
      <trkpt lat="47.468" lon="6.77829">
        <ele>357</ele>
        <time>2015-03-15T10:52:10.000Z</time>
      </trkpt>
      <trkpt lat="47.46801" lon="6.77827">
        <ele>357</ele>
        <time>2015-03-15T10:52:11.000Z</time>
      </trkpt>
      <trkpt lat="47.46802" lon="6.77823">
        <ele>357</ele>
        <time>2015-03-15T10:52:13.000Z</time>
      </trkpt>
      <trkpt lat="47.46801" lon="6.7782">
        <ele>358</ele>
        <time>2015-03-15T10:52:14.000Z</time>
      </trkpt>
      <trkpt lat="47.468" lon="6.77814">
        <ele>358</ele>
        <time>2015-03-15T10:52:16.000Z</time>
      </trkpt>
      <trkpt lat="47.468" lon="6.77811">
        <ele>358</ele>
        <time>2015-03-15T10:52:17.000Z</time>
      </trkpt>
      <trkpt lat="47.46798" lon="6.77806">
        <ele>359</ele>
        <time>2015-03-15T10:52:19.000Z</time>
      </trkpt>
      <trkpt lat="47.46798" lon="6.77803">
        <ele>359</ele>
        <time>2015-03-15T10:52:20.000Z</time>
      </trkpt>
      <trkpt lat="47.46797" lon="6.778">
        <ele>360</ele>
        <time>2015-03-15T10:52:21.000Z</time>
      </trkpt>
      <trkpt lat="47.46797" lon="6.77796">
        <ele>360</ele>
        <time>2015-03-15T10:52:22.000Z</time>
      </trkpt>
      <trkpt lat="47.46797" lon="6.7779">
        <ele>360</ele>
        <time>2015-03-15T10:52:24.000Z</time>
      </trkpt>
      <trkpt lat="47.46797" lon="6.77788">
        <ele>360</ele>
        <time>2015-03-15T10:52:25.000Z</time>
      </trkpt>
      <trkpt lat="47.46798" lon="6.77785">
        <ele>360</ele>
        <time>2015-03-15T10:52:27.000Z</time>
      </trkpt>
      <trkpt lat="47.46799" lon="6.77782">
        <ele>360</ele>
        <time>2015-03-15T10:52:28.000Z</time>
      </trkpt>
      <trkpt lat="47.468" lon="6.77778">
        <ele>360</ele>
        <time>2015-03-15T10:52:29.000Z</time>
      </trkpt>
      <trkpt lat="47.468" lon="6.77775">
        <ele>360</ele>
        <time>2015-03-15T10:52:30.000Z</time>
      </trkpt>
      <trkpt lat="47.46801" lon="6.77772">
        <ele>360</ele>
        <time>2015-03-15T10:52:31.000Z</time>
      </trkpt>
      <trkpt lat="47.46803" lon="6.77769">
        <ele>360</ele>
        <time>2015-03-15T10:52:32.000Z</time>
      </trkpt>
      <trkpt lat="47.46805" lon="6.77766">
        <ele>359</ele>
        <time>2015-03-15T10:52:33.000Z</time>
      </trkpt>
      <trkpt lat="47.46807" lon="6.77763">
        <ele>359</ele>
        <time>2015-03-15T10:52:34.000Z</time>
      </trkpt>
      <trkpt lat="47.46809" lon="6.7776">
        <ele>359</ele>
        <time>2015-03-15T10:52:35.000Z</time>
      </trkpt>
      <trkpt lat="47.4681" lon="6.77757">
        <ele>358</ele>
        <time>2015-03-15T10:52:36.000Z</time>
      </trkpt>
      <trkpt lat="47.46812" lon="6.77751">
        <ele>358</ele>
        <time>2015-03-15T10:52:38.000Z</time>
      </trkpt>
      <trkpt lat="47.46813" lon="6.77748">
        <ele>360</ele>
        <time>2015-03-15T10:52:39.000Z</time>
      </trkpt>
      <trkpt lat="47.46814" lon="6.77745">
        <ele>360</ele>
        <time>2015-03-15T10:52:40.000Z</time>
      </trkpt>
      <trkpt lat="47.46815" lon="6.77741">
        <ele>360</ele>
        <time>2015-03-15T10:52:41.000Z</time>
      </trkpt>
      <trkpt lat="47.46816" lon="6.77735">
        <ele>361</ele>
        <time>2015-03-15T10:52:43.000Z</time>
      </trkpt>
      <trkpt lat="47.46816" lon="6.77732">
        <ele>361</ele>
        <time>2015-03-15T10:52:44.000Z</time>
      </trkpt>
      <trkpt lat="47.46816" lon="6.77726">
        <ele>362</ele>
        <time>2015-03-15T10:52:46.000Z</time>
      </trkpt>
      <trkpt lat="47.46816" lon="6.77723">
        <ele>362</ele>
        <time>2015-03-15T10:52:47.000Z</time>
      </trkpt>
      <trkpt lat="47.46816" lon="6.77719">
        <ele>362</ele>
        <time>2015-03-15T10:52:48.000Z</time>
      </trkpt>
      <trkpt lat="47.46816" lon="6.77715">
        <ele>363</ele>
        <time>2015-03-15T10:52:49.000Z</time>
      </trkpt>
      <trkpt lat="47.46816" lon="6.77711">
        <ele>363</ele>
        <time>2015-03-15T10:52:50.000Z</time>
      </trkpt>
      <trkpt lat="47.46816" lon="6.77707">
        <ele>363</ele>
        <time>2015-03-15T10:52:51.000Z</time>
      </trkpt>
      <trkpt lat="47.46817" lon="6.77703">
        <ele>363</ele>
        <time>2015-03-15T10:52:52.000Z</time>
      </trkpt>
      <trkpt lat="47.46818" lon="6.77699">
        <ele>363</ele>
        <time>2015-03-15T10:52:53.000Z</time>
      </trkpt>
      <trkpt lat="47.46819" lon="6.77694">
        <ele>363</ele>
        <time>2015-03-15T10:52:54.000Z</time>
      </trkpt>
      <trkpt lat="47.46819" lon="6.77689">
        <ele>362</ele>
        <time>2015-03-15T10:52:55.000Z</time>
      </trkpt>
      <trkpt lat="47.46819" lon="6.77684">
        <ele>362</ele>
        <time>2015-03-15T10:52:56.000Z</time>
      </trkpt>
      <trkpt lat="47.46819" lon="6.77678">
        <ele>361</ele>
        <time>2015-03-15T10:52:57.000Z</time>
      </trkpt>
      <trkpt lat="47.46819" lon="6.77673">
        <ele>361</ele>
        <time>2015-03-15T10:52:58.000Z</time>
      </trkpt>
      <trkpt lat="47.4682" lon="6.77669">
        <ele>361</ele>
        <time>2015-03-15T10:52:59.000Z</time>
      </trkpt>
      <trkpt lat="47.4682" lon="6.77664">
        <ele>361</ele>
        <time>2015-03-15T10:53:00.000Z</time>
      </trkpt>
      <trkpt lat="47.46821" lon="6.77658">
        <ele>361</ele>
        <time>2015-03-15T10:53:01.000Z</time>
      </trkpt>
      <trkpt lat="47.46823" lon="6.77651">
        <ele>362</ele>
        <time>2015-03-15T10:53:02.000Z</time>
      </trkpt>
      <trkpt lat="47.46825" lon="6.77645">
        <ele>362</ele>
        <time>2015-03-15T10:53:03.000Z</time>
      </trkpt>
      <trkpt lat="47.46827" lon="6.77638">
        <ele>363</ele>
        <time>2015-03-15T10:53:04.000Z</time>
      </trkpt>
      <trkpt lat="47.46832" lon="6.77622">
        <ele>363</ele>
        <time>2015-03-15T10:53:05.000Z</time>
      </trkpt>
      <trkpt lat="47.46833" lon="6.77617">
        <ele>363</ele>
        <time>2015-03-15T10:53:06.000Z</time>
      </trkpt>
      <trkpt lat="47.46834" lon="6.77608">
        <ele>352</ele>
        <time>2015-03-15T10:53:07.000Z</time>
      </trkpt>
      <trkpt lat="47.46836" lon="6.77601">
        <ele>352</ele>
        <time>2015-03-15T10:53:08.000Z</time>
      </trkpt>
      <trkpt lat="47.46838" lon="6.77593">
        <ele>353</ele>
        <time>2015-03-15T10:53:09.000Z</time>
      </trkpt>
      <trkpt lat="47.46842" lon="6.77589">
        <ele>353</ele>
        <time>2015-03-15T10:53:10.000Z</time>
      </trkpt>
      <trkpt lat="47.4684" lon="6.77577">
        <ele>353</ele>
        <time>2015-03-15T10:53:11.000Z</time>
      </trkpt>
      <trkpt lat="47.46843" lon="6.77566">
        <ele>352</ele>
        <time>2015-03-15T10:53:12.000Z</time>
      </trkpt>
      <trkpt lat="47.46846" lon="6.77557">
        <ele>351</ele>
        <time>2015-03-15T10:53:13.000Z</time>
      </trkpt>
      <trkpt lat="47.46844" lon="6.77534">
        <ele>350</ele>
        <time>2015-03-15T10:53:14.000Z</time>
      </trkpt>
      <trkpt lat="47.46844" lon="6.77515">
        <ele>351</ele>
        <time>2015-03-15T10:53:15.000Z</time>
      </trkpt>
      <trkpt lat="47.46848" lon="6.77506">
        <ele>351</ele>
        <time>2015-03-15T10:53:16.000Z</time>
      </trkpt>
      <trkpt lat="47.46848" lon="6.77494">
        <ele>351</ele>
        <time>2015-03-15T10:53:17.000Z</time>
      </trkpt>
      <trkpt lat="47.46851" lon="6.77488">
        <ele>350</ele>
        <time>2015-03-15T10:53:18.000Z</time>
      </trkpt>
      <trkpt lat="47.46849" lon="6.77467">
        <ele>350</ele>
        <time>2015-03-15T10:53:19.000Z</time>
      </trkpt>
      <trkpt lat="47.46852" lon="6.77461">
        <ele>349</ele>
        <time>2015-03-15T10:53:20.000Z</time>
      </trkpt>
      <trkpt lat="47.46855" lon="6.77458">
        <ele>349</ele>
        <time>2015-03-15T10:53:21.000Z</time>
      </trkpt>
      <trkpt lat="47.46861" lon="6.77462">
        <ele>349</ele>
        <time>2015-03-15T10:53:22.000Z</time>
      </trkpt>
      <trkpt lat="47.46865" lon="6.77463">
        <ele>349</ele>
        <time>2015-03-15T10:53:23.000Z</time>
      </trkpt>
      <trkpt lat="47.4687" lon="6.77465">
        <ele>348</ele>
        <time>2015-03-15T10:53:24.000Z</time>
      </trkpt>
      <trkpt lat="47.46878" lon="6.77468">
        <ele>348</ele>
        <time>2015-03-15T10:53:25.000Z</time>
      </trkpt>
      <trkpt lat="47.46882" lon="6.77466">
        <ele>348</ele>
        <time>2015-03-15T10:53:26.000Z</time>
      </trkpt>
      <trkpt lat="47.46888" lon="6.77469">
        <ele>347</ele>
        <time>2015-03-15T10:53:27.000Z</time>
      </trkpt>
      <trkpt lat="47.46893" lon="6.77466">
        <ele>347</ele>
        <time>2015-03-15T10:53:28.000Z</time>
      </trkpt>
      <trkpt lat="47.46899" lon="6.77464">
        <ele>347</ele>
        <time>2015-03-15T10:53:29.000Z</time>
      </trkpt>
      <trkpt lat="47.46907" lon="6.77461">
        <ele>346</ele>
        <time>2015-03-15T10:53:30.000Z</time>
      </trkpt>
      <trkpt lat="47.46914" lon="6.7746">
        <ele>346</ele>
        <time>2015-03-15T10:53:30.999Z</time>
      </trkpt>
      <trkpt lat="47.4692" lon="6.77458">
        <ele>342</ele>
        <time>2015-03-15T10:53:32.000Z</time>
      </trkpt>
      <trkpt lat="47.46927" lon="6.77449">
        <ele>342</ele>
        <time>2015-03-15T10:53:33.000Z</time>
      </trkpt>
      <trkpt lat="47.46934" lon="6.77442">
        <ele>342</ele>
        <time>2015-03-15T10:53:34.000Z</time>
      </trkpt>
      <trkpt lat="47.46941" lon="6.77438">
        <ele>342</ele>
        <time>2015-03-15T10:53:35.000Z</time>
      </trkpt>
      <trkpt lat="47.46943" lon="6.77434">
        <ele>342</ele>
        <time>2015-03-15T10:53:36.000Z</time>
      </trkpt>
      <trkpt lat="47.46946" lon="6.77439">
        <ele>342</ele>
        <time>2015-03-15T10:53:37.000Z</time>
      </trkpt>
      <trkpt lat="47.46949" lon="6.77444">
        <ele>341</ele>
        <time>2015-03-15T10:53:38.000Z</time>
      </trkpt>
      <trkpt lat="47.46952" lon="6.77449">
        <ele>341</ele>
        <time>2015-03-15T10:53:39.000Z</time>
      </trkpt>
      <trkpt lat="47.46957" lon="6.77459">
        <ele>341</ele>
        <time>2015-03-15T10:53:40.000Z</time>
      </trkpt>
      <trkpt lat="47.46961" lon="6.77467">
        <ele>341</ele>
        <time>2015-03-15T10:53:41.000Z</time>
      </trkpt>
      <trkpt lat="47.46966" lon="6.77479">
        <ele>341</ele>
        <time>2015-03-15T10:53:42.000Z</time>
      </trkpt>
      <trkpt lat="47.4697" lon="6.77489">
        <ele>340</ele>
        <time>2015-03-15T10:53:43.000Z</time>
      </trkpt>
      <trkpt lat="47.46974" lon="6.77498">
        <ele>340</ele>
        <time>2015-03-15T10:53:44.000Z</time>
      </trkpt>
      <trkpt lat="47.46979" lon="6.77505">
        <ele>339</ele>
        <time>2015-03-15T10:53:45.000Z</time>
      </trkpt>
      <trkpt lat="47.46982" lon="6.77515">
        <ele>339</ele>
        <time>2015-03-15T10:53:46.000Z</time>
      </trkpt>
      <trkpt lat="47.46987" lon="6.77523">
        <ele>339</ele>
        <time>2015-03-15T10:53:47.000Z</time>
      </trkpt>
      <trkpt lat="47.46993" lon="6.77531">
        <ele>339</ele>
        <time>2015-03-15T10:53:48.000Z</time>
      </trkpt>
      <trkpt lat="47.46997" lon="6.77538">
        <ele>339</ele>
        <time>2015-03-15T10:53:49.000Z</time>
      </trkpt>
      <trkpt lat="47.47003" lon="6.77545">
        <ele>336</ele>
        <time>2015-03-15T10:53:50.000Z</time>
      </trkpt>
      <trkpt lat="47.4701" lon="6.77551">
        <ele>336</ele>
        <time>2015-03-15T10:53:51.000Z</time>
      </trkpt>
      <trkpt lat="47.47015" lon="6.77554">
        <ele>336</ele>
        <time>2015-03-15T10:53:52.000Z</time>
      </trkpt>
      <trkpt lat="47.4702" lon="6.77561">
        <ele>336</ele>
        <time>2015-03-15T10:53:53.000Z</time>
      </trkpt>
      <trkpt lat="47.47026" lon="6.77566">
        <ele>335</ele>
        <time>2015-03-15T10:53:54.000Z</time>
      </trkpt>
      <trkpt lat="47.47034" lon="6.7757">
        <ele>335</ele>
        <time>2015-03-15T10:53:55.000Z</time>
      </trkpt>
      <trkpt lat="47.47041" lon="6.77576">
        <ele>335</ele>
        <time>2015-03-15T10:53:56.000Z</time>
      </trkpt>
      <trkpt lat="47.47045" lon="6.77582">
        <ele>335</ele>
        <time>2015-03-15T10:53:57.000Z</time>
      </trkpt>
      <trkpt lat="47.4705" lon="6.77588">
        <ele>334</ele>
        <time>2015-03-15T10:53:58.000Z</time>
      </trkpt>
      <trkpt lat="47.47056" lon="6.77594">
        <ele>334</ele>
        <time>2015-03-15T10:53:58.999Z</time>
      </trkpt>
      <trkpt lat="47.47061" lon="6.77601">
        <ele>334</ele>
        <time>2015-03-15T10:54:00.000Z</time>
      </trkpt>
      <trkpt lat="47.47065" lon="6.77609">
        <ele>334</ele>
        <time>2015-03-15T10:54:01.000Z</time>
      </trkpt>
      <trkpt lat="47.47068" lon="6.77617">
        <ele>334</ele>
        <time>2015-03-15T10:54:02.000Z</time>
      </trkpt>
      <trkpt lat="47.47072" lon="6.77624">
        <ele>334</ele>
        <time>2015-03-15T10:54:03.000Z</time>
      </trkpt>
      <trkpt lat="47.47075" lon="6.77631">
        <ele>334</ele>
        <time>2015-03-15T10:54:04.000Z</time>
      </trkpt>
      <trkpt lat="47.47078" lon="6.77638">
        <ele>334</ele>
        <time>2015-03-15T10:54:05.000Z</time>
      </trkpt>
      <trkpt lat="47.47082" lon="6.77645">
        <ele>334</ele>
        <time>2015-03-15T10:54:06.000Z</time>
      </trkpt>
      <trkpt lat="47.47083" lon="6.77651">
        <ele>334</ele>
        <time>2015-03-15T10:54:07.000Z</time>
      </trkpt>
      <trkpt lat="47.47086" lon="6.77658">
        <ele>333</ele>
        <time>2015-03-15T10:54:08.000Z</time>
      </trkpt>
      <trkpt lat="47.47089" lon="6.77663">
        <ele>333</ele>
        <time>2015-03-15T10:54:09.000Z</time>
      </trkpt>
      <trkpt lat="47.47094" lon="6.77667">
        <ele>334</ele>
        <time>2015-03-15T10:54:10.000Z</time>
      </trkpt>
      <trkpt lat="47.47098" lon="6.77671">
        <ele>334</ele>
        <time>2015-03-15T10:54:11.000Z</time>
      </trkpt>
      <trkpt lat="47.47101" lon="6.77674">
        <ele>335</ele>
        <time>2015-03-15T10:54:12.000Z</time>
      </trkpt>
      <trkpt lat="47.47103" lon="6.77677">
        <ele>335</ele>
        <time>2015-03-15T10:54:13.000Z</time>
      </trkpt>
      <trkpt lat="47.47105" lon="6.77678">
        <ele>335</ele>
        <time>2015-03-15T10:54:14.000Z</time>
      </trkpt>
      <trkpt lat="47.47109" lon="6.7768">
        <ele>335</ele>
        <time>2015-03-15T10:54:15.000Z</time>
      </trkpt>
      <trkpt lat="47.47112" lon="6.77681">
        <ele>335</ele>
        <time>2015-03-15T10:54:17.000Z</time>
      </trkpt>
      <trkpt lat="47.47114" lon="6.77683">
        <ele>335</ele>
        <time>2015-03-15T10:54:18.000Z</time>
      </trkpt>
      <trkpt lat="47.47116" lon="6.77687">
        <ele>335</ele>
        <time>2015-03-15T10:54:20.000Z</time>
      </trkpt>
      <trkpt lat="47.47117" lon="6.77687">
        <ele>335</ele>
        <time>2015-03-15T10:54:21.000Z</time>
      </trkpt>
      <trkpt lat="47.47119" lon="6.77693">
        <ele>336</ele>
        <time>2015-03-15T10:54:27.000Z</time>
      </trkpt>
      <trkpt lat="47.4712" lon="6.77693">
        <ele>336</ele>
        <time>2015-03-15T10:54:28.000Z</time>
      </trkpt>
      <trkpt lat="47.47122" lon="6.77688">
        <ele>336</ele>
        <time>2015-03-15T10:54:42.000Z</time>
      </trkpt>
      <trkpt lat="47.47122" lon="6.77686">
        <ele>336</ele>
        <time>2015-03-15T10:54:43.000Z</time>
      </trkpt>
      <trkpt lat="47.47124" lon="6.7768">
        <ele>336</ele>
        <time>2015-03-15T10:55:54.000Z</time>
      </trkpt>
      <trkpt lat="47.47124" lon="6.7768">
        <ele>336</ele>
        <time>2015-03-15T10:55:55.000Z</time>
      </trkpt>
      <trkpt lat="47.47125" lon="6.77673">
        <ele>336</ele>
        <time>2015-03-15T10:56:24.000Z</time>
      </trkpt>
      <trkpt lat="47.47126" lon="6.77672">
        <ele>336</ele>
        <time>2015-03-15T10:56:25.000Z</time>
      </trkpt>
      <trkpt lat="47.47127" lon="6.77666">
        <ele>335</ele>
        <time>2015-03-15T10:56:30.000Z</time>
      </trkpt>
      <trkpt lat="47.47128" lon="6.77665">
        <ele>335</ele>
        <time>2015-03-15T10:56:31.000Z</time>
      </trkpt>
      <trkpt lat="47.47131" lon="6.77664">
        <ele>335</ele>
        <time>2015-03-15T10:56:37.000Z</time>
      </trkpt>
      <trkpt lat="47.47132" lon="6.77664">
        <ele>335</ele>
        <time>2015-03-15T10:56:38.000Z</time>
      </trkpt>
      <trkpt lat="47.47136" lon="6.77661">
        <ele>335</ele>
        <time>2015-03-15T10:56:42.000Z</time>
      </trkpt>
      <trkpt lat="47.47138" lon="6.77661">
        <ele>335</ele>
        <time>2015-03-15T10:56:43.000Z</time>
      </trkpt>
      <trkpt lat="47.4714" lon="6.77658">
        <ele>335</ele>
        <time>2015-03-15T10:56:44.000Z</time>
      </trkpt>
      <trkpt lat="47.47141" lon="6.77652">
        <ele>335</ele>
        <time>2015-03-15T10:56:45.000Z</time>
      </trkpt>
      <trkpt lat="47.47142" lon="6.77647">
        <ele>335</ele>
        <time>2015-03-15T10:56:46.000Z</time>
      </trkpt>
      <trkpt lat="47.47143" lon="6.77641">
        <ele>335</ele>
        <time>2015-03-15T10:56:47.000Z</time>
      </trkpt>
      <trkpt lat="47.47144" lon="6.77635">
        <ele>335</ele>
        <time>2015-03-15T10:56:48.000Z</time>
      </trkpt>
      <trkpt lat="47.47146" lon="6.7763">
        <ele>335</ele>
        <time>2015-03-15T10:56:49.000Z</time>
      </trkpt>
      <trkpt lat="47.47147" lon="6.77625">
        <ele>335</ele>
        <time>2015-03-15T10:56:50.000Z</time>
      </trkpt>
      <trkpt lat="47.47149" lon="6.77621">
        <ele>335</ele>
        <time>2015-03-15T10:56:51.000Z</time>
      </trkpt>
      <trkpt lat="47.47151" lon="6.77615">
        <ele>334</ele>
        <time>2015-03-15T10:56:53.000Z</time>
      </trkpt>
      <trkpt lat="47.47152" lon="6.77613">
        <ele>334</ele>
        <time>2015-03-15T10:56:54.000Z</time>
      </trkpt>
      <trkpt lat="47.47154" lon="6.77608">
        <ele>334</ele>
        <time>2015-03-15T10:56:57.000Z</time>
      </trkpt>
      <trkpt lat="47.47154" lon="6.77606">
        <ele>334</ele>
        <time>2015-03-15T10:56:58.000Z</time>
      </trkpt>
      <trkpt lat="47.47156" lon="6.77602">
        <ele>334</ele>
        <time>2015-03-15T10:57:00.000Z</time>
      </trkpt>
      <trkpt lat="47.47157" lon="6.77599">
        <ele>334</ele>
        <time>2015-03-15T10:57:01.000Z</time>
      </trkpt>
      <trkpt lat="47.47159" lon="6.77595">
        <ele>334</ele>
        <time>2015-03-15T10:57:03.000Z</time>
      </trkpt>
      <trkpt lat="47.4716" lon="6.77593">
        <ele>334</ele>
        <time>2015-03-15T10:57:04.000Z</time>
      </trkpt>
      <trkpt lat="47.47162" lon="6.77588">
        <ele>334</ele>
        <time>2015-03-15T10:57:06.000Z</time>
      </trkpt>
      <trkpt lat="47.47164" lon="6.77586">
        <ele>334</ele>
        <time>2015-03-15T10:57:07.000Z</time>
      </trkpt>
      <trkpt lat="47.47166" lon="6.77583">
        <ele>334</ele>
        <time>2015-03-15T10:57:09.000Z</time>
      </trkpt>
      <trkpt lat="47.47168" lon="6.77582">
        <ele>334</ele>
        <time>2015-03-15T10:57:10.000Z</time>
      </trkpt>
      <trkpt lat="47.47172" lon="6.77579">
        <ele>333</ele>
        <time>2015-03-15T10:57:27.000Z</time>
      </trkpt>
      <trkpt lat="47.47173" lon="6.77578">
        <ele>333</ele>
        <time>2015-03-15T10:57:28.000Z</time>
      </trkpt>
      <trkpt lat="47.47175" lon="6.77576">
        <ele>333</ele>
        <time>2015-03-15T10:57:30.000Z</time>
      </trkpt>
      <trkpt lat="47.47177" lon="6.77575">
        <ele>333</ele>
        <time>2015-03-15T10:57:31.000Z</time>
      </trkpt>
      <trkpt lat="47.4718" lon="6.77572">
        <ele>333</ele>
        <time>2015-03-15T10:57:48.000Z</time>
      </trkpt>
      <trkpt lat="47.47181" lon="6.77572">
        <ele>333</ele>
        <time>2015-03-15T10:57:49.000Z</time>
      </trkpt>
      <trkpt lat="47.47185" lon="6.77572">
        <ele>332</ele>
        <time>2015-03-15T10:57:52.000Z</time>
      </trkpt>
      <trkpt lat="47.47188" lon="6.77573">
        <ele>332</ele>
        <time>2015-03-15T10:57:53.000Z</time>
      </trkpt>
      <trkpt lat="47.47191" lon="6.77573">
        <ele>332</ele>
        <time>2015-03-15T10:57:54.000Z</time>
      </trkpt>
      <trkpt lat="47.47194" lon="6.77573">
        <ele>332</ele>
        <time>2015-03-15T10:57:55.000Z</time>
      </trkpt>
      <trkpt lat="47.47198" lon="6.77573">
        <ele>332</ele>
        <time>2015-03-15T10:57:56.000Z</time>
      </trkpt>
      <trkpt lat="47.47202" lon="6.77574">
        <ele>332</ele>
        <time>2015-03-15T10:57:57.000Z</time>
      </trkpt>
      <trkpt lat="47.47206" lon="6.77574">
        <ele>332</ele>
        <time>2015-03-15T10:57:58.000Z</time>
      </trkpt>
      <trkpt lat="47.4721" lon="6.77574">
        <ele>331</ele>
        <time>2015-03-15T10:57:58.999Z</time>
      </trkpt>
      <trkpt lat="47.47219" lon="6.77573">
        <ele>331</ele>
        <time>2015-03-15T10:58:00.000Z</time>
      </trkpt>
      <trkpt lat="47.47225" lon="6.77573">
        <ele>331</ele>
        <time>2015-03-15T10:58:01.000Z</time>
      </trkpt>
      <trkpt lat="47.47232" lon="6.77571">
        <ele>331</ele>
        <time>2015-03-15T10:58:02.000Z</time>
      </trkpt>
      <trkpt lat="47.47239" lon="6.77572">
        <ele>331</ele>
        <time>2015-03-15T10:58:03.000Z</time>
      </trkpt>
      <trkpt lat="47.47245" lon="6.77571">
        <ele>330</ele>
        <time>2015-03-15T10:58:04.000Z</time>
      </trkpt>
      <trkpt lat="47.47252" lon="6.77571">
        <ele>329</ele>
        <time>2015-03-15T10:58:05.000Z</time>
      </trkpt>
      <trkpt lat="47.47259" lon="6.77571">
        <ele>328</ele>
        <time>2015-03-15T10:58:06.000Z</time>
      </trkpt>
      <trkpt lat="47.47268" lon="6.77571">
        <ele>328</ele>
        <time>2015-03-15T10:58:07.000Z</time>
      </trkpt>
      <trkpt lat="47.47275" lon="6.77571">
        <ele>328</ele>
        <time>2015-03-15T10:58:08.000Z</time>
      </trkpt>
      <trkpt lat="47.47282" lon="6.77571">
        <ele>327</ele>
        <time>2015-03-15T10:58:08.999Z</time>
      </trkpt>
      <trkpt lat="47.4729" lon="6.77572">
        <ele>327</ele>
        <time>2015-03-15T10:58:10.000Z</time>
      </trkpt>
      <trkpt lat="47.47298" lon="6.77572">
        <ele>327</ele>
        <time>2015-03-15T10:58:11.000Z</time>
      </trkpt>
      <trkpt lat="47.47306" lon="6.77572">
        <ele>326</ele>
        <time>2015-03-15T10:58:12.000Z</time>
      </trkpt>
      <trkpt lat="47.47313" lon="6.77572">
        <ele>326</ele>
        <time>2015-03-15T10:58:13.000Z</time>
      </trkpt>
      <trkpt lat="47.4732" lon="6.77571">
        <ele>326</ele>
        <time>2015-03-15T10:58:14.000Z</time>
      </trkpt>
      <trkpt lat="47.47328" lon="6.77569">
        <ele>326</ele>
        <time>2015-03-15T10:58:15.000Z</time>
      </trkpt>
      <trkpt lat="47.47334" lon="6.7757">
        <ele>324</ele>
        <time>2015-03-15T10:58:16.000Z</time>
      </trkpt>
      <trkpt lat="47.4734" lon="6.7757">
        <ele>324</ele>
        <time>2015-03-15T10:58:16.999Z</time>
      </trkpt>
      <trkpt lat="47.47348" lon="6.77569">
        <ele>323</ele>
        <time>2015-03-15T10:58:18.000Z</time>
      </trkpt>
      <trkpt lat="47.47355" lon="6.77567">
        <ele>323</ele>
        <time>2015-03-15T10:58:19.000Z</time>
      </trkpt>
      <trkpt lat="47.47362" lon="6.77566">
        <ele>323</ele>
        <time>2015-03-15T10:58:20.000Z</time>
      </trkpt>
      <trkpt lat="47.47369" lon="6.77567">
        <ele>322</ele>
        <time>2015-03-15T10:58:21.000Z</time>
      </trkpt>
      <trkpt lat="47.47377" lon="6.77566">
        <ele>322</ele>
        <time>2015-03-15T10:58:22.000Z</time>
      </trkpt>
      <trkpt lat="47.47384" lon="6.77566">
        <ele>322</ele>
        <time>2015-03-15T10:58:23.000Z</time>
      </trkpt>
      <trkpt lat="47.47392" lon="6.77565">
        <ele>322</ele>
        <time>2015-03-15T10:58:24.000Z</time>
      </trkpt>
      <trkpt lat="47.474" lon="6.77563">
        <ele>322</ele>
        <time>2015-03-15T10:58:25.000Z</time>
      </trkpt>
      <trkpt lat="47.47407" lon="6.77562">
        <ele>322</ele>
        <time>2015-03-15T10:58:25.999Z</time>
      </trkpt>
      <trkpt lat="47.47413" lon="6.77558">
        <ele>321</ele>
        <time>2015-03-15T10:58:27.000Z</time>
      </trkpt>
      <trkpt lat="47.47419" lon="6.77555">
        <ele>319</ele>
        <time>2015-03-15T10:58:28.000Z</time>
      </trkpt>
      <trkpt lat="47.47425" lon="6.77551">
        <ele>319</ele>
        <time>2015-03-15T10:58:29.000Z</time>
      </trkpt>
      <trkpt lat="47.47431" lon="6.77547">
        <ele>319</ele>
        <time>2015-03-15T10:58:30.000Z</time>
      </trkpt>
      <trkpt lat="47.47437" lon="6.77544">
        <ele>319</ele>
        <time>2015-03-15T10:58:30.999Z</time>
      </trkpt>
      <trkpt lat="47.47442" lon="6.7754">
        <ele>319</ele>
        <time>2015-03-15T10:58:32.002Z</time>
      </trkpt>
      <trkpt lat="47.47449" lon="6.77539">
        <ele>319</ele>
        <time>2015-03-15T10:58:33.000Z</time>
      </trkpt>
      <trkpt lat="47.47455" lon="6.77538">
        <ele>319</ele>
        <time>2015-03-15T10:58:34.000Z</time>
      </trkpt>
      <trkpt lat="47.47461" lon="6.77533">
        <ele>319</ele>
        <time>2015-03-15T10:58:35.000Z</time>
      </trkpt>
      <trkpt lat="47.47467" lon="6.77527">
        <ele>318</ele>
        <time>2015-03-15T10:58:36.000Z</time>
      </trkpt>
      <trkpt lat="47.47471" lon="6.77522">
        <ele>318</ele>
        <time>2015-03-15T10:58:37.000Z</time>
      </trkpt>
      <trkpt lat="47.47475" lon="6.77515">
        <ele>318</ele>
        <time>2015-03-15T10:58:38.000Z</time>
      </trkpt>
      <trkpt lat="47.4748" lon="6.77509">
        <ele>318</ele>
        <time>2015-03-15T10:58:38.999Z</time>
      </trkpt>
      <trkpt lat="47.47483" lon="6.77502">
        <ele>318</ele>
        <time>2015-03-15T10:58:40.000Z</time>
      </trkpt>
      <trkpt lat="47.47487" lon="6.77496">
        <ele>317</ele>
        <time>2015-03-15T10:58:41.000Z</time>
      </trkpt>
      <trkpt lat="47.4749" lon="6.7749">
        <ele>317</ele>
        <time>2015-03-15T10:58:42.000Z</time>
      </trkpt>
      <trkpt lat="47.47494" lon="6.77484">
        <ele>317</ele>
        <time>2015-03-15T10:58:43.000Z</time>
      </trkpt>
      <trkpt lat="47.47498" lon="6.77478">
        <ele>317</ele>
        <time>2015-03-15T10:58:44.000Z</time>
      </trkpt>
      <trkpt lat="47.475" lon="6.77475">
        <ele>317</ele>
        <time>2015-03-15T10:58:45.000Z</time>
      </trkpt>
      <trkpt lat="47.47502" lon="6.77471">
        <ele>316</ele>
        <time>2015-03-15T10:58:46.000Z</time>
      </trkpt>
      <trkpt lat="47.47505" lon="6.77467">
        <ele>316</ele>
        <time>2015-03-15T10:58:47.000Z</time>
      </trkpt>
      <trkpt lat="47.47508" lon="6.77459">
        <ele>316</ele>
        <time>2015-03-15T10:58:48.000Z</time>
      </trkpt>
      <trkpt lat="47.4751" lon="6.77452">
        <ele>316</ele>
        <time>2015-03-15T10:58:49.000Z</time>
      </trkpt>
      <trkpt lat="47.47512" lon="6.77446">
        <ele>316</ele>
        <time>2015-03-15T10:58:50.000Z</time>
      </trkpt>
      <trkpt lat="47.47514" lon="6.77441">
        <ele>316</ele>
        <time>2015-03-15T10:58:51.000Z</time>
      </trkpt>
      <trkpt lat="47.4752" lon="6.77438">
        <ele>316</ele>
        <time>2015-03-15T10:58:52.000Z</time>
      </trkpt>
      <trkpt lat="47.47524" lon="6.77433">
        <ele>316</ele>
        <time>2015-03-15T10:58:53.000Z</time>
      </trkpt>
      <trkpt lat="47.47528" lon="6.77432">
        <ele>316</ele>
        <time>2015-03-15T10:58:54.000Z</time>
      </trkpt>
      <trkpt lat="47.47532" lon="6.77426">
        <ele>315</ele>
        <time>2015-03-15T10:58:55.000Z</time>
      </trkpt>
      <trkpt lat="47.47536" lon="6.77422">
        <ele>315</ele>
        <time>2015-03-15T10:58:56.000Z</time>
      </trkpt>
      <trkpt lat="47.4754" lon="6.77419">
        <ele>315</ele>
        <time>2015-03-15T10:58:57.000Z</time>
      </trkpt>
      <trkpt lat="47.47542" lon="6.77417">
        <ele>315</ele>
        <time>2015-03-15T10:58:58.000Z</time>
      </trkpt>
      <trkpt lat="47.47544" lon="6.77411">
        <ele>314</ele>
        <time>2015-03-15T10:59:01.000Z</time>
      </trkpt>
      <trkpt lat="47.47543" lon="6.77403">
        <ele>314</ele>
        <time>2015-03-15T10:59:02.000Z</time>
      </trkpt>
      <trkpt lat="47.47542" lon="6.77396">
        <ele>314</ele>
        <time>2015-03-15T10:59:03.000Z</time>
      </trkpt>
      <trkpt lat="47.47538" lon="6.77391">
        <ele>314</ele>
        <time>2015-03-15T10:59:04.000Z</time>
      </trkpt>
      <trkpt lat="47.47536" lon="6.77385">
        <ele>314</ele>
        <time>2015-03-15T10:59:05.000Z</time>
      </trkpt>
      <trkpt lat="47.47534" lon="6.7738">
        <ele>314</ele>
        <time>2015-03-15T10:59:06.000Z</time>
      </trkpt>
      <trkpt lat="47.47531" lon="6.77373">
        <ele>314</ele>
        <time>2015-03-15T10:59:07.000Z</time>
      </trkpt>
      <trkpt lat="47.47528" lon="6.77368">
        <ele>314</ele>
        <time>2015-03-15T10:59:08.000Z</time>
      </trkpt>
      <trkpt lat="47.47524" lon="6.77363">
        <ele>314</ele>
        <time>2015-03-15T10:59:09.000Z</time>
      </trkpt>
      <trkpt lat="47.47521" lon="6.77357">
        <ele>314</ele>
        <time>2015-03-15T10:59:10.000Z</time>
      </trkpt>
      <trkpt lat="47.47518" lon="6.77351">
        <ele>314</ele>
        <time>2015-03-15T10:59:11.000Z</time>
      </trkpt>
      <trkpt lat="47.47515" lon="6.77347">
        <ele>315</ele>
        <time>2015-03-15T10:59:12.000Z</time>
      </trkpt>
      <trkpt lat="47.47511" lon="6.77343">
        <ele>315</ele>
        <time>2015-03-15T10:59:13.000Z</time>
      </trkpt>
      <trkpt lat="47.47507" lon="6.77337">
        <ele>315</ele>
        <time>2015-03-15T10:59:14.000Z</time>
      </trkpt>
      <trkpt lat="47.47506" lon="6.77332">
        <ele>314</ele>
        <time>2015-03-15T10:59:15.000Z</time>
      </trkpt>
      <trkpt lat="47.47503" lon="6.77325">
        <ele>314</ele>
        <time>2015-03-15T10:59:16.000Z</time>
      </trkpt>
      <trkpt lat="47.47501" lon="6.7732">
        <ele>314</ele>
        <time>2015-03-15T10:59:17.000Z</time>
      </trkpt>
      <trkpt lat="47.47499" lon="6.77314">
        <ele>315</ele>
        <time>2015-03-15T10:59:18.000Z</time>
      </trkpt>
      <trkpt lat="47.47494" lon="6.77307">
        <ele>314</ele>
        <time>2015-03-15T10:59:19.000Z</time>
      </trkpt>
      <trkpt lat="47.47489" lon="6.773">
        <ele>314</ele>
        <time>2015-03-15T10:59:20.000Z</time>
      </trkpt>
      <trkpt lat="47.47484" lon="6.77294">
        <ele>314</ele>
        <time>2015-03-15T10:59:21.000Z</time>
      </trkpt>
      <trkpt lat="47.47481" lon="6.77289">
        <ele>314</ele>
        <time>2015-03-15T10:59:22.000Z</time>
      </trkpt>
      <trkpt lat="47.4748" lon="6.77281">
        <ele>314</ele>
        <time>2015-03-15T10:59:23.000Z</time>
      </trkpt>
      <trkpt lat="47.47482" lon="6.77275">
        <ele>314</ele>
        <time>2015-03-15T10:59:24.000Z</time>
      </trkpt>
      <trkpt lat="47.47485" lon="6.7727">
        <ele>314</ele>
        <time>2015-03-15T10:59:25.000Z</time>
      </trkpt>
      <trkpt lat="47.47488" lon="6.77265">
        <ele>313</ele>
        <time>2015-03-15T10:59:26.000Z</time>
      </trkpt>
      <trkpt lat="47.47493" lon="6.77258">
        <ele>313</ele>
        <time>2015-03-15T10:59:27.000Z</time>
      </trkpt>
      <trkpt lat="47.47498" lon="6.77252">
        <ele>312</ele>
        <time>2015-03-15T10:59:28.000Z</time>
      </trkpt>
      <trkpt lat="47.47501" lon="6.77244">
        <ele>312</ele>
        <time>2015-03-15T10:59:29.000Z</time>
      </trkpt>
      <trkpt lat="47.47505" lon="6.77237">
        <ele>311</ele>
        <time>2015-03-15T10:59:30.000Z</time>
      </trkpt>
      <trkpt lat="47.47508" lon="6.7723">
        <ele>311</ele>
        <time>2015-03-15T10:59:31.000Z</time>
      </trkpt>
      <trkpt lat="47.47511" lon="6.77222">
        <ele>311</ele>
        <time>2015-03-15T10:59:32.000Z</time>
      </trkpt>
      <trkpt lat="47.47514" lon="6.77211">
        <ele>311</ele>
        <time>2015-03-15T10:59:33.000Z</time>
      </trkpt>
      <trkpt lat="47.47518" lon="6.77205">
        <ele>310</ele>
        <time>2015-03-15T10:59:34.000Z</time>
      </trkpt>
      <trkpt lat="47.4752" lon="6.77196">
        <ele>310</ele>
        <time>2015-03-15T10:59:35.000Z</time>
      </trkpt>
      <trkpt lat="47.47521" lon="6.77188">
        <ele>310</ele>
        <time>2015-03-15T10:59:36.000Z</time>
      </trkpt>
      <trkpt lat="47.47522" lon="6.7718">
        <ele>310</ele>
        <time>2015-03-15T10:59:37.000Z</time>
      </trkpt>
      <trkpt lat="47.47523" lon="6.77173">
        <ele>310</ele>
        <time>2015-03-15T10:59:38.000Z</time>
      </trkpt>
      <trkpt lat="47.47524" lon="6.77169">
        <ele>310</ele>
        <time>2015-03-15T10:59:39.000Z</time>
      </trkpt>
      <trkpt lat="47.47525" lon="6.77163">
        <ele>310</ele>
        <time>2015-03-15T10:59:40.000Z</time>
      </trkpt>
      <trkpt lat="47.47527" lon="6.77154">
        <ele>310</ele>
        <time>2015-03-15T10:59:41.000Z</time>
      </trkpt>
      <trkpt lat="47.47532" lon="6.7715">
        <ele>310</ele>
        <time>2015-03-15T10:59:42.000Z</time>
      </trkpt>
      <trkpt lat="47.47536" lon="6.77152">
        <ele>310</ele>
        <time>2015-03-15T10:59:43.000Z</time>
      </trkpt>
      <trkpt lat="47.47541" lon="6.77155">
        <ele>310</ele>
        <time>2015-03-15T10:59:44.000Z</time>
      </trkpt>
      <trkpt lat="47.47544" lon="6.77155">
        <ele>310</ele>
        <time>2015-03-15T10:59:46.000Z</time>
      </trkpt>
      <trkpt lat="47.47546" lon="6.77156">
        <ele>310</ele>
        <time>2015-03-15T10:59:47.000Z</time>
      </trkpt>
      <trkpt lat="47.4755" lon="6.77158">
        <ele>310</ele>
        <time>2015-03-15T10:59:48.000Z</time>
      </trkpt>
      <trkpt lat="47.47553" lon="6.77159">
        <ele>310</ele>
        <time>2015-03-15T10:59:49.000Z</time>
      </trkpt>
      <trkpt lat="47.47556" lon="6.77161">
        <ele>310</ele>
        <time>2015-03-15T10:59:50.000Z</time>
      </trkpt>
      <trkpt lat="47.4756" lon="6.77163">
        <ele>310</ele>
        <time>2015-03-15T10:59:51.000Z</time>
      </trkpt>
      <trkpt lat="47.47563" lon="6.77166">
        <ele>309</ele>
        <time>2015-03-15T10:59:52.000Z</time>
      </trkpt>
      <trkpt lat="47.47567" lon="6.77169">
        <ele>310</ele>
        <time>2015-03-15T10:59:53.000Z</time>
      </trkpt>
      <trkpt lat="47.4757" lon="6.77172">
        <ele>310</ele>
        <time>2015-03-15T10:59:54.000Z</time>
      </trkpt>
      <trkpt lat="47.47574" lon="6.77176">
        <ele>310</ele>
        <time>2015-03-15T10:59:55.000Z</time>
      </trkpt>
      <trkpt lat="47.47577" lon="6.77179">
        <ele>310</ele>
        <time>2015-03-15T10:59:56.000Z</time>
      </trkpt>
      <trkpt lat="47.47581" lon="6.77182">
        <ele>310</ele>
        <time>2015-03-15T10:59:57.000Z</time>
      </trkpt>
      <trkpt lat="47.47584" lon="6.77185">
        <ele>310</ele>
        <time>2015-03-15T10:59:58.000Z</time>
      </trkpt>
      <trkpt lat="47.47588" lon="6.77188">
        <ele>310</ele>
        <time>2015-03-15T10:59:59.000Z</time>
      </trkpt>
      <trkpt lat="47.47591" lon="6.7719">
        <ele>310</ele>
        <time>2015-03-15T11:00:00.000Z</time>
      </trkpt>
      <trkpt lat="47.47595" lon="6.77193">
        <ele>310</ele>
        <time>2015-03-15T11:00:01.000Z</time>
      </trkpt>
      <trkpt lat="47.47598" lon="6.77196">
        <ele>310</ele>
        <time>2015-03-15T11:00:02.000Z</time>
      </trkpt>
      <trkpt lat="47.47602" lon="6.77198">
        <ele>310</ele>
        <time>2015-03-15T11:00:03.000Z</time>
      </trkpt>
      <trkpt lat="47.47605" lon="6.77199">
        <ele>310</ele>
        <time>2015-03-15T11:00:04.001Z</time>
      </trkpt>
      <trkpt lat="47.4761" lon="6.77198">
        <ele>310</ele>
        <time>2015-03-15T11:00:05.000Z</time>
      </trkpt>
      <trkpt lat="47.47613" lon="6.77199">
        <ele>310</ele>
        <time>2015-03-15T11:00:06.000Z</time>
      </trkpt>
      <trkpt lat="47.47615" lon="6.77182">
        <ele>310</ele>
        <time>2015-03-15T11:00:07.000Z</time>
      </trkpt>
      <trkpt lat="47.47618" lon="6.77176">
        <ele>310</ele>
        <time>2015-03-15T11:00:08.000Z</time>
      </trkpt>
      <trkpt lat="47.4762" lon="6.77171">
        <ele>310</ele>
        <time>2015-03-15T11:00:09.001Z</time>
      </trkpt>
      <trkpt lat="47.47622" lon="6.77167">
        <ele>310</ele>
        <time>2015-03-15T11:00:10.000Z</time>
      </trkpt>
      <trkpt lat="47.47623" lon="6.77162">
        <ele>310</ele>
        <time>2015-03-15T11:00:11.000Z</time>
      </trkpt>
      <trkpt lat="47.47624" lon="6.77157">
        <ele>310</ele>
        <time>2015-03-15T11:00:12.000Z</time>
      </trkpt>
      <trkpt lat="47.47626" lon="6.77155">
        <ele>310</ele>
        <time>2015-03-15T11:00:13.000Z</time>
      </trkpt>
      <trkpt lat="47.47627" lon="6.77152">
        <ele>310</ele>
        <time>2015-03-15T11:00:14.000Z</time>
      </trkpt>
      <trkpt lat="47.47629" lon="6.77148">
        <ele>310</ele>
        <time>2015-03-15T11:00:15.000Z</time>
      </trkpt>
      <trkpt lat="47.4763" lon="6.77144">
        <ele>310</ele>
        <time>2015-03-15T11:00:16.000Z</time>
      </trkpt>
      <trkpt lat="47.47632" lon="6.77141">
        <ele>310</ele>
        <time>2015-03-15T11:00:17.000Z</time>
      </trkpt>
      <trkpt lat="47.47633" lon="6.77138">
        <ele>310</ele>
        <time>2015-03-15T11:00:18.000Z</time>
      </trkpt>
      <trkpt lat="47.47634" lon="6.77134">
        <ele>310</ele>
        <time>2015-03-15T11:00:19.000Z</time>
      </trkpt>
      <trkpt lat="47.47634" lon="6.77131">
        <ele>310</ele>
        <time>2015-03-15T11:00:20.000Z</time>
      </trkpt>
      <trkpt lat="47.47635" lon="6.77127">
        <ele>310</ele>
        <time>2015-03-15T11:00:21.000Z</time>
      </trkpt>
      <trkpt lat="47.47635" lon="6.77124">
        <ele>310</ele>
        <time>2015-03-15T11:00:22.000Z</time>
      </trkpt>
      <trkpt lat="47.47636" lon="6.77119">
        <ele>310</ele>
        <time>2015-03-15T11:00:23.000Z</time>
      </trkpt>
      <trkpt lat="47.47637" lon="6.77114">
        <ele>310</ele>
        <time>2015-03-15T11:00:24.000Z</time>
      </trkpt>
      <trkpt lat="47.47637" lon="6.77109">
        <ele>310</ele>
        <time>2015-03-15T11:00:25.000Z</time>
      </trkpt>
      <trkpt lat="47.47638" lon="6.77104">
        <ele>310</ele>
        <time>2015-03-15T11:00:26.000Z</time>
      </trkpt>
      <trkpt lat="47.47639" lon="6.771">
        <ele>310</ele>
        <time>2015-03-15T11:00:27.000Z</time>
      </trkpt>
      <trkpt lat="47.47639" lon="6.77096">
        <ele>311</ele>
        <time>2015-03-15T11:00:28.000Z</time>
      </trkpt>
      <trkpt lat="47.47639" lon="6.77092">
        <ele>311</ele>
        <time>2015-03-15T11:00:29.000Z</time>
      </trkpt>
      <trkpt lat="47.4764" lon="6.77089">
        <ele>311</ele>
        <time>2015-03-15T11:00:30.000Z</time>
      </trkpt>
      <trkpt lat="47.4764" lon="6.77085">
        <ele>311</ele>
        <time>2015-03-15T11:00:31.000Z</time>
      </trkpt>
      <trkpt lat="47.4764" lon="6.77082">
        <ele>311</ele>
        <time>2015-03-15T11:00:32.000Z</time>
      </trkpt>
      <trkpt lat="47.47641" lon="6.77078">
        <ele>311</ele>
        <time>2015-03-15T11:00:33.000Z</time>
      </trkpt>
      <trkpt lat="47.47642" lon="6.77075">
        <ele>311</ele>
        <time>2015-03-15T11:00:34.000Z</time>
      </trkpt>
      <trkpt lat="47.47642" lon="6.77072">
        <ele>311</ele>
        <time>2015-03-15T11:00:35.000Z</time>
      </trkpt>
      <trkpt lat="47.47643" lon="6.77068">
        <ele>311</ele>
        <time>2015-03-15T11:00:36.000Z</time>
      </trkpt>
      <trkpt lat="47.47645" lon="6.77063">
        <ele>311</ele>
        <time>2015-03-15T11:00:52.999Z</time>
      </trkpt>
      <trkpt lat="47.47645" lon="6.77062">
        <ele>311</ele>
        <time>2015-03-15T11:00:54.000Z</time>
      </trkpt>
      <trkpt lat="47.47646" lon="6.77058">
        <ele>311</ele>
        <time>2015-03-15T11:01:52.000Z</time>
      </trkpt>
      <trkpt lat="47.47646" lon="6.77055">
        <ele>311</ele>
        <time>2015-03-15T11:01:53.000Z</time>
      </trkpt>
      <trkpt lat="47.47647" lon="6.7705">
        <ele>311</ele>
        <time>2015-03-15T11:01:54.000Z</time>
      </trkpt>
      <trkpt lat="47.47649" lon="6.77037">
        <ele>311</ele>
        <time>2015-03-15T11:01:55.000Z</time>
      </trkpt>
      <trkpt lat="47.4765" lon="6.77029">
        <ele>311</ele>
        <time>2015-03-15T11:01:56.000Z</time>
      </trkpt>
      <trkpt lat="47.47651" lon="6.77019">
        <ele>311</ele>
        <time>2015-03-15T11:01:57.000Z</time>
      </trkpt>
      <trkpt lat="47.47654" lon="6.77009">
        <ele>311</ele>
        <time>2015-03-15T11:01:58.000Z</time>
      </trkpt>
      <trkpt lat="47.47657" lon="6.77">
        <ele>311</ele>
        <time>2015-03-15T11:01:59.000Z</time>
      </trkpt>
      <trkpt lat="47.4766" lon="6.7699">
        <ele>311</ele>
        <time>2015-03-15T11:02:00.000Z</time>
      </trkpt>
      <trkpt lat="47.47664" lon="6.76981">
        <ele>311</ele>
        <time>2015-03-15T11:02:01.000Z</time>
      </trkpt>
      <trkpt lat="47.47668" lon="6.76974">
        <ele>311</ele>
        <time>2015-03-15T11:02:02.000Z</time>
      </trkpt>
      <trkpt lat="47.4767" lon="6.76967">
        <ele>311</ele>
        <time>2015-03-15T11:02:03.000Z</time>
      </trkpt>
      <trkpt lat="47.47673" lon="6.7696">
        <ele>311</ele>
        <time>2015-03-15T11:02:04.000Z</time>
      </trkpt>
      <trkpt lat="47.47676" lon="6.76953">
        <ele>311</ele>
        <time>2015-03-15T11:02:05.000Z</time>
      </trkpt>
      <trkpt lat="47.47679" lon="6.76944">
        <ele>311</ele>
        <time>2015-03-15T11:02:06.000Z</time>
      </trkpt>
      <trkpt lat="47.47681" lon="6.76936">
        <ele>311</ele>
        <time>2015-03-15T11:02:07.000Z</time>
      </trkpt>
      <trkpt lat="47.47684" lon="6.76929">
        <ele>311</ele>
        <time>2015-03-15T11:02:08.000Z</time>
      </trkpt>
      <trkpt lat="47.47687" lon="6.76923">
        <ele>311</ele>
        <time>2015-03-15T11:02:09.000Z</time>
      </trkpt>
      <trkpt lat="47.4769" lon="6.76916">
        <ele>311</ele>
        <time>2015-03-15T11:02:10.000Z</time>
      </trkpt>
      <trkpt lat="47.47694" lon="6.76912">
        <ele>311</ele>
        <time>2015-03-15T11:02:11.000Z</time>
      </trkpt>
      <trkpt lat="47.47698" lon="6.76905">
        <ele>311</ele>
        <time>2015-03-15T11:02:12.000Z</time>
      </trkpt>
      <trkpt lat="47.47701" lon="6.76899">
        <ele>311</ele>
        <time>2015-03-15T11:02:13.000Z</time>
      </trkpt>
      <trkpt lat="47.47705" lon="6.76891">
        <ele>311</ele>
        <time>2015-03-15T11:02:14.000Z</time>
      </trkpt>
      <trkpt lat="47.47709" lon="6.76885">
        <ele>311</ele>
        <time>2015-03-15T11:02:15.000Z</time>
      </trkpt>
      <trkpt lat="47.47711" lon="6.76877">
        <ele>311</ele>
        <time>2015-03-15T11:02:16.000Z</time>
      </trkpt>
      <trkpt lat="47.47714" lon="6.7687">
        <ele>311</ele>
        <time>2015-03-15T11:02:17.000Z</time>
      </trkpt>
      <trkpt lat="47.47717" lon="6.76863">
        <ele>311</ele>
        <time>2015-03-15T11:02:18.000Z</time>
      </trkpt>
      <trkpt lat="47.47719" lon="6.76856">
        <ele>311</ele>
        <time>2015-03-15T11:02:19.000Z</time>
      </trkpt>
      <trkpt lat="47.47722" lon="6.76849">
        <ele>311</ele>
        <time>2015-03-15T11:02:20.000Z</time>
      </trkpt>
      <trkpt lat="47.47724" lon="6.76841">
        <ele>311</ele>
        <time>2015-03-15T11:02:21.000Z</time>
      </trkpt>
      <trkpt lat="47.47728" lon="6.76833">
        <ele>311</ele>
        <time>2015-03-15T11:02:22.000Z</time>
      </trkpt>
      <trkpt lat="47.47731" lon="6.76826">
        <ele>311</ele>
        <time>2015-03-15T11:02:23.000Z</time>
      </trkpt>
      <trkpt lat="47.47734" lon="6.76819">
        <ele>311</ele>
        <time>2015-03-15T11:02:24.000Z</time>
      </trkpt>
      <trkpt lat="47.47736" lon="6.76814">
        <ele>311</ele>
        <time>2015-03-15T11:02:25.000Z</time>
      </trkpt>
      <trkpt lat="47.4774" lon="6.76809">
        <ele>311</ele>
        <time>2015-03-15T11:02:26.000Z</time>
      </trkpt>
      <trkpt lat="47.47746" lon="6.76806">
        <ele>311</ele>
        <time>2015-03-15T11:02:27.000Z</time>
      </trkpt>
      <trkpt lat="47.47749" lon="6.76803">
        <ele>311</ele>
        <time>2015-03-15T11:02:28.000Z</time>
      </trkpt>
      <trkpt lat="47.47752" lon="6.76802">
        <ele>311</ele>
        <time>2015-03-15T11:02:29.000Z</time>
      </trkpt>
      <trkpt lat="47.47755" lon="6.76801">
        <ele>311</ele>
        <time>2015-03-15T11:02:31.000Z</time>
      </trkpt>
      <trkpt lat="47.47759" lon="6.76802">
        <ele>311</ele>
        <time>2015-03-15T11:02:32.000Z</time>
      </trkpt>
      <trkpt lat="47.47763" lon="6.76803">
        <ele>311</ele>
        <time>2015-03-15T11:02:33.000Z</time>
      </trkpt>
      <trkpt lat="47.47768" lon="6.76803">
        <ele>311</ele>
        <time>2015-03-15T11:02:34.000Z</time>
      </trkpt>
      <trkpt lat="47.47772" lon="6.76805">
        <ele>311</ele>
        <time>2015-03-15T11:02:35.000Z</time>
      </trkpt>
      <trkpt lat="47.47777" lon="6.76806">
        <ele>311</ele>
        <time>2015-03-15T11:02:36.000Z</time>
      </trkpt>
      <trkpt lat="47.47782" lon="6.76809">
        <ele>311</ele>
        <time>2015-03-15T11:02:37.000Z</time>
      </trkpt>
      <trkpt lat="47.47787" lon="6.76812">
        <ele>311</ele>
        <time>2015-03-15T11:02:38.000Z</time>
      </trkpt>
      <trkpt lat="47.47793" lon="6.76815">
        <ele>310</ele>
        <time>2015-03-15T11:02:39.000Z</time>
      </trkpt>
      <trkpt lat="47.47798" lon="6.76818">
        <ele>310</ele>
        <time>2015-03-15T11:02:40.000Z</time>
      </trkpt>
      <trkpt lat="47.47802" lon="6.76822">
        <ele>310</ele>
        <time>2015-03-15T11:02:41.000Z</time>
      </trkpt>
      <trkpt lat="47.47807" lon="6.76824">
        <ele>310</ele>
        <time>2015-03-15T11:02:42.000Z</time>
      </trkpt>
      <trkpt lat="47.47812" lon="6.76826">
        <ele>310</ele>
        <time>2015-03-15T11:02:43.000Z</time>
      </trkpt>
      <trkpt lat="47.47815" lon="6.7683">
        <ele>310</ele>
        <time>2015-03-15T11:02:44.000Z</time>
      </trkpt>
      <trkpt lat="47.47819" lon="6.76832">
        <ele>310</ele>
        <time>2015-03-15T11:02:45.000Z</time>
      </trkpt>
      <trkpt lat="47.47828" lon="6.76833">
        <ele>310</ele>
        <time>2015-03-15T11:02:46.000Z</time>
      </trkpt>
      <trkpt lat="47.47833" lon="6.76834">
        <ele>310</ele>
        <time>2015-03-15T11:02:47.000Z</time>
      </trkpt>
      <trkpt lat="47.47838" lon="6.76821">
        <ele>311</ele>
        <time>2015-03-15T11:02:48.000Z</time>
      </trkpt>
      <trkpt lat="47.47843" lon="6.76813">
        <ele>311</ele>
        <time>2015-03-15T11:02:49.000Z</time>
      </trkpt>
      <trkpt lat="47.47847" lon="6.76802">
        <ele>311</ele>
        <time>2015-03-15T11:02:50.000Z</time>
      </trkpt>
      <trkpt lat="47.47849" lon="6.7679">
        <ele>311</ele>
        <time>2015-03-15T11:02:51.000Z</time>
      </trkpt>
      <trkpt lat="47.47854" lon="6.76779">
        <ele>311</ele>
        <time>2015-03-15T11:02:52.000Z</time>
      </trkpt>
      <trkpt lat="47.47856" lon="6.76773">
        <ele>311</ele>
        <time>2015-03-15T11:02:53.000Z</time>
      </trkpt>
      <trkpt lat="47.47861" lon="6.76765">
        <ele>311</ele>
        <time>2015-03-15T11:02:54.000Z</time>
      </trkpt>
      <trkpt lat="47.47864" lon="6.76753">
        <ele>311</ele>
        <time>2015-03-15T11:02:55.000Z</time>
      </trkpt>
      <trkpt lat="47.47867" lon="6.76745">
        <ele>310</ele>
        <time>2015-03-15T11:02:56.000Z</time>
      </trkpt>
      <trkpt lat="47.47871" lon="6.76738">
        <ele>310</ele>
        <time>2015-03-15T11:02:57.000Z</time>
      </trkpt>
      <trkpt lat="47.47875" lon="6.76731">
        <ele>310</ele>
        <time>2015-03-15T11:02:58.000Z</time>
      </trkpt>
      <trkpt lat="47.47877" lon="6.76721">
        <ele>310</ele>
        <time>2015-03-15T11:02:59.000Z</time>
      </trkpt>
      <trkpt lat="47.47879" lon="6.76714">
        <ele>310</ele>
        <time>2015-03-15T11:03:00.000Z</time>
      </trkpt>
      <trkpt lat="47.47883" lon="6.76705">
        <ele>310</ele>
        <time>2015-03-15T11:03:01.000Z</time>
      </trkpt>
      <trkpt lat="47.47887" lon="6.76698">
        <ele>310</ele>
        <time>2015-03-15T11:03:02.000Z</time>
      </trkpt>
      <trkpt lat="47.4789" lon="6.76692">
        <ele>310</ele>
        <time>2015-03-15T11:03:03.000Z</time>
      </trkpt>
      <trkpt lat="47.47894" lon="6.76687">
        <ele>310</ele>
        <time>2015-03-15T11:03:04.000Z</time>
      </trkpt>
      <trkpt lat="47.47898" lon="6.76682">
        <ele>310</ele>
        <time>2015-03-15T11:03:05.000Z</time>
      </trkpt>
      <trkpt lat="47.47902" lon="6.76677">
        <ele>311</ele>
        <time>2015-03-15T11:03:06.000Z</time>
      </trkpt>
      <trkpt lat="47.47906" lon="6.76672">
        <ele>311</ele>
        <time>2015-03-15T11:03:07.000Z</time>
      </trkpt>
      <trkpt lat="47.4791" lon="6.76666">
        <ele>311</ele>
        <time>2015-03-15T11:03:08.000Z</time>
      </trkpt>
      <trkpt lat="47.47914" lon="6.76661">
        <ele>311</ele>
        <time>2015-03-15T11:03:09.000Z</time>
      </trkpt>
      <trkpt lat="47.47916" lon="6.76655">
        <ele>311</ele>
        <time>2015-03-15T11:03:10.000Z</time>
      </trkpt>
      <trkpt lat="47.47919" lon="6.76651">
        <ele>311</ele>
        <time>2015-03-15T11:03:11.000Z</time>
      </trkpt>
      <trkpt lat="47.47923" lon="6.76649">
        <ele>311</ele>
        <time>2015-03-15T11:03:12.000Z</time>
      </trkpt>
      <trkpt lat="47.47927" lon="6.76648">
        <ele>311</ele>
        <time>2015-03-15T11:03:13.000Z</time>
      </trkpt>
      <trkpt lat="47.47933" lon="6.76648">
        <ele>311</ele>
        <time>2015-03-15T11:03:14.000Z</time>
      </trkpt>
      <trkpt lat="47.47936" lon="6.76646">
        <ele>311</ele>
        <time>2015-03-15T11:03:15.000Z</time>
      </trkpt>
      <trkpt lat="47.4794" lon="6.76645">
        <ele>311</ele>
        <time>2015-03-15T11:03:16.000Z</time>
      </trkpt>
      <trkpt lat="47.47943" lon="6.76643">
        <ele>311</ele>
        <time>2015-03-15T11:03:17.000Z</time>
      </trkpt>
      <trkpt lat="47.47946" lon="6.7664">
        <ele>311</ele>
        <time>2015-03-15T11:03:18.000Z</time>
      </trkpt>
      <trkpt lat="47.4795" lon="6.76636">
        <ele>311</ele>
        <time>2015-03-15T11:03:19.000Z</time>
      </trkpt>
      <trkpt lat="47.47954" lon="6.76634">
        <ele>311</ele>
        <time>2015-03-15T11:03:20.000Z</time>
      </trkpt>
      <trkpt lat="47.47958" lon="6.76633">
        <ele>311</ele>
        <time>2015-03-15T11:03:21.000Z</time>
      </trkpt>
      <trkpt lat="47.47961" lon="6.76632">
        <ele>311</ele>
        <time>2015-03-15T11:03:22.000Z</time>
      </trkpt>
      <trkpt lat="47.47965" lon="6.7663">
        <ele>311</ele>
        <time>2015-03-15T11:03:23.000Z</time>
      </trkpt>
      <trkpt lat="47.47968" lon="6.76629">
        <ele>311</ele>
        <time>2015-03-15T11:03:24.000Z</time>
      </trkpt>
      <trkpt lat="47.47972" lon="6.76627">
        <ele>311</ele>
        <time>2015-03-15T11:03:25.000Z</time>
      </trkpt>
      <trkpt lat="47.47976" lon="6.76626">
        <ele>311</ele>
        <time>2015-03-15T11:03:26.000Z</time>
      </trkpt>
      <trkpt lat="47.4798" lon="6.76626">
        <ele>311</ele>
        <time>2015-03-15T11:03:27.000Z</time>
      </trkpt>
      <trkpt lat="47.47984" lon="6.76624">
        <ele>311</ele>
        <time>2015-03-15T11:03:28.000Z</time>
      </trkpt>
      <trkpt lat="47.47988" lon="6.76622">
        <ele>311</ele>
        <time>2015-03-15T11:03:29.000Z</time>
      </trkpt>
      <trkpt lat="47.47992" lon="6.76619">
        <ele>312</ele>
        <time>2015-03-15T11:03:30.000Z</time>
      </trkpt>
      <trkpt lat="47.47995" lon="6.76617">
        <ele>312</ele>
        <time>2015-03-15T11:03:31.000Z</time>
      </trkpt>
      <trkpt lat="47.47999" lon="6.76615">
        <ele>312</ele>
        <time>2015-03-15T11:03:32.000Z</time>
      </trkpt>
      <trkpt lat="47.48003" lon="6.76612">
        <ele>312</ele>
        <time>2015-03-15T11:03:33.000Z</time>
      </trkpt>
      <trkpt lat="47.48007" lon="6.76609">
        <ele>312</ele>
        <time>2015-03-15T11:03:34.000Z</time>
      </trkpt>
      <trkpt lat="47.48012" lon="6.76606">
        <ele>312</ele>
        <time>2015-03-15T11:03:35.000Z</time>
      </trkpt>
      <trkpt lat="47.4802" lon="6.76598">
        <ele>312</ele>
        <time>2015-03-15T11:03:36.000Z</time>
      </trkpt>
      <trkpt lat="47.48024" lon="6.76593">
        <ele>312</ele>
        <time>2015-03-15T11:03:37.000Z</time>
      </trkpt>
      <trkpt lat="47.48028" lon="6.76589">
        <ele>312</ele>
        <time>2015-03-15T11:03:38.000Z</time>
      </trkpt>
      <trkpt lat="47.48034" lon="6.76587">
        <ele>312</ele>
        <time>2015-03-15T11:03:39.000Z</time>
      </trkpt>
      <trkpt lat="47.48038" lon="6.76583">
        <ele>312</ele>
        <time>2015-03-15T11:03:40.000Z</time>
      </trkpt>
      <trkpt lat="47.48042" lon="6.76578">
        <ele>312</ele>
        <time>2015-03-15T11:03:41.000Z</time>
      </trkpt>
      <trkpt lat="47.48047" lon="6.76574">
        <ele>312</ele>
        <time>2015-03-15T11:03:42.000Z</time>
      </trkpt>
      <trkpt lat="47.48051" lon="6.7657">
        <ele>312</ele>
        <time>2015-03-15T11:03:43.000Z</time>
      </trkpt>
      <trkpt lat="47.48055" lon="6.76567">
        <ele>312</ele>
        <time>2015-03-15T11:03:44.000Z</time>
      </trkpt>
      <trkpt lat="47.4806" lon="6.76558">
        <ele>312</ele>
        <time>2015-03-15T11:03:45.000Z</time>
      </trkpt>
      <trkpt lat="47.48064" lon="6.76553">
        <ele>312</ele>
        <time>2015-03-15T11:03:46.000Z</time>
      </trkpt>
      <trkpt lat="47.48069" lon="6.76549">
        <ele>312</ele>
        <time>2015-03-15T11:03:47.000Z</time>
      </trkpt>
      <trkpt lat="47.48073" lon="6.76545">
        <ele>312</ele>
        <time>2015-03-15T11:03:48.000Z</time>
      </trkpt>
      <trkpt lat="47.48077" lon="6.76541">
        <ele>312</ele>
        <time>2015-03-15T11:03:49.000Z</time>
      </trkpt>
      <trkpt lat="47.48081" lon="6.76537">
        <ele>312</ele>
        <time>2015-03-15T11:03:50.000Z</time>
      </trkpt>
      <trkpt lat="47.48086" lon="6.76533">
        <ele>317</ele>
        <time>2015-03-15T11:03:51.000Z</time>
      </trkpt>
      <trkpt lat="47.4809" lon="6.76529">
        <ele>317</ele>
        <time>2015-03-15T11:03:52.000Z</time>
      </trkpt>
      <trkpt lat="47.48094" lon="6.76523">
        <ele>317</ele>
        <time>2015-03-15T11:03:53.000Z</time>
      </trkpt>
      <trkpt lat="47.48098" lon="6.76519">
        <ele>318</ele>
        <time>2015-03-15T11:03:54.000Z</time>
      </trkpt>
      <trkpt lat="47.48102" lon="6.76515">
        <ele>318</ele>
        <time>2015-03-15T11:03:55.000Z</time>
      </trkpt>
      <trkpt lat="47.48104" lon="6.76519">
        <ele>318</ele>
        <time>2015-03-15T11:03:56.000Z</time>
      </trkpt>
      <trkpt lat="47.48106" lon="6.76523">
        <ele>319</ele>
        <time>2015-03-15T11:03:57.000Z</time>
      </trkpt>
      <trkpt lat="47.48109" lon="6.76528">
        <ele>319</ele>
        <time>2015-03-15T11:03:58.000Z</time>
      </trkpt>
      <trkpt lat="47.48112" lon="6.76533">
        <ele>319</ele>
        <time>2015-03-15T11:03:59.000Z</time>
      </trkpt>
      <trkpt lat="47.48115" lon="6.76537">
        <ele>319</ele>
        <time>2015-03-15T11:04:00.000Z</time>
      </trkpt>
      <trkpt lat="47.48117" lon="6.76543">
        <ele>319</ele>
        <time>2015-03-15T11:04:01.000Z</time>
      </trkpt>
      <trkpt lat="47.48118" lon="6.76549">
        <ele>319</ele>
        <time>2015-03-15T11:04:02.000Z</time>
      </trkpt>
      <trkpt lat="47.48118" lon="6.76554">
        <ele>319</ele>
        <time>2015-03-15T11:04:03.000Z</time>
      </trkpt>
      <trkpt lat="47.48117" lon="6.76561">
        <ele>318</ele>
        <time>2015-03-15T11:04:04.000Z</time>
      </trkpt>
      <trkpt lat="47.48112" lon="6.76567">
        <ele>318</ele>
        <time>2015-03-15T11:04:05.000Z</time>
      </trkpt>
      <trkpt lat="47.48109" lon="6.76572">
        <ele>317</ele>
        <time>2015-03-15T11:04:06.000Z</time>
      </trkpt>
      <trkpt lat="47.48105" lon="6.76577">
        <ele>316</ele>
        <time>2015-03-15T11:04:07.000Z</time>
      </trkpt>
      <trkpt lat="47.48103" lon="6.76584">
        <ele>313</ele>
        <time>2015-03-15T11:04:08.000Z</time>
      </trkpt>
      <trkpt lat="47.481" lon="6.76592">
        <ele>313</ele>
        <time>2015-03-15T11:04:09.000Z</time>
      </trkpt>
      <trkpt lat="47.48099" lon="6.76598">
        <ele>313</ele>
        <time>2015-03-15T11:04:10.000Z</time>
      </trkpt>
      <trkpt lat="47.48097" lon="6.76606">
        <ele>313</ele>
        <time>2015-03-15T11:04:11.000Z</time>
      </trkpt>
      <trkpt lat="47.48096" lon="6.76615">
        <ele>313</ele>
        <time>2015-03-15T11:04:12.000Z</time>
      </trkpt>
      <trkpt lat="47.48099" lon="6.76623">
        <ele>313</ele>
        <time>2015-03-15T11:04:13.000Z</time>
      </trkpt>
      <trkpt lat="47.481" lon="6.76629">
        <ele>313</ele>
        <time>2015-03-15T11:04:14.000Z</time>
      </trkpt>
      <trkpt lat="47.48102" lon="6.76637">
        <ele>313</ele>
        <time>2015-03-15T11:04:15.000Z</time>
      </trkpt>
      <trkpt lat="47.48104" lon="6.76644">
        <ele>312</ele>
        <time>2015-03-15T11:04:16.000Z</time>
      </trkpt>
      <trkpt lat="47.48106" lon="6.7665">
        <ele>312</ele>
        <time>2015-03-15T11:04:17.000Z</time>
      </trkpt>
      <trkpt lat="47.48109" lon="6.76657">
        <ele>312</ele>
        <time>2015-03-15T11:04:18.000Z</time>
      </trkpt>
      <trkpt lat="47.48112" lon="6.76663">
        <ele>312</ele>
        <time>2015-03-15T11:04:19.000Z</time>
      </trkpt>
      <trkpt lat="47.48115" lon="6.76668">
        <ele>312</ele>
        <time>2015-03-15T11:04:20.000Z</time>
      </trkpt>
      <trkpt lat="47.48118" lon="6.76673">
        <ele>312</ele>
        <time>2015-03-15T11:04:21.000Z</time>
      </trkpt>
      <trkpt lat="47.48117" lon="6.76679">
        <ele>312</ele>
        <time>2015-03-15T11:04:22.000Z</time>
      </trkpt>
      <trkpt lat="47.48119" lon="6.76685">
        <ele>312</ele>
        <time>2015-03-15T11:04:23.000Z</time>
      </trkpt>
      <trkpt lat="47.48122" lon="6.76693">
        <ele>312</ele>
        <time>2015-03-15T11:04:24.000Z</time>
      </trkpt>
      <trkpt lat="47.48125" lon="6.76701">
        <ele>312</ele>
        <time>2015-03-15T11:04:25.000Z</time>
      </trkpt>
      <trkpt lat="47.48129" lon="6.7671">
        <ele>312</ele>
        <time>2015-03-15T11:04:26.000Z</time>
      </trkpt>
      <trkpt lat="47.48135" lon="6.76717">
        <ele>312</ele>
        <time>2015-03-15T11:04:27.000Z</time>
      </trkpt>
      <trkpt lat="47.48137" lon="6.76725">
        <ele>312</ele>
        <time>2015-03-15T11:04:28.000Z</time>
      </trkpt>
      <trkpt lat="47.48141" lon="6.76732">
        <ele>312</ele>
        <time>2015-03-15T11:04:29.000Z</time>
      </trkpt>
      <trkpt lat="47.48145" lon="6.76738">
        <ele>312</ele>
        <time>2015-03-15T11:04:30.000Z</time>
      </trkpt>
      <trkpt lat="47.48151" lon="6.76744">
        <ele>313</ele>
        <time>2015-03-15T11:04:31.000Z</time>
      </trkpt>
      <trkpt lat="47.48154" lon="6.76751">
        <ele>313</ele>
        <time>2015-03-15T11:04:32.000Z</time>
      </trkpt>
      <trkpt lat="47.48158" lon="6.76757">
        <ele>313</ele>
        <time>2015-03-15T11:04:33.000Z</time>
      </trkpt>
      <trkpt lat="47.48162" lon="6.76761">
        <ele>313</ele>
        <time>2015-03-15T11:04:34.000Z</time>
      </trkpt>
      <trkpt lat="47.48169" lon="6.76765">
        <ele>313</ele>
        <time>2015-03-15T11:04:35.000Z</time>
      </trkpt>
      <trkpt lat="47.48174" lon="6.76769">
        <ele>312</ele>
        <time>2015-03-15T11:04:36.000Z</time>
      </trkpt>
      <trkpt lat="47.48178" lon="6.76774">
        <ele>312</ele>
        <time>2015-03-15T11:04:37.000Z</time>
      </trkpt>
      <trkpt lat="47.48183" lon="6.76779">
        <ele>312</ele>
        <time>2015-03-15T11:04:38.000Z</time>
      </trkpt>
      <trkpt lat="47.48188" lon="6.76783">
        <ele>312</ele>
        <time>2015-03-15T11:04:39.000Z</time>
      </trkpt>
      <trkpt lat="47.48193" lon="6.76786">
        <ele>312</ele>
        <time>2015-03-15T11:04:40.000Z</time>
      </trkpt>
      <trkpt lat="47.48197" lon="6.76789">
        <ele>312</ele>
        <time>2015-03-15T11:04:41.000Z</time>
      </trkpt>
      <trkpt lat="47.48201" lon="6.76793">
        <ele>312</ele>
        <time>2015-03-15T11:04:42.000Z</time>
      </trkpt>
      <trkpt lat="47.48206" lon="6.76795">
        <ele>312</ele>
        <time>2015-03-15T11:04:42.999Z</time>
      </trkpt>
      <trkpt lat="47.48211" lon="6.76797">
        <ele>312</ele>
        <time>2015-03-15T11:04:44.000Z</time>
      </trkpt>
      <trkpt lat="47.48217" lon="6.76799">
        <ele>312</ele>
        <time>2015-03-15T11:04:45.000Z</time>
      </trkpt>
      <trkpt lat="47.48221" lon="6.76802">
        <ele>312</ele>
        <time>2015-03-15T11:04:46.000Z</time>
      </trkpt>
      <trkpt lat="47.48226" lon="6.76805">
        <ele>312</ele>
        <time>2015-03-15T11:04:47.000Z</time>
      </trkpt>
      <trkpt lat="47.4823" lon="6.76808">
        <ele>312</ele>
        <time>2015-03-15T11:04:48.000Z</time>
      </trkpt>
      <trkpt lat="47.48232" lon="6.76809">
        <ele>312</ele>
        <time>2015-03-15T11:04:49.000Z</time>
      </trkpt>
      <trkpt lat="47.48235" lon="6.76815">
        <ele>312</ele>
        <time>2015-03-15T11:04:50.000Z</time>
      </trkpt>
      <trkpt lat="47.48238" lon="6.7682">
        <ele>312</ele>
        <time>2015-03-15T11:04:51.000Z</time>
      </trkpt>
      <trkpt lat="47.48243" lon="6.76826">
        <ele>311</ele>
        <time>2015-03-15T11:04:52.000Z</time>
      </trkpt>
      <trkpt lat="47.48248" lon="6.76832">
        <ele>311</ele>
        <time>2015-03-15T11:04:53.000Z</time>
      </trkpt>
      <trkpt lat="47.48252" lon="6.76836">
        <ele>311</ele>
        <time>2015-03-15T11:04:54.000Z</time>
      </trkpt>
      <trkpt lat="47.48256" lon="6.7684">
        <ele>311</ele>
        <time>2015-03-15T11:04:55.000Z</time>
      </trkpt>
      <trkpt lat="47.48258" lon="6.76848">
        <ele>311</ele>
        <time>2015-03-15T11:04:56.000Z</time>
      </trkpt>
      <trkpt lat="47.48263" lon="6.76854">
        <ele>311</ele>
        <time>2015-03-15T11:04:57.000Z</time>
      </trkpt>
      <trkpt lat="47.48268" lon="6.76859">
        <ele>310</ele>
        <time>2015-03-15T11:04:58.000Z</time>
      </trkpt>
      <trkpt lat="47.48271" lon="6.76864">
        <ele>310</ele>
        <time>2015-03-15T11:04:59.001Z</time>
      </trkpt>
      <trkpt lat="47.48277" lon="6.76872">
        <ele>310</ele>
        <time>2015-03-15T11:05:00.000Z</time>
      </trkpt>
      <trkpt lat="47.48283" lon="6.76877">
        <ele>310</ele>
        <time>2015-03-15T11:05:01.000Z</time>
      </trkpt>
      <trkpt lat="47.48288" lon="6.76883">
        <ele>310</ele>
        <time>2015-03-15T11:05:02.001Z</time>
      </trkpt>
      <trkpt lat="47.48294" lon="6.76885">
        <ele>310</ele>
        <time>2015-03-15T11:05:03.000Z</time>
      </trkpt>
      <trkpt lat="47.483" lon="6.76891">
        <ele>310</ele>
        <time>2015-03-15T11:05:04.000Z</time>
      </trkpt>
      <trkpt lat="47.48305" lon="6.76896">
        <ele>310</ele>
        <time>2015-03-15T11:05:05.000Z</time>
      </trkpt>
      <trkpt lat="47.4831" lon="6.76901">
        <ele>310</ele>
        <time>2015-03-15T11:05:06.000Z</time>
      </trkpt>
      <trkpt lat="47.48315" lon="6.76904">
        <ele>310</ele>
        <time>2015-03-15T11:05:07.000Z</time>
      </trkpt>
      <trkpt lat="47.4832" lon="6.76908">
        <ele>310</ele>
        <time>2015-03-15T11:05:08.000Z</time>
      </trkpt>
      <trkpt lat="47.48325" lon="6.76914">
        <ele>309</ele>
        <time>2015-03-15T11:05:09.000Z</time>
      </trkpt>
      <trkpt lat="47.4833" lon="6.76918">
        <ele>309</ele>
        <time>2015-03-15T11:05:09.999Z</time>
      </trkpt>
      <trkpt lat="47.48334" lon="6.76923">
        <ele>310</ele>
        <time>2015-03-15T11:05:11.000Z</time>
      </trkpt>
      <trkpt lat="47.4834" lon="6.76926">
        <ele>310</ele>
        <time>2015-03-15T11:05:12.000Z</time>
      </trkpt>
      <trkpt lat="47.48346" lon="6.7693">
        <ele>311</ele>
        <time>2015-03-15T11:05:13.000Z</time>
      </trkpt>
      <trkpt lat="47.48351" lon="6.76934">
        <ele>311</ele>
        <time>2015-03-15T11:05:14.000Z</time>
      </trkpt>
      <trkpt lat="47.48355" lon="6.76937">
        <ele>311</ele>
        <time>2015-03-15T11:05:15.000Z</time>
      </trkpt>
      <trkpt lat="47.48359" lon="6.7694">
        <ele>311</ele>
        <time>2015-03-15T11:05:16.000Z</time>
      </trkpt>
      <trkpt lat="47.48364" lon="6.76942">
        <ele>312</ele>
        <time>2015-03-15T11:05:17.000Z</time>
      </trkpt>
      <trkpt lat="47.48367" lon="6.76945">
        <ele>312</ele>
        <time>2015-03-15T11:05:18.000Z</time>
      </trkpt>
      <trkpt lat="47.48371" lon="6.76947">
        <ele>312</ele>
        <time>2015-03-15T11:05:19.000Z</time>
      </trkpt>
      <trkpt lat="47.48375" lon="6.76951">
        <ele>312</ele>
        <time>2015-03-15T11:05:20.001Z</time>
      </trkpt>
      <trkpt lat="47.48378" lon="6.76955">
        <ele>312</ele>
        <time>2015-03-15T11:05:21.000Z</time>
      </trkpt>
      <trkpt lat="47.48384" lon="6.76956">
        <ele>312</ele>
        <time>2015-03-15T11:05:22.000Z</time>
      </trkpt>
      <trkpt lat="47.48388" lon="6.76957">
        <ele>312</ele>
        <time>2015-03-15T11:05:23.000Z</time>
      </trkpt>
      <trkpt lat="47.48394" lon="6.76959">
        <ele>312</ele>
        <time>2015-03-15T11:05:24.000Z</time>
      </trkpt>
      <trkpt lat="47.48399" lon="6.76963">
        <ele>312</ele>
        <time>2015-03-15T11:05:25.000Z</time>
      </trkpt>
      <trkpt lat="47.48404" lon="6.76966">
        <ele>312</ele>
        <time>2015-03-15T11:05:26.000Z</time>
      </trkpt>
      <trkpt lat="47.48409" lon="6.76968">
        <ele>312</ele>
        <time>2015-03-15T11:05:27.000Z</time>
      </trkpt>
      <trkpt lat="47.48413" lon="6.7697">
        <ele>312</ele>
        <time>2015-03-15T11:05:28.000Z</time>
      </trkpt>
      <trkpt lat="47.48419" lon="6.76971">
        <ele>314</ele>
        <time>2015-03-15T11:05:29.000Z</time>
      </trkpt>
      <trkpt lat="47.48423" lon="6.7697">
        <ele>314</ele>
        <time>2015-03-15T11:05:30.000Z</time>
      </trkpt>
      <trkpt lat="47.48428" lon="6.76975">
        <ele>314</ele>
        <time>2015-03-15T11:05:31.000Z</time>
      </trkpt>
      <trkpt lat="47.48433" lon="6.76979">
        <ele>314</ele>
        <time>2015-03-15T11:05:32.001Z</time>
      </trkpt>
      <trkpt lat="47.48438" lon="6.76983">
        <ele>314</ele>
        <time>2015-03-15T11:05:33.000Z</time>
      </trkpt>
      <trkpt lat="47.48443" lon="6.76986">
        <ele>314</ele>
        <time>2015-03-15T11:05:34.000Z</time>
      </trkpt>
      <trkpt lat="47.48449" lon="6.76986">
        <ele>315</ele>
        <time>2015-03-15T11:05:35.000Z</time>
      </trkpt>
      <trkpt lat="47.48455" lon="6.76989">
        <ele>315</ele>
        <time>2015-03-15T11:05:36.000Z</time>
      </trkpt>
      <trkpt lat="47.4846" lon="6.76991">
        <ele>315</ele>
        <time>2015-03-15T11:05:37.000Z</time>
      </trkpt>
      <trkpt lat="47.48463" lon="6.76996">
        <ele>315</ele>
        <time>2015-03-15T11:05:38.000Z</time>
      </trkpt>
      <trkpt lat="47.48468" lon="6.77">
        <ele>315</ele>
        <time>2015-03-15T11:05:39.000Z</time>
      </trkpt>
      <trkpt lat="47.48471" lon="6.77001">
        <ele>314</ele>
        <time>2015-03-15T11:05:40.000Z</time>
      </trkpt>
      <trkpt lat="47.48477" lon="6.77006">
        <ele>314</ele>
        <time>2015-03-15T11:05:41.000Z</time>
      </trkpt>
      <trkpt lat="47.48481" lon="6.77009">
        <ele>314</ele>
        <time>2015-03-15T11:05:42.000Z</time>
      </trkpt>
      <trkpt lat="47.48485" lon="6.7701">
        <ele>315</ele>
        <time>2015-03-15T11:05:43.000Z</time>
      </trkpt>
      <trkpt lat="47.48489" lon="6.77013">
        <ele>315</ele>
        <time>2015-03-15T11:05:44.000Z</time>
      </trkpt>
      <trkpt lat="47.48493" lon="6.77015">
        <ele>315</ele>
        <time>2015-03-15T11:05:45.000Z</time>
      </trkpt>
      <trkpt lat="47.48496" lon="6.77018">
        <ele>315</ele>
        <time>2015-03-15T11:05:46.000Z</time>
      </trkpt>
      <trkpt lat="47.485" lon="6.77021">
        <ele>314</ele>
        <time>2015-03-15T11:05:47.000Z</time>
      </trkpt>
      <trkpt lat="47.48504" lon="6.77025">
        <ele>315</ele>
        <time>2015-03-15T11:05:48.000Z</time>
      </trkpt>
      <trkpt lat="47.48509" lon="6.77029">
        <ele>314</ele>
        <time>2015-03-15T11:05:49.000Z</time>
      </trkpt>
      <trkpt lat="47.48514" lon="6.77033">
        <ele>314</ele>
        <time>2015-03-15T11:05:50.000Z</time>
      </trkpt>
      <trkpt lat="47.48518" lon="6.77037">
        <ele>314</ele>
        <time>2015-03-15T11:05:51.000Z</time>
      </trkpt>
      <trkpt lat="47.48524" lon="6.7704">
        <ele>314</ele>
        <time>2015-03-15T11:05:52.000Z</time>
      </trkpt>
      <trkpt lat="47.48528" lon="6.77043">
        <ele>314</ele>
        <time>2015-03-15T11:05:53.000Z</time>
      </trkpt>
      <trkpt lat="47.48532" lon="6.77046">
        <ele>314</ele>
        <time>2015-03-15T11:05:54.000Z</time>
      </trkpt>
      <trkpt lat="47.48537" lon="6.77049">
        <ele>314</ele>
        <time>2015-03-15T11:05:55.000Z</time>
      </trkpt>
      <trkpt lat="47.48543" lon="6.77051">
        <ele>314</ele>
        <time>2015-03-15T11:05:56.000Z</time>
      </trkpt>
      <trkpt lat="47.48548" lon="6.77051">
        <ele>314</ele>
        <time>2015-03-15T11:05:57.000Z</time>
      </trkpt>
      <trkpt lat="47.48552" lon="6.77052">
        <ele>314</ele>
        <time>2015-03-15T11:05:58.000Z</time>
      </trkpt>
      <trkpt lat="47.48556" lon="6.7705">
        <ele>314</ele>
        <time>2015-03-15T11:05:59.000Z</time>
      </trkpt>
      <trkpt lat="47.48559" lon="6.77051">
        <ele>314</ele>
        <time>2015-03-15T11:06:00.000Z</time>
      </trkpt>
      <trkpt lat="47.48563" lon="6.77053">
        <ele>314</ele>
        <time>2015-03-15T11:06:01.000Z</time>
      </trkpt>
      <trkpt lat="47.48567" lon="6.77055">
        <ele>314</ele>
        <time>2015-03-15T11:06:02.000Z</time>
      </trkpt>
      <trkpt lat="47.48573" lon="6.77057">
        <ele>314</ele>
        <time>2015-03-15T11:06:03.000Z</time>
      </trkpt>
      <trkpt lat="47.48577" lon="6.77059">
        <ele>314</ele>
        <time>2015-03-15T11:06:04.000Z</time>
      </trkpt>
      <trkpt lat="47.48581" lon="6.77062">
        <ele>314</ele>
        <time>2015-03-15T11:06:05.000Z</time>
      </trkpt>
      <trkpt lat="47.48585" lon="6.77065">
        <ele>313</ele>
        <time>2015-03-15T11:06:06.000Z</time>
      </trkpt>
      <trkpt lat="47.4859" lon="6.77069">
        <ele>313</ele>
        <time>2015-03-15T11:06:07.000Z</time>
      </trkpt>
      <trkpt lat="47.48593" lon="6.77071">
        <ele>313</ele>
        <time>2015-03-15T11:06:08.000Z</time>
      </trkpt>
      <trkpt lat="47.48598" lon="6.77074">
        <ele>313</ele>
        <time>2015-03-15T11:06:09.000Z</time>
      </trkpt>
      <trkpt lat="47.48602" lon="6.77075">
        <ele>313</ele>
        <time>2015-03-15T11:06:10.000Z</time>
      </trkpt>
      <trkpt lat="47.48606" lon="6.77075">
        <ele>313</ele>
        <time>2015-03-15T11:06:11.000Z</time>
      </trkpt>
      <trkpt lat="47.48611" lon="6.77076">
        <ele>313</ele>
        <time>2015-03-15T11:06:11.999Z</time>
      </trkpt>
      <trkpt lat="47.48614" lon="6.7708">
        <ele>313</ele>
        <time>2015-03-15T11:06:13.000Z</time>
      </trkpt>
      <trkpt lat="47.48618" lon="6.77082">
        <ele>313</ele>
        <time>2015-03-15T11:06:14.000Z</time>
      </trkpt>
      <trkpt lat="47.48623" lon="6.77084">
        <ele>312</ele>
        <time>2015-03-15T11:06:14.999Z</time>
      </trkpt>
      <trkpt lat="47.48626" lon="6.77083">
        <ele>313</ele>
        <time>2015-03-15T11:06:16.000Z</time>
      </trkpt>
      <trkpt lat="47.48631" lon="6.77083">
        <ele>313</ele>
        <time>2015-03-15T11:06:17.000Z</time>
      </trkpt>
      <trkpt lat="47.48633" lon="6.77085">
        <ele>312</ele>
        <time>2015-03-15T11:06:18.000Z</time>
      </trkpt>
      <trkpt lat="47.48637" lon="6.77091">
        <ele>312</ele>
        <time>2015-03-15T11:06:19.000Z</time>
      </trkpt>
      <trkpt lat="47.48641" lon="6.77097">
        <ele>312</ele>
        <time>2015-03-15T11:06:20.000Z</time>
      </trkpt>
      <trkpt lat="47.48645" lon="6.77103">
        <ele>312</ele>
        <time>2015-03-15T11:06:21.000Z</time>
      </trkpt>
      <trkpt lat="47.4865" lon="6.77109">
        <ele>312</ele>
        <time>2015-03-15T11:06:22.000Z</time>
      </trkpt>
      <trkpt lat="47.48654" lon="6.77114">
        <ele>312</ele>
        <time>2015-03-15T11:06:23.000Z</time>
      </trkpt>
      <trkpt lat="47.48656" lon="6.7712">
        <ele>312</ele>
        <time>2015-03-15T11:06:24.000Z</time>
      </trkpt>
      <trkpt lat="47.4866" lon="6.77126">
        <ele>312</ele>
        <time>2015-03-15T11:06:25.000Z</time>
      </trkpt>
      <trkpt lat="47.48663" lon="6.77132">
        <ele>312</ele>
        <time>2015-03-15T11:06:26.000Z</time>
      </trkpt>
      <trkpt lat="47.48667" lon="6.77138">
        <ele>312</ele>
        <time>2015-03-15T11:06:27.000Z</time>
      </trkpt>
      <trkpt lat="47.4867" lon="6.77143">
        <ele>311</ele>
        <time>2015-03-15T11:06:28.000Z</time>
      </trkpt>
      <trkpt lat="47.48674" lon="6.77147">
        <ele>311</ele>
        <time>2015-03-15T11:06:29.000Z</time>
      </trkpt>
      <trkpt lat="47.48677" lon="6.77152">
        <ele>311</ele>
        <time>2015-03-15T11:06:30.000Z</time>
      </trkpt>
      <trkpt lat="47.4868" lon="6.77156">
        <ele>311</ele>
        <time>2015-03-15T11:06:31.000Z</time>
      </trkpt>
      <trkpt lat="47.48683" lon="6.77159">
        <ele>311</ele>
        <time>2015-03-15T11:06:32.000Z</time>
      </trkpt>
      <trkpt lat="47.48687" lon="6.77162">
        <ele>311</ele>
        <time>2015-03-15T11:06:33.000Z</time>
      </trkpt>
      <trkpt lat="47.48691" lon="6.77165">
        <ele>311</ele>
        <time>2015-03-15T11:06:34.000Z</time>
      </trkpt>
      <trkpt lat="47.48696" lon="6.77168">
        <ele>311</ele>
        <time>2015-03-15T11:06:35.000Z</time>
      </trkpt>
      <trkpt lat="47.487" lon="6.77172">
        <ele>311</ele>
        <time>2015-03-15T11:06:36.000Z</time>
      </trkpt>
      <trkpt lat="47.48702" lon="6.77174">
        <ele>311</ele>
        <time>2015-03-15T11:06:37.000Z</time>
      </trkpt>
      <trkpt lat="47.48707" lon="6.77176">
        <ele>311</ele>
        <time>2015-03-15T11:06:38.000Z</time>
      </trkpt>
      <trkpt lat="47.48711" lon="6.77179">
        <ele>310</ele>
        <time>2015-03-15T11:06:39.000Z</time>
      </trkpt>
      <trkpt lat="47.48716" lon="6.77183">
        <ele>310</ele>
        <time>2015-03-15T11:06:40.000Z</time>
      </trkpt>
      <trkpt lat="47.4872" lon="6.77187">
        <ele>310</ele>
        <time>2015-03-15T11:06:41.000Z</time>
      </trkpt>
      <trkpt lat="47.48724" lon="6.7719">
        <ele>310</ele>
        <time>2015-03-15T11:06:42.000Z</time>
      </trkpt>
      <trkpt lat="47.48728" lon="6.77193">
        <ele>310</ele>
        <time>2015-03-15T11:06:43.000Z</time>
      </trkpt>
      <trkpt lat="47.48731" lon="6.77197">
        <ele>310</ele>
        <time>2015-03-15T11:06:44.000Z</time>
      </trkpt>
      <trkpt lat="47.48735" lon="6.77201">
        <ele>310</ele>
        <time>2015-03-15T11:06:45.000Z</time>
      </trkpt>
      <trkpt lat="47.48738" lon="6.77206">
        <ele>310</ele>
        <time>2015-03-15T11:06:46.000Z</time>
      </trkpt>
      <trkpt lat="47.48743" lon="6.77208">
        <ele>310</ele>
        <time>2015-03-15T11:06:47.000Z</time>
      </trkpt>
      <trkpt lat="47.48748" lon="6.77212">
        <ele>310</ele>
        <time>2015-03-15T11:06:48.000Z</time>
      </trkpt>
      <trkpt lat="47.48751" lon="6.77215">
        <ele>310</ele>
        <time>2015-03-15T11:06:49.000Z</time>
      </trkpt>
      <trkpt lat="47.48755" lon="6.77218">
        <ele>310</ele>
        <time>2015-03-15T11:06:50.000Z</time>
      </trkpt>
      <trkpt lat="47.48758" lon="6.77222">
        <ele>310</ele>
        <time>2015-03-15T11:06:51.000Z</time>
      </trkpt>
      <trkpt lat="47.48763" lon="6.77224">
        <ele>310</ele>
        <time>2015-03-15T11:06:52.000Z</time>
      </trkpt>
      <trkpt lat="47.48766" lon="6.77228">
        <ele>310</ele>
        <time>2015-03-15T11:06:53.000Z</time>
      </trkpt>
      <trkpt lat="47.48769" lon="6.77235">
        <ele>310</ele>
        <time>2015-03-15T11:06:54.000Z</time>
      </trkpt>
      <trkpt lat="47.48773" lon="6.77239">
        <ele>310</ele>
        <time>2015-03-15T11:06:55.000Z</time>
      </trkpt>
      <trkpt lat="47.48775" lon="6.77244">
        <ele>310</ele>
        <time>2015-03-15T11:06:56.000Z</time>
      </trkpt>
      <trkpt lat="47.48779" lon="6.77248">
        <ele>310</ele>
        <time>2015-03-15T11:06:57.000Z</time>
      </trkpt>
      <trkpt lat="47.48782" lon="6.77252">
        <ele>310</ele>
        <time>2015-03-15T11:06:58.000Z</time>
      </trkpt>
      <trkpt lat="47.48786" lon="6.77253">
        <ele>310</ele>
        <time>2015-03-15T11:06:59.000Z</time>
      </trkpt>
      <trkpt lat="47.48791" lon="6.77253">
        <ele>310</ele>
        <time>2015-03-15T11:07:00.000Z</time>
      </trkpt>
      <trkpt lat="47.48794" lon="6.77256">
        <ele>310</ele>
        <time>2015-03-15T11:07:01.000Z</time>
      </trkpt>
      <trkpt lat="47.48799" lon="6.77259">
        <ele>310</ele>
        <time>2015-03-15T11:07:02.000Z</time>
      </trkpt>
      <trkpt lat="47.48803" lon="6.77263">
        <ele>310</ele>
        <time>2015-03-15T11:07:03.001Z</time>
      </trkpt>
      <trkpt lat="47.48805" lon="6.7727">
        <ele>310</ele>
        <time>2015-03-15T11:07:04.000Z</time>
      </trkpt>
      <trkpt lat="47.48808" lon="6.77276">
        <ele>310</ele>
        <time>2015-03-15T11:07:05.000Z</time>
      </trkpt>
      <trkpt lat="47.48811" lon="6.77277">
        <ele>310</ele>
        <time>2015-03-15T11:07:06.000Z</time>
      </trkpt>
      <trkpt lat="47.48817" lon="6.77278">
        <ele>310</ele>
        <time>2015-03-15T11:07:07.000Z</time>
      </trkpt>
      <trkpt lat="47.48821" lon="6.77281">
        <ele>310</ele>
        <time>2015-03-15T11:07:07.999Z</time>
      </trkpt>
      <trkpt lat="47.48826" lon="6.77284">
        <ele>310</ele>
        <time>2015-03-15T11:07:09.000Z</time>
      </trkpt>
      <trkpt lat="47.48828" lon="6.77288">
        <ele>310</ele>
        <time>2015-03-15T11:07:10.000Z</time>
      </trkpt>
      <trkpt lat="47.48832" lon="6.77292">
        <ele>310</ele>
        <time>2015-03-15T11:07:10.999Z</time>
      </trkpt>
      <trkpt lat="47.48835" lon="6.77297">
        <ele>310</ele>
        <time>2015-03-15T11:07:12.000Z</time>
      </trkpt>
      <trkpt lat="47.48841" lon="6.77297">
        <ele>310</ele>
        <time>2015-03-15T11:07:13.000Z</time>
      </trkpt>
      <trkpt lat="47.48845" lon="6.77302">
        <ele>310</ele>
        <time>2015-03-15T11:07:14.000Z</time>
      </trkpt>
      <trkpt lat="47.4885" lon="6.77305">
        <ele>310</ele>
        <time>2015-03-15T11:07:15.000Z</time>
      </trkpt>
      <trkpt lat="47.48854" lon="6.77308">
        <ele>310</ele>
        <time>2015-03-15T11:07:16.000Z</time>
      </trkpt>
      <trkpt lat="47.48862" lon="6.77299">
        <ele>310</ele>
        <time>2015-03-15T11:07:17.000Z</time>
      </trkpt>
      <trkpt lat="47.48865" lon="6.77301">
        <ele>310</ele>
        <time>2015-03-15T11:07:18.000Z</time>
      </trkpt>
      <trkpt lat="47.48866" lon="6.77307">
        <ele>310</ele>
        <time>2015-03-15T11:07:19.000Z</time>
      </trkpt>
      <trkpt lat="47.48868" lon="6.77311">
        <ele>310</ele>
        <time>2015-03-15T11:07:20.000Z</time>
      </trkpt>
      <trkpt lat="47.48873" lon="6.77312">
        <ele>310</ele>
        <time>2015-03-15T11:07:21.000Z</time>
      </trkpt>
      <trkpt lat="47.48877" lon="6.77315">
        <ele>310</ele>
        <time>2015-03-15T11:07:22.000Z</time>
      </trkpt>
      <trkpt lat="47.48882" lon="6.77314">
        <ele>310</ele>
        <time>2015-03-15T11:07:23.000Z</time>
      </trkpt>
      <trkpt lat="47.48886" lon="6.77315">
        <ele>310</ele>
        <time>2015-03-15T11:07:23.999Z</time>
      </trkpt>
      <trkpt lat="47.48891" lon="6.77317">
        <ele>310</ele>
        <time>2015-03-15T11:07:25.000Z</time>
      </trkpt>
      <trkpt lat="47.48896" lon="6.77318">
        <ele>310</ele>
        <time>2015-03-15T11:07:26.000Z</time>
      </trkpt>
      <trkpt lat="47.489" lon="6.77319">
        <ele>310</ele>
        <time>2015-03-15T11:07:27.000Z</time>
      </trkpt>
      <trkpt lat="47.48905" lon="6.7732">
        <ele>310</ele>
        <time>2015-03-15T11:07:28.000Z</time>
      </trkpt>
      <trkpt lat="47.48907" lon="6.77322">
        <ele>310</ele>
        <time>2015-03-15T11:07:29.000Z</time>
      </trkpt>
      <trkpt lat="47.48911" lon="6.77323">
        <ele>310</ele>
        <time>2015-03-15T11:07:30.000Z</time>
      </trkpt>
      <trkpt lat="47.48915" lon="6.77325">
        <ele>310</ele>
        <time>2015-03-15T11:07:31.000Z</time>
      </trkpt>
      <trkpt lat="47.4892" lon="6.77328">
        <ele>310</ele>
        <time>2015-03-15T11:07:32.000Z</time>
      </trkpt>
      <trkpt lat="47.48924" lon="6.7733">
        <ele>310</ele>
        <time>2015-03-15T11:07:32.998Z</time>
      </trkpt>
      <trkpt lat="47.48925" lon="6.77337">
        <ele>310</ele>
        <time>2015-03-15T11:07:34.000Z</time>
      </trkpt>
      <trkpt lat="47.48927" lon="6.77343">
        <ele>310</ele>
        <time>2015-03-15T11:07:35.000Z</time>
      </trkpt>
      <trkpt lat="47.4893" lon="6.77346">
        <ele>310</ele>
        <time>2015-03-15T11:07:36.000Z</time>
      </trkpt>
      <trkpt lat="47.48933" lon="6.7735">
        <ele>310</ele>
        <time>2015-03-15T11:07:37.000Z</time>
      </trkpt>
      <trkpt lat="47.4894" lon="6.77351">
        <ele>310</ele>
        <time>2015-03-15T11:07:38.000Z</time>
      </trkpt>
      <trkpt lat="47.48945" lon="6.77353">
        <ele>310</ele>
        <time>2015-03-15T11:07:38.999Z</time>
      </trkpt>
      <trkpt lat="47.48952" lon="6.77351">
        <ele>310</ele>
        <time>2015-03-15T11:07:40.000Z</time>
      </trkpt>
      <trkpt lat="47.48956" lon="6.77349">
        <ele>310</ele>
        <time>2015-03-15T11:07:41.000Z</time>
      </trkpt>
      <trkpt lat="47.48961" lon="6.7735">
        <ele>311</ele>
        <time>2015-03-15T11:07:42.000Z</time>
      </trkpt>
      <trkpt lat="47.48966" lon="6.77351">
        <ele>311</ele>
        <time>2015-03-15T11:07:43.000Z</time>
      </trkpt>
      <trkpt lat="47.4897" lon="6.77354">
        <ele>311</ele>
        <time>2015-03-15T11:07:44.000Z</time>
      </trkpt>
      <trkpt lat="47.48976" lon="6.7735">
        <ele>311</ele>
        <time>2015-03-15T11:07:45.000Z</time>
      </trkpt>
      <trkpt lat="47.48981" lon="6.77349">
        <ele>311</ele>
        <time>2015-03-15T11:07:46.000Z</time>
      </trkpt>
      <trkpt lat="47.48986" lon="6.77347">
        <ele>311</ele>
        <time>2015-03-15T11:07:47.000Z</time>
      </trkpt>
      <trkpt lat="47.48992" lon="6.77348">
        <ele>311</ele>
        <time>2015-03-15T11:07:48.000Z</time>
      </trkpt>
      <trkpt lat="47.48997" lon="6.77348">
        <ele>311</ele>
        <time>2015-03-15T11:07:49.000Z</time>
      </trkpt>
      <trkpt lat="47.49002" lon="6.77347">
        <ele>311</ele>
        <time>2015-03-15T11:07:50.000Z</time>
      </trkpt>
      <trkpt lat="47.49006" lon="6.77349">
        <ele>311</ele>
        <time>2015-03-15T11:07:51.000Z</time>
      </trkpt>
      <trkpt lat="47.49011" lon="6.77348">
        <ele>311</ele>
        <time>2015-03-15T11:07:52.000Z</time>
      </trkpt>
      <trkpt lat="47.49017" lon="6.77344">
        <ele>311</ele>
        <time>2015-03-15T11:07:53.000Z</time>
      </trkpt>
      <trkpt lat="47.49021" lon="6.77344">
        <ele>311</ele>
        <time>2015-03-15T11:07:54.000Z</time>
      </trkpt>
      <trkpt lat="47.49026" lon="6.77345">
        <ele>311</ele>
        <time>2015-03-15T11:07:55.000Z</time>
      </trkpt>
      <trkpt lat="47.4903" lon="6.77348">
        <ele>311</ele>
        <time>2015-03-15T11:07:56.000Z</time>
      </trkpt>
      <trkpt lat="47.49035" lon="6.77348">
        <ele>311</ele>
        <time>2015-03-15T11:07:57.000Z</time>
      </trkpt>
      <trkpt lat="47.49039" lon="6.7735">
        <ele>311</ele>
        <time>2015-03-15T11:07:58.000Z</time>
      </trkpt>
      <trkpt lat="47.49043" lon="6.7735">
        <ele>311</ele>
        <time>2015-03-15T11:07:59.000Z</time>
      </trkpt>
      <trkpt lat="47.4905" lon="6.77349">
        <ele>311</ele>
        <time>2015-03-15T11:08:00.000Z</time>
      </trkpt>
      <trkpt lat="47.49055" lon="6.7735">
        <ele>311</ele>
        <time>2015-03-15T11:08:01.000Z</time>
      </trkpt>
      <trkpt lat="47.4906" lon="6.77351">
        <ele>311</ele>
        <time>2015-03-15T11:08:02.000Z</time>
      </trkpt>
      <trkpt lat="47.49065" lon="6.77352">
        <ele>311</ele>
        <time>2015-03-15T11:08:03.000Z</time>
      </trkpt>
      <trkpt lat="47.49069" lon="6.77353">
        <ele>311</ele>
        <time>2015-03-15T11:08:04.000Z</time>
      </trkpt>
      <trkpt lat="47.49074" lon="6.77355">
        <ele>311</ele>
        <time>2015-03-15T11:08:05.000Z</time>
      </trkpt>
      <trkpt lat="47.49077" lon="6.77358">
        <ele>311</ele>
        <time>2015-03-15T11:08:06.000Z</time>
      </trkpt>
      <trkpt lat="47.49082" lon="6.77356">
        <ele>311</ele>
        <time>2015-03-15T11:08:07.000Z</time>
      </trkpt>
      <trkpt lat="47.49087" lon="6.77357">
        <ele>310</ele>
        <time>2015-03-15T11:08:08.000Z</time>
      </trkpt>
      <trkpt lat="47.49091" lon="6.77357">
        <ele>310</ele>
        <time>2015-03-15T11:08:09.000Z</time>
      </trkpt>
      <trkpt lat="47.49095" lon="6.77358">
        <ele>310</ele>
        <time>2015-03-15T11:08:10.000Z</time>
      </trkpt>
      <trkpt lat="47.491" lon="6.77358">
        <ele>310</ele>
        <time>2015-03-15T11:08:11.000Z</time>
      </trkpt>
      <trkpt lat="47.49104" lon="6.77357">
        <ele>310</ele>
        <time>2015-03-15T11:08:12.000Z</time>
      </trkpt>
      <trkpt lat="47.49107" lon="6.77358">
        <ele>310</ele>
        <time>2015-03-15T11:08:13.000Z</time>
      </trkpt>
      <trkpt lat="47.49111" lon="6.77358">
        <ele>310</ele>
        <time>2015-03-15T11:08:14.000Z</time>
      </trkpt>
      <trkpt lat="47.49114" lon="6.77357">
        <ele>310</ele>
        <time>2015-03-15T11:08:15.000Z</time>
      </trkpt>
      <trkpt lat="47.49118" lon="6.77356">
        <ele>310</ele>
        <time>2015-03-15T11:08:16.000Z</time>
      </trkpt>
      <trkpt lat="47.49122" lon="6.77355">
        <ele>310</ele>
        <time>2015-03-15T11:08:17.000Z</time>
      </trkpt>
      <trkpt lat="47.49126" lon="6.77355">
        <ele>310</ele>
        <time>2015-03-15T11:08:18.000Z</time>
      </trkpt>
      <trkpt lat="47.4913" lon="6.77356">
        <ele>310</ele>
        <time>2015-03-15T11:08:19.000Z</time>
      </trkpt>
      <trkpt lat="47.49135" lon="6.77356">
        <ele>310</ele>
        <time>2015-03-15T11:08:20.000Z</time>
      </trkpt>
      <trkpt lat="47.49139" lon="6.77355">
        <ele>310</ele>
        <time>2015-03-15T11:08:21.000Z</time>
      </trkpt>
      <trkpt lat="47.49144" lon="6.77355">
        <ele>310</ele>
        <time>2015-03-15T11:08:22.000Z</time>
      </trkpt>
      <trkpt lat="47.49149" lon="6.77355">
        <ele>310</ele>
        <time>2015-03-15T11:08:23.000Z</time>
      </trkpt>
      <trkpt lat="47.49153" lon="6.77354">
        <ele>310</ele>
        <time>2015-03-15T11:08:24.000Z</time>
      </trkpt>
      <trkpt lat="47.49157" lon="6.77354">
        <ele>310</ele>
        <time>2015-03-15T11:08:25.000Z</time>
      </trkpt>
      <trkpt lat="47.49161" lon="6.77354">
        <ele>310</ele>
        <time>2015-03-15T11:08:26.000Z</time>
      </trkpt>
      <trkpt lat="47.49165" lon="6.77354">
        <ele>310</ele>
        <time>2015-03-15T11:08:27.000Z</time>
      </trkpt>
      <trkpt lat="47.49168" lon="6.77354">
        <ele>309</ele>
        <time>2015-03-15T11:08:28.000Z</time>
      </trkpt>
      <trkpt lat="47.49172" lon="6.77352">
        <ele>309</ele>
        <time>2015-03-15T11:08:29.000Z</time>
      </trkpt>
      <trkpt lat="47.49175" lon="6.77351">
        <ele>309</ele>
        <time>2015-03-15T11:08:30.001Z</time>
      </trkpt>
      <trkpt lat="47.49178" lon="6.77351">
        <ele>309</ele>
        <time>2015-03-15T11:08:31.000Z</time>
      </trkpt>
      <trkpt lat="47.49182" lon="6.77349">
        <ele>309</ele>
        <time>2015-03-15T11:08:33.000Z</time>
      </trkpt>
      <trkpt lat="47.49183" lon="6.77348">
        <ele>309</ele>
        <time>2015-03-15T11:08:34.000Z</time>
      </trkpt>
      <trkpt lat="47.49187" lon="6.77345">
        <ele>309</ele>
        <time>2015-03-15T11:08:36.999Z</time>
      </trkpt>
      <trkpt lat="47.49188" lon="6.77345">
        <ele>309</ele>
        <time>2015-03-15T11:08:38.000Z</time>
      </trkpt>
      <trkpt lat="47.49192" lon="6.77343">
        <ele>309</ele>
        <time>2015-03-15T11:08:41.000Z</time>
      </trkpt>
      <trkpt lat="47.49193" lon="6.77341">
        <ele>309</ele>
        <time>2015-03-15T11:08:42.000Z</time>
      </trkpt>
      <trkpt lat="47.49193" lon="6.77335">
        <ele>309</ele>
        <time>2015-03-15T11:08:45.000Z</time>
      </trkpt>
      <trkpt lat="47.49192" lon="6.77334">
        <ele>309</ele>
        <time>2015-03-15T11:08:46.000Z</time>
      </trkpt>
      <trkpt lat="47.49193" lon="6.7733">
        <ele>310</ele>
        <time>2015-03-15T11:10:01.000Z</time>
      </trkpt>
      <trkpt lat="47.49193" lon="6.77328">
        <ele>310</ele>
        <time>2015-03-15T11:10:02.000Z</time>
      </trkpt>
      <trkpt lat="47.49194" lon="6.77334">
        <ele>309</ele>
        <time>2015-03-15T11:11:59.000Z</time>
      </trkpt>
      <trkpt lat="47.49197" lon="6.77335">
        <ele>309</ele>
        <time>2015-03-15T11:12:00.000Z</time>
      </trkpt>
      <trkpt lat="47.492" lon="6.77335">
        <ele>309</ele>
        <time>2015-03-15T11:12:01.000Z</time>
      </trkpt>
      <trkpt lat="47.49204" lon="6.77337">
        <ele>309</ele>
        <time>2015-03-15T11:12:02.000Z</time>
      </trkpt>
      <trkpt lat="47.49208" lon="6.77338">
        <ele>309</ele>
        <time>2015-03-15T11:12:03.000Z</time>
      </trkpt>
      <trkpt lat="47.49216" lon="6.77341">
        <ele>309</ele>
        <time>2015-03-15T11:12:04.000Z</time>
      </trkpt>
      <trkpt lat="47.4922" lon="6.77342">
        <ele>309</ele>
        <time>2015-03-15T11:12:05.000Z</time>
      </trkpt>
      <trkpt lat="47.49224" lon="6.7734">
        <ele>309</ele>
        <time>2015-03-15T11:12:06.000Z</time>
      </trkpt>
      <trkpt lat="47.49229" lon="6.77341">
        <ele>309</ele>
        <time>2015-03-15T11:12:07.000Z</time>
      </trkpt>
      <trkpt lat="47.49233" lon="6.7734">
        <ele>310</ele>
        <time>2015-03-15T11:12:08.000Z</time>
      </trkpt>
      <trkpt lat="47.49237" lon="6.77341">
        <ele>310</ele>
        <time>2015-03-15T11:12:09.000Z</time>
      </trkpt>
      <trkpt lat="47.49242" lon="6.77339">
        <ele>310</ele>
        <time>2015-03-15T11:12:10.000Z</time>
      </trkpt>
      <trkpt lat="47.49246" lon="6.77336">
        <ele>310</ele>
        <time>2015-03-15T11:12:11.000Z</time>
      </trkpt>
      <trkpt lat="47.49249" lon="6.77331">
        <ele>310</ele>
        <time>2015-03-15T11:12:12.000Z</time>
      </trkpt>
      <trkpt lat="47.49254" lon="6.77328">
        <ele>310</ele>
        <time>2015-03-15T11:12:13.000Z</time>
      </trkpt>
      <trkpt lat="47.49259" lon="6.77325">
        <ele>310</ele>
        <time>2015-03-15T11:12:14.000Z</time>
      </trkpt>
      <trkpt lat="47.49264" lon="6.77329">
        <ele>310</ele>
        <time>2015-03-15T11:12:15.000Z</time>
      </trkpt>
      <trkpt lat="47.49268" lon="6.77332">
        <ele>310</ele>
        <time>2015-03-15T11:12:16.000Z</time>
      </trkpt>
      <trkpt lat="47.49273" lon="6.77334">
        <ele>309</ele>
        <time>2015-03-15T11:12:17.000Z</time>
      </trkpt>
      <trkpt lat="47.4928" lon="6.77332">
        <ele>310</ele>
        <time>2015-03-15T11:12:18.000Z</time>
      </trkpt>
      <trkpt lat="47.49286" lon="6.77333">
        <ele>309</ele>
        <time>2015-03-15T11:12:19.000Z</time>
      </trkpt>
      <trkpt lat="47.49292" lon="6.77333">
        <ele>310</ele>
        <time>2015-03-15T11:12:20.000Z</time>
      </trkpt>
      <trkpt lat="47.49297" lon="6.77336">
        <ele>309</ele>
        <time>2015-03-15T11:12:21.000Z</time>
      </trkpt>
      <trkpt lat="47.49302" lon="6.77338">
        <ele>309</ele>
        <time>2015-03-15T11:12:22.000Z</time>
      </trkpt>
      <trkpt lat="47.49308" lon="6.77338">
        <ele>309</ele>
        <time>2015-03-15T11:12:23.000Z</time>
      </trkpt>
      <trkpt lat="47.49314" lon="6.77337">
        <ele>309</ele>
        <time>2015-03-15T11:12:24.000Z</time>
      </trkpt>
      <trkpt lat="47.49319" lon="6.77338">
        <ele>310</ele>
        <time>2015-03-15T11:12:25.000Z</time>
      </trkpt>
      <trkpt lat="47.49323" lon="6.7734">
        <ele>310</ele>
        <time>2015-03-15T11:12:26.000Z</time>
      </trkpt>
      <trkpt lat="47.49327" lon="6.77342">
        <ele>310</ele>
        <time>2015-03-15T11:12:27.000Z</time>
      </trkpt>
      <trkpt lat="47.49331" lon="6.77346">
        <ele>310</ele>
        <time>2015-03-15T11:12:28.000Z</time>
      </trkpt>
      <trkpt lat="47.49335" lon="6.77349">
        <ele>310</ele>
        <time>2015-03-15T11:12:29.000Z</time>
      </trkpt>
      <trkpt lat="47.49339" lon="6.77351">
        <ele>310</ele>
        <time>2015-03-15T11:12:30.000Z</time>
      </trkpt>
      <trkpt lat="47.49344" lon="6.77349">
        <ele>310</ele>
        <time>2015-03-15T11:12:31.000Z</time>
      </trkpt>
      <trkpt lat="47.49349" lon="6.7735">
        <ele>310</ele>
        <time>2015-03-15T11:12:32.000Z</time>
      </trkpt>
      <trkpt lat="47.49354" lon="6.7735">
        <ele>310</ele>
        <time>2015-03-15T11:12:33.000Z</time>
      </trkpt>
      <trkpt lat="47.49359" lon="6.7735">
        <ele>310</ele>
        <time>2015-03-15T11:12:34.000Z</time>
      </trkpt>
      <trkpt lat="47.49363" lon="6.77352">
        <ele>310</ele>
        <time>2015-03-15T11:12:35.000Z</time>
      </trkpt>
      <trkpt lat="47.49367" lon="6.7735">
        <ele>310</ele>
        <time>2015-03-15T11:12:36.000Z</time>
      </trkpt>
      <trkpt lat="47.49373" lon="6.7735">
        <ele>310</ele>
        <time>2015-03-15T11:12:37.000Z</time>
      </trkpt>
      <trkpt lat="47.49377" lon="6.7735">
        <ele>310</ele>
        <time>2015-03-15T11:12:38.000Z</time>
      </trkpt>
      <trkpt lat="47.49382" lon="6.7735">
        <ele>310</ele>
        <time>2015-03-15T11:12:39.000Z</time>
      </trkpt>
      <trkpt lat="47.49386" lon="6.7735">
        <ele>310</ele>
        <time>2015-03-15T11:12:40.000Z</time>
      </trkpt>
      <trkpt lat="47.49391" lon="6.77351">
        <ele>310</ele>
        <time>2015-03-15T11:12:41.000Z</time>
      </trkpt>
      <trkpt lat="47.49395" lon="6.77351">
        <ele>310</ele>
        <time>2015-03-15T11:12:42.000Z</time>
      </trkpt>
      <trkpt lat="47.49401" lon="6.7735">
        <ele>310</ele>
        <time>2015-03-15T11:12:43.000Z</time>
      </trkpt>
      <trkpt lat="47.49405" lon="6.7735">
        <ele>310</ele>
        <time>2015-03-15T11:12:44.000Z</time>
      </trkpt>
      <trkpt lat="47.49409" lon="6.77352">
        <ele>311</ele>
        <time>2015-03-15T11:12:45.001Z</time>
      </trkpt>
      <trkpt lat="47.49414" lon="6.77354">
        <ele>311</ele>
        <time>2015-03-15T11:12:46.000Z</time>
      </trkpt>
      <trkpt lat="47.49419" lon="6.77355">
        <ele>311</ele>
        <time>2015-03-15T11:12:47.000Z</time>
      </trkpt>
      <trkpt lat="47.49422" lon="6.77359">
        <ele>311</ele>
        <time>2015-03-15T11:12:48.000Z</time>
      </trkpt>
      <trkpt lat="47.49429" lon="6.77356">
        <ele>311</ele>
        <time>2015-03-15T11:12:49.000Z</time>
      </trkpt>
      <trkpt lat="47.49435" lon="6.77354">
        <ele>311</ele>
        <time>2015-03-15T11:12:50.000Z</time>
      </trkpt>
      <trkpt lat="47.49439" lon="6.77355">
        <ele>311</ele>
        <time>2015-03-15T11:12:51.000Z</time>
      </trkpt>
      <trkpt lat="47.49443" lon="6.77357">
        <ele>311</ele>
        <time>2015-03-15T11:12:52.000Z</time>
      </trkpt>
      <trkpt lat="47.49447" lon="6.77358">
        <ele>311</ele>
        <time>2015-03-15T11:12:53.000Z</time>
      </trkpt>
      <trkpt lat="47.49452" lon="6.77359">
        <ele>311</ele>
        <time>2015-03-15T11:12:54.000Z</time>
      </trkpt>
      <trkpt lat="47.49454" lon="6.77364">
        <ele>311</ele>
        <time>2015-03-15T11:12:55.000Z</time>
      </trkpt>
      <trkpt lat="47.49458" lon="6.77365">
        <ele>311</ele>
        <time>2015-03-15T11:12:56.000Z</time>
      </trkpt>
      <trkpt lat="47.49462" lon="6.77367">
        <ele>311</ele>
        <time>2015-03-15T11:12:57.000Z</time>
      </trkpt>
      <trkpt lat="47.49467" lon="6.77366">
        <ele>311</ele>
        <time>2015-03-15T11:12:58.000Z</time>
      </trkpt>
      <trkpt lat="47.49473" lon="6.77366">
        <ele>311</ele>
        <time>2015-03-15T11:12:59.000Z</time>
      </trkpt>
      <trkpt lat="47.49478" lon="6.77363">
        <ele>311</ele>
        <time>2015-03-15T11:13:00.000Z</time>
      </trkpt>
      <trkpt lat="47.49482" lon="6.77363">
        <ele>311</ele>
        <time>2015-03-15T11:13:01.000Z</time>
      </trkpt>
      <trkpt lat="47.49488" lon="6.77363">
        <ele>311</ele>
        <time>2015-03-15T11:13:02.000Z</time>
      </trkpt>
      <trkpt lat="47.49495" lon="6.77361">
        <ele>311</ele>
        <time>2015-03-15T11:13:03.000Z</time>
      </trkpt>
      <trkpt lat="47.49499" lon="6.77362">
        <ele>311</ele>
        <time>2015-03-15T11:13:04.000Z</time>
      </trkpt>
      <trkpt lat="47.49506" lon="6.77362">
        <ele>312</ele>
        <time>2015-03-15T11:13:05.000Z</time>
      </trkpt>
      <trkpt lat="47.49511" lon="6.77361">
        <ele>312</ele>
        <time>2015-03-15T11:13:06.000Z</time>
      </trkpt>
      <trkpt lat="47.49518" lon="6.77356">
        <ele>312</ele>
        <time>2015-03-15T11:13:07.000Z</time>
      </trkpt>
      <trkpt lat="47.49524" lon="6.77352">
        <ele>312</ele>
        <time>2015-03-15T11:13:08.000Z</time>
      </trkpt>
      <trkpt lat="47.49529" lon="6.77348">
        <ele>312</ele>
        <time>2015-03-15T11:13:09.000Z</time>
      </trkpt>
      <trkpt lat="47.49535" lon="6.77352">
        <ele>312</ele>
        <time>2015-03-15T11:13:10.000Z</time>
      </trkpt>
      <trkpt lat="47.4954" lon="6.77352">
        <ele>312</ele>
        <time>2015-03-15T11:13:11.000Z</time>
      </trkpt>
      <trkpt lat="47.49544" lon="6.77352">
        <ele>312</ele>
        <time>2015-03-15T11:13:12.000Z</time>
      </trkpt>
      <trkpt lat="47.4955" lon="6.77348">
        <ele>312</ele>
        <time>2015-03-15T11:13:13.000Z</time>
      </trkpt>
      <trkpt lat="47.49556" lon="6.77348">
        <ele>312</ele>
        <time>2015-03-15T11:13:14.000Z</time>
      </trkpt>
      <trkpt lat="47.49562" lon="6.77346">
        <ele>313</ele>
        <time>2015-03-15T11:13:15.000Z</time>
      </trkpt>
      <trkpt lat="47.49567" lon="6.77345">
        <ele>313</ele>
        <time>2015-03-15T11:13:16.000Z</time>
      </trkpt>
      <trkpt lat="47.49571" lon="6.77347">
        <ele>313</ele>
        <time>2015-03-15T11:13:17.000Z</time>
      </trkpt>
      <trkpt lat="47.49575" lon="6.77351">
        <ele>313</ele>
        <time>2015-03-15T11:13:18.000Z</time>
      </trkpt>
      <trkpt lat="47.4958" lon="6.77353">
        <ele>313</ele>
        <time>2015-03-15T11:13:19.000Z</time>
      </trkpt>
      <trkpt lat="47.49585" lon="6.77353">
        <ele>313</ele>
        <time>2015-03-15T11:13:20.001Z</time>
      </trkpt>
      <trkpt lat="47.49591" lon="6.77352">
        <ele>313</ele>
        <time>2015-03-15T11:13:21.000Z</time>
      </trkpt>
      <trkpt lat="47.49597" lon="6.7735">
        <ele>313</ele>
        <time>2015-03-15T11:13:22.000Z</time>
      </trkpt>
      <trkpt lat="47.496" lon="6.77352">
        <ele>313</ele>
        <time>2015-03-15T11:13:23.001Z</time>
      </trkpt>
      <trkpt lat="47.49604" lon="6.77353">
        <ele>313</ele>
        <time>2015-03-15T11:13:24.000Z</time>
      </trkpt>
      <trkpt lat="47.49609" lon="6.77353">
        <ele>313</ele>
        <time>2015-03-15T11:13:24.999Z</time>
      </trkpt>
      <trkpt lat="47.49616" lon="6.77354">
        <ele>313</ele>
        <time>2015-03-15T11:13:26.000Z</time>
      </trkpt>
      <trkpt lat="47.49619" lon="6.77352">
        <ele>313</ele>
        <time>2015-03-15T11:13:27.000Z</time>
      </trkpt>
      <trkpt lat="47.49623" lon="6.77353">
        <ele>313</ele>
        <time>2015-03-15T11:13:28.000Z</time>
      </trkpt>
      <trkpt lat="47.49627" lon="6.77353">
        <ele>313</ele>
        <time>2015-03-15T11:13:29.000Z</time>
      </trkpt>
      <trkpt lat="47.49631" lon="6.77353">
        <ele>313</ele>
        <time>2015-03-15T11:13:30.000Z</time>
      </trkpt>
      <trkpt lat="47.49635" lon="6.77352">
        <ele>313</ele>
        <time>2015-03-15T11:13:31.000Z</time>
      </trkpt>
      <trkpt lat="47.4964" lon="6.77351">
        <ele>313</ele>
        <time>2015-03-15T11:13:32.000Z</time>
      </trkpt>
      <trkpt lat="47.49645" lon="6.77352">
        <ele>313</ele>
        <time>2015-03-15T11:13:33.000Z</time>
      </trkpt>
      <trkpt lat="47.4965" lon="6.77349">
        <ele>313</ele>
        <time>2015-03-15T11:13:34.000Z</time>
      </trkpt>
      <trkpt lat="47.49654" lon="6.77348">
        <ele>313</ele>
        <time>2015-03-15T11:13:35.000Z</time>
      </trkpt>
      <trkpt lat="47.4966" lon="6.77348">
        <ele>313</ele>
        <time>2015-03-15T11:13:36.000Z</time>
      </trkpt>
      <trkpt lat="47.49664" lon="6.77346">
        <ele>313</ele>
        <time>2015-03-15T11:13:37.000Z</time>
      </trkpt>
      <trkpt lat="47.49669" lon="6.77345">
        <ele>313</ele>
        <time>2015-03-15T11:13:38.000Z</time>
      </trkpt>
      <trkpt lat="47.49674" lon="6.7734">
        <ele>313</ele>
        <time>2015-03-15T11:13:39.000Z</time>
      </trkpt>
      <trkpt lat="47.49678" lon="6.7734">
        <ele>313</ele>
        <time>2015-03-15T11:13:40.000Z</time>
      </trkpt>
      <trkpt lat="47.49682" lon="6.7734">
        <ele>313</ele>
        <time>2015-03-15T11:13:41.000Z</time>
      </trkpt>
      <trkpt lat="47.49687" lon="6.77339">
        <ele>313</ele>
        <time>2015-03-15T11:13:42.000Z</time>
      </trkpt>
      <trkpt lat="47.49692" lon="6.77338">
        <ele>313</ele>
        <time>2015-03-15T11:13:43.000Z</time>
      </trkpt>
      <trkpt lat="47.49697" lon="6.77336">
        <ele>313</ele>
        <time>2015-03-15T11:13:44.000Z</time>
      </trkpt>
      <trkpt lat="47.49701" lon="6.77337">
        <ele>313</ele>
        <time>2015-03-15T11:13:45.000Z</time>
      </trkpt>
      <trkpt lat="47.49705" lon="6.77337">
        <ele>313</ele>
        <time>2015-03-15T11:13:46.000Z</time>
      </trkpt>
      <trkpt lat="47.49708" lon="6.77336">
        <ele>313</ele>
        <time>2015-03-15T11:13:47.000Z</time>
      </trkpt>
      <trkpt lat="47.49711" lon="6.77335">
        <ele>313</ele>
        <time>2015-03-15T11:13:48.000Z</time>
      </trkpt>
      <trkpt lat="47.49716" lon="6.77335">
        <ele>313</ele>
        <time>2015-03-15T11:13:49.000Z</time>
      </trkpt>
      <trkpt lat="47.49719" lon="6.77335">
        <ele>313</ele>
        <time>2015-03-15T11:13:50.000Z</time>
      </trkpt>
      <trkpt lat="47.49723" lon="6.77333">
        <ele>314</ele>
        <time>2015-03-15T11:13:51.000Z</time>
      </trkpt>
      <trkpt lat="47.49726" lon="6.77331">
        <ele>314</ele>
        <time>2015-03-15T11:13:52.000Z</time>
      </trkpt>
      <trkpt lat="47.4973" lon="6.77328">
        <ele>314</ele>
        <time>2015-03-15T11:13:53.000Z</time>
      </trkpt>
      <trkpt lat="47.49733" lon="6.77326">
        <ele>314</ele>
        <time>2015-03-15T11:13:54.000Z</time>
      </trkpt>
      <trkpt lat="47.49736" lon="6.77325">
        <ele>314</ele>
        <time>2015-03-15T11:13:55.000Z</time>
      </trkpt>
      <trkpt lat="47.49738" lon="6.77323">
        <ele>314</ele>
        <time>2015-03-15T11:13:56.000Z</time>
      </trkpt>
      <trkpt lat="47.49739" lon="6.77317">
        <ele>314</ele>
        <time>2015-03-15T11:14:49.000Z</time>
      </trkpt>
      <trkpt lat="47.4974" lon="6.77317">
        <ele>314</ele>
        <time>2015-03-15T11:14:50.000Z</time>
      </trkpt>
      <trkpt lat="47.49742" lon="6.77315">
        <ele>314</ele>
        <time>2015-03-15T11:14:52.000Z</time>
      </trkpt>
      <trkpt lat="47.49744" lon="6.77314">
        <ele>314</ele>
        <time>2015-03-15T11:14:53.000Z</time>
      </trkpt>
      <trkpt lat="47.49746" lon="6.77313">
        <ele>314</ele>
        <time>2015-03-15T11:14:54.000Z</time>
      </trkpt>
      <trkpt lat="47.49749" lon="6.77313">
        <ele>314</ele>
        <time>2015-03-15T11:14:55.000Z</time>
      </trkpt>
      <trkpt lat="47.49752" lon="6.77312">
        <ele>316</ele>
        <time>2015-03-15T11:14:56.000Z</time>
      </trkpt>
      <trkpt lat="47.49755" lon="6.77311">
        <ele>316</ele>
        <time>2015-03-15T11:14:57.000Z</time>
      </trkpt>
      <trkpt lat="47.49758" lon="6.77311">
        <ele>316</ele>
        <time>2015-03-15T11:14:58.000Z</time>
      </trkpt>
      <trkpt lat="47.49765" lon="6.77308">
        <ele>316</ele>
        <time>2015-03-15T11:14:59.000Z</time>
      </trkpt>
      <trkpt lat="47.49768" lon="6.77311">
        <ele>316</ele>
        <time>2015-03-15T11:15:00.000Z</time>
      </trkpt>
      <trkpt lat="47.49771" lon="6.77313">
        <ele>316</ele>
        <time>2015-03-15T11:15:01.000Z</time>
      </trkpt>
      <trkpt lat="47.49775" lon="6.77315">
        <ele>316</ele>
        <time>2015-03-15T11:15:02.001Z</time>
      </trkpt>
      <trkpt lat="47.49778" lon="6.77316">
        <ele>316</ele>
        <time>2015-03-15T11:15:03.000Z</time>
      </trkpt>
      <trkpt lat="47.49782" lon="6.77318">
        <ele>316</ele>
        <time>2015-03-15T11:15:04.000Z</time>
      </trkpt>
      <trkpt lat="47.49787" lon="6.77319">
        <ele>316</ele>
        <time>2015-03-15T11:15:05.000Z</time>
      </trkpt>
      <trkpt lat="47.49791" lon="6.7732">
        <ele>316</ele>
        <time>2015-03-15T11:15:06.000Z</time>
      </trkpt>
      <trkpt lat="47.49796" lon="6.77318">
        <ele>316</ele>
        <time>2015-03-15T11:15:06.999Z</time>
      </trkpt>
      <trkpt lat="47.49801" lon="6.77317">
        <ele>316</ele>
        <time>2015-03-15T11:15:08.000Z</time>
      </trkpt>
      <trkpt lat="47.49806" lon="6.77316">
        <ele>316</ele>
        <time>2015-03-15T11:15:09.000Z</time>
      </trkpt>
      <trkpt lat="47.49809" lon="6.77317">
        <ele>316</ele>
        <time>2015-03-15T11:15:10.000Z</time>
      </trkpt>
      <trkpt lat="47.49817" lon="6.77316">
        <ele>316</ele>
        <time>2015-03-15T11:15:11.000Z</time>
      </trkpt>
      <trkpt lat="47.49822" lon="6.77315">
        <ele>316</ele>
        <time>2015-03-15T11:15:12.000Z</time>
      </trkpt>
      <trkpt lat="47.49825" lon="6.77317">
        <ele>316</ele>
        <time>2015-03-15T11:15:13.000Z</time>
      </trkpt>
      <trkpt lat="47.4983" lon="6.77318">
        <ele>316</ele>
        <time>2015-03-15T11:15:14.000Z</time>
      </trkpt>
      <trkpt lat="47.49834" lon="6.77319">
        <ele>316</ele>
        <time>2015-03-15T11:15:15.000Z</time>
      </trkpt>
      <trkpt lat="47.49837" lon="6.77319">
        <ele>316</ele>
        <time>2015-03-15T11:15:16.000Z</time>
      </trkpt>
      <trkpt lat="47.4984" lon="6.77321">
        <ele>316</ele>
        <time>2015-03-15T11:15:17.000Z</time>
      </trkpt>
      <trkpt lat="47.49845" lon="6.77321">
        <ele>316</ele>
        <time>2015-03-15T11:15:18.000Z</time>
      </trkpt>
      <trkpt lat="47.4985" lon="6.77323">
        <ele>316</ele>
        <time>2015-03-15T11:15:19.000Z</time>
      </trkpt>
      <trkpt lat="47.49855" lon="6.77322">
        <ele>316</ele>
        <time>2015-03-15T11:15:20.000Z</time>
      </trkpt>
      <trkpt lat="47.4986" lon="6.77323">
        <ele>317</ele>
        <time>2015-03-15T11:15:21.000Z</time>
      </trkpt>
      <trkpt lat="47.49864" lon="6.77322">
        <ele>317</ele>
        <time>2015-03-15T11:15:22.000Z</time>
      </trkpt>
      <trkpt lat="47.4987" lon="6.7732">
        <ele>317</ele>
        <time>2015-03-15T11:15:23.000Z</time>
      </trkpt>
      <trkpt lat="47.49876" lon="6.77317">
        <ele>317</ele>
        <time>2015-03-15T11:15:24.000Z</time>
      </trkpt>
      <trkpt lat="47.4988" lon="6.77318">
        <ele>317</ele>
        <time>2015-03-15T11:15:25.000Z</time>
      </trkpt>
      <trkpt lat="47.49885" lon="6.77317">
        <ele>317</ele>
        <time>2015-03-15T11:15:26.000Z</time>
      </trkpt>
      <trkpt lat="47.49887" lon="6.77313">
        <ele>317</ele>
        <time>2015-03-15T11:15:27.000Z</time>
      </trkpt>
      <trkpt lat="47.49891" lon="6.77313">
        <ele>317</ele>
        <time>2015-03-15T11:15:28.000Z</time>
      </trkpt>
      <trkpt lat="47.49895" lon="6.77314">
        <ele>316</ele>
        <time>2015-03-15T11:15:29.000Z</time>
      </trkpt>
      <trkpt lat="47.49899" lon="6.77313">
        <ele>316</ele>
        <time>2015-03-15T11:15:30.000Z</time>
      </trkpt>
      <trkpt lat="47.49902" lon="6.77309">
        <ele>317</ele>
        <time>2015-03-15T11:15:31.000Z</time>
      </trkpt>
      <trkpt lat="47.49906" lon="6.77308">
        <ele>317</ele>
        <time>2015-03-15T11:15:32.000Z</time>
      </trkpt>
      <trkpt lat="47.49911" lon="6.77305">
        <ele>317</ele>
        <time>2015-03-15T11:15:33.000Z</time>
      </trkpt>
      <trkpt lat="47.49916" lon="6.77303">
        <ele>317</ele>
        <time>2015-03-15T11:15:34.000Z</time>
      </trkpt>
      <trkpt lat="47.4992" lon="6.77301">
        <ele>315</ele>
        <time>2015-03-15T11:15:35.000Z</time>
      </trkpt>
      <trkpt lat="47.49924" lon="6.773">
        <ele>316</ele>
        <time>2015-03-15T11:15:36.000Z</time>
      </trkpt>
      <trkpt lat="47.49927" lon="6.77299">
        <ele>316</ele>
        <time>2015-03-15T11:15:37.000Z</time>
      </trkpt>
      <trkpt lat="47.49931" lon="6.77297">
        <ele>316</ele>
        <time>2015-03-15T11:15:38.000Z</time>
      </trkpt>
      <trkpt lat="47.49935" lon="6.77296">
        <ele>316</ele>
        <time>2015-03-15T11:15:39.000Z</time>
      </trkpt>
      <trkpt lat="47.49939" lon="6.77293">
        <ele>316</ele>
        <time>2015-03-15T11:15:40.000Z</time>
      </trkpt>
      <trkpt lat="47.49944" lon="6.7729">
        <ele>316</ele>
        <time>2015-03-15T11:15:41.000Z</time>
      </trkpt>
      <trkpt lat="47.49953" lon="6.77282">
        <ele>317</ele>
        <time>2015-03-15T11:15:42.000Z</time>
      </trkpt>
      <trkpt lat="47.49955" lon="6.77281">
        <ele>316</ele>
        <time>2015-03-15T11:15:43.000Z</time>
      </trkpt>
      <trkpt lat="47.49959" lon="6.77279">
        <ele>316</ele>
        <time>2015-03-15T11:15:44.000Z</time>
      </trkpt>
      <trkpt lat="47.49964" lon="6.77276">
        <ele>316</ele>
        <time>2015-03-15T11:15:45.000Z</time>
      </trkpt>
      <trkpt lat="47.49969" lon="6.77273">
        <ele>316</ele>
        <time>2015-03-15T11:15:46.000Z</time>
      </trkpt>
      <trkpt lat="47.49973" lon="6.7727">
        <ele>316</ele>
        <time>2015-03-15T11:15:47.000Z</time>
      </trkpt>
      <trkpt lat="47.49977" lon="6.77268">
        <ele>316</ele>
        <time>2015-03-15T11:15:48.000Z</time>
      </trkpt>
      <trkpt lat="47.49982" lon="6.77267">
        <ele>316</ele>
        <time>2015-03-15T11:15:49.000Z</time>
      </trkpt>
      <trkpt lat="47.49987" lon="6.77265">
        <ele>316</ele>
        <time>2015-03-15T11:15:50.000Z</time>
      </trkpt>
      <trkpt lat="47.49991" lon="6.77263">
        <ele>316</ele>
        <time>2015-03-15T11:15:51.000Z</time>
      </trkpt>
      <trkpt lat="47.49995" lon="6.77262">
        <ele>316</ele>
        <time>2015-03-15T11:15:52.000Z</time>
      </trkpt>
      <trkpt lat="47.49999" lon="6.77259">
        <ele>316</ele>
        <time>2015-03-15T11:15:53.000Z</time>
      </trkpt>
      <trkpt lat="47.50002" lon="6.77257">
        <ele>315</ele>
        <time>2015-03-15T11:15:54.000Z</time>
      </trkpt>
      <trkpt lat="47.50004" lon="6.77259">
        <ele>315</ele>
        <time>2015-03-15T11:15:55.000Z</time>
      </trkpt>
      <trkpt lat="47.50006" lon="6.77258">
        <ele>315</ele>
        <time>2015-03-15T11:15:56.000Z</time>
      </trkpt>
      <trkpt lat="47.50008" lon="6.77258">
        <ele>315</ele>
        <time>2015-03-15T11:15:57.000Z</time>
      </trkpt>
      <trkpt lat="47.50012" lon="6.77256">
        <ele>315</ele>
        <time>2015-03-15T11:16:05.000Z</time>
      </trkpt>
      <trkpt lat="47.50014" lon="6.77254">
        <ele>315</ele>
        <time>2015-03-15T11:16:06.000Z</time>
      </trkpt>
      <trkpt lat="47.50015" lon="6.77252">
        <ele>315</ele>
        <time>2015-03-15T11:16:07.000Z</time>
      </trkpt>
      <trkpt lat="47.50018" lon="6.7725">
        <ele>322</ele>
        <time>2015-03-15T11:16:08.000Z</time>
      </trkpt>
      <trkpt lat="47.50022" lon="6.77247">
        <ele>323</ele>
        <time>2015-03-15T11:16:09.000Z</time>
      </trkpt>
      <trkpt lat="47.5003" lon="6.77237">
        <ele>325</ele>
        <time>2015-03-15T11:16:10.000Z</time>
      </trkpt>
      <trkpt lat="47.50036" lon="6.77233">
        <ele>326</ele>
        <time>2015-03-15T11:16:11.000Z</time>
      </trkpt>
      <trkpt lat="47.5004" lon="6.77228">
        <ele>327</ele>
        <time>2015-03-15T11:16:12.000Z</time>
      </trkpt>
      <trkpt lat="47.50044" lon="6.77227">
        <ele>327</ele>
        <time>2015-03-15T11:16:13.000Z</time>
      </trkpt>
      <trkpt lat="47.50047" lon="6.77225">
        <ele>327</ele>
        <time>2015-03-15T11:16:14.000Z</time>
      </trkpt>
      <trkpt lat="47.50052" lon="6.77223">
        <ele>327</ele>
        <time>2015-03-15T11:16:15.000Z</time>
      </trkpt>
      <trkpt lat="47.50056" lon="6.77222">
        <ele>327</ele>
        <time>2015-03-15T11:16:16.000Z</time>
      </trkpt>
      <trkpt lat="47.5006" lon="6.77222">
        <ele>327</ele>
        <time>2015-03-15T11:16:17.000Z</time>
      </trkpt>
      <trkpt lat="47.50063" lon="6.77224">
        <ele>326</ele>
        <time>2015-03-15T11:16:18.000Z</time>
      </trkpt>
      <trkpt lat="47.50067" lon="6.77225">
        <ele>325</ele>
        <time>2015-03-15T11:16:19.000Z</time>
      </trkpt>
      <trkpt lat="47.50072" lon="6.77222">
        <ele>326</ele>
        <time>2015-03-15T11:16:20.000Z</time>
      </trkpt>
      <trkpt lat="47.50077" lon="6.77219">
        <ele>326</ele>
        <time>2015-03-15T11:16:21.000Z</time>
      </trkpt>
      <trkpt lat="47.50082" lon="6.77216">
        <ele>327</ele>
        <time>2015-03-15T11:16:22.000Z</time>
      </trkpt>
      <trkpt lat="47.50087" lon="6.77215">
        <ele>323</ele>
        <time>2015-03-15T11:16:23.000Z</time>
      </trkpt>
      <trkpt lat="47.50092" lon="6.77214">
        <ele>323</ele>
        <time>2015-03-15T11:16:24.000Z</time>
      </trkpt>
      <trkpt lat="47.50096" lon="6.77215">
        <ele>323</ele>
        <time>2015-03-15T11:16:25.000Z</time>
      </trkpt>
      <trkpt lat="47.50101" lon="6.77215">
        <ele>323</ele>
        <time>2015-03-15T11:16:26.000Z</time>
      </trkpt>
      <trkpt lat="47.50107" lon="6.77216">
        <ele>322</ele>
        <time>2015-03-15T11:16:27.000Z</time>
      </trkpt>
      <trkpt lat="47.50112" lon="6.77217">
        <ele>322</ele>
        <time>2015-03-15T11:16:28.000Z</time>
      </trkpt>
      <trkpt lat="47.50119" lon="6.77217">
        <ele>322</ele>
        <time>2015-03-15T11:16:29.000Z</time>
      </trkpt>
      <trkpt lat="47.50125" lon="6.77219">
        <ele>322</ele>
        <time>2015-03-15T11:16:30.000Z</time>
      </trkpt>
      <trkpt lat="47.50131" lon="6.77219">
        <ele>321</ele>
        <time>2015-03-15T11:16:31.000Z</time>
      </trkpt>
      <trkpt lat="47.50137" lon="6.77221">
        <ele>321</ele>
        <time>2015-03-15T11:16:32.000Z</time>
      </trkpt>
      <trkpt lat="47.50142" lon="6.77223">
        <ele>320</ele>
        <time>2015-03-15T11:16:33.000Z</time>
      </trkpt>
      <trkpt lat="47.50148" lon="6.77227">
        <ele>320</ele>
        <time>2015-03-15T11:16:34.000Z</time>
      </trkpt>
      <trkpt lat="47.50154" lon="6.77231">
        <ele>319</ele>
        <time>2015-03-15T11:16:35.000Z</time>
      </trkpt>
      <trkpt lat="47.50159" lon="6.77235">
        <ele>318</ele>
        <time>2015-03-15T11:16:36.000Z</time>
      </trkpt>
      <trkpt lat="47.50163" lon="6.77242">
        <ele>316</ele>
        <time>2015-03-15T11:16:37.000Z</time>
      </trkpt>
      <trkpt lat="47.50168" lon="6.77245">
        <ele>314</ele>
        <time>2015-03-15T11:16:38.000Z</time>
      </trkpt>
      <trkpt lat="47.50173" lon="6.77248">
        <ele>314</ele>
        <time>2015-03-15T11:16:39.000Z</time>
      </trkpt>
      <trkpt lat="47.50179" lon="6.77251">
        <ele>313</ele>
        <time>2015-03-15T11:16:40.000Z</time>
      </trkpt>
      <trkpt lat="47.50184" lon="6.77254">
        <ele>313</ele>
        <time>2015-03-15T11:16:41.000Z</time>
      </trkpt>
      <trkpt lat="47.50189" lon="6.77257">
        <ele>313</ele>
        <time>2015-03-15T11:16:42.000Z</time>
      </trkpt>
      <trkpt lat="47.50193" lon="6.77261">
        <ele>313</ele>
        <time>2015-03-15T11:16:43.000Z</time>
      </trkpt>
      <trkpt lat="47.50198" lon="6.77263">
        <ele>313</ele>
        <time>2015-03-15T11:16:44.000Z</time>
      </trkpt>
      <trkpt lat="47.50202" lon="6.77267">
        <ele>313</ele>
        <time>2015-03-15T11:16:45.000Z</time>
      </trkpt>
      <trkpt lat="47.50207" lon="6.77269">
        <ele>313</ele>
        <time>2015-03-15T11:16:46.000Z</time>
      </trkpt>
      <trkpt lat="47.50212" lon="6.77273">
        <ele>313</ele>
        <time>2015-03-15T11:16:47.000Z</time>
      </trkpt>
      <trkpt lat="47.50216" lon="6.77276">
        <ele>313</ele>
        <time>2015-03-15T11:16:48.000Z</time>
      </trkpt>
      <trkpt lat="47.50221" lon="6.77279">
        <ele>313</ele>
        <time>2015-03-15T11:16:49.000Z</time>
      </trkpt>
      <trkpt lat="47.50225" lon="6.77283">
        <ele>313</ele>
        <time>2015-03-15T11:16:50.000Z</time>
      </trkpt>
      <trkpt lat="47.50229" lon="6.77286">
        <ele>313</ele>
        <time>2015-03-15T11:16:51.000Z</time>
      </trkpt>
      <trkpt lat="47.50234" lon="6.77287">
        <ele>313</ele>
        <time>2015-03-15T11:16:52.000Z</time>
      </trkpt>
      <trkpt lat="47.50238" lon="6.7729">
        <ele>313</ele>
        <time>2015-03-15T11:16:53.000Z</time>
      </trkpt>
      <trkpt lat="47.50242" lon="6.77293">
        <ele>313</ele>
        <time>2015-03-15T11:16:54.000Z</time>
      </trkpt>
      <trkpt lat="47.50247" lon="6.77295">
        <ele>313</ele>
        <time>2015-03-15T11:16:55.000Z</time>
      </trkpt>
      <trkpt lat="47.5025" lon="6.77299">
        <ele>313</ele>
        <time>2015-03-15T11:16:56.000Z</time>
      </trkpt>
      <trkpt lat="47.50255" lon="6.77303">
        <ele>313</ele>
        <time>2015-03-15T11:16:57.000Z</time>
      </trkpt>
      <trkpt lat="47.50259" lon="6.77307">
        <ele>313</ele>
        <time>2015-03-15T11:16:58.000Z</time>
      </trkpt>
      <trkpt lat="47.50263" lon="6.7731">
        <ele>313</ele>
        <time>2015-03-15T11:16:59.000Z</time>
      </trkpt>
      <trkpt lat="47.50269" lon="6.7731">
        <ele>313</ele>
        <time>2015-03-15T11:17:00.000Z</time>
      </trkpt>
      <trkpt lat="47.50274" lon="6.77314">
        <ele>313</ele>
        <time>2015-03-15T11:17:01.000Z</time>
      </trkpt>
      <trkpt lat="47.50279" lon="6.77315">
        <ele>313</ele>
        <time>2015-03-15T11:17:02.000Z</time>
      </trkpt>
      <trkpt lat="47.50282" lon="6.77321">
        <ele>313</ele>
        <time>2015-03-15T11:17:03.000Z</time>
      </trkpt>
      <trkpt lat="47.50286" lon="6.77326">
        <ele>313</ele>
        <time>2015-03-15T11:17:04.000Z</time>
      </trkpt>
      <trkpt lat="47.50289" lon="6.77333">
        <ele>312</ele>
        <time>2015-03-15T11:17:05.000Z</time>
      </trkpt>
      <trkpt lat="47.50292" lon="6.77339">
        <ele>312</ele>
        <time>2015-03-15T11:17:06.000Z</time>
      </trkpt>
      <trkpt lat="47.50298" lon="6.77339">
        <ele>312</ele>
        <time>2015-03-15T11:17:07.000Z</time>
      </trkpt>
      <trkpt lat="47.50302" lon="6.77342">
        <ele>312</ele>
        <time>2015-03-15T11:17:08.000Z</time>
      </trkpt>
      <trkpt lat="47.50306" lon="6.77346">
        <ele>312</ele>
        <time>2015-03-15T11:17:09.000Z</time>
      </trkpt>
      <trkpt lat="47.5031" lon="6.77349">
        <ele>312</ele>
        <time>2015-03-15T11:17:10.000Z</time>
      </trkpt>
      <trkpt lat="47.50315" lon="6.77353">
        <ele>312</ele>
        <time>2015-03-15T11:17:11.000Z</time>
      </trkpt>
      <trkpt lat="47.50317" lon="6.7736">
        <ele>312</ele>
        <time>2015-03-15T11:17:12.000Z</time>
      </trkpt>
      <trkpt lat="47.50321" lon="6.77364">
        <ele>312</ele>
        <time>2015-03-15T11:17:13.000Z</time>
      </trkpt>
      <trkpt lat="47.50326" lon="6.77368">
        <ele>312</ele>
        <time>2015-03-15T11:17:14.000Z</time>
      </trkpt>
      <trkpt lat="47.50331" lon="6.77369">
        <ele>312</ele>
        <time>2015-03-15T11:17:15.000Z</time>
      </trkpt>
      <trkpt lat="47.50336" lon="6.77372">
        <ele>312</ele>
        <time>2015-03-15T11:17:16.000Z</time>
      </trkpt>
      <trkpt lat="47.5034" lon="6.77375">
        <ele>312</ele>
        <time>2015-03-15T11:17:17.001Z</time>
      </trkpt>
      <trkpt lat="47.50344" lon="6.77378">
        <ele>312</ele>
        <time>2015-03-15T11:17:18.000Z</time>
      </trkpt>
      <trkpt lat="47.50349" lon="6.77381">
        <ele>312</ele>
        <time>2015-03-15T11:17:18.999Z</time>
      </trkpt>
      <trkpt lat="47.50354" lon="6.77384">
        <ele>312</ele>
        <time>2015-03-15T11:17:20.000Z</time>
      </trkpt>
      <trkpt lat="47.50359" lon="6.77388">
        <ele>312</ele>
        <time>2015-03-15T11:17:21.001Z</time>
      </trkpt>
      <trkpt lat="47.50363" lon="6.7739">
        <ele>312</ele>
        <time>2015-03-15T11:17:22.000Z</time>
      </trkpt>
      <trkpt lat="47.50367" lon="6.77393">
        <ele>312</ele>
        <time>2015-03-15T11:17:23.000Z</time>
      </trkpt>
      <trkpt lat="47.50371" lon="6.77395">
        <ele>312</ele>
        <time>2015-03-15T11:17:24.000Z</time>
      </trkpt>
      <trkpt lat="47.50376" lon="6.77397">
        <ele>312</ele>
        <time>2015-03-15T11:17:25.000Z</time>
      </trkpt>
      <trkpt lat="47.50381" lon="6.77401">
        <ele>312</ele>
        <time>2015-03-15T11:17:25.999Z</time>
      </trkpt>
      <trkpt lat="47.50386" lon="6.77404">
        <ele>312</ele>
        <time>2015-03-15T11:17:27.000Z</time>
      </trkpt>
      <trkpt lat="47.50391" lon="6.77405">
        <ele>312</ele>
        <time>2015-03-15T11:17:28.000Z</time>
      </trkpt>
      <trkpt lat="47.50395" lon="6.77408">
        <ele>312</ele>
        <time>2015-03-15T11:17:29.000Z</time>
      </trkpt>
      <trkpt lat="47.50399" lon="6.77411">
        <ele>312</ele>
        <time>2015-03-15T11:17:29.999Z</time>
      </trkpt>
      <trkpt lat="47.50405" lon="6.77414">
        <ele>311</ele>
        <time>2015-03-15T11:17:31.000Z</time>
      </trkpt>
      <trkpt lat="47.5041" lon="6.77418">
        <ele>311</ele>
        <time>2015-03-15T11:17:32.000Z</time>
      </trkpt>
      <trkpt lat="47.50414" lon="6.77421">
        <ele>311</ele>
        <time>2015-03-15T11:17:33.000Z</time>
      </trkpt>
      <trkpt lat="47.50418" lon="6.77425">
        <ele>311</ele>
        <time>2015-03-15T11:17:34.000Z</time>
      </trkpt>
      <trkpt lat="47.50422" lon="6.7743">
        <ele>312</ele>
        <time>2015-03-15T11:17:35.000Z</time>
      </trkpt>
      <trkpt lat="47.50426" lon="6.77433">
        <ele>312</ele>
        <time>2015-03-15T11:17:36.000Z</time>
      </trkpt>
      <trkpt lat="47.50431" lon="6.77436">
        <ele>312</ele>
        <time>2015-03-15T11:17:37.001Z</time>
      </trkpt>
      <trkpt lat="47.50436" lon="6.77441">
        <ele>312</ele>
        <time>2015-03-15T11:17:38.000Z</time>
      </trkpt>
      <trkpt lat="47.5044" lon="6.77445">
        <ele>312</ele>
        <time>2015-03-15T11:17:39.000Z</time>
      </trkpt>
      <trkpt lat="47.50444" lon="6.77449">
        <ele>312</ele>
        <time>2015-03-15T11:17:40.000Z</time>
      </trkpt>
      <trkpt lat="47.50448" lon="6.77453">
        <ele>312</ele>
        <time>2015-03-15T11:17:40.999Z</time>
      </trkpt>
      <trkpt lat="47.50452" lon="6.77458">
        <ele>312</ele>
        <time>2015-03-15T11:17:42.000Z</time>
      </trkpt>
      <trkpt lat="47.50456" lon="6.77462">
        <ele>312</ele>
        <time>2015-03-15T11:17:43.000Z</time>
      </trkpt>
      <trkpt lat="47.50461" lon="6.77465">
        <ele>313</ele>
        <time>2015-03-15T11:17:44.001Z</time>
      </trkpt>
      <trkpt lat="47.50465" lon="6.77471">
        <ele>313</ele>
        <time>2015-03-15T11:17:45.000Z</time>
      </trkpt>
      <trkpt lat="47.50469" lon="6.77474">
        <ele>313</ele>
        <time>2015-03-15T11:17:46.000Z</time>
      </trkpt>
      <trkpt lat="47.50473" lon="6.77475">
        <ele>313</ele>
        <time>2015-03-15T11:17:47.000Z</time>
      </trkpt>
      <trkpt lat="47.50477" lon="6.77478">
        <ele>313</ele>
        <time>2015-03-15T11:17:48.000Z</time>
      </trkpt>
      <trkpt lat="47.50481" lon="6.77482">
        <ele>313</ele>
        <time>2015-03-15T11:17:49.000Z</time>
      </trkpt>
      <trkpt lat="47.50485" lon="6.77485">
        <ele>313</ele>
        <time>2015-03-15T11:17:50.000Z</time>
      </trkpt>
      <trkpt lat="47.50489" lon="6.77489">
        <ele>313</ele>
        <time>2015-03-15T11:17:51.000Z</time>
      </trkpt>
      <trkpt lat="47.50493" lon="6.77493">
        <ele>314</ele>
        <time>2015-03-15T11:17:52.000Z</time>
      </trkpt>
      <trkpt lat="47.50498" lon="6.77498">
        <ele>314</ele>
        <time>2015-03-15T11:17:53.000Z</time>
      </trkpt>
      <trkpt lat="47.50502" lon="6.77501">
        <ele>314</ele>
        <time>2015-03-15T11:17:54.000Z</time>
      </trkpt>
      <trkpt lat="47.50506" lon="6.77503">
        <ele>314</ele>
        <time>2015-03-15T11:17:55.000Z</time>
      </trkpt>
      <trkpt lat="47.5051" lon="6.77507">
        <ele>314</ele>
        <time>2015-03-15T11:17:56.000Z</time>
      </trkpt>
      <trkpt lat="47.50514" lon="6.7751">
        <ele>314</ele>
        <time>2015-03-15T11:17:57.000Z</time>
      </trkpt>
      <trkpt lat="47.5052" lon="6.77514">
        <ele>314</ele>
        <time>2015-03-15T11:17:58.000Z</time>
      </trkpt>
      <trkpt lat="47.50524" lon="6.77517">
        <ele>313</ele>
        <time>2015-03-15T11:17:59.000Z</time>
      </trkpt>
      <trkpt lat="47.50529" lon="6.77519">
        <ele>313</ele>
        <time>2015-03-15T11:18:00.000Z</time>
      </trkpt>
      <trkpt lat="47.50534" lon="6.77522">
        <ele>313</ele>
        <time>2015-03-15T11:18:01.000Z</time>
      </trkpt>
      <trkpt lat="47.50539" lon="6.77524">
        <ele>313</ele>
        <time>2015-03-15T11:18:02.000Z</time>
      </trkpt>
      <trkpt lat="47.50544" lon="6.77528">
        <ele>313</ele>
        <time>2015-03-15T11:18:03.000Z</time>
      </trkpt>
      <trkpt lat="47.50547" lon="6.77533">
        <ele>313</ele>
        <time>2015-03-15T11:18:04.000Z</time>
      </trkpt>
      <trkpt lat="47.50548" lon="6.77538">
        <ele>313</ele>
        <time>2015-03-15T11:18:05.000Z</time>
      </trkpt>
      <trkpt lat="47.5055" lon="6.77544">
        <ele>313</ele>
        <time>2015-03-15T11:18:06.000Z</time>
      </trkpt>
      <trkpt lat="47.50552" lon="6.77549">
        <ele>313</ele>
        <time>2015-03-15T11:18:07.000Z</time>
      </trkpt>
      <trkpt lat="47.50556" lon="6.77552">
        <ele>313</ele>
        <time>2015-03-15T11:18:08.000Z</time>
      </trkpt>
      <trkpt lat="47.50559" lon="6.77556">
        <ele>313</ele>
        <time>2015-03-15T11:18:09.000Z</time>
      </trkpt>
      <trkpt lat="47.50563" lon="6.77559">
        <ele>313</ele>
        <time>2015-03-15T11:18:10.000Z</time>
      </trkpt>
      <trkpt lat="47.50569" lon="6.77555">
        <ele>313</ele>
        <time>2015-03-15T11:18:11.000Z</time>
      </trkpt>
      <trkpt lat="47.50575" lon="6.77554">
        <ele>313</ele>
        <time>2015-03-15T11:18:12.000Z</time>
      </trkpt>
      <trkpt lat="47.5058" lon="6.77549">
        <ele>313</ele>
        <time>2015-03-15T11:18:13.000Z</time>
      </trkpt>
      <trkpt lat="47.50584" lon="6.77546">
        <ele>313</ele>
        <time>2015-03-15T11:18:14.000Z</time>
      </trkpt>
      <trkpt lat="47.50586" lon="6.77543">
        <ele>313</ele>
        <time>2015-03-15T11:18:15.000Z</time>
      </trkpt>
      <trkpt lat="47.50589" lon="6.77538">
        <ele>313</ele>
        <time>2015-03-15T11:18:16.000Z</time>
      </trkpt>
      <trkpt lat="47.50592" lon="6.77536">
        <ele>313</ele>
        <time>2015-03-15T11:18:17.000Z</time>
      </trkpt>
      <trkpt lat="47.50595" lon="6.77537">
        <ele>313</ele>
        <time>2015-03-15T11:18:18.000Z</time>
      </trkpt>
      <trkpt lat="47.50597" lon="6.77536">
        <ele>313</ele>
        <time>2015-03-15T11:18:19.000Z</time>
      </trkpt>
      <trkpt lat="47.50599" lon="6.77536">
        <ele>313</ele>
        <time>2015-03-15T11:18:20.000Z</time>
      </trkpt>
      <trkpt lat="47.50603" lon="6.77536">
        <ele>313</ele>
        <time>2015-03-15T11:18:21.000Z</time>
      </trkpt>
      <trkpt lat="47.50606" lon="6.77536">
        <ele>313</ele>
        <time>2015-03-15T11:18:22.000Z</time>
      </trkpt>
      <trkpt lat="47.50609" lon="6.77535">
        <ele>313</ele>
        <time>2015-03-15T11:18:23.000Z</time>
      </trkpt>
      <trkpt lat="47.50613" lon="6.77534">
        <ele>313</ele>
        <time>2015-03-15T11:18:24.000Z</time>
      </trkpt>
      <trkpt lat="47.50617" lon="6.77534">
        <ele>313</ele>
        <time>2015-03-15T11:18:25.000Z</time>
      </trkpt>
      <trkpt lat="47.50622" lon="6.77535">
        <ele>313</ele>
        <time>2015-03-15T11:18:26.000Z</time>
      </trkpt>
      <trkpt lat="47.50626" lon="6.77536">
        <ele>313</ele>
        <time>2015-03-15T11:18:27.000Z</time>
      </trkpt>
      <trkpt lat="47.5063" lon="6.77537">
        <ele>313</ele>
        <time>2015-03-15T11:18:28.000Z</time>
      </trkpt>
      <trkpt lat="47.50635" lon="6.77539">
        <ele>313</ele>
        <time>2015-03-15T11:18:29.000Z</time>
      </trkpt>
      <trkpt lat="47.50645" lon="6.77542">
        <ele>313</ele>
        <time>2015-03-15T11:18:30.000Z</time>
      </trkpt>
      <trkpt lat="47.5065" lon="6.77542">
        <ele>313</ele>
        <time>2015-03-15T11:18:31.000Z</time>
      </trkpt>
      <trkpt lat="47.50655" lon="6.77542">
        <ele>313</ele>
        <time>2015-03-15T11:18:32.000Z</time>
      </trkpt>
      <trkpt lat="47.5066" lon="6.77543">
        <ele>313</ele>
        <time>2015-03-15T11:18:33.000Z</time>
      </trkpt>
      <trkpt lat="47.50664" lon="6.77544">
        <ele>313</ele>
        <time>2015-03-15T11:18:34.000Z</time>
      </trkpt>
      <trkpt lat="47.5067" lon="6.77544">
        <ele>313</ele>
        <time>2015-03-15T11:18:35.000Z</time>
      </trkpt>
      <trkpt lat="47.50673" lon="6.77544">
        <ele>313</ele>
        <time>2015-03-15T11:18:36.000Z</time>
      </trkpt>
      <trkpt lat="47.50679" lon="6.77542">
        <ele>313</ele>
        <time>2015-03-15T11:18:37.000Z</time>
      </trkpt>
      <trkpt lat="47.50684" lon="6.77541">
        <ele>313</ele>
        <time>2015-03-15T11:18:38.000Z</time>
      </trkpt>
      <trkpt lat="47.50688" lon="6.7754">
        <ele>313</ele>
        <time>2015-03-15T11:18:39.000Z</time>
      </trkpt>
      <trkpt lat="47.50693" lon="6.77541">
        <ele>313</ele>
        <time>2015-03-15T11:18:40.000Z</time>
      </trkpt>
      <trkpt lat="47.50696" lon="6.77541">
        <ele>313</ele>
        <time>2015-03-15T11:18:41.000Z</time>
      </trkpt>
      <trkpt lat="47.507" lon="6.77542">
        <ele>313</ele>
        <time>2015-03-15T11:18:42.000Z</time>
      </trkpt>
      <trkpt lat="47.50705" lon="6.77546">
        <ele>313</ele>
        <time>2015-03-15T11:18:43.000Z</time>
      </trkpt>
      <trkpt lat="47.5071" lon="6.77548">
        <ele>313</ele>
        <time>2015-03-15T11:18:44.000Z</time>
      </trkpt>
      <trkpt lat="47.50715" lon="6.7755">
        <ele>313</ele>
        <time>2015-03-15T11:18:45.000Z</time>
      </trkpt>
      <trkpt lat="47.5072" lon="6.77553">
        <ele>313</ele>
        <time>2015-03-15T11:18:46.000Z</time>
      </trkpt>
      <trkpt lat="47.50725" lon="6.77554">
        <ele>313</ele>
        <time>2015-03-15T11:18:47.000Z</time>
      </trkpt>
      <trkpt lat="47.50728" lon="6.77557">
        <ele>313</ele>
        <time>2015-03-15T11:18:48.000Z</time>
      </trkpt>
      <trkpt lat="47.50732" lon="6.77558">
        <ele>313</ele>
        <time>2015-03-15T11:18:49.000Z</time>
      </trkpt>
      <trkpt lat="47.50736" lon="6.7756">
        <ele>313</ele>
        <time>2015-03-15T11:18:50.000Z</time>
      </trkpt>
      <trkpt lat="47.50742" lon="6.77562">
        <ele>313</ele>
        <time>2015-03-15T11:18:51.000Z</time>
      </trkpt>
      <trkpt lat="47.50745" lon="6.77564">
        <ele>313</ele>
        <time>2015-03-15T11:18:52.000Z</time>
      </trkpt>
      <trkpt lat="47.5075" lon="6.77568">
        <ele>314</ele>
        <time>2015-03-15T11:18:53.000Z</time>
      </trkpt>
      <trkpt lat="47.50756" lon="6.7757">
        <ele>314</ele>
        <time>2015-03-15T11:18:54.000Z</time>
      </trkpt>
      <trkpt lat="47.5076" lon="6.77573">
        <ele>314</ele>
        <time>2015-03-15T11:18:55.000Z</time>
      </trkpt>
      <trkpt lat="47.50763" lon="6.77577">
        <ele>314</ele>
        <time>2015-03-15T11:18:56.000Z</time>
      </trkpt>
      <trkpt lat="47.50768" lon="6.7758">
        <ele>314</ele>
        <time>2015-03-15T11:18:57.000Z</time>
      </trkpt>
      <trkpt lat="47.50772" lon="6.77581">
        <ele>314</ele>
        <time>2015-03-15T11:18:58.000Z</time>
      </trkpt>
      <trkpt lat="47.50776" lon="6.77585">
        <ele>314</ele>
        <time>2015-03-15T11:18:59.000Z</time>
      </trkpt>
      <trkpt lat="47.5078" lon="6.77588">
        <ele>315</ele>
        <time>2015-03-15T11:19:00.000Z</time>
      </trkpt>
      <trkpt lat="47.50784" lon="6.77592">
        <ele>315</ele>
        <time>2015-03-15T11:19:01.000Z</time>
      </trkpt>
      <trkpt lat="47.50788" lon="6.77594">
        <ele>315</ele>
        <time>2015-03-15T11:19:02.000Z</time>
      </trkpt>
      <trkpt lat="47.50792" lon="6.77596">
        <ele>315</ele>
        <time>2015-03-15T11:19:03.000Z</time>
      </trkpt>
      <trkpt lat="47.50795" lon="6.77599">
        <ele>315</ele>
        <time>2015-03-15T11:19:04.000Z</time>
      </trkpt>
      <trkpt lat="47.50798" lon="6.77602">
        <ele>315</ele>
        <time>2015-03-15T11:19:05.000Z</time>
      </trkpt>
      <trkpt lat="47.50802" lon="6.77606">
        <ele>315</ele>
        <time>2015-03-15T11:19:06.000Z</time>
      </trkpt>
      <trkpt lat="47.50806" lon="6.7761">
        <ele>315</ele>
        <time>2015-03-15T11:19:07.000Z</time>
      </trkpt>
      <trkpt lat="47.50809" lon="6.77614">
        <ele>315</ele>
        <time>2015-03-15T11:19:08.000Z</time>
      </trkpt>
      <trkpt lat="47.50813" lon="6.77618">
        <ele>315</ele>
        <time>2015-03-15T11:19:09.000Z</time>
      </trkpt>
      <trkpt lat="47.50816" lon="6.77622">
        <ele>316</ele>
        <time>2015-03-15T11:19:10.000Z</time>
      </trkpt>
      <trkpt lat="47.5082" lon="6.77626">
        <ele>316</ele>
        <time>2015-03-15T11:19:11.000Z</time>
      </trkpt>
      <trkpt lat="47.50824" lon="6.77631">
        <ele>316</ele>
        <time>2015-03-15T11:19:12.000Z</time>
      </trkpt>
      <trkpt lat="47.50828" lon="6.77636">
        <ele>316</ele>
        <time>2015-03-15T11:19:13.000Z</time>
      </trkpt>
      <trkpt lat="47.50832" lon="6.7764">
        <ele>316</ele>
        <time>2015-03-15T11:19:14.000Z</time>
      </trkpt>
      <trkpt lat="47.50835" lon="6.77645">
        <ele>317</ele>
        <time>2015-03-15T11:19:15.000Z</time>
      </trkpt>
      <trkpt lat="47.50839" lon="6.77649">
        <ele>317</ele>
        <time>2015-03-15T11:19:16.000Z</time>
      </trkpt>
      <trkpt lat="47.50842" lon="6.77654">
        <ele>317</ele>
        <time>2015-03-15T11:19:17.000Z</time>
      </trkpt>
      <trkpt lat="47.50845" lon="6.77658">
        <ele>317</ele>
        <time>2015-03-15T11:19:18.000Z</time>
      </trkpt>
      <trkpt lat="47.50848" lon="6.77663">
        <ele>317</ele>
        <time>2015-03-15T11:19:19.000Z</time>
      </trkpt>
      <trkpt lat="47.50851" lon="6.77667">
        <ele>316</ele>
        <time>2015-03-15T11:19:20.000Z</time>
      </trkpt>
      <trkpt lat="47.50854" lon="6.77672">
        <ele>316</ele>
        <time>2015-03-15T11:19:21.000Z</time>
      </trkpt>
      <trkpt lat="47.50857" lon="6.77677">
        <ele>316</ele>
        <time>2015-03-15T11:19:22.000Z</time>
      </trkpt>
      <trkpt lat="47.5086" lon="6.77681">
        <ele>316</ele>
        <time>2015-03-15T11:19:23.000Z</time>
      </trkpt>
      <trkpt lat="47.50862" lon="6.77685">
        <ele>316</ele>
        <time>2015-03-15T11:19:24.000Z</time>
      </trkpt>
      <trkpt lat="47.50864" lon="6.77689">
        <ele>316</ele>
        <time>2015-03-15T11:19:25.000Z</time>
      </trkpt>
      <trkpt lat="47.50866" lon="6.77693">
        <ele>316</ele>
        <time>2015-03-15T11:19:26.000Z</time>
      </trkpt>
      <trkpt lat="47.50869" lon="6.77697">
        <ele>316</ele>
        <time>2015-03-15T11:19:27.000Z</time>
      </trkpt>
      <trkpt lat="47.50872" lon="6.77701">
        <ele>316</ele>
        <time>2015-03-15T11:19:28.000Z</time>
      </trkpt>
      <trkpt lat="47.50875" lon="6.77704">
        <ele>316</ele>
        <time>2015-03-15T11:19:29.000Z</time>
      </trkpt>
      <trkpt lat="47.5088" lon="6.77706">
        <ele>316</ele>
        <time>2015-03-15T11:19:30.000Z</time>
      </trkpt>
      <trkpt lat="47.50885" lon="6.77706">
        <ele>316</ele>
        <time>2015-03-15T11:19:31.000Z</time>
      </trkpt>
      <trkpt lat="47.5089" lon="6.77706">
        <ele>316</ele>
        <time>2015-03-15T11:19:32.000Z</time>
      </trkpt>
      <trkpt lat="47.50895" lon="6.77704">
        <ele>316</ele>
        <time>2015-03-15T11:19:33.000Z</time>
      </trkpt>
      <trkpt lat="47.509" lon="6.77703">
        <ele>316</ele>
        <time>2015-03-15T11:19:34.000Z</time>
      </trkpt>
      <trkpt lat="47.50905" lon="6.77703">
        <ele>316</ele>
        <time>2015-03-15T11:19:35.000Z</time>
      </trkpt>
      <trkpt lat="47.50909" lon="6.77702">
        <ele>316</ele>
        <time>2015-03-15T11:19:36.000Z</time>
      </trkpt>
      <trkpt lat="47.50918" lon="6.77703">
        <ele>315</ele>
        <time>2015-03-15T11:19:37.000Z</time>
      </trkpt>
      <trkpt lat="47.50923" lon="6.77704">
        <ele>315</ele>
        <time>2015-03-15T11:19:38.000Z</time>
      </trkpt>
      <trkpt lat="47.50926" lon="6.77705">
        <ele>315</ele>
        <time>2015-03-15T11:19:39.000Z</time>
      </trkpt>
      <trkpt lat="47.50929" lon="6.77705">
        <ele>315</ele>
        <time>2015-03-15T11:19:40.000Z</time>
      </trkpt>
      <trkpt lat="47.50933" lon="6.77707">
        <ele>315</ele>
        <time>2015-03-15T11:19:41.000Z</time>
      </trkpt>
      <trkpt lat="47.50936" lon="6.77709">
        <ele>315</ele>
        <time>2015-03-15T11:19:42.000Z</time>
      </trkpt>
      <trkpt lat="47.5094" lon="6.77707">
        <ele>315</ele>
        <time>2015-03-15T11:19:44.000Z</time>
      </trkpt>
      <trkpt lat="47.50941" lon="6.77707">
        <ele>315</ele>
        <time>2015-03-15T11:19:45.000Z</time>
      </trkpt>
      <trkpt lat="47.50946" lon="6.77708">
        <ele>315</ele>
        <time>2015-03-15T11:19:47.000Z</time>
      </trkpt>
      <trkpt lat="47.50949" lon="6.77707">
        <ele>315</ele>
        <time>2015-03-15T11:19:48.000Z</time>
      </trkpt>
      <trkpt lat="47.50952" lon="6.77706">
        <ele>315</ele>
        <time>2015-03-15T11:19:49.000Z</time>
      </trkpt>
      <trkpt lat="47.50955" lon="6.77705">
        <ele>315</ele>
        <time>2015-03-15T11:19:50.000Z</time>
      </trkpt>
      <trkpt lat="47.50958" lon="6.77704">
        <ele>315</ele>
        <time>2015-03-15T11:19:51.000Z</time>
      </trkpt>
      <trkpt lat="47.50961" lon="6.77702">
        <ele>315</ele>
        <time>2015-03-15T11:19:52.000Z</time>
      </trkpt>
      <trkpt lat="47.50963" lon="6.77701">
        <ele>315</ele>
        <time>2015-03-15T11:19:53.000Z</time>
      </trkpt>
      <trkpt lat="47.50966" lon="6.777">
        <ele>315</ele>
        <time>2015-03-15T11:19:54.000Z</time>
      </trkpt>
      <trkpt lat="47.50969" lon="6.77701">
        <ele>315</ele>
        <time>2015-03-15T11:19:55.000Z</time>
      </trkpt>
      <trkpt lat="47.50972" lon="6.77702">
        <ele>315</ele>
        <time>2015-03-15T11:19:56.000Z</time>
      </trkpt>
      <trkpt lat="47.50975" lon="6.77705">
        <ele>315</ele>
        <time>2015-03-15T11:19:57.000Z</time>
      </trkpt>
      <trkpt lat="47.50978" lon="6.77709">
        <ele>315</ele>
        <time>2015-03-15T11:19:58.000Z</time>
      </trkpt>
      <trkpt lat="47.50981" lon="6.77712">
        <ele>315</ele>
        <time>2015-03-15T11:19:59.000Z</time>
      </trkpt>
      <trkpt lat="47.50984" lon="6.77716">
        <ele>315</ele>
        <time>2015-03-15T11:20:00.000Z</time>
      </trkpt>
      <trkpt lat="47.50988" lon="6.77719">
        <ele>315</ele>
        <time>2015-03-15T11:20:01.000Z</time>
      </trkpt>
      <trkpt lat="47.50991" lon="6.77721">
        <ele>315</ele>
        <time>2015-03-15T11:20:02.000Z</time>
      </trkpt>
      <trkpt lat="47.50993" lon="6.77724">
        <ele>315</ele>
        <time>2015-03-15T11:20:03.000Z</time>
      </trkpt>
      <trkpt lat="47.50995" lon="6.77727">
        <ele>315</ele>
        <time>2015-03-15T11:20:04.000Z</time>
      </trkpt>
      <trkpt lat="47.50997" lon="6.77729">
        <ele>315</ele>
        <time>2015-03-15T11:20:05.000Z</time>
      </trkpt>
      <trkpt lat="47.51" lon="6.77732">
        <ele>316</ele>
        <time>2015-03-15T11:20:06.000Z</time>
      </trkpt>
      <trkpt lat="47.51004" lon="6.77735">
        <ele>316</ele>
        <time>2015-03-15T11:20:07.000Z</time>
      </trkpt>
      <trkpt lat="47.51007" lon="6.77738">
        <ele>316</ele>
        <time>2015-03-15T11:20:08.000Z</time>
      </trkpt>
      <trkpt lat="47.51011" lon="6.77741">
        <ele>316</ele>
        <time>2015-03-15T11:20:09.000Z</time>
      </trkpt>
      <trkpt lat="47.51014" lon="6.77743">
        <ele>316</ele>
        <time>2015-03-15T11:20:10.000Z</time>
      </trkpt>
      <trkpt lat="47.51017" lon="6.77746">
        <ele>317</ele>
        <time>2015-03-15T11:20:11.000Z</time>
      </trkpt>
      <trkpt lat="47.5102" lon="6.77748">
        <ele>317</ele>
        <time>2015-03-15T11:20:12.000Z</time>
      </trkpt>
      <trkpt lat="47.51023" lon="6.7775">
        <ele>317</ele>
        <time>2015-03-15T11:20:13.000Z</time>
      </trkpt>
      <trkpt lat="47.51026" lon="6.77752">
        <ele>317</ele>
        <time>2015-03-15T11:20:14.000Z</time>
      </trkpt>
      <trkpt lat="47.51028" lon="6.77753">
        <ele>317</ele>
        <time>2015-03-15T11:20:15.000Z</time>
      </trkpt>
      <trkpt lat="47.51031" lon="6.77755">
        <ele>317</ele>
        <time>2015-03-15T11:20:16.000Z</time>
      </trkpt>
      <trkpt lat="47.51033" lon="6.77756">
        <ele>318</ele>
        <time>2015-03-15T11:20:17.000Z</time>
      </trkpt>
      <trkpt lat="47.51036" lon="6.77758">
        <ele>318</ele>
        <time>2015-03-15T11:20:18.000Z</time>
      </trkpt>
      <trkpt lat="47.51038" lon="6.77759">
        <ele>318</ele>
        <time>2015-03-15T11:20:19.000Z</time>
      </trkpt>
      <trkpt lat="47.51041" lon="6.77761">
        <ele>318</ele>
        <time>2015-03-15T11:20:20.000Z</time>
      </trkpt>
      <trkpt lat="47.51044" lon="6.77765">
        <ele>318</ele>
        <time>2015-03-15T11:20:22.000Z</time>
      </trkpt>
      <trkpt lat="47.51045" lon="6.77768">
        <ele>318</ele>
        <time>2015-03-15T11:20:23.000Z</time>
      </trkpt>
      <trkpt lat="47.51047" lon="6.7777">
        <ele>318</ele>
        <time>2015-03-15T11:20:24.000Z</time>
      </trkpt>
      <trkpt lat="47.51049" lon="6.77772">
        <ele>318</ele>
        <time>2015-03-15T11:20:25.000Z</time>
      </trkpt>
      <trkpt lat="47.51052" lon="6.77773">
        <ele>318</ele>
        <time>2015-03-15T11:20:26.000Z</time>
      </trkpt>
      <trkpt lat="47.51056" lon="6.77775">
        <ele>318</ele>
        <time>2015-03-15T11:20:27.000Z</time>
      </trkpt>
      <trkpt lat="47.5106" lon="6.77775">
        <ele>318</ele>
        <time>2015-03-15T11:20:28.000Z</time>
      </trkpt>
      <trkpt lat="47.51065" lon="6.77777">
        <ele>318</ele>
        <time>2015-03-15T11:20:29.000Z</time>
      </trkpt>
      <trkpt lat="47.51069" lon="6.77778">
        <ele>319</ele>
        <time>2015-03-15T11:20:30.000Z</time>
      </trkpt>
      <trkpt lat="47.51073" lon="6.77779">
        <ele>319</ele>
        <time>2015-03-15T11:20:31.000Z</time>
      </trkpt>
      <trkpt lat="47.51077" lon="6.7778">
        <ele>319</ele>
        <time>2015-03-15T11:20:32.000Z</time>
      </trkpt>
      <trkpt lat="47.51081" lon="6.77781">
        <ele>319</ele>
        <time>2015-03-15T11:20:33.000Z</time>
      </trkpt>
      <trkpt lat="47.51084" lon="6.77781">
        <ele>321</ele>
        <time>2015-03-15T11:20:34.000Z</time>
      </trkpt>
      <trkpt lat="47.51088" lon="6.77782">
        <ele>321</ele>
        <time>2015-03-15T11:20:35.000Z</time>
      </trkpt>
      <trkpt lat="47.51091" lon="6.77782">
        <ele>321</ele>
        <time>2015-03-15T11:20:36.000Z</time>
      </trkpt>
      <trkpt lat="47.51095" lon="6.77783">
        <ele>321</ele>
        <time>2015-03-15T11:20:37.000Z</time>
      </trkpt>
      <trkpt lat="47.51098" lon="6.77784">
        <ele>322</ele>
        <time>2015-03-15T11:20:38.000Z</time>
      </trkpt>
      <trkpt lat="47.51101" lon="6.77784">
        <ele>322</ele>
        <time>2015-03-15T11:20:39.000Z</time>
      </trkpt>
      <trkpt lat="47.51104" lon="6.77785">
        <ele>322</ele>
        <time>2015-03-15T11:20:40.000Z</time>
      </trkpt>
      <trkpt lat="47.51108" lon="6.77786">
        <ele>322</ele>
        <time>2015-03-15T11:20:41.000Z</time>
      </trkpt>
      <trkpt lat="47.51111" lon="6.77786">
        <ele>322</ele>
        <time>2015-03-15T11:20:42.000Z</time>
      </trkpt>
      <trkpt lat="47.51114" lon="6.77787">
        <ele>322</ele>
        <time>2015-03-15T11:20:43.000Z</time>
      </trkpt>
      <trkpt lat="47.51117" lon="6.77788">
        <ele>322</ele>
        <time>2015-03-15T11:20:44.000Z</time>
      </trkpt>
      <trkpt lat="47.5112" lon="6.77789">
        <ele>322</ele>
        <time>2015-03-15T11:20:45.000Z</time>
      </trkpt>
      <trkpt lat="47.51123" lon="6.77791">
        <ele>322</ele>
        <time>2015-03-15T11:20:46.000Z</time>
      </trkpt>
      <trkpt lat="47.51126" lon="6.77794">
        <ele>322</ele>
        <time>2015-03-15T11:20:47.000Z</time>
      </trkpt>
      <trkpt lat="47.51128" lon="6.77796">
        <ele>322</ele>
        <time>2015-03-15T11:20:48.000Z</time>
      </trkpt>
      <trkpt lat="47.5113" lon="6.77797">
        <ele>322</ele>
        <time>2015-03-15T11:20:49.000Z</time>
      </trkpt>
      <trkpt lat="47.51132" lon="6.77798">
        <ele>322</ele>
        <time>2015-03-15T11:20:50.000Z</time>
      </trkpt>
      <trkpt lat="47.51135" lon="6.77798">
        <ele>323</ele>
        <time>2015-03-15T11:20:51.000Z</time>
      </trkpt>
      <trkpt lat="47.51138" lon="6.77797">
        <ele>323</ele>
        <time>2015-03-15T11:20:52.000Z</time>
      </trkpt>
      <trkpt lat="47.51141" lon="6.77797">
        <ele>323</ele>
        <time>2015-03-15T11:20:53.000Z</time>
      </trkpt>
      <trkpt lat="47.51145" lon="6.77797">
        <ele>323</ele>
        <time>2015-03-15T11:20:54.000Z</time>
      </trkpt>
      <trkpt lat="47.51148" lon="6.77797">
        <ele>323</ele>
        <time>2015-03-15T11:20:55.000Z</time>
      </trkpt>
      <trkpt lat="47.5115" lon="6.77796">
        <ele>323</ele>
        <time>2015-03-15T11:20:56.000Z</time>
      </trkpt>
      <trkpt lat="47.51153" lon="6.77797">
        <ele>323</ele>
        <time>2015-03-15T11:20:57.000Z</time>
      </trkpt>
      <trkpt lat="47.51156" lon="6.77797">
        <ele>323</ele>
        <time>2015-03-15T11:20:58.000Z</time>
      </trkpt>
      <trkpt lat="47.51159" lon="6.77797">
        <ele>323</ele>
        <time>2015-03-15T11:20:59.000Z</time>
      </trkpt>
      <trkpt lat="47.51163" lon="6.77796">
        <ele>323</ele>
        <time>2015-03-15T11:21:00.000Z</time>
      </trkpt>
      <trkpt lat="47.51166" lon="6.77795">
        <ele>323</ele>
        <time>2015-03-15T11:21:01.000Z</time>
      </trkpt>
      <trkpt lat="47.51169" lon="6.77794">
        <ele>326</ele>
        <time>2015-03-15T11:21:02.000Z</time>
      </trkpt>
      <trkpt lat="47.51172" lon="6.77793">
        <ele>326</ele>
        <time>2015-03-15T11:21:03.000Z</time>
      </trkpt>
      <trkpt lat="47.51175" lon="6.77793">
        <ele>326</ele>
        <time>2015-03-15T11:21:04.000Z</time>
      </trkpt>
      <trkpt lat="47.51177" lon="6.77794">
        <ele>326</ele>
        <time>2015-03-15T11:21:05.000Z</time>
      </trkpt>
      <trkpt lat="47.51181" lon="6.77795">
        <ele>326</ele>
        <time>2015-03-15T11:21:07.000Z</time>
      </trkpt>
      <trkpt lat="47.51184" lon="6.77795">
        <ele>326</ele>
        <time>2015-03-15T11:21:08.000Z</time>
      </trkpt>
      <trkpt lat="47.51186" lon="6.77795">
        <ele>326</ele>
        <time>2015-03-15T11:21:09.000Z</time>
      </trkpt>
      <trkpt lat="47.51189" lon="6.77794">
        <ele>326</ele>
        <time>2015-03-15T11:21:10.000Z</time>
      </trkpt>
      <trkpt lat="47.51192" lon="6.77794">
        <ele>327</ele>
        <time>2015-03-15T11:21:11.000Z</time>
      </trkpt>
      <trkpt lat="47.51194" lon="6.77793">
        <ele>327</ele>
        <time>2015-03-15T11:21:12.000Z</time>
      </trkpt>
      <trkpt lat="47.51197" lon="6.77793">
        <ele>327</ele>
        <time>2015-03-15T11:21:13.000Z</time>
      </trkpt>
      <trkpt lat="47.512" lon="6.77792">
        <ele>327</ele>
        <time>2015-03-15T11:21:14.000Z</time>
      </trkpt>
      <trkpt lat="47.51202" lon="6.77792">
        <ele>327</ele>
        <time>2015-03-15T11:21:15.000Z</time>
      </trkpt>
      <trkpt lat="47.51205" lon="6.77792">
        <ele>327</ele>
        <time>2015-03-15T11:21:16.000Z</time>
      </trkpt>
      <trkpt lat="47.51207" lon="6.77792">
        <ele>327</ele>
        <time>2015-03-15T11:21:17.000Z</time>
      </trkpt>
      <trkpt lat="47.5121" lon="6.77792">
        <ele>327</ele>
        <time>2015-03-15T11:21:18.000Z</time>
      </trkpt>
      <trkpt lat="47.51212" lon="6.77792">
        <ele>327</ele>
        <time>2015-03-15T11:21:19.001Z</time>
      </trkpt>
      <trkpt lat="47.51214" lon="6.77791">
        <ele>327</ele>
        <time>2015-03-15T11:21:20.000Z</time>
      </trkpt>
      <trkpt lat="47.51218" lon="6.77791">
        <ele>327</ele>
        <time>2015-03-15T11:21:22.000Z</time>
      </trkpt>
      <trkpt lat="47.5122" lon="6.77792">
        <ele>327</ele>
        <time>2015-03-15T11:21:23.000Z</time>
      </trkpt>
      <trkpt lat="47.51222" lon="6.77791">
        <ele>327</ele>
        <time>2015-03-15T11:21:24.000Z</time>
      </trkpt>
      <trkpt lat="47.51224" lon="6.77789">
        <ele>327</ele>
        <time>2015-03-15T11:21:25.000Z</time>
      </trkpt>
      <trkpt lat="47.51227" lon="6.77786">
        <ele>328</ele>
        <time>2015-03-15T11:21:26.000Z</time>
      </trkpt>
      <trkpt lat="47.51231" lon="6.77783">
        <ele>328</ele>
        <time>2015-03-15T11:21:27.000Z</time>
      </trkpt>
      <trkpt lat="47.51234" lon="6.77782">
        <ele>328</ele>
        <time>2015-03-15T11:21:28.000Z</time>
      </trkpt>
      <trkpt lat="47.51238" lon="6.77781">
        <ele>328</ele>
        <time>2015-03-15T11:21:29.000Z</time>
      </trkpt>
      <trkpt lat="47.51241" lon="6.7778">
        <ele>328</ele>
        <time>2015-03-15T11:21:30.000Z</time>
      </trkpt>
      <trkpt lat="47.51244" lon="6.77779">
        <ele>328</ele>
        <time>2015-03-15T11:21:31.000Z</time>
      </trkpt>
      <trkpt lat="47.51247" lon="6.77778">
        <ele>328</ele>
        <time>2015-03-15T11:21:32.000Z</time>
      </trkpt>
      <trkpt lat="47.51251" lon="6.77778">
        <ele>333</ele>
        <time>2015-03-15T11:21:33.000Z</time>
      </trkpt>
      <trkpt lat="47.51255" lon="6.77775">
        <ele>333</ele>
        <time>2015-03-15T11:21:34.000Z</time>
      </trkpt>
      <trkpt lat="47.51258" lon="6.77774">
        <ele>333</ele>
        <time>2015-03-15T11:21:35.000Z</time>
      </trkpt>
      <trkpt lat="47.51262" lon="6.77774">
        <ele>334</ele>
        <time>2015-03-15T11:21:37.000Z</time>
      </trkpt>
      <trkpt lat="47.51264" lon="6.77774">
        <ele>334</ele>
        <time>2015-03-15T11:21:38.000Z</time>
      </trkpt>
      <trkpt lat="47.51267" lon="6.77776">
        <ele>334</ele>
        <time>2015-03-15T11:21:40.000Z</time>
      </trkpt>
      <trkpt lat="47.51268" lon="6.77777">
        <ele>334</ele>
        <time>2015-03-15T11:21:41.000Z</time>
      </trkpt>
      <trkpt lat="47.51271" lon="6.7778">
        <ele>334</ele>
        <time>2015-03-15T11:21:44.000Z</time>
      </trkpt>
      <trkpt lat="47.51272" lon="6.7778">
        <ele>335</ele>
        <time>2015-03-15T11:21:45.000Z</time>
      </trkpt>
      <trkpt lat="47.51275" lon="6.77782">
        <ele>335</ele>
        <time>2015-03-15T11:21:47.000Z</time>
      </trkpt>
      <trkpt lat="47.51277" lon="6.77783">
        <ele>335</ele>
        <time>2015-03-15T11:21:48.000Z</time>
      </trkpt>
      <trkpt lat="47.51281" lon="6.77784">
        <ele>335</ele>
        <time>2015-03-15T11:21:50.000Z</time>
      </trkpt>
      <trkpt lat="47.51282" lon="6.77784">
        <ele>335</ele>
        <time>2015-03-15T11:21:51.000Z</time>
      </trkpt>
      <trkpt lat="47.51285" lon="6.77784">
        <ele>336</ele>
        <time>2015-03-15T11:21:53.000Z</time>
      </trkpt>
      <trkpt lat="47.51287" lon="6.77783">
        <ele>336</ele>
        <time>2015-03-15T11:21:54.000Z</time>
      </trkpt>
      <trkpt lat="47.51289" lon="6.77782">
        <ele>336</ele>
        <time>2015-03-15T11:21:55.000Z</time>
      </trkpt>
      <trkpt lat="47.51292" lon="6.77781">
        <ele>336</ele>
        <time>2015-03-15T11:21:56.000Z</time>
      </trkpt>
      <trkpt lat="47.51295" lon="6.77781">
        <ele>337</ele>
        <time>2015-03-15T11:21:58.000Z</time>
      </trkpt>
      <trkpt lat="47.51296" lon="6.77781">
        <ele>337</ele>
        <time>2015-03-15T11:21:59.000Z</time>
      </trkpt>
      <trkpt lat="47.513" lon="6.7778">
        <ele>337</ele>
        <time>2015-03-15T11:22:01.000Z</time>
      </trkpt>
      <trkpt lat="47.51302" lon="6.77779">
        <ele>337</ele>
        <time>2015-03-15T11:22:02.000Z</time>
      </trkpt>
      <trkpt lat="47.51305" lon="6.77779">
        <ele>337</ele>
        <time>2015-03-15T11:22:04.000Z</time>
      </trkpt>
      <trkpt lat="47.51307" lon="6.77778">
        <ele>338</ele>
        <time>2015-03-15T11:22:05.000Z</time>
      </trkpt>
      <trkpt lat="47.51311" lon="6.77778">
        <ele>338</ele>
        <time>2015-03-15T11:22:07.000Z</time>
      </trkpt>
      <trkpt lat="47.51314" lon="6.77778">
        <ele>338</ele>
        <time>2015-03-15T11:22:08.000Z</time>
      </trkpt>
      <trkpt lat="47.51318" lon="6.77777">
        <ele>338</ele>
        <time>2015-03-15T11:22:10.000Z</time>
      </trkpt>
      <trkpt lat="47.5132" lon="6.77777">
        <ele>339</ele>
        <time>2015-03-15T11:22:11.000Z</time>
      </trkpt>
      <trkpt lat="47.51324" lon="6.77776">
        <ele>339</ele>
        <time>2015-03-15T11:22:13.000Z</time>
      </trkpt>
      <trkpt lat="47.51325" lon="6.77775">
        <ele>339</ele>
        <time>2015-03-15T11:22:14.000Z</time>
      </trkpt>
      <trkpt lat="47.51329" lon="6.77775">
        <ele>339</ele>
        <time>2015-03-15T11:22:16.000Z</time>
      </trkpt>
      <trkpt lat="47.5133" lon="6.77775">
        <ele>339</ele>
        <time>2015-03-15T11:22:17.000Z</time>
      </trkpt>
      <trkpt lat="47.51334" lon="6.77778">
        <ele>348</ele>
        <time>2015-03-15T11:22:20.000Z</time>
      </trkpt>
      <trkpt lat="47.51335" lon="6.77779">
        <ele>348</ele>
        <time>2015-03-15T11:22:21.000Z</time>
      </trkpt>
      <trkpt lat="47.51338" lon="6.77779">
        <ele>348</ele>
        <time>2015-03-15T11:22:23.000Z</time>
      </trkpt>
      <trkpt lat="47.5134" lon="6.77778">
        <ele>348</ele>
        <time>2015-03-15T11:22:24.000Z</time>
      </trkpt>
      <trkpt lat="47.51344" lon="6.77776">
        <ele>348</ele>
        <time>2015-03-15T11:22:26.000Z</time>
      </trkpt>
      <trkpt lat="47.51346" lon="6.77775">
        <ele>348</ele>
        <time>2015-03-15T11:22:26.999Z</time>
      </trkpt>
      <trkpt lat="47.5135" lon="6.77773">
        <ele>348</ele>
        <time>2015-03-15T11:22:28.999Z</time>
      </trkpt>
      <trkpt lat="47.51352" lon="6.77771">
        <ele>349</ele>
        <time>2015-03-15T11:22:30.000Z</time>
      </trkpt>
      <trkpt lat="47.51355" lon="6.77769">
        <ele>349</ele>
        <time>2015-03-15T11:22:32.001Z</time>
      </trkpt>
      <trkpt lat="47.51356" lon="6.77768">
        <ele>349</ele>
        <time>2015-03-15T11:22:33.000Z</time>
      </trkpt>
      <trkpt lat="47.51359" lon="6.77766">
        <ele>349</ele>
        <time>2015-03-15T11:22:35.000Z</time>
      </trkpt>
      <trkpt lat="47.51361" lon="6.77765">
        <ele>349</ele>
        <time>2015-03-15T11:22:36.000Z</time>
      </trkpt>
      <trkpt lat="47.51364" lon="6.77764">
        <ele>350</ele>
        <time>2015-03-15T11:22:38.000Z</time>
      </trkpt>
      <trkpt lat="47.51366" lon="6.77763">
        <ele>350</ele>
        <time>2015-03-15T11:22:39.000Z</time>
      </trkpt>
      <trkpt lat="47.5137" lon="6.77762">
        <ele>350</ele>
        <time>2015-03-15T11:22:42.000Z</time>
      </trkpt>
      <trkpt lat="47.51371" lon="6.77762">
        <ele>350</ele>
        <time>2015-03-15T11:22:43.000Z</time>
      </trkpt>
      <trkpt lat="47.51374" lon="6.77759">
        <ele>351</ele>
        <time>2015-03-15T11:22:45.000Z</time>
      </trkpt>
      <trkpt lat="47.51376" lon="6.77758">
        <ele>351</ele>
        <time>2015-03-15T11:22:46.000Z</time>
      </trkpt>
      <trkpt lat="47.51379" lon="6.77756">
        <ele>351</ele>
        <time>2015-03-15T11:22:48.000Z</time>
      </trkpt>
      <trkpt lat="47.51381" lon="6.77756">
        <ele>351</ele>
        <time>2015-03-15T11:22:49.000Z</time>
      </trkpt>
      <trkpt lat="47.51384" lon="6.77755">
        <ele>352</ele>
        <time>2015-03-15T11:22:51.000Z</time>
      </trkpt>
      <trkpt lat="47.51386" lon="6.77755">
        <ele>352</ele>
        <time>2015-03-15T11:22:52.000Z</time>
      </trkpt>
      <trkpt lat="47.51389" lon="6.77754">
        <ele>352</ele>
        <time>2015-03-15T11:22:54.000Z</time>
      </trkpt>
      <trkpt lat="47.5139" lon="6.77753">
        <ele>353</ele>
        <time>2015-03-15T11:22:55.000Z</time>
      </trkpt>
      <trkpt lat="47.51394" lon="6.7775">
        <ele>353</ele>
        <time>2015-03-15T11:22:57.000Z</time>
      </trkpt>
      <trkpt lat="47.51396" lon="6.77749">
        <ele>355</ele>
        <time>2015-03-15T11:22:58.000Z</time>
      </trkpt>
      <trkpt lat="47.514" lon="6.77748">
        <ele>356</ele>
        <time>2015-03-15T11:23:00.000Z</time>
      </trkpt>
      <trkpt lat="47.51402" lon="6.77748">
        <ele>356</ele>
        <time>2015-03-15T11:23:01.000Z</time>
      </trkpt>
      <trkpt lat="47.51405" lon="6.77749">
        <ele>356</ele>
        <time>2015-03-15T11:23:04.000Z</time>
      </trkpt>
      <trkpt lat="47.51406" lon="6.7775">
        <ele>356</ele>
        <time>2015-03-15T11:23:05.000Z</time>
      </trkpt>
      <trkpt lat="47.5141" lon="6.77753">
        <ele>355</ele>
        <time>2015-03-15T11:23:08.000Z</time>
      </trkpt>
      <trkpt lat="47.51411" lon="6.77753">
        <ele>355</ele>
        <time>2015-03-15T11:23:09.000Z</time>
      </trkpt>
      <trkpt lat="47.51414" lon="6.7775">
        <ele>356</ele>
        <time>2015-03-15T11:23:12.000Z</time>
      </trkpt>
      <trkpt lat="47.51415" lon="6.77749">
        <ele>356</ele>
        <time>2015-03-15T11:23:13.000Z</time>
      </trkpt>
      <trkpt lat="47.51418" lon="6.77746">
        <ele>358</ele>
        <time>2015-03-15T11:23:16.000Z</time>
      </trkpt>
      <trkpt lat="47.5142" lon="6.77746">
        <ele>358</ele>
        <time>2015-03-15T11:23:17.000Z</time>
      </trkpt>
      <trkpt lat="47.51423" lon="6.77744">
        <ele>359</ele>
        <time>2015-03-15T11:23:19.000Z</time>
      </trkpt>
      <trkpt lat="47.51425" lon="6.77742">
        <ele>360</ele>
        <time>2015-03-15T11:23:20.000Z</time>
      </trkpt>
      <trkpt lat="47.51429" lon="6.7774">
        <ele>361</ele>
        <time>2015-03-15T11:23:22.000Z</time>
      </trkpt>
      <trkpt lat="47.51431" lon="6.77739">
        <ele>361</ele>
        <time>2015-03-15T11:23:23.000Z</time>
      </trkpt>
      <trkpt lat="47.51434" lon="6.77738">
        <ele>362</ele>
        <time>2015-03-15T11:23:25.000Z</time>
      </trkpt>
      <trkpt lat="47.51435" lon="6.77738">
        <ele>362</ele>
        <time>2015-03-15T11:23:26.000Z</time>
      </trkpt>
      <trkpt lat="47.51439" lon="6.77739">
        <ele>363</ele>
        <time>2015-03-15T11:23:29.000Z</time>
      </trkpt>
      <trkpt lat="47.5144" lon="6.77739">
        <ele>363</ele>
        <time>2015-03-15T11:23:30.000Z</time>
      </trkpt>
      <trkpt lat="47.51443" lon="6.77741">
        <ele>363</ele>
        <time>2015-03-15T11:23:33.000Z</time>
      </trkpt>
      <trkpt lat="47.51444" lon="6.77742">
        <ele>363</ele>
        <time>2015-03-15T11:23:34.000Z</time>
      </trkpt>
      <trkpt lat="47.51449" lon="6.77741">
        <ele>364</ele>
        <time>2015-03-15T11:23:37.000Z</time>
      </trkpt>
      <trkpt lat="47.51451" lon="6.7774">
        <ele>364</ele>
        <time>2015-03-15T11:23:38.000Z</time>
      </trkpt>
      <trkpt lat="47.51454" lon="6.77739">
        <ele>364</ele>
        <time>2015-03-15T11:23:40.000Z</time>
      </trkpt>
      <trkpt lat="47.51455" lon="6.77739">
        <ele>364</ele>
        <time>2015-03-15T11:23:41.000Z</time>
      </trkpt>
      <trkpt lat="47.51459" lon="6.77738">
        <ele>365</ele>
        <time>2015-03-15T11:23:44.000Z</time>
      </trkpt>
      <trkpt lat="47.51461" lon="6.77738">
        <ele>365</ele>
        <time>2015-03-15T11:23:45.000Z</time>
      </trkpt>
      <trkpt lat="47.51465" lon="6.77739">
        <ele>365</ele>
        <time>2015-03-15T11:23:49.000Z</time>
      </trkpt>
      <trkpt lat="47.51466" lon="6.77738">
        <ele>365</ele>
        <time>2015-03-15T11:23:50.000Z</time>
      </trkpt>
      <trkpt lat="47.51468" lon="6.77737">
        <ele>365</ele>
        <time>2015-03-15T11:23:51.000Z</time>
      </trkpt>
      <trkpt lat="47.5147" lon="6.77735">
        <ele>365</ele>
        <time>2015-03-15T11:23:52.000Z</time>
      </trkpt>
      <trkpt lat="47.51473" lon="6.77733">
        <ele>366</ele>
        <time>2015-03-15T11:23:53.000Z</time>
      </trkpt>
      <trkpt lat="47.51475" lon="6.77731">
        <ele>366</ele>
        <time>2015-03-15T11:23:54.000Z</time>
      </trkpt>
      <trkpt lat="47.51479" lon="6.7773">
        <ele>366</ele>
        <time>2015-03-15T11:23:56.000Z</time>
      </trkpt>
      <trkpt lat="47.51481" lon="6.7773">
        <ele>366</ele>
        <time>2015-03-15T11:23:57.000Z</time>
      </trkpt>
      <trkpt lat="47.51484" lon="6.77731">
        <ele>366</ele>
        <time>2015-03-15T11:23:59.000Z</time>
      </trkpt>
      <trkpt lat="47.51486" lon="6.77731">
        <ele>366</ele>
        <time>2015-03-15T11:24:00.000Z</time>
      </trkpt>
      <trkpt lat="47.5149" lon="6.77729">
        <ele>366</ele>
        <time>2015-03-15T11:24:02.000Z</time>
      </trkpt>
      <trkpt lat="47.51492" lon="6.77728">
        <ele>366</ele>
        <time>2015-03-15T11:24:03.000Z</time>
      </trkpt>
      <trkpt lat="47.51495" lon="6.77727">
        <ele>366</ele>
        <time>2015-03-15T11:24:04.000Z</time>
      </trkpt>
      <trkpt lat="47.51497" lon="6.77726">
        <ele>366</ele>
        <time>2015-03-15T11:24:05.000Z</time>
      </trkpt>
      <trkpt lat="47.51501" lon="6.77723">
        <ele>371</ele>
        <time>2015-03-15T11:24:07.000Z</time>
      </trkpt>
      <trkpt lat="47.51503" lon="6.77722">
        <ele>371</ele>
        <time>2015-03-15T11:24:08.000Z</time>
      </trkpt>
      <trkpt lat="47.51507" lon="6.77723">
        <ele>371</ele>
        <time>2015-03-15T11:24:11.000Z</time>
      </trkpt>
      <trkpt lat="47.51508" lon="6.77723">
        <ele>371</ele>
        <time>2015-03-15T11:24:12.000Z</time>
      </trkpt>
      <trkpt lat="47.51511" lon="6.77725">
        <ele>371</ele>
        <time>2015-03-15T11:24:15.000Z</time>
      </trkpt>
      <trkpt lat="47.51512" lon="6.77726">
        <ele>371</ele>
        <time>2015-03-15T11:24:16.000Z</time>
      </trkpt>
      <trkpt lat="47.51516" lon="6.77726">
        <ele>371</ele>
        <time>2015-03-15T11:24:18.000Z</time>
      </trkpt>
      <trkpt lat="47.51517" lon="6.77727">
        <ele>371</ele>
        <time>2015-03-15T11:24:19.000Z</time>
      </trkpt>
      <trkpt lat="47.51521" lon="6.77726">
        <ele>371</ele>
        <time>2015-03-15T11:24:24.000Z</time>
      </trkpt>
      <trkpt lat="47.51522" lon="6.77725">
        <ele>372</ele>
        <time>2015-03-15T11:24:25.000Z</time>
      </trkpt>
      <trkpt lat="47.51526" lon="6.77727">
        <ele>372</ele>
        <time>2015-03-15T11:24:28.000Z</time>
      </trkpt>
      <trkpt lat="47.51528" lon="6.77727">
        <ele>372</ele>
        <time>2015-03-15T11:24:29.000Z</time>
      </trkpt>
      <trkpt lat="47.51531" lon="6.77727">
        <ele>372</ele>
        <time>2015-03-15T11:24:31.000Z</time>
      </trkpt>
      <trkpt lat="47.51532" lon="6.77728">
        <ele>372</ele>
        <time>2015-03-15T11:24:32.000Z</time>
      </trkpt>
      <trkpt lat="47.51535" lon="6.77729">
        <ele>372</ele>
        <time>2015-03-15T11:24:34.000Z</time>
      </trkpt>
      <trkpt lat="47.51537" lon="6.77728">
        <ele>373</ele>
        <time>2015-03-15T11:24:35.000Z</time>
      </trkpt>
      <trkpt lat="47.5154" lon="6.77726">
        <ele>373</ele>
        <time>2015-03-15T11:24:37.000Z</time>
      </trkpt>
      <trkpt lat="47.51541" lon="6.77725">
        <ele>373</ele>
        <time>2015-03-15T11:24:38.000Z</time>
      </trkpt>
      <trkpt lat="47.51545" lon="6.77724">
        <ele>373</ele>
        <time>2015-03-15T11:24:40.000Z</time>
      </trkpt>
      <trkpt lat="47.51547" lon="6.77724">
        <ele>374</ele>
        <time>2015-03-15T11:24:41.000Z</time>
      </trkpt>
      <trkpt lat="47.5155" lon="6.77725">
        <ele>374</ele>
        <time>2015-03-15T11:24:43.000Z</time>
      </trkpt>
      <trkpt lat="47.51552" lon="6.77726">
        <ele>374</ele>
        <time>2015-03-15T11:24:44.000Z</time>
      </trkpt>
      <trkpt lat="47.51554" lon="6.77729">
        <ele>374</ele>
        <time>2015-03-15T11:24:46.000Z</time>
      </trkpt>
      <trkpt lat="47.51555" lon="6.77731">
        <ele>374</ele>
        <time>2015-03-15T11:24:47.000Z</time>
      </trkpt>
      <trkpt lat="47.51559" lon="6.77731">
        <ele>374</ele>
        <time>2015-03-15T11:24:50.000Z</time>
      </trkpt>
      <trkpt lat="47.51562" lon="6.7773">
        <ele>374</ele>
        <time>2015-03-15T11:24:51.000Z</time>
      </trkpt>
      <trkpt lat="47.51566" lon="6.77729">
        <ele>375</ele>
        <time>2015-03-15T11:24:53.000Z</time>
      </trkpt>
      <trkpt lat="47.51567" lon="6.77729">
        <ele>375</ele>
        <time>2015-03-15T11:24:54.000Z</time>
      </trkpt>
      <trkpt lat="47.51571" lon="6.77729">
        <ele>375</ele>
        <time>2015-03-15T11:24:56.000Z</time>
      </trkpt>
      <trkpt lat="47.51573" lon="6.77729">
        <ele>375</ele>
        <time>2015-03-15T11:24:57.000Z</time>
      </trkpt>
      <trkpt lat="47.51577" lon="6.77729">
        <ele>375</ele>
        <time>2015-03-15T11:25:04.000Z</time>
      </trkpt>
      <trkpt lat="47.51577" lon="6.7773">
        <ele>375</ele>
        <time>2015-03-15T11:25:05.000Z</time>
      </trkpt>
      <trkpt lat="47.5158" lon="6.77733">
        <ele>375</ele>
        <time>2015-03-15T11:25:07.000Z</time>
      </trkpt>
      <trkpt lat="47.51581" lon="6.77735">
        <ele>375</ele>
        <time>2015-03-15T11:25:08.000Z</time>
      </trkpt>
      <trkpt lat="47.51583" lon="6.77737">
        <ele>378</ele>
        <time>2015-03-15T11:25:09.000Z</time>
      </trkpt>
      <trkpt lat="47.51585" lon="6.77739">
        <ele>378</ele>
        <time>2015-03-15T11:25:10.000Z</time>
      </trkpt>
      <trkpt lat="47.51588" lon="6.77744">
        <ele>378</ele>
        <time>2015-03-15T11:25:12.000Z</time>
      </trkpt>
      <trkpt lat="47.51589" lon="6.77746">
        <ele>377</ele>
        <time>2015-03-15T11:25:13.000Z</time>
      </trkpt>
      <trkpt lat="47.51592" lon="6.77751">
        <ele>378</ele>
        <time>2015-03-15T11:25:15.000Z</time>
      </trkpt>
      <trkpt lat="47.51594" lon="6.7775">
        <ele>378</ele>
        <time>2015-03-15T11:25:16.000Z</time>
      </trkpt>
      <trkpt lat="47.51597" lon="6.77754">
        <ele>379</ele>
        <time>2015-03-15T11:25:20.000Z</time>
      </trkpt>
      <trkpt lat="47.51598" lon="6.77755">
        <ele>379</ele>
        <time>2015-03-15T11:25:21.000Z</time>
      </trkpt>
      <trkpt lat="47.51602" lon="6.77757">
        <ele>380</ele>
        <time>2015-03-15T11:25:23.000Z</time>
      </trkpt>
      <trkpt lat="47.51604" lon="6.77758">
        <ele>380</ele>
        <time>2015-03-15T11:25:24.000Z</time>
      </trkpt>
      <trkpt lat="47.51609" lon="6.77759">
        <ele>380</ele>
        <time>2015-03-15T11:25:26.000Z</time>
      </trkpt>
      <trkpt lat="47.5161" lon="6.77759">
        <ele>381</ele>
        <time>2015-03-15T11:25:27.000Z</time>
      </trkpt>
      <trkpt lat="47.51613" lon="6.7776">
        <ele>381</ele>
        <time>2015-03-15T11:25:29.000Z</time>
      </trkpt>
      <trkpt lat="47.51615" lon="6.77761">
        <ele>381</ele>
        <time>2015-03-15T11:25:30.000Z</time>
      </trkpt>
      <trkpt lat="47.51619" lon="6.77761">
        <ele>381</ele>
        <time>2015-03-15T11:25:32.000Z</time>
      </trkpt>
      <trkpt lat="47.51621" lon="6.77762">
        <ele>381</ele>
        <time>2015-03-15T11:25:33.000Z</time>
      </trkpt>
      <trkpt lat="47.51624" lon="6.77763">
        <ele>382</ele>
        <time>2015-03-15T11:25:35.000Z</time>
      </trkpt>
      <trkpt lat="47.51625" lon="6.77764">
        <ele>382</ele>
        <time>2015-03-15T11:25:36.000Z</time>
      </trkpt>
      <trkpt lat="47.51629" lon="6.77767">
        <ele>382</ele>
        <time>2015-03-15T11:25:39.000Z</time>
      </trkpt>
      <trkpt lat="47.5163" lon="6.77768">
        <ele>382</ele>
        <time>2015-03-15T11:25:40.000Z</time>
      </trkpt>
      <trkpt lat="47.51634" lon="6.7777">
        <ele>382</ele>
        <time>2015-03-15T11:25:42.000Z</time>
      </trkpt>
      <trkpt lat="47.51636" lon="6.7777">
        <ele>382</ele>
        <time>2015-03-15T11:25:43.000Z</time>
      </trkpt>
      <trkpt lat="47.51639" lon="6.77771">
        <ele>382</ele>
        <time>2015-03-15T11:25:46.000Z</time>
      </trkpt>
      <trkpt lat="47.51641" lon="6.77771">
        <ele>382</ele>
        <time>2015-03-15T11:25:47.000Z</time>
      </trkpt>
      <trkpt lat="47.51644" lon="6.77771">
        <ele>382</ele>
        <time>2015-03-15T11:25:49.000Z</time>
      </trkpt>
      <trkpt lat="47.51646" lon="6.77771">
        <ele>382</ele>
        <time>2015-03-15T11:25:50.000Z</time>
      </trkpt>
      <trkpt lat="47.5165" lon="6.77772">
        <ele>383</ele>
        <time>2015-03-15T11:25:52.000Z</time>
      </trkpt>
      <trkpt lat="47.51652" lon="6.77773">
        <ele>383</ele>
        <time>2015-03-15T11:25:53.000Z</time>
      </trkpt>
      <trkpt lat="47.51655" lon="6.77776">
        <ele>383</ele>
        <time>2015-03-15T11:25:55.000Z</time>
      </trkpt>
      <trkpt lat="47.51657" lon="6.77777">
        <ele>383</ele>
        <time>2015-03-15T11:25:56.000Z</time>
      </trkpt>
      <trkpt lat="47.51661" lon="6.77779">
        <ele>383</ele>
        <time>2015-03-15T11:25:58.000Z</time>
      </trkpt>
      <trkpt lat="47.51663" lon="6.77781">
        <ele>383</ele>
        <time>2015-03-15T11:25:59.000Z</time>
      </trkpt>
      <trkpt lat="47.51667" lon="6.77783">
        <ele>383</ele>
        <time>2015-03-15T11:26:01.000Z</time>
      </trkpt>
      <trkpt lat="47.51668" lon="6.77784">
        <ele>385</ele>
        <time>2015-03-15T11:26:02.000Z</time>
      </trkpt>
      <trkpt lat="47.5167" lon="6.77785">
        <ele>385</ele>
        <time>2015-03-15T11:26:03.000Z</time>
      </trkpt>
      <trkpt lat="47.51673" lon="6.77784">
        <ele>385</ele>
        <time>2015-03-15T11:26:04.000Z</time>
      </trkpt>
      <trkpt lat="47.51676" lon="6.77784">
        <ele>385</ele>
        <time>2015-03-15T11:26:05.000Z</time>
      </trkpt>
      <trkpt lat="47.51678" lon="6.77784">
        <ele>385</ele>
        <time>2015-03-15T11:26:06.000Z</time>
      </trkpt>
      <trkpt lat="47.51681" lon="6.77784">
        <ele>385</ele>
        <time>2015-03-15T11:26:07.000Z</time>
      </trkpt>
      <trkpt lat="47.51683" lon="6.77785">
        <ele>385</ele>
        <time>2015-03-15T11:26:08.000Z</time>
      </trkpt>
      <trkpt lat="47.51685" lon="6.77788">
        <ele>386</ele>
        <time>2015-03-15T11:26:12.000Z</time>
      </trkpt>
      <trkpt lat="47.51686" lon="6.7779">
        <ele>386</ele>
        <time>2015-03-15T11:26:13.000Z</time>
      </trkpt>
      <trkpt lat="47.5169" lon="6.77791">
        <ele>386</ele>
        <time>2015-03-15T11:26:15.000Z</time>
      </trkpt>
      <trkpt lat="47.51691" lon="6.7779">
        <ele>386</ele>
        <time>2015-03-15T11:26:16.000Z</time>
      </trkpt>
      <trkpt lat="47.51693" lon="6.77787">
        <ele>386</ele>
        <time>2015-03-15T11:26:17.000Z</time>
      </trkpt>
      <trkpt lat="47.51695" lon="6.77783">
        <ele>386</ele>
        <time>2015-03-15T11:26:18.000Z</time>
      </trkpt>
      <trkpt lat="47.51696" lon="6.77779">
        <ele>386</ele>
        <time>2015-03-15T11:26:19.000Z</time>
      </trkpt>
      <trkpt lat="47.51698" lon="6.77775">
        <ele>386</ele>
        <time>2015-03-15T11:26:20.000Z</time>
      </trkpt>
      <trkpt lat="47.51699" lon="6.77771">
        <ele>386</ele>
        <time>2015-03-15T11:26:21.000Z</time>
      </trkpt>
      <trkpt lat="47.517" lon="6.77767">
        <ele>386</ele>
        <time>2015-03-15T11:26:22.000Z</time>
      </trkpt>
      <trkpt lat="47.51701" lon="6.77764">
        <ele>386</ele>
        <time>2015-03-15T11:26:23.000Z</time>
      </trkpt>
      <trkpt lat="47.51702" lon="6.77761">
        <ele>386</ele>
        <time>2015-03-15T11:26:24.000Z</time>
      </trkpt>
      <trkpt lat="47.51704" lon="6.77756">
        <ele>386</ele>
        <time>2015-03-15T11:26:26.000Z</time>
      </trkpt>
      <trkpt lat="47.51705" lon="6.77753">
        <ele>386</ele>
        <time>2015-03-15T11:26:27.000Z</time>
      </trkpt>
      <trkpt lat="47.51706" lon="6.77747">
        <ele>387</ele>
        <time>2015-03-15T11:26:29.000Z</time>
      </trkpt>
      <trkpt lat="47.51707" lon="6.77744">
        <ele>387</ele>
        <time>2015-03-15T11:26:30.000Z</time>
      </trkpt>
      <trkpt lat="47.51708" lon="6.77739">
        <ele>387</ele>
        <time>2015-03-15T11:26:32.000Z</time>
      </trkpt>
      <trkpt lat="47.51709" lon="6.77736">
        <ele>387</ele>
        <time>2015-03-15T11:26:33.000Z</time>
      </trkpt>
      <trkpt lat="47.5171" lon="6.77731">
        <ele>387</ele>
        <time>2015-03-15T11:26:35.000Z</time>
      </trkpt>
      <trkpt lat="47.5171" lon="6.77726">
        <ele>387</ele>
        <time>2015-03-15T11:26:36.000Z</time>
      </trkpt>
      <trkpt lat="47.5171" lon="6.77722">
        <ele>387</ele>
        <time>2015-03-15T11:26:37.000Z</time>
      </trkpt>
      <trkpt lat="47.51711" lon="6.77717">
        <ele>387</ele>
        <time>2015-03-15T11:26:38.000Z</time>
      </trkpt>
      <trkpt lat="47.51711" lon="6.77713">
        <ele>388</ele>
        <time>2015-03-15T11:26:39.000Z</time>
      </trkpt>
      <trkpt lat="47.51712" lon="6.77709">
        <ele>388</ele>
        <time>2015-03-15T11:26:40.000Z</time>
      </trkpt>
      <trkpt lat="47.51712" lon="6.77705">
        <ele>388</ele>
        <time>2015-03-15T11:26:41.000Z</time>
      </trkpt>
      <trkpt lat="47.51712" lon="6.77701">
        <ele>388</ele>
        <time>2015-03-15T11:26:42.000Z</time>
      </trkpt>
      <trkpt lat="47.51713" lon="6.77698">
        <ele>388</ele>
        <time>2015-03-15T11:26:43.000Z</time>
      </trkpt>
      <trkpt lat="47.51713" lon="6.77694">
        <ele>388</ele>
        <time>2015-03-15T11:26:44.000Z</time>
      </trkpt>
      <trkpt lat="47.51715" lon="6.77688">
        <ele>388</ele>
        <time>2015-03-15T11:26:46.000Z</time>
      </trkpt>
      <trkpt lat="47.51715" lon="6.77685">
        <ele>388</ele>
        <time>2015-03-15T11:26:47.000Z</time>
      </trkpt>
      <trkpt lat="47.51716" lon="6.77679">
        <ele>388</ele>
        <time>2015-03-15T11:26:49.000Z</time>
      </trkpt>
      <trkpt lat="47.51716" lon="6.77676">
        <ele>388</ele>
        <time>2015-03-15T11:26:50.000Z</time>
      </trkpt>
      <trkpt lat="47.51717" lon="6.7767">
        <ele>388</ele>
        <time>2015-03-15T11:26:52.000Z</time>
      </trkpt>
      <trkpt lat="47.51718" lon="6.77667">
        <ele>388</ele>
        <time>2015-03-15T11:26:53.000Z</time>
      </trkpt>
      <trkpt lat="47.51719" lon="6.77661">
        <ele>390</ele>
        <time>2015-03-15T11:26:55.000Z</time>
      </trkpt>
      <trkpt lat="47.51719" lon="6.77658">
        <ele>390</ele>
        <time>2015-03-15T11:26:56.000Z</time>
      </trkpt>
      <trkpt lat="47.51719" lon="6.77655">
        <ele>390</ele>
        <time>2015-03-15T11:26:57.000Z</time>
      </trkpt>
      <trkpt lat="47.5172" lon="6.77651">
        <ele>390</ele>
        <time>2015-03-15T11:26:58.000Z</time>
      </trkpt>
      <trkpt lat="47.5172" lon="6.77648">
        <ele>390</ele>
        <time>2015-03-15T11:26:59.000Z</time>
      </trkpt>
      <trkpt lat="47.51719" lon="6.77644">
        <ele>390</ele>
        <time>2015-03-15T11:27:00.000Z</time>
      </trkpt>
      <trkpt lat="47.5172" lon="6.77641">
        <ele>390</ele>
        <time>2015-03-15T11:27:01.000Z</time>
      </trkpt>
      <trkpt lat="47.5172" lon="6.77637">
        <ele>390</ele>
        <time>2015-03-15T11:27:02.000Z</time>
      </trkpt>
      <trkpt lat="47.5172" lon="6.77634">
        <ele>390</ele>
        <time>2015-03-15T11:27:03.000Z</time>
      </trkpt>
      <trkpt lat="47.5172" lon="6.7763">
        <ele>390</ele>
        <time>2015-03-15T11:27:04.000Z</time>
      </trkpt>
      <trkpt lat="47.5172" lon="6.77624">
        <ele>390</ele>
        <time>2015-03-15T11:27:06.000Z</time>
      </trkpt>
      <trkpt lat="47.5172" lon="6.77621">
        <ele>390</ele>
        <time>2015-03-15T11:27:07.000Z</time>
      </trkpt>
      <trkpt lat="47.5172" lon="6.77615">
        <ele>390</ele>
        <time>2015-03-15T11:27:09.000Z</time>
      </trkpt>
      <trkpt lat="47.5172" lon="6.77613">
        <ele>390</ele>
        <time>2015-03-15T11:27:10.000Z</time>
      </trkpt>
      <trkpt lat="47.51721" lon="6.77607">
        <ele>390</ele>
        <time>2015-03-15T11:27:12.000Z</time>
      </trkpt>
      <trkpt lat="47.51721" lon="6.77604">
        <ele>390</ele>
        <time>2015-03-15T11:27:13.000Z</time>
      </trkpt>
      <trkpt lat="47.51722" lon="6.77599">
        <ele>390</ele>
        <time>2015-03-15T11:27:15.000Z</time>
      </trkpt>
      <trkpt lat="47.51723" lon="6.77597">
        <ele>390</ele>
        <time>2015-03-15T11:27:16.000Z</time>
      </trkpt>
      <trkpt lat="47.51724" lon="6.77592">
        <ele>390</ele>
        <time>2015-03-15T11:27:25.000Z</time>
      </trkpt>
      <trkpt lat="47.51724" lon="6.7759">
        <ele>391</ele>
        <time>2015-03-15T11:27:26.000Z</time>
      </trkpt>
      <trkpt lat="47.51724" lon="6.77583">
        <ele>391</ele>
        <time>2015-03-15T11:27:28.000Z</time>
      </trkpt>
      <trkpt lat="47.51723" lon="6.77579">
        <ele>391</ele>
        <time>2015-03-15T11:27:29.000Z</time>
      </trkpt>
      <trkpt lat="47.51722" lon="6.77574">
        <ele>391</ele>
        <time>2015-03-15T11:27:30.000Z</time>
      </trkpt>
      <trkpt lat="47.51722" lon="6.77567">
        <ele>390</ele>
        <time>2015-03-15T11:27:31.000Z</time>
      </trkpt>
      <trkpt lat="47.51722" lon="6.7756">
        <ele>390</ele>
        <time>2015-03-15T11:27:32.000Z</time>
      </trkpt>
      <trkpt lat="47.51723" lon="6.77553">
        <ele>390</ele>
        <time>2015-03-15T11:27:33.000Z</time>
      </trkpt>
      <trkpt lat="47.51725" lon="6.77546">
        <ele>390</ele>
        <time>2015-03-15T11:27:34.000Z</time>
      </trkpt>
      <trkpt lat="47.51726" lon="6.77539">
        <ele>390</ele>
        <time>2015-03-15T11:27:35.000Z</time>
      </trkpt>
      <trkpt lat="47.51727" lon="6.77533">
        <ele>390</ele>
        <time>2015-03-15T11:27:36.000Z</time>
      </trkpt>
      <trkpt lat="47.51729" lon="6.77527">
        <ele>390</ele>
        <time>2015-03-15T11:27:37.000Z</time>
      </trkpt>
      <trkpt lat="47.5173" lon="6.7752">
        <ele>390</ele>
        <time>2015-03-15T11:27:38.000Z</time>
      </trkpt>
      <trkpt lat="47.51731" lon="6.77514">
        <ele>390</ele>
        <time>2015-03-15T11:27:39.000Z</time>
      </trkpt>
      <trkpt lat="47.51732" lon="6.77508">
        <ele>390</ele>
        <time>2015-03-15T11:27:40.000Z</time>
      </trkpt>
      <trkpt lat="47.51733" lon="6.77503">
        <ele>390</ele>
        <time>2015-03-15T11:27:41.000Z</time>
      </trkpt>
      <trkpt lat="47.51734" lon="6.77497">
        <ele>389</ele>
        <time>2015-03-15T11:27:42.000Z</time>
      </trkpt>
      <trkpt lat="47.51735" lon="6.77491">
        <ele>389</ele>
        <time>2015-03-15T11:27:43.000Z</time>
      </trkpt>
      <trkpt lat="47.51737" lon="6.77486">
        <ele>389</ele>
        <time>2015-03-15T11:27:44.000Z</time>
      </trkpt>
      <trkpt lat="47.51739" lon="6.77482">
        <ele>389</ele>
        <time>2015-03-15T11:27:45.000Z</time>
      </trkpt>
      <trkpt lat="47.51742" lon="6.77478">
        <ele>389</ele>
        <time>2015-03-15T11:27:46.000Z</time>
      </trkpt>
      <trkpt lat="47.51746" lon="6.77493">
        <ele>390</ele>
        <time>2015-03-15T11:27:47.000Z</time>
      </trkpt>
      <trkpt lat="47.5175" lon="6.77494">
        <ele>390</ele>
        <time>2015-03-15T11:27:48.000Z</time>
      </trkpt>
      <trkpt lat="47.51756" lon="6.77491">
        <ele>389</ele>
        <time>2015-03-15T11:27:49.000Z</time>
      </trkpt>
      <trkpt lat="47.51761" lon="6.7749">
        <ele>389</ele>
        <time>2015-03-15T11:27:50.000Z</time>
      </trkpt>
      <trkpt lat="47.51765" lon="6.7749">
        <ele>389</ele>
        <time>2015-03-15T11:27:51.000Z</time>
      </trkpt>
      <trkpt lat="47.51769" lon="6.77491">
        <ele>389</ele>
        <time>2015-03-15T11:27:52.000Z</time>
      </trkpt>
      <trkpt lat="47.51773" lon="6.77492">
        <ele>389</ele>
        <time>2015-03-15T11:27:53.000Z</time>
      </trkpt>
      <trkpt lat="47.51778" lon="6.77493">
        <ele>388</ele>
        <time>2015-03-15T11:27:54.000Z</time>
      </trkpt>
      <trkpt lat="47.51782" lon="6.77493">
        <ele>388</ele>
        <time>2015-03-15T11:27:55.000Z</time>
      </trkpt>
      <trkpt lat="47.51786" lon="6.77496">
        <ele>388</ele>
        <time>2015-03-15T11:27:56.000Z</time>
      </trkpt>
      <trkpt lat="47.5179" lon="6.77498">
        <ele>388</ele>
        <time>2015-03-15T11:27:57.000Z</time>
      </trkpt>
      <trkpt lat="47.51794" lon="6.77498">
        <ele>388</ele>
        <time>2015-03-15T11:27:58.000Z</time>
      </trkpt>
      <trkpt lat="47.51799" lon="6.775">
        <ele>388</ele>
        <time>2015-03-15T11:27:59.000Z</time>
      </trkpt>
      <trkpt lat="47.51804" lon="6.77502">
        <ele>389</ele>
        <time>2015-03-15T11:28:00.000Z</time>
      </trkpt>
      <trkpt lat="47.51808" lon="6.775">
        <ele>389</ele>
        <time>2015-03-15T11:28:01.000Z</time>
      </trkpt>
      <trkpt lat="47.5181" lon="6.77497">
        <ele>388</ele>
        <time>2015-03-15T11:28:02.000Z</time>
      </trkpt>
      <trkpt lat="47.5181" lon="6.77491">
        <ele>388</ele>
        <time>2015-03-15T11:28:03.000Z</time>
      </trkpt>
      <trkpt lat="47.51808" lon="6.77487">
        <ele>388</ele>
        <time>2015-03-15T11:28:04.000Z</time>
      </trkpt>
      <trkpt lat="47.51807" lon="6.77483">
        <ele>388</ele>
        <time>2015-03-15T11:28:05.000Z</time>
      </trkpt>
      <trkpt lat="47.51804" lon="6.77479">
        <ele>388</ele>
        <time>2015-03-15T11:31:53.000Z</time>
      </trkpt>
      <trkpt lat="47.51804" lon="6.77479">
        <ele>388</ele>
        <time>2015-03-15T11:31:54.000Z</time>
      </trkpt>
      <trkpt lat="47.51801" lon="6.77477">
        <ele>388</ele>
        <time>2015-03-15T11:31:58.000Z</time>
      </trkpt>
      <trkpt lat="47.518" lon="6.77474">
        <ele>388</ele>
        <time>2015-03-15T11:31:59.000Z</time>
      </trkpt>
      <trkpt lat="47.518" lon="6.77471">
        <ele>388</ele>
        <time>2015-03-15T11:43:14.000Z</time>
      </trkpt>
    </trkseg>
  </trk>
</gpx>